<?xml version='1.0' encoding='UTF-8'?><gpx version="1.1" creator="JPX - https://github.com/jenetics/jpx" xmlns="http://www.topografix.com/GPX/1/1"><trk><trkseg><trkpt lat="45.1042665" lon="10.7792543"><ele>24.0</ele><time>2026-05-01T06:40:31.744Z</time></trkpt><trkpt lat="45.1042875" lon="10.779354"><ele>24.0</ele><time>2026-05-01T06:42:18.796Z</time></trkpt><trkpt lat="45.1043055" lon="10.7794705"><ele>24.0</ele><time>2026-05-01T06:42:21.764Z</time></trkpt><trkpt lat="45.104345" lon="10.77958"><ele>24.0</ele><time>2026-05-01T06:42:23.751Z</time></trkpt><trkpt lat="45.1044052" lon="10.7796855"><ele>24.0</ele><time>2026-05-01T06:42:25.748Z</time></trkpt><trkpt lat="45.1044721" lon="10.779786"><ele>24.0</ele><time>2026-05-01T06:42:27.809Z</time></trkpt><trkpt lat="45.1045581" lon="10.7798845"><ele>24.0</ele><time>2026-05-01T06:42:29.787Z</time></trkpt><trkpt lat="45.1046496" lon="10.7799665"><ele>24.0</ele><time>2026-05-01T06:42:31.765Z</time></trkpt><trkpt lat="45.1047375" lon="10.7799306"><ele>24.0</ele><time>2026-05-01T06:42:33.749Z</time></trkpt><trkpt lat="45.1048125" lon="10.7798764"><ele>24.0</ele><time>2026-05-01T06:42:35.743Z</time></trkpt><trkpt lat="45.1048678" lon="10.7798299"><ele>24.0</ele><time>2026-05-01T06:42:36.751Z</time></trkpt><trkpt lat="45.1049268" lon="10.7797726"><ele>24.0</ele><time>2026-05-01T06:42:37.748Z</time></trkpt><trkpt lat="45.1049877" lon="10.7797123"><ele>23.833333333333332</ele><time>2026-05-01T06:42:38.754Z</time></trkpt><trkpt lat="45.1050494" lon="10.7796472"><ele>23.666666666666668</ele><time>2026-05-01T06:42:39.745Z</time></trkpt><trkpt lat="45.1051097" lon="10.7795779"><ele>23.5</ele><time>2026-05-01T06:42:40.75Z</time></trkpt><trkpt lat="45.1051682" lon="10.7795039"><ele>23.333333333333336</ele><time>2026-05-01T06:42:41.752Z</time></trkpt><trkpt lat="45.1052312" lon="10.7794322"><ele>23.166666666666668</ele><time>2026-05-01T06:42:42.747Z</time></trkpt><trkpt lat="45.1052934" lon="10.7793586"><ele>23.0</ele><time>2026-05-01T06:42:43.748Z</time></trkpt><trkpt lat="45.1053595" lon="10.7792883"><ele>23.0</ele><time>2026-05-01T06:42:44.749Z</time></trkpt><trkpt lat="45.1054281" lon="10.7792155"><ele>23.0</ele><time>2026-05-01T06:42:45.749Z</time></trkpt><trkpt lat="45.105498" lon="10.7791404"><ele>23.0</ele><time>2026-05-01T06:42:46.742Z</time></trkpt><trkpt lat="45.1055654" lon="10.7790666"><ele>23.0</ele><time>2026-05-01T06:42:47.752Z</time></trkpt><trkpt lat="45.1056319" lon="10.7789931"><ele>23.0</ele><time>2026-05-01T06:42:48.756Z</time></trkpt><trkpt lat="45.1056985" lon="10.7789304"><ele>23.0</ele><time>2026-05-01T06:42:49.752Z</time></trkpt><trkpt lat="45.1057649" lon="10.7788834"><ele>23.166666666666668</ele><time>2026-05-01T06:42:50.747Z</time></trkpt><trkpt lat="45.1058243" lon="10.7788533"><ele>23.333333333333336</ele><time>2026-05-01T06:42:51.757Z</time></trkpt><trkpt lat="45.1059458" lon="10.7788379"><ele>23.5</ele><time>2026-05-01T06:42:53.745Z</time></trkpt><trkpt lat="45.1060131" lon="10.7788509"><ele>23.666666666666668</ele><time>2026-05-01T06:42:54.754Z</time></trkpt><trkpt lat="45.1060899" lon="10.7788801"><ele>23.833333333333332</ele><time>2026-05-01T06:42:55.751Z</time></trkpt><trkpt lat="45.1061705" lon="10.7789167"><ele>24.0</ele><time>2026-05-01T06:42:56.755Z</time></trkpt><trkpt lat="45.10625" lon="10.778953"><ele>24.0</ele><time>2026-05-01T06:42:57.753Z</time></trkpt><trkpt lat="45.10633" lon="10.7789893"><ele>24.0</ele><time>2026-05-01T06:42:58.749Z</time></trkpt><trkpt lat="45.106404" lon="10.7790265"><ele>24.0</ele><time>2026-05-01T06:42:59.751Z</time></trkpt><trkpt lat="45.1064709" lon="10.7790585"><ele>24.0</ele><time>2026-05-01T06:43:00.75Z</time></trkpt><trkpt lat="45.1065309" lon="10.779087"><ele>24.0</ele><time>2026-05-01T06:43:01.749Z</time></trkpt><trkpt lat="45.1066417" lon="10.7791484"><ele>24.0</ele><time>2026-05-01T06:43:03.75Z</time></trkpt><trkpt lat="45.1067574" lon="10.7792097"><ele>24.0</ele><time>2026-05-01T06:43:05.752Z</time></trkpt><trkpt lat="45.1068211" lon="10.779246"><ele>24.0</ele><time>2026-05-01T06:43:06.75Z</time></trkpt><trkpt lat="45.1068835" lon="10.7792843"><ele>24.0</ele><time>2026-05-01T06:43:07.748Z</time></trkpt><trkpt lat="45.1069436" lon="10.7793213"><ele>24.0</ele><time>2026-05-01T06:43:08.749Z</time></trkpt><trkpt lat="45.1070585" lon="10.7793759"><ele>24.0</ele><time>2026-05-01T06:43:10.746Z</time></trkpt><trkpt lat="45.107171" lon="10.7794283"><ele>24.0</ele><time>2026-05-01T06:43:12.752Z</time></trkpt><trkpt lat="45.1072948" lon="10.7794894"><ele>23.833333333333332</ele><time>2026-05-01T06:43:14.75Z</time></trkpt><trkpt lat="45.1073643" lon="10.7795225"><ele>23.666666666666668</ele><time>2026-05-01T06:43:15.747Z</time></trkpt><trkpt lat="45.1074393" lon="10.7795519"><ele>23.5</ele><time>2026-05-01T06:43:16.746Z</time></trkpt><trkpt lat="45.1075181" lon="10.7795876"><ele>23.333333333333336</ele><time>2026-05-01T06:43:17.749Z</time></trkpt><trkpt lat="45.1076026" lon="10.7796306"><ele>23.166666666666668</ele><time>2026-05-01T06:43:18.75Z</time></trkpt><trkpt lat="45.1076885" lon="10.7796775"><ele>23.0</ele><time>2026-05-01T06:43:19.761Z</time></trkpt><trkpt lat="45.1077795" lon="10.7797265"><ele>23.4</ele><time>2026-05-01T06:43:20.751Z</time></trkpt><trkpt lat="45.1078744" lon="10.7797734"><ele>23.799999999999997</ele><time>2026-05-01T06:43:21.749Z</time></trkpt><trkpt lat="45.1079683" lon="10.7798203"><ele>24.2</ele><time>2026-05-01T06:43:22.752Z</time></trkpt><trkpt lat="45.1080618" lon="10.7798698"><ele>24.6</ele><time>2026-05-01T06:43:23.75Z</time></trkpt><trkpt lat="45.1081639" lon="10.7799241"><ele>25.0</ele><time>2026-05-01T06:43:24.753Z</time></trkpt><trkpt lat="45.1082739" lon="10.7799764"><ele>25.0</ele><time>2026-05-01T06:43:25.752Z</time></trkpt><trkpt lat="45.1083861" lon="10.7800327"><ele>25.0</ele><time>2026-05-01T06:43:26.744Z</time></trkpt><trkpt lat="45.1085" lon="10.780094"><ele>25.0</ele><time>2026-05-01T06:43:27.753Z</time></trkpt><trkpt lat="45.1086165" lon="10.7801543"><ele>25.0</ele><time>2026-05-01T06:43:28.752Z</time></trkpt><trkpt lat="45.1087347" lon="10.7802172"><ele>24.25</ele><time>2026-05-01T06:43:29.748Z</time></trkpt><trkpt lat="45.1088561" lon="10.7802811"><ele>23.5</ele><time>2026-05-01T06:43:30.749Z</time></trkpt><trkpt lat="45.108978" lon="10.7803414"><ele>22.75</ele><time>2026-05-01T06:43:31.748Z</time></trkpt><trkpt lat="45.1091048" lon="10.7804013"><ele>22.0</ele><time>2026-05-01T06:43:32.753Z</time></trkpt><trkpt lat="45.1092371" lon="10.7804655"><ele>21.75</ele><time>2026-05-01T06:43:33.744Z</time></trkpt><trkpt lat="45.1093676" lon="10.7805385"><ele>21.5</ele><time>2026-05-01T06:43:34.748Z</time></trkpt><trkpt lat="45.1094964" lon="10.7806068"><ele>21.25</ele><time>2026-05-01T06:43:35.748Z</time></trkpt><trkpt lat="45.1096248" lon="10.7806732"><ele>21.0</ele><time>2026-05-01T06:43:36.744Z</time></trkpt><trkpt lat="45.1097563" lon="10.7807428"><ele>21.0</ele><time>2026-05-01T06:43:37.744Z</time></trkpt><trkpt lat="45.1098854" lon="10.7808121"><ele>21.0</ele><time>2026-05-01T06:43:38.743Z</time></trkpt><trkpt lat="45.1100199" lon="10.7808816"><ele>21.0</ele><time>2026-05-01T06:43:39.742Z</time></trkpt><trkpt lat="45.1101579" lon="10.7809559"><ele>21.0</ele><time>2026-05-01T06:43:40.742Z</time></trkpt><trkpt lat="45.1102965" lon="10.7810273"><ele>21.5</ele><time>2026-05-01T06:43:41.744Z</time></trkpt><trkpt lat="45.1104339" lon="10.7810938"><ele>22.0</ele><time>2026-05-01T06:43:42.744Z</time></trkpt><trkpt lat="45.1105737" lon="10.7811647"><ele>22.5</ele><time>2026-05-01T06:43:43.742Z</time></trkpt><trkpt lat="45.1107151" lon="10.7812369"><ele>23.0</ele><time>2026-05-01T06:43:44.744Z</time></trkpt><trkpt lat="45.1108596" lon="10.7813115"><ele>23.0</ele><time>2026-05-01T06:43:45.742Z</time></trkpt><trkpt lat="45.1110062" lon="10.7813879"><ele>23.0</ele><time>2026-05-01T06:43:46.742Z</time></trkpt><trkpt lat="45.1111518" lon="10.7814633"><ele>23.0</ele><time>2026-05-01T06:43:47.742Z</time></trkpt><trkpt lat="45.1112984" lon="10.781535"><ele>23.0</ele><time>2026-05-01T06:43:48.743Z</time></trkpt><trkpt lat="45.1114422" lon="10.781608"><ele>23.0</ele><time>2026-05-01T06:43:49.745Z</time></trkpt><trkpt lat="45.11159" lon="10.7816828"><ele>23.0</ele><time>2026-05-01T06:43:50.746Z</time></trkpt><trkpt lat="45.1117367" lon="10.7817583"><ele>23.0</ele><time>2026-05-01T06:43:51.744Z</time></trkpt><trkpt lat="45.1118834" lon="10.78183"><ele>23.0</ele><time>2026-05-01T06:43:52.742Z</time></trkpt><trkpt lat="45.1120307" lon="10.7819048"><ele>23.0</ele><time>2026-05-01T06:43:53.743Z</time></trkpt><trkpt lat="45.1121844" lon="10.7819854"><ele>22.666666666666668</ele><time>2026-05-01T06:43:54.745Z</time></trkpt><trkpt lat="45.1123395" lon="10.7820628"><ele>22.333333333333332</ele><time>2026-05-01T06:43:55.742Z</time></trkpt><trkpt lat="45.1124961" lon="10.782141"><ele>22.0</ele><time>2026-05-01T06:43:56.744Z</time></trkpt><trkpt lat="45.1126529" lon="10.7822215"><ele>22.0</ele><time>2026-05-01T06:43:57.746Z</time></trkpt><trkpt lat="45.1128082" lon="10.7823024"><ele>22.0</ele><time>2026-05-01T06:43:58.749Z</time></trkpt><trkpt lat="45.1129647" lon="10.7823811"><ele>22.0</ele><time>2026-05-01T06:43:59.75Z</time></trkpt><trkpt lat="45.11312" lon="10.7824581"><ele>22.666666666666664</ele><time>2026-05-01T06:44:00.749Z</time></trkpt><trkpt lat="45.1132779" lon="10.782532"><ele>23.333333333333332</ele><time>2026-05-01T06:44:01.747Z</time></trkpt><trkpt lat="45.1134367" lon="10.7826079"><ele>24.0</ele><time>2026-05-01T06:44:02.749Z</time></trkpt><trkpt lat="45.1135937" lon="10.7826879"><ele>24.0</ele><time>2026-05-01T06:44:03.749Z</time></trkpt><trkpt lat="45.1137519" lon="10.7827714"><ele>24.0</ele><time>2026-05-01T06:44:04.747Z</time></trkpt><trkpt lat="45.1139102" lon="10.7828548"><ele>24.0</ele><time>2026-05-01T06:44:05.749Z</time></trkpt><trkpt lat="45.1140683" lon="10.7829395"><ele>23.333333333333332</ele><time>2026-05-01T06:44:06.751Z</time></trkpt><trkpt lat="45.114228" lon="10.7830229"><ele>22.666666666666664</ele><time>2026-05-01T06:44:07.744Z</time></trkpt><trkpt lat="45.1143869" lon="10.7831044"><ele>22.0</ele><time>2026-05-01T06:44:08.748Z</time></trkpt><trkpt lat="45.1145448" lon="10.7831816"><ele>22.0</ele><time>2026-05-01T06:44:09.743Z</time></trkpt><trkpt lat="45.114702" lon="10.7832599"><ele>22.0</ele><time>2026-05-01T06:44:10.75Z</time></trkpt><trkpt lat="45.1148569" lon="10.7833366"><ele>22.0</ele><time>2026-05-01T06:44:11.75Z</time></trkpt><trkpt lat="45.1150088" lon="10.7834124"><ele>22.666666666666664</ele><time>2026-05-01T06:44:12.751Z</time></trkpt><trkpt lat="45.1151602" lon="10.7834853"><ele>23.333333333333332</ele><time>2026-05-01T06:44:13.749Z</time></trkpt><trkpt lat="45.1153117" lon="10.7835619"><ele>24.0</ele><time>2026-05-01T06:44:14.75Z</time></trkpt><trkpt lat="45.1154615" lon="10.7836356"><ele>24.0</ele><time>2026-05-01T06:44:15.749Z</time></trkpt><trkpt lat="45.1156099" lon="10.7837103"><ele>24.0</ele><time>2026-05-01T06:44:16.748Z</time></trkpt><trkpt lat="45.1157568" lon="10.7837831"><ele>24.0</ele><time>2026-05-01T06:44:17.748Z</time></trkpt><trkpt lat="45.1159005" lon="10.783857"><ele>23.333333333333332</ele><time>2026-05-01T06:44:18.751Z</time></trkpt><trkpt lat="45.1160433" lon="10.7839316"><ele>22.666666666666664</ele><time>2026-05-01T06:44:19.749Z</time></trkpt><trkpt lat="45.1161852" lon="10.7840051"><ele>22.0</ele><time>2026-05-01T06:44:20.749Z</time></trkpt><trkpt lat="45.1163238" lon="10.7840749"><ele>22.0</ele><time>2026-05-01T06:44:21.757Z</time></trkpt><trkpt lat="45.1164602" lon="10.7841445"><ele>22.0</ele><time>2026-05-01T06:44:22.756Z</time></trkpt><trkpt lat="45.1165938" lon="10.7842177"><ele>22.0</ele><time>2026-05-01T06:44:23.752Z</time></trkpt><trkpt lat="45.1167238" lon="10.7842852"><ele>22.0</ele><time>2026-05-01T06:44:24.755Z</time></trkpt><trkpt lat="45.1168489" lon="10.7843454"><ele>22.5</ele><time>2026-05-01T06:44:25.749Z</time></trkpt><trkpt lat="45.1169705" lon="10.7844066"><ele>23.0</ele><time>2026-05-01T06:44:26.751Z</time></trkpt><trkpt lat="45.117092" lon="10.7844645"><ele>23.5</ele><time>2026-05-01T06:44:27.748Z</time></trkpt><trkpt lat="45.1172108" lon="10.7845227"><ele>24.0</ele><time>2026-05-01T06:44:28.748Z</time></trkpt><trkpt lat="45.1173236" lon="10.7845786"><ele>24.0</ele><time>2026-05-01T06:44:29.754Z</time></trkpt><trkpt lat="45.11743" lon="10.784633"><ele>24.0</ele><time>2026-05-01T06:44:30.753Z</time></trkpt><trkpt lat="45.1175306" lon="10.7846846"><ele>24.0</ele><time>2026-05-01T06:44:31.75Z</time></trkpt><trkpt lat="45.1176313" lon="10.7847331"><ele>24.0</ele><time>2026-05-01T06:44:32.75Z</time></trkpt><trkpt lat="45.1177314" lon="10.7847775"><ele>24.0</ele><time>2026-05-01T06:44:33.752Z</time></trkpt><trkpt lat="45.1178368" lon="10.7848259"><ele>24.0</ele><time>2026-05-01T06:44:34.747Z</time></trkpt><trkpt lat="45.1179482" lon="10.7848805"><ele>24.0</ele><time>2026-05-01T06:44:35.751Z</time></trkpt><trkpt lat="45.1180656" lon="10.7849402"><ele>24.0</ele><time>2026-05-01T06:44:36.753Z</time></trkpt><trkpt lat="45.1181838" lon="10.7850018"><ele>24.0</ele><time>2026-05-01T06:44:37.747Z</time></trkpt><trkpt lat="45.1182983" lon="10.7850625"><ele>24.0</ele><time>2026-05-01T06:44:38.747Z</time></trkpt><trkpt lat="45.1184048" lon="10.78512"><ele>24.0</ele><time>2026-05-01T06:44:39.751Z</time></trkpt><trkpt lat="45.1185037" lon="10.7851751"><ele>24.0</ele><time>2026-05-01T06:44:40.749Z</time></trkpt><trkpt lat="45.1185972" lon="10.7852296"><ele>24.0</ele><time>2026-05-01T06:44:41.751Z</time></trkpt><trkpt lat="45.1186843" lon="10.7852802"><ele>24.0</ele><time>2026-05-01T06:44:42.75Z</time></trkpt><trkpt lat="45.1187658" lon="10.7853268"><ele>24.0</ele><time>2026-05-01T06:44:43.742Z</time></trkpt><trkpt lat="45.1188454" lon="10.7853674"><ele>24.0</ele><time>2026-05-01T06:44:44.752Z</time></trkpt><trkpt lat="45.118923" lon="10.7854054"><ele>24.0</ele><time>2026-05-01T06:44:45.749Z</time></trkpt><trkpt lat="45.1189967" lon="10.7854463"><ele>24.0</ele><time>2026-05-01T06:44:46.751Z</time></trkpt><trkpt lat="45.1190625" lon="10.7854824"><ele>24.0</ele><time>2026-05-01T06:44:47.757Z</time></trkpt><trkpt lat="45.1191664" lon="10.7855391"><ele>24.0</ele><time>2026-05-01T06:44:49.751Z</time></trkpt><trkpt lat="45.1192332" lon="10.7855786"><ele>23.75</ele><time>2026-05-01T06:44:51.752Z</time></trkpt><trkpt lat="45.1194366" lon="10.7857064"><ele>23.5</ele><time>2026-05-01T06:45:49.748Z</time></trkpt><trkpt lat="45.1195409" lon="10.7857586"><ele>23.25</ele><time>2026-05-01T06:45:50.752Z</time></trkpt><trkpt lat="45.1196329" lon="10.7858008"><ele>23.0</ele><time>2026-05-01T06:45:51.75Z</time></trkpt><trkpt lat="45.1197306" lon="10.7858425"><ele>23.0</ele><time>2026-05-01T06:45:52.753Z</time></trkpt><trkpt lat="45.1198358" lon="10.7858875"><ele>23.0</ele><time>2026-05-01T06:45:53.749Z</time></trkpt><trkpt lat="45.1199442" lon="10.7859361"><ele>23.0</ele><time>2026-05-01T06:45:54.743Z</time></trkpt><trkpt lat="45.1200547" lon="10.7859889"><ele>23.0</ele><time>2026-05-01T06:45:55.743Z</time></trkpt><trkpt lat="45.1201709" lon="10.7860475"><ele>23.5</ele><time>2026-05-01T06:45:56.752Z</time></trkpt><trkpt lat="45.1202923" lon="10.7861081"><ele>24.0</ele><time>2026-05-01T06:45:57.752Z</time></trkpt><trkpt lat="45.1204158" lon="10.7861679"><ele>24.5</ele><time>2026-05-01T06:45:58.742Z</time></trkpt><trkpt lat="45.1205417" lon="10.7862283"><ele>25.0</ele><time>2026-05-01T06:45:59.751Z</time></trkpt><trkpt lat="45.12067" lon="10.7862917"><ele>24.75</ele><time>2026-05-01T06:46:00.751Z</time></trkpt><trkpt lat="45.1207983" lon="10.786355"><ele>24.5</ele><time>2026-05-01T06:46:01.75Z</time></trkpt><trkpt lat="45.1209283" lon="10.7864183"><ele>24.25</ele><time>2026-05-01T06:46:02.753Z</time></trkpt><trkpt lat="45.1210567" lon="10.7864833"><ele>24.0</ele><time>2026-05-01T06:46:03.75Z</time></trkpt><trkpt lat="45.1211917" lon="10.78655"><ele>24.0</ele><time>2026-05-01T06:46:04.749Z</time></trkpt><trkpt lat="45.12133" lon="10.7866133"><ele>24.0</ele><time>2026-05-01T06:46:05.743Z</time></trkpt><trkpt lat="45.1214667" lon="10.7866767"><ele>24.0</ele><time>2026-05-01T06:46:06.753Z</time></trkpt><trkpt lat="45.12161" lon="10.78675"><ele>24.0</ele><time>2026-05-01T06:46:07.747Z</time></trkpt><trkpt lat="45.1217517" lon="10.7868217"><ele>24.333333333333336</ele><time>2026-05-01T06:46:08.748Z</time></trkpt><trkpt lat="45.1218967" lon="10.7868917"><ele>24.666666666666668</ele><time>2026-05-01T06:46:09.749Z</time></trkpt><trkpt lat="45.122045" lon="10.7869667"><ele>25.0</ele><time>2026-05-01T06:46:10.749Z</time></trkpt><trkpt lat="45.1221933" lon="10.7870467"><ele>25.0</ele><time>2026-05-01T06:46:11.749Z</time></trkpt><trkpt lat="45.1223383" lon="10.7871217"><ele>25.0</ele><time>2026-05-01T06:46:12.748Z</time></trkpt><trkpt lat="45.122485" lon="10.7871917"><ele>25.0</ele><time>2026-05-01T06:46:13.748Z</time></trkpt><trkpt lat="45.1226317" lon="10.78726"><ele>24.5</ele><time>2026-05-01T06:46:14.751Z</time></trkpt><trkpt lat="45.122775" lon="10.7873233"><ele>24.0</ele><time>2026-05-01T06:46:15.751Z</time></trkpt><trkpt lat="45.1229067" lon="10.7873833"><ele>23.5</ele><time>2026-05-01T06:46:16.745Z</time></trkpt><trkpt lat="45.1230317" lon="10.7874383"><ele>23.0</ele><time>2026-05-01T06:46:17.75Z</time></trkpt><trkpt lat="45.1231483" lon="10.787495"><ele>23.0</ele><time>2026-05-01T06:46:18.752Z</time></trkpt><trkpt lat="45.12325" lon="10.7875433"><ele>23.0</ele><time>2026-05-01T06:46:19.742Z</time></trkpt><trkpt lat="45.12334" lon="10.7875917"><ele>23.0</ele><time>2026-05-01T06:46:20.751Z</time></trkpt><trkpt lat="45.1234183" lon="10.7876417"><ele>23.0</ele><time>2026-05-01T06:46:21.752Z</time></trkpt><trkpt lat="45.1235" lon="10.7877217"><ele>23.0</ele><time>2026-05-01T06:46:23.754Z</time></trkpt><trkpt lat="45.1235383" lon="10.7877967"><ele>23.0</ele><time>2026-05-01T06:46:25.753Z</time></trkpt><trkpt lat="45.12357" lon="10.787945"><ele>23.0</ele><time>2026-05-01T06:46:27.745Z</time></trkpt><trkpt lat="45.1235617" lon="10.7880467"><ele>23.0</ele><time>2026-05-01T06:46:28.749Z</time></trkpt><trkpt lat="45.1235267" lon="10.7881533"><ele>23.0</ele><time>2026-05-01T06:46:29.755Z</time></trkpt><trkpt lat="45.1234833" lon="10.788265"><ele>23.0</ele><time>2026-05-01T06:46:30.75Z</time></trkpt><trkpt lat="45.1234167" lon="10.7883683"><ele>23.0</ele><time>2026-05-01T06:46:31.75Z</time></trkpt><trkpt lat="45.1233533" lon="10.7884767"><ele>23.0</ele><time>2026-05-01T06:46:32.752Z</time></trkpt><trkpt lat="45.123285" lon="10.7885867"><ele>23.0</ele><time>2026-05-01T06:46:33.756Z</time></trkpt><trkpt lat="45.1232167" lon="10.7887"><ele>23.0</ele><time>2026-05-01T06:46:34.755Z</time></trkpt><trkpt lat="45.123145" lon="10.7888283"><ele>23.0</ele><time>2026-05-01T06:46:35.749Z</time></trkpt><trkpt lat="45.1230733" lon="10.7889733"><ele>23.0</ele><time>2026-05-01T06:46:36.75Z</time></trkpt><trkpt lat="45.123005" lon="10.7891267"><ele>23.0</ele><time>2026-05-01T06:46:37.75Z</time></trkpt><trkpt lat="45.122935" lon="10.78929"><ele>23.0</ele><time>2026-05-01T06:46:38.749Z</time></trkpt><trkpt lat="45.1228717" lon="10.7894717"><ele>23.0</ele><time>2026-05-01T06:46:39.755Z</time></trkpt><trkpt lat="45.1228167" lon="10.78966"><ele>23.0</ele><time>2026-05-01T06:46:40.749Z</time></trkpt><trkpt lat="45.12276" lon="10.789855"><ele>23.0</ele><time>2026-05-01T06:46:41.749Z</time></trkpt><trkpt lat="45.1227067" lon="10.790055"><ele>23.0</ele><time>2026-05-01T06:46:42.749Z</time></trkpt><trkpt lat="45.12265" lon="10.7902583"><ele>23.0</ele><time>2026-05-01T06:46:43.748Z</time></trkpt><trkpt lat="45.1225933" lon="10.79047"><ele>23.0</ele><time>2026-05-01T06:46:44.75Z</time></trkpt><trkpt lat="45.1225367" lon="10.7906817"><ele>23.0</ele><time>2026-05-01T06:46:45.75Z</time></trkpt><trkpt lat="45.1224767" lon="10.7908967"><ele>23.0</ele><time>2026-05-01T06:46:46.751Z</time></trkpt><trkpt lat="45.1224133" lon="10.791115"><ele>23.0</ele><time>2026-05-01T06:46:47.756Z</time></trkpt><trkpt lat="45.1223533" lon="10.791335"><ele>23.0</ele><time>2026-05-01T06:46:48.743Z</time></trkpt><trkpt lat="45.1222933" lon="10.7915567"><ele>23.0</ele><time>2026-05-01T06:46:49.75Z</time></trkpt><trkpt lat="45.1222383" lon="10.7917817"><ele>23.0</ele><time>2026-05-01T06:46:50.749Z</time></trkpt><trkpt lat="45.1221783" lon="10.7920067"><ele>23.0</ele><time>2026-05-01T06:46:51.742Z</time></trkpt><trkpt lat="45.12212" lon="10.792235"><ele>23.0</ele><time>2026-05-01T06:46:52.749Z</time></trkpt><trkpt lat="45.1220583" lon="10.79246"><ele>23.0</ele><time>2026-05-01T06:46:53.742Z</time></trkpt><trkpt lat="45.1219933" lon="10.7926833"><ele>23.0</ele><time>2026-05-01T06:46:54.752Z</time></trkpt><trkpt lat="45.1219233" lon="10.7929067"><ele>23.0</ele><time>2026-05-01T06:46:55.747Z</time></trkpt><trkpt lat="45.121845" lon="10.7931217"><ele>23.0</ele><time>2026-05-01T06:46:56.748Z</time></trkpt><trkpt lat="45.1217467" lon="10.7933217"><ele>23.0</ele><time>2026-05-01T06:46:57.742Z</time></trkpt><trkpt lat="45.1216333" lon="10.793505"><ele>23.0</ele><time>2026-05-01T06:46:58.748Z</time></trkpt><trkpt lat="45.121515" lon="10.7936733"><ele>23.0</ele><time>2026-05-01T06:46:59.752Z</time></trkpt><trkpt lat="45.1213833" lon="10.7938233"><ele>23.0</ele><time>2026-05-01T06:47:00.752Z</time></trkpt><trkpt lat="45.1212433" lon="10.7939683"><ele>23.0</ele><time>2026-05-01T06:47:01.751Z</time></trkpt><trkpt lat="45.1211017" lon="10.794115"><ele>23.0</ele><time>2026-05-01T06:47:02.749Z</time></trkpt><trkpt lat="45.1209617" lon="10.7942633"><ele>23.0</ele><time>2026-05-01T06:47:03.741Z</time></trkpt><trkpt lat="45.12082" lon="10.794415"><ele>23.0</ele><time>2026-05-01T06:47:04.747Z</time></trkpt><trkpt lat="45.1206783" lon="10.794575"><ele>23.0</ele><time>2026-05-01T06:47:05.749Z</time></trkpt><trkpt lat="45.12055" lon="10.7947467"><ele>23.0</ele><time>2026-05-01T06:47:06.752Z</time></trkpt><trkpt lat="45.1204333" lon="10.794935"><ele>23.0</ele><time>2026-05-01T06:47:07.741Z</time></trkpt><trkpt lat="45.1203367" lon="10.7951367"><ele>23.0</ele><time>2026-05-01T06:47:08.75Z</time></trkpt><trkpt lat="45.120255" lon="10.795345"><ele>23.0</ele><time>2026-05-01T06:47:09.751Z</time></trkpt><trkpt lat="45.12018" lon="10.7955517"><ele>23.0</ele><time>2026-05-01T06:47:10.742Z</time></trkpt><trkpt lat="45.1201033" lon="10.79576"><ele>23.0</ele><time>2026-05-01T06:47:11.748Z</time></trkpt><trkpt lat="45.1200317" lon="10.7959667"><ele>23.0</ele><time>2026-05-01T06:47:12.746Z</time></trkpt><trkpt lat="45.1199583" lon="10.79618"><ele>22.333333333333336</ele><time>2026-05-01T06:47:13.747Z</time></trkpt><trkpt lat="45.1198867" lon="10.79639"><ele>21.666666666666668</ele><time>2026-05-01T06:47:14.752Z</time></trkpt><trkpt lat="45.1198133" lon="10.7965933"><ele>21.0</ele><time>2026-05-01T06:47:15.749Z</time></trkpt><trkpt lat="45.119735" lon="10.7967883"><ele>20.666666666666668</ele><time>2026-05-01T06:47:16.748Z</time></trkpt><trkpt lat="45.1196583" lon="10.796975"><ele>20.333333333333336</ele><time>2026-05-01T06:47:17.75Z</time></trkpt><trkpt lat="45.11958" lon="10.7971567"><ele>20.0</ele><time>2026-05-01T06:47:18.748Z</time></trkpt><trkpt lat="45.1195" lon="10.7973367"><ele>20.0</ele><time>2026-05-01T06:47:19.748Z</time></trkpt><trkpt lat="45.119415" lon="10.7975133"><ele>20.0</ele><time>2026-05-01T06:47:20.748Z</time></trkpt><trkpt lat="45.1193267" lon="10.7976883"><ele>20.0</ele><time>2026-05-01T06:47:21.747Z</time></trkpt><trkpt lat="45.1192383" lon="10.7978683"><ele>20.333333333333336</ele><time>2026-05-01T06:47:22.749Z</time></trkpt><trkpt lat="45.119155" lon="10.7980567"><ele>20.666666666666668</ele><time>2026-05-01T06:47:23.755Z</time></trkpt><trkpt lat="45.11907" lon="10.7982417"><ele>21.0</ele><time>2026-05-01T06:47:24.741Z</time></trkpt><trkpt lat="45.118985" lon="10.79843"><ele>21.666666666666668</ele><time>2026-05-01T06:47:25.752Z</time></trkpt><trkpt lat="45.1189" lon="10.7986167"><ele>22.333333333333336</ele><time>2026-05-01T06:47:26.748Z</time></trkpt><trkpt lat="45.1188183" lon="10.798805"><ele>23.0</ele><time>2026-05-01T06:47:27.743Z</time></trkpt><trkpt lat="45.11874" lon="10.79899"><ele>23.0</ele><time>2026-05-01T06:47:28.747Z</time></trkpt><trkpt lat="45.1186683" lon="10.79918"><ele>23.0</ele><time>2026-05-01T06:47:29.747Z</time></trkpt><trkpt lat="45.118605" lon="10.79937"><ele>23.0</ele><time>2026-05-01T06:47:30.745Z</time></trkpt><trkpt lat="45.1185533" lon="10.79957"><ele>23.333333333333336</ele><time>2026-05-01T06:47:31.742Z</time></trkpt><trkpt lat="45.1185117" lon="10.79978"><ele>23.666666666666668</ele><time>2026-05-01T06:47:32.747Z</time></trkpt><trkpt lat="45.1184883" lon="10.7999933"><ele>24.0</ele><time>2026-05-01T06:47:33.747Z</time></trkpt><trkpt lat="45.11848" lon="10.8002067"><ele>23.5</ele><time>2026-05-01T06:47:34.745Z</time></trkpt><trkpt lat="45.1184817" lon="10.8004117"><ele>23.0</ele><time>2026-05-01T06:47:35.746Z</time></trkpt><trkpt lat="45.1184817" lon="10.8006133"><ele>22.5</ele><time>2026-05-01T06:47:36.75Z</time></trkpt><trkpt lat="45.1184783" lon="10.8008133"><ele>22.0</ele><time>2026-05-01T06:47:37.743Z</time></trkpt><trkpt lat="45.1184667" lon="10.8010067"><ele>21.5</ele><time>2026-05-01T06:47:38.748Z</time></trkpt><trkpt lat="45.1184467" lon="10.8011917"><ele>21.0</ele><time>2026-05-01T06:47:39.747Z</time></trkpt><trkpt lat="45.11842" lon="10.80137"><ele>20.5</ele><time>2026-05-01T06:47:40.753Z</time></trkpt><trkpt lat="45.118395" lon="10.801555"><ele>20.0</ele><time>2026-05-01T06:47:41.746Z</time></trkpt><trkpt lat="45.11837" lon="10.801745"><ele>20.0</ele><time>2026-05-01T06:47:42.746Z</time></trkpt><trkpt lat="45.1183333" lon="10.80193"><ele>20.0</ele><time>2026-05-01T06:47:43.741Z</time></trkpt><trkpt lat="45.1182883" lon="10.8021133"><ele>20.0</ele><time>2026-05-01T06:47:44.744Z</time></trkpt><trkpt lat="45.11823" lon="10.802295"><ele>20.0</ele><time>2026-05-01T06:47:45.747Z</time></trkpt><trkpt lat="45.1181667" lon="10.8024783"><ele>20.0</ele><time>2026-05-01T06:47:46.75Z</time></trkpt><trkpt lat="45.118095" lon="10.80266"><ele>20.0</ele><time>2026-05-01T06:47:47.745Z</time></trkpt><trkpt lat="45.1180217" lon="10.8028367"><ele>20.0</ele><time>2026-05-01T06:47:48.757Z</time></trkpt><trkpt lat="45.117945" lon="10.8030117"><ele>20.0</ele><time>2026-05-01T06:47:49.752Z</time></trkpt><trkpt lat="45.117785" lon="10.8033483"><ele>20.0</ele><time>2026-05-01T06:47:51.752Z</time></trkpt><trkpt lat="45.11771" lon="10.80351"><ele>20.0</ele><time>2026-05-01T06:47:52.748Z</time></trkpt><trkpt lat="45.1176333" lon="10.8036683"><ele>20.0</ele><time>2026-05-01T06:47:53.748Z</time></trkpt><trkpt lat="45.1175567" lon="10.8038267"><ele>20.0</ele><time>2026-05-01T06:47:54.742Z</time></trkpt><trkpt lat="45.11748" lon="10.8039833"><ele>20.0</ele><time>2026-05-01T06:47:55.748Z</time></trkpt><trkpt lat="45.1174033" lon="10.8041383"><ele>20.0</ele><time>2026-05-01T06:47:56.751Z</time></trkpt><trkpt lat="45.117325" lon="10.8042933"><ele>20.0</ele><time>2026-05-01T06:47:57.747Z</time></trkpt><trkpt lat="45.11725" lon="10.8044483"><ele>20.0</ele><time>2026-05-01T06:47:58.748Z</time></trkpt><trkpt lat="45.11718" lon="10.8045983"><ele>19.75</ele><time>2026-05-01T06:47:59.741Z</time></trkpt><trkpt lat="45.11711" lon="10.80475"><ele>19.5</ele><time>2026-05-01T06:48:00.75Z</time></trkpt><trkpt lat="45.117035" lon="10.8049017"><ele>19.25</ele><time>2026-05-01T06:48:01.747Z</time></trkpt><trkpt lat="45.1169667" lon="10.8050617"><ele>19.0</ele><time>2026-05-01T06:48:02.748Z</time></trkpt><trkpt lat="45.1168917" lon="10.805225"><ele>19.5</ele><time>2026-05-01T06:48:03.745Z</time></trkpt><trkpt lat="45.1168133" lon="10.805395"><ele>20.0</ele><time>2026-05-01T06:48:04.746Z</time></trkpt><trkpt lat="45.1167367" lon="10.80557"><ele>20.5</ele><time>2026-05-01T06:48:05.748Z</time></trkpt><trkpt lat="45.1166583" lon="10.80575"><ele>21.0</ele><time>2026-05-01T06:48:06.747Z</time></trkpt><trkpt lat="45.1165817" lon="10.8059317"><ele>21.0</ele><time>2026-05-01T06:48:07.748Z</time></trkpt><trkpt lat="45.116505" lon="10.8061133"><ele>21.0</ele><time>2026-05-01T06:48:08.75Z</time></trkpt><trkpt lat="45.1164317" lon="10.8063"><ele>21.0</ele><time>2026-05-01T06:48:09.741Z</time></trkpt><trkpt lat="45.11636" lon="10.806485"><ele>21.0</ele><time>2026-05-01T06:48:10.749Z</time></trkpt><trkpt lat="45.1162883" lon="10.80667"><ele>21.25</ele><time>2026-05-01T06:48:11.745Z</time></trkpt><trkpt lat="45.11622" lon="10.80685"><ele>21.5</ele><time>2026-05-01T06:48:12.747Z</time></trkpt><trkpt lat="45.11615" lon="10.8070333"><ele>21.75</ele><time>2026-05-01T06:48:13.743Z</time></trkpt><trkpt lat="45.1160817" lon="10.8072167"><ele>22.0</ele><time>2026-05-01T06:48:14.742Z</time></trkpt><trkpt lat="45.1160117" lon="10.8074033"><ele>22.0</ele><time>2026-05-01T06:48:15.742Z</time></trkpt><trkpt lat="45.1159467" lon="10.8075933"><ele>22.0</ele><time>2026-05-01T06:48:16.758Z</time></trkpt><trkpt lat="45.1158833" lon="10.8077867"><ele>22.0</ele><time>2026-05-01T06:48:17.751Z</time></trkpt><trkpt lat="45.1158267" lon="10.80798"><ele>22.0</ele><time>2026-05-01T06:48:18.755Z</time></trkpt><trkpt lat="45.1157733" lon="10.8081733"><ele>21.75</ele><time>2026-05-01T06:48:19.75Z</time></trkpt><trkpt lat="45.11572" lon="10.8083617"><ele>21.5</ele><time>2026-05-01T06:48:20.748Z</time></trkpt><trkpt lat="45.1156683" lon="10.808535"><ele>21.25</ele><time>2026-05-01T06:48:21.751Z</time></trkpt><trkpt lat="45.1156233" lon="10.8086917"><ele>21.0</ele><time>2026-05-01T06:48:22.751Z</time></trkpt><trkpt lat="45.1155833" lon="10.808835"><ele>20.8</ele><time>2026-05-01T06:48:23.751Z</time></trkpt><trkpt lat="45.1155467" lon="10.80897"><ele>20.6</ele><time>2026-05-01T06:48:24.745Z</time></trkpt><trkpt lat="45.1155083" lon="10.809105"><ele>20.4</ele><time>2026-05-01T06:48:25.745Z</time></trkpt><trkpt lat="45.115465" lon="10.8092517"><ele>20.2</ele><time>2026-05-01T06:48:26.748Z</time></trkpt><trkpt lat="45.1154167" lon="10.8094067"><ele>20.0</ele><time>2026-05-01T06:48:27.75Z</time></trkpt><trkpt lat="45.115365" lon="10.8095683"><ele>20.0</ele><time>2026-05-01T06:48:28.744Z</time></trkpt><trkpt lat="45.1153083" lon="10.8097367"><ele>20.0</ele><time>2026-05-01T06:48:29.747Z</time></trkpt><trkpt lat="45.11525" lon="10.8099117"><ele>20.0</ele><time>2026-05-01T06:48:30.748Z</time></trkpt><trkpt lat="45.11519" lon="10.8100917"><ele>20.0</ele><time>2026-05-01T06:48:31.741Z</time></trkpt><trkpt lat="45.115135" lon="10.8102717"><ele>20.5</ele><time>2026-05-01T06:48:32.749Z</time></trkpt><trkpt lat="45.11508" lon="10.8104483"><ele>21.0</ele><time>2026-05-01T06:48:33.746Z</time></trkpt><trkpt lat="45.1150283" lon="10.8106183"><ele>21.5</ele><time>2026-05-01T06:48:34.747Z</time></trkpt><trkpt lat="45.114975" lon="10.8107833"><ele>22.0</ele><time>2026-05-01T06:48:35.748Z</time></trkpt><trkpt lat="45.1149183" lon="10.8109467"><ele>21.5</ele><time>2026-05-01T06:48:36.746Z</time></trkpt><trkpt lat="45.1148633" lon="10.81111"><ele>21.0</ele><time>2026-05-01T06:48:37.744Z</time></trkpt><trkpt lat="45.114805" lon="10.8112733"><ele>20.5</ele><time>2026-05-01T06:48:38.752Z</time></trkpt><trkpt lat="45.1147467" lon="10.8114367"><ele>20.0</ele><time>2026-05-01T06:48:39.75Z</time></trkpt><trkpt lat="45.114685" lon="10.8116033"><ele>20.0</ele><time>2026-05-01T06:48:40.749Z</time></trkpt><trkpt lat="45.1146183" lon="10.81177"><ele>20.0</ele><time>2026-05-01T06:48:41.751Z</time></trkpt><trkpt lat="45.1145517" lon="10.8119383"><ele>20.0</ele><time>2026-05-01T06:48:42.751Z</time></trkpt><trkpt lat="45.1144833" lon="10.8121067"><ele>20.0</ele><time>2026-05-01T06:48:43.75Z</time></trkpt><trkpt lat="45.1144183" lon="10.8122717"><ele>21.0</ele><time>2026-05-01T06:48:44.751Z</time></trkpt><trkpt lat="45.11435" lon="10.81244"><ele>22.0</ele><time>2026-05-01T06:48:45.749Z</time></trkpt><trkpt lat="45.114275" lon="10.8126033"><ele>23.0</ele><time>2026-05-01T06:48:46.749Z</time></trkpt><trkpt lat="45.1141983" lon="10.8127733"><ele>24.0</ele><time>2026-05-01T06:48:47.741Z</time></trkpt><trkpt lat="45.1141217" lon="10.8129433"><ele>24.25</ele><time>2026-05-01T06:48:48.751Z</time></trkpt><trkpt lat="45.114045" lon="10.8131133"><ele>24.5</ele><time>2026-05-01T06:48:49.748Z</time></trkpt><trkpt lat="45.1139733" lon="10.81328"><ele>24.75</ele><time>2026-05-01T06:48:50.744Z</time></trkpt><trkpt lat="45.113905" lon="10.8134417"><ele>25.0</ele><time>2026-05-01T06:48:51.741Z</time></trkpt><trkpt lat="45.1138383" lon="10.8136033"><ele>24.25</ele><time>2026-05-01T06:48:52.746Z</time></trkpt><trkpt lat="45.113775" lon="10.8137667"><ele>23.5</ele><time>2026-05-01T06:48:53.749Z</time></trkpt><trkpt lat="45.1137167" lon="10.8139283"><ele>22.75</ele><time>2026-05-01T06:48:54.747Z</time></trkpt><trkpt lat="45.1136633" lon="10.8140817"><ele>22.0</ele><time>2026-05-01T06:48:55.747Z</time></trkpt><trkpt lat="45.1136117" lon="10.8142317"><ele>22.200000000000003</ele><time>2026-05-01T06:48:56.751Z</time></trkpt><trkpt lat="45.11356" lon="10.814385"><ele>22.4</ele><time>2026-05-01T06:48:57.748Z</time></trkpt><trkpt lat="45.1135117" lon="10.8145283"><ele>22.6</ele><time>2026-05-01T06:48:58.751Z</time></trkpt><trkpt lat="45.1134667" lon="10.8146683"><ele>22.799999999999997</ele><time>2026-05-01T06:48:59.751Z</time></trkpt><trkpt lat="45.11342" lon="10.8148067"><ele>23.0</ele><time>2026-05-01T06:49:00.743Z</time></trkpt><trkpt lat="45.1133683" lon="10.8149533"><ele>23.0</ele><time>2026-05-01T06:49:01.75Z</time></trkpt><trkpt lat="45.113315" lon="10.815095"><ele>23.0</ele><time>2026-05-01T06:49:02.744Z</time></trkpt><trkpt lat="45.11326" lon="10.8152283"><ele>23.0</ele><time>2026-05-01T06:49:03.746Z</time></trkpt><trkpt lat="45.1132" lon="10.815355"><ele>23.0</ele><time>2026-05-01T06:49:04.749Z</time></trkpt><trkpt lat="45.1131417" lon="10.815475"><ele>23.0</ele><time>2026-05-01T06:49:05.746Z</time></trkpt><trkpt lat="45.113075" lon="10.8155833"><ele>22.599999999999998</ele><time>2026-05-01T06:49:06.751Z</time></trkpt><trkpt lat="45.113" lon="10.8156883"><ele>22.2</ele><time>2026-05-01T06:49:07.748Z</time></trkpt><trkpt lat="45.11292" lon="10.815785"><ele>21.8</ele><time>2026-05-01T06:49:08.752Z</time></trkpt><trkpt lat="45.1128317" lon="10.81588"><ele>21.4</ele><time>2026-05-01T06:49:09.749Z</time></trkpt><trkpt lat="45.1127383" lon="10.81597"><ele>21.0</ele><time>2026-05-01T06:49:10.749Z</time></trkpt><trkpt lat="45.1126417" lon="10.8160583"><ele>21.0</ele><time>2026-05-01T06:49:11.759Z</time></trkpt><trkpt lat="45.11255" lon="10.816145"><ele>21.0</ele><time>2026-05-01T06:49:12.75Z</time></trkpt><trkpt lat="45.1124617" lon="10.8162267"><ele>21.0</ele><time>2026-05-01T06:49:13.748Z</time></trkpt><trkpt lat="45.1123717" lon="10.8163083"><ele>21.0</ele><time>2026-05-01T06:49:14.748Z</time></trkpt><trkpt lat="45.1122783" lon="10.8163883"><ele>21.0</ele><time>2026-05-01T06:49:15.75Z</time></trkpt><trkpt lat="45.1121883" lon="10.8164717"><ele>21.0</ele><time>2026-05-01T06:49:16.75Z</time></trkpt><trkpt lat="45.1121" lon="10.816555"><ele>21.0</ele><time>2026-05-01T06:49:17.748Z</time></trkpt><trkpt lat="45.1120117" lon="10.8166417"><ele>21.0</ele><time>2026-05-01T06:49:18.749Z</time></trkpt><trkpt lat="45.1119217" lon="10.8167367"><ele>21.0</ele><time>2026-05-01T06:49:19.741Z</time></trkpt><trkpt lat="45.1118383" lon="10.816845"><ele>21.0</ele><time>2026-05-01T06:49:20.75Z</time></trkpt><trkpt lat="45.111765" lon="10.816975"><ele>20.5</ele><time>2026-05-01T06:49:21.753Z</time></trkpt><trkpt lat="45.1117" lon="10.8171183"><ele>20.0</ele><time>2026-05-01T06:49:22.746Z</time></trkpt><trkpt lat="45.1116417" lon="10.81728"><ele>19.5</ele><time>2026-05-01T06:49:23.75Z</time></trkpt><trkpt lat="45.11159" lon="10.8174467"><ele>19.0</ele><time>2026-05-01T06:49:24.749Z</time></trkpt><trkpt lat="45.1115383" lon="10.81762"><ele>19.0</ele><time>2026-05-01T06:49:25.747Z</time></trkpt><trkpt lat="45.1114867" lon="10.8177983"><ele>19.0</ele><time>2026-05-01T06:49:26.741Z</time></trkpt><trkpt lat="45.111435" lon="10.8179783"><ele>19.0</ele><time>2026-05-01T06:49:27.749Z</time></trkpt><trkpt lat="45.111385" lon="10.81816"><ele>19.0</ele><time>2026-05-01T06:49:28.752Z</time></trkpt><trkpt lat="45.11134" lon="10.818345"><ele>19.5</ele><time>2026-05-01T06:49:29.748Z</time></trkpt><trkpt lat="45.1112917" lon="10.8185383"><ele>20.0</ele><time>2026-05-01T06:49:30.741Z</time></trkpt><trkpt lat="45.1112367" lon="10.8187333"><ele>20.5</ele><time>2026-05-01T06:49:31.749Z</time></trkpt><trkpt lat="45.1111867" lon="10.8189317"><ele>21.0</ele><time>2026-05-01T06:49:32.751Z</time></trkpt><trkpt lat="45.1111383" lon="10.819135"><ele>21.666666666666668</ele><time>2026-05-01T06:49:33.741Z</time></trkpt><trkpt lat="45.11109" lon="10.819345"><ele>22.333333333333336</ele><time>2026-05-01T06:49:34.748Z</time></trkpt><trkpt lat="45.1110417" lon="10.8195533"><ele>23.0</ele><time>2026-05-01T06:49:35.748Z</time></trkpt><trkpt lat="45.1109917" lon="10.8197567"><ele>23.0</ele><time>2026-05-01T06:49:36.751Z</time></trkpt><trkpt lat="45.11094" lon="10.8199617"><ele>23.0</ele><time>2026-05-01T06:49:37.748Z</time></trkpt><trkpt lat="45.1108883" lon="10.82017"><ele>23.0</ele><time>2026-05-01T06:49:38.755Z</time></trkpt><trkpt lat="45.11083" lon="10.8203717"><ele>22.333333333333336</ele><time>2026-05-01T06:49:39.75Z</time></trkpt><trkpt lat="45.1107633" lon="10.8205667"><ele>21.666666666666668</ele><time>2026-05-01T06:49:40.752Z</time></trkpt><trkpt lat="45.110685" lon="10.8207517"><ele>21.0</ele><time>2026-05-01T06:49:41.751Z</time></trkpt><trkpt lat="45.11059" lon="10.8209283"><ele>20.0</ele><time>2026-05-01T06:49:42.749Z</time></trkpt><trkpt lat="45.1104933" lon="10.8211033"><ele>19.0</ele><time>2026-05-01T06:49:43.753Z</time></trkpt><trkpt lat="45.1103933" lon="10.821275"><ele>18.0</ele><time>2026-05-01T06:49:44.751Z</time></trkpt><trkpt lat="45.11029" lon="10.8214517"><ele>18.0</ele><time>2026-05-01T06:49:45.748Z</time></trkpt><trkpt lat="45.1101883" lon="10.8216333"><ele>18.0</ele><time>2026-05-01T06:49:46.747Z</time></trkpt><trkpt lat="45.1100867" lon="10.82182"><ele>18.0</ele><time>2026-05-01T06:49:47.749Z</time></trkpt><trkpt lat="45.109985" lon="10.8220133"><ele>18.333333333333332</ele><time>2026-05-01T06:49:48.749Z</time></trkpt><trkpt lat="45.1098833" lon="10.822205"><ele>18.666666666666664</ele><time>2026-05-01T06:49:49.749Z</time></trkpt><trkpt lat="45.1097833" lon="10.8224017"><ele>19.0</ele><time>2026-05-01T06:49:50.743Z</time></trkpt><trkpt lat="45.1096867" lon="10.8225983"><ele>18.666666666666664</ele><time>2026-05-01T06:49:51.744Z</time></trkpt><trkpt lat="45.10959" lon="10.822795"><ele>18.333333333333332</ele><time>2026-05-01T06:49:52.749Z</time></trkpt><trkpt lat="45.1094917" lon="10.8229917"><ele>18.0</ele><time>2026-05-01T06:49:53.748Z</time></trkpt><trkpt lat="45.1093917" lon="10.8231883"><ele>18.0</ele><time>2026-05-01T06:49:54.753Z</time></trkpt><trkpt lat="45.10929" lon="10.823385"><ele>18.0</ele><time>2026-05-01T06:49:55.748Z</time></trkpt><trkpt lat="45.1091917" lon="10.8235817"><ele>18.0</ele><time>2026-05-01T06:49:56.749Z</time></trkpt><trkpt lat="45.10909" lon="10.82378"><ele>18.0</ele><time>2026-05-01T06:49:57.749Z</time></trkpt><trkpt lat="45.10899" lon="10.8239767"><ele>18.0</ele><time>2026-05-01T06:49:58.753Z</time></trkpt><trkpt lat="45.1088867" lon="10.8241733"><ele>18.0</ele><time>2026-05-01T06:49:59.748Z</time></trkpt><trkpt lat="45.1087883" lon="10.8243717"><ele>18.333333333333332</ele><time>2026-05-01T06:50:00.742Z</time></trkpt><trkpt lat="45.1086883" lon="10.8245717"><ele>18.666666666666664</ele><time>2026-05-01T06:50:01.75Z</time></trkpt><trkpt lat="45.1085883" lon="10.82477"><ele>19.0</ele><time>2026-05-01T06:50:02.75Z</time></trkpt><trkpt lat="45.1084867" lon="10.8249667"><ele>19.0</ele><time>2026-05-01T06:50:03.749Z</time></trkpt><trkpt lat="45.1083867" lon="10.8251633"><ele>19.0</ele><time>2026-05-01T06:50:04.742Z</time></trkpt><trkpt lat="45.1082867" lon="10.8253583"><ele>19.0</ele><time>2026-05-01T06:50:05.745Z</time></trkpt><trkpt lat="45.1081883" lon="10.82555"><ele>19.0</ele><time>2026-05-01T06:50:06.749Z</time></trkpt><trkpt lat="45.10809" lon="10.8257433"><ele>19.0</ele><time>2026-05-01T06:50:07.751Z</time></trkpt><trkpt lat="45.10799" lon="10.82594"><ele>19.0</ele><time>2026-05-01T06:50:08.752Z</time></trkpt><trkpt lat="45.1078917" lon="10.8261367"><ele>19.0</ele><time>2026-05-01T06:50:09.751Z</time></trkpt><trkpt lat="45.1077933" lon="10.8263333"><ele>19.0</ele><time>2026-05-01T06:50:10.749Z</time></trkpt><trkpt lat="45.107695" lon="10.8265217"><ele>19.0</ele><time>2026-05-01T06:50:11.741Z</time></trkpt><trkpt lat="45.1075967" lon="10.8267133"><ele>19.0</ele><time>2026-05-01T06:50:12.742Z</time></trkpt><trkpt lat="45.1074983" lon="10.8269"><ele>19.0</ele><time>2026-05-01T06:50:13.749Z</time></trkpt><trkpt lat="45.1074017" lon="10.8270867"><ele>19.0</ele><time>2026-05-01T06:50:14.752Z</time></trkpt><trkpt lat="45.107305" lon="10.827275"><ele>19.333333333333332</ele><time>2026-05-01T06:50:15.759Z</time></trkpt><trkpt lat="45.1072117" lon="10.8274567"><ele>19.666666666666668</ele><time>2026-05-01T06:50:16.756Z</time></trkpt><trkpt lat="45.1071217" lon="10.8276367"><ele>20.0</ele><time>2026-05-01T06:50:17.754Z</time></trkpt><trkpt lat="45.1070317" lon="10.827815"><ele>20.0</ele><time>2026-05-01T06:50:18.753Z</time></trkpt><trkpt lat="45.1069417" lon="10.8279867"><ele>20.0</ele><time>2026-05-01T06:50:19.749Z</time></trkpt><trkpt lat="45.1068483" lon="10.8281633"><ele>20.0</ele><time>2026-05-01T06:50:20.75Z</time></trkpt><trkpt lat="45.1067583" lon="10.8283367"><ele>20.0</ele><time>2026-05-01T06:50:21.748Z</time></trkpt><trkpt lat="45.10667" lon="10.8285133"><ele>20.0</ele><time>2026-05-01T06:50:22.748Z</time></trkpt><trkpt lat="45.10657" lon="10.8286883"><ele>20.0</ele><time>2026-05-01T06:50:23.749Z</time></trkpt><trkpt lat="45.1064733" lon="10.8288683"><ele>20.0</ele><time>2026-05-01T06:50:24.75Z</time></trkpt><trkpt lat="45.1063783" lon="10.829055"><ele>20.0</ele><time>2026-05-01T06:50:25.748Z</time></trkpt><trkpt lat="45.1062817" lon="10.8292417"><ele>20.0</ele><time>2026-05-01T06:50:26.75Z</time></trkpt><trkpt lat="45.10618" lon="10.8294283"><ele>20.0</ele><time>2026-05-01T06:50:27.744Z</time></trkpt><trkpt lat="45.1060733" lon="10.829615"><ele>20.0</ele><time>2026-05-01T06:50:28.748Z</time></trkpt><trkpt lat="45.10597" lon="10.8298017"><ele>20.0</ele><time>2026-05-01T06:50:29.748Z</time></trkpt><trkpt lat="45.105865" lon="10.8299917"><ele>20.333333333333336</ele><time>2026-05-01T06:50:30.748Z</time></trkpt><trkpt lat="45.1057617" lon="10.8301833"><ele>20.666666666666668</ele><time>2026-05-01T06:50:31.745Z</time></trkpt><trkpt lat="45.1056583" lon="10.83038"><ele>21.0</ele><time>2026-05-01T06:50:32.751Z</time></trkpt><trkpt lat="45.1055583" lon="10.8305833"><ele>21.0</ele><time>2026-05-01T06:50:33.749Z</time></trkpt><trkpt lat="45.1054617" lon="10.8307933"><ele>21.0</ele><time>2026-05-01T06:50:34.748Z</time></trkpt><trkpt lat="45.105375" lon="10.8310133"><ele>21.0</ele><time>2026-05-01T06:50:35.755Z</time></trkpt><trkpt lat="45.105305" lon="10.8312417"><ele>21.0</ele><time>2026-05-01T06:50:36.748Z</time></trkpt><trkpt lat="45.105235" lon="10.8314817"><ele>21.0</ele><time>2026-05-01T06:50:37.743Z</time></trkpt><trkpt lat="45.1051717" lon="10.8317217"><ele>21.0</ele><time>2026-05-01T06:50:38.751Z</time></trkpt><trkpt lat="45.1051067" lon="10.8319617"><ele>20.333333333333332</ele><time>2026-05-01T06:50:39.746Z</time></trkpt><trkpt lat="45.10504" lon="10.8321967"><ele>19.666666666666664</ele><time>2026-05-01T06:50:40.743Z</time></trkpt><trkpt lat="45.1049817" lon="10.8324317"><ele>19.0</ele><time>2026-05-01T06:50:41.741Z</time></trkpt><trkpt lat="45.1049217" lon="10.8326583"><ele>18.666666666666664</ele><time>2026-05-01T06:50:42.742Z</time></trkpt><trkpt lat="45.10486" lon="10.8328817"><ele>18.333333333333332</ele><time>2026-05-01T06:50:43.762Z</time></trkpt><trkpt lat="45.1048017" lon="10.8331017"><ele>18.0</ele><time>2026-05-01T06:50:44.75Z</time></trkpt><trkpt lat="45.1047433" lon="10.8333233"><ele>18.666666666666668</ele><time>2026-05-01T06:50:45.749Z</time></trkpt><trkpt lat="45.1046833" lon="10.8335417"><ele>19.333333333333336</ele><time>2026-05-01T06:50:46.746Z</time></trkpt><trkpt lat="45.104625" lon="10.83376"><ele>20.0</ele><time>2026-05-01T06:50:47.748Z</time></trkpt><trkpt lat="45.1045667" lon="10.8339783"><ele>20.0</ele><time>2026-05-01T06:50:48.75Z</time></trkpt><trkpt lat="45.104505" lon="10.8342033"><ele>20.0</ele><time>2026-05-01T06:50:49.741Z</time></trkpt><trkpt lat="45.104445" lon="10.8344283"><ele>20.0</ele><time>2026-05-01T06:50:50.741Z</time></trkpt><trkpt lat="45.1043867" lon="10.8346583"><ele>20.333333333333336</ele><time>2026-05-01T06:50:51.749Z</time></trkpt><trkpt lat="45.1043283" lon="10.8348867"><ele>20.666666666666668</ele><time>2026-05-01T06:50:52.747Z</time></trkpt><trkpt lat="45.1042717" lon="10.8351183"><ele>21.0</ele><time>2026-05-01T06:50:53.741Z</time></trkpt><trkpt lat="45.104215" lon="10.835345"><ele>21.0</ele><time>2026-05-01T06:50:54.749Z</time></trkpt><trkpt lat="45.10416" lon="10.835565"><ele>21.0</ele><time>2026-05-01T06:50:55.75Z</time></trkpt><trkpt lat="45.104105" lon="10.8357783"><ele>21.0</ele><time>2026-05-01T06:50:56.749Z</time></trkpt><trkpt lat="45.10405" lon="10.8359867"><ele>20.25</ele><time>2026-05-01T06:50:57.749Z</time></trkpt><trkpt lat="45.1039917" lon="10.8361817"><ele>19.5</ele><time>2026-05-01T06:50:58.75Z</time></trkpt><trkpt lat="45.10394" lon="10.8363817"><ele>18.75</ele><time>2026-05-01T06:50:59.749Z</time></trkpt><trkpt lat="45.1038917" lon="10.8365783"><ele>18.0</ele><time>2026-05-01T06:51:00.75Z</time></trkpt><trkpt lat="45.1038417" lon="10.83677"><ele>18.0</ele><time>2026-05-01T06:51:01.751Z</time></trkpt><trkpt lat="45.1037883" lon="10.83696"><ele>18.0</ele><time>2026-05-01T06:51:02.749Z</time></trkpt><trkpt lat="45.1037367" lon="10.837155"><ele>18.0</ele><time>2026-05-01T06:51:03.751Z</time></trkpt><trkpt lat="45.10368" lon="10.8373467"><ele>18.0</ele><time>2026-05-01T06:51:04.748Z</time></trkpt><trkpt lat="45.103615" lon="10.8375417"><ele>17.666666666666668</ele><time>2026-05-01T06:51:05.747Z</time></trkpt><trkpt lat="45.1035367" lon="10.8377333"><ele>17.333333333333336</ele><time>2026-05-01T06:51:06.741Z</time></trkpt><trkpt lat="45.1034533" lon="10.837915"><ele>17.0</ele><time>2026-05-01T06:51:07.749Z</time></trkpt><trkpt lat="45.1033633" lon="10.838095"><ele>17.0</ele><time>2026-05-01T06:51:08.75Z</time></trkpt><trkpt lat="45.103275" lon="10.8382633"><ele>17.0</ele><time>2026-05-01T06:51:09.753Z</time></trkpt><trkpt lat="45.1031883" lon="10.8384217"><ele>17.0</ele><time>2026-05-01T06:51:10.748Z</time></trkpt><trkpt lat="45.103105" lon="10.83857"><ele>17.0</ele><time>2026-05-01T06:51:11.749Z</time></trkpt><trkpt lat="45.1030283" lon="10.83871"><ele>17.2</ele><time>2026-05-01T06:51:12.747Z</time></trkpt><trkpt lat="45.1029483" lon="10.83884"><ele>17.4</ele><time>2026-05-01T06:51:13.75Z</time></trkpt><trkpt lat="45.1028683" lon="10.8389517"><ele>17.6</ele><time>2026-05-01T06:51:14.75Z</time></trkpt><trkpt lat="45.1027883" lon="10.839045"><ele>17.8</ele><time>2026-05-01T06:51:15.748Z</time></trkpt><trkpt lat="45.1027033" lon="10.8391083"><ele>18.0</ele><time>2026-05-01T06:51:16.75Z</time></trkpt><trkpt lat="45.102615" lon="10.8391533"><ele>18.0</ele><time>2026-05-01T06:51:17.741Z</time></trkpt><trkpt lat="45.1025283" lon="10.839205"><ele>18.0</ele><time>2026-05-01T06:51:18.753Z</time></trkpt><trkpt lat="45.1024483" lon="10.8392783"><ele>18.0</ele><time>2026-05-01T06:51:19.75Z</time></trkpt><trkpt lat="45.10238" lon="10.839385"><ele>18.0</ele><time>2026-05-01T06:51:20.752Z</time></trkpt><trkpt lat="45.102335" lon="10.8395167"><ele>18.0</ele><time>2026-05-01T06:51:21.75Z</time></trkpt><trkpt lat="45.1023067" lon="10.8396617"><ele>18.0</ele><time>2026-05-01T06:51:22.754Z</time></trkpt><trkpt lat="45.1022817" lon="10.8398083"><ele>18.0</ele><time>2026-05-01T06:51:23.752Z</time></trkpt><trkpt lat="45.1022467" lon="10.839955"><ele>18.0</ele><time>2026-05-01T06:51:24.743Z</time></trkpt><trkpt lat="45.1021967" lon="10.8400917"><ele>18.0</ele><time>2026-05-01T06:51:25.751Z</time></trkpt><trkpt lat="45.102135" lon="10.8402233"><ele>18.0</ele><time>2026-05-01T06:51:26.753Z</time></trkpt><trkpt lat="45.102065" lon="10.8403533"><ele>18.0</ele><time>2026-05-01T06:51:27.749Z</time></trkpt><trkpt lat="45.1019867" lon="10.8404817"><ele>18.0</ele><time>2026-05-01T06:51:28.741Z</time></trkpt><trkpt lat="45.1019067" lon="10.8406133"><ele>18.0</ele><time>2026-05-01T06:51:29.747Z</time></trkpt><trkpt lat="45.101825" lon="10.840745"><ele>18.0</ele><time>2026-05-01T06:51:30.751Z</time></trkpt><trkpt lat="45.1017433" lon="10.8408733"><ele>18.25</ele><time>2026-05-01T06:51:31.747Z</time></trkpt><trkpt lat="45.1016617" lon="10.8410033"><ele>18.5</ele><time>2026-05-01T06:51:32.752Z</time></trkpt><trkpt lat="45.1015783" lon="10.8411317"><ele>18.75</ele><time>2026-05-01T06:51:33.749Z</time></trkpt><trkpt lat="45.101495" lon="10.8412617"><ele>19.0</ele><time>2026-05-01T06:51:34.75Z</time></trkpt><trkpt lat="45.1014167" lon="10.84139"><ele>19.0</ele><time>2026-05-01T06:51:35.75Z</time></trkpt><trkpt lat="45.1013383" lon="10.841515"><ele>19.0</ele><time>2026-05-01T06:51:36.754Z</time></trkpt><trkpt lat="45.1012617" lon="10.841635"><ele>19.0</ele><time>2026-05-01T06:51:37.748Z</time></trkpt><trkpt lat="45.1011883" lon="10.8417567"><ele>19.0</ele><time>2026-05-01T06:51:38.751Z</time></trkpt><trkpt lat="45.1011167" lon="10.841875"><ele>19.0</ele><time>2026-05-01T06:51:39.752Z</time></trkpt><trkpt lat="45.1010467" lon="10.8419967"><ele>19.0</ele><time>2026-05-01T06:51:40.753Z</time></trkpt><trkpt lat="45.1009733" lon="10.8421167"><ele>19.0</ele><time>2026-05-01T06:51:41.751Z</time></trkpt><trkpt lat="45.1009017" lon="10.8422367"><ele>19.0</ele><time>2026-05-01T06:51:42.751Z</time></trkpt><trkpt lat="45.1008333" lon="10.842355"><ele>19.0</ele><time>2026-05-01T06:51:43.749Z</time></trkpt><trkpt lat="45.100765" lon="10.84247"><ele>19.0</ele><time>2026-05-01T06:51:44.755Z</time></trkpt><trkpt lat="45.1006933" lon="10.8425833"><ele>19.0</ele><time>2026-05-01T06:51:45.749Z</time></trkpt><trkpt lat="45.1006233" lon="10.8427"><ele>19.0</ele><time>2026-05-01T06:51:46.749Z</time></trkpt><trkpt lat="45.1005483" lon="10.8428167"><ele>19.0</ele><time>2026-05-01T06:51:47.747Z</time></trkpt><trkpt lat="45.100475" lon="10.842935"><ele>19.0</ele><time>2026-05-01T06:51:48.748Z</time></trkpt><trkpt lat="45.1004" lon="10.843055"><ele>19.25</ele><time>2026-05-01T06:51:49.749Z</time></trkpt><trkpt lat="45.10033" lon="10.8431767"><ele>19.5</ele><time>2026-05-01T06:51:50.75Z</time></trkpt><trkpt lat="45.1002633" lon="10.8433033"><ele>19.75</ele><time>2026-05-01T06:51:51.751Z</time></trkpt><trkpt lat="45.100195" lon="10.8434383"><ele>20.0</ele><time>2026-05-01T06:51:52.753Z</time></trkpt><trkpt lat="45.10013" lon="10.8435817"><ele>20.0</ele><time>2026-05-01T06:51:53.751Z</time></trkpt><trkpt lat="45.10007" lon="10.8437333"><ele>20.0</ele><time>2026-05-01T06:51:54.755Z</time></trkpt><trkpt lat="45.1000117" lon="10.84389"><ele>20.0</ele><time>2026-05-01T06:51:55.742Z</time></trkpt><trkpt lat="45.0999533" lon="10.84405"><ele>20.0</ele><time>2026-05-01T06:51:56.749Z</time></trkpt><trkpt lat="45.099895" lon="10.8442117"><ele>20.0</ele><time>2026-05-01T06:51:57.748Z</time></trkpt><trkpt lat="45.0998367" lon="10.8443733"><ele>20.0</ele><time>2026-05-01T06:51:58.75Z</time></trkpt><trkpt lat="45.0997783" lon="10.8445333"><ele>20.0</ele><time>2026-05-01T06:51:59.75Z</time></trkpt><trkpt lat="45.0997183" lon="10.8446917"><ele>20.0</ele><time>2026-05-01T06:52:00.751Z</time></trkpt><trkpt lat="45.0996517" lon="10.8448483"><ele>20.0</ele><time>2026-05-01T06:52:01.744Z</time></trkpt><trkpt lat="45.09958" lon="10.845"><ele>20.0</ele><time>2026-05-01T06:52:02.751Z</time></trkpt><trkpt lat="45.0994983" lon="10.8451433"><ele>20.0</ele><time>2026-05-01T06:52:03.75Z</time></trkpt><trkpt lat="45.099405" lon="10.8452783"><ele>20.0</ele><time>2026-05-01T06:52:04.749Z</time></trkpt><trkpt lat="45.099305" lon="10.84541"><ele>19.75</ele><time>2026-05-01T06:52:05.755Z</time></trkpt><trkpt lat="45.0992" lon="10.84554"><ele>19.5</ele><time>2026-05-01T06:52:06.748Z</time></trkpt><trkpt lat="45.099095" lon="10.8456683"><ele>19.25</ele><time>2026-05-01T06:52:07.754Z</time></trkpt><trkpt lat="45.0989933" lon="10.8457933"><ele>19.0</ele><time>2026-05-01T06:52:08.755Z</time></trkpt><trkpt lat="45.0989017" lon="10.8459183"><ele>19.0</ele><time>2026-05-01T06:52:09.746Z</time></trkpt><trkpt lat="45.0988133" lon="10.8460517"><ele>19.0</ele><time>2026-05-01T06:52:10.746Z</time></trkpt><trkpt lat="45.0987333" lon="10.8461867"><ele>19.0</ele><time>2026-05-01T06:52:11.749Z</time></trkpt><trkpt lat="45.0986533" lon="10.846325"><ele>19.0</ele><time>2026-05-01T06:52:12.743Z</time></trkpt><trkpt lat="45.0985767" lon="10.8464617"><ele>19.0</ele><time>2026-05-01T06:52:13.749Z</time></trkpt><trkpt lat="45.0985017" lon="10.8466017"><ele>19.0</ele><time>2026-05-01T06:52:14.75Z</time></trkpt><trkpt lat="45.09843" lon="10.8467433"><ele>19.0</ele><time>2026-05-01T06:52:15.749Z</time></trkpt><trkpt lat="45.0983567" lon="10.846885"><ele>19.0</ele><time>2026-05-01T06:52:16.748Z</time></trkpt><trkpt lat="45.0982883" lon="10.8470283"><ele>19.5</ele><time>2026-05-01T06:52:17.748Z</time></trkpt><trkpt lat="45.0982183" lon="10.8471767"><ele>20.0</ele><time>2026-05-01T06:52:18.748Z</time></trkpt><trkpt lat="45.0981467" lon="10.847325"><ele>20.5</ele><time>2026-05-01T06:52:19.746Z</time></trkpt><trkpt lat="45.0980733" lon="10.847475"><ele>21.0</ele><time>2026-05-01T06:52:20.751Z</time></trkpt><trkpt lat="45.098" lon="10.84763"><ele>21.0</ele><time>2026-05-01T06:52:21.752Z</time></trkpt><trkpt lat="45.0979283" lon="10.8477817"><ele>21.0</ele><time>2026-05-01T06:52:22.747Z</time></trkpt><trkpt lat="45.097855" lon="10.8479283"><ele>21.0</ele><time>2026-05-01T06:52:23.751Z</time></trkpt><trkpt lat="45.09779" lon="10.8480733"><ele>21.0</ele><time>2026-05-01T06:52:24.746Z</time></trkpt><trkpt lat="45.0977167" lon="10.84821"><ele>21.0</ele><time>2026-05-01T06:52:25.748Z</time></trkpt><trkpt lat="45.0976433" lon="10.8483383"><ele>21.0</ele><time>2026-05-01T06:52:26.748Z</time></trkpt><trkpt lat="45.0975683" lon="10.8484667"><ele>21.0</ele><time>2026-05-01T06:52:27.75Z</time></trkpt><trkpt lat="45.0974883" lon="10.8485883"><ele>21.0</ele><time>2026-05-01T06:52:28.748Z</time></trkpt><trkpt lat="45.097405" lon="10.8487067"><ele>20.8</ele><time>2026-05-01T06:52:29.75Z</time></trkpt><trkpt lat="45.097325" lon="10.8488167"><ele>20.6</ele><time>2026-05-01T06:52:30.752Z</time></trkpt><trkpt lat="45.0972483" lon="10.8489233"><ele>20.4</ele><time>2026-05-01T06:52:31.747Z</time></trkpt><trkpt lat="45.0971733" lon="10.8490283"><ele>20.2</ele><time>2026-05-01T06:52:32.75Z</time></trkpt><trkpt lat="45.0971" lon="10.84913"><ele>20.0</ele><time>2026-05-01T06:52:33.748Z</time></trkpt><trkpt lat="45.09703" lon="10.849225"><ele>19.833333333333336</ele><time>2026-05-01T06:52:34.746Z</time></trkpt><trkpt lat="45.0969583" lon="10.849315"><ele>19.666666666666668</ele><time>2026-05-01T06:52:35.749Z</time></trkpt><trkpt lat="45.09689" lon="10.849405"><ele>19.5</ele><time>2026-05-01T06:52:36.753Z</time></trkpt><trkpt lat="45.0968283" lon="10.8494833"><ele>19.333333333333332</ele><time>2026-05-01T06:52:37.753Z</time></trkpt><trkpt lat="45.0967767" lon="10.8495467"><ele>19.166666666666664</ele><time>2026-05-01T06:52:38.75Z</time></trkpt><trkpt lat="45.0967117" lon="10.8496217"><ele>19.0</ele><time>2026-05-01T06:52:40.746Z</time></trkpt><trkpt lat="45.09665" lon="10.8496917"><ele>19.0</ele><time>2026-05-01T06:52:55.751Z</time></trkpt><trkpt lat="45.09658" lon="10.8497683"><ele>19.0</ele><time>2026-05-01T06:52:56.742Z</time></trkpt><trkpt lat="45.09651" lon="10.8498583"><ele>19.0</ele><time>2026-05-01T06:52:57.751Z</time></trkpt><trkpt lat="45.09644" lon="10.8499533"><ele>19.0</ele><time>2026-05-01T06:52:58.748Z</time></trkpt><trkpt lat="45.09637" lon="10.8500533"><ele>19.0</ele><time>2026-05-01T06:52:59.747Z</time></trkpt><trkpt lat="45.09629" lon="10.850165"><ele>19.0</ele><time>2026-05-01T06:53:00.749Z</time></trkpt><trkpt lat="45.0962133" lon="10.8502783"><ele>19.0</ele><time>2026-05-01T06:53:01.747Z</time></trkpt><trkpt lat="45.0961283" lon="10.8504"><ele>19.0</ele><time>2026-05-01T06:53:02.749Z</time></trkpt><trkpt lat="45.0960417" lon="10.8505367"><ele>19.0</ele><time>2026-05-01T06:53:03.747Z</time></trkpt><trkpt lat="45.0959517" lon="10.8506833"><ele>19.0</ele><time>2026-05-01T06:53:04.75Z</time></trkpt><trkpt lat="45.0958633" lon="10.8508383"><ele>19.0</ele><time>2026-05-01T06:53:05.749Z</time></trkpt><trkpt lat="45.0957733" lon="10.8509983"><ele>19.0</ele><time>2026-05-01T06:53:06.741Z</time></trkpt><trkpt lat="45.0956883" lon="10.8511667"><ele>19.0</ele><time>2026-05-01T06:53:07.747Z</time></trkpt><trkpt lat="45.0956" lon="10.8513367"><ele>19.333333333333332</ele><time>2026-05-01T06:53:08.753Z</time></trkpt><trkpt lat="45.0955083" lon="10.85151"><ele>19.666666666666668</ele><time>2026-05-01T06:53:09.751Z</time></trkpt><trkpt lat="45.0954167" lon="10.851695"><ele>20.0</ele><time>2026-05-01T06:53:10.749Z</time></trkpt><trkpt lat="45.0953217" lon="10.8518783"><ele>20.0</ele><time>2026-05-01T06:53:11.748Z</time></trkpt><trkpt lat="45.095225" lon="10.8520617"><ele>20.0</ele><time>2026-05-01T06:53:12.747Z</time></trkpt><trkpt lat="45.0951317" lon="10.8522417"><ele>20.0</ele><time>2026-05-01T06:53:13.749Z</time></trkpt><trkpt lat="45.09504" lon="10.8524233"><ele>20.0</ele><time>2026-05-01T06:53:14.75Z</time></trkpt><trkpt lat="45.0949533" lon="10.8526167"><ele>20.0</ele><time>2026-05-01T06:53:15.751Z</time></trkpt><trkpt lat="45.094875" lon="10.85282"><ele>20.0</ele><time>2026-05-01T06:53:16.745Z</time></trkpt><trkpt lat="45.0948" lon="10.8530233"><ele>20.0</ele><time>2026-05-01T06:53:17.748Z</time></trkpt><trkpt lat="45.09473" lon="10.8532317"><ele>20.0</ele><time>2026-05-01T06:53:18.745Z</time></trkpt><trkpt lat="45.094665" lon="10.8534417"><ele>20.0</ele><time>2026-05-01T06:53:19.746Z</time></trkpt><trkpt lat="45.0946067" lon="10.8536583"><ele>20.0</ele><time>2026-05-01T06:53:20.748Z</time></trkpt><trkpt lat="45.0945383" lon="10.8538717"><ele>20.0</ele><time>2026-05-01T06:53:21.751Z</time></trkpt><trkpt lat="45.09447" lon="10.85408"><ele>20.0</ele><time>2026-05-01T06:53:22.741Z</time></trkpt><trkpt lat="45.0944" lon="10.8542967"><ele>19.666666666666668</ele><time>2026-05-01T06:53:23.749Z</time></trkpt><trkpt lat="45.0943267" lon="10.8545067"><ele>19.333333333333332</ele><time>2026-05-01T06:53:24.748Z</time></trkpt><trkpt lat="45.09425" lon="10.8547217"><ele>19.0</ele><time>2026-05-01T06:53:25.749Z</time></trkpt><trkpt lat="45.09417" lon="10.85494"><ele>19.666666666666664</ele><time>2026-05-01T06:53:26.748Z</time></trkpt><trkpt lat="45.0940867" lon="10.855155"><ele>20.333333333333332</ele><time>2026-05-01T06:53:27.751Z</time></trkpt><trkpt lat="45.094" lon="10.8553717"><ele>21.0</ele><time>2026-05-01T06:53:28.75Z</time></trkpt><trkpt lat="45.09391" lon="10.85559"><ele>21.0</ele><time>2026-05-01T06:53:29.747Z</time></trkpt><trkpt lat="45.0938217" lon="10.8558067"><ele>21.0</ele><time>2026-05-01T06:53:30.753Z</time></trkpt><trkpt lat="45.09373" lon="10.8560233"><ele>21.0</ele><time>2026-05-01T06:53:31.751Z</time></trkpt><trkpt lat="45.0936383" lon="10.8562417"><ele>21.0</ele><time>2026-05-01T06:53:32.749Z</time></trkpt><trkpt lat="45.093545" lon="10.8564583"><ele>21.0</ele><time>2026-05-01T06:53:33.748Z</time></trkpt><trkpt lat="45.093455" lon="10.85668"><ele>21.0</ele><time>2026-05-01T06:53:34.746Z</time></trkpt><trkpt lat="45.0933617" lon="10.8569033"><ele>21.0</ele><time>2026-05-01T06:53:35.745Z</time></trkpt><trkpt lat="45.0932633" lon="10.8571283"><ele>21.0</ele><time>2026-05-01T06:53:36.749Z</time></trkpt><trkpt lat="45.0931617" lon="10.8573483"><ele>21.0</ele><time>2026-05-01T06:53:37.754Z</time></trkpt><trkpt lat="45.0930583" lon="10.857565"><ele>20.666666666666668</ele><time>2026-05-01T06:53:38.749Z</time></trkpt><trkpt lat="45.09295" lon="10.8577783"><ele>20.333333333333336</ele><time>2026-05-01T06:53:39.75Z</time></trkpt><trkpt lat="45.0928383" lon="10.8579933"><ele>20.0</ele><time>2026-05-01T06:53:40.747Z</time></trkpt><trkpt lat="45.0927267" lon="10.8582033"><ele>20.0</ele><time>2026-05-01T06:53:41.749Z</time></trkpt><trkpt lat="45.0926183" lon="10.858415"><ele>20.0</ele><time>2026-05-01T06:53:42.751Z</time></trkpt><trkpt lat="45.0925067" lon="10.8586267"><ele>20.0</ele><time>2026-05-01T06:53:43.744Z</time></trkpt><trkpt lat="45.0924017" lon="10.8588383"><ele>20.0</ele><time>2026-05-01T06:53:44.751Z</time></trkpt><trkpt lat="45.092295" lon="10.8590433"><ele>20.0</ele><time>2026-05-01T06:53:45.742Z</time></trkpt><trkpt lat="45.092195" lon="10.859245"><ele>20.0</ele><time>2026-05-01T06:53:46.744Z</time></trkpt><trkpt lat="45.0921" lon="10.8594483"><ele>20.333333333333336</ele><time>2026-05-01T06:53:47.751Z</time></trkpt><trkpt lat="45.0920067" lon="10.85965"><ele>20.666666666666668</ele><time>2026-05-01T06:53:48.754Z</time></trkpt><trkpt lat="45.0919167" lon="10.8598433"><ele>21.0</ele><time>2026-05-01T06:53:49.748Z</time></trkpt><trkpt lat="45.0918283" lon="10.8600283"><ele>20.25</ele><time>2026-05-01T06:53:50.748Z</time></trkpt><trkpt lat="45.0917433" lon="10.8602083"><ele>19.5</ele><time>2026-05-01T06:53:51.749Z</time></trkpt><trkpt lat="45.0916633" lon="10.8603767"><ele>18.75</ele><time>2026-05-01T06:53:52.742Z</time></trkpt><trkpt lat="45.0915917" lon="10.860525"><ele>18.0</ele><time>2026-05-01T06:53:53.748Z</time></trkpt><trkpt lat="45.0915267" lon="10.8606533"><ele>17.166666666666668</ele><time>2026-05-01T06:53:54.751Z</time></trkpt><trkpt lat="45.0914517" lon="10.8607517"><ele>16.333333333333332</ele><time>2026-05-01T06:53:55.75Z</time></trkpt><trkpt lat="45.091365" lon="10.860805"><ele>15.5</ele><time>2026-05-01T06:53:56.749Z</time></trkpt><trkpt lat="45.091275" lon="10.8608183"><ele>14.666666666666666</ele><time>2026-05-01T06:53:57.748Z</time></trkpt><trkpt lat="45.09119" lon="10.8608183"><ele>13.833333333333332</ele><time>2026-05-01T06:53:58.755Z</time></trkpt><trkpt lat="45.091115" lon="10.860835"><ele>13.0</ele><time>2026-05-01T06:53:59.749Z</time></trkpt><trkpt lat="45.09104" lon="10.8608683"><ele>12.999999999999998</ele><time>2026-05-01T06:54:00.749Z</time></trkpt><trkpt lat="45.09096" lon="10.860905"><ele>13.0</ele><time>2026-05-01T06:54:01.748Z</time></trkpt><trkpt lat="45.0908967" lon="10.8609567"><ele>13.0</ele><time>2026-05-01T06:54:02.742Z</time></trkpt><trkpt lat="45.0908433" lon="10.8610533"><ele>13.0</ele><time>2026-05-01T06:54:03.744Z</time></trkpt><trkpt lat="45.0908117" lon="10.861175"><ele>12.999999999999998</ele><time>2026-05-01T06:54:04.743Z</time></trkpt><trkpt lat="45.0907983" lon="10.8612867"><ele>13.0</ele><time>2026-05-01T06:54:05.741Z</time></trkpt><trkpt lat="45.0908133" lon="10.8614217"><ele>13.2</ele><time>2026-05-01T06:54:06.742Z</time></trkpt><trkpt lat="45.0908567" lon="10.8615433"><ele>13.4</ele><time>2026-05-01T06:54:07.741Z</time></trkpt><trkpt lat="45.0909017" lon="10.8616667"><ele>13.599999999999998</ele><time>2026-05-01T06:54:08.742Z</time></trkpt><trkpt lat="45.0909417" lon="10.8617967"><ele>13.799999999999999</ele><time>2026-05-01T06:54:09.742Z</time></trkpt><trkpt lat="45.0909517" lon="10.8619417"><ele>14.0</ele><time>2026-05-01T06:54:10.744Z</time></trkpt><trkpt lat="45.0909317" lon="10.8620833"><ele>14.5</ele><time>2026-05-01T06:54:11.743Z</time></trkpt><trkpt lat="45.0908833" lon="10.8622283"><ele>15.0</ele><time>2026-05-01T06:54:12.741Z</time></trkpt><trkpt lat="45.0908183" lon="10.8623767"><ele>15.5</ele><time>2026-05-01T06:54:13.744Z</time></trkpt><trkpt lat="45.090745" lon="10.862535"><ele>16.0</ele><time>2026-05-01T06:54:14.744Z</time></trkpt><trkpt lat="45.0906683" lon="10.86271"><ele>17.666666666666664</ele><time>2026-05-01T06:54:15.742Z</time></trkpt><trkpt lat="45.0905883" lon="10.8628917"><ele>19.333333333333332</ele><time>2026-05-01T06:54:16.743Z</time></trkpt><trkpt lat="45.0905067" lon="10.8630733"><ele>21.0</ele><time>2026-05-01T06:54:17.742Z</time></trkpt><trkpt lat="45.090425" lon="10.8632567"><ele>21.0</ele><time>2026-05-01T06:54:18.742Z</time></trkpt><trkpt lat="45.0903367" lon="10.8634433"><ele>21.0</ele><time>2026-05-01T06:54:19.743Z</time></trkpt><trkpt lat="45.090245" lon="10.8636283"><ele>21.0</ele><time>2026-05-01T06:54:20.743Z</time></trkpt><trkpt lat="45.0901517" lon="10.86382"><ele>20.666666666666668</ele><time>2026-05-01T06:54:21.744Z</time></trkpt><trkpt lat="45.0900567" lon="10.864015"><ele>20.333333333333336</ele><time>2026-05-01T06:54:22.743Z</time></trkpt><trkpt lat="45.0899617" lon="10.86421"><ele>20.0</ele><time>2026-05-01T06:54:23.743Z</time></trkpt><trkpt lat="45.0898683" lon="10.86441"><ele>20.0</ele><time>2026-05-01T06:54:24.745Z</time></trkpt><trkpt lat="45.08977" lon="10.8646083"><ele>20.0</ele><time>2026-05-01T06:54:25.75Z</time></trkpt><trkpt lat="45.0896733" lon="10.8648083"><ele>20.0</ele><time>2026-05-01T06:54:26.743Z</time></trkpt><trkpt lat="45.0895767" lon="10.86501"><ele>19.0</ele><time>2026-05-01T06:54:27.748Z</time></trkpt><trkpt lat="45.0894783" lon="10.8652117"><ele>18.0</ele><time>2026-05-01T06:54:28.749Z</time></trkpt><trkpt lat="45.0893833" lon="10.8654117"><ele>17.0</ele><time>2026-05-01T06:54:29.749Z</time></trkpt><trkpt lat="45.0892867" lon="10.8656117"><ele>17.0</ele><time>2026-05-01T06:54:30.753Z</time></trkpt><trkpt lat="45.08919" lon="10.8658033"><ele>17.0</ele><time>2026-05-01T06:54:31.748Z</time></trkpt><trkpt lat="45.089095" lon="10.865995"><ele>17.0</ele><time>2026-05-01T06:54:32.75Z</time></trkpt><trkpt lat="45.0890067" lon="10.8661833"><ele>17.0</ele><time>2026-05-01T06:54:33.749Z</time></trkpt><trkpt lat="45.088925" lon="10.86637"><ele>17.0</ele><time>2026-05-01T06:54:34.749Z</time></trkpt><trkpt lat="45.088855" lon="10.8665617"><ele>17.0</ele><time>2026-05-01T06:54:35.752Z</time></trkpt><trkpt lat="45.0888017" lon="10.86675"><ele>17.25</ele><time>2026-05-01T06:54:36.75Z</time></trkpt><trkpt lat="45.0887517" lon="10.8669283"><ele>17.5</ele><time>2026-05-01T06:54:37.749Z</time></trkpt><trkpt lat="45.0887033" lon="10.8670883"><ele>17.75</ele><time>2026-05-01T06:54:38.749Z</time></trkpt><trkpt lat="45.08865" lon="10.8672333"><ele>18.0</ele><time>2026-05-01T06:54:39.747Z</time></trkpt><trkpt lat="45.0885883" lon="10.86737"><ele>18.0</ele><time>2026-05-01T06:54:40.753Z</time></trkpt><trkpt lat="45.0885333" lon="10.8675133"><ele>18.0</ele><time>2026-05-01T06:54:41.751Z</time></trkpt><trkpt lat="45.088495" lon="10.86767"><ele>18.0</ele><time>2026-05-01T06:54:42.747Z</time></trkpt><trkpt lat="45.08848" lon="10.867845"><ele>18.0</ele><time>2026-05-01T06:54:43.752Z</time></trkpt><trkpt lat="45.0884767" lon="10.86803"><ele>17.75</ele><time>2026-05-01T06:54:44.748Z</time></trkpt><trkpt lat="45.0884683" lon="10.8682217"><ele>17.5</ele><time>2026-05-01T06:54:45.744Z</time></trkpt><trkpt lat="45.0884467" lon="10.8684167"><ele>17.25</ele><time>2026-05-01T06:54:46.743Z</time></trkpt><trkpt lat="45.0884133" lon="10.868615"><ele>17.0</ele><time>2026-05-01T06:54:47.749Z</time></trkpt><trkpt lat="45.088375" lon="10.8688167"><ele>17.0</ele><time>2026-05-01T06:54:48.749Z</time></trkpt><trkpt lat="45.0883333" lon="10.8690233"><ele>17.0</ele><time>2026-05-01T06:54:49.741Z</time></trkpt><trkpt lat="45.0882933" lon="10.8692367"><ele>17.0</ele><time>2026-05-01T06:54:50.75Z</time></trkpt><trkpt lat="45.08825" lon="10.86945"><ele>17.333333333333336</ele><time>2026-05-01T06:54:51.747Z</time></trkpt><trkpt lat="45.0882083" lon="10.869665"><ele>17.666666666666668</ele><time>2026-05-01T06:54:52.749Z</time></trkpt><trkpt lat="45.088165" lon="10.8698817"><ele>18.0</ele><time>2026-05-01T06:54:53.744Z</time></trkpt><trkpt lat="45.0881183" lon="10.8700967"><ele>18.0</ele><time>2026-05-01T06:54:54.748Z</time></trkpt><trkpt lat="45.0880767" lon="10.870315"><ele>18.0</ele><time>2026-05-01T06:54:55.751Z</time></trkpt><trkpt lat="45.08803" lon="10.8705317"><ele>18.0</ele><time>2026-05-01T06:54:56.742Z</time></trkpt><trkpt lat="45.0879867" lon="10.87075"><ele>18.333333333333332</ele><time>2026-05-01T06:54:57.749Z</time></trkpt><trkpt lat="45.0879417" lon="10.8709667"><ele>18.666666666666664</ele><time>2026-05-01T06:54:58.741Z</time></trkpt><trkpt lat="45.0878983" lon="10.871185"><ele>19.0</ele><time>2026-05-01T06:54:59.747Z</time></trkpt><trkpt lat="45.0878567" lon="10.871405"><ele>19.0</ele><time>2026-05-01T06:55:00.749Z</time></trkpt><trkpt lat="45.0878133" lon="10.87162"><ele>19.0</ele><time>2026-05-01T06:55:01.744Z</time></trkpt><trkpt lat="45.0877717" lon="10.871835"><ele>19.0</ele><time>2026-05-01T06:55:02.755Z</time></trkpt><trkpt lat="45.0877283" lon="10.8720483"><ele>19.0</ele><time>2026-05-01T06:55:03.746Z</time></trkpt><trkpt lat="45.0876867" lon="10.87226"><ele>19.0</ele><time>2026-05-01T06:55:04.741Z</time></trkpt><trkpt lat="45.087645" lon="10.8724683"><ele>19.0</ele><time>2026-05-01T06:55:05.747Z</time></trkpt><trkpt lat="45.0876033" lon="10.87267"><ele>19.0</ele><time>2026-05-01T06:55:06.752Z</time></trkpt><trkpt lat="45.0875633" lon="10.8728667"><ele>19.0</ele><time>2026-05-01T06:55:07.747Z</time></trkpt><trkpt lat="45.0875233" lon="10.87306"><ele>19.0</ele><time>2026-05-01T06:55:08.752Z</time></trkpt><trkpt lat="45.0874867" lon="10.8732517"><ele>19.0</ele><time>2026-05-01T06:55:09.75Z</time></trkpt><trkpt lat="45.0874517" lon="10.8734433"><ele>19.0</ele><time>2026-05-01T06:55:10.746Z</time></trkpt><trkpt lat="45.087415" lon="10.87363"><ele>19.0</ele><time>2026-05-01T06:55:11.747Z</time></trkpt><trkpt lat="45.0873783" lon="10.8738067"><ele>19.0</ele><time>2026-05-01T06:55:12.747Z</time></trkpt><trkpt lat="45.08734" lon="10.8739783"><ele>19.0</ele><time>2026-05-01T06:55:13.749Z</time></trkpt><trkpt lat="45.0873017" lon="10.87414"><ele>19.0</ele><time>2026-05-01T06:55:14.749Z</time></trkpt><trkpt lat="45.0872633" lon="10.8742917"><ele>19.0</ele><time>2026-05-01T06:55:15.745Z</time></trkpt><trkpt lat="45.0872267" lon="10.8744333"><ele>19.0</ele><time>2026-05-01T06:55:16.75Z</time></trkpt><trkpt lat="45.087185" lon="10.87457"><ele>19.0</ele><time>2026-05-01T06:55:17.741Z</time></trkpt><trkpt lat="45.0871417" lon="10.8747083"><ele>19.0</ele><time>2026-05-01T06:55:18.75Z</time></trkpt><trkpt lat="45.0870933" lon="10.8748483"><ele>19.0</ele><time>2026-05-01T06:55:19.751Z</time></trkpt><trkpt lat="45.0870433" lon="10.8749883"><ele>19.0</ele><time>2026-05-01T06:55:20.754Z</time></trkpt><trkpt lat="45.0869933" lon="10.8751233"><ele>19.0</ele><time>2026-05-01T06:55:21.751Z</time></trkpt><trkpt lat="45.086945" lon="10.875255"><ele>19.0</ele><time>2026-05-01T06:55:22.755Z</time></trkpt><trkpt lat="45.0869" lon="10.8753833"><ele>19.0</ele><time>2026-05-01T06:55:23.748Z</time></trkpt><trkpt lat="45.08686" lon="10.8755083"><ele>19.0</ele><time>2026-05-01T06:55:24.751Z</time></trkpt><trkpt lat="45.0868267" lon="10.875625"><ele>19.0</ele><time>2026-05-01T06:55:25.748Z</time></trkpt><trkpt lat="45.086805" lon="10.8757283"><ele>19.0</ele><time>2026-05-01T06:55:26.751Z</time></trkpt><trkpt lat="45.0867917" lon="10.87582"><ele>19.0</ele><time>2026-05-01T06:55:27.75Z</time></trkpt><trkpt lat="45.08675" lon="10.8759883"><ele>19.0</ele><time>2026-05-01T06:55:29.749Z</time></trkpt><trkpt lat="45.086725" lon="10.8760767"><ele>19.0</ele><time>2026-05-01T06:55:30.747Z</time></trkpt><trkpt lat="45.0867" lon="10.8761667"><ele>19.166666666666664</ele><time>2026-05-01T06:55:31.75Z</time></trkpt><trkpt lat="45.0866733" lon="10.8762667"><ele>19.333333333333332</ele><time>2026-05-01T06:55:32.753Z</time></trkpt><trkpt lat="45.0866483" lon="10.8763733"><ele>19.5</ele><time>2026-05-01T06:55:33.749Z</time></trkpt><trkpt lat="45.0866233" lon="10.8764833"><ele>19.666666666666668</ele><time>2026-05-01T06:55:34.749Z</time></trkpt><trkpt lat="45.0866033" lon="10.8765917"><ele>19.833333333333336</ele><time>2026-05-01T06:55:35.747Z</time></trkpt><trkpt lat="45.08658" lon="10.8766983"><ele>20.0</ele><time>2026-05-01T06:55:36.748Z</time></trkpt><trkpt lat="45.0865583" lon="10.8768083"><ele>19.6</ele><time>2026-05-01T06:55:37.748Z</time></trkpt><trkpt lat="45.0865333" lon="10.8769283"><ele>19.2</ele><time>2026-05-01T06:55:38.753Z</time></trkpt><trkpt lat="45.086505" lon="10.8770567"><ele>18.8</ele><time>2026-05-01T06:55:39.748Z</time></trkpt><trkpt lat="45.0864767" lon="10.8771933"><ele>18.4</ele><time>2026-05-01T06:55:40.744Z</time></trkpt><trkpt lat="45.08645" lon="10.8773367"><ele>18.0</ele><time>2026-05-01T06:55:41.747Z</time></trkpt><trkpt lat="45.08642" lon="10.877485"><ele>18.25</ele><time>2026-05-01T06:55:42.751Z</time></trkpt><trkpt lat="45.0863883" lon="10.87764"><ele>18.5</ele><time>2026-05-01T06:55:43.742Z</time></trkpt><trkpt lat="45.086355" lon="10.8778"><ele>18.75</ele><time>2026-05-01T06:55:44.742Z</time></trkpt><trkpt lat="45.08632" lon="10.877965"><ele>19.0</ele><time>2026-05-01T06:55:45.751Z</time></trkpt><trkpt lat="45.086285" lon="10.878135"><ele>19.0</ele><time>2026-05-01T06:55:46.752Z</time></trkpt><trkpt lat="45.0862467" lon="10.8783117"><ele>19.0</ele><time>2026-05-01T06:55:47.756Z</time></trkpt><trkpt lat="45.08621" lon="10.8784917"><ele>19.0</ele><time>2026-05-01T06:55:48.747Z</time></trkpt><trkpt lat="45.0861733" lon="10.8786717"><ele>19.0</ele><time>2026-05-01T06:55:49.743Z</time></trkpt><trkpt lat="45.0861367" lon="10.8788483"><ele>19.0</ele><time>2026-05-01T06:55:50.75Z</time></trkpt><trkpt lat="45.0860983" lon="10.879025"><ele>19.0</ele><time>2026-05-01T06:55:51.748Z</time></trkpt><trkpt lat="45.0860617" lon="10.8792067"><ele>19.0</ele><time>2026-05-01T06:55:52.749Z</time></trkpt><trkpt lat="45.086025" lon="10.87939"><ele>19.0</ele><time>2026-05-01T06:55:53.75Z</time></trkpt><trkpt lat="45.0859917" lon="10.8795733"><ele>19.0</ele><time>2026-05-01T06:55:54.744Z</time></trkpt><trkpt lat="45.0859567" lon="10.8797583"><ele>19.0</ele><time>2026-05-01T06:55:55.742Z</time></trkpt><trkpt lat="45.0859183" lon="10.87994"><ele>19.0</ele><time>2026-05-01T06:55:56.742Z</time></trkpt><trkpt lat="45.0858817" lon="10.8801267"><ele>19.0</ele><time>2026-05-01T06:55:57.741Z</time></trkpt><trkpt lat="45.0858483" lon="10.8803117"><ele>19.0</ele><time>2026-05-01T06:55:58.747Z</time></trkpt><trkpt lat="45.0858183" lon="10.8804933"><ele>19.0</ele><time>2026-05-01T06:55:59.742Z</time></trkpt><trkpt lat="45.0857833" lon="10.880675"><ele>19.0</ele><time>2026-05-01T06:56:00.75Z</time></trkpt><trkpt lat="45.0857467" lon="10.8808517"><ele>19.0</ele><time>2026-05-01T06:56:01.747Z</time></trkpt><trkpt lat="45.08571" lon="10.8810183"><ele>18.5</ele><time>2026-05-01T06:56:02.742Z</time></trkpt><trkpt lat="45.085675" lon="10.8811817"><ele>18.0</ele><time>2026-05-01T06:56:03.749Z</time></trkpt><trkpt lat="45.085645" lon="10.881345"><ele>17.5</ele><time>2026-05-01T06:56:04.747Z</time></trkpt><trkpt lat="45.08561" lon="10.8815067"><ele>17.0</ele><time>2026-05-01T06:56:05.748Z</time></trkpt><trkpt lat="45.0855767" lon="10.8816733"><ele>17.25</ele><time>2026-05-01T06:56:06.749Z</time></trkpt><trkpt lat="45.0855433" lon="10.881845"><ele>17.5</ele><time>2026-05-01T06:56:07.75Z</time></trkpt><trkpt lat="45.0855117" lon="10.8820133"><ele>17.75</ele><time>2026-05-01T06:56:08.749Z</time></trkpt><trkpt lat="45.0854767" lon="10.882175"><ele>18.0</ele><time>2026-05-01T06:56:09.745Z</time></trkpt><trkpt lat="45.0854383" lon="10.882335"><ele>18.0</ele><time>2026-05-01T06:56:10.75Z</time></trkpt><trkpt lat="45.0853983" lon="10.8824967"><ele>18.0</ele><time>2026-05-01T06:56:11.751Z</time></trkpt><trkpt lat="45.0853617" lon="10.8826567"><ele>18.0</ele><time>2026-05-01T06:56:12.754Z</time></trkpt><trkpt lat="45.0853267" lon="10.8828233"><ele>18.0</ele><time>2026-05-01T06:56:13.75Z</time></trkpt><trkpt lat="45.0852933" lon="10.8829967"><ele>18.25</ele><time>2026-05-01T06:56:14.752Z</time></trkpt><trkpt lat="45.0852583" lon="10.883175"><ele>18.5</ele><time>2026-05-01T06:56:15.752Z</time></trkpt><trkpt lat="45.0852233" lon="10.8833583"><ele>18.75</ele><time>2026-05-01T06:56:16.744Z</time></trkpt><trkpt lat="45.085185" lon="10.88355"><ele>19.0</ele><time>2026-05-01T06:56:17.752Z</time></trkpt><trkpt lat="45.0851433" lon="10.8837483"><ele>18.333333333333332</ele><time>2026-05-01T06:56:18.748Z</time></trkpt><trkpt lat="45.085095" lon="10.8839467"><ele>17.666666666666668</ele><time>2026-05-01T06:56:19.75Z</time></trkpt><trkpt lat="45.0850483" lon="10.88415"><ele>17.0</ele><time>2026-05-01T06:56:20.753Z</time></trkpt><trkpt lat="45.0849983" lon="10.8843617"><ele>17.0</ele><time>2026-05-01T06:56:21.747Z</time></trkpt><trkpt lat="45.08494" lon="10.8845733"><ele>17.0</ele><time>2026-05-01T06:56:22.741Z</time></trkpt><trkpt lat="45.084875" lon="10.8847767"><ele>17.0</ele><time>2026-05-01T06:56:23.742Z</time></trkpt><trkpt lat="45.0848067" lon="10.8849767"><ele>17.0</ele><time>2026-05-01T06:56:24.741Z</time></trkpt><trkpt lat="45.0847383" lon="10.88518"><ele>17.0</ele><time>2026-05-01T06:56:25.742Z</time></trkpt><trkpt lat="45.0846717" lon="10.88539"><ele>17.0</ele><time>2026-05-01T06:56:26.746Z</time></trkpt><trkpt lat="45.0846083" lon="10.8856"><ele>17.0</ele><time>2026-05-01T06:56:27.742Z</time></trkpt><trkpt lat="45.084545" lon="10.885815"><ele>17.0</ele><time>2026-05-01T06:56:28.743Z</time></trkpt><trkpt lat="45.0844867" lon="10.886035"><ele>17.0</ele><time>2026-05-01T06:56:29.749Z</time></trkpt><trkpt lat="45.0844333" lon="10.8862567"><ele>17.0</ele><time>2026-05-01T06:56:30.751Z</time></trkpt><trkpt lat="45.0843817" lon="10.8864833"><ele>17.0</ele><time>2026-05-01T06:56:31.743Z</time></trkpt><trkpt lat="45.08433" lon="10.8867183"><ele>17.0</ele><time>2026-05-01T06:56:32.753Z</time></trkpt><trkpt lat="45.0842783" lon="10.88695"><ele>17.0</ele><time>2026-05-01T06:56:33.753Z</time></trkpt><trkpt lat="45.084225" lon="10.8871883"><ele>17.0</ele><time>2026-05-01T06:56:34.749Z</time></trkpt><trkpt lat="45.0841767" lon="10.8874217"><ele>17.0</ele><time>2026-05-01T06:56:35.748Z</time></trkpt><trkpt lat="45.084125" lon="10.8876567"><ele>16.333333333333336</ele><time>2026-05-01T06:56:36.741Z</time></trkpt><trkpt lat="45.0840717" lon="10.8878933"><ele>15.666666666666668</ele><time>2026-05-01T06:56:37.747Z</time></trkpt><trkpt lat="45.08402" lon="10.88813"><ele>15.0</ele><time>2026-05-01T06:56:38.752Z</time></trkpt><trkpt lat="45.08397" lon="10.8883667"><ele>15.333333333333332</ele><time>2026-05-01T06:56:39.744Z</time></trkpt><trkpt lat="45.08392" lon="10.8886017"><ele>15.666666666666666</ele><time>2026-05-01T06:56:40.751Z</time></trkpt><trkpt lat="45.08387" lon="10.8888417"><ele>16.0</ele><time>2026-05-01T06:56:41.747Z</time></trkpt><trkpt lat="45.0838183" lon="10.8890783"><ele>16.0</ele><time>2026-05-01T06:56:42.75Z</time></trkpt><trkpt lat="45.0837683" lon="10.8893217"><ele>16.0</ele><time>2026-05-01T06:56:43.741Z</time></trkpt><trkpt lat="45.0837167" lon="10.8895617"><ele>16.0</ele><time>2026-05-01T06:56:44.75Z</time></trkpt><trkpt lat="45.0836617" lon="10.8898"><ele>16.0</ele><time>2026-05-01T06:56:45.748Z</time></trkpt><trkpt lat="45.0836033" lon="10.8900367"><ele>16.0</ele><time>2026-05-01T06:56:46.744Z</time></trkpt><trkpt lat="45.0835417" lon="10.8902733"><ele>16.0</ele><time>2026-05-01T06:56:47.75Z</time></trkpt><trkpt lat="45.08347" lon="10.8905017"><ele>16.0</ele><time>2026-05-01T06:56:48.748Z</time></trkpt><trkpt lat="45.0833967" lon="10.8907283"><ele>16.0</ele><time>2026-05-01T06:56:49.747Z</time></trkpt><trkpt lat="45.08332" lon="10.89095"><ele>16.0</ele><time>2026-05-01T06:56:50.741Z</time></trkpt><trkpt lat="45.0832433" lon="10.89117"><ele>16.0</ele><time>2026-05-01T06:56:51.747Z</time></trkpt><trkpt lat="45.083165" lon="10.8913917"><ele>16.0</ele><time>2026-05-01T06:56:52.745Z</time></trkpt><trkpt lat="45.0830833" lon="10.8916133"><ele>16.0</ele><time>2026-05-01T06:56:53.751Z</time></trkpt><trkpt lat="45.083" lon="10.8918367"><ele>16.333333333333332</ele><time>2026-05-01T06:56:54.74Z</time></trkpt><trkpt lat="45.0829183" lon="10.89206"><ele>16.666666666666668</ele><time>2026-05-01T06:56:55.741Z</time></trkpt><trkpt lat="45.0828367" lon="10.892285"><ele>17.0</ele><time>2026-05-01T06:56:56.744Z</time></trkpt><trkpt lat="45.0827567" lon="10.8925083"><ele>17.0</ele><time>2026-05-01T06:56:57.742Z</time></trkpt><trkpt lat="45.08268" lon="10.8927317"><ele>17.0</ele><time>2026-05-01T06:56:58.747Z</time></trkpt><trkpt lat="45.0826017" lon="10.8929517"><ele>17.0</ele><time>2026-05-01T06:56:59.754Z</time></trkpt><trkpt lat="45.0825193" lon="10.8931702"><ele>17.0</ele><time>2026-05-01T06:57:00.746Z</time></trkpt><trkpt lat="45.0824285" lon="10.893384"><ele>17.0</ele><time>2026-05-01T06:57:01.748Z</time></trkpt><trkpt lat="45.082321" lon="10.8935859"><ele>17.0</ele><time>2026-05-01T06:57:02.748Z</time></trkpt><trkpt lat="45.0821957" lon="10.8937787"><ele>16.666666666666668</ele><time>2026-05-01T06:57:03.747Z</time></trkpt><trkpt lat="45.0820573" lon="10.8939633"><ele>16.333333333333332</ele><time>2026-05-01T06:57:04.747Z</time></trkpt><trkpt lat="45.0819092" lon="10.8941385"><ele>16.0</ele><time>2026-05-01T06:57:05.743Z</time></trkpt><trkpt lat="45.0817574" lon="10.8943135"><ele>15.666666666666666</ele><time>2026-05-01T06:57:06.75Z</time></trkpt><trkpt lat="45.0816038" lon="10.8944874"><ele>15.333333333333332</ele><time>2026-05-01T06:57:07.753Z</time></trkpt><trkpt lat="45.0814528" lon="10.8946658"><ele>15.0</ele><time>2026-05-01T06:57:08.745Z</time></trkpt><trkpt lat="45.0813034" lon="10.8948475"><ele>15.0</ele><time>2026-05-01T06:57:09.751Z</time></trkpt><trkpt lat="45.0811549" lon="10.895029"><ele>15.0</ele><time>2026-05-01T06:57:10.752Z</time></trkpt><trkpt lat="45.081009" lon="10.8952064"><ele>15.0</ele><time>2026-05-01T06:57:11.751Z</time></trkpt><trkpt lat="45.0808642" lon="10.8953809"><ele>15.333333333333332</ele><time>2026-05-01T06:57:12.754Z</time></trkpt><trkpt lat="45.0807255" lon="10.8955473"><ele>15.666666666666666</ele><time>2026-05-01T06:57:13.749Z</time></trkpt><trkpt lat="45.080594" lon="10.8957071"><ele>16.0</ele><time>2026-05-01T06:57:14.741Z</time></trkpt><trkpt lat="45.0804683" lon="10.8958624"><ele>15.666666666666666</ele><time>2026-05-01T06:57:15.747Z</time></trkpt><trkpt lat="45.0803465" lon="10.8960115"><ele>15.333333333333332</ele><time>2026-05-01T06:57:16.748Z</time></trkpt><trkpt lat="45.0802229" lon="10.8961617"><ele>15.0</ele><time>2026-05-01T06:57:17.749Z</time></trkpt><trkpt lat="45.080097" lon="10.8963129"><ele>15.0</ele><time>2026-05-01T06:57:18.751Z</time></trkpt><trkpt lat="45.0799726" lon="10.8964687"><ele>15.0</ele><time>2026-05-01T06:57:19.75Z</time></trkpt><trkpt lat="45.0798518" lon="10.8966325"><ele>15.0</ele><time>2026-05-01T06:57:20.749Z</time></trkpt><trkpt lat="45.0797425" lon="10.8968072"><ele>15.333333333333332</ele><time>2026-05-01T06:57:21.742Z</time></trkpt><trkpt lat="45.0796467" lon="10.8969971"><ele>15.666666666666666</ele><time>2026-05-01T06:57:22.744Z</time></trkpt><trkpt lat="45.0795676" lon="10.8971994"><ele>16.0</ele><time>2026-05-01T06:57:23.741Z</time></trkpt><trkpt lat="45.0794995" lon="10.8974097"><ele>16.333333333333332</ele><time>2026-05-01T06:57:24.75Z</time></trkpt><trkpt lat="45.0794472" lon="10.8976271"><ele>16.666666666666668</ele><time>2026-05-01T06:57:25.741Z</time></trkpt><trkpt lat="45.0794099" lon="10.8978577"><ele>17.0</ele><time>2026-05-01T06:57:26.743Z</time></trkpt><trkpt lat="45.0793873" lon="10.8980948"><ele>17.0</ele><time>2026-05-01T06:57:27.741Z</time></trkpt><trkpt lat="45.079376" lon="10.8983386"><ele>17.0</ele><time>2026-05-01T06:57:28.75Z</time></trkpt><trkpt lat="45.079374" lon="10.8985824"><ele>17.0</ele><time>2026-05-01T06:57:29.745Z</time></trkpt><trkpt lat="45.0793728" lon="10.8988283"><ele>16.333333333333336</ele><time>2026-05-01T06:57:30.742Z</time></trkpt><trkpt lat="45.0793719" lon="10.8990766"><ele>15.666666666666668</ele><time>2026-05-01T06:57:31.747Z</time></trkpt><trkpt lat="45.0793685" lon="10.8993222"><ele>15.0</ele><time>2026-05-01T06:57:32.743Z</time></trkpt><trkpt lat="45.0793625" lon="10.8995655"><ele>15.0</ele><time>2026-05-01T06:57:33.755Z</time></trkpt><trkpt lat="45.0793572" lon="10.899804"><ele>15.0</ele><time>2026-05-01T06:57:34.749Z</time></trkpt><trkpt lat="45.0793563" lon="10.9000366"><ele>15.0</ele><time>2026-05-01T06:57:35.742Z</time></trkpt><trkpt lat="45.0793581" lon="10.900268"><ele>15.0</ele><time>2026-05-01T06:57:36.741Z</time></trkpt><trkpt lat="45.0793635" lon="10.9004993"><ele>15.0</ele><time>2026-05-01T06:57:37.745Z</time></trkpt><trkpt lat="45.079376" lon="10.9007289"><ele>15.0</ele><time>2026-05-01T06:57:38.75Z</time></trkpt><trkpt lat="45.0793987" lon="10.9009544"><ele>15.0</ele><time>2026-05-01T06:57:39.741Z</time></trkpt><trkpt lat="45.0794322" lon="10.9011803"><ele>15.0</ele><time>2026-05-01T06:57:40.748Z</time></trkpt><trkpt lat="45.0794759" lon="10.9014055"><ele>15.0</ele><time>2026-05-01T06:57:41.748Z</time></trkpt><trkpt lat="45.0795254" lon="10.9016328"><ele>14.666666666666668</ele><time>2026-05-01T06:57:42.749Z</time></trkpt><trkpt lat="45.0795743" lon="10.9018597"><ele>14.333333333333334</ele><time>2026-05-01T06:57:43.747Z</time></trkpt><trkpt lat="45.0796243" lon="10.9020894"><ele>14.0</ele><time>2026-05-01T06:57:44.751Z</time></trkpt><trkpt lat="45.0796739" lon="10.9023179"><ele>14.0</ele><time>2026-05-01T06:57:45.748Z</time></trkpt><trkpt lat="45.0797272" lon="10.9025455"><ele>14.0</ele><time>2026-05-01T06:57:46.752Z</time></trkpt><trkpt lat="45.0797816" lon="10.9027762"><ele>14.0</ele><time>2026-05-01T06:57:47.753Z</time></trkpt><trkpt lat="45.0798353" lon="10.9030116"><ele>14.0</ele><time>2026-05-01T06:57:48.753Z</time></trkpt><trkpt lat="45.0798893" lon="10.9032491"><ele>14.0</ele><time>2026-05-01T06:57:49.749Z</time></trkpt><trkpt lat="45.0799451" lon="10.9034899"><ele>14.0</ele><time>2026-05-01T06:57:50.75Z</time></trkpt><trkpt lat="45.0800004" lon="10.9037324"><ele>14.0</ele><time>2026-05-01T06:57:51.743Z</time></trkpt><trkpt lat="45.0800568" lon="10.903978"><ele>14.0</ele><time>2026-05-01T06:57:52.752Z</time></trkpt><trkpt lat="45.0801138" lon="10.9042241"><ele>14.0</ele><time>2026-05-01T06:57:53.754Z</time></trkpt><trkpt lat="45.0801711" lon="10.9044701"><ele>14.666666666666668</ele><time>2026-05-01T06:57:54.749Z</time></trkpt><trkpt lat="45.0802284" lon="10.9047155"><ele>15.333333333333332</ele><time>2026-05-01T06:57:55.75Z</time></trkpt><trkpt lat="45.0802852" lon="10.9049579"><ele>16.0</ele><time>2026-05-01T06:57:56.749Z</time></trkpt><trkpt lat="45.0803385" lon="10.9052009"><ele>16.666666666666664</ele><time>2026-05-01T06:57:57.753Z</time></trkpt><trkpt lat="45.0803859" lon="10.9054448"><ele>17.333333333333332</ele><time>2026-05-01T06:57:58.751Z</time></trkpt><trkpt lat="45.0804302" lon="10.9056921"><ele>18.0</ele><time>2026-05-01T06:57:59.753Z</time></trkpt><trkpt lat="45.0804673" lon="10.9059464"><ele>18.333333333333332</ele><time>2026-05-01T06:58:00.752Z</time></trkpt><trkpt lat="45.0804947" lon="10.9062001"><ele>18.666666666666664</ele><time>2026-05-01T06:58:01.743Z</time></trkpt><trkpt lat="45.080521" lon="10.9064606"><ele>19.0</ele><time>2026-05-01T06:58:02.752Z</time></trkpt><trkpt lat="45.080544" lon="10.9067211"><ele>19.333333333333332</ele><time>2026-05-01T06:58:03.749Z</time></trkpt><trkpt lat="45.0805695" lon="10.9069838"><ele>19.666666666666668</ele><time>2026-05-01T06:58:04.747Z</time></trkpt><trkpt lat="45.0805929" lon="10.9072445"><ele>20.0</ele><time>2026-05-01T06:58:05.752Z</time></trkpt><trkpt lat="45.080617" lon="10.907503"><ele>19.666666666666668</ele><time>2026-05-01T06:58:06.749Z</time></trkpt><trkpt lat="45.0806376" lon="10.9077567"><ele>19.333333333333332</ele><time>2026-05-01T06:58:07.742Z</time></trkpt><trkpt lat="45.0806569" lon="10.9080117"><ele>19.0</ele><time>2026-05-01T06:58:08.747Z</time></trkpt><trkpt lat="45.0806777" lon="10.9082631"><ele>18.666666666666664</ele><time>2026-05-01T06:58:09.749Z</time></trkpt><trkpt lat="45.080698" lon="10.9085128"><ele>18.333333333333332</ele><time>2026-05-01T06:58:10.75Z</time></trkpt><trkpt lat="45.0807162" lon="10.908757"><ele>18.0</ele><time>2026-05-01T06:58:11.749Z</time></trkpt><trkpt lat="45.0807343" lon="10.9090005"><ele>17.666666666666668</ele><time>2026-05-01T06:58:12.742Z</time></trkpt><trkpt lat="45.0807527" lon="10.909248"><ele>17.333333333333336</ele><time>2026-05-01T06:58:13.752Z</time></trkpt><trkpt lat="45.0807718" lon="10.9094929"><ele>17.0</ele><time>2026-05-01T06:58:14.742Z</time></trkpt><trkpt lat="45.0807916" lon="10.9097411"><ele>16.666666666666668</ele><time>2026-05-01T06:58:15.753Z</time></trkpt><trkpt lat="45.0808104" lon="10.909988"><ele>16.333333333333332</ele><time>2026-05-01T06:58:16.747Z</time></trkpt><trkpt lat="45.0808273" lon="10.9102408"><ele>16.0</ele><time>2026-05-01T06:58:17.756Z</time></trkpt><trkpt lat="45.0808421" lon="10.9104978"><ele>16.0</ele><time>2026-05-01T06:58:18.751Z</time></trkpt><trkpt lat="45.0808539" lon="10.9107616"><ele>16.0</ele><time>2026-05-01T06:58:19.754Z</time></trkpt><trkpt lat="45.0808602" lon="10.9110308"><ele>16.0</ele><time>2026-05-01T06:58:20.743Z</time></trkpt><trkpt lat="45.0808633" lon="10.9113051"><ele>16.0</ele><time>2026-05-01T06:58:21.745Z</time></trkpt><trkpt lat="45.0808642" lon="10.911581"><ele>16.0</ele><time>2026-05-01T06:58:22.749Z</time></trkpt><trkpt lat="45.0808644" lon="10.9118568"><ele>16.0</ele><time>2026-05-01T06:58:23.749Z</time></trkpt><trkpt lat="45.0808654" lon="10.9121325"><ele>15.666666666666666</ele><time>2026-05-01T06:58:24.751Z</time></trkpt><trkpt lat="45.0808676" lon="10.9124057"><ele>15.333333333333332</ele><time>2026-05-01T06:58:25.744Z</time></trkpt><trkpt lat="45.0808687" lon="10.912676"><ele>15.0</ele><time>2026-05-01T06:58:26.748Z</time></trkpt><trkpt lat="45.08087" lon="10.9129416"><ele>15.0</ele><time>2026-05-01T06:58:27.752Z</time></trkpt><trkpt lat="45.0808715" lon="10.9132047"><ele>15.0</ele><time>2026-05-01T06:58:28.749Z</time></trkpt><trkpt lat="45.0808739" lon="10.9134689"><ele>15.0</ele><time>2026-05-01T06:58:29.745Z</time></trkpt><trkpt lat="45.0808759" lon="10.9137358"><ele>15.0</ele><time>2026-05-01T06:58:30.749Z</time></trkpt><trkpt lat="45.0808777" lon="10.9140019"><ele>15.0</ele><time>2026-05-01T06:58:31.749Z</time></trkpt><trkpt lat="45.0808794" lon="10.9142685"><ele>15.0</ele><time>2026-05-01T06:58:32.749Z</time></trkpt><trkpt lat="45.0808798" lon="10.9145314"><ele>15.333333333333332</ele><time>2026-05-01T06:58:33.742Z</time></trkpt><trkpt lat="45.0808767" lon="10.9147955"><ele>15.666666666666666</ele><time>2026-05-01T06:58:34.752Z</time></trkpt><trkpt lat="45.0808748" lon="10.9150571"><ele>16.0</ele><time>2026-05-01T06:58:35.749Z</time></trkpt><trkpt lat="45.0808756" lon="10.91532"><ele>16.0</ele><time>2026-05-01T06:58:36.755Z</time></trkpt><trkpt lat="45.0808755" lon="10.9155778"><ele>16.0</ele><time>2026-05-01T06:58:37.748Z</time></trkpt><trkpt lat="45.0808753" lon="10.9158366"><ele>16.0</ele><time>2026-05-01T06:58:38.753Z</time></trkpt><trkpt lat="45.0808765" lon="10.9160919"><ele>16.0</ele><time>2026-05-01T06:58:39.749Z</time></trkpt><trkpt lat="45.0808795" lon="10.9163469"><ele>16.0</ele><time>2026-05-01T06:58:40.744Z</time></trkpt><trkpt lat="45.080881" lon="10.9166006"><ele>16.0</ele><time>2026-05-01T06:58:41.747Z</time></trkpt><trkpt lat="45.0808813" lon="10.9168505"><ele>16.0</ele><time>2026-05-01T06:58:42.75Z</time></trkpt><trkpt lat="45.0808799" lon="10.9170947"><ele>16.0</ele><time>2026-05-01T06:58:43.748Z</time></trkpt><trkpt lat="45.0808805" lon="10.917335"><ele>16.0</ele><time>2026-05-01T06:58:44.751Z</time></trkpt><trkpt lat="45.0808832" lon="10.9175724"><ele>16.333333333333332</ele><time>2026-05-01T06:58:45.75Z</time></trkpt><trkpt lat="45.0808883" lon="10.917814"><ele>16.666666666666668</ele><time>2026-05-01T06:58:46.75Z</time></trkpt><trkpt lat="45.0808924" lon="10.918057"><ele>17.0</ele><time>2026-05-01T06:58:47.75Z</time></trkpt><trkpt lat="45.0808949" lon="10.9183014"><ele>17.0</ele><time>2026-05-01T06:58:48.748Z</time></trkpt><trkpt lat="45.0808949" lon="10.9185476"><ele>17.0</ele><time>2026-05-01T06:58:49.744Z</time></trkpt><trkpt lat="45.080895" lon="10.9187994"><ele>17.0</ele><time>2026-05-01T06:58:50.754Z</time></trkpt><trkpt lat="45.0808951" lon="10.9190514"><ele>16.0</ele><time>2026-05-01T06:58:51.742Z</time></trkpt><trkpt lat="45.0808958" lon="10.9193114"><ele>15.0</ele><time>2026-05-01T06:58:52.75Z</time></trkpt><trkpt lat="45.0808992" lon="10.9195712"><ele>14.0</ele><time>2026-05-01T06:58:53.751Z</time></trkpt><trkpt lat="45.0809016" lon="10.9198313"><ele>14.0</ele><time>2026-05-01T06:58:54.753Z</time></trkpt><trkpt lat="45.0809016" lon="10.9200949"><ele>14.0</ele><time>2026-05-01T06:58:55.742Z</time></trkpt><trkpt lat="45.0809026" lon="10.9203637"><ele>14.0</ele><time>2026-05-01T06:58:56.756Z</time></trkpt><trkpt lat="45.0809001" lon="10.9206303"><ele>14.0</ele><time>2026-05-01T06:58:57.758Z</time></trkpt><trkpt lat="45.0808952" lon="10.9208964"><ele>14.0</ele><time>2026-05-01T06:58:58.751Z</time></trkpt><trkpt lat="45.0808783" lon="10.9211617"><ele>14.0</ele><time>2026-05-01T06:58:59.744Z</time></trkpt><trkpt lat="45.0808667" lon="10.9214283"><ele>14.0</ele><time>2026-05-01T06:59:00.75Z</time></trkpt><trkpt lat="45.08085" lon="10.92169"><ele>14.0</ele><time>2026-05-01T06:59:01.748Z</time></trkpt><trkpt lat="45.08083" lon="10.9219433"><ele>14.0</ele><time>2026-05-01T06:59:02.752Z</time></trkpt><trkpt lat="45.0808033" lon="10.9221967"><ele>14.333333333333334</ele><time>2026-05-01T06:59:03.751Z</time></trkpt><trkpt lat="45.0807883" lon="10.9224617"><ele>14.666666666666668</ele><time>2026-05-01T06:59:04.743Z</time></trkpt><trkpt lat="45.08076" lon="10.9227167"><ele>15.0</ele><time>2026-05-01T06:59:05.746Z</time></trkpt><trkpt lat="45.0807283" lon="10.9229683"><ele>15.0</ele><time>2026-05-01T06:59:06.751Z</time></trkpt><trkpt lat="45.0806933" lon="10.9232133"><ele>15.0</ele><time>2026-05-01T06:59:07.747Z</time></trkpt><trkpt lat="45.0806533" lon="10.923455"><ele>15.0</ele><time>2026-05-01T06:59:08.748Z</time></trkpt><trkpt lat="45.0806117" lon="10.9236917"><ele>15.0</ele><time>2026-05-01T06:59:09.747Z</time></trkpt><trkpt lat="45.08057" lon="10.9239267"><ele>15.0</ele><time>2026-05-01T06:59:10.751Z</time></trkpt><trkpt lat="45.080525" lon="10.92416"><ele>15.0</ele><time>2026-05-01T06:59:11.748Z</time></trkpt><trkpt lat="45.08048" lon="10.9243933"><ele>16.0</ele><time>2026-05-01T06:59:12.749Z</time></trkpt><trkpt lat="45.080435" lon="10.9246233"><ele>17.0</ele><time>2026-05-01T06:59:13.748Z</time></trkpt><trkpt lat="45.08039" lon="10.9248483"><ele>18.0</ele><time>2026-05-01T06:59:14.75Z</time></trkpt><trkpt lat="45.08035" lon="10.9250733"><ele>18.666666666666668</ele><time>2026-05-01T06:59:15.749Z</time></trkpt><trkpt lat="45.08031" lon="10.9252983"><ele>19.333333333333336</ele><time>2026-05-01T06:59:16.754Z</time></trkpt><trkpt lat="45.08027" lon="10.9255267"><ele>20.0</ele><time>2026-05-01T06:59:17.751Z</time></trkpt><trkpt lat="45.0802267" lon="10.9257517"><ele>19.333333333333336</ele><time>2026-05-01T06:59:18.752Z</time></trkpt><trkpt lat="45.0801833" lon="10.92599"><ele>18.666666666666668</ele><time>2026-05-01T06:59:19.751Z</time></trkpt><trkpt lat="45.0801383" lon="10.9262317"><ele>18.0</ele><time>2026-05-01T06:59:20.755Z</time></trkpt><trkpt lat="45.0800933" lon="10.9264783"><ele>17.333333333333332</ele><time>2026-05-01T06:59:21.75Z</time></trkpt><trkpt lat="45.080045" lon="10.9267283"><ele>16.666666666666664</ele><time>2026-05-01T06:59:22.75Z</time></trkpt><trkpt lat="45.0799967" lon="10.9269717"><ele>16.0</ele><time>2026-05-01T06:59:23.742Z</time></trkpt><trkpt lat="45.07995" lon="10.9272183"><ele>17.666666666666664</ele><time>2026-05-01T06:59:24.752Z</time></trkpt><trkpt lat="45.0798967" lon="10.92747"><ele>19.333333333333332</ele><time>2026-05-01T06:59:25.747Z</time></trkpt><trkpt lat="45.07985" lon="10.9277283"><ele>21.0</ele><time>2026-05-01T06:59:26.745Z</time></trkpt><trkpt lat="45.0798017" lon="10.9279933"><ele>21.0</ele><time>2026-05-01T06:59:27.751Z</time></trkpt><trkpt lat="45.0797517" lon="10.9282517"><ele>21.0</ele><time>2026-05-01T06:59:28.744Z</time></trkpt><trkpt lat="45.0797017" lon="10.9285133"><ele>21.0</ele><time>2026-05-01T06:59:29.75Z</time></trkpt><trkpt lat="45.0796517" lon="10.9287733"><ele>21.0</ele><time>2026-05-01T06:59:30.749Z</time></trkpt><trkpt lat="45.0796" lon="10.9290367"><ele>21.0</ele><time>2026-05-01T06:59:31.742Z</time></trkpt><trkpt lat="45.0795467" lon="10.9293017"><ele>21.0</ele><time>2026-05-01T06:59:32.752Z</time></trkpt><trkpt lat="45.079495" lon="10.9295667"><ele>20.666666666666668</ele><time>2026-05-01T06:59:33.752Z</time></trkpt><trkpt lat="45.079445" lon="10.9298317"><ele>20.333333333333336</ele><time>2026-05-01T06:59:34.747Z</time></trkpt><trkpt lat="45.0793917" lon="10.9300983"><ele>20.0</ele><time>2026-05-01T06:59:35.751Z</time></trkpt><trkpt lat="45.0793417" lon="10.9303667"><ele>19.0</ele><time>2026-05-01T06:59:36.752Z</time></trkpt><trkpt lat="45.0792917" lon="10.930635"><ele>18.0</ele><time>2026-05-01T06:59:37.752Z</time></trkpt><trkpt lat="45.0792417" lon="10.9309017"><ele>17.0</ele><time>2026-05-01T06:59:38.751Z</time></trkpt><trkpt lat="45.0791933" lon="10.9311667"><ele>17.0</ele><time>2026-05-01T06:59:39.747Z</time></trkpt><trkpt lat="45.0791433" lon="10.931425"><ele>17.0</ele><time>2026-05-01T06:59:40.75Z</time></trkpt><trkpt lat="45.0790983" lon="10.9316717"><ele>17.0</ele><time>2026-05-01T06:59:41.755Z</time></trkpt><trkpt lat="45.0790467" lon="10.93191"><ele>17.0</ele><time>2026-05-01T06:59:42.752Z</time></trkpt><trkpt lat="45.078985" lon="10.9321433"><ele>17.0</ele><time>2026-05-01T06:59:43.748Z</time></trkpt><trkpt lat="45.0789167" lon="10.9323767"><ele>17.0</ele><time>2026-05-01T06:59:44.751Z</time></trkpt><trkpt lat="45.0788367" lon="10.9326067"><ele>17.0</ele><time>2026-05-01T06:59:45.749Z</time></trkpt><trkpt lat="45.0787483" lon="10.93282"><ele>17.0</ele><time>2026-05-01T06:59:46.743Z</time></trkpt><trkpt lat="45.0786567" lon="10.933015"><ele>17.0</ele><time>2026-05-01T06:59:47.751Z</time></trkpt><trkpt lat="45.0785583" lon="10.9331883"><ele>17.0</ele><time>2026-05-01T06:59:48.754Z</time></trkpt><trkpt lat="45.0784483" lon="10.9333533"><ele>17.0</ele><time>2026-05-01T06:59:49.751Z</time></trkpt><trkpt lat="45.07833" lon="10.93351"><ele>17.0</ele><time>2026-05-01T06:59:50.755Z</time></trkpt><trkpt lat="45.078205" lon="10.9336583"><ele>17.333333333333336</ele><time>2026-05-01T06:59:51.749Z</time></trkpt><trkpt lat="45.0780717" lon="10.9337933"><ele>17.666666666666668</ele><time>2026-05-01T06:59:52.745Z</time></trkpt><trkpt lat="45.0779317" lon="10.9339083"><ele>18.0</ele><time>2026-05-01T06:59:53.751Z</time></trkpt><trkpt lat="45.07779" lon="10.9340067"><ele>18.0</ele><time>2026-05-01T06:59:54.742Z</time></trkpt><trkpt lat="45.077645" lon="10.9340933"><ele>18.0</ele><time>2026-05-01T06:59:55.749Z</time></trkpt><trkpt lat="45.0774967" lon="10.9341683"><ele>18.0</ele><time>2026-05-01T06:59:56.75Z</time></trkpt><trkpt lat="45.077345" lon="10.93423"><ele>18.0</ele><time>2026-05-01T06:59:57.751Z</time></trkpt><trkpt lat="45.0771933" lon="10.9342783"><ele>18.0</ele><time>2026-05-01T06:59:58.752Z</time></trkpt><trkpt lat="45.077045" lon="10.93431"><ele>18.0</ele><time>2026-05-01T06:59:59.743Z</time></trkpt><trkpt lat="45.0768917" lon="10.9343283"><ele>18.0</ele><time>2026-05-01T07:00:00.748Z</time></trkpt><trkpt lat="45.07674" lon="10.9343333"><ele>18.0</ele><time>2026-05-01T07:00:01.743Z</time></trkpt><trkpt lat="45.0765883" lon="10.9343217"><ele>18.0</ele><time>2026-05-01T07:00:02.742Z</time></trkpt><trkpt lat="45.0764433" lon="10.9342967"><ele>18.25</ele><time>2026-05-01T07:00:03.751Z</time></trkpt><trkpt lat="45.0763033" lon="10.9342733"><ele>18.5</ele><time>2026-05-01T07:00:04.748Z</time></trkpt><trkpt lat="45.0761717" lon="10.9342717"><ele>18.75</ele><time>2026-05-01T07:00:05.752Z</time></trkpt><trkpt lat="45.0760433" lon="10.9342933"><ele>19.0</ele><time>2026-05-01T07:00:06.754Z</time></trkpt><trkpt lat="45.0759133" lon="10.9343283"><ele>19.0</ele><time>2026-05-01T07:00:07.752Z</time></trkpt><trkpt lat="45.0757867" lon="10.9343517"><ele>19.0</ele><time>2026-05-01T07:00:08.752Z</time></trkpt><trkpt lat="45.07566" lon="10.9343483"><ele>19.0</ele><time>2026-05-01T07:00:09.751Z</time></trkpt><trkpt lat="45.0755267" lon="10.93432"><ele>19.0</ele><time>2026-05-01T07:00:10.741Z</time></trkpt><trkpt lat="45.07538" lon="10.93428"><ele>18.666666666666664</ele><time>2026-05-01T07:00:11.748Z</time></trkpt><trkpt lat="45.0752133" lon="10.9342317"><ele>18.333333333333332</ele><time>2026-05-01T07:00:12.748Z</time></trkpt><trkpt lat="45.0750367" lon="10.93418"><ele>18.0</ele><time>2026-05-01T07:00:13.749Z</time></trkpt><trkpt lat="45.074855" lon="10.9341217"><ele>15.666666666666666</ele><time>2026-05-01T07:00:14.752Z</time></trkpt><trkpt lat="45.0746683" lon="10.93406"><ele>13.333333333333332</ele><time>2026-05-01T07:00:15.745Z</time></trkpt><trkpt lat="45.0744779" lon="10.9340006"><ele>11.0</ele><time>2026-05-01T07:00:16.749Z</time></trkpt><trkpt lat="45.0742887" lon="10.9339438"><ele>11.0</ele><time>2026-05-01T07:00:17.749Z</time></trkpt><trkpt lat="45.074099" lon="10.9338888"><ele>11.0</ele><time>2026-05-01T07:00:18.742Z</time></trkpt><trkpt lat="45.0739038" lon="10.9338338"><ele>11.0</ele><time>2026-05-01T07:00:19.75Z</time></trkpt><trkpt lat="45.0737106" lon="10.933778"><ele>11.0</ele><time>2026-05-01T07:00:20.753Z</time></trkpt><trkpt lat="45.0735201" lon="10.9337274"><ele>11.0</ele><time>2026-05-01T07:00:21.752Z</time></trkpt><trkpt lat="45.0733345" lon="10.9336779"><ele>11.0</ele><time>2026-05-01T07:00:22.749Z</time></trkpt><trkpt lat="45.073155" lon="10.9336268"><ele>12.666666666666666</ele><time>2026-05-01T07:00:23.749Z</time></trkpt><trkpt lat="45.0729864" lon="10.9335718"><ele>14.333333333333332</ele><time>2026-05-01T07:00:24.75Z</time></trkpt><trkpt lat="45.0728304" lon="10.9335075"><ele>16.0</ele><time>2026-05-01T07:00:25.747Z</time></trkpt><trkpt lat="45.0726855" lon="10.9334194"><ele>17.666666666666664</ele><time>2026-05-01T07:00:26.742Z</time></trkpt><trkpt lat="45.0725514" lon="10.9333102"><ele>19.333333333333332</ele><time>2026-05-01T07:00:27.752Z</time></trkpt><trkpt lat="45.0724206" lon="10.9331992"><ele>21.0</ele><time>2026-05-01T07:00:28.761Z</time></trkpt><trkpt lat="45.072274" lon="10.9331202"><ele>22.333333333333336</ele><time>2026-05-01T07:00:29.743Z</time></trkpt><trkpt lat="45.0721189" lon="10.9330546"><ele>23.666666666666668</ele><time>2026-05-01T07:00:30.744Z</time></trkpt><trkpt lat="45.0719478" lon="10.9330068"><ele>25.0</ele><time>2026-05-01T07:00:31.752Z</time></trkpt><trkpt lat="45.0717757" lon="10.9329613"><ele>25.0</ele><time>2026-05-01T07:00:32.753Z</time></trkpt><trkpt lat="45.0716013" lon="10.9329127"><ele>25.0</ele><time>2026-05-01T07:00:33.748Z</time></trkpt><trkpt lat="45.0714224" lon="10.9328583"><ele>25.0</ele><time>2026-05-01T07:00:34.742Z</time></trkpt><trkpt lat="45.0712412" lon="10.9328015"><ele>25.0</ele><time>2026-05-01T07:00:35.742Z</time></trkpt><trkpt lat="45.0710598" lon="10.9327482"><ele>25.0</ele><time>2026-05-01T07:00:36.741Z</time></trkpt><trkpt lat="45.0708785" lon="10.9326998"><ele>25.0</ele><time>2026-05-01T07:00:37.742Z</time></trkpt><trkpt lat="45.0706969" lon="10.9326469"><ele>23.333333333333336</ele><time>2026-05-01T07:00:38.743Z</time></trkpt><trkpt lat="45.0705145" lon="10.9325959"><ele>21.666666666666668</ele><time>2026-05-01T07:00:39.744Z</time></trkpt><trkpt lat="45.0703352" lon="10.9325455"><ele>20.0</ele><time>2026-05-01T07:00:40.741Z</time></trkpt><trkpt lat="45.070161" lon="10.9324965"><ele>20.0</ele><time>2026-05-01T07:00:41.742Z</time></trkpt><trkpt lat="45.0699949" lon="10.9324486"><ele>20.0</ele><time>2026-05-01T07:00:42.744Z</time></trkpt><trkpt lat="45.0698389" lon="10.9324013"><ele>20.0</ele><time>2026-05-01T07:00:43.741Z</time></trkpt><trkpt lat="45.0696973" lon="10.9323589"><ele>19.6</ele><time>2026-05-01T07:00:44.75Z</time></trkpt><trkpt lat="45.0695739" lon="10.9323253"><ele>19.2</ele><time>2026-05-01T07:00:45.75Z</time></trkpt><trkpt lat="45.0694697" lon="10.9322999"><ele>18.8</ele><time>2026-05-01T07:00:46.741Z</time></trkpt><trkpt lat="45.0693829" lon="10.9322811"><ele>18.4</ele><time>2026-05-01T07:00:47.749Z</time></trkpt><trkpt lat="45.0693143" lon="10.9322672"><ele>18.0</ele><time>2026-05-01T07:00:48.741Z</time></trkpt><trkpt lat="45.0692533" lon="10.9322189"><ele>18.0</ele><time>2026-05-01T07:00:50.749Z</time></trkpt><trkpt lat="45.069278" lon="10.9321228"><ele>18.0</ele><time>2026-05-01T07:00:53.749Z</time></trkpt><trkpt lat="45.0693957" lon="10.9321592"><ele>18.0</ele><time>2026-05-01T07:00:56.757Z</time></trkpt><trkpt lat="45.0694715" lon="10.9321806"><ele>18.0</ele><time>2026-05-01T07:00:57.747Z</time></trkpt><trkpt lat="45.0695588" lon="10.9322032"><ele>18.0</ele><time>2026-05-01T07:00:58.747Z</time></trkpt><trkpt lat="45.0696551" lon="10.9322257"><ele>18.0</ele><time>2026-05-01T07:00:59.75Z</time></trkpt><trkpt lat="45.0697538" lon="10.9322434"><ele>18.0</ele><time>2026-05-01T07:01:00.755Z</time></trkpt><trkpt lat="45.0698543" lon="10.9322539"><ele>18.0</ele><time>2026-05-01T07:01:01.749Z</time></trkpt><trkpt lat="45.0699526" lon="10.9322563"><ele>18.0</ele><time>2026-05-01T07:01:02.751Z</time></trkpt><trkpt lat="45.0700467" lon="10.9322556"><ele>18.0</ele><time>2026-05-01T07:01:03.748Z</time></trkpt><trkpt lat="45.0701356" lon="10.9322533"><ele>18.2</ele><time>2026-05-01T07:01:04.748Z</time></trkpt><trkpt lat="45.0702166" lon="10.9322529"><ele>18.4</ele><time>2026-05-01T07:01:05.755Z</time></trkpt><trkpt lat="45.0702862" lon="10.9322588"><ele>18.599999999999998</ele><time>2026-05-01T07:01:06.759Z</time></trkpt><trkpt lat="45.0703917" lon="10.9323237"><ele>18.8</ele><time>2026-05-01T07:01:08.75Z</time></trkpt><trkpt lat="45.0704405" lon="10.9324799"><ele>19.0</ele><time>2026-05-01T07:01:10.751Z</time></trkpt><trkpt lat="45.0704435" lon="10.9325916"><ele>19.0</ele><time>2026-05-01T07:01:11.752Z</time></trkpt><trkpt lat="45.0704264" lon="10.9327176"><ele>19.0</ele><time>2026-05-01T07:01:12.754Z</time></trkpt><trkpt lat="45.0704056" lon="10.9328566"><ele>19.0</ele><time>2026-05-01T07:01:13.749Z</time></trkpt><trkpt lat="45.0703704" lon="10.9330193"><ele>19.0</ele><time>2026-05-01T07:01:14.756Z</time></trkpt><trkpt lat="45.070331" lon="10.9331939"><ele>19.0</ele><time>2026-05-01T07:01:15.748Z</time></trkpt><trkpt lat="45.0702916" lon="10.9333751"><ele>19.0</ele><time>2026-05-01T07:01:16.751Z</time></trkpt><trkpt lat="45.070257" lon="10.9335613"><ele>19.0</ele><time>2026-05-01T07:01:17.742Z</time></trkpt><trkpt lat="45.070223" lon="10.9337505"><ele>19.0</ele><time>2026-05-01T07:01:18.744Z</time></trkpt><trkpt lat="45.0701918" lon="10.9339436"><ele>19.0</ele><time>2026-05-01T07:01:19.753Z</time></trkpt><trkpt lat="45.0701574" lon="10.934139"><ele>19.333333333333332</ele><time>2026-05-01T07:01:20.751Z</time></trkpt><trkpt lat="45.0701153" lon="10.934339"><ele>19.666666666666668</ele><time>2026-05-01T07:01:21.751Z</time></trkpt><trkpt lat="45.0700645" lon="10.9345455"><ele>20.0</ele><time>2026-05-01T07:01:22.749Z</time></trkpt><trkpt lat="45.0700079" lon="10.9347566"><ele>20.0</ele><time>2026-05-01T07:01:23.751Z</time></trkpt><trkpt lat="45.0699505" lon="10.9349717"><ele>20.0</ele><time>2026-05-01T07:01:24.75Z</time></trkpt><trkpt lat="45.0698906" lon="10.9351945"><ele>20.0</ele><time>2026-05-01T07:01:25.747Z</time></trkpt><trkpt lat="45.0698317" lon="10.935425"><ele>18.666666666666668</ele><time>2026-05-01T07:01:26.75Z</time></trkpt><trkpt lat="45.0697783" lon="10.9356567"><ele>17.333333333333332</ele><time>2026-05-01T07:01:27.743Z</time></trkpt><trkpt lat="45.0697233" lon="10.9358933"><ele>16.0</ele><time>2026-05-01T07:01:28.75Z</time></trkpt><trkpt lat="45.0696667" lon="10.9361317"><ele>16.0</ele><time>2026-05-01T07:01:29.749Z</time></trkpt><trkpt lat="45.0696083" lon="10.93637"><ele>16.0</ele><time>2026-05-01T07:01:30.749Z</time></trkpt><trkpt lat="45.0695533" lon="10.936605"><ele>16.0</ele><time>2026-05-01T07:01:31.744Z</time></trkpt><trkpt lat="45.0694933" lon="10.9368383"><ele>16.333333333333332</ele><time>2026-05-01T07:01:32.752Z</time></trkpt><trkpt lat="45.0694283" lon="10.9370667"><ele>16.666666666666668</ele><time>2026-05-01T07:01:33.752Z</time></trkpt><trkpt lat="45.0693567" lon="10.9372917"><ele>17.0</ele><time>2026-05-01T07:01:34.748Z</time></trkpt><trkpt lat="45.06928" lon="10.93751"><ele>17.333333333333336</ele><time>2026-05-01T07:01:35.742Z</time></trkpt><trkpt lat="45.0691967" lon="10.9377233"><ele>17.666666666666668</ele><time>2026-05-01T07:01:36.753Z</time></trkpt><trkpt lat="45.0691117" lon="10.9379317"><ele>18.0</ele><time>2026-05-01T07:01:37.751Z</time></trkpt><trkpt lat="45.0690333" lon="10.93814"><ele>17.666666666666668</ele><time>2026-05-01T07:01:38.743Z</time></trkpt><trkpt lat="45.06896" lon="10.93835"><ele>17.333333333333336</ele><time>2026-05-01T07:01:39.752Z</time></trkpt><trkpt lat="45.0688967" lon="10.9385683"><ele>17.0</ele><time>2026-05-01T07:01:40.749Z</time></trkpt><trkpt lat="45.0688433" lon="10.9387933"><ele>17.0</ele><time>2026-05-01T07:01:41.748Z</time></trkpt><trkpt lat="45.06879" lon="10.9390217"><ele>17.0</ele><time>2026-05-01T07:01:42.751Z</time></trkpt><trkpt lat="45.0687383" lon="10.9392533"><ele>17.0</ele><time>2026-05-01T07:01:43.745Z</time></trkpt><trkpt lat="45.068685" lon="10.9394833"><ele>17.0</ele><time>2026-05-01T07:01:44.754Z</time></trkpt><trkpt lat="45.06863" lon="10.939715"><ele>17.0</ele><time>2026-05-01T07:01:45.75Z</time></trkpt><trkpt lat="45.068575" lon="10.939945"><ele>17.0</ele><time>2026-05-01T07:01:46.743Z</time></trkpt><trkpt lat="45.0685167" lon="10.940175"><ele>16.333333333333336</ele><time>2026-05-01T07:01:47.752Z</time></trkpt><trkpt lat="45.0684617" lon="10.9404067"><ele>15.666666666666668</ele><time>2026-05-01T07:01:48.741Z</time></trkpt><trkpt lat="45.0684017" lon="10.94064"><ele>15.0</ele><time>2026-05-01T07:01:49.751Z</time></trkpt><trkpt lat="45.0683367" lon="10.9408717"><ele>14.666666666666668</ele><time>2026-05-01T07:01:50.753Z</time></trkpt><trkpt lat="45.0682667" lon="10.9411017"><ele>14.333333333333334</ele><time>2026-05-01T07:01:51.741Z</time></trkpt><trkpt lat="45.068185" lon="10.9413267"><ele>14.0</ele><time>2026-05-01T07:01:52.748Z</time></trkpt><trkpt lat="45.0680933" lon="10.9415433"><ele>15.0</ele><time>2026-05-01T07:01:53.747Z</time></trkpt><trkpt lat="45.0679967" lon="10.9417583"><ele>16.0</ele><time>2026-05-01T07:01:54.749Z</time></trkpt><trkpt lat="45.0678917" lon="10.9419733"><ele>17.0</ele><time>2026-05-01T07:01:55.75Z</time></trkpt><trkpt lat="45.0677817" lon="10.942185"><ele>17.0</ele><time>2026-05-01T07:01:56.754Z</time></trkpt><trkpt lat="45.06767" lon="10.942395"><ele>17.0</ele><time>2026-05-01T07:01:57.753Z</time></trkpt><trkpt lat="45.0675567" lon="10.9426033"><ele>17.0</ele><time>2026-05-01T07:01:58.748Z</time></trkpt><trkpt lat="45.0674433" lon="10.942815"><ele>17.0</ele><time>2026-05-01T07:01:59.75Z</time></trkpt><trkpt lat="45.0673333" lon="10.9430283"><ele>17.0</ele><time>2026-05-01T07:02:00.742Z</time></trkpt><trkpt lat="45.0671283" lon="10.94347"><ele>17.333333333333336</ele><time>2026-05-01T07:02:02.743Z</time></trkpt><trkpt lat="45.067035" lon="10.943695"><ele>17.666666666666668</ele><time>2026-05-01T07:02:03.747Z</time></trkpt><trkpt lat="45.066945" lon="10.9439233"><ele>18.0</ele><time>2026-05-01T07:02:04.749Z</time></trkpt><trkpt lat="45.0668633" lon="10.944155"><ele>17.0</ele><time>2026-05-01T07:02:05.752Z</time></trkpt><trkpt lat="45.0667867" lon="10.9443883"><ele>16.0</ele><time>2026-05-01T07:02:06.754Z</time></trkpt><trkpt lat="45.0667167" lon="10.9446267"><ele>15.0</ele><time>2026-05-01T07:02:07.742Z</time></trkpt><trkpt lat="45.066645" lon="10.9448633"><ele>15.666666666666668</ele><time>2026-05-01T07:02:08.746Z</time></trkpt><trkpt lat="45.066565" lon="10.9450933"><ele>16.333333333333336</ele><time>2026-05-01T07:02:09.745Z</time></trkpt><trkpt lat="45.0664733" lon="10.945315"><ele>17.0</ele><time>2026-05-01T07:02:10.751Z</time></trkpt><trkpt lat="45.06637" lon="10.9455283"><ele>17.0</ele><time>2026-05-01T07:02:11.75Z</time></trkpt><trkpt lat="45.066255" lon="10.945735"><ele>17.0</ele><time>2026-05-01T07:02:12.753Z</time></trkpt><trkpt lat="45.066135" lon="10.9459417"><ele>17.0</ele><time>2026-05-01T07:02:13.752Z</time></trkpt><trkpt lat="45.0660133" lon="10.9461533"><ele>17.0</ele><time>2026-05-01T07:02:14.751Z</time></trkpt><trkpt lat="45.06589" lon="10.9463683"><ele>17.0</ele><time>2026-05-01T07:02:15.75Z</time></trkpt><trkpt lat="45.0657683" lon="10.9465817"><ele>17.0</ele><time>2026-05-01T07:02:16.748Z</time></trkpt><trkpt lat="45.0656467" lon="10.9467933"><ele>17.333333333333336</ele><time>2026-05-01T07:02:17.749Z</time></trkpt><trkpt lat="45.0655267" lon="10.947005"><ele>17.666666666666668</ele><time>2026-05-01T07:02:18.75Z</time></trkpt><trkpt lat="45.06541" lon="10.9472167"><ele>18.0</ele><time>2026-05-01T07:02:19.751Z</time></trkpt><trkpt lat="45.0653" lon="10.9474333"><ele>18.0</ele><time>2026-05-01T07:02:20.752Z</time></trkpt><trkpt lat="45.065195" lon="10.9476567"><ele>18.0</ele><time>2026-05-01T07:02:21.751Z</time></trkpt><trkpt lat="45.0650967" lon="10.9478883"><ele>18.0</ele><time>2026-05-01T07:02:22.748Z</time></trkpt><trkpt lat="45.065005" lon="10.948125"><ele>17.666666666666668</ele><time>2026-05-01T07:02:23.75Z</time></trkpt><trkpt lat="45.064915" lon="10.948365"><ele>17.333333333333336</ele><time>2026-05-01T07:02:24.754Z</time></trkpt><trkpt lat="45.06483" lon="10.9486033"><ele>17.0</ele><time>2026-05-01T07:02:25.749Z</time></trkpt><trkpt lat="45.06475" lon="10.9488433"><ele>17.0</ele><time>2026-05-01T07:02:26.744Z</time></trkpt><trkpt lat="45.0646717" lon="10.9490817"><ele>17.0</ele><time>2026-05-01T07:02:27.75Z</time></trkpt><trkpt lat="45.0645933" lon="10.949315"><ele>17.0</ele><time>2026-05-01T07:02:28.748Z</time></trkpt><trkpt lat="45.06452" lon="10.9495367"><ele>16.666666666666668</ele><time>2026-05-01T07:02:29.746Z</time></trkpt><trkpt lat="45.06445" lon="10.94975"><ele>16.333333333333332</ele><time>2026-05-01T07:02:30.749Z</time></trkpt><trkpt lat="45.0643817" lon="10.9499517"><ele>16.0</ele><time>2026-05-01T07:02:31.749Z</time></trkpt><trkpt lat="45.064305" lon="10.9501467"><ele>16.0</ele><time>2026-05-01T07:02:32.748Z</time></trkpt><trkpt lat="45.0642183" lon="10.950325"><ele>16.0</ele><time>2026-05-01T07:02:33.75Z</time></trkpt><trkpt lat="45.0641117" lon="10.9504717"><ele>16.0</ele><time>2026-05-01T07:02:34.743Z</time></trkpt><trkpt lat="45.06399" lon="10.9505917"><ele>16.333333333333332</ele><time>2026-05-01T07:02:35.743Z</time></trkpt><trkpt lat="45.0638567" lon="10.95069"><ele>16.666666666666668</ele><time>2026-05-01T07:02:36.75Z</time></trkpt><trkpt lat="45.0637133" lon="10.9507783"><ele>17.0</ele><time>2026-05-01T07:02:37.75Z</time></trkpt><trkpt lat="45.0635617" lon="10.950865"><ele>17.0</ele><time>2026-05-01T07:02:38.752Z</time></trkpt><trkpt lat="45.0634067" lon="10.950955"><ele>17.0</ele><time>2026-05-01T07:02:39.751Z</time></trkpt><trkpt lat="45.0632483" lon="10.9510417"><ele>17.0</ele><time>2026-05-01T07:02:40.748Z</time></trkpt><trkpt lat="45.0630867" lon="10.9511317"><ele>16.666666666666668</ele><time>2026-05-01T07:02:41.748Z</time></trkpt><trkpt lat="45.062925" lon="10.951225"><ele>16.333333333333332</ele><time>2026-05-01T07:02:42.75Z</time></trkpt><trkpt lat="45.0627617" lon="10.9513167"><ele>16.0</ele><time>2026-05-01T07:02:43.748Z</time></trkpt><trkpt lat="45.0626033" lon="10.9514067"><ele>15.666666666666666</ele><time>2026-05-01T07:02:44.751Z</time></trkpt><trkpt lat="45.062445" lon="10.951495"><ele>15.333333333333332</ele><time>2026-05-01T07:02:45.741Z</time></trkpt><trkpt lat="45.062295" lon="10.951585"><ele>15.0</ele><time>2026-05-01T07:02:46.745Z</time></trkpt><trkpt lat="45.0621567" lon="10.9516783"><ele>15.25</ele><time>2026-05-01T07:02:47.75Z</time></trkpt><trkpt lat="45.0620333" lon="10.951785"><ele>15.5</ele><time>2026-05-01T07:02:48.746Z</time></trkpt><trkpt lat="45.0619233" lon="10.9519083"><ele>15.75</ele><time>2026-05-01T07:02:49.741Z</time></trkpt><trkpt lat="45.0618283" lon="10.9520583"><ele>16.0</ele><time>2026-05-01T07:02:50.752Z</time></trkpt><trkpt lat="45.061755" lon="10.9522317"><ele>16.0</ele><time>2026-05-01T07:02:51.747Z</time></trkpt><trkpt lat="45.0617017" lon="10.9524233"><ele>16.0</ele><time>2026-05-01T07:02:52.75Z</time></trkpt><trkpt lat="45.06167" lon="10.9526317"><ele>16.0</ele><time>2026-05-01T07:02:53.747Z</time></trkpt><trkpt lat="45.0616567" lon="10.95285"><ele>15.666666666666666</ele><time>2026-05-01T07:02:54.749Z</time></trkpt><trkpt lat="45.061655" lon="10.9530717"><ele>15.333333333333332</ele><time>2026-05-01T07:02:55.742Z</time></trkpt><trkpt lat="45.06167" lon="10.9532917"><ele>15.0</ele><time>2026-05-01T07:02:56.752Z</time></trkpt><trkpt lat="45.0617033" lon="10.9534933"><ele>14.75</ele><time>2026-05-01T07:02:57.746Z</time></trkpt><trkpt lat="45.0617617" lon="10.95367"><ele>14.5</ele><time>2026-05-01T07:02:58.748Z</time></trkpt><trkpt lat="45.0618433" lon="10.953825"><ele>14.25</ele><time>2026-05-01T07:02:59.741Z</time></trkpt><trkpt lat="45.0619483" lon="10.95396"><ele>14.0</ele><time>2026-05-01T07:03:00.751Z</time></trkpt><trkpt lat="45.0620717" lon="10.954075"><ele>14.0</ele><time>2026-05-01T07:03:01.752Z</time></trkpt><trkpt lat="45.06221" lon="10.9541733"><ele>14.0</ele><time>2026-05-01T07:03:02.752Z</time></trkpt><trkpt lat="45.0623567" lon="10.9542633"><ele>14.0</ele><time>2026-05-01T07:03:03.747Z</time></trkpt><trkpt lat="45.0625083" lon="10.9543483"><ele>13.666666666666668</ele><time>2026-05-01T07:03:04.754Z</time></trkpt><trkpt lat="45.06266" lon="10.9544367"><ele>13.333333333333332</ele><time>2026-05-01T07:03:05.744Z</time></trkpt><trkpt lat="45.06281" lon="10.9545217"><ele>13.0</ele><time>2026-05-01T07:03:06.742Z</time></trkpt><trkpt lat="45.0629583" lon="10.9546067"><ele>13.0</ele><time>2026-05-01T07:03:07.749Z</time></trkpt><trkpt lat="45.0630983" lon="10.9546917"><ele>13.0</ele><time>2026-05-01T07:03:08.755Z</time></trkpt><trkpt lat="45.063235" lon="10.95479"><ele>13.0</ele><time>2026-05-01T07:03:09.744Z</time></trkpt><trkpt lat="45.0633667" lon="10.954905"><ele>13.666666666666666</ele><time>2026-05-01T07:03:10.75Z</time></trkpt><trkpt lat="45.06349" lon="10.9550383"><ele>14.333333333333332</ele><time>2026-05-01T07:03:11.745Z</time></trkpt><trkpt lat="45.0636017" lon="10.95519"><ele>15.0</ele><time>2026-05-01T07:03:12.749Z</time></trkpt><trkpt lat="45.06371" lon="10.95535"><ele>15.0</ele><time>2026-05-01T07:03:13.75Z</time></trkpt><trkpt lat="45.0638067" lon="10.9555217"><ele>15.0</ele><time>2026-05-01T07:03:14.745Z</time></trkpt><trkpt lat="45.06389" lon="10.95571"><ele>15.0</ele><time>2026-05-01T07:03:15.752Z</time></trkpt><trkpt lat="45.0639617" lon="10.955915"><ele>14.666666666666668</ele><time>2026-05-01T07:03:16.749Z</time></trkpt><trkpt lat="45.06402" lon="10.9561383"><ele>14.333333333333334</ele><time>2026-05-01T07:03:17.749Z</time></trkpt><trkpt lat="45.0640667" lon="10.9563733"><ele>14.0</ele><time>2026-05-01T07:03:18.746Z</time></trkpt><trkpt lat="45.0641067" lon="10.9566133"><ele>14.333333333333334</ele><time>2026-05-01T07:03:19.749Z</time></trkpt><trkpt lat="45.0641467" lon="10.95686"><ele>14.666666666666668</ele><time>2026-05-01T07:03:20.754Z</time></trkpt><trkpt lat="45.0641833" lon="10.95711"><ele>15.0</ele><time>2026-05-01T07:03:21.742Z</time></trkpt><trkpt lat="45.0642233" lon="10.9573633"><ele>15.0</ele><time>2026-05-01T07:03:22.752Z</time></trkpt><trkpt lat="45.064265" lon="10.9576217"><ele>15.0</ele><time>2026-05-01T07:03:23.749Z</time></trkpt><trkpt lat="45.0643083" lon="10.9578817"><ele>15.0</ele><time>2026-05-01T07:03:24.75Z</time></trkpt><trkpt lat="45.0643517" lon="10.9581467"><ele>15.0</ele><time>2026-05-01T07:03:25.748Z</time></trkpt><trkpt lat="45.064395" lon="10.9584117"><ele>15.0</ele><time>2026-05-01T07:03:26.749Z</time></trkpt><trkpt lat="45.0644383" lon="10.95868"><ele>15.0</ele><time>2026-05-01T07:03:27.754Z</time></trkpt><trkpt lat="45.0644833" lon="10.95895"><ele>15.0</ele><time>2026-05-01T07:03:28.742Z</time></trkpt><trkpt lat="45.0645283" lon="10.95922"><ele>15.0</ele><time>2026-05-01T07:03:29.755Z</time></trkpt><trkpt lat="45.0645733" lon="10.9594917"><ele>15.0</ele><time>2026-05-01T07:03:30.747Z</time></trkpt><trkpt lat="45.06462" lon="10.9597633"><ele>14.666666666666668</ele><time>2026-05-01T07:03:31.751Z</time></trkpt><trkpt lat="45.0646667" lon="10.9600383"><ele>14.333333333333334</ele><time>2026-05-01T07:03:32.753Z</time></trkpt><trkpt lat="45.06471" lon="10.9603117"><ele>14.0</ele><time>2026-05-01T07:03:33.757Z</time></trkpt><trkpt lat="45.0647533" lon="10.9605867"><ele>14.0</ele><time>2026-05-01T07:03:34.745Z</time></trkpt><trkpt lat="45.0647983" lon="10.9608617"><ele>14.0</ele><time>2026-05-01T07:03:35.75Z</time></trkpt><trkpt lat="45.0648417" lon="10.9611417"><ele>14.0</ele><time>2026-05-01T07:03:36.749Z</time></trkpt><trkpt lat="45.0648867" lon="10.96142"><ele>14.0</ele><time>2026-05-01T07:03:37.753Z</time></trkpt><trkpt lat="45.06493" lon="10.9616983"><ele>14.0</ele><time>2026-05-01T07:03:38.754Z</time></trkpt><trkpt lat="45.064975" lon="10.961975"><ele>14.0</ele><time>2026-05-01T07:03:39.753Z</time></trkpt><trkpt lat="45.06502" lon="10.9622533"><ele>14.0</ele><time>2026-05-01T07:03:40.748Z</time></trkpt><trkpt lat="45.065065" lon="10.9625317"><ele>14.0</ele><time>2026-05-01T07:03:41.751Z</time></trkpt><trkpt lat="45.06511" lon="10.96281"><ele>14.0</ele><time>2026-05-01T07:03:42.745Z</time></trkpt><trkpt lat="45.065155" lon="10.9630883"><ele>14.666666666666668</ele><time>2026-05-01T07:03:43.749Z</time></trkpt><trkpt lat="45.0652" lon="10.9633667"><ele>15.333333333333332</ele><time>2026-05-01T07:03:44.752Z</time></trkpt><trkpt lat="45.0652467" lon="10.963645"><ele>16.0</ele><time>2026-05-01T07:03:45.751Z</time></trkpt><trkpt lat="45.06529" lon="10.963925"><ele>15.333333333333332</ele><time>2026-05-01T07:03:46.748Z</time></trkpt><trkpt lat="45.065335" lon="10.9642033"><ele>14.666666666666668</ele><time>2026-05-01T07:03:47.752Z</time></trkpt><trkpt lat="45.0653817" lon="10.9644833"><ele>14.0</ele><time>2026-05-01T07:03:48.748Z</time></trkpt><trkpt lat="45.0654267" lon="10.964765"><ele>14.333333333333334</ele><time>2026-05-01T07:03:49.754Z</time></trkpt><trkpt lat="45.0654717" lon="10.9650467"><ele>14.666666666666668</ele><time>2026-05-01T07:03:50.753Z</time></trkpt><trkpt lat="45.065515" lon="10.9653283"><ele>15.0</ele><time>2026-05-01T07:03:51.759Z</time></trkpt><trkpt lat="45.06556" lon="10.96561"><ele>15.333333333333332</ele><time>2026-05-01T07:03:52.751Z</time></trkpt><trkpt lat="45.065605" lon="10.9658917"><ele>15.666666666666666</ele><time>2026-05-01T07:03:53.757Z</time></trkpt><trkpt lat="45.0656533" lon="10.9661717"><ele>16.0</ele><time>2026-05-01T07:03:54.75Z</time></trkpt><trkpt lat="45.0657" lon="10.9664517"><ele>16.0</ele><time>2026-05-01T07:03:55.752Z</time></trkpt><trkpt lat="45.065745" lon="10.9667283"><ele>16.0</ele><time>2026-05-01T07:03:56.751Z</time></trkpt><trkpt lat="45.06579" lon="10.967005"><ele>16.0</ele><time>2026-05-01T07:03:57.748Z</time></trkpt><trkpt lat="45.0658333" lon="10.9672817"><ele>15.666666666666666</ele><time>2026-05-01T07:03:58.747Z</time></trkpt><trkpt lat="45.0658783" lon="10.9675583"><ele>15.333333333333332</ele><time>2026-05-01T07:03:59.747Z</time></trkpt><trkpt lat="45.0659217" lon="10.9678367"><ele>15.0</ele><time>2026-05-01T07:04:00.751Z</time></trkpt><trkpt lat="45.0659667" lon="10.968115"><ele>14.666666666666668</ele><time>2026-05-01T07:04:01.75Z</time></trkpt><trkpt lat="45.0660117" lon="10.9683933"><ele>14.333333333333334</ele><time>2026-05-01T07:04:02.746Z</time></trkpt><trkpt lat="45.0660583" lon="10.9686683"><ele>14.0</ele><time>2026-05-01T07:04:03.75Z</time></trkpt><trkpt lat="45.066105" lon="10.968945"><ele>14.333333333333334</ele><time>2026-05-01T07:04:04.749Z</time></trkpt><trkpt lat="45.06615" lon="10.9692233"><ele>14.666666666666668</ele><time>2026-05-01T07:04:05.75Z</time></trkpt><trkpt lat="45.0661967" lon="10.9694967"><ele>15.0</ele><time>2026-05-01T07:04:06.751Z</time></trkpt><trkpt lat="45.06624" lon="10.969765"><ele>14.666666666666668</ele><time>2026-05-01T07:04:07.744Z</time></trkpt><trkpt lat="45.0662767" lon="10.97003"><ele>14.333333333333334</ele><time>2026-05-01T07:04:08.75Z</time></trkpt><trkpt lat="45.066305" lon="10.9703"><ele>14.0</ele><time>2026-05-01T07:04:09.749Z</time></trkpt><trkpt lat="45.0663233" lon="10.97057"><ele>14.0</ele><time>2026-05-01T07:04:10.744Z</time></trkpt><trkpt lat="45.066335" lon="10.9708417"><ele>14.0</ele><time>2026-05-01T07:04:11.75Z</time></trkpt><trkpt lat="45.06635" lon="10.971115"><ele>14.0</ele><time>2026-05-01T07:04:12.752Z</time></trkpt><trkpt lat="45.0663783" lon="10.9713883"><ele>13.666666666666668</ele><time>2026-05-01T07:04:13.748Z</time></trkpt><trkpt lat="45.0664217" lon="10.9716583"><ele>13.333333333333332</ele><time>2026-05-01T07:04:14.753Z</time></trkpt><trkpt lat="45.066475" lon="10.9719283"><ele>13.0</ele><time>2026-05-01T07:04:15.742Z</time></trkpt><trkpt lat="45.0665383" lon="10.9721967"><ele>13.0</ele><time>2026-05-01T07:04:16.746Z</time></trkpt><trkpt lat="45.066605" lon="10.972465"><ele>13.0</ele><time>2026-05-01T07:04:17.743Z</time></trkpt><trkpt lat="45.0666733" lon="10.972735"><ele>13.0</ele><time>2026-05-01T07:04:18.754Z</time></trkpt><trkpt lat="45.0667317" lon="10.9730083"><ele>13.333333333333332</ele><time>2026-05-01T07:04:19.754Z</time></trkpt><trkpt lat="45.066785" lon="10.9732833"><ele>13.666666666666668</ele><time>2026-05-01T07:04:20.752Z</time></trkpt><trkpt lat="45.0668333" lon="10.9735633"><ele>14.0</ele><time>2026-05-01T07:04:21.754Z</time></trkpt><trkpt lat="45.0668767" lon="10.9738433"><ele>14.0</ele><time>2026-05-01T07:04:22.749Z</time></trkpt><trkpt lat="45.066915" lon="10.974125"><ele>14.0</ele><time>2026-05-01T07:04:23.75Z</time></trkpt><trkpt lat="45.0669533" lon="10.9744067"><ele>14.0</ele><time>2026-05-01T07:04:24.748Z</time></trkpt><trkpt lat="45.0669933" lon="10.97469"><ele>14.0</ele><time>2026-05-01T07:04:25.752Z</time></trkpt><trkpt lat="45.0670317" lon="10.9749683"><ele>14.0</ele><time>2026-05-01T07:04:26.75Z</time></trkpt><trkpt lat="45.06707" lon="10.975245"><ele>14.0</ele><time>2026-05-01T07:04:27.742Z</time></trkpt><trkpt lat="45.0671083" lon="10.9755133"><ele>14.0</ele><time>2026-05-01T07:04:28.749Z</time></trkpt><trkpt lat="45.0671433" lon="10.975775"><ele>14.0</ele><time>2026-05-01T07:04:29.742Z</time></trkpt><trkpt lat="45.0671733" lon="10.97603"><ele>14.0</ele><time>2026-05-01T07:04:30.742Z</time></trkpt><trkpt lat="45.067195" lon="10.9762733"><ele>14.666666666666668</ele><time>2026-05-01T07:04:31.744Z</time></trkpt><trkpt lat="45.0672083" lon="10.9765083"><ele>15.333333333333332</ele><time>2026-05-01T07:04:32.742Z</time></trkpt><trkpt lat="45.0672083" lon="10.976735"><ele>16.0</ele><time>2026-05-01T07:04:33.744Z</time></trkpt><trkpt lat="45.0671883" lon="10.97695"><ele>16.25</ele><time>2026-05-01T07:04:34.742Z</time></trkpt><trkpt lat="45.0671517" lon="10.9771517"><ele>16.5</ele><time>2026-05-01T07:04:35.748Z</time></trkpt><trkpt lat="45.0670967" lon="10.97734"><ele>16.75</ele><time>2026-05-01T07:04:36.742Z</time></trkpt><trkpt lat="45.0670317" lon="10.9775217"><ele>17.0</ele><time>2026-05-01T07:04:37.746Z</time></trkpt><trkpt lat="45.06697" lon="10.9777133"><ele>17.0</ele><time>2026-05-01T07:04:38.743Z</time></trkpt><trkpt lat="45.0669083" lon="10.97791"><ele>17.0</ele><time>2026-05-01T07:04:39.75Z</time></trkpt><trkpt lat="45.0668467" lon="10.9781083"><ele>17.0</ele><time>2026-05-01T07:04:40.744Z</time></trkpt><trkpt lat="45.06678" lon="10.9783"><ele>17.0</ele><time>2026-05-01T07:04:41.747Z</time></trkpt><trkpt lat="45.0667067" lon="10.97848"><ele>17.0</ele><time>2026-05-01T07:04:42.743Z</time></trkpt><trkpt lat="45.06662" lon="10.978645"><ele>17.0</ele><time>2026-05-01T07:04:43.742Z</time></trkpt><trkpt lat="45.0665233" lon="10.9787883"><ele>17.0</ele><time>2026-05-01T07:04:44.745Z</time></trkpt><trkpt lat="45.0664233" lon="10.9789117"><ele>17.0</ele><time>2026-05-01T07:04:45.743Z</time></trkpt><trkpt lat="45.06633" lon="10.9790183"><ele>17.0</ele><time>2026-05-01T07:04:46.744Z</time></trkpt><trkpt lat="45.06625" lon="10.9791133"><ele>17.0</ele><time>2026-05-01T07:04:47.743Z</time></trkpt><trkpt lat="45.06617" lon="10.9792033"><ele>17.0</ele><time>2026-05-01T07:04:48.744Z</time></trkpt><trkpt lat="45.0660867" lon="10.979295"><ele>17.0</ele><time>2026-05-01T07:04:49.743Z</time></trkpt><trkpt lat="45.066005" lon="10.979395"><ele>17.0</ele><time>2026-05-01T07:04:50.752Z</time></trkpt><trkpt lat="45.06592" lon="10.9795"><ele>17.0</ele><time>2026-05-01T07:04:51.755Z</time></trkpt><trkpt lat="45.065835" lon="10.9796133"><ele>17.0</ele><time>2026-05-01T07:04:52.744Z</time></trkpt><trkpt lat="45.0657517" lon="10.9797367"><ele>17.0</ele><time>2026-05-01T07:04:53.747Z</time></trkpt><trkpt lat="45.06567" lon="10.979875"><ele>17.0</ele><time>2026-05-01T07:04:54.741Z</time></trkpt><trkpt lat="45.0655883" lon="10.9800217"><ele>17.0</ele><time>2026-05-01T07:04:55.758Z</time></trkpt><trkpt lat="45.0655083" lon="10.98017"><ele>17.0</ele><time>2026-05-01T07:04:56.745Z</time></trkpt><trkpt lat="45.06543" lon="10.980315"><ele>17.0</ele><time>2026-05-01T07:04:57.75Z</time></trkpt><trkpt lat="45.0653517" lon="10.9804483"><ele>17.0</ele><time>2026-05-01T07:04:58.751Z</time></trkpt><trkpt lat="45.06528" lon="10.9805733"><ele>17.0</ele><time>2026-05-01T07:04:59.747Z</time></trkpt><trkpt lat="45.0652083" lon="10.9806883"><ele>17.0</ele><time>2026-05-01T07:05:00.747Z</time></trkpt><trkpt lat="45.0651283" lon="10.9808017"><ele>17.0</ele><time>2026-05-01T07:05:01.749Z</time></trkpt><trkpt lat="45.06504" lon="10.980915"><ele>16.75</ele><time>2026-05-01T07:05:02.75Z</time></trkpt><trkpt lat="45.06494" lon="10.9810283"><ele>16.5</ele><time>2026-05-01T07:05:03.752Z</time></trkpt><trkpt lat="45.0648333" lon="10.981145"><ele>16.25</ele><time>2026-05-01T07:05:04.748Z</time></trkpt><trkpt lat="45.0647267" lon="10.9812633"><ele>16.0</ele><time>2026-05-01T07:05:05.743Z</time></trkpt><trkpt lat="45.064615" lon="10.9813883"><ele>16.0</ele><time>2026-05-01T07:05:06.748Z</time></trkpt><trkpt lat="45.0645033" lon="10.9815217"><ele>16.0</ele><time>2026-05-01T07:05:07.749Z</time></trkpt><trkpt lat="45.06439" lon="10.9816617"><ele>16.0</ele><time>2026-05-01T07:05:08.75Z</time></trkpt><trkpt lat="45.06428" lon="10.9818117"><ele>16.0</ele><time>2026-05-01T07:05:09.749Z</time></trkpt><trkpt lat="45.0641717" lon="10.9819667"><ele>16.0</ele><time>2026-05-01T07:05:10.753Z</time></trkpt><trkpt lat="45.064065" lon="10.9821233"><ele>16.0</ele><time>2026-05-01T07:05:11.748Z</time></trkpt><trkpt lat="45.0639583" lon="10.9822817"><ele>16.0</ele><time>2026-05-01T07:05:12.747Z</time></trkpt><trkpt lat="45.0638567" lon="10.9824467"><ele>16.333333333333332</ele><time>2026-05-01T07:05:13.743Z</time></trkpt><trkpt lat="45.0637583" lon="10.9826167"><ele>16.666666666666668</ele><time>2026-05-01T07:05:14.748Z</time></trkpt><trkpt lat="45.0636617" lon="10.9827867"><ele>17.0</ele><time>2026-05-01T07:05:15.748Z</time></trkpt><trkpt lat="45.063565" lon="10.9829583"><ele>17.0</ele><time>2026-05-01T07:05:16.753Z</time></trkpt><trkpt lat="45.063465" lon="10.9831267"><ele>17.0</ele><time>2026-05-01T07:05:17.754Z</time></trkpt><trkpt lat="45.0633717" lon="10.983285"><ele>17.0</ele><time>2026-05-01T07:05:18.747Z</time></trkpt><trkpt lat="45.0632817" lon="10.9834283"><ele>17.0</ele><time>2026-05-01T07:05:19.751Z</time></trkpt><trkpt lat="45.0631967" lon="10.9835583"><ele>16.75</ele><time>2026-05-01T07:05:20.748Z</time></trkpt><trkpt lat="45.0631133" lon="10.9836817"><ele>16.5</ele><time>2026-05-01T07:05:21.745Z</time></trkpt><trkpt lat="45.0630267" lon="10.9838033"><ele>16.25</ele><time>2026-05-01T07:05:22.749Z</time></trkpt><trkpt lat="45.0629383" lon="10.9839367"><ele>16.0</ele><time>2026-05-01T07:05:23.753Z</time></trkpt><trkpt lat="45.0628483" lon="10.9840717"><ele>16.25</ele><time>2026-05-01T07:05:24.743Z</time></trkpt><trkpt lat="45.0627617" lon="10.984215"><ele>16.5</ele><time>2026-05-01T07:05:25.741Z</time></trkpt><trkpt lat="45.0626767" lon="10.9843583"><ele>16.75</ele><time>2026-05-01T07:05:26.753Z</time></trkpt><trkpt lat="45.0625933" lon="10.9845017"><ele>17.0</ele><time>2026-05-01T07:05:27.75Z</time></trkpt><trkpt lat="45.0625217" lon="10.98465"><ele>17.0</ele><time>2026-05-01T07:05:28.75Z</time></trkpt><trkpt lat="45.062465" lon="10.9848083"><ele>17.0</ele><time>2026-05-01T07:05:29.748Z</time></trkpt><trkpt lat="45.0624233" lon="10.984975"><ele>17.0</ele><time>2026-05-01T07:05:30.749Z</time></trkpt><trkpt lat="45.062395" lon="10.9851567"><ele>17.0</ele><time>2026-05-01T07:05:31.75Z</time></trkpt><trkpt lat="45.0623633" lon="10.9853467"><ele>16.5</ele><time>2026-05-01T07:05:32.749Z</time></trkpt><trkpt lat="45.0623183" lon="10.985535"><ele>16.0</ele><time>2026-05-01T07:05:33.75Z</time></trkpt><trkpt lat="45.0622567" lon="10.9857183"><ele>15.5</ele><time>2026-05-01T07:05:34.75Z</time></trkpt><trkpt lat="45.0621833" lon="10.9858983"><ele>15.0</ele><time>2026-05-01T07:05:35.741Z</time></trkpt><trkpt lat="45.0621033" lon="10.9860767"><ele>15.0</ele><time>2026-05-01T07:05:36.749Z</time></trkpt><trkpt lat="45.0620283" lon="10.9862517"><ele>15.0</ele><time>2026-05-01T07:05:37.747Z</time></trkpt><trkpt lat="45.061955" lon="10.98642"><ele>15.0</ele><time>2026-05-01T07:05:38.743Z</time></trkpt><trkpt lat="45.061885" lon="10.98658"><ele>15.0</ele><time>2026-05-01T07:05:39.749Z</time></trkpt><trkpt lat="45.0618183" lon="10.9867317"><ele>14.75</ele><time>2026-05-01T07:05:40.748Z</time></trkpt><trkpt lat="45.0617533" lon="10.98688"><ele>14.5</ele><time>2026-05-01T07:05:41.741Z</time></trkpt><trkpt lat="45.0616867" lon="10.987035"><ele>14.25</ele><time>2026-05-01T07:05:42.749Z</time></trkpt><trkpt lat="45.0616167" lon="10.9872033"><ele>14.0</ele><time>2026-05-01T07:05:43.752Z</time></trkpt><trkpt lat="45.0615467" lon="10.9873833"><ele>14.0</ele><time>2026-05-01T07:05:44.753Z</time></trkpt><trkpt lat="45.0614767" lon="10.9875733"><ele>14.0</ele><time>2026-05-01T07:05:45.747Z</time></trkpt><trkpt lat="45.0614067" lon="10.9877717"><ele>14.0</ele><time>2026-05-01T07:05:46.745Z</time></trkpt><trkpt lat="45.0613383" lon="10.9879767"><ele>14.0</ele><time>2026-05-01T07:05:47.742Z</time></trkpt><trkpt lat="45.0612733" lon="10.988185"><ele>14.0</ele><time>2026-05-01T07:05:48.742Z</time></trkpt><trkpt lat="45.06121" lon="10.98839"><ele>14.0</ele><time>2026-05-01T07:05:49.748Z</time></trkpt><trkpt lat="45.0611467" lon="10.9885833"><ele>14.5</ele><time>2026-05-01T07:05:50.742Z</time></trkpt><trkpt lat="45.0610817" lon="10.98876"><ele>15.0</ele><time>2026-05-01T07:05:51.747Z</time></trkpt><trkpt lat="45.0610083" lon="10.988915"><ele>15.5</ele><time>2026-05-01T07:05:52.747Z</time></trkpt><trkpt lat="45.0609267" lon="10.9890483"><ele>16.0</ele><time>2026-05-01T07:05:53.748Z</time></trkpt><trkpt lat="45.0608283" lon="10.9891483"><ele>16.0</ele><time>2026-05-01T07:05:54.749Z</time></trkpt><trkpt lat="45.0607117" lon="10.9892167"><ele>16.0</ele><time>2026-05-01T07:05:55.756Z</time></trkpt><trkpt lat="45.0605783" lon="10.9892583"><ele>16.0</ele><time>2026-05-01T07:05:56.743Z</time></trkpt><trkpt lat="45.06043" lon="10.989285"><ele>16.0</ele><time>2026-05-01T07:05:57.748Z</time></trkpt><trkpt lat="45.0602783" lon="10.9893083"><ele>16.0</ele><time>2026-05-01T07:05:58.749Z</time></trkpt><trkpt lat="45.060125" lon="10.9893317"><ele>16.0</ele><time>2026-05-01T07:05:59.748Z</time></trkpt><trkpt lat="45.059975" lon="10.9893533"><ele>16.0</ele><time>2026-05-01T07:06:00.741Z</time></trkpt><trkpt lat="45.0598317" lon="10.9893733"><ele>16.0</ele><time>2026-05-01T07:06:01.763Z</time></trkpt><trkpt lat="45.0596967" lon="10.989405"><ele>16.5</ele><time>2026-05-01T07:06:02.752Z</time></trkpt><trkpt lat="45.05957" lon="10.989455"><ele>17.0</ele><time>2026-05-01T07:06:03.75Z</time></trkpt><trkpt lat="45.0594517" lon="10.9895167"><ele>17.5</ele><time>2026-05-01T07:06:04.743Z</time></trkpt><trkpt lat="45.05934" lon="10.9895767"><ele>18.0</ele><time>2026-05-01T07:06:05.748Z</time></trkpt><trkpt lat="45.059235" lon="10.9896133"><ele>18.0</ele><time>2026-05-01T07:06:06.743Z</time></trkpt><trkpt lat="45.05913" lon="10.9896217"><ele>18.0</ele><time>2026-05-01T07:06:07.747Z</time></trkpt><trkpt lat="45.0590233" lon="10.9896017"><ele>18.0</ele><time>2026-05-01T07:06:08.748Z</time></trkpt><trkpt lat="45.058905" lon="10.989565"><ele>18.0</ele><time>2026-05-01T07:06:09.744Z</time></trkpt><trkpt lat="45.0587783" lon="10.9895217"><ele>17.5</ele><time>2026-05-01T07:06:10.741Z</time></trkpt><trkpt lat="45.058645" lon="10.9894767"><ele>17.0</ele><time>2026-05-01T07:06:11.75Z</time></trkpt><trkpt lat="45.0585" lon="10.9894433"><ele>16.5</ele><time>2026-05-01T07:06:12.749Z</time></trkpt><trkpt lat="45.0583567" lon="10.9894183"><ele>16.0</ele><time>2026-05-01T07:06:13.75Z</time></trkpt><trkpt lat="45.0582183" lon="10.9894"><ele>15.75</ele><time>2026-05-01T07:06:14.742Z</time></trkpt><trkpt lat="45.0580917" lon="10.9893867"><ele>15.5</ele><time>2026-05-01T07:06:15.751Z</time></trkpt><trkpt lat="45.0579733" lon="10.9893767"><ele>15.25</ele><time>2026-05-01T07:06:16.746Z</time></trkpt><trkpt lat="45.0578617" lon="10.9893617"><ele>15.0</ele><time>2026-05-01T07:06:17.749Z</time></trkpt><trkpt lat="45.0577467" lon="10.9893467"><ele>15.0</ele><time>2026-05-01T07:06:18.747Z</time></trkpt><trkpt lat="45.0576233" lon="10.9893267"><ele>15.0</ele><time>2026-05-01T07:06:19.751Z</time></trkpt><trkpt lat="45.0574917" lon="10.9893"><ele>15.0</ele><time>2026-05-01T07:06:20.752Z</time></trkpt><trkpt lat="45.0573567" lon="10.9892783"><ele>15.0</ele><time>2026-05-01T07:06:21.749Z</time></trkpt><trkpt lat="45.057215" lon="10.9892683"><ele>15.0</ele><time>2026-05-01T07:06:22.75Z</time></trkpt><trkpt lat="45.05707" lon="10.989265"><ele>15.0</ele><time>2026-05-01T07:06:23.748Z</time></trkpt><trkpt lat="45.056915" lon="10.9892733"><ele>15.0</ele><time>2026-05-01T07:06:24.748Z</time></trkpt><trkpt lat="45.056755" lon="10.9892817"><ele>15.333333333333332</ele><time>2026-05-01T07:06:25.744Z</time></trkpt><trkpt lat="45.05659" lon="10.9892883"><ele>15.666666666666666</ele><time>2026-05-01T07:06:26.742Z</time></trkpt><trkpt lat="45.0564233" lon="10.9892917"><ele>16.0</ele><time>2026-05-01T07:06:27.752Z</time></trkpt><trkpt lat="45.056255" lon="10.989295"><ele>16.0</ele><time>2026-05-01T07:06:28.748Z</time></trkpt><trkpt lat="45.0560883" lon="10.9893033"><ele>16.0</ele><time>2026-05-01T07:06:29.748Z</time></trkpt><trkpt lat="45.0559233" lon="10.9893183"><ele>16.0</ele><time>2026-05-01T07:06:30.752Z</time></trkpt><trkpt lat="45.0557583" lon="10.989335"><ele>17.333333333333332</ele><time>2026-05-01T07:06:31.748Z</time></trkpt><trkpt lat="45.0555983" lon="10.9893383"><ele>18.666666666666668</ele><time>2026-05-01T07:06:32.75Z</time></trkpt><trkpt lat="45.0554383" lon="10.9893117"><ele>20.0</ele><time>2026-05-01T07:06:33.749Z</time></trkpt><trkpt lat="45.0552767" lon="10.9892517"><ele>19.333333333333336</ele><time>2026-05-01T07:06:34.752Z</time></trkpt><trkpt lat="45.0551183" lon="10.98917"><ele>18.666666666666668</ele><time>2026-05-01T07:06:35.748Z</time></trkpt><trkpt lat="45.054955" lon="10.9890933"><ele>18.0</ele><time>2026-05-01T07:06:36.759Z</time></trkpt><trkpt lat="45.0547883" lon="10.9890267"><ele>18.0</ele><time>2026-05-01T07:06:37.752Z</time></trkpt><trkpt lat="45.0546233" lon="10.9889633"><ele>18.0</ele><time>2026-05-01T07:06:38.752Z</time></trkpt><trkpt lat="45.0544683" lon="10.9888717"><ele>18.0</ele><time>2026-05-01T07:06:39.749Z</time></trkpt><trkpt lat="45.0543383" lon="10.9887433"><ele>18.0</ele><time>2026-05-01T07:06:40.75Z</time></trkpt><trkpt lat="45.0542283" lon="10.9886117"><ele>18.0</ele><time>2026-05-01T07:06:41.753Z</time></trkpt><trkpt lat="45.054125" lon="10.9885183"><ele>18.0</ele><time>2026-05-01T07:06:42.746Z</time></trkpt><trkpt lat="45.054025" lon="10.9884867"><ele>18.0</ele><time>2026-05-01T07:06:43.743Z</time></trkpt><trkpt lat="45.0539317" lon="10.9885217"><ele>17.25</ele><time>2026-05-01T07:06:44.757Z</time></trkpt><trkpt lat="45.05384" lon="10.9886017"><ele>16.5</ele><time>2026-05-01T07:06:45.747Z</time></trkpt><trkpt lat="45.0537433" lon="10.9886917"><ele>15.75</ele><time>2026-05-01T07:06:46.75Z</time></trkpt><trkpt lat="45.0536417" lon="10.9887883"><ele>15.0</ele><time>2026-05-01T07:06:47.747Z</time></trkpt><trkpt lat="45.0535367" lon="10.98889"><ele>15.0</ele><time>2026-05-01T07:06:48.751Z</time></trkpt><trkpt lat="45.0534217" lon="10.988995"><ele>15.0</ele><time>2026-05-01T07:06:49.744Z</time></trkpt><trkpt lat="45.0533033" lon="10.9891017"><ele>15.0</ele><time>2026-05-01T07:06:50.745Z</time></trkpt><trkpt lat="45.0531783" lon="10.9892133"><ele>15.0</ele><time>2026-05-01T07:06:51.748Z</time></trkpt><trkpt lat="45.0530517" lon="10.98933"><ele>15.0</ele><time>2026-05-01T07:06:52.747Z</time></trkpt><trkpt lat="45.0529233" lon="10.9894483"><ele>15.0</ele><time>2026-05-01T07:06:53.751Z</time></trkpt><trkpt lat="45.05279" lon="10.9895717"><ele>15.0</ele><time>2026-05-01T07:06:54.748Z</time></trkpt><trkpt lat="45.052655" lon="10.9896967"><ele>15.0</ele><time>2026-05-01T07:06:55.745Z</time></trkpt><trkpt lat="45.0525167" lon="10.9898233"><ele>15.0</ele><time>2026-05-01T07:06:56.751Z</time></trkpt><trkpt lat="45.0523783" lon="10.9899567"><ele>15.0</ele><time>2026-05-01T07:06:57.747Z</time></trkpt><trkpt lat="45.05224" lon="10.9900883"><ele>14.75</ele><time>2026-05-01T07:06:58.749Z</time></trkpt><trkpt lat="45.0521083" lon="10.9902033"><ele>14.5</ele><time>2026-05-01T07:06:59.743Z</time></trkpt><trkpt lat="45.051985" lon="10.9902833"><ele>14.25</ele><time>2026-05-01T07:07:00.742Z</time></trkpt><trkpt lat="45.05186" lon="10.990325"><ele>14.0</ele><time>2026-05-01T07:07:01.755Z</time></trkpt><trkpt lat="45.0517317" lon="10.9903367"><ele>14.25</ele><time>2026-05-01T07:07:02.747Z</time></trkpt><trkpt lat="45.0515983" lon="10.99033"><ele>14.5</ele><time>2026-05-01T07:07:03.746Z</time></trkpt><trkpt lat="45.0514533" lon="10.9903183"><ele>14.75</ele><time>2026-05-01T07:07:04.754Z</time></trkpt><trkpt lat="45.0513017" lon="10.9903017"><ele>15.0</ele><time>2026-05-01T07:07:05.751Z</time></trkpt><trkpt lat="45.0511467" lon="10.9902817"><ele>15.0</ele><time>2026-05-01T07:07:06.748Z</time></trkpt><trkpt lat="45.0509967" lon="10.9902517"><ele>15.0</ele><time>2026-05-01T07:07:07.749Z</time></trkpt><trkpt lat="45.050855" lon="10.9902167"><ele>15.0</ele><time>2026-05-01T07:07:08.749Z</time></trkpt><trkpt lat="45.0507267" lon="10.9901733"><ele>15.0</ele><time>2026-05-01T07:07:09.749Z</time></trkpt><trkpt lat="45.0506067" lon="10.9901467"><ele>14.75</ele><time>2026-05-01T07:07:10.748Z</time></trkpt><trkpt lat="45.05049" lon="10.9901533"><ele>14.5</ele><time>2026-05-01T07:07:11.756Z</time></trkpt><trkpt lat="45.0503717" lon="10.99019"><ele>14.25</ele><time>2026-05-01T07:07:12.753Z</time></trkpt><trkpt lat="45.0502583" lon="10.9902567"><ele>14.0</ele><time>2026-05-01T07:07:13.75Z</time></trkpt><trkpt lat="45.0501467" lon="10.9903417"><ele>14.0</ele><time>2026-05-01T07:07:14.743Z</time></trkpt><trkpt lat="45.0500267" lon="10.9904333"><ele>14.0</ele><time>2026-05-01T07:07:15.75Z</time></trkpt><trkpt lat="45.0498983" lon="10.990525"><ele>14.0</ele><time>2026-05-01T07:07:16.748Z</time></trkpt><trkpt lat="45.04977" lon="10.9906117"><ele>14.0</ele><time>2026-05-01T07:07:17.747Z</time></trkpt><trkpt lat="45.0496333" lon="10.99068"><ele>13.0</ele><time>2026-05-01T07:07:18.747Z</time></trkpt><trkpt lat="45.049485" lon="10.9907317"><ele>12.0</ele><time>2026-05-01T07:07:19.749Z</time></trkpt><trkpt lat="45.049335" lon="10.99077"><ele>11.0</ele><time>2026-05-01T07:07:20.748Z</time></trkpt><trkpt lat="45.0491817" lon="10.9908"><ele>11.666666666666666</ele><time>2026-05-01T07:07:21.753Z</time></trkpt><trkpt lat="45.04903" lon="10.9908317"><ele>12.333333333333332</ele><time>2026-05-01T07:07:22.747Z</time></trkpt><trkpt lat="45.04888" lon="10.9908633"><ele>13.0</ele><time>2026-05-01T07:07:23.748Z</time></trkpt><trkpt lat="45.0487267" lon="10.9908933"><ele>13.0</ele><time>2026-05-01T07:07:24.748Z</time></trkpt><trkpt lat="45.0485683" lon="10.990915"><ele>13.0</ele><time>2026-05-01T07:07:25.749Z</time></trkpt><trkpt lat="45.04841" lon="10.990925"><ele>13.0</ele><time>2026-05-01T07:07:26.751Z</time></trkpt><trkpt lat="45.0482517" lon="10.9909317"><ele>13.333333333333332</ele><time>2026-05-01T07:07:27.751Z</time></trkpt><trkpt lat="45.0480933" lon="10.9909417"><ele>13.666666666666668</ele><time>2026-05-01T07:07:28.752Z</time></trkpt><trkpt lat="45.0479383" lon="10.9909583"><ele>14.0</ele><time>2026-05-01T07:07:29.751Z</time></trkpt><trkpt lat="45.0477867" lon="10.9909883"><ele>14.0</ele><time>2026-05-01T07:07:30.756Z</time></trkpt><trkpt lat="45.047635" lon="10.9910233"><ele>14.0</ele><time>2026-05-01T07:07:31.749Z</time></trkpt><trkpt lat="45.0474883" lon="10.9910583"><ele>14.0</ele><time>2026-05-01T07:07:32.748Z</time></trkpt><trkpt lat="45.0473533" lon="10.9910883"><ele>14.0</ele><time>2026-05-01T07:07:33.75Z</time></trkpt><trkpt lat="45.0472267" lon="10.9911183"><ele>14.333333333333334</ele><time>2026-05-01T07:07:34.751Z</time></trkpt><trkpt lat="45.0471183" lon="10.9911433"><ele>14.666666666666668</ele><time>2026-05-01T07:07:35.748Z</time></trkpt><trkpt lat="45.0470367" lon="10.9911633"><ele>15.0</ele><time>2026-05-01T07:07:36.753Z</time></trkpt><trkpt lat="45.0469733" lon="10.9911783"><ele>15.333333333333332</ele><time>2026-05-01T07:07:37.747Z</time></trkpt><trkpt lat="45.0469133" lon="10.9912333"><ele>15.666666666666666</ele><time>2026-05-01T07:07:39.752Z</time></trkpt><trkpt lat="45.0469083" lon="10.9913717"><ele>16.0</ele><time>2026-05-01T07:07:41.749Z</time></trkpt><trkpt lat="45.0469233" lon="10.991475"><ele>16.0</ele><time>2026-05-01T07:07:42.764Z</time></trkpt><trkpt lat="45.046945" lon="10.9915933"><ele>16.0</ele><time>2026-05-01T07:07:43.742Z</time></trkpt><trkpt lat="45.0469667" lon="10.9917267"><ele>16.0</ele><time>2026-05-01T07:07:44.75Z</time></trkpt><trkpt lat="45.0469867" lon="10.9918733"><ele>16.0</ele><time>2026-05-01T07:07:45.753Z</time></trkpt><trkpt lat="45.0470133" lon="10.992035"><ele>16.0</ele><time>2026-05-01T07:07:46.75Z</time></trkpt><trkpt lat="45.0470583" lon="10.9922"><ele>15.5</ele><time>2026-05-01T07:07:47.756Z</time></trkpt><trkpt lat="45.0471217" lon="10.9923617"><ele>15.0</ele><time>2026-05-01T07:07:48.742Z</time></trkpt><trkpt lat="45.0472083" lon="10.9925117"><ele>14.5</ele><time>2026-05-01T07:07:49.75Z</time></trkpt><trkpt lat="45.047315" lon="10.9926483"><ele>14.0</ele><time>2026-05-01T07:07:50.748Z</time></trkpt><trkpt lat="45.0474317" lon="10.9927717"><ele>14.0</ele><time>2026-05-01T07:07:51.741Z</time></trkpt><trkpt lat="45.047545" lon="10.9928933"><ele>14.0</ele><time>2026-05-01T07:07:52.747Z</time></trkpt><trkpt lat="45.047655" lon="10.9930317"><ele>14.0</ele><time>2026-05-01T07:07:53.749Z</time></trkpt><trkpt lat="45.04775" lon="10.993195"><ele>14.0</ele><time>2026-05-01T07:07:54.749Z</time></trkpt><trkpt lat="45.0478217" lon="10.9933783"><ele>14.0</ele><time>2026-05-01T07:07:55.748Z</time></trkpt><trkpt lat="45.04787" lon="10.9935867"><ele>14.0</ele><time>2026-05-01T07:07:56.749Z</time></trkpt><trkpt lat="45.0479067" lon="10.9938117"><ele>14.0</ele><time>2026-05-01T07:07:57.748Z</time></trkpt><trkpt lat="45.0479383" lon="10.994045"><ele>13.666666666666668</ele><time>2026-05-01T07:07:58.749Z</time></trkpt><trkpt lat="45.047975" lon="10.9942767"><ele>13.333333333333332</ele><time>2026-05-01T07:07:59.741Z</time></trkpt><trkpt lat="45.0480117" lon="10.9945167"><ele>13.0</ele><time>2026-05-01T07:08:00.751Z</time></trkpt><trkpt lat="45.04805" lon="10.99476"><ele>13.0</ele><time>2026-05-01T07:08:01.741Z</time></trkpt><trkpt lat="45.0480883" lon="10.9950017"><ele>13.0</ele><time>2026-05-01T07:08:02.754Z</time></trkpt><trkpt lat="45.0481333" lon="10.9952417"><ele>13.0</ele><time>2026-05-01T07:08:03.743Z</time></trkpt><trkpt lat="45.04818" lon="10.9954817"><ele>13.333333333333332</ele><time>2026-05-01T07:08:04.751Z</time></trkpt><trkpt lat="45.04822" lon="10.9957167"><ele>13.666666666666668</ele><time>2026-05-01T07:08:05.749Z</time></trkpt><trkpt lat="45.04826" lon="10.9959517"><ele>14.0</ele><time>2026-05-01T07:08:06.749Z</time></trkpt><trkpt lat="45.0482983" lon="10.9961883"><ele>14.333333333333334</ele><time>2026-05-01T07:08:07.744Z</time></trkpt><trkpt lat="45.0483383" lon="10.9964283"><ele>14.666666666666668</ele><time>2026-05-01T07:08:08.748Z</time></trkpt><trkpt lat="45.0483767" lon="10.996665"><ele>15.0</ele><time>2026-05-01T07:08:09.753Z</time></trkpt><trkpt lat="45.0484217" lon="10.9968983"><ele>15.0</ele><time>2026-05-01T07:08:10.748Z</time></trkpt><trkpt lat="45.0484667" lon="10.99713"><ele>15.0</ele><time>2026-05-01T07:08:11.749Z</time></trkpt><trkpt lat="45.04851" lon="10.9973667"><ele>15.0</ele><time>2026-05-01T07:08:12.75Z</time></trkpt><trkpt lat="45.048555" lon="10.997605"><ele>15.666666666666668</ele><time>2026-05-01T07:08:13.75Z</time></trkpt><trkpt lat="45.0486" lon="10.9978433"><ele>16.333333333333336</ele><time>2026-05-01T07:08:14.75Z</time></trkpt><trkpt lat="45.0486417" lon="10.9980833"><ele>17.0</ele><time>2026-05-01T07:08:15.75Z</time></trkpt><trkpt lat="45.0486802" lon="10.9983215"><ele>17.333333333333336</ele><time>2026-05-01T07:08:16.746Z</time></trkpt><trkpt lat="45.0487173" lon="10.9985655"><ele>17.666666666666668</ele><time>2026-05-01T07:08:17.748Z</time></trkpt><trkpt lat="45.0487456" lon="10.9988114"><ele>18.0</ele><time>2026-05-01T07:08:18.749Z</time></trkpt><trkpt lat="45.0487656" lon="10.9990593"><ele>18.0</ele><time>2026-05-01T07:08:19.749Z</time></trkpt><trkpt lat="45.0487836" lon="10.9993099"><ele>18.0</ele><time>2026-05-01T07:08:20.75Z</time></trkpt><trkpt lat="45.0488018" lon="10.9995646"><ele>18.0</ele><time>2026-05-01T07:08:21.75Z</time></trkpt><trkpt lat="45.0488189" lon="10.9998198"><ele>18.0</ele><time>2026-05-01T07:08:22.748Z</time></trkpt><trkpt lat="45.0488369" lon="11.0000773"><ele>18.0</ele><time>2026-05-01T07:08:23.757Z</time></trkpt><trkpt lat="45.0488542" lon="11.0003253"><ele>18.0</ele><time>2026-05-01T07:08:24.75Z</time></trkpt><trkpt lat="45.0488728" lon="11.0005575"><ele>18.0</ele><time>2026-05-01T07:08:25.748Z</time></trkpt><trkpt lat="45.04889" lon="11.0007587"><ele>18.0</ele><time>2026-05-01T07:08:26.741Z</time></trkpt><trkpt lat="45.0488974" lon="11.0009306"><ele>18.0</ele><time>2026-05-01T07:08:27.741Z</time></trkpt><trkpt lat="45.048889" lon="11.0010836"><ele>18.0</ele><time>2026-05-01T07:08:28.747Z</time></trkpt><trkpt lat="45.0488565" lon="11.0012167"><ele>17.6</ele><time>2026-05-01T07:08:29.754Z</time></trkpt><trkpt lat="45.0487955" lon="11.0013235"><ele>17.200000000000003</ele><time>2026-05-01T07:08:30.752Z</time></trkpt><trkpt lat="45.0487136" lon="11.001396"><ele>16.8</ele><time>2026-05-01T07:08:31.744Z</time></trkpt><trkpt lat="45.0486068" lon="11.001433"><ele>16.400000000000002</ele><time>2026-05-01T07:08:32.756Z</time></trkpt><trkpt lat="45.0484753" lon="11.0014474"><ele>16.0</ele><time>2026-05-01T07:08:33.747Z</time></trkpt><trkpt lat="45.0483283" lon="11.0014656"><ele>15.666666666666666</ele><time>2026-05-01T07:08:34.741Z</time></trkpt><trkpt lat="45.0481794" lon="11.0015028"><ele>15.333333333333332</ele><time>2026-05-01T07:08:35.74Z</time></trkpt><trkpt lat="45.0480316" lon="11.0015602"><ele>15.0</ele><time>2026-05-01T07:08:36.75Z</time></trkpt><trkpt lat="45.0478804" lon="11.0016322"><ele>15.0</ele><time>2026-05-01T07:08:37.748Z</time></trkpt><trkpt lat="45.0477247" lon="11.0017148"><ele>15.0</ele><time>2026-05-01T07:08:38.75Z</time></trkpt><trkpt lat="45.0475635" lon="11.0018024"><ele>15.0</ele><time>2026-05-01T07:08:39.752Z</time></trkpt><trkpt lat="45.0473969" lon="11.0018915"><ele>15.333333333333332</ele><time>2026-05-01T07:08:40.752Z</time></trkpt><trkpt lat="45.0472252" lon="11.001976"><ele>15.666666666666666</ele><time>2026-05-01T07:08:41.753Z</time></trkpt><trkpt lat="45.047049" lon="11.0020529"><ele>16.0</ele><time>2026-05-01T07:08:42.748Z</time></trkpt><trkpt lat="45.0468644" lon="11.0021232"><ele>16.0</ele><time>2026-05-01T07:08:43.753Z</time></trkpt><trkpt lat="45.0466774" lon="11.0021851"><ele>16.0</ele><time>2026-05-01T07:08:44.75Z</time></trkpt><trkpt lat="45.046485" lon="11.0022467"><ele>16.0</ele><time>2026-05-01T07:08:45.748Z</time></trkpt><trkpt lat="45.046295" lon="11.00231"><ele>16.0</ele><time>2026-05-01T07:08:46.741Z</time></trkpt><trkpt lat="45.0461" lon="11.0023683"><ele>16.0</ele><time>2026-05-01T07:08:47.749Z</time></trkpt><trkpt lat="45.0459083" lon="11.0024133"><ele>16.0</ele><time>2026-05-01T07:08:48.751Z</time></trkpt><trkpt lat="45.0457117" lon="11.00244"><ele>16.666666666666664</ele><time>2026-05-01T07:08:49.755Z</time></trkpt><trkpt lat="45.045515" lon="11.002445"><ele>17.333333333333332</ele><time>2026-05-01T07:08:50.75Z</time></trkpt><trkpt lat="45.045315" lon="11.0024283"><ele>18.0</ele><time>2026-05-01T07:08:51.749Z</time></trkpt><trkpt lat="45.045115" lon="11.0024067"><ele>17.0</ele><time>2026-05-01T07:08:52.749Z</time></trkpt><trkpt lat="45.0449167" lon="11.0023933"><ele>16.0</ele><time>2026-05-01T07:08:53.75Z</time></trkpt><trkpt lat="45.0447167" lon="11.0023883"><ele>15.0</ele><time>2026-05-01T07:08:54.742Z</time></trkpt><trkpt lat="45.044515" lon="11.002395"><ele>15.0</ele><time>2026-05-01T07:08:55.748Z</time></trkpt><trkpt lat="45.0443167" lon="11.0024167"><ele>15.0</ele><time>2026-05-01T07:08:56.76Z</time></trkpt><trkpt lat="45.0441217" lon="11.00245"><ele>15.0</ele><time>2026-05-01T07:08:57.761Z</time></trkpt><trkpt lat="45.043935" lon="11.0024983"><ele>15.666666666666668</ele><time>2026-05-01T07:08:58.741Z</time></trkpt><trkpt lat="45.043755" lon="11.0025567"><ele>16.333333333333336</ele><time>2026-05-01T07:08:59.742Z</time></trkpt><trkpt lat="45.043585" lon="11.00262"><ele>17.0</ele><time>2026-05-01T07:09:00.75Z</time></trkpt><trkpt lat="45.0434233" lon="11.0026867"><ele>17.0</ele><time>2026-05-01T07:09:01.741Z</time></trkpt><trkpt lat="45.0432733" lon="11.00275"><ele>17.0</ele><time>2026-05-01T07:09:02.75Z</time></trkpt><trkpt lat="45.0431433" lon="11.0028117"><ele>17.0</ele><time>2026-05-01T07:09:03.75Z</time></trkpt><trkpt lat="45.04303" lon="11.0028867"><ele>17.0</ele><time>2026-05-01T07:09:04.75Z</time></trkpt><trkpt lat="45.042935" lon="11.0029817"><ele>17.0</ele><time>2026-05-01T07:09:05.746Z</time></trkpt><trkpt lat="45.0428667" lon="11.003105"><ele>17.0</ele><time>2026-05-01T07:09:06.749Z</time></trkpt><trkpt lat="45.042825" lon="11.0032583"><ele>17.0</ele><time>2026-05-01T07:09:07.748Z</time></trkpt><trkpt lat="45.0428" lon="11.0034367"><ele>17.0</ele><time>2026-05-01T07:09:08.752Z</time></trkpt><trkpt lat="45.042785" lon="11.003625"><ele>16.75</ele><time>2026-05-01T07:09:09.741Z</time></trkpt><trkpt lat="45.0427717" lon="11.0038233"><ele>16.5</ele><time>2026-05-01T07:09:10.741Z</time></trkpt><trkpt lat="45.042755" lon="11.0040283"><ele>16.25</ele><time>2026-05-01T07:09:11.746Z</time></trkpt><trkpt lat="45.0427333" lon="11.00424"><ele>16.0</ele><time>2026-05-01T07:09:12.745Z</time></trkpt><trkpt lat="45.04271" lon="11.0044483"><ele>16.0</ele><time>2026-05-01T07:09:13.749Z</time></trkpt><trkpt lat="45.0426883" lon="11.0046583"><ele>16.0</ele><time>2026-05-01T07:09:14.747Z</time></trkpt><trkpt lat="45.042665" lon="11.0048683"><ele>16.0</ele><time>2026-05-01T07:09:15.747Z</time></trkpt><trkpt lat="45.0426417" lon="11.0050767"><ele>16.0</ele><time>2026-05-01T07:09:16.741Z</time></trkpt><trkpt lat="45.0426167" lon="11.005285"><ele>16.0</ele><time>2026-05-01T07:09:17.741Z</time></trkpt><trkpt lat="45.04259" lon="11.0054967"><ele>16.0</ele><time>2026-05-01T07:09:18.748Z</time></trkpt><trkpt lat="45.0425683" lon="11.00571"><ele>16.0</ele><time>2026-05-01T07:09:19.749Z</time></trkpt><trkpt lat="45.0425517" lon="11.00593"><ele>15.666666666666666</ele><time>2026-05-01T07:09:20.748Z</time></trkpt><trkpt lat="45.04254" lon="11.00616"><ele>15.333333333333332</ele><time>2026-05-01T07:09:21.747Z</time></trkpt><trkpt lat="45.0425367" lon="11.0063967"><ele>15.0</ele><time>2026-05-01T07:09:22.753Z</time></trkpt><trkpt lat="45.042535" lon="11.0066367"><ele>15.0</ele><time>2026-05-01T07:09:23.747Z</time></trkpt><trkpt lat="45.042535" lon="11.0068817"><ele>15.0</ele><time>2026-05-01T07:09:24.748Z</time></trkpt><trkpt lat="45.0425383" lon="11.0071317"><ele>15.0</ele><time>2026-05-01T07:09:25.741Z</time></trkpt><trkpt lat="45.0425417" lon="11.007385"><ele>14.666666666666668</ele><time>2026-05-01T07:09:26.752Z</time></trkpt><trkpt lat="45.0425467" lon="11.0076417"><ele>14.333333333333334</ele><time>2026-05-01T07:09:27.749Z</time></trkpt><trkpt lat="45.04255" lon="11.0079"><ele>14.0</ele><time>2026-05-01T07:09:28.75Z</time></trkpt><trkpt lat="45.0425517" lon="11.00816"><ele>14.0</ele><time>2026-05-01T07:09:29.75Z</time></trkpt><trkpt lat="45.0425517" lon="11.00842"><ele>14.0</ele><time>2026-05-01T07:09:30.748Z</time></trkpt><trkpt lat="45.042555" lon="11.0086767"><ele>14.0</ele><time>2026-05-01T07:09:31.752Z</time></trkpt><trkpt lat="45.0425583" lon="11.0089267"><ele>13.666666666666668</ele><time>2026-05-01T07:09:32.747Z</time></trkpt><trkpt lat="45.042565" lon="11.00917"><ele>13.333333333333332</ele><time>2026-05-01T07:09:33.751Z</time></trkpt><trkpt lat="45.0425717" lon="11.00941"><ele>13.0</ele><time>2026-05-01T07:09:34.749Z</time></trkpt><trkpt lat="45.0425767" lon="11.00965"><ele>13.0</ele><time>2026-05-01T07:09:35.752Z</time></trkpt><trkpt lat="45.04257" lon="11.00989"><ele>13.0</ele><time>2026-05-01T07:09:36.751Z</time></trkpt><trkpt lat="45.0425483" lon="11.01013"><ele>13.0</ele><time>2026-05-01T07:09:37.741Z</time></trkpt><trkpt lat="45.042515" lon="11.0103683"><ele>12.666666666666666</ele><time>2026-05-01T07:09:38.749Z</time></trkpt><trkpt lat="45.04247" lon="11.01061"><ele>12.333333333333332</ele><time>2026-05-01T07:09:39.749Z</time></trkpt><trkpt lat="45.042425" lon="11.0108533"><ele>12.0</ele><time>2026-05-01T07:09:40.745Z</time></trkpt><trkpt lat="45.04238" lon="11.0111"><ele>12.666666666666668</ele><time>2026-05-01T07:09:41.75Z</time></trkpt><trkpt lat="45.042335" lon="11.0113517"><ele>13.333333333333334</ele><time>2026-05-01T07:09:42.748Z</time></trkpt><trkpt lat="45.0422917" lon="11.0116083"><ele>14.0</ele><time>2026-05-01T07:09:43.747Z</time></trkpt><trkpt lat="45.042245" lon="11.0118667"><ele>14.0</ele><time>2026-05-01T07:09:44.748Z</time></trkpt><trkpt lat="45.0421967" lon="11.0121267"><ele>14.0</ele><time>2026-05-01T07:09:45.743Z</time></trkpt><trkpt lat="45.0421483" lon="11.0123883"><ele>14.0</ele><time>2026-05-01T07:09:46.749Z</time></trkpt><trkpt lat="45.0421017" lon="11.0126467"><ele>14.0</ele><time>2026-05-01T07:09:47.753Z</time></trkpt><trkpt lat="45.0420533" lon="11.0128983"><ele>14.0</ele><time>2026-05-01T07:09:48.753Z</time></trkpt><trkpt lat="45.042005" lon="11.01314"><ele>14.0</ele><time>2026-05-01T07:09:49.749Z</time></trkpt><trkpt lat="45.0419583" lon="11.01337"><ele>14.25</ele><time>2026-05-01T07:09:50.749Z</time></trkpt><trkpt lat="45.0419167" lon="11.01358"><ele>14.5</ele><time>2026-05-01T07:09:51.749Z</time></trkpt><trkpt lat="45.0418867" lon="11.0137683"><ele>14.75</ele><time>2026-05-01T07:09:52.741Z</time></trkpt><trkpt lat="45.041875" lon="11.0139367"><ele>15.0</ele><time>2026-05-01T07:09:53.747Z</time></trkpt><trkpt lat="45.041885" lon="11.0140917"><ele>14.4</ele><time>2026-05-01T07:09:54.75Z</time></trkpt><trkpt lat="45.0419117" lon="11.0142333"><ele>13.8</ele><time>2026-05-01T07:09:55.752Z</time></trkpt><trkpt lat="45.0419467" lon="11.014365"><ele>13.2</ele><time>2026-05-01T07:09:56.744Z</time></trkpt><trkpt lat="45.0419733" lon="11.0144967"><ele>12.6</ele><time>2026-05-01T07:09:57.75Z</time></trkpt><trkpt lat="45.0419733" lon="11.014625"><ele>12.0</ele><time>2026-05-01T07:09:58.753Z</time></trkpt><trkpt lat="45.04194" lon="11.0147467"><ele>12.0</ele><time>2026-05-01T07:09:59.748Z</time></trkpt><trkpt lat="45.04188" lon="11.0148667"><ele>12.0</ele><time>2026-05-01T07:10:00.748Z</time></trkpt><trkpt lat="45.0418117" lon="11.014995"><ele>12.0</ele><time>2026-05-01T07:10:01.747Z</time></trkpt><trkpt lat="45.041735" lon="11.015135"><ele>12.0</ele><time>2026-05-01T07:10:02.752Z</time></trkpt><trkpt lat="45.0416617" lon="11.01529"><ele>12.0</ele><time>2026-05-01T07:10:03.751Z</time></trkpt><trkpt lat="45.0415917" lon="11.0154633"><ele>12.0</ele><time>2026-05-01T07:10:04.741Z</time></trkpt><trkpt lat="45.0415283" lon="11.015645"><ele>12.0</ele><time>2026-05-01T07:10:05.748Z</time></trkpt><trkpt lat="45.0414733" lon="11.0158383"><ele>12.0</ele><time>2026-05-01T07:10:06.749Z</time></trkpt><trkpt lat="45.0414233" lon="11.0160367"><ele>12.0</ele><time>2026-05-01T07:10:07.75Z</time></trkpt><trkpt lat="45.0413733" lon="11.01624"><ele>12.0</ele><time>2026-05-01T07:10:08.748Z</time></trkpt><trkpt lat="45.0413233" lon="11.0164483"><ele>12.0</ele><time>2026-05-01T07:10:09.75Z</time></trkpt><trkpt lat="45.041275" lon="11.01666"><ele>11.666666666666666</ele><time>2026-05-01T07:10:10.749Z</time></trkpt><trkpt lat="45.0412317" lon="11.0168767"><ele>11.333333333333332</ele><time>2026-05-01T07:10:11.745Z</time></trkpt><trkpt lat="45.041195" lon="11.0170983"><ele>11.0</ele><time>2026-05-01T07:10:12.747Z</time></trkpt><trkpt lat="45.0411767" lon="11.0173267"><ele>11.333333333333332</ele><time>2026-05-01T07:10:13.751Z</time></trkpt><trkpt lat="45.0411683" lon="11.01756"><ele>11.666666666666666</ele><time>2026-05-01T07:10:14.752Z</time></trkpt><trkpt lat="45.0411733" lon="11.0177983"><ele>12.0</ele><time>2026-05-01T07:10:15.75Z</time></trkpt><trkpt lat="45.0411733" lon="11.01804"><ele>12.0</ele><time>2026-05-01T07:10:16.743Z</time></trkpt><trkpt lat="45.0411517" lon="11.0182833"><ele>12.0</ele><time>2026-05-01T07:10:17.741Z</time></trkpt><trkpt lat="45.04111" lon="11.018525"><ele>12.0</ele><time>2026-05-01T07:10:18.753Z</time></trkpt><trkpt lat="45.041065" lon="11.0187683"><ele>12.333333333333332</ele><time>2026-05-01T07:10:19.754Z</time></trkpt><trkpt lat="45.041015" lon="11.01901"><ele>12.666666666666666</ele><time>2026-05-01T07:10:20.749Z</time></trkpt><trkpt lat="45.0409667" lon="11.01925"><ele>13.0</ele><time>2026-05-01T07:10:21.75Z</time></trkpt><trkpt lat="45.0409183" lon="11.0194783"><ele>13.0</ele><time>2026-05-01T07:10:22.742Z</time></trkpt><trkpt lat="45.0408683" lon="11.0196933"><ele>13.0</ele><time>2026-05-01T07:10:23.753Z</time></trkpt><trkpt lat="45.0408117" lon="11.0198967"><ele>13.0</ele><time>2026-05-01T07:10:24.752Z</time></trkpt><trkpt lat="45.04074" lon="11.0200767"><ele>12.75</ele><time>2026-05-01T07:10:25.743Z</time></trkpt><trkpt lat="45.0406483" lon="11.020225"><ele>12.5</ele><time>2026-05-01T07:10:26.742Z</time></trkpt><trkpt lat="45.0405467" lon="11.0203433"><ele>12.25</ele><time>2026-05-01T07:10:27.742Z</time></trkpt><trkpt lat="45.0404483" lon="11.0204283"><ele>12.0</ele><time>2026-05-01T07:10:28.746Z</time></trkpt><trkpt lat="45.0403533" lon="11.0204783"><ele>12.0</ele><time>2026-05-01T07:10:29.751Z</time></trkpt><trkpt lat="45.0402633" lon="11.0205033"><ele>12.0</ele><time>2026-05-01T07:10:30.747Z</time></trkpt><trkpt lat="45.0401783" lon="11.0205117"><ele>12.0</ele><time>2026-05-01T07:10:31.747Z</time></trkpt><trkpt lat="45.0400883" lon="11.02051"><ele>12.0</ele><time>2026-05-01T07:10:32.751Z</time></trkpt><trkpt lat="45.0400033" lon="11.02052"><ele>12.0</ele><time>2026-05-01T07:10:33.741Z</time></trkpt><trkpt lat="45.0399283" lon="11.0205583"><ele>12.0</ele><time>2026-05-01T07:10:34.744Z</time></trkpt><trkpt lat="45.0398667" lon="11.0206267"><ele>11.8</ele><time>2026-05-01T07:10:35.751Z</time></trkpt><trkpt lat="45.0398333" lon="11.0207233"><ele>11.6</ele><time>2026-05-01T07:10:36.746Z</time></trkpt><trkpt lat="45.0398217" lon="11.0208333"><ele>11.4</ele><time>2026-05-01T07:10:37.742Z</time></trkpt><trkpt lat="45.0398417" lon="11.0209533"><ele>11.200000000000001</ele><time>2026-05-01T07:10:38.749Z</time></trkpt><trkpt lat="45.0398867" lon="11.0210867"><ele>11.0</ele><time>2026-05-01T07:10:39.749Z</time></trkpt><trkpt lat="45.039925" lon="11.0212333"><ele>11.0</ele><time>2026-05-01T07:10:40.745Z</time></trkpt><trkpt lat="45.03995" lon="11.0213917"><ele>11.0</ele><time>2026-05-01T07:10:41.75Z</time></trkpt><trkpt lat="45.03997" lon="11.0215667"><ele>11.0</ele><time>2026-05-01T07:10:42.749Z</time></trkpt><trkpt lat="45.0399767" lon="11.021755"><ele>11.0</ele><time>2026-05-01T07:10:43.752Z</time></trkpt><trkpt lat="45.039975" lon="11.0219583"><ele>11.333333333333332</ele><time>2026-05-01T07:10:44.749Z</time></trkpt><trkpt lat="45.03997" lon="11.0221733"><ele>11.666666666666666</ele><time>2026-05-01T07:10:45.751Z</time></trkpt><trkpt lat="45.0399633" lon="11.0224"><ele>12.0</ele><time>2026-05-01T07:10:46.741Z</time></trkpt><trkpt lat="45.0399567" lon="11.022645"><ele>12.0</ele><time>2026-05-01T07:10:47.747Z</time></trkpt><trkpt lat="45.0399467" lon="11.0229"><ele>12.0</ele><time>2026-05-01T07:10:48.752Z</time></trkpt><trkpt lat="45.039935" lon="11.0231617"><ele>12.0</ele><time>2026-05-01T07:10:49.747Z</time></trkpt><trkpt lat="45.039925" lon="11.02343"><ele>12.0</ele><time>2026-05-01T07:10:50.752Z</time></trkpt><trkpt lat="45.0399133" lon="11.0237033"><ele>12.0</ele><time>2026-05-01T07:10:51.749Z</time></trkpt><trkpt lat="45.039905" lon="11.0239817"><ele>12.0</ele><time>2026-05-01T07:10:52.748Z</time></trkpt><trkpt lat="45.0398983" lon="11.024265"><ele>12.0</ele><time>2026-05-01T07:10:53.748Z</time></trkpt><trkpt lat="45.0398917" lon="11.0245533"><ele>12.0</ele><time>2026-05-01T07:10:54.749Z</time></trkpt><trkpt lat="45.0398817" lon="11.0248483"><ele>12.0</ele><time>2026-05-01T07:10:55.752Z</time></trkpt><trkpt lat="45.0398667" lon="11.0251433"><ele>12.0</ele><time>2026-05-01T07:10:56.75Z</time></trkpt><trkpt lat="45.0398517" lon="11.02544"><ele>12.0</ele><time>2026-05-01T07:10:57.75Z</time></trkpt><trkpt lat="45.039835" lon="11.02574"><ele>12.0</ele><time>2026-05-01T07:10:58.744Z</time></trkpt><trkpt lat="45.0398183" lon="11.02604"><ele>12.0</ele><time>2026-05-01T07:10:59.748Z</time></trkpt><trkpt lat="45.0397983" lon="11.0263433"><ele>12.0</ele><time>2026-05-01T07:11:00.751Z</time></trkpt><trkpt lat="45.039775" lon="11.0266467"><ele>12.0</ele><time>2026-05-01T07:11:01.743Z</time></trkpt><trkpt lat="45.0397517" lon="11.0269533"><ele>12.0</ele><time>2026-05-01T07:11:02.754Z</time></trkpt><trkpt lat="45.039725" lon="11.02726"><ele>12.0</ele><time>2026-05-01T07:11:03.751Z</time></trkpt><trkpt lat="45.0397" lon="11.0275667"><ele>12.0</ele><time>2026-05-01T07:11:04.749Z</time></trkpt><trkpt lat="45.039675" lon="11.027875"><ele>12.0</ele><time>2026-05-01T07:11:05.748Z</time></trkpt><trkpt lat="45.03965" lon="11.0281833"><ele>12.0</ele><time>2026-05-01T07:11:06.744Z</time></trkpt><trkpt lat="45.0396267" lon="11.0284917"><ele>12.0</ele><time>2026-05-01T07:11:07.748Z</time></trkpt><trkpt lat="45.0396" lon="11.0287967"><ele>12.333333333333332</ele><time>2026-05-01T07:11:08.75Z</time></trkpt><trkpt lat="45.0395733" lon="11.0291033"><ele>12.666666666666666</ele><time>2026-05-01T07:11:09.75Z</time></trkpt><trkpt lat="45.0395467" lon="11.02941"><ele>13.0</ele><time>2026-05-01T07:11:10.753Z</time></trkpt><trkpt lat="45.0395183" lon="11.029715"><ele>12.666666666666666</ele><time>2026-05-01T07:11:11.749Z</time></trkpt><trkpt lat="45.039485" lon="11.0300217"><ele>12.333333333333332</ele><time>2026-05-01T07:11:12.743Z</time></trkpt><trkpt lat="45.0394483" lon="11.0303267"><ele>12.0</ele><time>2026-05-01T07:11:13.749Z</time></trkpt><trkpt lat="45.039405" lon="11.0306317"><ele>12.333333333333332</ele><time>2026-05-01T07:11:14.752Z</time></trkpt><trkpt lat="45.0393583" lon="11.0309317"><ele>12.666666666666666</ele><time>2026-05-01T07:11:15.753Z</time></trkpt><trkpt lat="45.039305" lon="11.03123"><ele>13.0</ele><time>2026-05-01T07:11:16.753Z</time></trkpt><trkpt lat="45.039245" lon="11.0315267"><ele>12.666666666666666</ele><time>2026-05-01T07:11:17.753Z</time></trkpt><trkpt lat="45.0391783" lon="11.0318233"><ele>12.333333333333332</ele><time>2026-05-01T07:11:18.75Z</time></trkpt><trkpt lat="45.039105" lon="11.032115"><ele>12.0</ele><time>2026-05-01T07:11:19.75Z</time></trkpt><trkpt lat="45.0390267" lon="11.032405"><ele>12.0</ele><time>2026-05-01T07:11:20.752Z</time></trkpt><trkpt lat="45.0389467" lon="11.032695"><ele>12.0</ele><time>2026-05-01T07:11:21.75Z</time></trkpt><trkpt lat="45.0388683" lon="11.0329883"><ele>12.0</ele><time>2026-05-01T07:11:22.748Z</time></trkpt><trkpt lat="45.0387917" lon="11.0332817"><ele>12.0</ele><time>2026-05-01T07:11:23.752Z</time></trkpt><trkpt lat="45.038715" lon="11.0335733"><ele>12.0</ele><time>2026-05-01T07:11:24.749Z</time></trkpt><trkpt lat="45.0386333" lon="11.0338667"><ele>12.0</ele><time>2026-05-01T07:11:25.749Z</time></trkpt><trkpt lat="45.03855" lon="11.0341617"><ele>12.0</ele><time>2026-05-01T07:11:26.749Z</time></trkpt><trkpt lat="45.0384683" lon="11.034455"><ele>12.0</ele><time>2026-05-01T07:11:27.749Z</time></trkpt><trkpt lat="45.0383867" lon="11.0347517"><ele>12.0</ele><time>2026-05-01T07:11:28.749Z</time></trkpt><trkpt lat="45.0383067" lon="11.03505"><ele>11.5</ele><time>2026-05-01T07:11:29.751Z</time></trkpt><trkpt lat="45.0382267" lon="11.0353483"><ele>11.0</ele><time>2026-05-01T07:11:30.752Z</time></trkpt><trkpt lat="45.0381467" lon="11.0356483"><ele>12.0</ele><time>2026-05-01T07:11:31.751Z</time></trkpt><trkpt lat="45.03807" lon="11.03595"><ele>13.0</ele><time>2026-05-01T07:11:32.751Z</time></trkpt><trkpt lat="45.037995" lon="11.0362483"><ele>13.0</ele><time>2026-05-01T07:11:33.752Z</time></trkpt><trkpt lat="45.037925" lon="11.036545"><ele>13.0</ele><time>2026-05-01T07:11:34.748Z</time></trkpt><trkpt lat="45.0378617" lon="11.0368367"><ele>13.0</ele><time>2026-05-01T07:11:35.752Z</time></trkpt><trkpt lat="45.0378083" lon="11.0371233"><ele>13.333333333333332</ele><time>2026-05-01T07:11:36.746Z</time></trkpt><trkpt lat="45.0377567" lon="11.0374033"><ele>13.666666666666668</ele><time>2026-05-01T07:11:37.755Z</time></trkpt><trkpt lat="45.037705" lon="11.0376783"><ele>14.0</ele><time>2026-05-01T07:11:38.743Z</time></trkpt><trkpt lat="45.0376517" lon="11.0379467"><ele>14.0</ele><time>2026-05-01T07:11:39.742Z</time></trkpt><trkpt lat="45.037605" lon="11.038205"><ele>14.0</ele><time>2026-05-01T07:11:40.748Z</time></trkpt><trkpt lat="45.03756" lon="11.038455"><ele>14.0</ele><time>2026-05-01T07:11:41.75Z</time></trkpt><trkpt lat="45.0375133" lon="11.0387"><ele>14.0</ele><time>2026-05-01T07:11:42.752Z</time></trkpt><trkpt lat="45.0374667" lon="11.0389367"><ele>14.0</ele><time>2026-05-01T07:11:43.749Z</time></trkpt><trkpt lat="45.0374167" lon="11.0391683"><ele>14.0</ele><time>2026-05-01T07:11:44.749Z</time></trkpt><trkpt lat="45.0373667" lon="11.0393933"><ele>14.0</ele><time>2026-05-01T07:11:45.749Z</time></trkpt><trkpt lat="45.0373183" lon="11.0396117"><ele>14.0</ele><time>2026-05-01T07:11:46.749Z</time></trkpt><trkpt lat="45.03727" lon="11.0398267"><ele>14.0</ele><time>2026-05-01T07:11:47.751Z</time></trkpt><trkpt lat="45.03722" lon="11.04004"><ele>14.0</ele><time>2026-05-01T07:11:48.748Z</time></trkpt><trkpt lat="45.0371717" lon="11.0402583"><ele>14.0</ele><time>2026-05-01T07:11:49.756Z</time></trkpt><trkpt lat="45.0371217" lon="11.0404767"><ele>14.0</ele><time>2026-05-01T07:11:50.75Z</time></trkpt><trkpt lat="45.0370717" lon="11.0406983"><ele>14.333333333333334</ele><time>2026-05-01T07:11:51.742Z</time></trkpt><trkpt lat="45.0370217" lon="11.0409267"><ele>14.666666666666668</ele><time>2026-05-01T07:11:52.749Z</time></trkpt><trkpt lat="45.0369717" lon="11.0411567"><ele>15.0</ele><time>2026-05-01T07:11:53.742Z</time></trkpt><trkpt lat="45.0369217" lon="11.04139"><ele>15.0</ele><time>2026-05-01T07:11:54.749Z</time></trkpt><trkpt lat="45.0368733" lon="11.0416267"><ele>15.0</ele><time>2026-05-01T07:11:55.751Z</time></trkpt><trkpt lat="45.036825" lon="11.0418633"><ele>15.0</ele><time>2026-05-01T07:11:56.756Z</time></trkpt><trkpt lat="45.0367767" lon="11.0420983"><ele>15.0</ele><time>2026-05-01T07:11:57.749Z</time></trkpt><trkpt lat="45.03673" lon="11.0423333"><ele>15.0</ele><time>2026-05-01T07:11:58.748Z</time></trkpt><trkpt lat="45.0366833" lon="11.0425667"><ele>15.0</ele><time>2026-05-01T07:11:59.748Z</time></trkpt><trkpt lat="45.0366417" lon="11.0427983"><ele>14.666666666666668</ele><time>2026-05-01T07:12:00.745Z</time></trkpt><trkpt lat="45.0366017" lon="11.0430283"><ele>14.333333333333334</ele><time>2026-05-01T07:12:01.742Z</time></trkpt><trkpt lat="45.0365633" lon="11.0432633"><ele>14.0</ele><time>2026-05-01T07:12:02.753Z</time></trkpt><trkpt lat="45.0365233" lon="11.0435"><ele>14.0</ele><time>2026-05-01T07:12:03.748Z</time></trkpt><trkpt lat="45.0364767" lon="11.0437367"><ele>14.0</ele><time>2026-05-01T07:12:04.748Z</time></trkpt><trkpt lat="45.0364283" lon="11.0439767"><ele>14.0</ele><time>2026-05-01T07:12:05.742Z</time></trkpt><trkpt lat="45.03638" lon="11.044215"><ele>14.0</ele><time>2026-05-01T07:12:06.752Z</time></trkpt><trkpt lat="45.0363317" lon="11.04445"><ele>14.0</ele><time>2026-05-01T07:12:07.748Z</time></trkpt><trkpt lat="45.0362833" lon="11.0446833"><ele>14.0</ele><time>2026-05-01T07:12:08.749Z</time></trkpt><trkpt lat="45.0362283" lon="11.0449133"><ele>14.0</ele><time>2026-05-01T07:12:09.747Z</time></trkpt><trkpt lat="45.0361617" lon="11.0451383"><ele>14.0</ele><time>2026-05-01T07:12:10.742Z</time></trkpt><trkpt lat="45.03608" lon="11.04536"><ele>14.0</ele><time>2026-05-01T07:12:11.75Z</time></trkpt><trkpt lat="45.0359867" lon="11.0455733"><ele>14.0</ele><time>2026-05-01T07:12:12.75Z</time></trkpt><trkpt lat="45.0358867" lon="11.045785"><ele>14.0</ele><time>2026-05-01T07:12:13.744Z</time></trkpt><trkpt lat="45.0357767" lon="11.0459883"><ele>14.0</ele><time>2026-05-01T07:12:14.75Z</time></trkpt><trkpt lat="45.0356567" lon="11.046185"><ele>13.666666666666668</ele><time>2026-05-01T07:12:15.743Z</time></trkpt><trkpt lat="45.035525" lon="11.04637"><ele>13.333333333333332</ele><time>2026-05-01T07:12:16.752Z</time></trkpt><trkpt lat="45.0353822" lon="11.0465456"><ele>13.0</ele><time>2026-05-01T07:12:17.754Z</time></trkpt><trkpt lat="45.0352318" lon="11.0467169"><ele>13.0</ele><time>2026-05-01T07:12:18.751Z</time></trkpt><trkpt lat="45.0350777" lon="11.0468882"><ele>13.0</ele><time>2026-05-01T07:12:19.752Z</time></trkpt><trkpt lat="45.0349194" lon="11.0470593"><ele>13.0</ele><time>2026-05-01T07:12:20.752Z</time></trkpt><trkpt lat="45.0347581" lon="11.0472279"><ele>13.0</ele><time>2026-05-01T07:12:21.754Z</time></trkpt><trkpt lat="45.0345966" lon="11.0473994"><ele>13.0</ele><time>2026-05-01T07:12:22.749Z</time></trkpt><trkpt lat="45.0344328" lon="11.0475695"><ele>13.0</ele><time>2026-05-01T07:12:23.743Z</time></trkpt><trkpt lat="45.0342663" lon="11.047741"><ele>13.0</ele><time>2026-05-01T07:12:24.744Z</time></trkpt><trkpt lat="45.034097" lon="11.0479128"><ele>13.0</ele><time>2026-05-01T07:12:25.753Z</time></trkpt><trkpt lat="45.0339263" lon="11.0480829"><ele>13.0</ele><time>2026-05-01T07:12:26.751Z</time></trkpt><trkpt lat="45.0337563" lon="11.0482526"><ele>13.0</ele><time>2026-05-01T07:12:27.743Z</time></trkpt><trkpt lat="45.0335854" lon="11.0484258"><ele>13.0</ele><time>2026-05-01T07:12:28.747Z</time></trkpt><trkpt lat="45.0334125" lon="11.0486005"><ele>13.0</ele><time>2026-05-01T07:12:29.751Z</time></trkpt><trkpt lat="45.0332406" lon="11.0487731"><ele>13.333333333333332</ele><time>2026-05-01T07:12:30.751Z</time></trkpt><trkpt lat="45.033069" lon="11.0489447"><ele>13.666666666666668</ele><time>2026-05-01T07:12:31.744Z</time></trkpt><trkpt lat="45.0328955" lon="11.0491183"><ele>14.0</ele><time>2026-05-01T07:12:32.749Z</time></trkpt><trkpt lat="45.0327212" lon="11.0492904"><ele>14.0</ele><time>2026-05-01T07:12:33.747Z</time></trkpt><trkpt lat="45.0325463" lon="11.0494611"><ele>14.0</ele><time>2026-05-01T07:12:34.749Z</time></trkpt><trkpt lat="45.0323714" lon="11.0496346"><ele>14.0</ele><time>2026-05-01T07:12:35.744Z</time></trkpt><trkpt lat="45.0321954" lon="11.0498114"><ele>13.666666666666668</ele><time>2026-05-01T07:12:36.752Z</time></trkpt><trkpt lat="45.0320206" lon="11.0499865"><ele>13.333333333333332</ele><time>2026-05-01T07:12:37.75Z</time></trkpt><trkpt lat="45.0318442" lon="11.0501615"><ele>13.0</ele><time>2026-05-01T07:12:38.754Z</time></trkpt><trkpt lat="45.0316677" lon="11.0503353"><ele>13.0</ele><time>2026-05-01T07:12:39.751Z</time></trkpt><trkpt lat="45.0314923" lon="11.0505112"><ele>13.0</ele><time>2026-05-01T07:12:40.754Z</time></trkpt><trkpt lat="45.0313205" lon="11.0506869"><ele>13.0</ele><time>2026-05-01T07:12:41.746Z</time></trkpt><trkpt lat="45.0311486" lon="11.050865"><ele>13.0</ele><time>2026-05-01T07:12:42.751Z</time></trkpt><trkpt lat="45.0309775" lon="11.0510417"><ele>13.0</ele><time>2026-05-01T07:12:43.75Z</time></trkpt><trkpt lat="45.0308079" lon="11.0512176"><ele>13.0</ele><time>2026-05-01T07:12:44.744Z</time></trkpt><trkpt lat="45.0306385" lon="11.0513958"><ele>13.0</ele><time>2026-05-01T07:12:45.751Z</time></trkpt><trkpt lat="45.0304731" lon="11.0515737"><ele>13.0</ele><time>2026-05-01T07:12:46.749Z</time></trkpt><trkpt lat="45.0303085" lon="11.0517557"><ele>13.0</ele><time>2026-05-01T07:12:47.742Z</time></trkpt><trkpt lat="45.030143" lon="11.051936"><ele>13.0</ele><time>2026-05-01T07:12:48.753Z</time></trkpt><trkpt lat="45.0299799" lon="11.0521183"><ele>13.0</ele><time>2026-05-01T07:12:49.751Z</time></trkpt><trkpt lat="45.029818" lon="11.052302"><ele>13.0</ele><time>2026-05-01T07:12:50.748Z</time></trkpt><trkpt lat="45.0296541" lon="11.0524854"><ele>13.0</ele><time>2026-05-01T07:12:51.742Z</time></trkpt><trkpt lat="45.0294914" lon="11.05267"><ele>13.0</ele><time>2026-05-01T07:12:52.752Z</time></trkpt><trkpt lat="45.0293303" lon="11.0528572"><ele>13.0</ele><time>2026-05-01T07:12:53.748Z</time></trkpt><trkpt lat="45.0291661" lon="11.0530447"><ele>12.666666666666666</ele><time>2026-05-01T07:12:54.753Z</time></trkpt><trkpt lat="45.0290041" lon="11.0532312"><ele>12.333333333333332</ele><time>2026-05-01T07:12:55.751Z</time></trkpt><trkpt lat="45.0288396" lon="11.0534177"><ele>12.0</ele><time>2026-05-01T07:12:56.75Z</time></trkpt><trkpt lat="45.0286744" lon="11.0536015"><ele>11.666666666666666</ele><time>2026-05-01T07:12:57.75Z</time></trkpt><trkpt lat="45.0285091" lon="11.053785"><ele>11.333333333333332</ele><time>2026-05-01T07:12:58.751Z</time></trkpt><trkpt lat="45.0283452" lon="11.0539682"><ele>11.0</ele><time>2026-05-01T07:12:59.751Z</time></trkpt><trkpt lat="45.0281819" lon="11.0541514"><ele>11.0</ele><time>2026-05-01T07:13:00.752Z</time></trkpt><trkpt lat="45.0280174" lon="11.0543357"><ele>11.0</ele><time>2026-05-01T07:13:01.75Z</time></trkpt><trkpt lat="45.0278528" lon="11.0545203"><ele>11.0</ele><time>2026-05-01T07:13:02.743Z</time></trkpt><trkpt lat="45.0276874" lon="11.054707"><ele>11.0</ele><time>2026-05-01T07:13:03.745Z</time></trkpt><trkpt lat="45.0275221" lon="11.0548926"><ele>11.0</ele><time>2026-05-01T07:13:04.749Z</time></trkpt><trkpt lat="45.0273573" lon="11.0550804"><ele>11.0</ele><time>2026-05-01T07:13:05.749Z</time></trkpt><trkpt lat="45.0271938" lon="11.0552679"><ele>11.0</ele><time>2026-05-01T07:13:06.752Z</time></trkpt><trkpt lat="45.0270322" lon="11.0554556"><ele>11.0</ele><time>2026-05-01T07:13:07.744Z</time></trkpt><trkpt lat="45.0268673" lon="11.0556461"><ele>11.0</ele><time>2026-05-01T07:13:08.755Z</time></trkpt><trkpt lat="45.0267054" lon="11.0558373"><ele>11.666666666666666</ele><time>2026-05-01T07:13:09.755Z</time></trkpt><trkpt lat="45.0265449" lon="11.056032"><ele>12.333333333333332</ele><time>2026-05-01T07:13:10.761Z</time></trkpt><trkpt lat="45.0263882" lon="11.0562281"><ele>13.0</ele><time>2026-05-01T07:13:11.754Z</time></trkpt><trkpt lat="45.0262352" lon="11.0564308"><ele>13.0</ele><time>2026-05-01T07:13:12.744Z</time></trkpt><trkpt lat="45.0260849" lon="11.0566421"><ele>13.0</ele><time>2026-05-01T07:13:13.748Z</time></trkpt><trkpt lat="45.0259392" lon="11.0568588"><ele>13.0</ele><time>2026-05-01T07:13:14.752Z</time></trkpt><trkpt lat="45.0257962" lon="11.0570776"><ele>13.0</ele><time>2026-05-01T07:13:15.752Z</time></trkpt><trkpt lat="45.0256553" lon="11.0573017"><ele>13.0</ele><time>2026-05-01T07:13:16.744Z</time></trkpt><trkpt lat="45.0255179" lon="11.0575355"><ele>13.0</ele><time>2026-05-01T07:13:17.748Z</time></trkpt><trkpt lat="45.0253845" lon="11.0577736"><ele>13.0</ele><time>2026-05-01T07:13:18.746Z</time></trkpt><trkpt lat="45.0252557" lon="11.0580205"><ele>13.0</ele><time>2026-05-01T07:13:19.753Z</time></trkpt><trkpt lat="45.0251313" lon="11.0582746"><ele>13.0</ele><time>2026-05-01T07:13:20.744Z</time></trkpt><trkpt lat="45.0250107" lon="11.0585376"><ele>12.666666666666666</ele><time>2026-05-01T07:13:21.751Z</time></trkpt><trkpt lat="45.0248948" lon="11.0588055"><ele>12.333333333333332</ele><time>2026-05-01T07:13:22.743Z</time></trkpt><trkpt lat="45.0247826" lon="11.059082"><ele>12.0</ele><time>2026-05-01T07:13:23.753Z</time></trkpt><trkpt lat="45.0246733" lon="11.0593616"><ele>12.0</ele><time>2026-05-01T07:13:24.748Z</time></trkpt><trkpt lat="45.0245677" lon="11.0596471"><ele>12.0</ele><time>2026-05-01T07:13:25.751Z</time></trkpt><trkpt lat="45.0244673" lon="11.0599371"><ele>12.5</ele><time>2026-05-01T07:13:26.749Z</time></trkpt><trkpt lat="45.0243709" lon="11.0602337"><ele>13.0</ele><time>2026-05-01T07:13:27.75Z</time></trkpt><trkpt lat="45.0242766" lon="11.0605339"><ele>13.0</ele><time>2026-05-01T07:13:28.747Z</time></trkpt><trkpt lat="45.0241821" lon="11.0608376"><ele>13.0</ele><time>2026-05-01T07:13:29.748Z</time></trkpt><trkpt lat="45.0240841" lon="11.0611389"><ele>14.5</ele><time>2026-05-01T07:13:30.75Z</time></trkpt><trkpt lat="45.023984" lon="11.0614392"><ele>16.0</ele><time>2026-05-01T07:13:31.752Z</time></trkpt><trkpt lat="45.0238836" lon="11.0617406"><ele>18.5</ele><time>2026-05-01T07:13:32.75Z</time></trkpt><trkpt lat="45.0237793" lon="11.0620409"><ele>21.0</ele><time>2026-05-01T07:13:33.75Z</time></trkpt><trkpt lat="45.0236708" lon="11.0623365"><ele>20.0</ele><time>2026-05-01T07:13:34.747Z</time></trkpt><trkpt lat="45.0235577" lon="11.0626319"><ele>19.0</ele><time>2026-05-01T07:13:35.754Z</time></trkpt><trkpt lat="45.0234403" lon="11.0629238"><ele>19.0</ele><time>2026-05-01T07:13:36.755Z</time></trkpt><trkpt lat="45.0233214" lon="11.0632123"><ele>19.0</ele><time>2026-05-01T07:13:37.751Z</time></trkpt><trkpt lat="45.0231984" lon="11.0634988"><ele>16.0</ele><time>2026-05-01T07:13:38.75Z</time></trkpt><trkpt lat="45.0230729" lon="11.0637822"><ele>13.0</ele><time>2026-05-01T07:13:39.752Z</time></trkpt><trkpt lat="45.0229476" lon="11.0640659"><ele>12.0</ele><time>2026-05-01T07:13:40.746Z</time></trkpt><trkpt lat="45.0228208" lon="11.0643503"><ele>11.0</ele><time>2026-05-01T07:13:41.752Z</time></trkpt><trkpt lat="45.0226901" lon="11.0646329"><ele>11.0</ele><time>2026-05-01T07:13:42.751Z</time></trkpt><trkpt lat="45.0225583" lon="11.0649156"><ele>11.0</ele><time>2026-05-01T07:13:43.747Z</time></trkpt><trkpt lat="45.0224264" lon="11.0652034"><ele>12.0</ele><time>2026-05-01T07:13:44.75Z</time></trkpt><trkpt lat="45.0222923" lon="11.0654908"><ele>13.0</ele><time>2026-05-01T07:13:45.747Z</time></trkpt><trkpt lat="45.0221609" lon="11.0657818"><ele>13.0</ele><time>2026-05-01T07:13:46.748Z</time></trkpt><trkpt lat="45.0220291" lon="11.0660718"><ele>13.0</ele><time>2026-05-01T07:13:47.746Z</time></trkpt><trkpt lat="45.0218972" lon="11.0663607"><ele>12.5</ele><time>2026-05-01T07:13:48.746Z</time></trkpt><trkpt lat="45.0217667" lon="11.066651"><ele>12.0</ele><time>2026-05-01T07:13:49.75Z</time></trkpt><trkpt lat="45.0216396" lon="11.0669465"><ele>12.0</ele><time>2026-05-01T07:13:50.753Z</time></trkpt><trkpt lat="45.0215157" lon="11.067243"><ele>12.0</ele><time>2026-05-01T07:13:51.747Z</time></trkpt><trkpt lat="45.021398" lon="11.0675445"><ele>11.5</ele><time>2026-05-01T07:13:52.748Z</time></trkpt><trkpt lat="45.0212871" lon="11.0678479"><ele>11.0</ele><time>2026-05-01T07:13:53.749Z</time></trkpt><trkpt lat="45.0211837" lon="11.0681551"><ele>11.0</ele><time>2026-05-01T07:13:54.742Z</time></trkpt><trkpt lat="45.021088" lon="11.0684647"><ele>11.0</ele><time>2026-05-01T07:13:55.749Z</time></trkpt><trkpt lat="45.0209985" lon="11.0687762"><ele>11.0</ele><time>2026-05-01T07:13:56.748Z</time></trkpt><trkpt lat="45.0209141" lon="11.0690908"><ele>11.0</ele><time>2026-05-01T07:13:57.743Z</time></trkpt><trkpt lat="45.0208339" lon="11.0694107"><ele>11.0</ele><time>2026-05-01T07:13:58.759Z</time></trkpt><trkpt lat="45.020765" lon="11.0697278"><ele>11.0</ele><time>2026-05-01T07:13:59.75Z</time></trkpt><trkpt lat="45.0207021" lon="11.0700488"><ele>11.0</ele><time>2026-05-01T07:14:00.742Z</time></trkpt><trkpt lat="45.0206462" lon="11.0703722"><ele>11.0</ele><time>2026-05-01T07:14:01.752Z</time></trkpt><trkpt lat="45.020598" lon="11.0706915"><ele>11.0</ele><time>2026-05-01T07:14:02.751Z</time></trkpt><trkpt lat="45.020554" lon="11.0710014"><ele>11.0</ele><time>2026-05-01T07:14:03.754Z</time></trkpt><trkpt lat="45.0205141" lon="11.0712937"><ele>11.0</ele><time>2026-05-01T07:14:04.748Z</time></trkpt><trkpt lat="45.0204749" lon="11.0715685"><ele>10.666666666666666</ele><time>2026-05-01T07:14:05.75Z</time></trkpt><trkpt lat="45.0204353" lon="11.0718258"><ele>10.333333333333334</ele><time>2026-05-01T07:14:06.753Z</time></trkpt><trkpt lat="45.0203912" lon="11.072066"><ele>10.0</ele><time>2026-05-01T07:14:07.749Z</time></trkpt><trkpt lat="45.0203404" lon="11.0722852"><ele>10.2</ele><time>2026-05-01T07:14:08.743Z</time></trkpt><trkpt lat="45.0202849" lon="11.0724747"><ele>10.4</ele><time>2026-05-01T07:14:09.741Z</time></trkpt><trkpt lat="45.020232" lon="11.0726309"><ele>10.600000000000001</ele><time>2026-05-01T07:14:10.749Z</time></trkpt><trkpt lat="45.020192" lon="11.0727543"><ele>10.8</ele><time>2026-05-01T07:14:11.749Z</time></trkpt><trkpt lat="45.0201653" lon="11.072855"><ele>11.0</ele><time>2026-05-01T07:14:12.75Z</time></trkpt><trkpt lat="45.0201571" lon="11.0729717"><ele>11.0</ele><time>2026-05-01T07:14:14.745Z</time></trkpt><trkpt lat="45.0202244" lon="11.0730543"><ele>11.0</ele><time>2026-05-01T07:14:16.755Z</time></trkpt><trkpt lat="45.0203023" lon="11.0730977"><ele>11.0</ele><time>2026-05-01T07:14:17.742Z</time></trkpt><trkpt lat="45.0203955" lon="11.0731388"><ele>11.0</ele><time>2026-05-01T07:14:18.749Z</time></trkpt><trkpt lat="45.0204986" lon="11.0731882"><ele>11.0</ele><time>2026-05-01T07:14:19.745Z</time></trkpt><trkpt lat="45.020607" lon="11.0732558"><ele>11.0</ele><time>2026-05-01T07:14:20.749Z</time></trkpt><trkpt lat="45.0207204" lon="11.0733425"><ele>11.0</ele><time>2026-05-01T07:14:21.752Z</time></trkpt><trkpt lat="45.0208398" lon="11.073444"><ele>11.0</ele><time>2026-05-01T07:14:22.756Z</time></trkpt><trkpt lat="45.0209622" lon="11.0735559"><ele>11.0</ele><time>2026-05-01T07:14:23.744Z</time></trkpt><trkpt lat="45.0210909" lon="11.0736767"><ele>11.0</ele><time>2026-05-01T07:14:24.749Z</time></trkpt><trkpt lat="45.0212217" lon="11.0738042"><ele>11.0</ele><time>2026-05-01T07:14:25.745Z</time></trkpt><trkpt lat="45.0213555" lon="11.0739447"><ele>11.0</ele><time>2026-05-01T07:14:26.752Z</time></trkpt><trkpt lat="45.021488" lon="11.0740943"><ele>11.333333333333332</ele><time>2026-05-01T07:14:27.749Z</time></trkpt><trkpt lat="45.0216228" lon="11.0742518"><ele>11.666666666666666</ele><time>2026-05-01T07:14:28.748Z</time></trkpt><trkpt lat="45.0217609" lon="11.0744184"><ele>12.0</ele><time>2026-05-01T07:14:29.752Z</time></trkpt><trkpt lat="45.0219009" lon="11.0745915"><ele>12.0</ele><time>2026-05-01T07:14:30.75Z</time></trkpt><trkpt lat="45.0220413" lon="11.0747706"><ele>12.0</ele><time>2026-05-01T07:14:31.75Z</time></trkpt><trkpt lat="45.0221825" lon="11.0749588"><ele>12.0</ele><time>2026-05-01T07:14:32.748Z</time></trkpt><trkpt lat="45.0223219" lon="11.0751567"><ele>12.0</ele><time>2026-05-01T07:14:33.752Z</time></trkpt><trkpt lat="45.0224573" lon="11.0753633"><ele>12.0</ele><time>2026-05-01T07:14:34.749Z</time></trkpt><trkpt lat="45.0225909" lon="11.0755784"><ele>12.0</ele><time>2026-05-01T07:14:35.749Z</time></trkpt><trkpt lat="45.0227239" lon="11.0757933"><ele>12.0</ele><time>2026-05-01T07:14:36.743Z</time></trkpt><trkpt lat="45.0228572" lon="11.0760121"><ele>12.0</ele><time>2026-05-01T07:14:37.742Z</time></trkpt><trkpt lat="45.022991" lon="11.0762344"><ele>12.0</ele><time>2026-05-01T07:14:38.75Z</time></trkpt><trkpt lat="45.0231282" lon="11.0764591"><ele>12.0</ele><time>2026-05-01T07:14:39.755Z</time></trkpt><trkpt lat="45.0232675" lon="11.0766854"><ele>12.0</ele><time>2026-05-01T07:14:40.749Z</time></trkpt><trkpt lat="45.0234057" lon="11.0769158"><ele>12.0</ele><time>2026-05-01T07:14:41.758Z</time></trkpt><trkpt lat="45.0235411" lon="11.0771456"><ele>12.0</ele><time>2026-05-01T07:14:42.755Z</time></trkpt><trkpt lat="45.023676" lon="11.0773774"><ele>12.0</ele><time>2026-05-01T07:14:43.756Z</time></trkpt><trkpt lat="45.0238069" lon="11.0776106"><ele>12.0</ele><time>2026-05-01T07:14:44.753Z</time></trkpt><trkpt lat="45.0239368" lon="11.0778456"><ele>11.666666666666666</ele><time>2026-05-01T07:14:45.75Z</time></trkpt><trkpt lat="45.0240663" lon="11.0780802"><ele>11.333333333333332</ele><time>2026-05-01T07:14:46.742Z</time></trkpt><trkpt lat="45.0241958" lon="11.0783177"><ele>11.0</ele><time>2026-05-01T07:14:47.743Z</time></trkpt><trkpt lat="45.0243269" lon="11.0785561"><ele>10.333333333333332</ele><time>2026-05-01T07:14:48.749Z</time></trkpt><trkpt lat="45.0244598" lon="11.0787919"><ele>9.666666666666666</ele><time>2026-05-01T07:14:49.742Z</time></trkpt><trkpt lat="45.0245951" lon="11.0790319"><ele>9.0</ele><time>2026-05-01T07:14:50.742Z</time></trkpt><trkpt lat="45.0247294" lon="11.0792741"><ele>9.0</ele><time>2026-05-01T07:14:51.752Z</time></trkpt><trkpt lat="45.0248636" lon="11.0795157"><ele>9.0</ele><time>2026-05-01T07:14:52.751Z</time></trkpt><trkpt lat="45.0250016" lon="11.0797617"><ele>9.0</ele><time>2026-05-01T07:14:53.752Z</time></trkpt><trkpt lat="45.0251403" lon="11.0800085"><ele>9.666666666666666</ele><time>2026-05-01T07:14:54.75Z</time></trkpt><trkpt lat="45.0252796" lon="11.080255"><ele>10.333333333333332</ele><time>2026-05-01T07:14:55.745Z</time></trkpt><trkpt lat="45.0254176" lon="11.0805008"><ele>11.0</ele><time>2026-05-01T07:14:56.743Z</time></trkpt><trkpt lat="45.0255545" lon="11.0807481"><ele>11.333333333333332</ele><time>2026-05-01T07:14:57.743Z</time></trkpt><trkpt lat="45.0256893" lon="11.0809969"><ele>11.666666666666666</ele><time>2026-05-01T07:14:58.741Z</time></trkpt><trkpt lat="45.0258266" lon="11.0812477"><ele>12.0</ele><time>2026-05-01T07:14:59.743Z</time></trkpt><trkpt lat="45.0259633" lon="11.0814969"><ele>12.0</ele><time>2026-05-01T07:15:00.744Z</time></trkpt><trkpt lat="45.0261012" lon="11.0817446"><ele>12.0</ele><time>2026-05-01T07:15:01.744Z</time></trkpt><trkpt lat="45.0262405" lon="11.0819928"><ele>12.0</ele><time>2026-05-01T07:15:02.742Z</time></trkpt><trkpt lat="45.0263787" lon="11.0822437"><ele>11.5</ele><time>2026-05-01T07:15:03.743Z</time></trkpt><trkpt lat="45.0265131" lon="11.0824976"><ele>11.0</ele><time>2026-05-01T07:15:04.743Z</time></trkpt><trkpt lat="45.0266439" lon="11.0827586"><ele>11.0</ele><time>2026-05-01T07:15:05.75Z</time></trkpt><trkpt lat="45.026763" lon="11.0830235"><ele>11.0</ele><time>2026-05-01T07:15:06.744Z</time></trkpt><trkpt lat="45.0268733" lon="11.0832998"><ele>11.0</ele><time>2026-05-01T07:15:07.743Z</time></trkpt><trkpt lat="45.0269728" lon="11.083584"><ele>11.333333333333332</ele><time>2026-05-01T07:15:08.745Z</time></trkpt><trkpt lat="45.0270612" lon="11.0838736"><ele>11.666666666666666</ele><time>2026-05-01T07:15:09.744Z</time></trkpt><trkpt lat="45.0271401" lon="11.0841715"><ele>12.0</ele><time>2026-05-01T07:15:10.742Z</time></trkpt><trkpt lat="45.0272079" lon="11.0844764"><ele>11.5</ele><time>2026-05-01T07:15:11.744Z</time></trkpt><trkpt lat="45.0272703" lon="11.0847862"><ele>11.0</ele><time>2026-05-01T07:15:12.745Z</time></trkpt><trkpt lat="45.0273254" lon="11.0850984"><ele>11.0</ele><time>2026-05-01T07:15:13.745Z</time></trkpt><trkpt lat="45.0273764" lon="11.0854127"><ele>11.0</ele><time>2026-05-01T07:15:14.743Z</time></trkpt><trkpt lat="45.0274283" lon="11.0857272"><ele>10.0</ele><time>2026-05-01T07:15:15.743Z</time></trkpt><trkpt lat="45.0274798" lon="11.0860465"><ele>9.0</ele><time>2026-05-01T07:15:16.749Z</time></trkpt><trkpt lat="45.0275249" lon="11.0863644"><ele>9.5</ele><time>2026-05-01T07:15:17.751Z</time></trkpt><trkpt lat="45.0275723" lon="11.0866818"><ele>10.0</ele><time>2026-05-01T07:15:18.746Z</time></trkpt><trkpt lat="45.0276188" lon="11.0870021"><ele>10.0</ele><time>2026-05-01T07:15:19.753Z</time></trkpt><trkpt lat="45.0276691" lon="11.0873219"><ele>10.0</ele><time>2026-05-01T07:15:20.748Z</time></trkpt><trkpt lat="45.027719" lon="11.0876484"><ele>10.5</ele><time>2026-05-01T07:15:21.751Z</time></trkpt><trkpt lat="45.0277726" lon="11.0879704"><ele>11.0</ele><time>2026-05-01T07:15:22.744Z</time></trkpt><trkpt lat="45.0278264" lon="11.0882951"><ele>11.0</ele><time>2026-05-01T07:15:23.752Z</time></trkpt><trkpt lat="45.0278797" lon="11.0886179"><ele>11.0</ele><time>2026-05-01T07:15:24.749Z</time></trkpt><trkpt lat="45.0279334" lon="11.0889388"><ele>11.0</ele><time>2026-05-01T07:15:25.75Z</time></trkpt><trkpt lat="45.027989" lon="11.0892594"><ele>11.0</ele><time>2026-05-01T07:15:26.751Z</time></trkpt><trkpt lat="45.028047" lon="11.0895764"><ele>11.0</ele><time>2026-05-01T07:15:27.754Z</time></trkpt><trkpt lat="45.0281068" lon="11.0898895"><ele>11.0</ele><time>2026-05-01T07:15:28.751Z</time></trkpt><trkpt lat="45.0281698" lon="11.0902032"><ele>10.5</ele><time>2026-05-01T07:15:29.749Z</time></trkpt><trkpt lat="45.0282347" lon="11.0905177"><ele>10.0</ele><time>2026-05-01T07:15:30.75Z</time></trkpt><trkpt lat="45.028298" lon="11.0908331"><ele>10.0</ele><time>2026-05-01T07:15:31.751Z</time></trkpt><trkpt lat="45.0283613" lon="11.0911461"><ele>10.0</ele><time>2026-05-01T07:15:32.742Z</time></trkpt><trkpt lat="45.0284271" lon="11.0914606"><ele>10.0</ele><time>2026-05-01T07:15:33.756Z</time></trkpt><trkpt lat="45.0284936" lon="11.091771"><ele>10.0</ele><time>2026-05-01T07:15:34.752Z</time></trkpt><trkpt lat="45.0285598" lon="11.0920825"><ele>10.0</ele><time>2026-05-01T07:15:35.747Z</time></trkpt><trkpt lat="45.0286268" lon="11.0923943"><ele>10.0</ele><time>2026-05-01T07:15:36.754Z</time></trkpt><trkpt lat="45.0286931" lon="11.0927025"><ele>10.0</ele><time>2026-05-01T07:15:37.744Z</time></trkpt><trkpt lat="45.0287582" lon="11.0930105"><ele>10.0</ele><time>2026-05-01T07:15:38.749Z</time></trkpt><trkpt lat="45.0288206" lon="11.0933139"><ele>11.0</ele><time>2026-05-01T07:15:39.742Z</time></trkpt><trkpt lat="45.0288815" lon="11.0936107"><ele>12.0</ele><time>2026-05-01T07:15:40.746Z</time></trkpt><trkpt lat="45.0289378" lon="11.0938961"><ele>13.0</ele><time>2026-05-01T07:15:41.747Z</time></trkpt><trkpt lat="45.028991" lon="11.0941644"><ele>13.0</ele><time>2026-05-01T07:15:42.751Z</time></trkpt><trkpt lat="45.0290421" lon="11.0944173"><ele>13.0</ele><time>2026-05-01T07:15:43.744Z</time></trkpt><trkpt lat="45.0290912" lon="11.0946678"><ele>13.0</ele><time>2026-05-01T07:15:44.749Z</time></trkpt><trkpt lat="45.0291347" lon="11.0949173"><ele>11.666666666666666</ele><time>2026-05-01T07:15:45.752Z</time></trkpt><trkpt lat="45.0291745" lon="11.0951684"><ele>10.333333333333332</ele><time>2026-05-01T07:15:46.748Z</time></trkpt><trkpt lat="45.0292115" lon="11.0954244"><ele>9.0</ele><time>2026-05-01T07:15:47.752Z</time></trkpt><trkpt lat="45.0292449" lon="11.095681"><ele>9.333333333333334</ele><time>2026-05-01T07:15:48.743Z</time></trkpt><trkpt lat="45.0292751" lon="11.0959414"><ele>9.666666666666668</ele><time>2026-05-01T07:15:49.743Z</time></trkpt><trkpt lat="45.0293021" lon="11.0962054"><ele>10.0</ele><time>2026-05-01T07:15:50.743Z</time></trkpt><trkpt lat="45.0293246" lon="11.096471"><ele>10.333333333333334</ele><time>2026-05-01T07:15:51.743Z</time></trkpt><trkpt lat="45.0293422" lon="11.0967356"><ele>10.666666666666666</ele><time>2026-05-01T07:15:52.744Z</time></trkpt><trkpt lat="45.0293579" lon="11.0969991"><ele>11.0</ele><time>2026-05-01T07:15:53.75Z</time></trkpt><trkpt lat="45.0293725" lon="11.0972594"><ele>11.333333333333332</ele><time>2026-05-01T07:15:54.749Z</time></trkpt><trkpt lat="45.0293821" lon="11.0975196"><ele>11.666666666666666</ele><time>2026-05-01T07:15:55.748Z</time></trkpt><trkpt lat="45.0293898" lon="11.0977788"><ele>12.0</ele><time>2026-05-01T07:15:56.742Z</time></trkpt><trkpt lat="45.0293938" lon="11.0980398"><ele>11.666666666666666</ele><time>2026-05-01T07:15:57.751Z</time></trkpt><trkpt lat="45.0293942" lon="11.0983002"><ele>11.333333333333332</ele><time>2026-05-01T07:15:58.752Z</time></trkpt><trkpt lat="45.0293939" lon="11.0985603"><ele>11.0</ele><time>2026-05-01T07:15:59.742Z</time></trkpt><trkpt lat="45.0293956" lon="11.0988214"><ele>11.0</ele><time>2026-05-01T07:16:00.742Z</time></trkpt><trkpt lat="45.0294002" lon="11.0990819"><ele>11.0</ele><time>2026-05-01T07:16:01.743Z</time></trkpt><trkpt lat="45.0294034" lon="11.0993437"><ele>11.0</ele><time>2026-05-01T07:16:02.748Z</time></trkpt><trkpt lat="45.0294067" lon="11.0996043"><ele>11.0</ele><time>2026-05-01T07:16:03.744Z</time></trkpt><trkpt lat="45.0294122" lon="11.0998675"><ele>11.0</ele><time>2026-05-01T07:16:04.757Z</time></trkpt><trkpt lat="45.0294225" lon="11.1001264"><ele>11.0</ele><time>2026-05-01T07:16:05.742Z</time></trkpt><trkpt lat="45.0294341" lon="11.1003886"><ele>11.0</ele><time>2026-05-01T07:16:06.742Z</time></trkpt><trkpt lat="45.0294461" lon="11.1006525"><ele>11.0</ele><time>2026-05-01T07:16:07.752Z</time></trkpt><trkpt lat="45.0294629" lon="11.1009143"><ele>11.0</ele><time>2026-05-01T07:16:08.748Z</time></trkpt><trkpt lat="45.029486" lon="11.1011765"><ele>11.333333333333332</ele><time>2026-05-01T07:16:09.743Z</time></trkpt><trkpt lat="45.0295118" lon="11.10144"><ele>11.666666666666666</ele><time>2026-05-01T07:16:10.741Z</time></trkpt><trkpt lat="45.0295416" lon="11.1017044"><ele>12.0</ele><time>2026-05-01T07:16:11.751Z</time></trkpt><trkpt lat="45.0295763" lon="11.1019674"><ele>12.0</ele><time>2026-05-01T07:16:12.744Z</time></trkpt><trkpt lat="45.0296153" lon="11.1022338"><ele>12.0</ele><time>2026-05-01T07:16:13.751Z</time></trkpt><trkpt lat="45.0296608" lon="11.1024966"><ele>12.0</ele><time>2026-05-01T07:16:14.749Z</time></trkpt><trkpt lat="45.0297088" lon="11.1027573"><ele>12.0</ele><time>2026-05-01T07:16:15.744Z</time></trkpt><trkpt lat="45.0297595" lon="11.1030177"><ele>12.0</ele><time>2026-05-01T07:16:16.744Z</time></trkpt><trkpt lat="45.0298094" lon="11.1032726"><ele>12.0</ele><time>2026-05-01T07:16:17.749Z</time></trkpt><trkpt lat="45.0298575" lon="11.1035188"><ele>12.0</ele><time>2026-05-01T07:16:18.749Z</time></trkpt><trkpt lat="45.0299044" lon="11.1037611"><ele>12.0</ele><time>2026-05-01T07:16:19.747Z</time></trkpt><trkpt lat="45.0299498" lon="11.1040013"><ele>12.0</ele><time>2026-05-01T07:16:20.742Z</time></trkpt><trkpt lat="45.0299958" lon="11.1042414"><ele>11.666666666666666</ele><time>2026-05-01T07:16:21.742Z</time></trkpt><trkpt lat="45.0300441" lon="11.1044821"><ele>11.333333333333332</ele><time>2026-05-01T07:16:22.745Z</time></trkpt><trkpt lat="45.0300945" lon="11.1047243"><ele>11.0</ele><time>2026-05-01T07:16:23.742Z</time></trkpt><trkpt lat="45.0301461" lon="11.1049716"><ele>11.0</ele><time>2026-05-01T07:16:24.749Z</time></trkpt><trkpt lat="45.0301958" lon="11.105219"><ele>11.0</ele><time>2026-05-01T07:16:25.75Z</time></trkpt><trkpt lat="45.0302449" lon="11.1054702"><ele>11.0</ele><time>2026-05-01T07:16:26.756Z</time></trkpt><trkpt lat="45.0302951" lon="11.105721"><ele>11.333333333333332</ele><time>2026-05-01T07:16:27.745Z</time></trkpt><trkpt lat="45.0303459" lon="11.1059738"><ele>11.666666666666666</ele><time>2026-05-01T07:16:28.75Z</time></trkpt><trkpt lat="45.0303981" lon="11.106226"><ele>12.0</ele><time>2026-05-01T07:16:29.743Z</time></trkpt><trkpt lat="45.0304498" lon="11.1064853"><ele>11.666666666666666</ele><time>2026-05-01T07:16:30.75Z</time></trkpt><trkpt lat="45.0304975" lon="11.1067454"><ele>11.333333333333332</ele><time>2026-05-01T07:16:31.749Z</time></trkpt><trkpt lat="45.0305475" lon="11.1070068"><ele>11.0</ele><time>2026-05-01T07:16:32.751Z</time></trkpt><trkpt lat="45.0305974" lon="11.1072702"><ele>10.333333333333332</ele><time>2026-05-01T07:16:33.742Z</time></trkpt><trkpt lat="45.0306487" lon="11.1075363"><ele>9.666666666666666</ele><time>2026-05-01T07:16:34.749Z</time></trkpt><trkpt lat="45.030701" lon="11.1077994"><ele>9.0</ele><time>2026-05-01T07:16:35.743Z</time></trkpt><trkpt lat="45.0307555" lon="11.1080651"><ele>9.0</ele><time>2026-05-01T07:16:36.752Z</time></trkpt><trkpt lat="45.0308079" lon="11.1083296"><ele>9.0</ele><time>2026-05-01T07:16:37.742Z</time></trkpt><trkpt lat="45.0308578" lon="11.1085962"><ele>9.0</ele><time>2026-05-01T07:16:38.742Z</time></trkpt><trkpt lat="45.0309095" lon="11.1088584"><ele>9.0</ele><time>2026-05-01T07:16:39.742Z</time></trkpt><trkpt lat="45.0309595" lon="11.1091152"><ele>9.0</ele><time>2026-05-01T07:16:40.746Z</time></trkpt><trkpt lat="45.0310087" lon="11.1093645"><ele>9.0</ele><time>2026-05-01T07:16:41.747Z</time></trkpt><trkpt lat="45.0310562" lon="11.1096119"><ele>9.0</ele><time>2026-05-01T07:16:42.75Z</time></trkpt><trkpt lat="45.031103" lon="11.1098575"><ele>9.0</ele><time>2026-05-01T07:16:43.752Z</time></trkpt><trkpt lat="45.0311503" lon="11.1101004"><ele>9.0</ele><time>2026-05-01T07:16:44.749Z</time></trkpt><trkpt lat="45.0311971" lon="11.1103434"><ele>9.0</ele><time>2026-05-01T07:16:45.749Z</time></trkpt><trkpt lat="45.0312446" lon="11.1105856"><ele>9.0</ele><time>2026-05-01T07:16:46.752Z</time></trkpt><trkpt lat="45.0312906" lon="11.1108265"><ele>9.0</ele><time>2026-05-01T07:16:47.75Z</time></trkpt><trkpt lat="45.0313389" lon="11.111065"><ele>9.0</ele><time>2026-05-01T07:16:48.747Z</time></trkpt><trkpt lat="45.0313889" lon="11.1113017"><ele>9.0</ele><time>2026-05-01T07:16:49.747Z</time></trkpt><trkpt lat="45.0314357" lon="11.1115359"><ele>9.0</ele><time>2026-05-01T07:16:50.751Z</time></trkpt><trkpt lat="45.0314796" lon="11.1117665"><ele>9.333333333333334</ele><time>2026-05-01T07:16:51.751Z</time></trkpt><trkpt lat="45.0315234" lon="11.1119955"><ele>9.666666666666668</ele><time>2026-05-01T07:16:52.747Z</time></trkpt><trkpt lat="45.0315681" lon="11.1122254"><ele>10.0</ele><time>2026-05-01T07:16:53.751Z</time></trkpt><trkpt lat="45.0316144" lon="11.11245"><ele>10.333333333333334</ele><time>2026-05-01T07:16:54.746Z</time></trkpt><trkpt lat="45.031663" lon="11.1126744"><ele>10.666666666666666</ele><time>2026-05-01T07:16:55.742Z</time></trkpt><trkpt lat="45.0317115" lon="11.1129"><ele>11.0</ele><time>2026-05-01T07:16:56.745Z</time></trkpt><trkpt lat="45.0317591" lon="11.1131244"><ele>10.666666666666666</ele><time>2026-05-01T07:16:57.743Z</time></trkpt><trkpt lat="45.0318082" lon="11.1133492"><ele>10.333333333333334</ele><time>2026-05-01T07:16:58.741Z</time></trkpt><trkpt lat="45.0318603" lon="11.1135765"><ele>10.0</ele><time>2026-05-01T07:16:59.748Z</time></trkpt><trkpt lat="45.0319152" lon="11.1138059"><ele>10.0</ele><time>2026-05-01T07:17:00.752Z</time></trkpt><trkpt lat="45.0319722" lon="11.1140352"><ele>10.0</ele><time>2026-05-01T07:17:01.745Z</time></trkpt><trkpt lat="45.0320305" lon="11.1142696"><ele>10.0</ele><time>2026-05-01T07:17:02.743Z</time></trkpt><trkpt lat="45.0320915" lon="11.1145084"><ele>10.333333333333334</ele><time>2026-05-01T07:17:03.75Z</time></trkpt><trkpt lat="45.0321568" lon="11.1147466"><ele>10.666666666666666</ele><time>2026-05-01T07:17:04.743Z</time></trkpt><trkpt lat="45.0322265" lon="11.1149862"><ele>11.0</ele><time>2026-05-01T07:17:05.744Z</time></trkpt><trkpt lat="45.032302" lon="11.1152235"><ele>11.0</ele><time>2026-05-01T07:17:06.752Z</time></trkpt><trkpt lat="45.0323783" lon="11.1154589"><ele>11.0</ele><time>2026-05-01T07:17:07.751Z</time></trkpt><trkpt lat="45.0324548" lon="11.1156916"><ele>11.0</ele><time>2026-05-01T07:17:08.741Z</time></trkpt><trkpt lat="45.032529" lon="11.1159181"><ele>11.0</ele><time>2026-05-01T07:17:09.752Z</time></trkpt><trkpt lat="45.0325991" lon="11.116126"><ele>11.0</ele><time>2026-05-01T07:17:10.753Z</time></trkpt><trkpt lat="45.0326662" lon="11.1163161"><ele>11.0</ele><time>2026-05-01T07:17:11.751Z</time></trkpt><trkpt lat="45.0327287" lon="11.1164863"><ele>11.0</ele><time>2026-05-01T07:17:12.752Z</time></trkpt><trkpt lat="45.032783" lon="11.1166391"><ele>10.8</ele><time>2026-05-01T07:17:13.752Z</time></trkpt><trkpt lat="45.0328096" lon="11.1167823"><ele>10.600000000000001</ele><time>2026-05-01T07:17:14.748Z</time></trkpt><trkpt lat="45.0328" lon="11.1169204"><ele>10.4</ele><time>2026-05-01T07:17:15.755Z</time></trkpt><trkpt lat="45.0327516" lon="11.1170313"><ele>10.2</ele><time>2026-05-01T07:17:16.746Z</time></trkpt><trkpt lat="45.0326754" lon="11.1171115"><ele>10.0</ele><time>2026-05-01T07:17:17.742Z</time></trkpt><trkpt lat="45.0325913" lon="11.1171817"><ele>10.0</ele><time>2026-05-01T07:17:18.747Z</time></trkpt><trkpt lat="45.0324759" lon="11.1172264"><ele>10.0</ele><time>2026-05-01T07:17:19.745Z</time></trkpt><trkpt lat="45.032349" lon="11.1172753"><ele>10.0</ele><time>2026-05-01T07:17:20.749Z</time></trkpt><trkpt lat="45.0322141" lon="11.1173326"><ele>10.0</ele><time>2026-05-01T07:17:21.745Z</time></trkpt><trkpt lat="45.0320736" lon="11.1173954"><ele>10.333333333333334</ele><time>2026-05-01T07:17:22.741Z</time></trkpt><trkpt lat="45.0319238" lon="11.1174546"><ele>10.666666666666666</ele><time>2026-05-01T07:17:23.745Z</time></trkpt><trkpt lat="45.031766" lon="11.1175154"><ele>11.0</ele><time>2026-05-01T07:17:24.749Z</time></trkpt><trkpt lat="45.0316085" lon="11.1175839"><ele>11.333333333333332</ele><time>2026-05-01T07:17:25.751Z</time></trkpt><trkpt lat="45.0314519" lon="11.1176596"><ele>11.666666666666666</ele><time>2026-05-01T07:17:26.755Z</time></trkpt><trkpt lat="45.0312912" lon="11.117748"><ele>12.0</ele><time>2026-05-01T07:17:27.742Z</time></trkpt><trkpt lat="45.0311231" lon="11.1178472"><ele>12.0</ele><time>2026-05-01T07:17:28.749Z</time></trkpt><trkpt lat="45.0309451" lon="11.117952"><ele>12.0</ele><time>2026-05-01T07:17:29.746Z</time></trkpt><trkpt lat="45.0307646" lon="11.1180595"><ele>12.0</ele><time>2026-05-01T07:17:30.751Z</time></trkpt><trkpt lat="45.0305836" lon="11.1181746"><ele>12.0</ele><time>2026-05-01T07:17:31.752Z</time></trkpt><trkpt lat="45.0303932" lon="11.1182958"><ele>12.0</ele><time>2026-05-01T07:17:32.744Z</time></trkpt><trkpt lat="45.0302002" lon="11.1184222"><ele>12.0</ele><time>2026-05-01T07:17:33.748Z</time></trkpt><trkpt lat="45.0300067" lon="11.1185496"><ele>11.666666666666666</ele><time>2026-05-01T07:17:34.742Z</time></trkpt><trkpt lat="45.0298113" lon="11.1186792"><ele>11.333333333333332</ele><time>2026-05-01T07:17:35.746Z</time></trkpt><trkpt lat="45.0296165" lon="11.1188111"><ele>11.0</ele><time>2026-05-01T07:17:36.749Z</time></trkpt><trkpt lat="45.0294201" lon="11.1189432"><ele>11.333333333333332</ele><time>2026-05-01T07:17:37.749Z</time></trkpt><trkpt lat="45.0292209" lon="11.1190745"><ele>11.666666666666666</ele><time>2026-05-01T07:17:38.748Z</time></trkpt><trkpt lat="45.0290215" lon="11.1192038"><ele>12.0</ele><time>2026-05-01T07:17:39.748Z</time></trkpt><trkpt lat="45.0288224" lon="11.1193351"><ele>12.0</ele><time>2026-05-01T07:17:40.75Z</time></trkpt><trkpt lat="45.0286231" lon="11.1194672"><ele>12.0</ele><time>2026-05-01T07:17:41.747Z</time></trkpt><trkpt lat="45.0284233" lon="11.1196004"><ele>12.0</ele><time>2026-05-01T07:17:42.743Z</time></trkpt><trkpt lat="45.0282214" lon="11.1197325"><ele>12.0</ele><time>2026-05-01T07:17:43.749Z</time></trkpt><trkpt lat="45.0280221" lon="11.1198621"><ele>12.0</ele><time>2026-05-01T07:17:44.751Z</time></trkpt><trkpt lat="45.0278237" lon="11.1199925"><ele>12.0</ele><time>2026-05-01T07:17:45.75Z</time></trkpt><trkpt lat="45.0276261" lon="11.1201221"><ele>11.666666666666666</ele><time>2026-05-01T07:17:46.753Z</time></trkpt><trkpt lat="45.0274285" lon="11.1202512"><ele>11.333333333333332</ele><time>2026-05-01T07:17:47.75Z</time></trkpt><trkpt lat="45.0272293" lon="11.1203836"><ele>11.0</ele><time>2026-05-01T07:17:48.75Z</time></trkpt><trkpt lat="45.0270305" lon="11.120517"><ele>11.0</ele><time>2026-05-01T07:17:49.753Z</time></trkpt><trkpt lat="45.0268306" lon="11.1206488"><ele>11.0</ele><time>2026-05-01T07:17:50.758Z</time></trkpt><trkpt lat="45.0266315" lon="11.1207829"><ele>11.0</ele><time>2026-05-01T07:17:51.752Z</time></trkpt><trkpt lat="45.0264313" lon="11.120918"><ele>11.0</ele><time>2026-05-01T07:17:52.752Z</time></trkpt><trkpt lat="45.0262323" lon="11.1210513"><ele>11.0</ele><time>2026-05-01T07:17:53.748Z</time></trkpt><trkpt lat="45.0260322" lon="11.1211856"><ele>11.0</ele><time>2026-05-01T07:17:54.748Z</time></trkpt><trkpt lat="45.0258316" lon="11.121325"><ele>10.5</ele><time>2026-05-01T07:17:55.752Z</time></trkpt><trkpt lat="45.025632" lon="11.1214687"><ele>10.0</ele><time>2026-05-01T07:17:56.752Z</time></trkpt><trkpt lat="45.0254331" lon="11.1216196"><ele>10.0</ele><time>2026-05-01T07:17:57.751Z</time></trkpt><trkpt lat="45.0252378" lon="11.1217754"><ele>10.0</ele><time>2026-05-01T07:17:58.744Z</time></trkpt><trkpt lat="45.0250435" lon="11.1219366"><ele>10.0</ele><time>2026-05-01T07:17:59.749Z</time></trkpt><trkpt lat="45.0248498" lon="11.1220957"><ele>10.0</ele><time>2026-05-01T07:18:00.746Z</time></trkpt><trkpt lat="45.0246537" lon="11.1222534"><ele>10.0</ele><time>2026-05-01T07:18:01.75Z</time></trkpt><trkpt lat="45.0244598" lon="11.1224091"><ele>10.0</ele><time>2026-05-01T07:18:02.749Z</time></trkpt><trkpt lat="45.0242664" lon="11.1225658"><ele>10.0</ele><time>2026-05-01T07:18:03.751Z</time></trkpt><trkpt lat="45.0240747" lon="11.1227226"><ele>10.0</ele><time>2026-05-01T07:18:04.748Z</time></trkpt><trkpt lat="45.0238817" lon="11.1228793"><ele>10.0</ele><time>2026-05-01T07:18:05.753Z</time></trkpt><trkpt lat="45.0236928" lon="11.1230358"><ele>10.0</ele><time>2026-05-01T07:18:06.748Z</time></trkpt><trkpt lat="45.0235064" lon="11.1231936"><ele>10.0</ele><time>2026-05-01T07:18:07.747Z</time></trkpt><trkpt lat="45.0233189" lon="11.1233497"><ele>10.0</ele><time>2026-05-01T07:18:08.75Z</time></trkpt><trkpt lat="45.0231289" lon="11.1235048"><ele>10.666666666666668</ele><time>2026-05-01T07:18:09.751Z</time></trkpt><trkpt lat="45.0229389" lon="11.1236584"><ele>11.333333333333334</ele><time>2026-05-01T07:18:10.748Z</time></trkpt><trkpt lat="45.0227484" lon="11.1238109"><ele>12.0</ele><time>2026-05-01T07:18:11.749Z</time></trkpt><trkpt lat="45.0225557" lon="11.1239599"><ele>11.666666666666666</ele><time>2026-05-01T07:18:12.741Z</time></trkpt><trkpt lat="45.0223572" lon="11.1241037"><ele>11.333333333333332</ele><time>2026-05-01T07:18:13.753Z</time></trkpt><trkpt lat="45.0221558" lon="11.1242312"><ele>11.0</ele><time>2026-05-01T07:18:14.748Z</time></trkpt><trkpt lat="45.021948" lon="11.1243413"><ele>11.0</ele><time>2026-05-01T07:18:15.753Z</time></trkpt><trkpt lat="45.0217374" lon="11.1244356"><ele>11.0</ele><time>2026-05-01T07:18:16.751Z</time></trkpt><trkpt lat="45.0215255" lon="11.124527"><ele>11.0</ele><time>2026-05-01T07:18:17.743Z</time></trkpt><trkpt lat="45.0213123" lon="11.1246258"><ele>10.5</ele><time>2026-05-01T07:18:18.753Z</time></trkpt><trkpt lat="45.021102" lon="11.124731"><ele>10.0</ele><time>2026-05-01T07:18:19.748Z</time></trkpt><trkpt lat="45.0208917" lon="11.12485"><ele>10.666666666666668</ele><time>2026-05-01T07:18:20.753Z</time></trkpt><trkpt lat="45.0206833" lon="11.1249683"><ele>11.333333333333334</ele><time>2026-05-01T07:18:21.749Z</time></trkpt><trkpt lat="45.020475" lon="11.1250817"><ele>12.0</ele><time>2026-05-01T07:18:22.748Z</time></trkpt><trkpt lat="45.0202633" lon="11.1251867"><ele>12.0</ele><time>2026-05-01T07:18:23.747Z</time></trkpt><trkpt lat="45.0200467" lon="11.1252783"><ele>12.0</ele><time>2026-05-01T07:18:24.756Z</time></trkpt><trkpt lat="45.01983" lon="11.12536"><ele>12.0</ele><time>2026-05-01T07:18:25.751Z</time></trkpt><trkpt lat="45.0196133" lon="11.1254317"><ele>12.0</ele><time>2026-05-01T07:18:26.754Z</time></trkpt><trkpt lat="45.0193967" lon="11.1254883"><ele>12.0</ele><time>2026-05-01T07:18:27.75Z</time></trkpt><trkpt lat="45.01918" lon="11.1255333"><ele>12.0</ele><time>2026-05-01T07:18:28.746Z</time></trkpt><trkpt lat="45.0189667" lon="11.1255683"><ele>12.0</ele><time>2026-05-01T07:18:29.75Z</time></trkpt><trkpt lat="45.0187583" lon="11.125585"><ele>12.0</ele><time>2026-05-01T07:18:30.752Z</time></trkpt><trkpt lat="45.0185517" lon="11.12557"><ele>12.0</ele><time>2026-05-01T07:18:31.75Z</time></trkpt><trkpt lat="45.0183517" lon="11.125525"><ele>12.0</ele><time>2026-05-01T07:18:32.755Z</time></trkpt><trkpt lat="45.01815" lon="11.125465"><ele>12.0</ele><time>2026-05-01T07:18:33.752Z</time></trkpt><trkpt lat="45.0179483" lon="11.125405"><ele>12.333333333333332</ele><time>2026-05-01T07:18:34.75Z</time></trkpt><trkpt lat="45.017745" lon="11.1253483"><ele>12.666666666666666</ele><time>2026-05-01T07:18:35.75Z</time></trkpt><trkpt lat="45.01754" lon="11.1252867"><ele>13.0</ele><time>2026-05-01T07:18:36.748Z</time></trkpt><trkpt lat="45.0173367" lon="11.1252233"><ele>13.0</ele><time>2026-05-01T07:18:37.749Z</time></trkpt><trkpt lat="45.0171333" lon="11.1251567"><ele>13.0</ele><time>2026-05-01T07:18:38.742Z</time></trkpt><trkpt lat="45.0169333" lon="11.125095"><ele>13.0</ele><time>2026-05-01T07:18:39.749Z</time></trkpt><trkpt lat="45.0167367" lon="11.1250367"><ele>13.0</ele><time>2026-05-01T07:18:40.75Z</time></trkpt><trkpt lat="45.0165417" lon="11.1249783"><ele>13.0</ele><time>2026-05-01T07:18:41.75Z</time></trkpt><trkpt lat="45.0163533" lon="11.1249267"><ele>13.0</ele><time>2026-05-01T07:18:42.752Z</time></trkpt><trkpt lat="45.016175" lon="11.124885"><ele>13.0</ele><time>2026-05-01T07:18:43.749Z</time></trkpt><trkpt lat="45.0160067" lon="11.124845"><ele>13.0</ele><time>2026-05-01T07:18:44.748Z</time></trkpt><trkpt lat="45.015855" lon="11.124805"><ele>13.0</ele><time>2026-05-01T07:18:45.747Z</time></trkpt><trkpt lat="45.0157183" lon="11.12476"><ele>13.0</ele><time>2026-05-01T07:18:46.751Z</time></trkpt><trkpt lat="45.0156" lon="11.1247067"><ele>13.0</ele><time>2026-05-01T07:18:47.752Z</time></trkpt><trkpt lat="45.0154917" lon="11.12464"><ele>13.0</ele><time>2026-05-01T07:18:48.748Z</time></trkpt><trkpt lat="45.015395" lon="11.1245567"><ele>13.0</ele><time>2026-05-01T07:18:49.749Z</time></trkpt><trkpt lat="45.015305" lon="11.1244667"><ele>13.0</ele><time>2026-05-01T07:18:50.753Z</time></trkpt><trkpt lat="45.0152167" lon="11.1243717"><ele>13.0</ele><time>2026-05-01T07:18:51.752Z</time></trkpt><trkpt lat="45.0151367" lon="11.124275"><ele>13.0</ele><time>2026-05-01T07:18:52.747Z</time></trkpt><trkpt lat="45.0150667" lon="11.1241767"><ele>13.0</ele><time>2026-05-01T07:18:53.745Z</time></trkpt><trkpt lat="45.015" lon="11.12409"><ele>13.0</ele><time>2026-05-01T07:18:54.746Z</time></trkpt><trkpt lat="45.014935" lon="11.12403"><ele>12.999999999999998</ele><time>2026-05-01T07:18:55.754Z</time></trkpt><trkpt lat="45.0148667" lon="11.1240233"><ele>13.0</ele><time>2026-05-01T07:18:56.748Z</time></trkpt><trkpt lat="45.0147967" lon="11.12405"><ele>13.0</ele><time>2026-05-01T07:18:57.749Z</time></trkpt><trkpt lat="45.0147317" lon="11.1241083"><ele>13.0</ele><time>2026-05-01T07:18:58.743Z</time></trkpt><trkpt lat="45.0146683" lon="11.1241867"><ele>12.999999999999998</ele><time>2026-05-01T07:18:59.75Z</time></trkpt><trkpt lat="45.0146" lon="11.1242883"><ele>13.0</ele><time>2026-05-01T07:19:00.745Z</time></trkpt><trkpt lat="45.014525" lon="11.124405"><ele>13.0</ele><time>2026-05-01T07:19:01.747Z</time></trkpt><trkpt lat="45.0144467" lon="11.1245367"><ele>13.0</ele><time>2026-05-01T07:19:02.741Z</time></trkpt><trkpt lat="45.0143767" lon="11.1246867"><ele>13.0</ele><time>2026-05-01T07:19:03.749Z</time></trkpt><trkpt lat="45.0143083" lon="11.1248517"><ele>13.0</ele><time>2026-05-01T07:19:04.748Z</time></trkpt><trkpt lat="45.0142467" lon="11.12503"><ele>12.666666666666666</ele><time>2026-05-01T07:19:05.751Z</time></trkpt><trkpt lat="45.0141917" lon="11.1252217"><ele>12.333333333333332</ele><time>2026-05-01T07:19:06.741Z</time></trkpt><trkpt lat="45.0141383" lon="11.1254233"><ele>12.0</ele><time>2026-05-01T07:19:07.746Z</time></trkpt><trkpt lat="45.01409" lon="11.1256283"><ele>10.666666666666666</ele><time>2026-05-01T07:19:08.749Z</time></trkpt><trkpt lat="45.01404" lon="11.125845"><ele>9.333333333333332</ele><time>2026-05-01T07:19:09.746Z</time></trkpt><trkpt lat="45.013985" lon="11.1260583"><ele>8.0</ele><time>2026-05-01T07:19:10.753Z</time></trkpt><trkpt lat="45.013925" lon="11.1262783"><ele>8.0</ele><time>2026-05-01T07:19:11.752Z</time></trkpt><trkpt lat="45.0138667" lon="11.1265033"><ele>8.0</ele><time>2026-05-01T07:19:12.741Z</time></trkpt><trkpt lat="45.0138083" lon="11.1267333"><ele>8.0</ele><time>2026-05-01T07:19:13.747Z</time></trkpt><trkpt lat="45.0137533" lon="11.12697"><ele>9.0</ele><time>2026-05-01T07:19:14.741Z</time></trkpt><trkpt lat="45.0136983" lon="11.1272133"><ele>10.0</ele><time>2026-05-01T07:19:15.747Z</time></trkpt><trkpt lat="45.0136367" lon="11.1274667"><ele>11.0</ele><time>2026-05-01T07:19:16.742Z</time></trkpt><trkpt lat="45.0135683" lon="11.1277267"><ele>11.0</ele><time>2026-05-01T07:19:17.752Z</time></trkpt><trkpt lat="45.0135017" lon="11.1279917"><ele>11.0</ele><time>2026-05-01T07:19:18.75Z</time></trkpt><trkpt lat="45.0134367" lon="11.1282683"><ele>11.0</ele><time>2026-05-01T07:19:19.748Z</time></trkpt><trkpt lat="45.01337" lon="11.1285483"><ele>10.666666666666666</ele><time>2026-05-01T07:19:20.747Z</time></trkpt><trkpt lat="45.0133" lon="11.1288267"><ele>10.333333333333334</ele><time>2026-05-01T07:19:21.741Z</time></trkpt><trkpt lat="45.0132283" lon="11.129105"><ele>10.0</ele><time>2026-05-01T07:19:22.747Z</time></trkpt><trkpt lat="45.01316" lon="11.1293817"><ele>10.0</ele><time>2026-05-01T07:19:23.745Z</time></trkpt><trkpt lat="45.013085" lon="11.1296583"><ele>10.0</ele><time>2026-05-01T07:19:24.753Z</time></trkpt><trkpt lat="45.0130017" lon="11.129935"><ele>10.0</ele><time>2026-05-01T07:19:25.748Z</time></trkpt><trkpt lat="45.0129083" lon="11.1302017"><ele>10.0</ele><time>2026-05-01T07:19:26.749Z</time></trkpt><trkpt lat="45.012805" lon="11.130465"><ele>10.0</ele><time>2026-05-01T07:19:27.75Z</time></trkpt><trkpt lat="45.0127" lon="11.130725"><ele>10.0</ele><time>2026-05-01T07:19:28.744Z</time></trkpt><trkpt lat="45.01259" lon="11.1309883"><ele>10.666666666666668</ele><time>2026-05-01T07:19:29.751Z</time></trkpt><trkpt lat="45.0124767" lon="11.1312483"><ele>11.333333333333334</ele><time>2026-05-01T07:19:30.752Z</time></trkpt><trkpt lat="45.0123583" lon="11.13151"><ele>12.0</ele><time>2026-05-01T07:19:31.741Z</time></trkpt><trkpt lat="45.0122417" lon="11.1317767"><ele>12.0</ele><time>2026-05-01T07:19:32.743Z</time></trkpt><trkpt lat="45.0121267" lon="11.1320433"><ele>12.0</ele><time>2026-05-01T07:19:33.751Z</time></trkpt><trkpt lat="45.01201" lon="11.13231"><ele>12.0</ele><time>2026-05-01T07:19:34.746Z</time></trkpt><trkpt lat="45.011895" lon="11.1325783"><ele>11.333333333333334</ele><time>2026-05-01T07:19:35.75Z</time></trkpt><trkpt lat="45.0117883" lon="11.1328567"><ele>10.666666666666668</ele><time>2026-05-01T07:19:36.749Z</time></trkpt><trkpt lat="45.011695" lon="11.1331383"><ele>10.0</ele><time>2026-05-01T07:19:37.743Z</time></trkpt><trkpt lat="45.0116083" lon="11.1334217"><ele>9.666666666666668</ele><time>2026-05-01T07:19:38.753Z</time></trkpt><trkpt lat="45.0115233" lon="11.13371"><ele>9.333333333333334</ele><time>2026-05-01T07:19:39.748Z</time></trkpt><trkpt lat="45.0114433" lon="11.1339983"><ele>9.0</ele><time>2026-05-01T07:19:40.748Z</time></trkpt><trkpt lat="45.0113633" lon="11.1342783"><ele>9.0</ele><time>2026-05-01T07:19:41.748Z</time></trkpt><trkpt lat="45.0112833" lon="11.1345533"><ele>9.0</ele><time>2026-05-01T07:19:42.75Z</time></trkpt><trkpt lat="45.0112" lon="11.134825"><ele>9.0</ele><time>2026-05-01T07:19:43.751Z</time></trkpt><trkpt lat="45.0111083" lon="11.135095"><ele>9.0</ele><time>2026-05-01T07:19:44.749Z</time></trkpt><trkpt lat="45.0110083" lon="11.1353583"><ele>9.0</ele><time>2026-05-01T07:19:45.752Z</time></trkpt><trkpt lat="45.0109033" lon="11.1356167"><ele>9.0</ele><time>2026-05-01T07:19:46.748Z</time></trkpt><trkpt lat="45.010795" lon="11.135875"><ele>9.333333333333334</ele><time>2026-05-01T07:19:47.749Z</time></trkpt><trkpt lat="45.010685" lon="11.1361267"><ele>9.666666666666668</ele><time>2026-05-01T07:19:48.749Z</time></trkpt><trkpt lat="45.0105717" lon="11.1363783"><ele>10.0</ele><time>2026-05-01T07:19:49.747Z</time></trkpt><trkpt lat="45.0104583" lon="11.1366267"><ele>10.0</ele><time>2026-05-01T07:19:50.747Z</time></trkpt><trkpt lat="45.01034" lon="11.13687"><ele>10.0</ele><time>2026-05-01T07:19:51.751Z</time></trkpt><trkpt lat="45.0102133" lon="11.137105"><ele>10.0</ele><time>2026-05-01T07:19:52.749Z</time></trkpt><trkpt lat="45.0100783" lon="11.1373283"><ele>9.666666666666668</ele><time>2026-05-01T07:19:53.755Z</time></trkpt><trkpt lat="45.009935" lon="11.1375433"><ele>9.333333333333334</ele><time>2026-05-01T07:19:54.758Z</time></trkpt><trkpt lat="45.0097867" lon="11.1377533"><ele>9.0</ele><time>2026-05-01T07:19:55.752Z</time></trkpt><trkpt lat="45.0096383" lon="11.1379583"><ele>9.0</ele><time>2026-05-01T07:19:56.755Z</time></trkpt><trkpt lat="45.009485" lon="11.138165"><ele>9.0</ele><time>2026-05-01T07:19:57.75Z</time></trkpt><trkpt lat="45.0093367" lon="11.1383717"><ele>9.0</ele><time>2026-05-01T07:19:58.746Z</time></trkpt><trkpt lat="45.0091917" lon="11.1385867"><ele>9.0</ele><time>2026-05-01T07:19:59.752Z</time></trkpt><trkpt lat="45.0090517" lon="11.138805"><ele>9.0</ele><time>2026-05-01T07:20:00.751Z</time></trkpt><trkpt lat="45.00892" lon="11.1390317"><ele>9.0</ele><time>2026-05-01T07:20:01.748Z</time></trkpt><trkpt lat="45.008795" lon="11.1392683"><ele>9.0</ele><time>2026-05-01T07:20:02.75Z</time></trkpt><trkpt lat="45.0086783" lon="11.1395117"><ele>9.0</ele><time>2026-05-01T07:20:03.751Z</time></trkpt><trkpt lat="45.0085683" lon="11.13977"><ele>9.0</ele><time>2026-05-01T07:20:04.75Z</time></trkpt><trkpt lat="45.0084633" lon="11.1400383"><ele>9.333333333333334</ele><time>2026-05-01T07:20:05.754Z</time></trkpt><trkpt lat="45.008365" lon="11.140315"><ele>9.666666666666668</ele><time>2026-05-01T07:20:06.754Z</time></trkpt><trkpt lat="45.0082717" lon="11.1406033"><ele>10.0</ele><time>2026-05-01T07:20:07.743Z</time></trkpt><trkpt lat="45.0081783" lon="11.1408917"><ele>10.0</ele><time>2026-05-01T07:20:08.753Z</time></trkpt><trkpt lat="45.0080833" lon="11.1411817"><ele>10.0</ele><time>2026-05-01T07:20:09.742Z</time></trkpt><trkpt lat="45.0079917" lon="11.141475"><ele>10.0</ele><time>2026-05-01T07:20:10.748Z</time></trkpt><trkpt lat="45.0078967" lon="11.141765"><ele>10.0</ele><time>2026-05-01T07:20:11.749Z</time></trkpt><trkpt lat="45.0078017" lon="11.1420567"><ele>10.0</ele><time>2026-05-01T07:20:12.749Z</time></trkpt><trkpt lat="45.0077083" lon="11.1423517"><ele>10.0</ele><time>2026-05-01T07:20:13.751Z</time></trkpt><trkpt lat="45.0076183" lon="11.1426467"><ele>10.0</ele><time>2026-05-01T07:20:14.749Z</time></trkpt><trkpt lat="45.0075283" lon="11.1429417"><ele>10.0</ele><time>2026-05-01T07:20:15.749Z</time></trkpt><trkpt lat="45.0074383" lon="11.143235"><ele>9.5</ele><time>2026-05-01T07:20:16.752Z</time></trkpt><trkpt lat="45.0073417" lon="11.143525"><ele>9.0</ele><time>2026-05-01T07:20:17.748Z</time></trkpt><trkpt lat="45.0072383" lon="11.1438083"><ele>9.5</ele><time>2026-05-01T07:20:18.742Z</time></trkpt><trkpt lat="45.0071283" lon="11.14409"><ele>10.0</ele><time>2026-05-01T07:20:19.756Z</time></trkpt><trkpt lat="45.00702" lon="11.144365"><ele>10.0</ele><time>2026-05-01T07:20:20.75Z</time></trkpt><trkpt lat="45.0069117" lon="11.1446433"><ele>10.0</ele><time>2026-05-01T07:20:21.752Z</time></trkpt><trkpt lat="45.0068017" lon="11.1449217"><ele>10.333333333333334</ele><time>2026-05-01T07:20:22.749Z</time></trkpt><trkpt lat="45.006695" lon="11.1452"><ele>10.666666666666666</ele><time>2026-05-01T07:20:23.75Z</time></trkpt><trkpt lat="45.0065867" lon="11.1454767"><ele>11.0</ele><time>2026-05-01T07:20:24.753Z</time></trkpt><trkpt lat="45.0064817" lon="11.1457483"><ele>11.0</ele><time>2026-05-01T07:20:25.75Z</time></trkpt><trkpt lat="45.0063833" lon="11.1460217"><ele>11.0</ele><time>2026-05-01T07:20:26.741Z</time></trkpt><trkpt lat="45.0063" lon="11.1463017"><ele>11.0</ele><time>2026-05-01T07:20:27.741Z</time></trkpt><trkpt lat="45.006235" lon="11.146585"><ele>11.0</ele><time>2026-05-01T07:20:28.746Z</time></trkpt><trkpt lat="45.006185" lon="11.146875"><ele>11.0</ele><time>2026-05-01T07:20:29.744Z</time></trkpt><trkpt lat="45.0061517" lon="11.147175"><ele>11.0</ele><time>2026-05-01T07:20:30.752Z</time></trkpt><trkpt lat="45.0061283" lon="11.1474733"><ele>11.0</ele><time>2026-05-01T07:20:31.747Z</time></trkpt><trkpt lat="45.0061083" lon="11.147775"><ele>11.0</ele><time>2026-05-01T07:20:32.743Z</time></trkpt><trkpt lat="45.0060867" lon="11.1480767"><ele>11.0</ele><time>2026-05-01T07:20:33.743Z</time></trkpt><trkpt lat="45.00606" lon="11.148375"><ele>11.0</ele><time>2026-05-01T07:20:34.74Z</time></trkpt><trkpt lat="45.0060217" lon="11.14866"><ele>11.0</ele><time>2026-05-01T07:20:35.745Z</time></trkpt><trkpt lat="45.0059817" lon="11.14892"><ele>11.0</ele><time>2026-05-01T07:20:36.751Z</time></trkpt><trkpt lat="45.0059417" lon="11.1491717"><ele>11.0</ele><time>2026-05-01T07:20:37.748Z</time></trkpt><trkpt lat="45.005895" lon="11.1494117"><ele>11.0</ele><time>2026-05-01T07:20:38.746Z</time></trkpt><trkpt lat="45.00584" lon="11.14964"><ele>11.0</ele><time>2026-05-01T07:20:39.745Z</time></trkpt><trkpt lat="45.0057833" lon="11.1498683"><ele>11.0</ele><time>2026-05-01T07:20:40.748Z</time></trkpt><trkpt lat="45.005725" lon="11.150095"><ele>11.0</ele><time>2026-05-01T07:20:41.751Z</time></trkpt><trkpt lat="45.0056717" lon="11.1503217"><ele>11.0</ele><time>2026-05-01T07:20:42.747Z</time></trkpt><trkpt lat="45.0056133" lon="11.1505433"><ele>11.0</ele><time>2026-05-01T07:20:43.75Z</time></trkpt><trkpt lat="45.0055583" lon="11.1507633"><ele>11.0</ele><time>2026-05-01T07:20:44.753Z</time></trkpt><trkpt lat="45.005505" lon="11.15099"><ele>11.0</ele><time>2026-05-01T07:20:45.742Z</time></trkpt><trkpt lat="45.00546" lon="11.1512233"><ele>11.0</ele><time>2026-05-01T07:20:46.751Z</time></trkpt><trkpt lat="45.0054217" lon="11.1514617"><ele>11.0</ele><time>2026-05-01T07:20:47.741Z</time></trkpt><trkpt lat="45.005385" lon="11.1517033"><ele>11.0</ele><time>2026-05-01T07:20:48.743Z</time></trkpt><trkpt lat="45.005345" lon="11.1519467"><ele>11.0</ele><time>2026-05-01T07:20:49.782Z</time></trkpt><trkpt lat="45.0053017" lon="11.152195"><ele>11.0</ele><time>2026-05-01T07:20:50.749Z</time></trkpt><trkpt lat="45.0052633" lon="11.152445"><ele>11.0</ele><time>2026-05-01T07:20:51.747Z</time></trkpt><trkpt lat="45.0052233" lon="11.152695"><ele>11.0</ele><time>2026-05-01T07:20:52.75Z</time></trkpt><trkpt lat="45.0051833" lon="11.1529433"><ele>11.0</ele><time>2026-05-01T07:20:53.75Z</time></trkpt><trkpt lat="45.005145" lon="11.1531933"><ele>11.0</ele><time>2026-05-01T07:20:54.754Z</time></trkpt><trkpt lat="45.0051033" lon="11.1534433"><ele>10.666666666666666</ele><time>2026-05-01T07:20:55.741Z</time></trkpt><trkpt lat="45.00507" lon="11.153695"><ele>10.333333333333334</ele><time>2026-05-01T07:20:56.747Z</time></trkpt><trkpt lat="45.0050367" lon="11.1539433"><ele>10.0</ele><time>2026-05-01T07:20:57.749Z</time></trkpt><trkpt lat="45.0050033" lon="11.1541983"><ele>10.0</ele><time>2026-05-01T07:20:58.75Z</time></trkpt><trkpt lat="45.0049667" lon="11.15445"><ele>10.0</ele><time>2026-05-01T07:20:59.749Z</time></trkpt><trkpt lat="45.0049283" lon="11.154705"><ele>10.0</ele><time>2026-05-01T07:21:00.75Z</time></trkpt><trkpt lat="45.0048917" lon="11.15496"><ele>10.0</ele><time>2026-05-01T07:21:01.751Z</time></trkpt><trkpt lat="45.0048417" lon="11.155215"><ele>10.0</ele><time>2026-05-01T07:21:02.75Z</time></trkpt><trkpt lat="45.0047967" lon="11.155475"><ele>10.0</ele><time>2026-05-01T07:21:03.749Z</time></trkpt><trkpt lat="45.0047467" lon="11.1557333"><ele>10.333333333333334</ele><time>2026-05-01T07:21:04.746Z</time></trkpt><trkpt lat="45.0046983" lon="11.1559933"><ele>10.666666666666666</ele><time>2026-05-01T07:21:05.742Z</time></trkpt><trkpt lat="45.00465" lon="11.1562533"><ele>11.0</ele><time>2026-05-01T07:21:06.747Z</time></trkpt><trkpt lat="45.0046017" lon="11.1565183"><ele>11.0</ele><time>2026-05-01T07:21:07.741Z</time></trkpt><trkpt lat="45.0045517" lon="11.1567833"><ele>11.0</ele><time>2026-05-01T07:21:08.745Z</time></trkpt><trkpt lat="45.0045" lon="11.1570483"><ele>11.0</ele><time>2026-05-01T07:21:09.749Z</time></trkpt><trkpt lat="45.0044467" lon="11.1573133"><ele>10.333333333333332</ele><time>2026-05-01T07:21:10.751Z</time></trkpt><trkpt lat="45.0043917" lon="11.1575817"><ele>9.666666666666666</ele><time>2026-05-01T07:21:11.755Z</time></trkpt><trkpt lat="45.0043383" lon="11.1578567"><ele>9.0</ele><time>2026-05-01T07:21:12.748Z</time></trkpt><trkpt lat="45.0042833" lon="11.1581333"><ele>9.0</ele><time>2026-05-01T07:21:13.747Z</time></trkpt><trkpt lat="45.0042317" lon="11.1584133"><ele>9.0</ele><time>2026-05-01T07:21:14.75Z</time></trkpt><trkpt lat="45.00418" lon="11.1586933"><ele>9.0</ele><time>2026-05-01T07:21:15.749Z</time></trkpt><trkpt lat="45.0041283" lon="11.158975"><ele>8.0</ele><time>2026-05-01T07:21:16.746Z</time></trkpt><trkpt lat="45.0040733" lon="11.1592583"><ele>7.0</ele><time>2026-05-01T07:21:17.742Z</time></trkpt><trkpt lat="45.0040183" lon="11.1595433"><ele>6.0</ele><time>2026-05-01T07:21:18.742Z</time></trkpt><trkpt lat="45.003965" lon="11.15983"><ele>6.666666666666666</ele><time>2026-05-01T07:21:19.753Z</time></trkpt><trkpt lat="45.0039133" lon="11.1601183"><ele>7.333333333333333</ele><time>2026-05-01T07:21:20.752Z</time></trkpt><trkpt lat="45.0038667" lon="11.1604083"><ele>8.0</ele><time>2026-05-01T07:21:21.743Z</time></trkpt><trkpt lat="45.0038267" lon="11.1607033"><ele>8.666666666666666</ele><time>2026-05-01T07:21:22.746Z</time></trkpt><trkpt lat="45.0038017" lon="11.1609983"><ele>9.333333333333334</ele><time>2026-05-01T07:21:23.749Z</time></trkpt><trkpt lat="45.0037933" lon="11.1612933"><ele>10.0</ele><time>2026-05-01T07:21:24.747Z</time></trkpt><trkpt lat="45.0038017" lon="11.1615883"><ele>10.0</ele><time>2026-05-01T07:21:25.746Z</time></trkpt><trkpt lat="45.003825" lon="11.16188"><ele>10.0</ele><time>2026-05-01T07:21:26.756Z</time></trkpt><trkpt lat="45.0038583" lon="11.162175"><ele>10.0</ele><time>2026-05-01T07:21:27.749Z</time></trkpt><trkpt lat="45.0039" lon="11.16247"><ele>10.0</ele><time>2026-05-01T07:21:28.748Z</time></trkpt><trkpt lat="45.0039467" lon="11.1627617"><ele>10.0</ele><time>2026-05-01T07:21:29.753Z</time></trkpt><trkpt lat="45.00399" lon="11.1630517"><ele>10.0</ele><time>2026-05-01T07:21:30.751Z</time></trkpt><trkpt lat="45.0040383" lon="11.16334"><ele>10.333333333333334</ele><time>2026-05-01T07:21:31.749Z</time></trkpt><trkpt lat="45.0040917" lon="11.163625"><ele>10.666666666666666</ele><time>2026-05-01T07:21:32.748Z</time></trkpt><trkpt lat="45.0041567" lon="11.1639033"><ele>11.0</ele><time>2026-05-01T07:21:33.742Z</time></trkpt><trkpt lat="45.0042367" lon="11.1641717"><ele>11.333333333333332</ele><time>2026-05-01T07:21:34.742Z</time></trkpt><trkpt lat="45.0043267" lon="11.1644317"><ele>11.666666666666666</ele><time>2026-05-01T07:21:35.751Z</time></trkpt><trkpt lat="45.0044217" lon="11.164685"><ele>12.0</ele><time>2026-05-01T07:21:36.75Z</time></trkpt><trkpt lat="45.00452" lon="11.16494"><ele>12.0</ele><time>2026-05-01T07:21:37.746Z</time></trkpt><trkpt lat="45.0046183" lon="11.1651933"><ele>12.0</ele><time>2026-05-01T07:21:38.742Z</time></trkpt><trkpt lat="45.004715" lon="11.1654467"><ele>12.0</ele><time>2026-05-01T07:21:39.749Z</time></trkpt><trkpt lat="45.004815" lon="11.1657"><ele>11.666666666666666</ele><time>2026-05-01T07:21:40.752Z</time></trkpt><trkpt lat="45.0049083" lon="11.165955"><ele>11.333333333333332</ele><time>2026-05-01T07:21:41.749Z</time></trkpt><trkpt lat="45.005" lon="11.1662117"><ele>11.0</ele><time>2026-05-01T07:21:42.751Z</time></trkpt><trkpt lat="45.0050883" lon="11.16647"><ele>10.333333333333332</ele><time>2026-05-01T07:21:43.75Z</time></trkpt><trkpt lat="45.0051633" lon="11.1667317"><ele>9.666666666666666</ele><time>2026-05-01T07:21:44.744Z</time></trkpt><trkpt lat="45.005225" lon="11.1669967"><ele>9.0</ele><time>2026-05-01T07:21:45.748Z</time></trkpt><trkpt lat="45.0052733" lon="11.16727"><ele>9.0</ele><time>2026-05-01T07:21:46.747Z</time></trkpt><trkpt lat="45.005315" lon="11.1675483"><ele>9.0</ele><time>2026-05-01T07:21:47.742Z</time></trkpt><trkpt lat="45.0053583" lon="11.167825"><ele>9.0</ele><time>2026-05-01T07:21:48.747Z</time></trkpt><trkpt lat="45.0054" lon="11.1681083"><ele>9.333333333333334</ele><time>2026-05-01T07:21:49.742Z</time></trkpt><trkpt lat="45.0054416" lon="11.1683948"><ele>9.666666666666668</ele><time>2026-05-01T07:21:50.753Z</time></trkpt><trkpt lat="45.005483" lon="11.168682"><ele>10.0</ele><time>2026-05-01T07:21:51.752Z</time></trkpt><trkpt lat="45.0055246" lon="11.1689685"><ele>10.0</ele><time>2026-05-01T07:21:52.754Z</time></trkpt><trkpt lat="45.0055674" lon="11.1692554"><ele>10.0</ele><time>2026-05-01T07:21:53.754Z</time></trkpt><trkpt lat="45.0056117" lon="11.1695438"><ele>10.0</ele><time>2026-05-01T07:21:54.75Z</time></trkpt><trkpt lat="45.0056564" lon="11.1698322"><ele>9.666666666666668</ele><time>2026-05-01T07:21:55.744Z</time></trkpt><trkpt lat="45.0057036" lon="11.1701242"><ele>9.333333333333334</ele><time>2026-05-01T07:21:56.757Z</time></trkpt><trkpt lat="45.0057491" lon="11.1704116"><ele>9.0</ele><time>2026-05-01T07:21:57.742Z</time></trkpt><trkpt lat="45.0057928" lon="11.1707025"><ele>9.333333333333334</ele><time>2026-05-01T07:21:58.75Z</time></trkpt><trkpt lat="45.005833" lon="11.1709893"><ele>9.666666666666668</ele><time>2026-05-01T07:21:59.742Z</time></trkpt><trkpt lat="45.0058739" lon="11.1712775"><ele>10.0</ele><time>2026-05-01T07:22:00.742Z</time></trkpt><trkpt lat="45.0059162" lon="11.1715663"><ele>10.0</ele><time>2026-05-01T07:22:01.747Z</time></trkpt><trkpt lat="45.0059608" lon="11.1718537"><ele>10.0</ele><time>2026-05-01T07:22:02.744Z</time></trkpt><trkpt lat="45.0060131" lon="11.1721383"><ele>10.0</ele><time>2026-05-01T07:22:03.75Z</time></trkpt><trkpt lat="45.0060772" lon="11.1724094"><ele>10.333333333333334</ele><time>2026-05-01T07:22:04.75Z</time></trkpt><trkpt lat="45.0061509" lon="11.1726642"><ele>10.666666666666666</ele><time>2026-05-01T07:22:05.749Z</time></trkpt><trkpt lat="45.0062294" lon="11.1728941"><ele>11.0</ele><time>2026-05-01T07:22:06.751Z</time></trkpt><trkpt lat="45.0063093" lon="11.1731124"><ele>10.0</ele><time>2026-05-01T07:22:07.753Z</time></trkpt><trkpt lat="45.0063856" lon="11.173325"><ele>9.0</ele><time>2026-05-01T07:22:08.751Z</time></trkpt><trkpt lat="45.0064567" lon="11.1735366"><ele>8.0</ele><time>2026-05-01T07:22:09.754Z</time></trkpt><trkpt lat="45.0065223" lon="11.1737453"><ele>8.0</ele><time>2026-05-01T07:22:10.748Z</time></trkpt><trkpt lat="45.0065794" lon="11.1739582"><ele>8.0</ele><time>2026-05-01T07:22:11.749Z</time></trkpt><trkpt lat="45.0066215" lon="11.1741765"><ele>8.0</ele><time>2026-05-01T07:22:12.749Z</time></trkpt><trkpt lat="45.0066512" lon="11.1744016"><ele>8.0</ele><time>2026-05-01T07:22:13.748Z</time></trkpt><trkpt lat="45.0066677" lon="11.1746279"><ele>8.0</ele><time>2026-05-01T07:22:14.748Z</time></trkpt><trkpt lat="45.0066766" lon="11.1748546"><ele>8.0</ele><time>2026-05-01T07:22:15.749Z</time></trkpt><trkpt lat="45.0066806" lon="11.1750815"><ele>8.333333333333332</ele><time>2026-05-01T07:22:16.748Z</time></trkpt><trkpt lat="45.0066846" lon="11.1753108"><ele>8.666666666666666</ele><time>2026-05-01T07:22:17.747Z</time></trkpt><trkpt lat="45.0066885" lon="11.1755378"><ele>9.0</ele><time>2026-05-01T07:22:18.746Z</time></trkpt><trkpt lat="45.0066925" lon="11.1757601"><ele>9.0</ele><time>2026-05-01T07:22:19.743Z</time></trkpt><trkpt lat="45.0066946" lon="11.1759771"><ele>9.0</ele><time>2026-05-01T07:22:20.742Z</time></trkpt><trkpt lat="45.0066956" lon="11.1761882"><ele>9.0</ele><time>2026-05-01T07:22:21.751Z</time></trkpt><trkpt lat="45.0066946" lon="11.1763945"><ele>9.0</ele><time>2026-05-01T07:22:22.747Z</time></trkpt><trkpt lat="45.0066906" lon="11.1765999"><ele>9.0</ele><time>2026-05-01T07:22:23.752Z</time></trkpt><trkpt lat="45.0066839" lon="11.1767995"><ele>9.0</ele><time>2026-05-01T07:22:24.741Z</time></trkpt><trkpt lat="45.0066742" lon="11.1769966"><ele>9.0</ele><time>2026-05-01T07:22:25.751Z</time></trkpt><trkpt lat="45.0066637" lon="11.1771852"><ele>9.0</ele><time>2026-05-01T07:22:26.747Z</time></trkpt><trkpt lat="45.0066499" lon="11.1773753"><ele>9.0</ele><time>2026-05-01T07:22:27.749Z</time></trkpt><trkpt lat="45.0066371" lon="11.1775677"><ele>9.0</ele><time>2026-05-01T07:22:28.75Z</time></trkpt><trkpt lat="45.0066275" lon="11.1777622"><ele>9.0</ele><time>2026-05-01T07:22:29.741Z</time></trkpt><trkpt lat="45.0066267" lon="11.1779612"><ele>9.0</ele><time>2026-05-01T07:22:30.751Z</time></trkpt><trkpt lat="45.0066407" lon="11.1781613"><ele>9.0</ele><time>2026-05-01T07:22:31.749Z</time></trkpt><trkpt lat="45.0066605" lon="11.1783578"><ele>9.0</ele><time>2026-05-01T07:22:32.752Z</time></trkpt><trkpt lat="45.0066801" lon="11.1785529"><ele>9.0</ele><time>2026-05-01T07:22:33.747Z</time></trkpt><trkpt lat="45.0066962" lon="11.178747"><ele>9.0</ele><time>2026-05-01T07:22:34.747Z</time></trkpt><trkpt lat="45.0067139" lon="11.1789444"><ele>9.25</ele><time>2026-05-01T07:22:35.747Z</time></trkpt><trkpt lat="45.006733" lon="11.1791469"><ele>9.5</ele><time>2026-05-01T07:22:36.75Z</time></trkpt><trkpt lat="45.0067539" lon="11.1793474"><ele>9.75</ele><time>2026-05-01T07:22:37.747Z</time></trkpt><trkpt lat="45.0067724" lon="11.179549"><ele>10.0</ele><time>2026-05-01T07:22:38.749Z</time></trkpt><trkpt lat="45.006787" lon="11.1797453"><ele>10.0</ele><time>2026-05-01T07:22:39.749Z</time></trkpt><trkpt lat="45.0067999" lon="11.179937"><ele>10.0</ele><time>2026-05-01T07:22:40.746Z</time></trkpt><trkpt lat="45.0068148" lon="11.1801274"><ele>10.0</ele><time>2026-05-01T07:22:41.747Z</time></trkpt><trkpt lat="45.0068163" lon="11.1803137"><ele>10.0</ele><time>2026-05-01T07:22:42.751Z</time></trkpt><trkpt lat="45.0068021" lon="11.1804983"><ele>10.0</ele><time>2026-05-01T07:22:43.749Z</time></trkpt><trkpt lat="45.0067726" lon="11.1806795"><ele>10.0</ele><time>2026-05-01T07:22:44.752Z</time></trkpt><trkpt lat="45.0067292" lon="11.1808582"><ele>10.0</ele><time>2026-05-01T07:22:45.751Z</time></trkpt><trkpt lat="45.0066762" lon="11.1810344"><ele>10.0</ele><time>2026-05-01T07:22:46.741Z</time></trkpt><trkpt lat="45.0066121" lon="11.1812073"><ele>10.25</ele><time>2026-05-01T07:22:47.747Z</time></trkpt><trkpt lat="45.0065388" lon="11.1813733"><ele>10.5</ele><time>2026-05-01T07:22:48.748Z</time></trkpt><trkpt lat="45.0064606" lon="11.1815371"><ele>10.75</ele><time>2026-05-01T07:22:49.749Z</time></trkpt><trkpt lat="45.0063824" lon="11.1816991"><ele>11.0</ele><time>2026-05-01T07:22:50.752Z</time></trkpt><trkpt lat="45.0063138" lon="11.1818674"><ele>11.0</ele><time>2026-05-01T07:22:51.752Z</time></trkpt><trkpt lat="45.0062595" lon="11.1820461"><ele>11.0</ele><time>2026-05-01T07:22:52.746Z</time></trkpt><trkpt lat="45.0062169" lon="11.1822308"><ele>11.0</ele><time>2026-05-01T07:22:53.748Z</time></trkpt><trkpt lat="45.0061846" lon="11.1824179"><ele>11.0</ele><time>2026-05-01T07:22:54.748Z</time></trkpt><trkpt lat="45.0061634" lon="11.1826071"><ele>11.0</ele><time>2026-05-01T07:22:55.747Z</time></trkpt><trkpt lat="45.0061468" lon="11.1827955"><ele>11.0</ele><time>2026-05-01T07:22:56.748Z</time></trkpt><trkpt lat="45.0061298" lon="11.182977"><ele>11.0</ele><time>2026-05-01T07:22:57.749Z</time></trkpt><trkpt lat="45.0061119" lon="11.1831517"><ele>11.0</ele><time>2026-05-01T07:22:58.748Z</time></trkpt><trkpt lat="45.0060977" lon="11.1833214"><ele>11.0</ele><time>2026-05-01T07:22:59.745Z</time></trkpt><trkpt lat="45.0060877" lon="11.1834883"><ele>11.0</ele><time>2026-05-01T07:23:00.748Z</time></trkpt><trkpt lat="45.0060807" lon="11.1836602"><ele>11.0</ele><time>2026-05-01T07:23:01.745Z</time></trkpt><trkpt lat="45.0060764" lon="11.1838467"><ele>11.0</ele><time>2026-05-01T07:23:02.744Z</time></trkpt><trkpt lat="45.0060726" lon="11.1840432"><ele>10.666666666666666</ele><time>2026-05-01T07:23:03.748Z</time></trkpt><trkpt lat="45.0060672" lon="11.1842505"><ele>10.333333333333334</ele><time>2026-05-01T07:23:04.748Z</time></trkpt><trkpt lat="45.0060639" lon="11.1844667"><ele>10.0</ele><time>2026-05-01T07:23:05.748Z</time></trkpt><trkpt lat="45.0060646" lon="11.1846866"><ele>10.0</ele><time>2026-05-01T07:23:06.754Z</time></trkpt><trkpt lat="45.0060651" lon="11.1849094"><ele>10.0</ele><time>2026-05-01T07:23:07.75Z</time></trkpt><trkpt lat="45.0060663" lon="11.1851376"><ele>10.0</ele><time>2026-05-01T07:23:08.742Z</time></trkpt><trkpt lat="45.0060665" lon="11.185375"><ele>10.0</ele><time>2026-05-01T07:23:09.752Z</time></trkpt><trkpt lat="45.0060674" lon="11.1856163"><ele>10.0</ele><time>2026-05-01T07:23:10.751Z</time></trkpt><trkpt lat="45.0060689" lon="11.1858628"><ele>10.0</ele><time>2026-05-01T07:23:11.747Z</time></trkpt><trkpt lat="45.0060732" lon="11.1861172"><ele>10.0</ele><time>2026-05-01T07:23:12.741Z</time></trkpt><trkpt lat="45.0060792" lon="11.186381"><ele>10.0</ele><time>2026-05-01T07:23:13.749Z</time></trkpt><trkpt lat="45.0060866" lon="11.1866489"><ele>10.0</ele><time>2026-05-01T07:23:14.752Z</time></trkpt><trkpt lat="45.0060919" lon="11.1869185"><ele>10.0</ele><time>2026-05-01T07:23:15.748Z</time></trkpt><trkpt lat="45.0060966" lon="11.1871928"><ele>10.0</ele><time>2026-05-01T07:23:16.742Z</time></trkpt><trkpt lat="45.0061009" lon="11.1874727"><ele>10.0</ele><time>2026-05-01T07:23:17.751Z</time></trkpt><trkpt lat="45.0061057" lon="11.1877505"><ele>9.666666666666668</ele><time>2026-05-01T07:23:18.744Z</time></trkpt><trkpt lat="45.0061077" lon="11.188034"><ele>9.333333333333334</ele><time>2026-05-01T07:23:19.755Z</time></trkpt><trkpt lat="45.0061092" lon="11.1883145"><ele>9.0</ele><time>2026-05-01T07:23:20.752Z</time></trkpt><trkpt lat="45.0061126" lon="11.1885939"><ele>9.0</ele><time>2026-05-01T07:23:21.751Z</time></trkpt><trkpt lat="45.0061127" lon="11.1888751"><ele>9.0</ele><time>2026-05-01T07:23:22.751Z</time></trkpt><trkpt lat="45.0060997" lon="11.1891557"><ele>9.0</ele><time>2026-05-01T07:23:23.75Z</time></trkpt><trkpt lat="45.0060697" lon="11.1894345"><ele>9.0</ele><time>2026-05-01T07:23:24.748Z</time></trkpt><trkpt lat="45.0060174" lon="11.1897074"><ele>9.0</ele><time>2026-05-01T07:23:25.743Z</time></trkpt><trkpt lat="45.0059458" lon="11.1899741"><ele>9.0</ele><time>2026-05-01T07:23:26.751Z</time></trkpt><trkpt lat="45.0058524" lon="11.1902262"><ele>9.0</ele><time>2026-05-01T07:23:27.756Z</time></trkpt><trkpt lat="45.0057457" lon="11.1904655"><ele>9.0</ele><time>2026-05-01T07:23:28.75Z</time></trkpt><trkpt lat="45.0056022" lon="11.1906788"><ele>9.0</ele><time>2026-05-01T07:23:29.751Z</time></trkpt><trkpt lat="45.0054604" lon="11.1908902"><ele>9.333333333333334</ele><time>2026-05-01T07:23:30.744Z</time></trkpt><trkpt lat="45.005315" lon="11.1911026"><ele>9.666666666666668</ele><time>2026-05-01T07:23:31.744Z</time></trkpt><trkpt lat="45.0051691" lon="11.1913165"><ele>10.0</ele><time>2026-05-01T07:23:32.743Z</time></trkpt><trkpt lat="45.0050235" lon="11.1915344"><ele>10.0</ele><time>2026-05-01T07:23:33.743Z</time></trkpt><trkpt lat="45.0048811" lon="11.191756"><ele>10.0</ele><time>2026-05-01T07:23:34.742Z</time></trkpt><trkpt lat="45.004734" lon="11.1919784"><ele>10.0</ele><time>2026-05-01T07:23:35.75Z</time></trkpt><trkpt lat="45.0045832" lon="11.1921941"><ele>9.666666666666668</ele><time>2026-05-01T07:23:36.753Z</time></trkpt><trkpt lat="45.0044298" lon="11.1924055"><ele>9.333333333333334</ele><time>2026-05-01T07:23:37.75Z</time></trkpt><trkpt lat="45.0042724" lon="11.1926186"><ele>9.0</ele><time>2026-05-01T07:23:38.751Z</time></trkpt><trkpt lat="45.0041149" lon="11.1928343"><ele>9.0</ele><time>2026-05-01T07:23:39.751Z</time></trkpt><trkpt lat="45.0039602" lon="11.1930515"><ele>9.0</ele><time>2026-05-01T07:23:40.745Z</time></trkpt><trkpt lat="45.0038093" lon="11.1932753"><ele>9.0</ele><time>2026-05-01T07:23:41.754Z</time></trkpt><trkpt lat="45.0036641" lon="11.1935029"><ele>9.0</ele><time>2026-05-01T07:23:42.751Z</time></trkpt><trkpt lat="45.003526" lon="11.1937416"><ele>9.0</ele><time>2026-05-01T07:23:43.753Z</time></trkpt><trkpt lat="45.0033969" lon="11.1939882"><ele>9.0</ele><time>2026-05-01T07:23:44.75Z</time></trkpt><trkpt lat="45.003283" lon="11.1942517"><ele>9.0</ele><time>2026-05-01T07:23:45.749Z</time></trkpt><trkpt lat="45.0031784" lon="11.1945228"><ele>9.0</ele><time>2026-05-01T07:23:46.75Z</time></trkpt><trkpt lat="45.0030994" lon="11.1948136"><ele>9.0</ele><time>2026-05-01T07:23:47.752Z</time></trkpt><trkpt lat="45.0030282" lon="11.1951117"><ele>8.666666666666666</ele><time>2026-05-01T07:23:48.755Z</time></trkpt><trkpt lat="45.002965" lon="11.195415"><ele>8.333333333333332</ele><time>2026-05-01T07:23:49.751Z</time></trkpt><trkpt lat="45.0029" lon="11.195715"><ele>8.0</ele><time>2026-05-01T07:23:50.751Z</time></trkpt><trkpt lat="45.0028333" lon="11.196015"><ele>8.0</ele><time>2026-05-01T07:23:51.749Z</time></trkpt><trkpt lat="45.0027683" lon="11.1963183"><ele>8.0</ele><time>2026-05-01T07:23:52.75Z</time></trkpt><trkpt lat="45.0027033" lon="11.1966183"><ele>8.0</ele><time>2026-05-01T07:23:53.75Z</time></trkpt><trkpt lat="45.0026367" lon="11.196915"><ele>8.333333333333332</ele><time>2026-05-01T07:23:54.751Z</time></trkpt><trkpt lat="45.00258" lon="11.1972067"><ele>8.666666666666666</ele><time>2026-05-01T07:23:55.75Z</time></trkpt><trkpt lat="45.0025383" lon="11.197495"><ele>9.0</ele><time>2026-05-01T07:23:56.748Z</time></trkpt><trkpt lat="45.0025233" lon="11.1977817"><ele>9.0</ele><time>2026-05-01T07:23:57.752Z</time></trkpt><trkpt lat="45.002535" lon="11.19806"><ele>9.0</ele><time>2026-05-01T07:23:58.75Z</time></trkpt><trkpt lat="45.0025567" lon="11.1983317"><ele>9.0</ele><time>2026-05-01T07:23:59.761Z</time></trkpt><trkpt lat="45.002575" lon="11.1986083"><ele>8.666666666666666</ele><time>2026-05-01T07:24:00.744Z</time></trkpt><trkpt lat="45.00257" lon="11.1988917"><ele>8.333333333333332</ele><time>2026-05-01T07:24:01.746Z</time></trkpt><trkpt lat="45.002545" lon="11.1991717"><ele>8.0</ele><time>2026-05-01T07:24:02.749Z</time></trkpt><trkpt lat="45.0024933" lon="11.1994483"><ele>8.0</ele><time>2026-05-01T07:24:03.752Z</time></trkpt><trkpt lat="45.0024283" lon="11.1997217"><ele>8.0</ele><time>2026-05-01T07:24:04.749Z</time></trkpt><trkpt lat="45.0023517" lon="11.1999883"><ele>8.0</ele><time>2026-05-01T07:24:05.751Z</time></trkpt><trkpt lat="45.00227" lon="11.2002467"><ele>8.333333333333332</ele><time>2026-05-01T07:24:06.75Z</time></trkpt><trkpt lat="45.0021783" lon="11.2004917"><ele>8.666666666666666</ele><time>2026-05-01T07:24:07.752Z</time></trkpt><trkpt lat="45.0020783" lon="11.20071"><ele>9.0</ele><time>2026-05-01T07:24:08.755Z</time></trkpt><trkpt lat="45.0019833" lon="11.2009067"><ele>9.0</ele><time>2026-05-01T07:24:09.753Z</time></trkpt><trkpt lat="45.0018983" lon="11.2010867"><ele>9.0</ele><time>2026-05-01T07:24:10.748Z</time></trkpt><trkpt lat="45.0018133" lon="11.2012483"><ele>9.0</ele><time>2026-05-01T07:24:11.742Z</time></trkpt><trkpt lat="45.0017233" lon="11.2014117"><ele>9.0</ele><time>2026-05-01T07:24:12.749Z</time></trkpt><trkpt lat="45.0016333" lon="11.2015767"><ele>9.0</ele><time>2026-05-01T07:24:13.748Z</time></trkpt><trkpt lat="45.0015383" lon="11.2017367"><ele>9.0</ele><time>2026-05-01T07:24:14.749Z</time></trkpt><trkpt lat="45.0014317" lon="11.20189"><ele>9.0</ele><time>2026-05-01T07:24:15.749Z</time></trkpt><trkpt lat="45.00131" lon="11.2020417"><ele>9.0</ele><time>2026-05-01T07:24:16.742Z</time></trkpt><trkpt lat="45.001175" lon="11.2021967"><ele>9.0</ele><time>2026-05-01T07:24:17.748Z</time></trkpt><trkpt lat="45.0010333" lon="11.20235"><ele>9.0</ele><time>2026-05-01T07:24:18.754Z</time></trkpt><trkpt lat="45.000885" lon="11.2025017"><ele>9.333333333333334</ele><time>2026-05-01T07:24:19.752Z</time></trkpt><trkpt lat="45.0007333" lon="11.2026383"><ele>9.666666666666668</ele><time>2026-05-01T07:24:20.744Z</time></trkpt><trkpt lat="45.00057" lon="11.2027767"><ele>10.0</ele><time>2026-05-01T07:24:21.752Z</time></trkpt><trkpt lat="45.0004" lon="11.2028917"><ele>10.0</ele><time>2026-05-01T07:24:22.742Z</time></trkpt><trkpt lat="45.00022" lon="11.2029833"><ele>10.0</ele><time>2026-05-01T07:24:23.75Z</time></trkpt><trkpt lat="45.00003" lon="11.2030467"><ele>10.0</ele><time>2026-05-01T07:24:24.75Z</time></trkpt><trkpt lat="44.9998417" lon="11.2030933"><ele>10.0</ele><time>2026-05-01T07:24:25.746Z</time></trkpt><trkpt lat="44.9996533" lon="11.2031317"><ele>10.0</ele><time>2026-05-01T07:24:26.746Z</time></trkpt><trkpt lat="44.9994633" lon="11.2031783"><ele>10.0</ele><time>2026-05-01T07:24:27.749Z</time></trkpt><trkpt lat="44.99928" lon="11.2032467"><ele>10.0</ele><time>2026-05-01T07:24:28.743Z</time></trkpt><trkpt lat="44.9991067" lon="11.20335"><ele>10.0</ele><time>2026-05-01T07:24:29.743Z</time></trkpt><trkpt lat="44.9989433" lon="11.20349"><ele>10.0</ele><time>2026-05-01T07:24:30.743Z</time></trkpt><trkpt lat="44.99879" lon="11.203645"><ele>10.0</ele><time>2026-05-01T07:24:31.743Z</time></trkpt><trkpt lat="44.9986417" lon="11.2038133"><ele>10.0</ele><time>2026-05-01T07:24:32.749Z</time></trkpt><trkpt lat="44.998495" lon="11.2039867"><ele>10.0</ele><time>2026-05-01T07:24:33.756Z</time></trkpt><trkpt lat="44.9983517" lon="11.2041667"><ele>10.0</ele><time>2026-05-01T07:24:34.749Z</time></trkpt><trkpt lat="44.9982167" lon="11.2043617"><ele>10.0</ele><time>2026-05-01T07:24:35.752Z</time></trkpt><trkpt lat="44.99809" lon="11.204575"><ele>10.0</ele><time>2026-05-01T07:24:36.753Z</time></trkpt><trkpt lat="44.9979767" lon="11.20481"><ele>9.666666666666668</ele><time>2026-05-01T07:24:37.741Z</time></trkpt><trkpt lat="44.9978767" lon="11.2050567"><ele>9.333333333333334</ele><time>2026-05-01T07:24:38.743Z</time></trkpt><trkpt lat="44.997785" lon="11.20532"><ele>9.0</ele><time>2026-05-01T07:24:39.754Z</time></trkpt><trkpt lat="44.997705" lon="11.2055867"><ele>9.0</ele><time>2026-05-01T07:24:40.743Z</time></trkpt><trkpt lat="44.9976333" lon="11.205865"><ele>9.0</ele><time>2026-05-01T07:24:41.748Z</time></trkpt><trkpt lat="44.9975583" lon="11.206145"><ele>9.0</ele><time>2026-05-01T07:24:42.754Z</time></trkpt><trkpt lat="44.997475" lon="11.2064233"><ele>8.666666666666666</ele><time>2026-05-01T07:24:43.749Z</time></trkpt><trkpt lat="44.9973817" lon="11.2066967"><ele>8.333333333333332</ele><time>2026-05-01T07:24:44.748Z</time></trkpt><trkpt lat="44.9972817" lon="11.2069633"><ele>8.0</ele><time>2026-05-01T07:24:45.755Z</time></trkpt><trkpt lat="44.99717" lon="11.2072217"><ele>8.333333333333332</ele><time>2026-05-01T07:24:46.75Z</time></trkpt><trkpt lat="44.9970383" lon="11.20746"><ele>8.666666666666666</ele><time>2026-05-01T07:24:47.75Z</time></trkpt><trkpt lat="44.99689" lon="11.2076833"><ele>9.0</ele><time>2026-05-01T07:24:48.75Z</time></trkpt><trkpt lat="44.99673" lon="11.2078933"><ele>9.0</ele><time>2026-05-01T07:24:49.75Z</time></trkpt><trkpt lat="44.9965617" lon="11.2080933"><ele>9.0</ele><time>2026-05-01T07:24:50.748Z</time></trkpt><trkpt lat="44.9963883" lon="11.2082933"><ele>9.0</ele><time>2026-05-01T07:24:51.752Z</time></trkpt><trkpt lat="44.9962167" lon="11.20849"><ele>9.0</ele><time>2026-05-01T07:24:52.753Z</time></trkpt><trkpt lat="44.9960417" lon="11.208685"><ele>9.0</ele><time>2026-05-01T07:24:53.749Z</time></trkpt><trkpt lat="44.99586" lon="11.208865"><ele>9.0</ele><time>2026-05-01T07:24:54.749Z</time></trkpt><trkpt lat="44.9956683" lon="11.2090317"><ele>9.0</ele><time>2026-05-01T07:24:55.75Z</time></trkpt><trkpt lat="44.9954783" lon="11.2091983"><ele>9.0</ele><time>2026-05-01T07:24:56.745Z</time></trkpt><trkpt lat="44.9952967" lon="11.2093883"><ele>9.0</ele><time>2026-05-01T07:24:57.749Z</time></trkpt><trkpt lat="44.9951317" lon="11.2095983"><ele>8.666666666666666</ele><time>2026-05-01T07:24:58.749Z</time></trkpt><trkpt lat="44.9949783" lon="11.2098183"><ele>8.333333333333332</ele><time>2026-05-01T07:24:59.744Z</time></trkpt><trkpt lat="44.994835" lon="11.2100317"><ele>8.0</ele><time>2026-05-01T07:25:00.746Z</time></trkpt><trkpt lat="44.994695" lon="11.2102233"><ele>8.0</ele><time>2026-05-01T07:25:01.75Z</time></trkpt><trkpt lat="44.9945483" lon="11.2103867"><ele>8.0</ele><time>2026-05-01T07:25:02.75Z</time></trkpt><trkpt lat="44.99439" lon="11.2105167"><ele>8.0</ele><time>2026-05-01T07:25:03.748Z</time></trkpt><trkpt lat="44.9942183" lon="11.2106017"><ele>9.333333333333332</ele><time>2026-05-01T07:25:04.748Z</time></trkpt><trkpt lat="44.9940367" lon="11.21066"><ele>10.666666666666666</ele><time>2026-05-01T07:25:05.753Z</time></trkpt><trkpt lat="44.993845" lon="11.2106917"><ele>12.0</ele><time>2026-05-01T07:25:06.75Z</time></trkpt><trkpt lat="44.993645" lon="11.2107117"><ele>12.0</ele><time>2026-05-01T07:25:07.75Z</time></trkpt><trkpt lat="44.9934367" lon="11.2107183"><ele>12.0</ele><time>2026-05-01T07:25:08.753Z</time></trkpt><trkpt lat="44.9932233" lon="11.2107217"><ele>12.0</ele><time>2026-05-01T07:25:09.758Z</time></trkpt><trkpt lat="44.9930117" lon="11.2107283"><ele>11.0</ele><time>2026-05-01T07:25:10.747Z</time></trkpt><trkpt lat="44.9928067" lon="11.2107383"><ele>10.0</ele><time>2026-05-01T07:25:11.751Z</time></trkpt><trkpt lat="44.99261" lon="11.210775"><ele>9.0</ele><time>2026-05-01T07:25:12.75Z</time></trkpt><trkpt lat="44.99242" lon="11.210845"><ele>8.666666666666666</ele><time>2026-05-01T07:25:13.748Z</time></trkpt><trkpt lat="44.99224" lon="11.21095"><ele>8.333333333333332</ele><time>2026-05-01T07:25:14.752Z</time></trkpt><trkpt lat="44.992075" lon="11.2110867"><ele>8.0</ele><time>2026-05-01T07:25:15.745Z</time></trkpt><trkpt lat="44.9919183" lon="11.2112483"><ele>8.0</ele><time>2026-05-01T07:25:16.748Z</time></trkpt><trkpt lat="44.9917667" lon="11.2114283"><ele>8.0</ele><time>2026-05-01T07:25:17.748Z</time></trkpt><trkpt lat="44.9916133" lon="11.211625"><ele>8.0</ele><time>2026-05-01T07:25:18.751Z</time></trkpt><trkpt lat="44.99146" lon="11.2118333"><ele>8.333333333333332</ele><time>2026-05-01T07:25:19.747Z</time></trkpt><trkpt lat="44.991305" lon="11.212045"><ele>8.666666666666666</ele><time>2026-05-01T07:25:20.742Z</time></trkpt><trkpt lat="44.9911433" lon="11.2122567"><ele>9.0</ele><time>2026-05-01T07:25:21.742Z</time></trkpt><trkpt lat="44.9909817" lon="11.21247"><ele>8.5</ele><time>2026-05-01T07:25:22.743Z</time></trkpt><trkpt lat="44.9908167" lon="11.212685"><ele>8.0</ele><time>2026-05-01T07:25:23.743Z</time></trkpt><trkpt lat="44.99065" lon="11.2129033"><ele>8.0</ele><time>2026-05-01T07:25:24.744Z</time></trkpt><trkpt lat="44.9904833" lon="11.2131217"><ele>8.0</ele><time>2026-05-01T07:25:25.744Z</time></trkpt><trkpt lat="44.9903133" lon="11.21334"><ele>8.0</ele><time>2026-05-01T07:25:26.745Z</time></trkpt><trkpt lat="44.9901433" lon="11.2135617"><ele>8.0</ele><time>2026-05-01T07:25:27.744Z</time></trkpt><trkpt lat="44.9899683" lon="11.2137833"><ele>7.5</ele><time>2026-05-01T07:25:28.744Z</time></trkpt><trkpt lat="44.9897967" lon="11.214005"><ele>7.0</ele><time>2026-05-01T07:25:29.746Z</time></trkpt><trkpt lat="44.989625" lon="11.2142283"><ele>7.0</ele><time>2026-05-01T07:25:30.744Z</time></trkpt><trkpt lat="44.9894533" lon="11.2144533"><ele>7.0</ele><time>2026-05-01T07:25:31.744Z</time></trkpt><trkpt lat="44.989285" lon="11.21468"><ele>7.5</ele><time>2026-05-01T07:25:32.744Z</time></trkpt><trkpt lat="44.9891133" lon="11.2149067"><ele>8.0</ele><time>2026-05-01T07:25:33.744Z</time></trkpt><trkpt lat="44.9889433" lon="11.2151317"><ele>8.0</ele><time>2026-05-01T07:25:34.743Z</time></trkpt><trkpt lat="44.988775" lon="11.215355"><ele>8.0</ele><time>2026-05-01T07:25:35.742Z</time></trkpt><trkpt lat="44.9886067" lon="11.2155767"><ele>8.0</ele><time>2026-05-01T07:25:36.744Z</time></trkpt><trkpt lat="44.9884433" lon="11.2157917"><ele>8.0</ele><time>2026-05-01T07:25:37.744Z</time></trkpt><trkpt lat="44.98828" lon="11.2159983"><ele>8.0</ele><time>2026-05-01T07:25:38.745Z</time></trkpt><trkpt lat="44.9881267" lon="11.2161983"><ele>8.0</ele><time>2026-05-01T07:25:39.744Z</time></trkpt><trkpt lat="44.9879833" lon="11.2164067"><ele>8.0</ele><time>2026-05-01T07:25:40.744Z</time></trkpt><trkpt lat="44.9878567" lon="11.2166233"><ele>8.0</ele><time>2026-05-01T07:25:41.744Z</time></trkpt><trkpt lat="44.9877467" lon="11.21685"><ele>7.666666666666666</ele><time>2026-05-01T07:25:42.752Z</time></trkpt><trkpt lat="44.9876533" lon="11.2170917"><ele>7.333333333333334</ele><time>2026-05-01T07:25:43.75Z</time></trkpt><trkpt lat="44.9875817" lon="11.2173467"><ele>7.0</ele><time>2026-05-01T07:25:44.749Z</time></trkpt><trkpt lat="44.9875183" lon="11.21761"><ele>7.0</ele><time>2026-05-01T07:25:45.747Z</time></trkpt><trkpt lat="44.9874567" lon="11.217885"><ele>7.0</ele><time>2026-05-01T07:25:46.753Z</time></trkpt><trkpt lat="44.987395" lon="11.218165"><ele>7.0</ele><time>2026-05-01T07:25:47.761Z</time></trkpt><trkpt lat="44.9873367" lon="11.2184583"><ele>7.333333333333334</ele><time>2026-05-01T07:25:48.75Z</time></trkpt><trkpt lat="44.9872783" lon="11.2187533"><ele>7.666666666666666</ele><time>2026-05-01T07:25:49.758Z</time></trkpt><trkpt lat="44.987215" lon="11.21905"><ele>8.0</ele><time>2026-05-01T07:25:50.746Z</time></trkpt><trkpt lat="44.9871417" lon="11.2193433"><ele>7.666666666666666</ele><time>2026-05-01T07:25:51.751Z</time></trkpt><trkpt lat="44.9870533" lon="11.2196217"><ele>7.333333333333334</ele><time>2026-05-01T07:25:52.747Z</time></trkpt><trkpt lat="44.98696" lon="11.2198933"><ele>7.0</ele><time>2026-05-01T07:25:53.751Z</time></trkpt><trkpt lat="44.98686" lon="11.2201417"><ele>7.0</ele><time>2026-05-01T07:25:54.753Z</time></trkpt><trkpt lat="44.98675" lon="11.2203817"><ele>7.0</ele><time>2026-05-01T07:25:55.744Z</time></trkpt><trkpt lat="44.98664" lon="11.2206183"><ele>7.0</ele><time>2026-05-01T07:25:56.749Z</time></trkpt><trkpt lat="44.98654" lon="11.2208683"><ele>6.333333333333334</ele><time>2026-05-01T07:25:57.752Z</time></trkpt><trkpt lat="44.986455" lon="11.2211267"><ele>5.666666666666667</ele><time>2026-05-01T07:25:58.743Z</time></trkpt><trkpt lat="44.9863817" lon="11.2213967"><ele>5.0</ele><time>2026-05-01T07:25:59.743Z</time></trkpt><trkpt lat="44.9863117" lon="11.2216683"><ele>5.0</ele><time>2026-05-01T07:26:00.751Z</time></trkpt><trkpt lat="44.9862367" lon="11.2219417"><ele>5.0</ele><time>2026-05-01T07:26:01.749Z</time></trkpt><trkpt lat="44.9861633" lon="11.2222183"><ele>5.0</ele><time>2026-05-01T07:26:02.752Z</time></trkpt><trkpt lat="44.986095" lon="11.2224933"><ele>5.333333333333334</ele><time>2026-05-01T07:26:03.749Z</time></trkpt><trkpt lat="44.986025" lon="11.22277"><ele>5.666666666666667</ele><time>2026-05-01T07:26:04.749Z</time></trkpt><trkpt lat="44.98595" lon="11.2230517"><ele>6.0</ele><time>2026-05-01T07:26:05.753Z</time></trkpt><trkpt lat="44.9858767" lon="11.223335"><ele>6.0</ele><time>2026-05-01T07:26:06.742Z</time></trkpt><trkpt lat="44.9858067" lon="11.2236183"><ele>6.0</ele><time>2026-05-01T07:26:07.748Z</time></trkpt><trkpt lat="44.9857417" lon="11.2239017"><ele>6.0</ele><time>2026-05-01T07:26:08.749Z</time></trkpt><trkpt lat="44.9856783" lon="11.2241883"><ele>6.333333333333334</ele><time>2026-05-01T07:26:09.741Z</time></trkpt><trkpt lat="44.9856183" lon="11.224475"><ele>6.666666666666667</ele><time>2026-05-01T07:26:10.747Z</time></trkpt><trkpt lat="44.9855617" lon="11.2247617"><ele>7.0</ele><time>2026-05-01T07:26:11.764Z</time></trkpt><trkpt lat="44.9855083" lon="11.2250517"><ele>7.0</ele><time>2026-05-01T07:26:12.751Z</time></trkpt><trkpt lat="44.9854567" lon="11.225345"><ele>7.0</ele><time>2026-05-01T07:26:13.743Z</time></trkpt><trkpt lat="44.9854083" lon="11.2256367"><ele>7.0</ele><time>2026-05-01T07:26:14.753Z</time></trkpt><trkpt lat="44.98536" lon="11.225935"><ele>7.0</ele><time>2026-05-01T07:26:15.751Z</time></trkpt><trkpt lat="44.9853133" lon="11.2262367"><ele>7.0</ele><time>2026-05-01T07:26:16.747Z</time></trkpt><trkpt lat="44.9852767" lon="11.22654"><ele>7.0</ele><time>2026-05-01T07:26:17.744Z</time></trkpt><trkpt lat="44.9852433" lon="11.2268483"><ele>7.0</ele><time>2026-05-01T07:26:18.751Z</time></trkpt><trkpt lat="44.9852117" lon="11.22716"><ele>7.0</ele><time>2026-05-01T07:26:19.742Z</time></trkpt><trkpt lat="44.9851767" lon="11.2274717"><ele>7.0</ele><time>2026-05-01T07:26:20.747Z</time></trkpt><trkpt lat="44.985145" lon="11.2277833"><ele>7.5</ele><time>2026-05-01T07:26:21.743Z</time></trkpt><trkpt lat="44.98511" lon="11.2281"><ele>8.0</ele><time>2026-05-01T07:26:22.749Z</time></trkpt><trkpt lat="44.985075" lon="11.2284183"><ele>7.0</ele><time>2026-05-01T07:26:23.748Z</time></trkpt><trkpt lat="44.9850417" lon="11.2287367"><ele>6.0</ele><time>2026-05-01T07:26:24.75Z</time></trkpt><trkpt lat="44.9850083" lon="11.2290583"><ele>6.0</ele><time>2026-05-01T07:26:25.754Z</time></trkpt><trkpt lat="44.9849717" lon="11.229375"><ele>6.0</ele><time>2026-05-01T07:26:26.749Z</time></trkpt><trkpt lat="44.9849367" lon="11.2296933"><ele>6.5</ele><time>2026-05-01T07:26:27.742Z</time></trkpt><trkpt lat="44.9849017" lon="11.23001"><ele>7.0</ele><time>2026-05-01T07:26:28.749Z</time></trkpt><trkpt lat="44.9848667" lon="11.230325"><ele>7.0</ele><time>2026-05-01T07:26:29.75Z</time></trkpt><trkpt lat="44.98483" lon="11.2306333"><ele>7.0</ele><time>2026-05-01T07:26:30.748Z</time></trkpt><trkpt lat="44.9847967" lon="11.230945"><ele>7.0</ele><time>2026-05-01T07:26:31.743Z</time></trkpt><trkpt lat="44.9847667" lon="11.2312567"><ele>7.0</ele><time>2026-05-01T07:26:32.749Z</time></trkpt><trkpt lat="44.9847333" lon="11.2315667"><ele>7.0</ele><time>2026-05-01T07:26:33.743Z</time></trkpt><trkpt lat="44.9847017" lon="11.2318767"><ele>7.0</ele><time>2026-05-01T07:26:34.751Z</time></trkpt><trkpt lat="44.9846683" lon="11.232185"><ele>7.333333333333334</ele><time>2026-05-01T07:26:35.75Z</time></trkpt><trkpt lat="44.9846317" lon="11.2324917"><ele>7.666666666666666</ele><time>2026-05-01T07:26:36.744Z</time></trkpt><trkpt lat="44.9845983" lon="11.2328017"><ele>8.0</ele><time>2026-05-01T07:26:37.745Z</time></trkpt><trkpt lat="44.9845667" lon="11.2331067"><ele>8.0</ele><time>2026-05-01T07:26:38.751Z</time></trkpt><trkpt lat="44.984535" lon="11.233415"><ele>8.0</ele><time>2026-05-01T07:26:39.751Z</time></trkpt><trkpt lat="44.9845017" lon="11.233725"><ele>8.0</ele><time>2026-05-01T07:26:40.753Z</time></trkpt><trkpt lat="44.9844683" lon="11.2340333"><ele>8.333333333333332</ele><time>2026-05-01T07:26:41.755Z</time></trkpt><trkpt lat="44.9844333" lon="11.2343433"><ele>8.666666666666666</ele><time>2026-05-01T07:26:42.742Z</time></trkpt><trkpt lat="44.9844033" lon="11.2346567"><ele>9.0</ele><time>2026-05-01T07:26:43.745Z</time></trkpt><trkpt lat="44.9843683" lon="11.23497"><ele>9.0</ele><time>2026-05-01T07:26:44.751Z</time></trkpt><trkpt lat="44.9843333" lon="11.2352883"><ele>9.0</ele><time>2026-05-01T07:26:45.751Z</time></trkpt><trkpt lat="44.9842967" lon="11.2356067"><ele>8.5</ele><time>2026-05-01T07:26:46.748Z</time></trkpt><trkpt lat="44.98426" lon="11.235925"><ele>8.0</ele><time>2026-05-01T07:26:47.745Z</time></trkpt><trkpt lat="44.9842267" lon="11.2362433"><ele>7.666666666666666</ele><time>2026-05-01T07:26:48.75Z</time></trkpt><trkpt lat="44.984195" lon="11.2365567"><ele>7.333333333333334</ele><time>2026-05-01T07:26:49.749Z</time></trkpt><trkpt lat="44.9841667" lon="11.2368683"><ele>7.0</ele><time>2026-05-01T07:26:50.743Z</time></trkpt><trkpt lat="44.9841433" lon="11.2371817"><ele>7.666666666666667</ele><time>2026-05-01T07:26:51.753Z</time></trkpt><trkpt lat="44.9841183" lon="11.237495"><ele>8.333333333333334</ele><time>2026-05-01T07:26:52.751Z</time></trkpt><trkpt lat="44.9840933" lon="11.2378067"><ele>9.0</ele><time>2026-05-01T07:26:53.749Z</time></trkpt><trkpt lat="44.98407" lon="11.23811"><ele>9.333333333333334</ele><time>2026-05-01T07:26:54.751Z</time></trkpt><trkpt lat="44.9840483" lon="11.238395"><ele>9.666666666666668</ele><time>2026-05-01T07:26:55.743Z</time></trkpt><trkpt lat="44.9840267" lon="11.23867"><ele>10.0</ele><time>2026-05-01T07:26:56.75Z</time></trkpt><trkpt lat="44.9840067" lon="11.2389333"><ele>9.666666666666668</ele><time>2026-05-01T07:26:57.745Z</time></trkpt><trkpt lat="44.9839967" lon="11.2391917"><ele>9.333333333333334</ele><time>2026-05-01T07:26:58.751Z</time></trkpt><trkpt lat="44.9839867" lon="11.2394483"><ele>9.0</ele><time>2026-05-01T07:26:59.748Z</time></trkpt><trkpt lat="44.983995" lon="11.2397133"><ele>9.0</ele><time>2026-05-01T07:27:00.744Z</time></trkpt><trkpt lat="44.9840117" lon="11.2399633"><ele>9.0</ele><time>2026-05-01T07:27:01.751Z</time></trkpt><trkpt lat="44.9840367" lon="11.2401983"><ele>9.0</ele><time>2026-05-01T07:27:02.752Z</time></trkpt><trkpt lat="44.9840633" lon="11.2404233"><ele>8.75</ele><time>2026-05-01T07:27:03.746Z</time></trkpt><trkpt lat="44.9840833" lon="11.2406367"><ele>8.5</ele><time>2026-05-01T07:27:04.748Z</time></trkpt><trkpt lat="44.9840833" lon="11.2408267"><ele>8.25</ele><time>2026-05-01T07:27:05.753Z</time></trkpt><trkpt lat="44.9840667" lon="11.2409933"><ele>8.0</ele><time>2026-05-01T07:27:06.754Z</time></trkpt><trkpt lat="44.9840267" lon="11.2411233"><ele>8.0</ele><time>2026-05-01T07:27:07.747Z</time></trkpt><trkpt lat="44.9839617" lon="11.2412133"><ele>8.0</ele><time>2026-05-01T07:27:08.754Z</time></trkpt><trkpt lat="44.9838917" lon="11.241255"><ele>8.0</ele><time>2026-05-01T07:27:09.744Z</time></trkpt><trkpt lat="44.983795" lon="11.241245"><ele>8.0</ele><time>2026-05-01T07:27:11.749Z</time></trkpt><trkpt lat="44.9837083" lon="11.2411583"><ele>8.0</ele><time>2026-05-01T07:27:13.748Z</time></trkpt><trkpt lat="44.9836333" lon="11.241075"><ele>8.0</ele><time>2026-05-01T07:27:14.748Z</time></trkpt><trkpt lat="44.983555" lon="11.2409467"><ele>8.0</ele><time>2026-05-01T07:27:15.746Z</time></trkpt><trkpt lat="44.983475" lon="11.2408033"><ele>8.0</ele><time>2026-05-01T07:27:16.748Z</time></trkpt><trkpt lat="44.9833917" lon="11.2406567"><ele>8.0</ele><time>2026-05-01T07:27:17.749Z</time></trkpt><trkpt lat="44.9832967" lon="11.2405117"><ele>8.0</ele><time>2026-05-01T07:27:18.743Z</time></trkpt><trkpt lat="44.98319" lon="11.2403683"><ele>8.0</ele><time>2026-05-01T07:27:19.749Z</time></trkpt><trkpt lat="44.9830733" lon="11.240225"><ele>8.0</ele><time>2026-05-01T07:27:20.752Z</time></trkpt><trkpt lat="44.98295" lon="11.2400733"><ele>8.0</ele><time>2026-05-01T07:27:21.743Z</time></trkpt><trkpt lat="44.982825" lon="11.2399167"><ele>8.0</ele><time>2026-05-01T07:27:22.742Z</time></trkpt><trkpt lat="44.9826967" lon="11.2397617"><ele>8.0</ele><time>2026-05-01T07:27:23.751Z</time></trkpt><trkpt lat="44.9825583" lon="11.23961"><ele>7.666666666666666</ele><time>2026-05-01T07:27:24.743Z</time></trkpt><trkpt lat="44.9824083" lon="11.2394783"><ele>7.333333333333334</ele><time>2026-05-01T07:27:25.742Z</time></trkpt><trkpt lat="44.98225" lon="11.2393567"><ele>7.0</ele><time>2026-05-01T07:27:26.749Z</time></trkpt><trkpt lat="44.9820883" lon="11.2392283"><ele>7.0</ele><time>2026-05-01T07:27:27.742Z</time></trkpt><trkpt lat="44.9819233" lon="11.2391"><ele>7.0</ele><time>2026-05-01T07:27:28.742Z</time></trkpt><trkpt lat="44.9817567" lon="11.238965"><ele>7.0</ele><time>2026-05-01T07:27:29.751Z</time></trkpt><trkpt lat="44.981585" lon="11.2388283"><ele>7.0</ele><time>2026-05-01T07:27:30.749Z</time></trkpt><trkpt lat="44.9814117" lon="11.2386917"><ele>7.0</ele><time>2026-05-01T07:27:31.747Z</time></trkpt><trkpt lat="44.981235" lon="11.23856"><ele>7.0</ele><time>2026-05-01T07:27:32.755Z</time></trkpt><trkpt lat="44.981055" lon="11.23843"><ele>7.0</ele><time>2026-05-01T07:27:33.743Z</time></trkpt><trkpt lat="44.980875" lon="11.2382967"><ele>7.0</ele><time>2026-05-01T07:27:34.742Z</time></trkpt><trkpt lat="44.9806917" lon="11.2381617"><ele>7.0</ele><time>2026-05-01T07:27:35.754Z</time></trkpt><trkpt lat="44.9805067" lon="11.2380283"><ele>7.0</ele><time>2026-05-01T07:27:36.752Z</time></trkpt><trkpt lat="44.9803183" lon="11.2378967"><ele>7.0</ele><time>2026-05-01T07:27:37.751Z</time></trkpt><trkpt lat="44.98013" lon="11.2377583"><ele>7.0</ele><time>2026-05-01T07:27:38.751Z</time></trkpt><trkpt lat="44.97994" lon="11.23762"><ele>7.0</ele><time>2026-05-01T07:27:39.751Z</time></trkpt><trkpt lat="44.979745" lon="11.2374833"><ele>7.0</ele><time>2026-05-01T07:27:40.744Z</time></trkpt><trkpt lat="44.97955" lon="11.2373483"><ele>7.0</ele><time>2026-05-01T07:27:41.742Z</time></trkpt><trkpt lat="44.979355" lon="11.2372117"><ele>7.333333333333334</ele><time>2026-05-01T07:27:42.75Z</time></trkpt><trkpt lat="44.9791617" lon="11.237075"><ele>7.666666666666666</ele><time>2026-05-01T07:27:43.748Z</time></trkpt><trkpt lat="44.9789667" lon="11.23694"><ele>8.0</ele><time>2026-05-01T07:27:44.751Z</time></trkpt><trkpt lat="44.97877" lon="11.2368"><ele>8.0</ele><time>2026-05-01T07:27:45.747Z</time></trkpt><trkpt lat="44.978575" lon="11.23666"><ele>8.0</ele><time>2026-05-01T07:27:46.749Z</time></trkpt><trkpt lat="44.9783783" lon="11.2365217"><ele>8.0</ele><time>2026-05-01T07:27:47.748Z</time></trkpt><trkpt lat="44.9781817" lon="11.236385"><ele>8.0</ele><time>2026-05-01T07:27:48.752Z</time></trkpt><trkpt lat="44.9779883" lon="11.236245"><ele>8.0</ele><time>2026-05-01T07:27:49.75Z</time></trkpt><trkpt lat="44.9777967" lon="11.2361017"><ele>8.0</ele><time>2026-05-01T07:27:50.751Z</time></trkpt><trkpt lat="44.9776067" lon="11.2359617"><ele>7.666666666666666</ele><time>2026-05-01T07:27:51.755Z</time></trkpt><trkpt lat="44.9774183" lon="11.2358217"><ele>7.333333333333334</ele><time>2026-05-01T07:27:52.748Z</time></trkpt><trkpt lat="44.9772333" lon="11.235685"><ele>7.0</ele><time>2026-05-01T07:27:53.751Z</time></trkpt><trkpt lat="44.9770467" lon="11.2355517"><ele>7.0</ele><time>2026-05-01T07:27:54.747Z</time></trkpt><trkpt lat="44.9768583" lon="11.2354183"><ele>7.0</ele><time>2026-05-01T07:27:55.752Z</time></trkpt><trkpt lat="44.9766717" lon="11.2352867"><ele>7.0</ele><time>2026-05-01T07:27:56.75Z</time></trkpt><trkpt lat="44.976485" lon="11.2351583"><ele>7.666666666666667</ele><time>2026-05-01T07:27:57.748Z</time></trkpt><trkpt lat="44.976305" lon="11.2350333"><ele>8.333333333333334</ele><time>2026-05-01T07:27:58.752Z</time></trkpt><trkpt lat="44.9761283" lon="11.2349133"><ele>9.0</ele><time>2026-05-01T07:27:59.754Z</time></trkpt><trkpt lat="44.9759517" lon="11.2347983"><ele>8.333333333333334</ele><time>2026-05-01T07:28:00.75Z</time></trkpt><trkpt lat="44.9757733" lon="11.2346983"><ele>7.666666666666667</ele><time>2026-05-01T07:28:01.752Z</time></trkpt><trkpt lat="44.9755883" lon="11.2346117"><ele>7.0</ele><time>2026-05-01T07:28:02.753Z</time></trkpt><trkpt lat="44.9754" lon="11.2345333"><ele>7.0</ele><time>2026-05-01T07:28:03.755Z</time></trkpt><trkpt lat="44.975215" lon="11.2344533"><ele>7.0</ele><time>2026-05-01T07:28:04.749Z</time></trkpt><trkpt lat="44.9750267" lon="11.234375"><ele>7.0</ele><time>2026-05-01T07:28:05.751Z</time></trkpt><trkpt lat="44.9748383" lon="11.2342983"><ele>7.666666666666667</ele><time>2026-05-01T07:28:06.742Z</time></trkpt><trkpt lat="44.9746467" lon="11.2342217"><ele>8.333333333333334</ele><time>2026-05-01T07:28:07.749Z</time></trkpt><trkpt lat="44.9744517" lon="11.23415"><ele>9.0</ele><time>2026-05-01T07:28:08.75Z</time></trkpt><trkpt lat="44.9742567" lon="11.2340883"><ele>8.666666666666666</ele><time>2026-05-01T07:28:09.753Z</time></trkpt><trkpt lat="44.9740617" lon="11.2340233"><ele>8.333333333333332</ele><time>2026-05-01T07:28:10.741Z</time></trkpt><trkpt lat="44.973865" lon="11.2339517"><ele>8.0</ele><time>2026-05-01T07:28:11.752Z</time></trkpt><trkpt lat="44.97367" lon="11.23386"><ele>8.0</ele><time>2026-05-01T07:28:12.751Z</time></trkpt><trkpt lat="44.9734767" lon="11.2337517"><ele>8.0</ele><time>2026-05-01T07:28:13.747Z</time></trkpt><trkpt lat="44.97329" lon="11.233635"><ele>8.0</ele><time>2026-05-01T07:28:14.741Z</time></trkpt><trkpt lat="44.9731" lon="11.2335117"><ele>8.0</ele><time>2026-05-01T07:28:15.75Z</time></trkpt><trkpt lat="44.972905" lon="11.2333867"><ele>8.0</ele><time>2026-05-01T07:28:16.742Z</time></trkpt><trkpt lat="44.97271" lon="11.2332617"><ele>8.0</ele><time>2026-05-01T07:28:17.751Z</time></trkpt><trkpt lat="44.97251" lon="11.2331333"><ele>7.666666666666666</ele><time>2026-05-01T07:28:18.749Z</time></trkpt><trkpt lat="44.9723117" lon="11.233005"><ele>7.333333333333334</ele><time>2026-05-01T07:28:19.741Z</time></trkpt><trkpt lat="44.9721117" lon="11.2328733"><ele>7.0</ele><time>2026-05-01T07:28:20.748Z</time></trkpt><trkpt lat="44.9719083" lon="11.2327417"><ele>7.0</ele><time>2026-05-01T07:28:21.749Z</time></trkpt><trkpt lat="44.971705" lon="11.2326083"><ele>7.0</ele><time>2026-05-01T07:28:22.75Z</time></trkpt><trkpt lat="44.971505" lon="11.2324733"><ele>7.0</ele><time>2026-05-01T07:28:23.752Z</time></trkpt><trkpt lat="44.971305" lon="11.2323383"><ele>7.0</ele><time>2026-05-01T07:28:24.751Z</time></trkpt><trkpt lat="44.9711033" lon="11.2321983"><ele>7.0</ele><time>2026-05-01T07:28:25.743Z</time></trkpt><trkpt lat="44.9709" lon="11.23206"><ele>6.5</ele><time>2026-05-01T07:28:26.754Z</time></trkpt><trkpt lat="44.9706967" lon="11.23192"><ele>6.0</ele><time>2026-05-01T07:28:27.752Z</time></trkpt><trkpt lat="44.9704883" lon="11.2317817"><ele>6.0</ele><time>2026-05-01T07:28:28.749Z</time></trkpt><trkpt lat="44.9702833" lon="11.2316383"><ele>6.0</ele><time>2026-05-01T07:28:29.748Z</time></trkpt><trkpt lat="44.9700783" lon="11.2314917"><ele>5.5</ele><time>2026-05-01T07:28:30.753Z</time></trkpt><trkpt lat="44.9698717" lon="11.2313467"><ele>5.0</ele><time>2026-05-01T07:28:31.743Z</time></trkpt><trkpt lat="44.9696617" lon="11.231205"><ele>5.0</ele><time>2026-05-01T07:28:32.751Z</time></trkpt><trkpt lat="44.9694533" lon="11.2310583"><ele>5.0</ele><time>2026-05-01T07:28:33.748Z</time></trkpt><trkpt lat="44.9692433" lon="11.23092"><ele>6.5</ele><time>2026-05-01T07:28:34.748Z</time></trkpt><trkpt lat="44.9690333" lon="11.2307817"><ele>8.0</ele><time>2026-05-01T07:28:35.747Z</time></trkpt><trkpt lat="44.9688283" lon="11.2306433"><ele>8.0</ele><time>2026-05-01T07:28:36.748Z</time></trkpt><trkpt lat="44.968635" lon="11.2305067"><ele>8.0</ele><time>2026-05-01T07:28:37.751Z</time></trkpt><trkpt lat="44.9684583" lon="11.23036"><ele>8.0</ele><time>2026-05-01T07:28:38.747Z</time></trkpt><trkpt lat="44.9683033" lon="11.23019"><ele>8.0</ele><time>2026-05-01T07:28:39.752Z</time></trkpt><trkpt lat="44.9681683" lon="11.2299933"><ele>8.0</ele><time>2026-05-01T07:28:40.75Z</time></trkpt><trkpt lat="44.968055" lon="11.2297783"><ele>8.0</ele><time>2026-05-01T07:28:41.753Z</time></trkpt><trkpt lat="44.9679683" lon="11.2295417"><ele>9.0</ele><time>2026-05-01T07:28:42.747Z</time></trkpt><trkpt lat="44.9679083" lon="11.2292917"><ele>10.0</ele><time>2026-05-01T07:28:43.743Z</time></trkpt><trkpt lat="44.9678717" lon="11.229025"><ele>11.0</ele><time>2026-05-01T07:28:44.749Z</time></trkpt><trkpt lat="44.9678483" lon="11.2287517"><ele>11.0</ele><time>2026-05-01T07:28:45.745Z</time></trkpt><trkpt lat="44.9678283" lon="11.228475"><ele>11.0</ele><time>2026-05-01T07:28:46.744Z</time></trkpt><trkpt lat="44.9678067" lon="11.2282067"><ele>11.0</ele><time>2026-05-01T07:28:47.749Z</time></trkpt><trkpt lat="44.9677817" lon="11.2279617"><ele>10.333333333333332</ele><time>2026-05-01T07:28:48.758Z</time></trkpt><trkpt lat="44.9677617" lon="11.2277217"><ele>9.666666666666666</ele><time>2026-05-01T07:28:49.746Z</time></trkpt><trkpt lat="44.967735" lon="11.227495"><ele>9.0</ele><time>2026-05-01T07:28:50.752Z</time></trkpt><trkpt lat="44.9676867" lon="11.2272883"><ele>8.75</ele><time>2026-05-01T07:28:51.751Z</time></trkpt><trkpt lat="44.96762" lon="11.2271033"><ele>8.5</ele><time>2026-05-01T07:28:52.751Z</time></trkpt><trkpt lat="44.9675367" lon="11.2269417"><ele>8.25</ele><time>2026-05-01T07:28:53.756Z</time></trkpt><trkpt lat="44.967445" lon="11.22679"><ele>8.0</ele><time>2026-05-01T07:28:54.755Z</time></trkpt><trkpt lat="44.9673467" lon="11.226665"><ele>8.0</ele><time>2026-05-01T07:28:55.75Z</time></trkpt><trkpt lat="44.9672483" lon="11.2265683"><ele>8.0</ele><time>2026-05-01T07:28:56.75Z</time></trkpt><trkpt lat="44.967165" lon="11.226495"><ele>8.0</ele><time>2026-05-01T07:28:57.746Z</time></trkpt><trkpt lat="44.9671017" lon="11.2264417"><ele>8.0</ele><time>2026-05-01T07:28:58.75Z</time></trkpt><trkpt lat="44.9670183" lon="11.2264333"><ele>8.0</ele><time>2026-05-01T07:29:00.751Z</time></trkpt><trkpt lat="44.9669633" lon="11.2265533"><ele>8.5</ele><time>2026-05-01T07:29:02.746Z</time></trkpt><trkpt lat="44.9669083" lon="11.22672"><ele>9.0</ele><time>2026-05-01T07:29:04.749Z</time></trkpt><trkpt lat="44.9668767" lon="11.2268417"><ele>9.5</ele><time>2026-05-01T07:29:05.746Z</time></trkpt><trkpt lat="44.9668533" lon="11.226995"><ele>10.0</ele><time>2026-05-01T07:29:06.749Z</time></trkpt><trkpt lat="44.9668317" lon="11.2271583"><ele>9.5</ele><time>2026-05-01T07:29:07.751Z</time></trkpt><trkpt lat="44.96681" lon="11.2273383"><ele>9.0</ele><time>2026-05-01T07:29:08.741Z</time></trkpt><trkpt lat="44.96679" lon="11.2275333"><ele>8.5</ele><time>2026-05-01T07:29:09.748Z</time></trkpt><trkpt lat="44.9667667" lon="11.2277383"><ele>8.0</ele><time>2026-05-01T07:29:10.747Z</time></trkpt><trkpt lat="44.96674" lon="11.2279567"><ele>8.333333333333332</ele><time>2026-05-01T07:29:11.748Z</time></trkpt><trkpt lat="44.9667117" lon="11.2281867"><ele>8.666666666666666</ele><time>2026-05-01T07:29:12.741Z</time></trkpt><trkpt lat="44.9666833" lon="11.2284233"><ele>9.0</ele><time>2026-05-01T07:29:13.746Z</time></trkpt><trkpt lat="44.96665" lon="11.228665"><ele>8.666666666666666</ele><time>2026-05-01T07:29:14.749Z</time></trkpt><trkpt lat="44.9666033" lon="11.2289083"><ele>8.333333333333332</ele><time>2026-05-01T07:29:15.742Z</time></trkpt><trkpt lat="44.9665417" lon="11.2291517"><ele>8.0</ele><time>2026-05-01T07:29:16.747Z</time></trkpt><trkpt lat="44.966465" lon="11.22939"><ele>8.0</ele><time>2026-05-01T07:29:17.744Z</time></trkpt><trkpt lat="44.9663817" lon="11.2296317"><ele>8.0</ele><time>2026-05-01T07:29:18.747Z</time></trkpt><trkpt lat="44.9662967" lon="11.2298767"><ele>8.0</ele><time>2026-05-01T07:29:19.744Z</time></trkpt><trkpt lat="44.966215" lon="11.2301283"><ele>8.0</ele><time>2026-05-01T07:29:20.75Z</time></trkpt><trkpt lat="44.96613" lon="11.2303817"><ele>8.0</ele><time>2026-05-01T07:29:21.744Z</time></trkpt><trkpt lat="44.9660467" lon="11.2306383"><ele>8.0</ele><time>2026-05-01T07:29:22.749Z</time></trkpt><trkpt lat="44.9659583" lon="11.2308983"><ele>8.0</ele><time>2026-05-01T07:29:23.75Z</time></trkpt><trkpt lat="44.9658717" lon="11.231165"><ele>8.0</ele><time>2026-05-01T07:29:24.749Z</time></trkpt><trkpt lat="44.9657833" lon="11.2314333"><ele>8.0</ele><time>2026-05-01T07:29:25.752Z</time></trkpt><trkpt lat="44.9656933" lon="11.2317017"><ele>8.0</ele><time>2026-05-01T07:29:26.748Z</time></trkpt><trkpt lat="44.9656017" lon="11.23197"><ele>8.0</ele><time>2026-05-01T07:29:27.742Z</time></trkpt><trkpt lat="44.9655133" lon="11.23224"><ele>8.0</ele><time>2026-05-01T07:29:28.743Z</time></trkpt><trkpt lat="44.965425" lon="11.2325133"><ele>7.666666666666666</ele><time>2026-05-01T07:29:29.745Z</time></trkpt><trkpt lat="44.9653333" lon="11.2327867"><ele>7.333333333333334</ele><time>2026-05-01T07:29:30.748Z</time></trkpt><trkpt lat="44.9652383" lon="11.2330583"><ele>7.0</ele><time>2026-05-01T07:29:31.75Z</time></trkpt><trkpt lat="44.9651383" lon="11.23333"><ele>7.0</ele><time>2026-05-01T07:29:32.749Z</time></trkpt><trkpt lat="44.96504" lon="11.2336017"><ele>7.0</ele><time>2026-05-01T07:29:33.752Z</time></trkpt><trkpt lat="44.9649417" lon="11.2338733"><ele>7.0</ele><time>2026-05-01T07:29:34.749Z</time></trkpt><trkpt lat="44.9648417" lon="11.2341467"><ele>7.333333333333334</ele><time>2026-05-01T07:29:35.75Z</time></trkpt><trkpt lat="44.9647417" lon="11.234415"><ele>7.666666666666666</ele><time>2026-05-01T07:29:36.753Z</time></trkpt><trkpt lat="44.9646333" lon="11.23468"><ele>8.0</ele><time>2026-05-01T07:29:37.743Z</time></trkpt><trkpt lat="44.9645117" lon="11.2349367"><ele>8.0</ele><time>2026-05-01T07:29:38.747Z</time></trkpt><trkpt lat="44.9643733" lon="11.23518"><ele>8.0</ele><time>2026-05-01T07:29:39.755Z</time></trkpt><trkpt lat="44.964225" lon="11.2354167"><ele>8.0</ele><time>2026-05-01T07:29:40.749Z</time></trkpt><trkpt lat="44.9640717" lon="11.23565"><ele>8.0</ele><time>2026-05-01T07:29:41.742Z</time></trkpt><trkpt lat="44.96391" lon="11.2358817"><ele>8.0</ele><time>2026-05-01T07:29:42.757Z</time></trkpt><trkpt lat="44.963745" lon="11.2361133"><ele>8.0</ele><time>2026-05-01T07:29:43.75Z</time></trkpt><trkpt lat="44.96358" lon="11.23635"><ele>8.0</ele><time>2026-05-01T07:29:44.758Z</time></trkpt><trkpt lat="44.963415" lon="11.23659"><ele>8.0</ele><time>2026-05-01T07:29:45.753Z</time></trkpt><trkpt lat="44.9632483" lon="11.236835"><ele>8.0</ele><time>2026-05-01T07:29:46.743Z</time></trkpt><trkpt lat="44.96308" lon="11.2370783"><ele>8.0</ele><time>2026-05-01T07:29:47.742Z</time></trkpt><trkpt lat="44.9629133" lon="11.2373217"><ele>8.0</ele><time>2026-05-01T07:29:48.752Z</time></trkpt><trkpt lat="44.962745" lon="11.23756"><ele>8.0</ele><time>2026-05-01T07:29:49.746Z</time></trkpt><trkpt lat="44.9625767" lon="11.2377983"><ele>8.0</ele><time>2026-05-01T07:29:50.751Z</time></trkpt><trkpt lat="44.962415" lon="11.2380417"><ele>8.0</ele><time>2026-05-01T07:29:51.748Z</time></trkpt><trkpt lat="44.962265" lon="11.2382967"><ele>8.0</ele><time>2026-05-01T07:29:52.748Z</time></trkpt><trkpt lat="44.962125" lon="11.2385633"><ele>8.0</ele><time>2026-05-01T07:29:53.751Z</time></trkpt><trkpt lat="44.9620033" lon="11.2388417"><ele>8.0</ele><time>2026-05-01T07:29:54.75Z</time></trkpt><trkpt lat="44.9618933" lon="11.2391317"><ele>8.5</ele><time>2026-05-01T07:29:55.751Z</time></trkpt><trkpt lat="44.961795" lon="11.23943"><ele>9.0</ele><time>2026-05-01T07:29:56.749Z</time></trkpt><trkpt lat="44.9617017" lon="11.2397317"><ele>8.0</ele><time>2026-05-01T07:29:57.752Z</time></trkpt><trkpt lat="44.9616117" lon="11.2400367"><ele>7.0</ele><time>2026-05-01T07:29:58.742Z</time></trkpt><trkpt lat="44.96152" lon="11.2403433"><ele>7.0</ele><time>2026-05-01T07:29:59.75Z</time></trkpt><trkpt lat="44.96143" lon="11.2406483"><ele>7.0</ele><time>2026-05-01T07:30:00.75Z</time></trkpt><trkpt lat="44.9613417" lon="11.2409567"><ele>7.0</ele><time>2026-05-01T07:30:01.781Z</time></trkpt><trkpt lat="44.9612517" lon="11.2412633"><ele>7.0</ele><time>2026-05-01T07:30:02.743Z</time></trkpt><trkpt lat="44.9611617" lon="11.2415683"><ele>7.0</ele><time>2026-05-01T07:30:03.754Z</time></trkpt><trkpt lat="44.96107" lon="11.2418717"><ele>7.0</ele><time>2026-05-01T07:30:04.745Z</time></trkpt><trkpt lat="44.96098" lon="11.2421733"><ele>6.5</ele><time>2026-05-01T07:30:05.751Z</time></trkpt><trkpt lat="44.9608917" lon="11.242475"><ele>6.0</ele><time>2026-05-01T07:30:06.75Z</time></trkpt><trkpt lat="44.960805" lon="11.242775"><ele>6.5</ele><time>2026-05-01T07:30:07.749Z</time></trkpt><trkpt lat="44.9607183" lon="11.2430733"><ele>7.0</ele><time>2026-05-01T07:30:08.753Z</time></trkpt><trkpt lat="44.96063" lon="11.2433683"><ele>7.0</ele><time>2026-05-01T07:30:09.757Z</time></trkpt><trkpt lat="44.9605417" lon="11.2436583"><ele>7.0</ele><time>2026-05-01T07:30:10.757Z</time></trkpt><trkpt lat="44.960455" lon="11.2439467"><ele>7.0</ele><time>2026-05-01T07:30:11.753Z</time></trkpt><trkpt lat="44.9603683" lon="11.2442333"><ele>7.0</ele><time>2026-05-01T07:30:12.75Z</time></trkpt><trkpt lat="44.960285" lon="11.2445133"><ele>7.0</ele><time>2026-05-01T07:30:13.749Z</time></trkpt><trkpt lat="44.9602033" lon="11.2447817"><ele>7.0</ele><time>2026-05-01T07:30:14.75Z</time></trkpt><trkpt lat="44.9601283" lon="11.24504"><ele>7.0</ele><time>2026-05-01T07:30:15.742Z</time></trkpt><trkpt lat="44.960065" lon="11.24529"><ele>7.0</ele><time>2026-05-01T07:30:16.749Z</time></trkpt><trkpt lat="44.9600233" lon="11.2455383"><ele>7.0</ele><time>2026-05-01T07:30:17.749Z</time></trkpt><trkpt lat="44.9600033" lon="11.2457867"><ele>7.333333333333334</ele><time>2026-05-01T07:30:18.748Z</time></trkpt><trkpt lat="44.9599967" lon="11.24604"><ele>7.666666666666666</ele><time>2026-05-01T07:30:19.741Z</time></trkpt><trkpt lat="44.9599967" lon="11.2462933"><ele>8.0</ele><time>2026-05-01T07:30:20.75Z</time></trkpt><trkpt lat="44.9599933" lon="11.246545"><ele>8.0</ele><time>2026-05-01T07:30:21.747Z</time></trkpt><trkpt lat="44.9599933" lon="11.2467917"><ele>8.0</ele><time>2026-05-01T07:30:22.742Z</time></trkpt><trkpt lat="44.9599883" lon="11.247035"><ele>8.0</ele><time>2026-05-01T07:30:23.749Z</time></trkpt><trkpt lat="44.9599683" lon="11.247275"><ele>8.333333333333332</ele><time>2026-05-01T07:30:24.746Z</time></trkpt><trkpt lat="44.9599333" lon="11.2475117"><ele>8.666666666666666</ele><time>2026-05-01T07:30:25.745Z</time></trkpt><trkpt lat="44.9598867" lon="11.2477517"><ele>9.0</ele><time>2026-05-01T07:30:26.755Z</time></trkpt><trkpt lat="44.9598333" lon="11.247995"><ele>9.0</ele><time>2026-05-01T07:30:27.747Z</time></trkpt><trkpt lat="44.9597783" lon="11.2482433"><ele>9.0</ele><time>2026-05-01T07:30:28.75Z</time></trkpt><trkpt lat="44.9597233" lon="11.2484983"><ele>9.0</ele><time>2026-05-01T07:30:29.741Z</time></trkpt><trkpt lat="44.9596683" lon="11.2487567"><ele>8.5</ele><time>2026-05-01T07:30:30.75Z</time></trkpt><trkpt lat="44.9595433" lon="11.2492783"><ele>8.0</ele><time>2026-05-01T07:30:32.753Z</time></trkpt><trkpt lat="44.9594817" lon="11.2495417"><ele>8.333333333333332</ele><time>2026-05-01T07:30:33.757Z</time></trkpt><trkpt lat="44.9594217" lon="11.2498067"><ele>8.666666666666666</ele><time>2026-05-01T07:30:34.75Z</time></trkpt><trkpt lat="44.9593617" lon="11.25007"><ele>9.0</ele><time>2026-05-01T07:30:35.744Z</time></trkpt><trkpt lat="44.9593017" lon="11.250335"><ele>9.0</ele><time>2026-05-01T07:30:36.748Z</time></trkpt><trkpt lat="44.9592417" lon="11.2506033"><ele>9.0</ele><time>2026-05-01T07:30:37.75Z</time></trkpt><trkpt lat="44.9591817" lon="11.250875"><ele>9.0</ele><time>2026-05-01T07:30:38.75Z</time></trkpt><trkpt lat="44.95913" lon="11.2511433"><ele>9.0</ele><time>2026-05-01T07:30:39.752Z</time></trkpt><trkpt lat="44.9590867" lon="11.2514183"><ele>9.0</ele><time>2026-05-01T07:30:40.746Z</time></trkpt><trkpt lat="44.9590467" lon="11.2516933"><ele>9.0</ele><time>2026-05-01T07:30:41.743Z</time></trkpt><trkpt lat="44.9590167" lon="11.251955"><ele>9.0</ele><time>2026-05-01T07:30:42.749Z</time></trkpt><trkpt lat="44.95899" lon="11.252195"><ele>9.0</ele><time>2026-05-01T07:30:43.751Z</time></trkpt><trkpt lat="44.9589717" lon="11.2524083"><ele>9.0</ele><time>2026-05-01T07:30:44.744Z</time></trkpt><trkpt lat="44.9589467" lon="11.2526"><ele>9.0</ele><time>2026-05-01T07:30:45.741Z</time></trkpt><trkpt lat="44.9589267" lon="11.2528017"><ele>9.0</ele><time>2026-05-01T07:30:46.75Z</time></trkpt><trkpt lat="44.9589067" lon="11.2530217"><ele>9.0</ele><time>2026-05-01T07:30:47.748Z</time></trkpt><trkpt lat="44.9588817" lon="11.2532617"><ele>8.666666666666666</ele><time>2026-05-01T07:30:48.743Z</time></trkpt><trkpt lat="44.9588483" lon="11.2535167"><ele>8.333333333333332</ele><time>2026-05-01T07:30:49.749Z</time></trkpt><trkpt lat="44.9588083" lon="11.25378"><ele>8.0</ele><time>2026-05-01T07:30:50.751Z</time></trkpt><trkpt lat="44.958765" lon="11.2540483"><ele>8.0</ele><time>2026-05-01T07:30:51.749Z</time></trkpt><trkpt lat="44.9587167" lon="11.2543217"><ele>8.0</ele><time>2026-05-01T07:30:52.753Z</time></trkpt><trkpt lat="44.9586633" lon="11.2545983"><ele>8.0</ele><time>2026-05-01T07:30:53.75Z</time></trkpt><trkpt lat="44.9586083" lon="11.2548767"><ele>8.0</ele><time>2026-05-01T07:30:54.75Z</time></trkpt><trkpt lat="44.9585533" lon="11.2551583"><ele>8.0</ele><time>2026-05-01T07:30:55.753Z</time></trkpt><trkpt lat="44.9585" lon="11.2554433"><ele>8.0</ele><time>2026-05-01T07:30:56.743Z</time></trkpt><trkpt lat="44.958445" lon="11.255725"><ele>8.0</ele><time>2026-05-01T07:30:57.753Z</time></trkpt><trkpt lat="44.9583917" lon="11.2560117"><ele>8.0</ele><time>2026-05-01T07:30:58.746Z</time></trkpt><trkpt lat="44.9583367" lon="11.256295"><ele>8.0</ele><time>2026-05-01T07:30:59.75Z</time></trkpt><trkpt lat="44.95828" lon="11.2565767"><ele>8.0</ele><time>2026-05-01T07:31:00.754Z</time></trkpt><trkpt lat="44.95822" lon="11.2568583"><ele>8.0</ele><time>2026-05-01T07:31:01.752Z</time></trkpt><trkpt lat="44.9581567" lon="11.2571367"><ele>8.0</ele><time>2026-05-01T07:31:02.753Z</time></trkpt><trkpt lat="44.958085" lon="11.2574117"><ele>9.0</ele><time>2026-05-01T07:31:03.754Z</time></trkpt><trkpt lat="44.95801" lon="11.2576833"><ele>10.0</ele><time>2026-05-01T07:31:04.743Z</time></trkpt><trkpt lat="44.9579383" lon="11.2579567"><ele>11.0</ele><time>2026-05-01T07:31:05.742Z</time></trkpt><trkpt lat="44.9578633" lon="11.25823"><ele>11.0</ele><time>2026-05-01T07:31:06.744Z</time></trkpt><trkpt lat="44.9577833" lon="11.2584983"><ele>11.0</ele><time>2026-05-01T07:31:07.751Z</time></trkpt><trkpt lat="44.9576867" lon="11.2587583"><ele>11.0</ele><time>2026-05-01T07:31:08.751Z</time></trkpt><trkpt lat="44.957575" lon="11.25901"><ele>10.333333333333332</ele><time>2026-05-01T07:31:09.748Z</time></trkpt><trkpt lat="44.95745" lon="11.259245"><ele>9.666666666666666</ele><time>2026-05-01T07:31:10.751Z</time></trkpt><trkpt lat="44.9573117" lon="11.2594667"><ele>9.0</ele><time>2026-05-01T07:31:11.749Z</time></trkpt><trkpt lat="44.9571633" lon="11.2596817"><ele>8.333333333333334</ele><time>2026-05-01T07:31:12.744Z</time></trkpt><trkpt lat="44.9570133" lon="11.259895"><ele>7.666666666666667</ele><time>2026-05-01T07:31:13.748Z</time></trkpt><trkpt lat="44.9568583" lon="11.2601083"><ele>7.0</ele><time>2026-05-01T07:31:14.744Z</time></trkpt><trkpt lat="44.9567033" lon="11.2603233"><ele>7.333333333333334</ele><time>2026-05-01T07:31:15.748Z</time></trkpt><trkpt lat="44.9565483" lon="11.2605383"><ele>7.666666666666666</ele><time>2026-05-01T07:31:16.747Z</time></trkpt><trkpt lat="44.956395" lon="11.2607583"><ele>8.0</ele><time>2026-05-01T07:31:17.752Z</time></trkpt><trkpt lat="44.95624" lon="11.2609783"><ele>8.0</ele><time>2026-05-01T07:31:18.753Z</time></trkpt><trkpt lat="44.9560833" lon="11.2612033"><ele>8.0</ele><time>2026-05-01T07:31:19.751Z</time></trkpt><trkpt lat="44.9559283" lon="11.2614283"><ele>8.0</ele><time>2026-05-01T07:31:20.749Z</time></trkpt><trkpt lat="44.9557733" lon="11.2616533"><ele>8.0</ele><time>2026-05-01T07:31:21.749Z</time></trkpt><trkpt lat="44.9556167" lon="11.26188"><ele>8.0</ele><time>2026-05-01T07:31:22.748Z</time></trkpt><trkpt lat="44.9554617" lon="11.2621067"><ele>8.0</ele><time>2026-05-01T07:31:23.75Z</time></trkpt><trkpt lat="44.9553067" lon="11.2623283"><ele>8.0</ele><time>2026-05-01T07:31:24.753Z</time></trkpt><trkpt lat="44.9551517" lon="11.262545"><ele>8.0</ele><time>2026-05-01T07:31:25.743Z</time></trkpt><trkpt lat="44.9549917" lon="11.26275"><ele>8.0</ele><time>2026-05-01T07:31:26.751Z</time></trkpt><trkpt lat="44.954815" lon="11.2629267"><ele>8.0</ele><time>2026-05-01T07:31:27.742Z</time></trkpt><trkpt lat="44.9546233" lon="11.2630733"><ele>8.0</ele><time>2026-05-01T07:31:28.746Z</time></trkpt><trkpt lat="44.9544233" lon="11.2632017"><ele>8.0</ele><time>2026-05-01T07:31:29.75Z</time></trkpt><trkpt lat="44.954225" lon="11.2633283"><ele>8.5</ele><time>2026-05-01T07:31:30.753Z</time></trkpt><trkpt lat="44.9540217" lon="11.2634617"><ele>9.0</ele><time>2026-05-01T07:31:31.752Z</time></trkpt><trkpt lat="44.9538183" lon="11.26361"><ele>9.0</ele><time>2026-05-01T07:31:32.751Z</time></trkpt><trkpt lat="44.9536183" lon="11.2637583"><ele>9.0</ele><time>2026-05-01T07:31:33.753Z</time></trkpt><trkpt lat="44.9534117" lon="11.2638933"><ele>8.0</ele><time>2026-05-01T07:31:34.748Z</time></trkpt><trkpt lat="44.9532" lon="11.2640167"><ele>7.0</ele><time>2026-05-01T07:31:35.752Z</time></trkpt><trkpt lat="44.9529867" lon="11.2641283"><ele>7.0</ele><time>2026-05-01T07:31:36.751Z</time></trkpt><trkpt lat="44.9527683" lon="11.2642367"><ele>7.0</ele><time>2026-05-01T07:31:37.749Z</time></trkpt><trkpt lat="44.9525533" lon="11.2643483"><ele>7.0</ele><time>2026-05-01T07:31:38.748Z</time></trkpt><trkpt lat="44.9523383" lon="11.2644617"><ele>7.0</ele><time>2026-05-01T07:31:39.742Z</time></trkpt><trkpt lat="44.9521283" lon="11.2645817"><ele>7.0</ele><time>2026-05-01T07:31:40.747Z</time></trkpt><trkpt lat="44.9519267" lon="11.2647133"><ele>7.0</ele><time>2026-05-01T07:31:41.742Z</time></trkpt><trkpt lat="44.951735" lon="11.2648583"><ele>7.0</ele><time>2026-05-01T07:31:42.75Z</time></trkpt><trkpt lat="44.951555" lon="11.2650283"><ele>7.666666666666667</ele><time>2026-05-01T07:31:43.743Z</time></trkpt><trkpt lat="44.951385" lon="11.2652183"><ele>8.333333333333334</ele><time>2026-05-01T07:31:44.745Z</time></trkpt><trkpt lat="44.9512317" lon="11.26543"><ele>9.0</ele><time>2026-05-01T07:31:45.75Z</time></trkpt><trkpt lat="44.9510933" lon="11.2656633"><ele>9.0</ele><time>2026-05-01T07:31:46.742Z</time></trkpt><trkpt lat="44.9509683" lon="11.2659067"><ele>9.0</ele><time>2026-05-01T07:31:47.742Z</time></trkpt><trkpt lat="44.9508567" lon="11.2661633"><ele>9.0</ele><time>2026-05-01T07:31:48.753Z</time></trkpt><trkpt lat="44.950755" lon="11.266425"><ele>8.666666666666666</ele><time>2026-05-01T07:31:49.751Z</time></trkpt><trkpt lat="44.950675" lon="11.2666983"><ele>8.333333333333332</ele><time>2026-05-01T07:31:50.751Z</time></trkpt><trkpt lat="44.9506167" lon="11.2669833"><ele>8.0</ele><time>2026-05-01T07:31:51.746Z</time></trkpt><trkpt lat="44.9505767" lon="11.2672767"><ele>8.0</ele><time>2026-05-01T07:31:52.75Z</time></trkpt><trkpt lat="44.95055" lon="11.26757"><ele>8.0</ele><time>2026-05-01T07:31:53.753Z</time></trkpt><trkpt lat="44.9505267" lon="11.267855"><ele>8.0</ele><time>2026-05-01T07:31:54.753Z</time></trkpt><trkpt lat="44.9504933" lon="11.268125"><ele>7.666666666666666</ele><time>2026-05-01T07:31:55.746Z</time></trkpt><trkpt lat="44.9504433" lon="11.26838"><ele>7.333333333333334</ele><time>2026-05-01T07:31:56.749Z</time></trkpt><trkpt lat="44.9503783" lon="11.2686183"><ele>7.0</ele><time>2026-05-01T07:31:57.751Z</time></trkpt><trkpt lat="44.9502917" lon="11.268845"><ele>7.0</ele><time>2026-05-01T07:31:58.75Z</time></trkpt><trkpt lat="44.9501933" lon="11.2690583"><ele>7.0</ele><time>2026-05-01T07:31:59.755Z</time></trkpt><trkpt lat="44.9500833" lon="11.269265"><ele>7.0</ele><time>2026-05-01T07:32:00.741Z</time></trkpt><trkpt lat="44.9499717" lon="11.2694783"><ele>7.0</ele><time>2026-05-01T07:32:01.742Z</time></trkpt><trkpt lat="44.9498667" lon="11.2697067"><ele>7.0</ele><time>2026-05-01T07:32:02.749Z</time></trkpt><trkpt lat="44.9497683" lon="11.2699467"><ele>7.0</ele><time>2026-05-01T07:32:03.758Z</time></trkpt><trkpt lat="44.9496733" lon="11.2701967"><ele>7.0</ele><time>2026-05-01T07:32:04.747Z</time></trkpt><trkpt lat="44.9495783" lon="11.2704533"><ele>7.0</ele><time>2026-05-01T07:32:05.757Z</time></trkpt><trkpt lat="44.9494817" lon="11.27071"><ele>7.0</ele><time>2026-05-01T07:32:06.758Z</time></trkpt><trkpt lat="44.9493833" lon="11.27097"><ele>7.0</ele><time>2026-05-01T07:32:07.751Z</time></trkpt><trkpt lat="44.9492867" lon="11.2712317"><ele>7.0</ele><time>2026-05-01T07:32:08.748Z</time></trkpt><trkpt lat="44.9491883" lon="11.2714967"><ele>7.0</ele><time>2026-05-01T07:32:09.751Z</time></trkpt><trkpt lat="44.9490883" lon="11.2717667"><ele>7.0</ele><time>2026-05-01T07:32:10.749Z</time></trkpt><trkpt lat="44.9489883" lon="11.272035"><ele>7.0</ele><time>2026-05-01T07:32:11.743Z</time></trkpt><trkpt lat="44.9488883" lon="11.272305"><ele>7.0</ele><time>2026-05-01T07:32:12.749Z</time></trkpt><trkpt lat="44.9487867" lon="11.272575"><ele>7.333333333333334</ele><time>2026-05-01T07:32:13.744Z</time></trkpt><trkpt lat="44.948685" lon="11.272845"><ele>7.666666666666666</ele><time>2026-05-01T07:32:14.75Z</time></trkpt><trkpt lat="44.9485833" lon="11.273115"><ele>8.0</ele><time>2026-05-01T07:32:15.743Z</time></trkpt><trkpt lat="44.94848" lon="11.2733817"><ele>8.0</ele><time>2026-05-01T07:32:16.742Z</time></trkpt><trkpt lat="44.9483767" lon="11.2736517"><ele>8.0</ele><time>2026-05-01T07:32:17.752Z</time></trkpt><trkpt lat="44.948275" lon="11.2739233"><ele>8.0</ele><time>2026-05-01T07:32:18.743Z</time></trkpt><trkpt lat="44.948175" lon="11.274195"><ele>8.0</ele><time>2026-05-01T07:32:19.752Z</time></trkpt><trkpt lat="44.9480733" lon="11.2744667"><ele>8.0</ele><time>2026-05-01T07:32:20.749Z</time></trkpt><trkpt lat="44.9479733" lon="11.274735"><ele>8.0</ele><time>2026-05-01T07:32:21.742Z</time></trkpt><trkpt lat="44.9478733" lon="11.2750067"><ele>8.0</ele><time>2026-05-01T07:32:22.741Z</time></trkpt><trkpt lat="44.9477717" lon="11.2752767"><ele>8.0</ele><time>2026-05-01T07:32:23.749Z</time></trkpt><trkpt lat="44.9476733" lon="11.275545"><ele>8.0</ele><time>2026-05-01T07:32:24.751Z</time></trkpt><trkpt lat="44.9475767" lon="11.2758167"><ele>7.666666666666666</ele><time>2026-05-01T07:32:25.749Z</time></trkpt><trkpt lat="44.94748" lon="11.2760833"><ele>7.333333333333334</ele><time>2026-05-01T07:32:26.744Z</time></trkpt><trkpt lat="44.9473817" lon="11.2763483"><ele>7.0</ele><time>2026-05-01T07:32:27.746Z</time></trkpt><trkpt lat="44.9472867" lon="11.276605"><ele>7.0</ele><time>2026-05-01T07:32:28.752Z</time></trkpt><trkpt lat="44.947195" lon="11.2768517"><ele>7.0</ele><time>2026-05-01T07:32:29.753Z</time></trkpt><trkpt lat="44.9471083" lon="11.2770833"><ele>7.0</ele><time>2026-05-01T07:32:30.745Z</time></trkpt><trkpt lat="44.947025" lon="11.277295"><ele>7.333333333333334</ele><time>2026-05-01T07:32:31.743Z</time></trkpt><trkpt lat="44.9469433" lon="11.2774917"><ele>7.666666666666666</ele><time>2026-05-01T07:32:32.75Z</time></trkpt><trkpt lat="44.9468617" lon="11.27767"><ele>8.0</ele><time>2026-05-01T07:32:33.747Z</time></trkpt><trkpt lat="44.9467717" lon="11.2778233"><ele>8.25</ele><time>2026-05-01T07:32:34.749Z</time></trkpt><trkpt lat="44.9466767" lon="11.2779517"><ele>8.5</ele><time>2026-05-01T07:32:35.756Z</time></trkpt><trkpt lat="44.9465933" lon="11.2780717"><ele>8.75</ele><time>2026-05-01T07:32:36.75Z</time></trkpt><trkpt lat="44.9465333" lon="11.2782017"><ele>9.0</ele><time>2026-05-01T07:32:37.748Z</time></trkpt><trkpt lat="44.9465033" lon="11.27835"><ele>9.0</ele><time>2026-05-01T07:32:38.741Z</time></trkpt><trkpt lat="44.9465017" lon="11.27851"><ele>9.0</ele><time>2026-05-01T07:32:39.745Z</time></trkpt><trkpt lat="44.946525" lon="11.2786783"><ele>9.0</ele><time>2026-05-01T07:32:40.741Z</time></trkpt><trkpt lat="44.9465633" lon="11.2788567"><ele>9.0</ele><time>2026-05-01T07:32:41.744Z</time></trkpt><trkpt lat="44.9466033" lon="11.279045"><ele>9.0</ele><time>2026-05-01T07:32:42.742Z</time></trkpt><trkpt lat="44.9466367" lon="11.2792433"><ele>9.0</ele><time>2026-05-01T07:32:43.751Z</time></trkpt><trkpt lat="44.9466683" lon="11.279455"><ele>9.0</ele><time>2026-05-01T07:32:44.743Z</time></trkpt><trkpt lat="44.9466867" lon="11.2796767"><ele>8.666666666666666</ele><time>2026-05-01T07:32:45.741Z</time></trkpt><trkpt lat="44.946695" lon="11.2799033"><ele>8.333333333333332</ele><time>2026-05-01T07:32:46.741Z</time></trkpt><trkpt lat="44.9467017" lon="11.2801367"><ele>8.0</ele><time>2026-05-01T07:32:47.751Z</time></trkpt><trkpt lat="44.9467017" lon="11.2803733"><ele>8.0</ele><time>2026-05-01T07:32:48.754Z</time></trkpt><trkpt lat="44.9466967" lon="11.2806133"><ele>8.0</ele><time>2026-05-01T07:32:49.754Z</time></trkpt><trkpt lat="44.9466933" lon="11.2808517"><ele>8.0</ele><time>2026-05-01T07:32:50.753Z</time></trkpt><trkpt lat="44.9467017" lon="11.2810833"><ele>8.0</ele><time>2026-05-01T07:32:51.746Z</time></trkpt><trkpt lat="44.9467217" lon="11.2813067"><ele>8.0</ele><time>2026-05-01T07:32:52.748Z</time></trkpt><trkpt lat="44.9467533" lon="11.28153"><ele>8.0</ele><time>2026-05-01T07:32:53.749Z</time></trkpt><trkpt lat="44.94679" lon="11.281755"><ele>8.0</ele><time>2026-05-01T07:32:54.747Z</time></trkpt><trkpt lat="44.9468233" lon="11.2819767"><ele>8.0</ele><time>2026-05-01T07:32:55.75Z</time></trkpt><trkpt lat="44.9468517" lon="11.282195"><ele>8.0</ele><time>2026-05-01T07:32:56.755Z</time></trkpt><trkpt lat="44.9468733" lon="11.2824067"><ele>8.0</ele><time>2026-05-01T07:32:57.749Z</time></trkpt><trkpt lat="44.9468883" lon="11.2826133"><ele>8.0</ele><time>2026-05-01T07:32:58.748Z</time></trkpt><trkpt lat="44.9468983" lon="11.2828083"><ele>8.0</ele><time>2026-05-01T07:32:59.745Z</time></trkpt><trkpt lat="44.9469067" lon="11.282995"><ele>8.0</ele><time>2026-05-01T07:33:00.741Z</time></trkpt><trkpt lat="44.9469183" lon="11.28318"><ele>8.0</ele><time>2026-05-01T07:33:01.741Z</time></trkpt><trkpt lat="44.9469283" lon="11.2833683"><ele>8.0</ele><time>2026-05-01T07:33:02.75Z</time></trkpt><trkpt lat="44.94694" lon="11.2835617"><ele>8.0</ele><time>2026-05-01T07:33:03.741Z</time></trkpt><trkpt lat="44.946955" lon="11.28376"><ele>8.0</ele><time>2026-05-01T07:33:04.746Z</time></trkpt><trkpt lat="44.94697" lon="11.2839633"><ele>8.333333333333332</ele><time>2026-05-01T07:33:05.74Z</time></trkpt><trkpt lat="44.9469833" lon="11.2841767"><ele>8.666666666666666</ele><time>2026-05-01T07:33:06.743Z</time></trkpt><trkpt lat="44.9469917" lon="11.2843983"><ele>9.0</ele><time>2026-05-01T07:33:07.747Z</time></trkpt><trkpt lat="44.9469967" lon="11.2846267"><ele>9.333333333333334</ele><time>2026-05-01T07:33:08.751Z</time></trkpt><trkpt lat="44.9470017" lon="11.28486"><ele>9.666666666666668</ele><time>2026-05-01T07:33:09.751Z</time></trkpt><trkpt lat="44.94701" lon="11.2850967"><ele>10.0</ele><time>2026-05-01T07:33:10.75Z</time></trkpt><trkpt lat="44.9470167" lon="11.2853367"><ele>10.0</ele><time>2026-05-01T07:33:11.748Z</time></trkpt><trkpt lat="44.94703" lon="11.28558"><ele>10.0</ele><time>2026-05-01T07:33:12.742Z</time></trkpt><trkpt lat="44.9470433" lon="11.285825"><ele>10.0</ele><time>2026-05-01T07:33:13.744Z</time></trkpt><trkpt lat="44.9470533" lon="11.2860717"><ele>10.0</ele><time>2026-05-01T07:33:14.751Z</time></trkpt><trkpt lat="44.9470667" lon="11.2863217"><ele>10.0</ele><time>2026-05-01T07:33:15.747Z</time></trkpt><trkpt lat="44.9470783" lon="11.2865717"><ele>10.0</ele><time>2026-05-01T07:33:16.751Z</time></trkpt><trkpt lat="44.9470917" lon="11.2868233"><ele>10.0</ele><time>2026-05-01T07:33:17.746Z</time></trkpt><trkpt lat="44.9471017" lon="11.2870783"><ele>10.0</ele><time>2026-05-01T07:33:18.75Z</time></trkpt><trkpt lat="44.9471067" lon="11.2873367"><ele>10.0</ele><time>2026-05-01T07:33:19.748Z</time></trkpt><trkpt lat="44.9471033" lon="11.2875967"><ele>10.0</ele><time>2026-05-01T07:33:20.75Z</time></trkpt><trkpt lat="44.9470933" lon="11.28786"><ele>10.0</ele><time>2026-05-01T07:33:21.741Z</time></trkpt><trkpt lat="44.9470817" lon="11.2881233"><ele>10.0</ele><time>2026-05-01T07:33:22.742Z</time></trkpt><trkpt lat="44.9470667" lon="11.2883867"><ele>10.0</ele><time>2026-05-01T07:33:23.75Z</time></trkpt><trkpt lat="44.94705" lon="11.2886483"><ele>10.0</ele><time>2026-05-01T07:33:24.747Z</time></trkpt><trkpt lat="44.947035" lon="11.288905"><ele>10.0</ele><time>2026-05-01T07:33:25.748Z</time></trkpt><trkpt lat="44.9470183" lon="11.28916"><ele>10.0</ele><time>2026-05-01T07:33:26.748Z</time></trkpt><trkpt lat="44.9470033" lon="11.28941"><ele>10.0</ele><time>2026-05-01T07:33:27.743Z</time></trkpt><trkpt lat="44.9469867" lon="11.28966"><ele>10.0</ele><time>2026-05-01T07:33:28.752Z</time></trkpt><trkpt lat="44.94697" lon="11.2899117"><ele>9.333333333333334</ele><time>2026-05-01T07:33:29.741Z</time></trkpt><trkpt lat="44.946955" lon="11.290165"><ele>8.666666666666666</ele><time>2026-05-01T07:33:30.743Z</time></trkpt><trkpt lat="44.94694" lon="11.2904233"><ele>8.0</ele><time>2026-05-01T07:33:31.744Z</time></trkpt><trkpt lat="44.946925" lon="11.2906833"><ele>8.0</ele><time>2026-05-01T07:33:32.751Z</time></trkpt><trkpt lat="44.9469083" lon="11.2909433"><ele>8.0</ele><time>2026-05-01T07:33:33.742Z</time></trkpt><trkpt lat="44.9468917" lon="11.2912017"><ele>8.0</ele><time>2026-05-01T07:33:34.746Z</time></trkpt><trkpt lat="44.9468733" lon="11.2914583"><ele>7.666666666666666</ele><time>2026-05-01T07:33:35.751Z</time></trkpt><trkpt lat="44.9468583" lon="11.2917133"><ele>7.333333333333334</ele><time>2026-05-01T07:33:36.753Z</time></trkpt><trkpt lat="44.946845" lon="11.29197"><ele>7.0</ele><time>2026-05-01T07:33:37.753Z</time></trkpt><trkpt lat="44.9468317" lon="11.2922283"><ele>6.666666666666667</ele><time>2026-05-01T07:33:38.751Z</time></trkpt><trkpt lat="44.9468183" lon="11.2924867"><ele>6.333333333333334</ele><time>2026-05-01T07:33:39.749Z</time></trkpt><trkpt lat="44.9468067" lon="11.2927517"><ele>6.0</ele><time>2026-05-01T07:33:40.748Z</time></trkpt><trkpt lat="44.946795" lon="11.2930317"><ele>6.333333333333334</ele><time>2026-05-01T07:33:41.751Z</time></trkpt><trkpt lat="44.94678" lon="11.2933267"><ele>6.666666666666667</ele><time>2026-05-01T07:33:42.748Z</time></trkpt><trkpt lat="44.9467617" lon="11.293635"><ele>7.0</ele><time>2026-05-01T07:33:43.752Z</time></trkpt><trkpt lat="44.9467383" lon="11.2939517"><ele>7.0</ele><time>2026-05-01T07:33:44.755Z</time></trkpt><trkpt lat="44.9467167" lon="11.2942683"><ele>7.0</ele><time>2026-05-01T07:33:45.75Z</time></trkpt><trkpt lat="44.946695" lon="11.294585"><ele>7.333333333333334</ele><time>2026-05-01T07:33:46.746Z</time></trkpt><trkpt lat="44.9466733" lon="11.2949017"><ele>7.666666666666666</ele><time>2026-05-01T07:33:47.748Z</time></trkpt><trkpt lat="44.9466517" lon="11.295215"><ele>8.0</ele><time>2026-05-01T07:33:48.75Z</time></trkpt><trkpt lat="44.9466333" lon="11.29553"><ele>7.666666666666666</ele><time>2026-05-01T07:33:49.75Z</time></trkpt><trkpt lat="44.946615" lon="11.295845"><ele>7.333333333333334</ele><time>2026-05-01T07:33:50.75Z</time></trkpt><trkpt lat="44.9465967" lon="11.2961517"><ele>7.0</ele><time>2026-05-01T07:33:51.748Z</time></trkpt><trkpt lat="44.94658" lon="11.2964517"><ele>7.0</ele><time>2026-05-01T07:33:52.749Z</time></trkpt><trkpt lat="44.9465633" lon="11.2967467"><ele>7.0</ele><time>2026-05-01T07:33:53.751Z</time></trkpt><trkpt lat="44.9465467" lon="11.2970383"><ele>7.0</ele><time>2026-05-01T07:33:54.748Z</time></trkpt><trkpt lat="44.9465283" lon="11.2973233"><ele>7.0</ele><time>2026-05-01T07:33:55.746Z</time></trkpt><trkpt lat="44.9465117" lon="11.297605"><ele>7.0</ele><time>2026-05-01T07:33:56.753Z</time></trkpt><trkpt lat="44.9464967" lon="11.2978833"><ele>7.0</ele><time>2026-05-01T07:33:57.751Z</time></trkpt><trkpt lat="44.94648" lon="11.2981583"><ele>7.333333333333334</ele><time>2026-05-01T07:33:58.749Z</time></trkpt><trkpt lat="44.9464617" lon="11.2984283"><ele>7.666666666666666</ele><time>2026-05-01T07:33:59.749Z</time></trkpt><trkpt lat="44.9464433" lon="11.29869"><ele>8.0</ele><time>2026-05-01T07:34:00.754Z</time></trkpt><trkpt lat="44.9464267" lon="11.29895"><ele>8.0</ele><time>2026-05-01T07:34:01.747Z</time></trkpt><trkpt lat="44.9464083" lon="11.29921"><ele>8.0</ele><time>2026-05-01T07:34:02.753Z</time></trkpt><trkpt lat="44.94639" lon="11.2994733"><ele>8.0</ele><time>2026-05-01T07:34:03.757Z</time></trkpt><trkpt lat="44.946375" lon="11.2997367"><ele>8.0</ele><time>2026-05-01T07:34:04.757Z</time></trkpt><trkpt lat="44.9463567" lon="11.3000033"><ele>8.0</ele><time>2026-05-01T07:34:05.752Z</time></trkpt><trkpt lat="44.9463417" lon="11.3002683"><ele>8.0</ele><time>2026-05-01T07:34:06.744Z</time></trkpt><trkpt lat="44.946325" lon="11.3005333"><ele>7.666666666666666</ele><time>2026-05-01T07:34:07.752Z</time></trkpt><trkpt lat="44.9463083" lon="11.3007967"><ele>7.333333333333334</ele><time>2026-05-01T07:34:08.757Z</time></trkpt><trkpt lat="44.9462933" lon="11.3010617"><ele>7.0</ele><time>2026-05-01T07:34:09.753Z</time></trkpt><trkpt lat="44.94628" lon="11.301325"><ele>7.0</ele><time>2026-05-01T07:34:10.749Z</time></trkpt><trkpt lat="44.946265" lon="11.30159"><ele>7.0</ele><time>2026-05-01T07:34:11.751Z</time></trkpt><trkpt lat="44.94625" lon="11.3018533"><ele>7.0</ele><time>2026-05-01T07:34:12.753Z</time></trkpt><trkpt lat="44.9462333" lon="11.30212"><ele>7.0</ele><time>2026-05-01T07:34:13.75Z</time></trkpt><trkpt lat="44.9462167" lon="11.302385"><ele>7.0</ele><time>2026-05-01T07:34:14.749Z</time></trkpt><trkpt lat="44.9462017" lon="11.3026517"><ele>7.0</ele><time>2026-05-01T07:34:15.743Z</time></trkpt><trkpt lat="44.9461867" lon="11.3029217"><ele>6.666666666666667</ele><time>2026-05-01T07:34:16.748Z</time></trkpt><trkpt lat="44.9461733" lon="11.3031917"><ele>6.333333333333334</ele><time>2026-05-01T07:34:17.75Z</time></trkpt><trkpt lat="44.9461583" lon="11.3034633"><ele>6.0</ele><time>2026-05-01T07:34:18.747Z</time></trkpt><trkpt lat="44.9461417" lon="11.3037333"><ele>6.333333333333334</ele><time>2026-05-01T07:34:19.752Z</time></trkpt><trkpt lat="44.946125" lon="11.3040033"><ele>6.666666666666667</ele><time>2026-05-01T07:34:20.744Z</time></trkpt><trkpt lat="44.94611" lon="11.3042733"><ele>7.0</ele><time>2026-05-01T07:34:21.751Z</time></trkpt><trkpt lat="44.9460933" lon="11.3045417"><ele>7.333333333333334</ele><time>2026-05-01T07:34:22.748Z</time></trkpt><trkpt lat="44.9460767" lon="11.3048067"><ele>7.666666666666666</ele><time>2026-05-01T07:34:23.749Z</time></trkpt><trkpt lat="44.946055" lon="11.30507"><ele>8.0</ele><time>2026-05-01T07:34:24.75Z</time></trkpt><trkpt lat="44.94603" lon="11.3053333"><ele>8.0</ele><time>2026-05-01T07:34:25.753Z</time></trkpt><trkpt lat="44.9459983" lon="11.3055983"><ele>8.0</ele><time>2026-05-01T07:34:26.755Z</time></trkpt><trkpt lat="44.94596" lon="11.3058583"><ele>8.0</ele><time>2026-05-01T07:34:27.753Z</time></trkpt><trkpt lat="44.94591" lon="11.30611"><ele>8.333333333333332</ele><time>2026-05-01T07:34:28.745Z</time></trkpt><trkpt lat="44.945855" lon="11.3063567"><ele>8.666666666666666</ele><time>2026-05-01T07:34:29.752Z</time></trkpt><trkpt lat="44.9457883" lon="11.3065983"><ele>9.0</ele><time>2026-05-01T07:34:30.748Z</time></trkpt><trkpt lat="44.9457133" lon="11.3068367"><ele>9.0</ele><time>2026-05-01T07:34:31.747Z</time></trkpt><trkpt lat="44.9456283" lon="11.3070717"><ele>9.0</ele><time>2026-05-01T07:34:32.742Z</time></trkpt><trkpt lat="44.9455383" lon="11.3073017"><ele>9.0</ele><time>2026-05-01T07:34:33.742Z</time></trkpt><trkpt lat="44.94544" lon="11.3075267"><ele>8.666666666666666</ele><time>2026-05-01T07:34:34.746Z</time></trkpt><trkpt lat="44.9453417" lon="11.3077467"><ele>8.333333333333332</ele><time>2026-05-01T07:34:35.743Z</time></trkpt><trkpt lat="44.94524" lon="11.3079617"><ele>8.0</ele><time>2026-05-01T07:34:36.742Z</time></trkpt><trkpt lat="44.9451433" lon="11.308175"><ele>8.0</ele><time>2026-05-01T07:34:37.751Z</time></trkpt><trkpt lat="44.9450533" lon="11.30839"><ele>8.0</ele><time>2026-05-01T07:34:38.749Z</time></trkpt><trkpt lat="44.944965" lon="11.30861"><ele>8.0</ele><time>2026-05-01T07:34:39.754Z</time></trkpt><trkpt lat="44.9448867" lon="11.3088333"><ele>8.333333333333332</ele><time>2026-05-01T07:34:40.75Z</time></trkpt><trkpt lat="44.9448117" lon="11.309065"><ele>8.666666666666666</ele><time>2026-05-01T07:34:41.749Z</time></trkpt><trkpt lat="44.9447467" lon="11.3093"><ele>9.0</ele><time>2026-05-01T07:34:42.755Z</time></trkpt><trkpt lat="44.944685" lon="11.3095383"><ele>9.0</ele><time>2026-05-01T07:34:43.748Z</time></trkpt><trkpt lat="44.9446233" lon="11.3097767"><ele>9.0</ele><time>2026-05-01T07:34:44.75Z</time></trkpt><trkpt lat="44.944565" lon="11.3100117"><ele>9.0</ele><time>2026-05-01T07:34:45.751Z</time></trkpt><trkpt lat="44.9445083" lon="11.310245"><ele>9.0</ele><time>2026-05-01T07:34:46.742Z</time></trkpt><trkpt lat="44.9444483" lon="11.3104767"><ele>9.0</ele><time>2026-05-01T07:34:47.747Z</time></trkpt><trkpt lat="44.9443917" lon="11.3107117"><ele>9.0</ele><time>2026-05-01T07:34:48.744Z</time></trkpt><trkpt lat="44.9443367" lon="11.3109483"><ele>8.666666666666666</ele><time>2026-05-01T07:34:49.752Z</time></trkpt><trkpt lat="44.9442783" lon="11.3111883"><ele>8.333333333333332</ele><time>2026-05-01T07:34:50.751Z</time></trkpt><trkpt lat="44.94422" lon="11.31143"><ele>8.0</ele><time>2026-05-01T07:34:51.75Z</time></trkpt><trkpt lat="44.9441517" lon="11.31167"><ele>8.666666666666666</ele><time>2026-05-01T07:34:52.75Z</time></trkpt><trkpt lat="44.9440683" lon="11.311905"><ele>9.333333333333334</ele><time>2026-05-01T07:34:53.746Z</time></trkpt><trkpt lat="44.9439683" lon="11.3121267"><ele>10.0</ele><time>2026-05-01T07:34:54.751Z</time></trkpt><trkpt lat="44.9438517" lon="11.3123367"><ele>10.0</ele><time>2026-05-01T07:34:55.755Z</time></trkpt><trkpt lat="44.9437283" lon="11.31254"><ele>10.0</ele><time>2026-05-01T07:34:56.744Z</time></trkpt><trkpt lat="44.9435983" lon="11.31274"><ele>10.0</ele><time>2026-05-01T07:34:57.747Z</time></trkpt><trkpt lat="44.9434633" lon="11.31294"><ele>10.0</ele><time>2026-05-01T07:34:58.754Z</time></trkpt><trkpt lat="44.943325" lon="11.3131367"><ele>10.0</ele><time>2026-05-01T07:34:59.75Z</time></trkpt><trkpt lat="44.9431767" lon="11.3133283"><ele>10.0</ele><time>2026-05-01T07:35:00.751Z</time></trkpt><trkpt lat="44.943025" lon="11.313515"><ele>10.0</ele><time>2026-05-01T07:35:01.744Z</time></trkpt><trkpt lat="44.9428683" lon="11.31369"><ele>10.0</ele><time>2026-05-01T07:35:02.754Z</time></trkpt><trkpt lat="44.9427067" lon="11.3138533"><ele>10.0</ele><time>2026-05-01T07:35:03.748Z</time></trkpt><trkpt lat="44.942545" lon="11.314005"><ele>9.333333333333334</ele><time>2026-05-01T07:35:04.751Z</time></trkpt><trkpt lat="44.942385" lon="11.3141483"><ele>8.666666666666666</ele><time>2026-05-01T07:35:05.752Z</time></trkpt><trkpt lat="44.942225" lon="11.3142817"><ele>8.0</ele><time>2026-05-01T07:35:06.742Z</time></trkpt><trkpt lat="44.942065" lon="11.314405"><ele>8.0</ele><time>2026-05-01T07:35:07.745Z</time></trkpt><trkpt lat="44.9418983" lon="11.3145233"><ele>8.0</ele><time>2026-05-01T07:35:08.742Z</time></trkpt><trkpt lat="44.9417317" lon="11.3146383"><ele>8.0</ele><time>2026-05-01T07:35:09.753Z</time></trkpt><trkpt lat="44.941565" lon="11.3147483"><ele>8.0</ele><time>2026-05-01T07:35:10.742Z</time></trkpt><trkpt lat="44.9413967" lon="11.3148583"><ele>8.0</ele><time>2026-05-01T07:35:11.742Z</time></trkpt><trkpt lat="44.941225" lon="11.3149683"><ele>8.0</ele><time>2026-05-01T07:35:12.75Z</time></trkpt><trkpt lat="44.941055" lon="11.3150783"><ele>8.0</ele><time>2026-05-01T07:35:13.743Z</time></trkpt><trkpt lat="44.9408867" lon="11.3151883"><ele>8.0</ele><time>2026-05-01T07:35:14.742Z</time></trkpt><trkpt lat="44.94072" lon="11.315295"><ele>8.0</ele><time>2026-05-01T07:35:15.743Z</time></trkpt><trkpt lat="44.940555" lon="11.3154067"><ele>7.666666666666666</ele><time>2026-05-01T07:35:16.742Z</time></trkpt><trkpt lat="44.9403883" lon="11.3155183"><ele>7.333333333333334</ele><time>2026-05-01T07:35:17.752Z</time></trkpt><trkpt lat="44.94022" lon="11.31563"><ele>7.0</ele><time>2026-05-01T07:35:18.749Z</time></trkpt><trkpt lat="44.940055" lon="11.315745"><ele>7.333333333333334</ele><time>2026-05-01T07:35:19.749Z</time></trkpt><trkpt lat="44.93989" lon="11.3158683"><ele>7.666666666666666</ele><time>2026-05-01T07:35:20.752Z</time></trkpt><trkpt lat="44.93973" lon="11.316005"><ele>8.0</ele><time>2026-05-01T07:35:21.749Z</time></trkpt><trkpt lat="44.9395767" lon="11.31616"><ele>8.0</ele><time>2026-05-01T07:35:22.75Z</time></trkpt><trkpt lat="44.9394317" lon="11.3163283"><ele>8.0</ele><time>2026-05-01T07:35:23.753Z</time></trkpt><trkpt lat="44.939295" lon="11.3165133"><ele>8.0</ele><time>2026-05-01T07:35:24.757Z</time></trkpt><trkpt lat="44.9391683" lon="11.3167133"><ele>8.0</ele><time>2026-05-01T07:35:25.751Z</time></trkpt><trkpt lat="44.93905" lon="11.316925"><ele>8.0</ele><time>2026-05-01T07:35:26.749Z</time></trkpt><trkpt lat="44.9389417" lon="11.31715"><ele>8.0</ele><time>2026-05-01T07:35:27.746Z</time></trkpt><trkpt lat="44.9388433" lon="11.3173817"><ele>7.666666666666666</ele><time>2026-05-01T07:35:28.748Z</time></trkpt><trkpt lat="44.9387517" lon="11.3176217"><ele>7.333333333333334</ele><time>2026-05-01T07:35:29.75Z</time></trkpt><trkpt lat="44.93867" lon="11.3178733"><ele>7.0</ele><time>2026-05-01T07:35:30.756Z</time></trkpt><trkpt lat="44.938605" lon="11.3181367"><ele>7.0</ele><time>2026-05-01T07:35:31.744Z</time></trkpt><trkpt lat="44.9385583" lon="11.3184117"><ele>7.0</ele><time>2026-05-01T07:35:32.748Z</time></trkpt><trkpt lat="44.938525" lon="11.3186933"><ele>7.0</ele><time>2026-05-01T07:35:33.743Z</time></trkpt><trkpt lat="44.9384967" lon="11.3189783"><ele>6.666666666666667</ele><time>2026-05-01T07:35:34.742Z</time></trkpt><trkpt lat="44.93847" lon="11.3192683"><ele>6.333333333333334</ele><time>2026-05-01T07:35:35.754Z</time></trkpt><trkpt lat="44.9384467" lon="11.3195617"><ele>6.0</ele><time>2026-05-01T07:35:36.744Z</time></trkpt><trkpt lat="44.9384217" lon="11.31986"><ele>6.0</ele><time>2026-05-01T07:35:37.751Z</time></trkpt><trkpt lat="44.938395" lon="11.3201583"><ele>6.0</ele><time>2026-05-01T07:35:38.753Z</time></trkpt><trkpt lat="44.9383667" lon="11.3204517"><ele>6.0</ele><time>2026-05-01T07:35:39.748Z</time></trkpt><trkpt lat="44.9383333" lon="11.3207367"><ele>6.333333333333334</ele><time>2026-05-01T07:35:40.742Z</time></trkpt><trkpt lat="44.9383033" lon="11.3210183"><ele>6.666666666666667</ele><time>2026-05-01T07:35:41.756Z</time></trkpt><trkpt lat="44.938275" lon="11.3213017"><ele>7.0</ele><time>2026-05-01T07:35:42.751Z</time></trkpt><trkpt lat="44.938245" lon="11.3215867"><ele>7.333333333333334</ele><time>2026-05-01T07:35:43.742Z</time></trkpt><trkpt lat="44.9382233" lon="11.3218733"><ele>7.666666666666666</ele><time>2026-05-01T07:35:44.749Z</time></trkpt><trkpt lat="44.93821" lon="11.3221617"><ele>8.0</ele><time>2026-05-01T07:35:45.752Z</time></trkpt><trkpt lat="44.9382033" lon="11.3224483"><ele>8.0</ele><time>2026-05-01T07:35:46.75Z</time></trkpt><trkpt lat="44.938195" lon="11.3227283"><ele>8.0</ele><time>2026-05-01T07:35:47.744Z</time></trkpt><trkpt lat="44.9381817" lon="11.3230067"><ele>8.0</ele><time>2026-05-01T07:35:48.743Z</time></trkpt><trkpt lat="44.93816" lon="11.3232767"><ele>8.0</ele><time>2026-05-01T07:35:49.744Z</time></trkpt><trkpt lat="44.9381283" lon="11.323535"><ele>8.0</ele><time>2026-05-01T07:35:50.742Z</time></trkpt><trkpt lat="44.9380917" lon="11.3237767"><ele>8.0</ele><time>2026-05-01T07:35:51.742Z</time></trkpt><trkpt lat="44.9380533" lon="11.3240033"><ele>8.0</ele><time>2026-05-01T07:35:52.742Z</time></trkpt><trkpt lat="44.9380133" lon="11.32423"><ele>8.0</ele><time>2026-05-01T07:35:53.744Z</time></trkpt><trkpt lat="44.93798" lon="11.3244583"><ele>8.0</ele><time>2026-05-01T07:35:54.741Z</time></trkpt><trkpt lat="44.9379583" lon="11.32469"><ele>7.666666666666666</ele><time>2026-05-01T07:35:55.741Z</time></trkpt><trkpt lat="44.9379483" lon="11.324925"><ele>7.333333333333334</ele><time>2026-05-01T07:35:56.742Z</time></trkpt><trkpt lat="44.9379467" lon="11.3251633"><ele>7.0</ele><time>2026-05-01T07:35:57.744Z</time></trkpt><trkpt lat="44.9379433" lon="11.3254033"><ele>7.333333333333334</ele><time>2026-05-01T07:35:58.745Z</time></trkpt><trkpt lat="44.9379317" lon="11.3256567"><ele>7.666666666666666</ele><time>2026-05-01T07:35:59.742Z</time></trkpt><trkpt lat="44.937915" lon="11.3259267"><ele>8.0</ele><time>2026-05-01T07:36:00.744Z</time></trkpt><trkpt lat="44.9378933" lon="11.3262117"><ele>7.666666666666666</ele><time>2026-05-01T07:36:01.745Z</time></trkpt><trkpt lat="44.937865" lon="11.3265"><ele>7.333333333333334</ele><time>2026-05-01T07:36:02.744Z</time></trkpt><trkpt lat="44.9378389" lon="11.3267912"><ele>7.0</ele><time>2026-05-01T07:36:03.742Z</time></trkpt><trkpt lat="44.9378121" lon="11.3270935"><ele>7.0</ele><time>2026-05-01T07:36:04.745Z</time></trkpt><trkpt lat="44.9377828" lon="11.3274008"><ele>7.0</ele><time>2026-05-01T07:36:05.744Z</time></trkpt><trkpt lat="44.9377494" lon="11.3277127"><ele>7.0</ele><time>2026-05-01T07:36:06.743Z</time></trkpt><trkpt lat="44.9377125" lon="11.3280324"><ele>6.5</ele><time>2026-05-01T07:36:07.746Z</time></trkpt><trkpt lat="44.9376745" lon="11.3283559"><ele>6.0</ele><time>2026-05-01T07:36:08.743Z</time></trkpt><trkpt lat="44.9376393" lon="11.3286852"><ele>6.0</ele><time>2026-05-01T07:36:09.751Z</time></trkpt><trkpt lat="44.9376043" lon="11.3290159"><ele>6.0</ele><time>2026-05-01T07:36:10.746Z</time></trkpt><trkpt lat="44.9375715" lon="11.3293504"><ele>6.5</ele><time>2026-05-01T07:36:11.754Z</time></trkpt><trkpt lat="44.9375408" lon="11.3296813"><ele>7.0</ele><time>2026-05-01T07:36:12.744Z</time></trkpt><trkpt lat="44.9375129" lon="11.3300142"><ele>7.0</ele><time>2026-05-01T07:36:13.749Z</time></trkpt><trkpt lat="44.9374918" lon="11.330345"><ele>7.0</ele><time>2026-05-01T07:36:14.757Z</time></trkpt><trkpt lat="44.9374809" lon="11.3306727"><ele>7.0</ele><time>2026-05-01T07:36:15.753Z</time></trkpt><trkpt lat="44.9374777" lon="11.3310008"><ele>7.0</ele><time>2026-05-01T07:36:16.75Z</time></trkpt><trkpt lat="44.9374732" lon="11.331329"><ele>7.0</ele><time>2026-05-01T07:36:17.752Z</time></trkpt><trkpt lat="44.9374605" lon="11.3316558"><ele>7.0</ele><time>2026-05-01T07:36:18.749Z</time></trkpt><trkpt lat="44.9374425" lon="11.3319826"><ele>7.0</ele><time>2026-05-01T07:36:19.754Z</time></trkpt><trkpt lat="44.9374211" lon="11.3323009"><ele>7.0</ele><time>2026-05-01T07:36:20.745Z</time></trkpt><trkpt lat="44.9373982" lon="11.3326098"><ele>7.0</ele><time>2026-05-01T07:36:21.755Z</time></trkpt><trkpt lat="44.9373764" lon="11.3329083"><ele>7.333333333333334</ele><time>2026-05-01T07:36:22.749Z</time></trkpt><trkpt lat="44.9373571" lon="11.3332036"><ele>7.666666666666666</ele><time>2026-05-01T07:36:23.752Z</time></trkpt><trkpt lat="44.9373385" lon="11.3334868"><ele>8.0</ele><time>2026-05-01T07:36:24.751Z</time></trkpt><trkpt lat="44.9373161" lon="11.3337462"><ele>7.5</ele><time>2026-05-01T07:36:25.757Z</time></trkpt><trkpt lat="44.9372809" lon="11.3339721"><ele>7.0</ele><time>2026-05-01T07:36:26.75Z</time></trkpt><trkpt lat="44.9372179" lon="11.3341584"><ele>6.5</ele><time>2026-05-01T07:36:27.749Z</time></trkpt><trkpt lat="44.9371227" lon="11.3342988"><ele>6.0</ele><time>2026-05-01T07:36:28.754Z</time></trkpt><trkpt lat="44.9370013" lon="11.3343862"><ele>6.0</ele><time>2026-05-01T07:36:29.755Z</time></trkpt><trkpt lat="44.936854" lon="11.3344196"><ele>6.0</ele><time>2026-05-01T07:36:30.748Z</time></trkpt><trkpt lat="44.9366931" lon="11.3344214"><ele>6.0</ele><time>2026-05-01T07:36:31.747Z</time></trkpt><trkpt lat="44.936526" lon="11.3344067"><ele>7.0</ele><time>2026-05-01T07:36:32.752Z</time></trkpt><trkpt lat="44.9363526" lon="11.3343885"><ele>8.0</ele><time>2026-05-01T07:36:33.749Z</time></trkpt><trkpt lat="44.9361718" lon="11.3343788"><ele>9.0</ele><time>2026-05-01T07:36:34.747Z</time></trkpt><trkpt lat="44.935991" lon="11.3343937"><ele>8.666666666666666</ele><time>2026-05-01T07:36:35.745Z</time></trkpt><trkpt lat="44.9358129" lon="11.3344473"><ele>8.333333333333332</ele><time>2026-05-01T07:36:36.752Z</time></trkpt><trkpt lat="44.9356408" lon="11.3345422"><ele>8.0</ele><time>2026-05-01T07:36:37.747Z</time></trkpt><trkpt lat="44.9354772" lon="11.3346679"><ele>7.666666666666666</ele><time>2026-05-01T07:36:38.754Z</time></trkpt><trkpt lat="44.9353223" lon="11.3348192"><ele>7.333333333333334</ele><time>2026-05-01T07:36:39.742Z</time></trkpt><trkpt lat="44.9351687" lon="11.3349908"><ele>7.0</ele><time>2026-05-01T07:36:40.751Z</time></trkpt><trkpt lat="44.9350178" lon="11.3351707"><ele>7.0</ele><time>2026-05-01T07:36:41.745Z</time></trkpt><trkpt lat="44.9348664" lon="11.3353575"><ele>7.0</ele><time>2026-05-01T07:36:42.745Z</time></trkpt><trkpt lat="44.9347121" lon="11.335543"><ele>7.0</ele><time>2026-05-01T07:36:43.749Z</time></trkpt><trkpt lat="44.9345504" lon="11.3357209"><ele>6.666666666666667</ele><time>2026-05-01T07:36:44.744Z</time></trkpt><trkpt lat="44.9343785" lon="11.3358824"><ele>6.333333333333334</ele><time>2026-05-01T07:36:45.744Z</time></trkpt><trkpt lat="44.9341971" lon="11.3360242"><ele>6.0</ele><time>2026-05-01T07:36:46.749Z</time></trkpt><trkpt lat="44.9340045" lon="11.336146"><ele>6.0</ele><time>2026-05-01T07:36:47.752Z</time></trkpt><trkpt lat="44.9338072" lon="11.3362593"><ele>6.0</ele><time>2026-05-01T07:36:48.749Z</time></trkpt><trkpt lat="44.9336064" lon="11.3363739"><ele>6.0</ele><time>2026-05-01T07:36:49.75Z</time></trkpt><trkpt lat="44.9334052" lon="11.3364897"><ele>6.333333333333334</ele><time>2026-05-01T07:36:50.749Z</time></trkpt><trkpt lat="44.9332043" lon="11.336609"><ele>6.666666666666667</ele><time>2026-05-01T07:36:51.753Z</time></trkpt><trkpt lat="44.933006" lon="11.3367358"><ele>7.0</ele><time>2026-05-01T07:36:52.748Z</time></trkpt><trkpt lat="44.9328144" lon="11.3368783"><ele>7.0</ele><time>2026-05-01T07:36:53.744Z</time></trkpt><trkpt lat="44.9326311" lon="11.3370399"><ele>7.0</ele><time>2026-05-01T07:36:54.75Z</time></trkpt><trkpt lat="44.9324565" lon="11.3372197"><ele>7.0</ele><time>2026-05-01T07:36:55.744Z</time></trkpt><trkpt lat="44.9322834" lon="11.3374118"><ele>7.0</ele><time>2026-05-01T07:36:56.748Z</time></trkpt><trkpt lat="44.9321095" lon="11.3376047"><ele>7.0</ele><time>2026-05-01T07:36:57.742Z</time></trkpt><trkpt lat="44.9319327" lon="11.3377997"><ele>7.0</ele><time>2026-05-01T07:36:58.753Z</time></trkpt><trkpt lat="44.9317568" lon="11.3379948"><ele>7.5</ele><time>2026-05-01T07:36:59.751Z</time></trkpt><trkpt lat="44.9315804" lon="11.3381918"><ele>8.0</ele><time>2026-05-01T07:37:00.749Z</time></trkpt><trkpt lat="44.9314022" lon="11.3383883"><ele>8.0</ele><time>2026-05-01T07:37:01.752Z</time></trkpt><trkpt lat="44.9312236" lon="11.338586"><ele>8.0</ele><time>2026-05-01T07:37:02.752Z</time></trkpt><trkpt lat="44.9310437" lon="11.3387844"><ele>7.0</ele><time>2026-05-01T07:37:03.753Z</time></trkpt><trkpt lat="44.9308639" lon="11.3389843"><ele>6.0</ele><time>2026-05-01T07:37:04.75Z</time></trkpt><trkpt lat="44.9306826" lon="11.3391848"><ele>6.0</ele><time>2026-05-01T07:37:05.749Z</time></trkpt><trkpt lat="44.9304993" lon="11.3393861"><ele>6.0</ele><time>2026-05-01T07:37:06.753Z</time></trkpt><trkpt lat="44.9303172" lon="11.3395845"><ele>6.0</ele><time>2026-05-01T07:37:07.749Z</time></trkpt><trkpt lat="44.9301326" lon="11.3397818"><ele>6.0</ele><time>2026-05-01T07:37:08.752Z</time></trkpt><trkpt lat="44.9299475" lon="11.3399753"><ele>6.5</ele><time>2026-05-01T07:37:09.75Z</time></trkpt><trkpt lat="44.9297553" lon="11.3401652"><ele>7.0</ele><time>2026-05-01T07:37:10.751Z</time></trkpt><trkpt lat="44.9295589" lon="11.3403487"><ele>7.0</ele><time>2026-05-01T07:37:11.748Z</time></trkpt><trkpt lat="44.9293588" lon="11.340523"><ele>7.0</ele><time>2026-05-01T07:37:12.744Z</time></trkpt><trkpt lat="44.9291537" lon="11.3406931"><ele>6.5</ele><time>2026-05-01T07:37:13.75Z</time></trkpt><trkpt lat="44.9289485" lon="11.3408576"><ele>6.0</ele><time>2026-05-01T07:37:14.742Z</time></trkpt><trkpt lat="44.9287406" lon="11.3410211"><ele>6.0</ele><time>2026-05-01T07:37:15.754Z</time></trkpt><trkpt lat="44.928533" lon="11.3411835"><ele>6.0</ele><time>2026-05-01T07:37:16.75Z</time></trkpt><trkpt lat="44.9283259" lon="11.3413426"><ele>6.5</ele><time>2026-05-01T07:37:17.749Z</time></trkpt><trkpt lat="44.9281203" lon="11.3414875"><ele>7.0</ele><time>2026-05-01T07:37:18.749Z</time></trkpt><trkpt lat="44.9279156" lon="11.3416143"><ele>7.0</ele><time>2026-05-01T07:37:19.743Z</time></trkpt><trkpt lat="44.92771" lon="11.3417295"><ele>7.0</ele><time>2026-05-01T07:37:20.75Z</time></trkpt><trkpt lat="44.927508" lon="11.3418343"><ele>7.0</ele><time>2026-05-01T07:37:21.753Z</time></trkpt><trkpt lat="44.927312" lon="11.3419288"><ele>7.333333333333334</ele><time>2026-05-01T07:37:22.741Z</time></trkpt><trkpt lat="44.9271249" lon="11.3420217"><ele>7.666666666666666</ele><time>2026-05-01T07:37:23.751Z</time></trkpt><trkpt lat="44.9269546" lon="11.3421225"><ele>8.0</ele><time>2026-05-01T07:37:24.752Z</time></trkpt><trkpt lat="44.9268019" lon="11.3422434"><ele>7.0</ele><time>2026-05-01T07:37:25.746Z</time></trkpt><trkpt lat="44.9266734" lon="11.3423946"><ele>6.0</ele><time>2026-05-01T07:37:26.75Z</time></trkpt><trkpt lat="44.9265669" lon="11.3425801"><ele>5.0</ele><time>2026-05-01T07:37:27.752Z</time></trkpt><trkpt lat="44.9264822" lon="11.3427938"><ele>5.0</ele><time>2026-05-01T07:37:28.747Z</time></trkpt><trkpt lat="44.9264147" lon="11.3430282"><ele>5.0</ele><time>2026-05-01T07:37:29.75Z</time></trkpt><trkpt lat="44.9263577" lon="11.3432708"><ele>5.0</ele><time>2026-05-01T07:37:30.753Z</time></trkpt><trkpt lat="44.926296" lon="11.3435144"><ele>5.0</ele><time>2026-05-01T07:37:31.751Z</time></trkpt><trkpt lat="44.9262219" lon="11.3437522"><ele>5.0</ele><time>2026-05-01T07:37:32.748Z</time></trkpt><trkpt lat="44.9261296" lon="11.343982"><ele>5.0</ele><time>2026-05-01T07:37:33.756Z</time></trkpt><trkpt lat="44.9260171" lon="11.3441969"><ele>5.666666666666667</ele><time>2026-05-01T07:37:34.753Z</time></trkpt><trkpt lat="44.9258818" lon="11.3443966"><ele>6.333333333333334</ele><time>2026-05-01T07:37:35.749Z</time></trkpt><trkpt lat="44.9257349" lon="11.344588"><ele>7.0</ele><time>2026-05-01T07:37:36.751Z</time></trkpt><trkpt lat="44.9255817" lon="11.3447807"><ele>7.0</ele><time>2026-05-01T07:37:37.747Z</time></trkpt><trkpt lat="44.9254264" lon="11.3449778"><ele>7.0</ele><time>2026-05-01T07:37:38.747Z</time></trkpt><trkpt lat="44.9252664" lon="11.3451806"><ele>7.0</ele><time>2026-05-01T07:37:39.751Z</time></trkpt><trkpt lat="44.9251072" lon="11.3453897"><ele>6.333333333333334</ele><time>2026-05-01T07:37:40.753Z</time></trkpt><trkpt lat="44.9249467" lon="11.3456029"><ele>5.666666666666667</ele><time>2026-05-01T07:37:41.752Z</time></trkpt><trkpt lat="44.9247838" lon="11.3458169"><ele>5.0</ele><time>2026-05-01T07:37:42.745Z</time></trkpt><trkpt lat="44.9246182" lon="11.3460344"><ele>5.0</ele><time>2026-05-01T07:37:43.751Z</time></trkpt><trkpt lat="44.9244531" lon="11.3462525"><ele>5.0</ele><time>2026-05-01T07:37:44.747Z</time></trkpt><trkpt lat="44.9242871" lon="11.3464744"><ele>5.5</ele><time>2026-05-01T07:37:45.752Z</time></trkpt><trkpt lat="44.9241183" lon="11.3466985"><ele>6.0</ele><time>2026-05-01T07:37:46.746Z</time></trkpt><trkpt lat="44.9239492" lon="11.3469241"><ele>6.0</ele><time>2026-05-01T07:37:47.745Z</time></trkpt><trkpt lat="44.9237816" lon="11.347146"><ele>6.0</ele><time>2026-05-01T07:37:48.753Z</time></trkpt><trkpt lat="44.9236152" lon="11.3473616"><ele>6.0</ele><time>2026-05-01T07:37:49.753Z</time></trkpt><trkpt lat="44.9234485" lon="11.347563"><ele>6.0</ele><time>2026-05-01T07:37:50.751Z</time></trkpt><trkpt lat="44.9232721" lon="11.3477396"><ele>6.0</ele><time>2026-05-01T07:37:51.748Z</time></trkpt><trkpt lat="44.9230862" lon="11.3478879"><ele>6.0</ele><time>2026-05-01T07:37:52.747Z</time></trkpt><trkpt lat="44.9228901" lon="11.3480113"><ele>6.0</ele><time>2026-05-01T07:37:53.748Z</time></trkpt><trkpt lat="44.9226854" lon="11.34812"><ele>6.0</ele><time>2026-05-01T07:37:54.755Z</time></trkpt><trkpt lat="44.9224799" lon="11.3482274"><ele>6.0</ele><time>2026-05-01T07:37:55.755Z</time></trkpt><trkpt lat="44.9222773" lon="11.348347"><ele>6.0</ele><time>2026-05-01T07:37:56.75Z</time></trkpt><trkpt lat="44.9220803" lon="11.3484815"><ele>6.0</ele><time>2026-05-01T07:37:57.752Z</time></trkpt><trkpt lat="44.9218934" lon="11.3486375"><ele>6.0</ele><time>2026-05-01T07:37:58.742Z</time></trkpt><trkpt lat="44.9217178" lon="11.3488167"><ele>6.0</ele><time>2026-05-01T07:37:59.751Z</time></trkpt><trkpt lat="44.9215603" lon="11.3490148"><ele>6.0</ele><time>2026-05-01T07:38:00.743Z</time></trkpt><trkpt lat="44.9214148" lon="11.3492346"><ele>5.666666666666667</ele><time>2026-05-01T07:38:01.744Z</time></trkpt><trkpt lat="44.921285" lon="11.3494783"><ele>5.333333333333334</ele><time>2026-05-01T07:38:02.754Z</time></trkpt><trkpt lat="44.9211667" lon="11.3497283"><ele>5.0</ele><time>2026-05-01T07:38:03.752Z</time></trkpt><trkpt lat="44.9210533" lon="11.3499817"><ele>5.0</ele><time>2026-05-01T07:38:04.747Z</time></trkpt><trkpt lat="44.9209417" lon="11.3502383"><ele>5.0</ele><time>2026-05-01T07:38:05.75Z</time></trkpt><trkpt lat="44.92083" lon="11.35049"><ele>5.0</ele><time>2026-05-01T07:38:06.745Z</time></trkpt><trkpt lat="44.920715" lon="11.3507383"><ele>5.0</ele><time>2026-05-01T07:38:07.75Z</time></trkpt><trkpt lat="44.92059" lon="11.3509767"><ele>5.0</ele><time>2026-05-01T07:38:08.743Z</time></trkpt><trkpt lat="44.920445" lon="11.351195"><ele>5.0</ele><time>2026-05-01T07:38:09.743Z</time></trkpt><trkpt lat="44.92029" lon="11.3514"><ele>5.0</ele><time>2026-05-01T07:38:10.754Z</time></trkpt><trkpt lat="44.9201317" lon="11.351605"><ele>5.0</ele><time>2026-05-01T07:38:11.751Z</time></trkpt><trkpt lat="44.9199717" lon="11.3518117"><ele>5.0</ele><time>2026-05-01T07:38:12.743Z</time></trkpt><trkpt lat="44.91981" lon="11.35202"><ele>5.333333333333334</ele><time>2026-05-01T07:38:13.744Z</time></trkpt><trkpt lat="44.919645" lon="11.352225"><ele>5.666666666666667</ele><time>2026-05-01T07:38:14.756Z</time></trkpt><trkpt lat="44.919485" lon="11.35242"><ele>6.0</ele><time>2026-05-01T07:38:15.753Z</time></trkpt><trkpt lat="44.9193217" lon="11.3525983"><ele>6.0</ele><time>2026-05-01T07:38:16.753Z</time></trkpt><trkpt lat="44.91915" lon="11.3527467"><ele>6.0</ele><time>2026-05-01T07:38:17.754Z</time></trkpt><trkpt lat="44.91897" lon="11.352855"><ele>6.0</ele><time>2026-05-01T07:38:18.755Z</time></trkpt><trkpt lat="44.9187833" lon="11.352925"><ele>6.0</ele><time>2026-05-01T07:38:19.751Z</time></trkpt><trkpt lat="44.9185917" lon="11.35295"><ele>6.0</ele><time>2026-05-01T07:38:20.742Z</time></trkpt><trkpt lat="44.9183983" lon="11.3529333"><ele>6.0</ele><time>2026-05-01T07:38:21.749Z</time></trkpt><trkpt lat="44.9182067" lon="11.3528867"><ele>6.333333333333334</ele><time>2026-05-01T07:38:22.743Z</time></trkpt><trkpt lat="44.918015" lon="11.3528133"><ele>6.666666666666667</ele><time>2026-05-01T07:38:23.742Z</time></trkpt><trkpt lat="44.9178233" lon="11.3527283"><ele>7.0</ele><time>2026-05-01T07:38:24.749Z</time></trkpt><trkpt lat="44.9176333" lon="11.3526467"><ele>7.333333333333334</ele><time>2026-05-01T07:38:25.751Z</time></trkpt><trkpt lat="44.9174467" lon="11.3525683"><ele>7.666666666666666</ele><time>2026-05-01T07:38:26.75Z</time></trkpt><trkpt lat="44.917265" lon="11.3524867"><ele>8.0</ele><time>2026-05-01T07:38:27.752Z</time></trkpt><trkpt lat="44.9170883" lon="11.352405"><ele>8.0</ele><time>2026-05-01T07:38:28.748Z</time></trkpt><trkpt lat="44.9169167" lon="11.352325"><ele>8.0</ele><time>2026-05-01T07:38:29.751Z</time></trkpt><trkpt lat="44.916745" lon="11.352245"><ele>8.0</ele><time>2026-05-01T07:38:30.752Z</time></trkpt><trkpt lat="44.9165733" lon="11.3521633"><ele>8.333333333333332</ele><time>2026-05-01T07:38:31.75Z</time></trkpt><trkpt lat="44.916405" lon="11.35209"><ele>8.666666666666666</ele><time>2026-05-01T07:38:32.749Z</time></trkpt><trkpt lat="44.9162383" lon="11.3520167"><ele>9.0</ele><time>2026-05-01T07:38:33.753Z</time></trkpt><trkpt lat="44.9160733" lon="11.351945"><ele>9.0</ele><time>2026-05-01T07:38:34.75Z</time></trkpt><trkpt lat="44.9159133" lon="11.3518717"><ele>9.0</ele><time>2026-05-01T07:38:35.751Z</time></trkpt><trkpt lat="44.91575" lon="11.351805"><ele>9.0</ele><time>2026-05-01T07:38:36.748Z</time></trkpt><trkpt lat="44.9155933" lon="11.3517417"><ele>9.0</ele><time>2026-05-01T07:38:37.751Z</time></trkpt><trkpt lat="44.9154383" lon="11.3516733"><ele>9.0</ele><time>2026-05-01T07:38:38.751Z</time></trkpt><trkpt lat="44.915285" lon="11.35161"><ele>9.0</ele><time>2026-05-01T07:38:39.754Z</time></trkpt><trkpt lat="44.9151383" lon="11.351545"><ele>9.0</ele><time>2026-05-01T07:38:40.751Z</time></trkpt><trkpt lat="44.9149933" lon="11.3514817"><ele>9.0</ele><time>2026-05-01T07:38:41.741Z</time></trkpt><trkpt lat="44.9148517" lon="11.3514217"><ele>9.0</ele><time>2026-05-01T07:38:42.742Z</time></trkpt><trkpt lat="44.9147133" lon="11.3513617"><ele>9.0</ele><time>2026-05-01T07:38:43.743Z</time></trkpt><trkpt lat="44.9145783" lon="11.351305"><ele>8.8</ele><time>2026-05-01T07:38:44.75Z</time></trkpt><trkpt lat="44.914455" lon="11.351255"><ele>8.600000000000001</ele><time>2026-05-01T07:38:45.746Z</time></trkpt><trkpt lat="44.9143467" lon="11.3512267"><ele>8.4</ele><time>2026-05-01T07:38:46.741Z</time></trkpt><trkpt lat="44.91425" lon="11.3512433"><ele>8.200000000000001</ele><time>2026-05-01T07:38:47.742Z</time></trkpt><trkpt lat="44.9141717" lon="11.3513167"><ele>8.0</ele><time>2026-05-01T07:38:48.742Z</time></trkpt><trkpt lat="44.9141083" lon="11.3514317"><ele>8.0</ele><time>2026-05-01T07:38:49.753Z</time></trkpt><trkpt lat="44.9140617" lon="11.35157"><ele>8.0</ele><time>2026-05-01T07:38:50.741Z</time></trkpt><trkpt lat="44.91401" lon="11.35172"><ele>8.0</ele><time>2026-05-01T07:38:51.75Z</time></trkpt><trkpt lat="44.91395" lon="11.3518783"><ele>8.0</ele><time>2026-05-01T07:38:52.751Z</time></trkpt><trkpt lat="44.913885" lon="11.3520367"><ele>8.0</ele><time>2026-05-01T07:38:53.743Z</time></trkpt><trkpt lat="44.9138167" lon="11.3521933"><ele>8.0</ele><time>2026-05-01T07:38:54.75Z</time></trkpt><trkpt lat="44.9137483" lon="11.35235"><ele>8.0</ele><time>2026-05-01T07:38:55.753Z</time></trkpt><trkpt lat="44.913675" lon="11.35251"><ele>8.0</ele><time>2026-05-01T07:38:56.755Z</time></trkpt><trkpt lat="44.9136" lon="11.3526683"><ele>8.0</ele><time>2026-05-01T07:38:57.75Z</time></trkpt><trkpt lat="44.9135267" lon="11.352825"><ele>8.0</ele><time>2026-05-01T07:38:58.752Z</time></trkpt><trkpt lat="44.9134567" lon="11.3529783"><ele>8.0</ele><time>2026-05-01T07:38:59.749Z</time></trkpt><trkpt lat="44.9133883" lon="11.35313"><ele>8.0</ele><time>2026-05-01T07:39:00.751Z</time></trkpt><trkpt lat="44.9133233" lon="11.3532783"><ele>8.25</ele><time>2026-05-01T07:39:01.748Z</time></trkpt><trkpt lat="44.9132617" lon="11.353425"><ele>8.5</ele><time>2026-05-01T07:39:02.752Z</time></trkpt><trkpt lat="44.9132" lon="11.3535733"><ele>8.75</ele><time>2026-05-01T07:39:03.749Z</time></trkpt><trkpt lat="44.9131333" lon="11.3537283"><ele>9.0</ele><time>2026-05-01T07:39:04.749Z</time></trkpt><trkpt lat="44.9130617" lon="11.35389"><ele>9.0</ele><time>2026-05-01T07:39:05.746Z</time></trkpt><trkpt lat="44.912985" lon="11.3540567"><ele>9.0</ele><time>2026-05-01T07:39:06.744Z</time></trkpt><trkpt lat="44.9129" lon="11.3542233"><ele>9.0</ele><time>2026-05-01T07:39:07.752Z</time></trkpt><trkpt lat="44.9128067" lon="11.3543933"><ele>9.0</ele><time>2026-05-01T07:39:08.752Z</time></trkpt><trkpt lat="44.9127067" lon="11.3545683"><ele>9.0</ele><time>2026-05-01T07:39:09.749Z</time></trkpt><trkpt lat="44.9125967" lon="11.3547367"><ele>9.0</ele><time>2026-05-01T07:39:10.752Z</time></trkpt><trkpt lat="44.9124767" lon="11.3549"><ele>9.0</ele><time>2026-05-01T07:39:11.748Z</time></trkpt><trkpt lat="44.9123433" lon="11.3550483"><ele>9.0</ele><time>2026-05-01T07:39:12.751Z</time></trkpt><trkpt lat="44.9122" lon="11.355185"><ele>9.0</ele><time>2026-05-01T07:39:13.749Z</time></trkpt><trkpt lat="44.9120567" lon="11.3553117"><ele>9.0</ele><time>2026-05-01T07:39:14.75Z</time></trkpt><trkpt lat="44.9119117" lon="11.3554383"><ele>9.333333333333334</ele><time>2026-05-01T07:39:15.744Z</time></trkpt><trkpt lat="44.9117683" lon="11.355565"><ele>9.666666666666668</ele><time>2026-05-01T07:39:16.751Z</time></trkpt><trkpt lat="44.9116267" lon="11.35569"><ele>10.0</ele><time>2026-05-01T07:39:17.749Z</time></trkpt><trkpt lat="44.911485" lon="11.3558133"><ele>9.333333333333334</ele><time>2026-05-01T07:39:18.746Z</time></trkpt><trkpt lat="44.9113433" lon="11.3559283"><ele>8.666666666666666</ele><time>2026-05-01T07:39:19.75Z</time></trkpt><trkpt lat="44.9112" lon="11.35604"><ele>8.0</ele><time>2026-05-01T07:39:20.749Z</time></trkpt><trkpt lat="44.911055" lon="11.3561483"><ele>8.0</ele><time>2026-05-01T07:39:21.749Z</time></trkpt><trkpt lat="44.9109083" lon="11.3562567"><ele>8.0</ele><time>2026-05-01T07:39:22.754Z</time></trkpt><trkpt lat="44.91076" lon="11.3563667"><ele>8.0</ele><time>2026-05-01T07:39:23.755Z</time></trkpt><trkpt lat="44.9106117" lon="11.356475"><ele>8.0</ele><time>2026-05-01T07:39:24.75Z</time></trkpt><trkpt lat="44.9104633" lon="11.356585"><ele>8.0</ele><time>2026-05-01T07:39:25.752Z</time></trkpt><trkpt lat="44.9103183" lon="11.356695"><ele>8.0</ele><time>2026-05-01T07:39:26.753Z</time></trkpt><trkpt lat="44.91018" lon="11.3568067"><ele>7.666666666666666</ele><time>2026-05-01T07:39:27.748Z</time></trkpt><trkpt lat="44.9100417" lon="11.35692"><ele>7.333333333333334</ele><time>2026-05-01T07:39:28.747Z</time></trkpt><trkpt lat="44.909905" lon="11.3570333"><ele>7.0</ele><time>2026-05-01T07:39:29.748Z</time></trkpt><trkpt lat="44.9097717" lon="11.3571467"><ele>7.25</ele><time>2026-05-01T07:39:30.755Z</time></trkpt><trkpt lat="44.9096467" lon="11.357265"><ele>7.5</ele><time>2026-05-01T07:39:31.749Z</time></trkpt><trkpt lat="44.9095283" lon="11.3573917"><ele>7.75</ele><time>2026-05-01T07:39:32.748Z</time></trkpt><trkpt lat="44.9094167" lon="11.3575283"><ele>8.0</ele><time>2026-05-01T07:39:33.742Z</time></trkpt><trkpt lat="44.9093067" lon="11.3576717"><ele>7.666666666666666</ele><time>2026-05-01T07:39:34.752Z</time></trkpt><trkpt lat="44.9092" lon="11.3578233"><ele>7.333333333333334</ele><time>2026-05-01T07:39:35.748Z</time></trkpt><trkpt lat="44.90909" lon="11.357965"><ele>7.0</ele><time>2026-05-01T07:39:36.749Z</time></trkpt><trkpt lat="44.9089717" lon="11.358095"><ele>7.0</ele><time>2026-05-01T07:39:37.75Z</time></trkpt><trkpt lat="44.9088433" lon="11.3582183"><ele>7.0</ele><time>2026-05-01T07:39:38.749Z</time></trkpt><trkpt lat="44.908705" lon="11.3583317"><ele>7.0</ele><time>2026-05-01T07:39:39.749Z</time></trkpt><trkpt lat="44.9085617" lon="11.3584333"><ele>7.0</ele><time>2026-05-01T07:39:40.749Z</time></trkpt><trkpt lat="44.908415" lon="11.358525"><ele>7.0</ele><time>2026-05-01T07:39:41.747Z</time></trkpt><trkpt lat="44.90827" lon="11.3586117"><ele>7.0</ele><time>2026-05-01T07:39:42.75Z</time></trkpt><trkpt lat="44.90813" lon="11.3586967"><ele>7.0</ele><time>2026-05-01T07:39:43.747Z</time></trkpt><trkpt lat="44.90799" lon="11.3587767"><ele>7.0</ele><time>2026-05-01T07:39:44.741Z</time></trkpt><trkpt lat="44.9078533" lon="11.3588617"><ele>7.0</ele><time>2026-05-01T07:39:45.75Z</time></trkpt><trkpt lat="44.90772" lon="11.358955"><ele>7.0</ele><time>2026-05-01T07:39:46.741Z</time></trkpt><trkpt lat="44.9075883" lon="11.359065"><ele>7.333333333333334</ele><time>2026-05-01T07:39:47.752Z</time></trkpt><trkpt lat="44.9074617" lon="11.3591867"><ele>7.666666666666666</ele><time>2026-05-01T07:39:48.752Z</time></trkpt><trkpt lat="44.9073383" lon="11.35932"><ele>8.0</ele><time>2026-05-01T07:39:49.745Z</time></trkpt><trkpt lat="44.9072167" lon="11.3594633"><ele>8.0</ele><time>2026-05-01T07:39:50.75Z</time></trkpt><trkpt lat="44.9070967" lon="11.359605"><ele>8.0</ele><time>2026-05-01T07:39:51.75Z</time></trkpt><trkpt lat="44.9069817" lon="11.3597483"><ele>8.0</ele><time>2026-05-01T07:39:52.743Z</time></trkpt><trkpt lat="44.9068767" lon="11.3599033"><ele>8.0</ele><time>2026-05-01T07:39:53.742Z</time></trkpt><trkpt lat="44.9067817" lon="11.360085"><ele>8.0</ele><time>2026-05-01T07:39:54.752Z</time></trkpt><trkpt lat="44.9066917" lon="11.3602967"><ele>8.0</ele><time>2026-05-01T07:39:55.754Z</time></trkpt><trkpt lat="44.906605" lon="11.360535"><ele>7.666666666666666</ele><time>2026-05-01T07:39:56.753Z</time></trkpt><trkpt lat="44.9065067" lon="11.3607867"><ele>7.333333333333334</ele><time>2026-05-01T07:39:57.751Z</time></trkpt><trkpt lat="44.9064017" lon="11.3610483"><ele>7.0</ele><time>2026-05-01T07:39:58.748Z</time></trkpt><trkpt lat="44.906295" lon="11.3613167"><ele>7.333333333333334</ele><time>2026-05-01T07:39:59.747Z</time></trkpt><trkpt lat="44.906185" lon="11.361585"><ele>7.666666666666666</ele><time>2026-05-01T07:40:00.742Z</time></trkpt><trkpt lat="44.906075" lon="11.361855"><ele>8.0</ele><time>2026-05-01T07:40:01.746Z</time></trkpt><trkpt lat="44.9059683" lon="11.3621217"><ele>7.666666666666666</ele><time>2026-05-01T07:40:02.743Z</time></trkpt><trkpt lat="44.90587" lon="11.3623917"><ele>7.333333333333334</ele><time>2026-05-01T07:40:03.754Z</time></trkpt><trkpt lat="44.90578" lon="11.3626617"><ele>7.0</ele><time>2026-05-01T07:40:04.749Z</time></trkpt><trkpt lat="44.9056983" lon="11.3629283"><ele>6.666666666666667</ele><time>2026-05-01T07:40:05.759Z</time></trkpt><trkpt lat="44.9056267" lon="11.36319"><ele>6.333333333333334</ele><time>2026-05-01T07:40:06.743Z</time></trkpt><trkpt lat="44.905565" lon="11.3634467"><ele>6.0</ele><time>2026-05-01T07:40:07.753Z</time></trkpt><trkpt lat="44.9055167" lon="11.3637"><ele>6.0</ele><time>2026-05-01T07:40:08.758Z</time></trkpt><trkpt lat="44.9054867" lon="11.363945"><ele>6.0</ele><time>2026-05-01T07:40:09.752Z</time></trkpt><trkpt lat="44.90548" lon="11.3641883"><ele>6.0</ele><time>2026-05-01T07:40:10.744Z</time></trkpt><trkpt lat="44.9054983" lon="11.364425"><ele>6.0</ele><time>2026-05-01T07:40:11.754Z</time></trkpt><trkpt lat="44.9055433" lon="11.3646517"><ele>6.0</ele><time>2026-05-01T07:40:12.755Z</time></trkpt><trkpt lat="44.9056133" lon="11.36487"><ele>6.0</ele><time>2026-05-01T07:40:13.752Z</time></trkpt><trkpt lat="44.9056983" lon="11.3650883"><ele>5.666666666666667</ele><time>2026-05-01T07:40:14.752Z</time></trkpt><trkpt lat="44.9057883" lon="11.3653083"><ele>5.333333333333334</ele><time>2026-05-01T07:40:15.751Z</time></trkpt><trkpt lat="44.9058767" lon="11.3655367"><ele>5.0</ele><time>2026-05-01T07:40:16.748Z</time></trkpt><trkpt lat="44.90596" lon="11.3657767"><ele>6.0</ele><time>2026-05-01T07:40:17.749Z</time></trkpt><trkpt lat="44.9060367" lon="11.3660283"><ele>7.0</ele><time>2026-05-01T07:40:18.75Z</time></trkpt><trkpt lat="44.90611" lon="11.36629"><ele>8.0</ele><time>2026-05-01T07:40:19.751Z</time></trkpt><trkpt lat="44.9061733" lon="11.3665617"><ele>8.0</ele><time>2026-05-01T07:40:20.751Z</time></trkpt><trkpt lat="44.90623" lon="11.3668417"><ele>8.0</ele><time>2026-05-01T07:40:21.755Z</time></trkpt><trkpt lat="44.906285" lon="11.367125"><ele>8.0</ele><time>2026-05-01T07:40:22.744Z</time></trkpt><trkpt lat="44.90634" lon="11.3674117"><ele>7.666666666666666</ele><time>2026-05-01T07:40:23.75Z</time></trkpt><trkpt lat="44.9063967" lon="11.3677017"><ele>7.333333333333334</ele><time>2026-05-01T07:40:24.746Z</time></trkpt><trkpt lat="44.9064517" lon="11.3679917"><ele>7.0</ele><time>2026-05-01T07:40:25.75Z</time></trkpt><trkpt lat="44.906505" lon="11.36828"><ele>7.0</ele><time>2026-05-01T07:40:26.75Z</time></trkpt><trkpt lat="44.9065517" lon="11.36857"><ele>7.0</ele><time>2026-05-01T07:40:27.742Z</time></trkpt><trkpt lat="44.9065783" lon="11.3688633"><ele>7.0</ele><time>2026-05-01T07:40:28.743Z</time></trkpt><trkpt lat="44.9065883" lon="11.3691567"><ele>7.333333333333334</ele><time>2026-05-01T07:40:29.751Z</time></trkpt><trkpt lat="44.9065817" lon="11.369455"><ele>7.666666666666666</ele><time>2026-05-01T07:40:30.747Z</time></trkpt><trkpt lat="44.906565" lon="11.369755"><ele>8.0</ele><time>2026-05-01T07:40:31.743Z</time></trkpt><trkpt lat="44.906545" lon="11.370055"><ele>8.0</ele><time>2026-05-01T07:40:32.75Z</time></trkpt><trkpt lat="44.906525" lon="11.3703533"><ele>8.0</ele><time>2026-05-01T07:40:33.748Z</time></trkpt><trkpt lat="44.9065067" lon="11.3706517"><ele>8.0</ele><time>2026-05-01T07:40:34.755Z</time></trkpt><trkpt lat="44.9064867" lon="11.3709467"><ele>8.0</ele><time>2026-05-01T07:40:35.748Z</time></trkpt><trkpt lat="44.9064617" lon="11.3712417"><ele>8.0</ele><time>2026-05-01T07:40:36.752Z</time></trkpt><trkpt lat="44.906425" lon="11.3715333"><ele>8.0</ele><time>2026-05-01T07:40:37.75Z</time></trkpt><trkpt lat="44.9063717" lon="11.3718183"><ele>7.666666666666666</ele><time>2026-05-01T07:40:38.742Z</time></trkpt><trkpt lat="44.9063083" lon="11.3721"><ele>7.333333333333334</ele><time>2026-05-01T07:40:39.751Z</time></trkpt><trkpt lat="44.90623" lon="11.37237"><ele>7.0</ele><time>2026-05-01T07:40:40.748Z</time></trkpt><trkpt lat="44.9061367" lon="11.3726333"><ele>7.0</ele><time>2026-05-01T07:40:41.754Z</time></trkpt><trkpt lat="44.9060367" lon="11.3728983"><ele>7.0</ele><time>2026-05-01T07:40:42.755Z</time></trkpt><trkpt lat="44.9059333" lon="11.3731617"><ele>7.0</ele><time>2026-05-01T07:40:43.749Z</time></trkpt><trkpt lat="44.9058317" lon="11.37343"><ele>7.0</ele><time>2026-05-01T07:40:44.751Z</time></trkpt><trkpt lat="44.905735" lon="11.373695"><ele>7.0</ele><time>2026-05-01T07:40:45.75Z</time></trkpt><trkpt lat="44.9056417" lon="11.3739517"><ele>7.0</ele><time>2026-05-01T07:40:46.741Z</time></trkpt><trkpt lat="44.90555" lon="11.374195"><ele>7.0</ele><time>2026-05-01T07:40:47.75Z</time></trkpt><trkpt lat="44.9054483" lon="11.3744217"><ele>7.0</ele><time>2026-05-01T07:40:48.745Z</time></trkpt><trkpt lat="44.9053267" lon="11.3746217"><ele>7.0</ele><time>2026-05-01T07:40:49.75Z</time></trkpt><trkpt lat="44.9051867" lon="11.3747967"><ele>6.333333333333334</ele><time>2026-05-01T07:40:50.744Z</time></trkpt><trkpt lat="44.9050383" lon="11.3749617"><ele>5.666666666666667</ele><time>2026-05-01T07:40:51.748Z</time></trkpt><trkpt lat="44.9048983" lon="11.3751367"><ele>5.0</ele><time>2026-05-01T07:40:52.753Z</time></trkpt><trkpt lat="44.904775" lon="11.375335"><ele>5.0</ele><time>2026-05-01T07:40:53.751Z</time></trkpt><trkpt lat="44.9046717" lon="11.375555"><ele>5.0</ele><time>2026-05-01T07:40:54.758Z</time></trkpt><trkpt lat="44.9045817" lon="11.37579"><ele>5.0</ele><time>2026-05-01T07:40:55.755Z</time></trkpt><trkpt lat="44.9044983" lon="11.3760367"><ele>5.0</ele><time>2026-05-01T07:40:56.756Z</time></trkpt><trkpt lat="44.9044133" lon="11.37629"><ele>5.0</ele><time>2026-05-01T07:40:57.749Z</time></trkpt><trkpt lat="44.9043283" lon="11.376545"><ele>5.0</ele><time>2026-05-01T07:40:58.749Z</time></trkpt><trkpt lat="44.9042367" lon="11.3767983"><ele>5.333333333333334</ele><time>2026-05-01T07:40:59.744Z</time></trkpt><trkpt lat="44.9041383" lon="11.3770433"><ele>5.666666666666667</ele><time>2026-05-01T07:41:00.749Z</time></trkpt><trkpt lat="44.9040267" lon="11.377265"><ele>6.0</ele><time>2026-05-01T07:41:01.752Z</time></trkpt><trkpt lat="44.9038983" lon="11.377465"><ele>6.0</ele><time>2026-05-01T07:41:02.748Z</time></trkpt><trkpt lat="44.90375" lon="11.377635"><ele>6.0</ele><time>2026-05-01T07:41:03.75Z</time></trkpt><trkpt lat="44.9035867" lon="11.3777817"><ele>6.0</ele><time>2026-05-01T07:41:04.747Z</time></trkpt><trkpt lat="44.9034117" lon="11.3779067"><ele>7.0</ele><time>2026-05-01T07:41:05.748Z</time></trkpt><trkpt lat="44.9032283" lon="11.3780083"><ele>8.0</ele><time>2026-05-01T07:41:06.752Z</time></trkpt><trkpt lat="44.90304" lon="11.3780867"><ele>9.0</ele><time>2026-05-01T07:41:07.744Z</time></trkpt><trkpt lat="44.9028567" lon="11.378165"><ele>9.0</ele><time>2026-05-01T07:41:08.75Z</time></trkpt><trkpt lat="44.9026833" lon="11.3782683"><ele>9.0</ele><time>2026-05-01T07:41:09.751Z</time></trkpt><trkpt lat="44.9025233" lon="11.3783983"><ele>9.0</ele><time>2026-05-01T07:41:10.75Z</time></trkpt><trkpt lat="44.9023767" lon="11.3785617"><ele>8.333333333333334</ele><time>2026-05-01T07:41:11.748Z</time></trkpt><trkpt lat="44.9022433" lon="11.3787533"><ele>7.666666666666667</ele><time>2026-05-01T07:41:12.751Z</time></trkpt><trkpt lat="44.9021167" lon="11.3789633"><ele>7.0</ele><time>2026-05-01T07:41:13.752Z</time></trkpt><trkpt lat="44.901995" lon="11.3791817"><ele>7.0</ele><time>2026-05-01T07:41:14.742Z</time></trkpt><trkpt lat="44.90187" lon="11.3794017"><ele>7.0</ele><time>2026-05-01T07:41:15.749Z</time></trkpt><trkpt lat="44.901745" lon="11.379625"><ele>7.0</ele><time>2026-05-01T07:41:16.746Z</time></trkpt><trkpt lat="44.901615" lon="11.3798433"><ele>7.666666666666667</ele><time>2026-05-01T07:41:17.753Z</time></trkpt><trkpt lat="44.90147" lon="11.38005"><ele>8.333333333333334</ele><time>2026-05-01T07:41:18.754Z</time></trkpt><trkpt lat="44.9013117" lon="11.3802333"><ele>9.0</ele><time>2026-05-01T07:41:19.751Z</time></trkpt><trkpt lat="44.9011383" lon="11.3803917"><ele>9.0</ele><time>2026-05-01T07:41:20.754Z</time></trkpt><trkpt lat="44.900955" lon="11.3805383"><ele>9.0</ele><time>2026-05-01T07:41:21.753Z</time></trkpt><trkpt lat="44.9007667" lon="11.3806783"><ele>9.0</ele><time>2026-05-01T07:41:22.751Z</time></trkpt><trkpt lat="44.9005767" lon="11.38082"><ele>8.666666666666666</ele><time>2026-05-01T07:41:23.75Z</time></trkpt><trkpt lat="44.9003867" lon="11.3809667"><ele>8.333333333333332</ele><time>2026-05-01T07:41:24.751Z</time></trkpt><trkpt lat="44.9002033" lon="11.3811183"><ele>8.0</ele><time>2026-05-01T07:41:25.745Z</time></trkpt><trkpt lat="44.900025" lon="11.3812833"><ele>7.333333333333333</ele><time>2026-05-01T07:41:26.741Z</time></trkpt><trkpt lat="44.899855" lon="11.38146"><ele>6.666666666666666</ele><time>2026-05-01T07:41:27.752Z</time></trkpt><trkpt lat="44.899695" lon="11.3816517"><ele>6.0</ele><time>2026-05-01T07:41:28.744Z</time></trkpt><trkpt lat="44.899545" lon="11.3818617"><ele>6.0</ele><time>2026-05-01T07:41:29.748Z</time></trkpt><trkpt lat="44.8994017" lon="11.3820833"><ele>6.0</ele><time>2026-05-01T07:41:30.746Z</time></trkpt><trkpt lat="44.899265" lon="11.3823183"><ele>6.0</ele><time>2026-05-01T07:41:31.75Z</time></trkpt><trkpt lat="44.8991317" lon="11.3825617"><ele>6.333333333333334</ele><time>2026-05-01T07:41:32.754Z</time></trkpt><trkpt lat="44.8990033" lon="11.3828133"><ele>6.666666666666667</ele><time>2026-05-01T07:41:33.751Z</time></trkpt><trkpt lat="44.898875" lon="11.3830717"><ele>7.0</ele><time>2026-05-01T07:41:34.749Z</time></trkpt><trkpt lat="44.8987483" lon="11.3833333"><ele>7.333333333333334</ele><time>2026-05-01T07:41:35.747Z</time></trkpt><trkpt lat="44.8986233" lon="11.383595"><ele>7.666666666666666</ele><time>2026-05-01T07:41:36.751Z</time></trkpt><trkpt lat="44.8984967" lon="11.3838567"><ele>8.0</ele><time>2026-05-01T07:41:37.747Z</time></trkpt><trkpt lat="44.8983733" lon="11.3841183"><ele>8.0</ele><time>2026-05-01T07:41:38.749Z</time></trkpt><trkpt lat="44.8982483" lon="11.3843733"><ele>8.0</ele><time>2026-05-01T07:41:39.749Z</time></trkpt><trkpt lat="44.898135" lon="11.3846317"><ele>8.0</ele><time>2026-05-01T07:41:40.741Z</time></trkpt><trkpt lat="44.898035" lon="11.384895"><ele>7.666666666666666</ele><time>2026-05-01T07:41:41.75Z</time></trkpt><trkpt lat="44.89795" lon="11.3851633"><ele>7.333333333333334</ele><time>2026-05-01T07:41:42.755Z</time></trkpt><trkpt lat="44.89788" lon="11.38544"><ele>7.0</ele><time>2026-05-01T07:41:43.755Z</time></trkpt><trkpt lat="44.89782" lon="11.3857233"><ele>7.0</ele><time>2026-05-01T07:41:44.752Z</time></trkpt><trkpt lat="44.8977667" lon="11.38601"><ele>7.0</ele><time>2026-05-01T07:41:45.756Z</time></trkpt><trkpt lat="44.8977117" lon="11.3862983"><ele>7.0</ele><time>2026-05-01T07:41:46.75Z</time></trkpt><trkpt lat="44.8976467" lon="11.386585"><ele>7.0</ele><time>2026-05-01T07:41:47.753Z</time></trkpt><trkpt lat="44.897565" lon="11.386865"><ele>7.0</ele><time>2026-05-01T07:41:48.753Z</time></trkpt><trkpt lat="44.8974683" lon="11.38714"><ele>7.0</ele><time>2026-05-01T07:41:49.751Z</time></trkpt><trkpt lat="44.897365" lon="11.3874133"><ele>7.333333333333334</ele><time>2026-05-01T07:41:50.749Z</time></trkpt><trkpt lat="44.89726" lon="11.3876867"><ele>7.666666666666666</ele><time>2026-05-01T07:41:51.741Z</time></trkpt><trkpt lat="44.8971583" lon="11.387965"><ele>8.0</ele><time>2026-05-01T07:41:52.751Z</time></trkpt><trkpt lat="44.8970633" lon="11.3882467"><ele>8.0</ele><time>2026-05-01T07:41:53.75Z</time></trkpt><trkpt lat="44.8969733" lon="11.3885317"><ele>8.0</ele><time>2026-05-01T07:41:54.752Z</time></trkpt><trkpt lat="44.89689" lon="11.3888183"><ele>8.0</ele><time>2026-05-01T07:41:55.75Z</time></trkpt><trkpt lat="44.8968217" lon="11.3891067"><ele>8.0</ele><time>2026-05-01T07:41:56.748Z</time></trkpt><trkpt lat="44.8967633" lon="11.3894"><ele>8.0</ele><time>2026-05-01T07:41:57.752Z</time></trkpt><trkpt lat="44.896715" lon="11.389695"><ele>8.0</ele><time>2026-05-01T07:41:58.748Z</time></trkpt><trkpt lat="44.896675" lon="11.3899967"><ele>8.333333333333332</ele><time>2026-05-01T07:41:59.743Z</time></trkpt><trkpt lat="44.8966383" lon="11.3902983"><ele>8.666666666666666</ele><time>2026-05-01T07:42:00.751Z</time></trkpt><trkpt lat="44.8966017" lon="11.3906"><ele>9.0</ele><time>2026-05-01T07:42:01.753Z</time></trkpt><trkpt lat="44.8965617" lon="11.3909"><ele>9.0</ele><time>2026-05-01T07:42:02.75Z</time></trkpt><trkpt lat="44.8965133" lon="11.3912033"><ele>9.0</ele><time>2026-05-01T07:42:03.745Z</time></trkpt><trkpt lat="44.8964583" lon="11.3915033"><ele>9.0</ele><time>2026-05-01T07:42:04.751Z</time></trkpt><trkpt lat="44.8963983" lon="11.391805"><ele>9.0</ele><time>2026-05-01T07:42:05.755Z</time></trkpt><trkpt lat="44.89634" lon="11.3921067"><ele>9.0</ele><time>2026-05-01T07:42:06.75Z</time></trkpt><trkpt lat="44.8962817" lon="11.3924083"><ele>9.0</ele><time>2026-05-01T07:42:07.75Z</time></trkpt><trkpt lat="44.8962233" lon="11.3927117"><ele>9.0</ele><time>2026-05-01T07:42:08.749Z</time></trkpt><trkpt lat="44.8961733" lon="11.3930167"><ele>9.0</ele><time>2026-05-01T07:42:09.745Z</time></trkpt><trkpt lat="44.8961317" lon="11.393325"><ele>9.0</ele><time>2026-05-01T07:42:10.745Z</time></trkpt><trkpt lat="44.8960983" lon="11.3936367"><ele>8.666666666666666</ele><time>2026-05-01T07:42:11.745Z</time></trkpt><trkpt lat="44.896075" lon="11.3939483"><ele>8.333333333333332</ele><time>2026-05-01T07:42:12.75Z</time></trkpt><trkpt lat="44.896065" lon="11.39426"><ele>8.0</ele><time>2026-05-01T07:42:13.753Z</time></trkpt><trkpt lat="44.8960683" lon="11.3945717"><ele>7.666666666666666</ele><time>2026-05-01T07:42:14.751Z</time></trkpt><trkpt lat="44.8960833" lon="11.39488"><ele>7.333333333333334</ele><time>2026-05-01T07:42:15.754Z</time></trkpt><trkpt lat="44.8961117" lon="11.395185"><ele>7.0</ele><time>2026-05-01T07:42:16.748Z</time></trkpt><trkpt lat="44.8961583" lon="11.395485"><ele>7.333333333333334</ele><time>2026-05-01T07:42:17.751Z</time></trkpt><trkpt lat="44.896215" lon="11.3957817"><ele>7.666666666666666</ele><time>2026-05-01T07:42:18.754Z</time></trkpt><trkpt lat="44.8962783" lon="11.3960733"><ele>8.0</ele><time>2026-05-01T07:42:19.75Z</time></trkpt><trkpt lat="44.8963383" lon="11.396365"><ele>8.0</ele><time>2026-05-01T07:42:20.742Z</time></trkpt><trkpt lat="44.8963917" lon="11.3966567"><ele>8.0</ele><time>2026-05-01T07:42:21.752Z</time></trkpt><trkpt lat="44.8964383" lon="11.3969467"><ele>8.0</ele><time>2026-05-01T07:42:22.752Z</time></trkpt><trkpt lat="44.896475" lon="11.3972383"><ele>8.0</ele><time>2026-05-01T07:42:23.748Z</time></trkpt><trkpt lat="44.8965" lon="11.3975267"><ele>8.0</ele><time>2026-05-01T07:42:24.751Z</time></trkpt><trkpt lat="44.89652" lon="11.3978067"><ele>8.0</ele><time>2026-05-01T07:42:25.756Z</time></trkpt><trkpt lat="44.8965383" lon="11.39808"><ele>7.333333333333333</ele><time>2026-05-01T07:42:26.754Z</time></trkpt><trkpt lat="44.8965633" lon="11.398345"><ele>6.666666666666666</ele><time>2026-05-01T07:42:27.752Z</time></trkpt><trkpt lat="44.89659" lon="11.3985967"><ele>6.0</ele><time>2026-05-01T07:42:28.744Z</time></trkpt><trkpt lat="44.8966117" lon="11.3988333"><ele>6.25</ele><time>2026-05-01T07:42:29.749Z</time></trkpt><trkpt lat="44.8966217" lon="11.3990467"><ele>6.5</ele><time>2026-05-01T07:42:30.75Z</time></trkpt><trkpt lat="44.896615" lon="11.3992433"><ele>6.75</ele><time>2026-05-01T07:42:31.742Z</time></trkpt><trkpt lat="44.8965917" lon="11.3994283"><ele>7.0</ele><time>2026-05-01T07:42:32.742Z</time></trkpt><trkpt lat="44.8965383" lon="11.3996017"><ele>7.25</ele><time>2026-05-01T07:42:33.75Z</time></trkpt><trkpt lat="44.8964683" lon="11.3997733"><ele>7.5</ele><time>2026-05-01T07:42:34.748Z</time></trkpt><trkpt lat="44.8963967" lon="11.399945"><ele>7.75</ele><time>2026-05-01T07:42:35.75Z</time></trkpt><trkpt lat="44.89633" lon="11.400115"><ele>8.0</ele><time>2026-05-01T07:42:36.748Z</time></trkpt><trkpt lat="44.8962633" lon="11.4002883"><ele>8.0</ele><time>2026-05-01T07:42:37.747Z</time></trkpt><trkpt lat="44.8961933" lon="11.40046"><ele>8.0</ele><time>2026-05-01T07:42:38.751Z</time></trkpt><trkpt lat="44.8961233" lon="11.4006317"><ele>8.0</ele><time>2026-05-01T07:42:39.751Z</time></trkpt><trkpt lat="44.896055" lon="11.4008133"><ele>8.0</ele><time>2026-05-01T07:42:40.742Z</time></trkpt><trkpt lat="44.89599" lon="11.4009983"><ele>7.75</ele><time>2026-05-01T07:42:41.745Z</time></trkpt><trkpt lat="44.895925" lon="11.4011833"><ele>7.5</ele><time>2026-05-01T07:42:42.748Z</time></trkpt><trkpt lat="44.8958633" lon="11.401365"><ele>7.25</ele><time>2026-05-01T07:42:43.747Z</time></trkpt><trkpt lat="44.895805" lon="11.4015433"><ele>7.0</ele><time>2026-05-01T07:42:44.749Z</time></trkpt><trkpt lat="44.89575" lon="11.40172"><ele>7.5</ele><time>2026-05-01T07:42:45.75Z</time></trkpt><trkpt lat="44.8956967" lon="11.4018917"><ele>8.0</ele><time>2026-05-01T07:42:46.754Z</time></trkpt><trkpt lat="44.8956483" lon="11.4020583"><ele>8.5</ele><time>2026-05-01T07:42:47.748Z</time></trkpt><trkpt lat="44.8955967" lon="11.4022167"><ele>9.0</ele><time>2026-05-01T07:42:48.746Z</time></trkpt><trkpt lat="44.8955367" lon="11.402365"><ele>9.333333333333334</ele><time>2026-05-01T07:42:49.746Z</time></trkpt><trkpt lat="44.8954767" lon="11.402505"><ele>9.666666666666666</ele><time>2026-05-01T07:42:50.749Z</time></trkpt><trkpt lat="44.8954217" lon="11.40263"><ele>10.0</ele><time>2026-05-01T07:42:51.748Z</time></trkpt><trkpt lat="44.8953817" lon="11.4027317"><ele>10.333333333333332</ele><time>2026-05-01T07:42:52.749Z</time></trkpt><trkpt lat="44.89535" lon="11.4028167"><ele>10.666666666666666</ele><time>2026-05-01T07:42:53.745Z</time></trkpt><trkpt lat="44.8953133" lon="11.4028967"><ele>11.0</ele><time>2026-05-01T07:42:54.745Z</time></trkpt><trkpt lat="44.895265" lon="11.402975"><ele>11.0</ele><time>2026-05-01T07:42:55.741Z</time></trkpt><trkpt lat="44.8952183" lon="11.4030633"><ele>11.0</ele><time>2026-05-01T07:42:56.746Z</time></trkpt><trkpt lat="44.8951817" lon="11.4031733"><ele>11.0</ele><time>2026-05-01T07:42:57.747Z</time></trkpt><trkpt lat="44.8951533" lon="11.403305"><ele>11.0</ele><time>2026-05-01T07:42:58.749Z</time></trkpt><trkpt lat="44.89512" lon="11.4034467"><ele>11.0</ele><time>2026-05-01T07:42:59.747Z</time></trkpt><trkpt lat="44.895085" lon="11.4035917"><ele>10.8</ele><time>2026-05-01T07:43:00.742Z</time></trkpt><trkpt lat="44.895055" lon="11.4037417"><ele>10.600000000000001</ele><time>2026-05-01T07:43:01.749Z</time></trkpt><trkpt lat="44.8950317" lon="11.4038967"><ele>10.4</ele><time>2026-05-01T07:43:02.75Z</time></trkpt><trkpt lat="44.8950133" lon="11.40405"><ele>10.2</ele><time>2026-05-01T07:43:03.746Z</time></trkpt><trkpt lat="44.8949933" lon="11.404205"><ele>10.0</ele><time>2026-05-01T07:43:04.75Z</time></trkpt><trkpt lat="44.894965" lon="11.4043583"><ele>10.0</ele><time>2026-05-01T07:43:05.742Z</time></trkpt><trkpt lat="44.894935" lon="11.4045167"><ele>10.0</ele><time>2026-05-01T07:43:06.75Z</time></trkpt><trkpt lat="44.8949033" lon="11.40468"><ele>10.0</ele><time>2026-05-01T07:43:07.751Z</time></trkpt><trkpt lat="44.8948733" lon="11.4048517"><ele>10.0</ele><time>2026-05-01T07:43:08.748Z</time></trkpt><trkpt lat="44.8948433" lon="11.4050333"><ele>10.0</ele><time>2026-05-01T07:43:09.744Z</time></trkpt><trkpt lat="44.8948117" lon="11.405225"><ele>10.0</ele><time>2026-05-01T07:43:10.743Z</time></trkpt><trkpt lat="44.8947783" lon="11.4054167"><ele>10.0</ele><time>2026-05-01T07:43:11.749Z</time></trkpt><trkpt lat="44.8947433" lon="11.4056133"><ele>10.0</ele><time>2026-05-01T07:43:12.75Z</time></trkpt><trkpt lat="44.8947117" lon="11.40582"><ele>10.0</ele><time>2026-05-01T07:43:13.749Z</time></trkpt><trkpt lat="44.8946767" lon="11.4060283"><ele>10.0</ele><time>2026-05-01T07:43:14.754Z</time></trkpt><trkpt lat="44.8946383" lon="11.4062383"><ele>10.0</ele><time>2026-05-01T07:43:15.747Z</time></trkpt><trkpt lat="44.8945983" lon="11.4064467"><ele>10.0</ele><time>2026-05-01T07:43:16.742Z</time></trkpt><trkpt lat="44.894555" lon="11.4066567"><ele>10.0</ele><time>2026-05-01T07:43:17.75Z</time></trkpt><trkpt lat="44.8945117" lon="11.4068683"><ele>10.0</ele><time>2026-05-01T07:43:18.752Z</time></trkpt><trkpt lat="44.89447" lon="11.4070833"><ele>10.0</ele><time>2026-05-01T07:43:19.748Z</time></trkpt><trkpt lat="44.8944233" lon="11.4073"><ele>10.0</ele><time>2026-05-01T07:43:20.749Z</time></trkpt><trkpt lat="44.8943683" lon="11.4075183"><ele>10.0</ele><time>2026-05-01T07:43:21.749Z</time></trkpt><trkpt lat="44.8943017" lon="11.4077383"><ele>10.0</ele><time>2026-05-01T07:43:22.751Z</time></trkpt><trkpt lat="44.8942333" lon="11.4079633"><ele>10.0</ele><time>2026-05-01T07:43:23.753Z</time></trkpt><trkpt lat="44.8941617" lon="11.408185"><ele>10.0</ele><time>2026-05-01T07:43:24.747Z</time></trkpt><trkpt lat="44.8940833" lon="11.4084017"><ele>9.666666666666668</ele><time>2026-05-01T07:43:25.745Z</time></trkpt><trkpt lat="44.8939983" lon="11.4086033"><ele>9.333333333333334</ele><time>2026-05-01T07:43:26.743Z</time></trkpt><trkpt lat="44.8939033" lon="11.4087917"><ele>9.0</ele><time>2026-05-01T07:43:27.748Z</time></trkpt><trkpt lat="44.8938" lon="11.408965"><ele>9.0</ele><time>2026-05-01T07:43:28.742Z</time></trkpt><trkpt lat="44.8936867" lon="11.4091317"><ele>9.0</ele><time>2026-05-01T07:43:29.749Z</time></trkpt><trkpt lat="44.89357" lon="11.4092967"><ele>9.0</ele><time>2026-05-01T07:43:30.749Z</time></trkpt><trkpt lat="44.89345" lon="11.4094633"><ele>8.666666666666666</ele><time>2026-05-01T07:43:31.746Z</time></trkpt><trkpt lat="44.8933217" lon="11.4096267"><ele>8.333333333333332</ele><time>2026-05-01T07:43:32.756Z</time></trkpt><trkpt lat="44.8931933" lon="11.409785"><ele>8.0</ele><time>2026-05-01T07:43:33.75Z</time></trkpt><trkpt lat="44.89306" lon="11.4099267"><ele>8.0</ele><time>2026-05-01T07:43:34.745Z</time></trkpt><trkpt lat="44.8929233" lon="11.4100517"><ele>8.0</ele><time>2026-05-01T07:43:35.748Z</time></trkpt><trkpt lat="44.8927833" lon="11.4101633"><ele>8.0</ele><time>2026-05-01T07:43:36.754Z</time></trkpt><trkpt lat="44.8926417" lon="11.4102567"><ele>8.0</ele><time>2026-05-01T07:43:37.751Z</time></trkpt><trkpt lat="44.89249" lon="11.4103333"><ele>8.0</ele><time>2026-05-01T07:43:38.744Z</time></trkpt><trkpt lat="44.892335" lon="11.4103967"><ele>8.0</ele><time>2026-05-01T07:43:39.75Z</time></trkpt><trkpt lat="44.89218" lon="11.41046"><ele>8.0</ele><time>2026-05-01T07:43:40.741Z</time></trkpt><trkpt lat="44.8920217" lon="11.4105233"><ele>8.0</ele><time>2026-05-01T07:43:41.744Z</time></trkpt><trkpt lat="44.8918667" lon="11.4105817"><ele>8.0</ele><time>2026-05-01T07:43:42.748Z</time></trkpt><trkpt lat="44.891715" lon="11.4106433"><ele>8.666666666666666</ele><time>2026-05-01T07:43:43.749Z</time></trkpt><trkpt lat="44.8915617" lon="11.4107033"><ele>9.333333333333334</ele><time>2026-05-01T07:43:44.751Z</time></trkpt><trkpt lat="44.891405" lon="11.4107683"><ele>10.0</ele><time>2026-05-01T07:43:45.75Z</time></trkpt><trkpt lat="44.891245" lon="11.4108367"><ele>10.0</ele><time>2026-05-01T07:43:46.754Z</time></trkpt><trkpt lat="44.8910817" lon="11.41091"><ele>10.0</ele><time>2026-05-01T07:43:47.752Z</time></trkpt><trkpt lat="44.89092" lon="11.41099"><ele>10.0</ele><time>2026-05-01T07:43:48.75Z</time></trkpt><trkpt lat="44.8907617" lon="11.411075"><ele>9.666666666666668</ele><time>2026-05-01T07:43:49.749Z</time></trkpt><trkpt lat="44.8906083" lon="11.4111717"><ele>9.333333333333334</ele><time>2026-05-01T07:43:50.748Z</time></trkpt><trkpt lat="44.8904567" lon="11.4112817"><ele>9.0</ele><time>2026-05-01T07:43:51.748Z</time></trkpt><trkpt lat="44.8903067" lon="11.411405"><ele>9.0</ele><time>2026-05-01T07:43:52.75Z</time></trkpt><trkpt lat="44.8901583" lon="11.411535"><ele>9.0</ele><time>2026-05-01T07:43:53.742Z</time></trkpt><trkpt lat="44.8900117" lon="11.411665"><ele>9.0</ele><time>2026-05-01T07:43:54.749Z</time></trkpt><trkpt lat="44.8898633" lon="11.4117883"><ele>9.0</ele><time>2026-05-01T07:43:55.741Z</time></trkpt><trkpt lat="44.889715" lon="11.4119067"><ele>9.0</ele><time>2026-05-01T07:43:56.754Z</time></trkpt><trkpt lat="44.889565" lon="11.4120133"><ele>9.0</ele><time>2026-05-01T07:43:57.748Z</time></trkpt><trkpt lat="44.8894133" lon="11.4120983"><ele>9.0</ele><time>2026-05-01T07:43:58.751Z</time></trkpt><trkpt lat="44.8892667" lon="11.4121483"><ele>9.0</ele><time>2026-05-01T07:43:59.746Z</time></trkpt><trkpt lat="44.889125" lon="11.4121717"><ele>9.0</ele><time>2026-05-01T07:44:00.748Z</time></trkpt><trkpt lat="44.8889867" lon="11.4121733"><ele>9.0</ele><time>2026-05-01T07:44:01.742Z</time></trkpt><trkpt lat="44.8888517" lon="11.4121533"><ele>9.2</ele><time>2026-05-01T07:44:02.741Z</time></trkpt><trkpt lat="44.88872" lon="11.4121183"><ele>9.4</ele><time>2026-05-01T07:44:03.749Z</time></trkpt><trkpt lat="44.8886017" lon="11.4120867"><ele>9.6</ele><time>2026-05-01T07:44:04.75Z</time></trkpt><trkpt lat="44.8885033" lon="11.4120583"><ele>9.8</ele><time>2026-05-01T07:44:05.752Z</time></trkpt><trkpt lat="44.88843" lon="11.4120317"><ele>10.0</ele><time>2026-05-01T07:44:06.744Z</time></trkpt><trkpt lat="44.8883533" lon="11.4120033"><ele>9.4</ele><time>2026-05-01T07:44:08.746Z</time></trkpt><trkpt lat="44.8882683" lon="11.41197"><ele>8.8</ele><time>2026-05-01T07:44:49.75Z</time></trkpt><trkpt lat="44.888185" lon="11.41194"><ele>8.2</ele><time>2026-05-01T07:44:50.745Z</time></trkpt><trkpt lat="44.8880733" lon="11.4119"><ele>7.6</ele><time>2026-05-01T07:44:51.75Z</time></trkpt><trkpt lat="44.8879467" lon="11.4118567"><ele>7.0</ele><time>2026-05-01T07:44:52.745Z</time></trkpt><trkpt lat="44.8878017" lon="11.4118117"><ele>7.0</ele><time>2026-05-01T07:44:53.749Z</time></trkpt><trkpt lat="44.8876583" lon="11.4117717"><ele>7.0</ele><time>2026-05-01T07:44:54.753Z</time></trkpt><trkpt lat="44.8875133" lon="11.41173"><ele>7.0</ele><time>2026-05-01T07:44:55.743Z</time></trkpt><trkpt lat="44.8873667" lon="11.4116833"><ele>7.0</ele><time>2026-05-01T07:44:56.749Z</time></trkpt><trkpt lat="44.88722" lon="11.4116317"><ele>8.0</ele><time>2026-05-01T07:44:57.742Z</time></trkpt><trkpt lat="44.8870733" lon="11.411585"><ele>9.0</ele><time>2026-05-01T07:44:58.749Z</time></trkpt><trkpt lat="44.8869217" lon="11.41154"><ele>10.0</ele><time>2026-05-01T07:44:59.741Z</time></trkpt><trkpt lat="44.8867583" lon="11.4114933"><ele>11.0</ele><time>2026-05-01T07:45:00.748Z</time></trkpt><trkpt lat="44.88659" lon="11.411445"><ele>12.0</ele><time>2026-05-01T07:45:01.742Z</time></trkpt><trkpt lat="44.886435" lon="11.4114067"><ele>13.0</ele><time>2026-05-01T07:45:02.764Z</time></trkpt><trkpt lat="44.886275" lon="11.4113717"><ele>13.0</ele><time>2026-05-01T07:45:03.751Z</time></trkpt><trkpt lat="44.88611" lon="11.411345"><ele>13.0</ele><time>2026-05-01T07:45:04.748Z</time></trkpt><trkpt lat="44.8859417" lon="11.4113367"><ele>13.0</ele><time>2026-05-01T07:45:05.741Z</time></trkpt><trkpt lat="44.8857717" lon="11.41135"><ele>13.0</ele><time>2026-05-01T07:45:06.752Z</time></trkpt><trkpt lat="44.8856083" lon="11.4113817"><ele>13.0</ele><time>2026-05-01T07:45:07.742Z</time></trkpt><trkpt lat="44.8854467" lon="11.41144"><ele>13.0</ele><time>2026-05-01T07:45:08.755Z</time></trkpt><trkpt lat="44.8852883" lon="11.4115233"><ele>13.0</ele><time>2026-05-01T07:45:09.747Z</time></trkpt><trkpt lat="44.8851283" lon="11.4116217"><ele>13.0</ele><time>2026-05-01T07:45:10.741Z</time></trkpt><trkpt lat="44.8849683" lon="11.4117333"><ele>13.0</ele><time>2026-05-01T07:45:11.752Z</time></trkpt><trkpt lat="44.8848133" lon="11.4118617"><ele>12.666666666666666</ele><time>2026-05-01T07:45:12.749Z</time></trkpt><trkpt lat="44.8846667" lon="11.412015"><ele>12.333333333333332</ele><time>2026-05-01T07:45:13.746Z</time></trkpt><trkpt lat="44.88452" lon="11.412185"><ele>12.0</ele><time>2026-05-01T07:45:14.752Z</time></trkpt><trkpt lat="44.88438" lon="11.4123517"><ele>11.0</ele><time>2026-05-01T07:45:15.747Z</time></trkpt><trkpt lat="44.8842433" lon="11.41252"><ele>10.0</ele><time>2026-05-01T07:45:16.747Z</time></trkpt><trkpt lat="44.8841067" lon="11.4126933"><ele>9.0</ele><time>2026-05-01T07:45:17.747Z</time></trkpt><trkpt lat="44.88397" lon="11.41287"><ele>9.666666666666666</ele><time>2026-05-01T07:45:18.749Z</time></trkpt><trkpt lat="44.8838333" lon="11.413045"><ele>10.333333333333332</ele><time>2026-05-01T07:45:19.749Z</time></trkpt><trkpt lat="44.8837017" lon="11.4132283"><ele>11.0</ele><time>2026-05-01T07:45:20.75Z</time></trkpt><trkpt lat="44.8835733" lon="11.4133967"><ele>11.0</ele><time>2026-05-01T07:45:21.755Z</time></trkpt><trkpt lat="44.8834517" lon="11.41356"><ele>11.0</ele><time>2026-05-01T07:45:22.749Z</time></trkpt><trkpt lat="44.8833333" lon="11.4137233"><ele>11.0</ele><time>2026-05-01T07:45:23.751Z</time></trkpt><trkpt lat="44.883225" lon="11.4138717"><ele>10.5</ele><time>2026-05-01T07:45:24.749Z</time></trkpt><trkpt lat="44.883123" lon="11.4140097"><ele>10.0</ele><time>2026-05-01T07:45:25.752Z</time></trkpt><trkpt lat="44.8830264" lon="11.4141399"><ele>9.5</ele><time>2026-05-01T07:45:26.741Z</time></trkpt><trkpt lat="44.8829299" lon="11.4142685"><ele>9.0</ele><time>2026-05-01T07:45:27.742Z</time></trkpt><trkpt lat="44.8828298" lon="11.4144037"><ele>9.0</ele><time>2026-05-01T07:45:28.748Z</time></trkpt><trkpt lat="44.8827252" lon="11.4145453"><ele>9.0</ele><time>2026-05-01T07:45:29.748Z</time></trkpt><trkpt lat="44.8826157" lon="11.4146918"><ele>9.0</ele><time>2026-05-01T07:45:30.75Z</time></trkpt><trkpt lat="44.882503" lon="11.4148405"><ele>10.0</ele><time>2026-05-01T07:45:31.748Z</time></trkpt><trkpt lat="44.8823878" lon="11.4149968"><ele>11.0</ele><time>2026-05-01T07:45:32.742Z</time></trkpt><trkpt lat="44.8822641" lon="11.415164"><ele>12.0</ele><time>2026-05-01T07:45:33.741Z</time></trkpt><trkpt lat="44.8821315" lon="11.4153404"><ele>11.666666666666666</ele><time>2026-05-01T07:45:34.747Z</time></trkpt><trkpt lat="44.8819945" lon="11.4155226"><ele>11.333333333333332</ele><time>2026-05-01T07:45:35.751Z</time></trkpt><trkpt lat="44.8818573" lon="11.4157093"><ele>11.0</ele><time>2026-05-01T07:45:36.75Z</time></trkpt><trkpt lat="44.8817258" lon="11.4158996"><ele>11.0</ele><time>2026-05-01T07:45:37.742Z</time></trkpt><trkpt lat="44.8816067" lon="11.4160919"><ele>11.0</ele><time>2026-05-01T07:45:38.754Z</time></trkpt><trkpt lat="44.8815004" lon="11.4162863"><ele>11.0</ele><time>2026-05-01T07:45:39.744Z</time></trkpt><trkpt lat="44.8814022" lon="11.4164936"><ele>11.0</ele><time>2026-05-01T07:45:40.75Z</time></trkpt><trkpt lat="44.8813115" lon="11.4167124"><ele>11.0</ele><time>2026-05-01T07:45:41.749Z</time></trkpt><trkpt lat="44.8812263" lon="11.4169413"><ele>11.0</ele><time>2026-05-01T07:45:42.749Z</time></trkpt><trkpt lat="44.8811411" lon="11.4171802"><ele>11.333333333333332</ele><time>2026-05-01T07:45:43.742Z</time></trkpt><trkpt lat="44.8810501" lon="11.4174282"><ele>11.666666666666666</ele><time>2026-05-01T07:45:44.749Z</time></trkpt><trkpt lat="44.8809569" lon="11.4176831"><ele>12.0</ele><time>2026-05-01T07:45:45.751Z</time></trkpt><trkpt lat="44.8808629" lon="11.4179502"><ele>10.666666666666666</ele><time>2026-05-01T07:45:46.743Z</time></trkpt><trkpt lat="44.8807656" lon="11.4182269"><ele>9.333333333333332</ele><time>2026-05-01T07:45:47.751Z</time></trkpt><trkpt lat="44.8806674" lon="11.4185076"><ele>8.0</ele><time>2026-05-01T07:45:48.753Z</time></trkpt><trkpt lat="44.8805667" lon="11.4187853"><ele>7.666666666666666</ele><time>2026-05-01T07:45:49.749Z</time></trkpt><trkpt lat="44.8804656" lon="11.4190625"><ele>7.333333333333334</ele><time>2026-05-01T07:45:50.751Z</time></trkpt><trkpt lat="44.8803681" lon="11.419336"><ele>7.0</ele><time>2026-05-01T07:45:51.752Z</time></trkpt><trkpt lat="44.8802721" lon="11.4196056"><ele>7.0</ele><time>2026-05-01T07:45:52.753Z</time></trkpt><trkpt lat="44.8801775" lon="11.4198661"><ele>7.0</ele><time>2026-05-01T07:45:53.752Z</time></trkpt><trkpt lat="44.8800883" lon="11.4201067"><ele>7.0</ele><time>2026-05-01T07:45:54.75Z</time></trkpt><trkpt lat="44.880005" lon="11.42034"><ele>7.333333333333334</ele><time>2026-05-01T07:45:55.753Z</time></trkpt><trkpt lat="44.8799317" lon="11.4205583"><ele>7.666666666666666</ele><time>2026-05-01T07:45:56.747Z</time></trkpt><trkpt lat="44.87986" lon="11.42076"><ele>8.0</ele><time>2026-05-01T07:45:57.744Z</time></trkpt><trkpt lat="44.879795" lon="11.4209333"><ele>8.0</ele><time>2026-05-01T07:45:58.749Z</time></trkpt><trkpt lat="44.8797483" lon="11.4210567"><ele>8.0</ele><time>2026-05-01T07:45:59.749Z</time></trkpt><trkpt lat="44.87971" lon="11.4211783"><ele>8.0</ele><time>2026-05-01T07:46:01.751Z</time></trkpt><trkpt lat="44.87966" lon="11.42137"><ele>8.0</ele><time>2026-05-01T07:47:05.75Z</time></trkpt><trkpt lat="44.8796083" lon="11.421555"><ele>8.0</ele><time>2026-05-01T07:47:07.758Z</time></trkpt><trkpt lat="44.8795717" lon="11.4216917"><ele>8.0</ele><time>2026-05-01T07:47:08.748Z</time></trkpt><trkpt lat="44.8795333" lon="11.4218483"><ele>8.0</ele><time>2026-05-01T07:47:09.75Z</time></trkpt><trkpt lat="44.8794967" lon="11.4220233"><ele>8.0</ele><time>2026-05-01T07:47:10.753Z</time></trkpt><trkpt lat="44.87945" lon="11.4222217"><ele>9.666666666666666</ele><time>2026-05-01T07:47:11.748Z</time></trkpt><trkpt lat="44.8794017" lon="11.4224367"><ele>11.333333333333332</ele><time>2026-05-01T07:47:12.749Z</time></trkpt><trkpt lat="44.8793517" lon="11.42266"><ele>13.0</ele><time>2026-05-01T07:47:13.752Z</time></trkpt><trkpt lat="44.8793" lon="11.4228917"><ele>11.0</ele><time>2026-05-01T07:47:14.751Z</time></trkpt><trkpt lat="44.8792467" lon="11.423135"><ele>9.0</ele><time>2026-05-01T07:47:15.75Z</time></trkpt><trkpt lat="44.8791917" lon="11.4233817"><ele>7.0</ele><time>2026-05-01T07:47:16.749Z</time></trkpt><trkpt lat="44.8791383" lon="11.42363"><ele>7.333333333333334</ele><time>2026-05-01T07:47:17.748Z</time></trkpt><trkpt lat="44.8790833" lon="11.423885"><ele>7.666666666666666</ele><time>2026-05-01T07:47:18.747Z</time></trkpt><trkpt lat="44.8790267" lon="11.42414"><ele>8.0</ele><time>2026-05-01T07:47:19.75Z</time></trkpt><trkpt lat="44.87897" lon="11.424395"><ele>8.666666666666666</ele><time>2026-05-01T07:47:20.753Z</time></trkpt><trkpt lat="44.878915" lon="11.4246483"><ele>9.333333333333334</ele><time>2026-05-01T07:47:21.749Z</time></trkpt><trkpt lat="44.8788617" lon="11.4249"><ele>10.0</ele><time>2026-05-01T07:47:22.751Z</time></trkpt><trkpt lat="44.878805" lon="11.42515"><ele>10.0</ele><time>2026-05-01T07:47:23.747Z</time></trkpt><trkpt lat="44.8787467" lon="11.4254017"><ele>10.0</ele><time>2026-05-01T07:47:24.749Z</time></trkpt><trkpt lat="44.8786883" lon="11.4256583"><ele>10.0</ele><time>2026-05-01T07:47:25.749Z</time></trkpt><trkpt lat="44.8786317" lon="11.4259167"><ele>10.0</ele><time>2026-05-01T07:47:26.749Z</time></trkpt><trkpt lat="44.878575" lon="11.4261833"><ele>10.0</ele><time>2026-05-01T07:47:27.748Z</time></trkpt><trkpt lat="44.87852" lon="11.426445"><ele>10.0</ele><time>2026-05-01T07:47:28.755Z</time></trkpt><trkpt lat="44.8784617" lon="11.4267"><ele>9.666666666666668</ele><time>2026-05-01T07:47:29.75Z</time></trkpt><trkpt lat="44.8784083" lon="11.42695"><ele>9.333333333333334</ele><time>2026-05-01T07:47:30.745Z</time></trkpt><trkpt lat="44.8783667" lon="11.4271983"><ele>9.0</ele><time>2026-05-01T07:47:31.749Z</time></trkpt><trkpt lat="44.87834" lon="11.42744"><ele>9.0</ele><time>2026-05-01T07:47:32.749Z</time></trkpt><trkpt lat="44.8783317" lon="11.427675"><ele>9.0</ele><time>2026-05-01T07:47:33.751Z</time></trkpt><trkpt lat="44.8783417" lon="11.4279017"><ele>9.0</ele><time>2026-05-01T07:47:34.751Z</time></trkpt><trkpt lat="44.8783683" lon="11.428125"><ele>9.5</ele><time>2026-05-01T07:47:35.748Z</time></trkpt><trkpt lat="44.8784067" lon="11.4283417"><ele>10.0</ele><time>2026-05-01T07:47:36.749Z</time></trkpt><trkpt lat="44.8784533" lon="11.4285417"><ele>10.5</ele><time>2026-05-01T07:47:37.747Z</time></trkpt><trkpt lat="44.8784983" lon="11.4287283"><ele>11.0</ele><time>2026-05-01T07:47:38.751Z</time></trkpt><trkpt lat="44.8785383" lon="11.4289017"><ele>11.5</ele><time>2026-05-01T07:47:39.747Z</time></trkpt><trkpt lat="44.8785683" lon="11.4290783"><ele>12.0</ele><time>2026-05-01T07:47:40.752Z</time></trkpt><trkpt lat="44.8785883" lon="11.4292617"><ele>12.5</ele><time>2026-05-01T07:47:41.757Z</time></trkpt><trkpt lat="44.878595" lon="11.4294483"><ele>13.0</ele><time>2026-05-01T07:47:42.751Z</time></trkpt><trkpt lat="44.8785883" lon="11.4296433"><ele>13.0</ele><time>2026-05-01T07:47:43.749Z</time></trkpt><trkpt lat="44.8785683" lon="11.4298433"><ele>13.0</ele><time>2026-05-01T07:47:44.754Z</time></trkpt><trkpt lat="44.8785367" lon="11.430035"><ele>13.0</ele><time>2026-05-01T07:47:45.752Z</time></trkpt><trkpt lat="44.87849" lon="11.4302067"><ele>13.0</ele><time>2026-05-01T07:47:46.747Z</time></trkpt><trkpt lat="44.8784317" lon="11.43036"><ele>12.75</ele><time>2026-05-01T07:47:47.75Z</time></trkpt><trkpt lat="44.87836" lon="11.43051"><ele>12.5</ele><time>2026-05-01T07:47:48.751Z</time></trkpt><trkpt lat="44.8782817" lon="11.4306583"><ele>12.25</ele><time>2026-05-01T07:47:49.748Z</time></trkpt><trkpt lat="44.8781933" lon="11.430805"><ele>12.0</ele><time>2026-05-01T07:47:50.749Z</time></trkpt><trkpt lat="44.8781017" lon="11.4309533"><ele>12.0</ele><time>2026-05-01T07:47:51.747Z</time></trkpt><trkpt lat="44.8780117" lon="11.43109"><ele>12.0</ele><time>2026-05-01T07:47:52.748Z</time></trkpt><trkpt lat="44.87792" lon="11.4312317"><ele>12.0</ele><time>2026-05-01T07:47:53.752Z</time></trkpt><trkpt lat="44.8778267" lon="11.4313833"><ele>12.0</ele><time>2026-05-01T07:47:54.747Z</time></trkpt><trkpt lat="44.8777333" lon="11.43153"><ele>11.75</ele><time>2026-05-01T07:47:55.75Z</time></trkpt><trkpt lat="44.8776417" lon="11.431675"><ele>11.5</ele><time>2026-05-01T07:47:56.748Z</time></trkpt><trkpt lat="44.8775483" lon="11.4318267"><ele>11.25</ele><time>2026-05-01T07:47:57.749Z</time></trkpt><trkpt lat="44.8774533" lon="11.4319767"><ele>11.0</ele><time>2026-05-01T07:47:58.749Z</time></trkpt><trkpt lat="44.87736" lon="11.4321167"><ele>9.75</ele><time>2026-05-01T07:47:59.75Z</time></trkpt><trkpt lat="44.877275" lon="11.432245"><ele>8.5</ele><time>2026-05-01T07:48:00.751Z</time></trkpt><trkpt lat="44.877195" lon="11.43236"><ele>7.25</ele><time>2026-05-01T07:48:01.75Z</time></trkpt><trkpt lat="44.87711" lon="11.43249"><ele>6.0</ele><time>2026-05-01T07:48:02.749Z</time></trkpt><trkpt lat="44.8770267" lon="11.4326183"><ele>6.0</ele><time>2026-05-01T07:48:03.749Z</time></trkpt><trkpt lat="44.8769433" lon="11.4327517"><ele>6.0</ele><time>2026-05-01T07:48:04.75Z</time></trkpt><trkpt lat="44.87686" lon="11.43288"><ele>6.0</ele><time>2026-05-01T07:48:05.749Z</time></trkpt><trkpt lat="44.87678" lon="11.4330033"><ele>6.0</ele><time>2026-05-01T07:48:06.748Z</time></trkpt><trkpt lat="44.8766967" lon="11.43313"><ele>6.75</ele><time>2026-05-01T07:48:07.748Z</time></trkpt><trkpt lat="44.8766133" lon="11.4332567"><ele>7.5</ele><time>2026-05-01T07:48:08.751Z</time></trkpt><trkpt lat="44.8765233" lon="11.4333783"><ele>8.25</ele><time>2026-05-01T07:48:09.747Z</time></trkpt><trkpt lat="44.8764383" lon="11.433495"><ele>9.0</ele><time>2026-05-01T07:48:10.751Z</time></trkpt><trkpt lat="44.87635" lon="11.43361"><ele>9.0</ele><time>2026-05-01T07:48:11.748Z</time></trkpt><trkpt lat="44.8762567" lon="11.4337317"><ele>9.0</ele><time>2026-05-01T07:48:12.748Z</time></trkpt><trkpt lat="44.8761583" lon="11.43386"><ele>9.0</ele><time>2026-05-01T07:48:13.747Z</time></trkpt><trkpt lat="44.876055" lon="11.4339933"><ele>9.0</ele><time>2026-05-01T07:48:14.752Z</time></trkpt><trkpt lat="44.8759567" lon="11.4341267"><ele>9.0</ele><time>2026-05-01T07:48:15.748Z</time></trkpt><trkpt lat="44.8758567" lon="11.434255"><ele>9.0</ele><time>2026-05-01T07:48:16.749Z</time></trkpt><trkpt lat="44.8757517" lon="11.4343917"><ele>9.0</ele><time>2026-05-01T07:48:17.748Z</time></trkpt><trkpt lat="44.875645" lon="11.434535"><ele>9.0</ele><time>2026-05-01T07:48:18.749Z</time></trkpt><trkpt lat="44.8755333" lon="11.4346817"><ele>9.666666666666666</ele><time>2026-05-01T07:48:19.748Z</time></trkpt><trkpt lat="44.8754183" lon="11.4348433"><ele>10.333333333333332</ele><time>2026-05-01T07:48:20.749Z</time></trkpt><trkpt lat="44.8752967" lon="11.4350017"><ele>11.0</ele><time>2026-05-01T07:48:21.749Z</time></trkpt><trkpt lat="44.8751683" lon="11.4351617"><ele>11.0</ele><time>2026-05-01T07:48:22.753Z</time></trkpt><trkpt lat="44.8750417" lon="11.4353267"><ele>11.0</ele><time>2026-05-01T07:48:23.741Z</time></trkpt><trkpt lat="44.8749133" lon="11.4354983"><ele>11.0</ele><time>2026-05-01T07:48:24.751Z</time></trkpt><trkpt lat="44.87478" lon="11.4356783"><ele>10.666666666666666</ele><time>2026-05-01T07:48:25.745Z</time></trkpt><trkpt lat="44.874645" lon="11.43586"><ele>10.333333333333334</ele><time>2026-05-01T07:48:26.748Z</time></trkpt><trkpt lat="44.87451" lon="11.4360417"><ele>10.0</ele><time>2026-05-01T07:48:27.745Z</time></trkpt><trkpt lat="44.8743767" lon="11.4362217"><ele>10.666666666666668</ele><time>2026-05-01T07:48:28.751Z</time></trkpt><trkpt lat="44.87425" lon="11.4364"><ele>11.333333333333334</ele><time>2026-05-01T07:48:29.752Z</time></trkpt><trkpt lat="44.8741267" lon="11.4365817"><ele>12.0</ele><time>2026-05-01T07:48:30.753Z</time></trkpt><trkpt lat="44.87401" lon="11.4367567"><ele>12.0</ele><time>2026-05-01T07:48:31.749Z</time></trkpt><trkpt lat="44.8738967" lon="11.43693"><ele>12.0</ele><time>2026-05-01T07:48:32.749Z</time></trkpt><trkpt lat="44.87378" lon="11.4371033"><ele>12.0</ele><time>2026-05-01T07:48:33.747Z</time></trkpt><trkpt lat="44.873665" lon="11.4372717"><ele>11.666666666666666</ele><time>2026-05-01T07:48:34.75Z</time></trkpt><trkpt lat="44.873555" lon="11.4374367"><ele>11.333333333333332</ele><time>2026-05-01T07:48:35.742Z</time></trkpt><trkpt lat="44.8734483" lon="11.4375933"><ele>11.0</ele><time>2026-05-01T07:48:36.753Z</time></trkpt><trkpt lat="44.8733417" lon="11.4377417"><ele>11.0</ele><time>2026-05-01T07:48:37.746Z</time></trkpt><trkpt lat="44.873235" lon="11.437885"><ele>11.0</ele><time>2026-05-01T07:48:38.753Z</time></trkpt><trkpt lat="44.8731317" lon="11.4380267"><ele>11.0</ele><time>2026-05-01T07:48:39.746Z</time></trkpt><trkpt lat="44.8730283" lon="11.4381767"><ele>11.0</ele><time>2026-05-01T07:48:40.751Z</time></trkpt><trkpt lat="44.872925" lon="11.4383217"><ele>11.0</ele><time>2026-05-01T07:48:41.749Z</time></trkpt><trkpt lat="44.8728183" lon="11.4384617"><ele>11.0</ele><time>2026-05-01T07:48:42.749Z</time></trkpt><trkpt lat="44.8727083" lon="11.4386033"><ele>11.0</ele><time>2026-05-01T07:48:43.748Z</time></trkpt><trkpt lat="44.8725983" lon="11.43875"><ele>11.0</ele><time>2026-05-01T07:48:44.749Z</time></trkpt><trkpt lat="44.87249" lon="11.4388933"><ele>11.25</ele><time>2026-05-01T07:48:45.751Z</time></trkpt><trkpt lat="44.8723867" lon="11.4390183"><ele>11.5</ele><time>2026-05-01T07:48:46.748Z</time></trkpt><trkpt lat="44.8722967" lon="11.43915"><ele>11.75</ele><time>2026-05-01T07:48:47.752Z</time></trkpt><trkpt lat="44.8722117" lon="11.4392683"><ele>12.0</ele><time>2026-05-01T07:48:48.742Z</time></trkpt><trkpt lat="44.8721283" lon="11.439385"><ele>12.0</ele><time>2026-05-01T07:48:49.749Z</time></trkpt><trkpt lat="44.8720467" lon="11.4395033"><ele>12.0</ele><time>2026-05-01T07:48:50.751Z</time></trkpt><trkpt lat="44.87196" lon="11.4396233"><ele>12.0</ele><time>2026-05-01T07:48:51.748Z</time></trkpt><trkpt lat="44.8718667" lon="11.4397433"><ele>12.0</ele><time>2026-05-01T07:48:52.741Z</time></trkpt><trkpt lat="44.87176" lon="11.43986"><ele>12.0</ele><time>2026-05-01T07:48:53.745Z</time></trkpt><trkpt lat="44.8716517" lon="11.439985"><ele>12.0</ele><time>2026-05-01T07:48:54.748Z</time></trkpt><trkpt lat="44.8715367" lon="11.440115"><ele>12.0</ele><time>2026-05-01T07:48:55.752Z</time></trkpt><trkpt lat="44.8714167" lon="11.4402483"><ele>12.0</ele><time>2026-05-01T07:48:56.75Z</time></trkpt><trkpt lat="44.871295" lon="11.44041"><ele>12.0</ele><time>2026-05-01T07:48:57.749Z</time></trkpt><trkpt lat="44.8711533" lon="11.44059"><ele>12.0</ele><time>2026-05-01T07:48:58.753Z</time></trkpt><trkpt lat="44.871" lon="11.440785"><ele>12.0</ele><time>2026-05-01T07:48:59.749Z</time></trkpt><trkpt lat="44.8708467" lon="11.4409867"><ele>12.0</ele><time>2026-05-01T07:49:00.754Z</time></trkpt><trkpt lat="44.87069" lon="11.4411967"><ele>12.0</ele><time>2026-05-01T07:49:01.752Z</time></trkpt><trkpt lat="44.87054" lon="11.441415"><ele>12.0</ele><time>2026-05-01T07:49:02.75Z</time></trkpt><trkpt lat="44.8704017" lon="11.441635"><ele>12.0</ele><time>2026-05-01T07:49:03.751Z</time></trkpt><trkpt lat="44.870275" lon="11.441855"><ele>12.0</ele><time>2026-05-01T07:49:04.744Z</time></trkpt><trkpt lat="44.87016" lon="11.4420883"><ele>12.0</ele><time>2026-05-01T07:49:05.742Z</time></trkpt><trkpt lat="44.870065" lon="11.4423383"><ele>12.0</ele><time>2026-05-01T07:49:06.752Z</time></trkpt><trkpt lat="44.8699883" lon="11.4425983"><ele>12.0</ele><time>2026-05-01T07:49:07.743Z</time></trkpt><trkpt lat="44.869915" lon="11.442865"><ele>12.0</ele><time>2026-05-01T07:49:08.752Z</time></trkpt><trkpt lat="44.8698433" lon="11.4431367"><ele>12.0</ele><time>2026-05-01T07:49:09.743Z</time></trkpt><trkpt lat="44.869775" lon="11.4434083"><ele>12.0</ele><time>2026-05-01T07:49:10.742Z</time></trkpt><trkpt lat="44.86971" lon="11.443685"><ele>12.0</ele><time>2026-05-01T07:49:11.749Z</time></trkpt><trkpt lat="44.8696467" lon="11.44396"><ele>12.0</ele><time>2026-05-01T07:49:12.751Z</time></trkpt><trkpt lat="44.8695833" lon="11.4442317"><ele>12.0</ele><time>2026-05-01T07:49:13.754Z</time></trkpt><trkpt lat="44.8695233" lon="11.4445"><ele>12.0</ele><time>2026-05-01T07:49:14.75Z</time></trkpt><trkpt lat="44.8694667" lon="11.4447567"><ele>12.0</ele><time>2026-05-01T07:49:15.75Z</time></trkpt><trkpt lat="44.8694117" lon="11.4450067"><ele>12.0</ele><time>2026-05-01T07:49:16.747Z</time></trkpt><trkpt lat="44.8693583" lon="11.445255"><ele>12.0</ele><time>2026-05-01T07:49:17.752Z</time></trkpt><trkpt lat="44.86931" lon="11.4454883"><ele>12.333333333333332</ele><time>2026-05-01T07:49:18.745Z</time></trkpt><trkpt lat="44.8692617" lon="11.445715"><ele>12.666666666666666</ele><time>2026-05-01T07:49:19.754Z</time></trkpt><trkpt lat="44.86922" lon="11.44593"><ele>13.0</ele><time>2026-05-01T07:49:20.753Z</time></trkpt><trkpt lat="44.8691817" lon="11.4461333"><ele>12.8</ele><time>2026-05-01T07:49:21.745Z</time></trkpt><trkpt lat="44.8691483" lon="11.4463167"><ele>12.600000000000001</ele><time>2026-05-01T07:49:22.747Z</time></trkpt><trkpt lat="44.8691183" lon="11.4464783"><ele>12.399999999999999</ele><time>2026-05-01T07:49:23.75Z</time></trkpt><trkpt lat="44.8690917" lon="11.4466133"><ele>12.2</ele><time>2026-05-01T07:49:24.748Z</time></trkpt><trkpt lat="44.86907" lon="11.4467333"><ele>12.0</ele><time>2026-05-01T07:49:25.749Z</time></trkpt><trkpt lat="44.86905" lon="11.4468517"><ele>12.0</ele><time>2026-05-01T07:49:26.754Z</time></trkpt><trkpt lat="44.869035" lon="11.4469717"><ele>12.0</ele><time>2026-05-01T07:49:27.742Z</time></trkpt><trkpt lat="44.86903" lon="11.4470917"><ele>12.0</ele><time>2026-05-01T07:49:28.748Z</time></trkpt><trkpt lat="44.8690333" lon="11.4472183"><ele>12.0</ele><time>2026-05-01T07:49:29.749Z</time></trkpt><trkpt lat="44.8690417" lon="11.4473333"><ele>12.0</ele><time>2026-05-01T07:49:30.75Z</time></trkpt><trkpt lat="44.8690483" lon="11.4474367"><ele>12.0</ele><time>2026-05-01T07:49:31.752Z</time></trkpt><trkpt lat="44.8690517" lon="11.4475317"><ele>12.0</ele><time>2026-05-01T07:49:32.749Z</time></trkpt><trkpt lat="44.8690517" lon="11.4476317"><ele>12.0</ele><time>2026-05-01T07:49:33.748Z</time></trkpt><trkpt lat="44.86905" lon="11.4477383"><ele>12.0</ele><time>2026-05-01T07:49:34.748Z</time></trkpt><trkpt lat="44.8690483" lon="11.4478333"><ele>12.0</ele><time>2026-05-01T07:49:35.749Z</time></trkpt><trkpt lat="44.8690433" lon="11.4479367"><ele>12.0</ele><time>2026-05-01T07:49:36.75Z</time></trkpt><trkpt lat="44.8690317" lon="11.4480483"><ele>12.0</ele><time>2026-05-01T07:49:37.752Z</time></trkpt><trkpt lat="44.869015" lon="11.4481767"><ele>12.0</ele><time>2026-05-01T07:49:38.752Z</time></trkpt><trkpt lat="44.8689967" lon="11.4483117"><ele>12.0</ele><time>2026-05-01T07:49:39.75Z</time></trkpt><trkpt lat="44.8689717" lon="11.44846"><ele>12.0</ele><time>2026-05-01T07:49:40.751Z</time></trkpt><trkpt lat="44.8689417" lon="11.448625"><ele>12.0</ele><time>2026-05-01T07:49:41.741Z</time></trkpt><trkpt lat="44.8689017" lon="11.4488067"><ele>11.5</ele><time>2026-05-01T07:49:42.75Z</time></trkpt><trkpt lat="44.8688633" lon="11.448995"><ele>11.0</ele><time>2026-05-01T07:49:43.75Z</time></trkpt><trkpt lat="44.8688233" lon="11.4491883"><ele>10.5</ele><time>2026-05-01T07:49:44.751Z</time></trkpt><trkpt lat="44.86879" lon="11.4493783"><ele>10.0</ele><time>2026-05-01T07:49:45.749Z</time></trkpt><trkpt lat="44.86876" lon="11.4495733"><ele>9.5</ele><time>2026-05-01T07:49:46.75Z</time></trkpt><trkpt lat="44.8687267" lon="11.4497633"><ele>9.0</ele><time>2026-05-01T07:49:47.748Z</time></trkpt><trkpt lat="44.8686983" lon="11.44996"><ele>8.5</ele><time>2026-05-01T07:49:48.742Z</time></trkpt><trkpt lat="44.86867" lon="11.4501667"><ele>8.0</ele><time>2026-05-01T07:49:49.748Z</time></trkpt><trkpt lat="44.868645" lon="11.4503817"><ele>8.0</ele><time>2026-05-01T07:49:50.752Z</time></trkpt><trkpt lat="44.86862" lon="11.4505983"><ele>8.0</ele><time>2026-05-01T07:49:51.746Z</time></trkpt><trkpt lat="44.868595" lon="11.4508217"><ele>8.0</ele><time>2026-05-01T07:49:52.749Z</time></trkpt><trkpt lat="44.8685683" lon="11.451045"><ele>8.0</ele><time>2026-05-01T07:49:53.749Z</time></trkpt><trkpt lat="44.8685417" lon="11.4512717"><ele>8.0</ele><time>2026-05-01T07:49:54.742Z</time></trkpt><trkpt lat="44.8685133" lon="11.451505"><ele>8.0</ele><time>2026-05-01T07:49:55.752Z</time></trkpt><trkpt lat="44.8684833" lon="11.451745"><ele>8.0</ele><time>2026-05-01T07:49:56.75Z</time></trkpt><trkpt lat="44.868455" lon="11.4519867"><ele>8.0</ele><time>2026-05-01T07:49:57.747Z</time></trkpt><trkpt lat="44.8684233" lon="11.4522383"><ele>8.0</ele><time>2026-05-01T07:49:58.752Z</time></trkpt><trkpt lat="44.86839" lon="11.4524967"><ele>9.333333333333332</ele><time>2026-05-01T07:49:59.751Z</time></trkpt><trkpt lat="44.8683567" lon="11.4527667"><ele>10.666666666666666</ele><time>2026-05-01T07:50:00.752Z</time></trkpt><trkpt lat="44.868325" lon="11.4530383"><ele>12.0</ele><time>2026-05-01T07:50:01.751Z</time></trkpt><trkpt lat="44.86829" lon="11.4533167"><ele>12.0</ele><time>2026-05-01T07:50:02.745Z</time></trkpt><trkpt lat="44.868255" lon="11.4536017"><ele>12.0</ele><time>2026-05-01T07:50:03.757Z</time></trkpt><trkpt lat="44.8682233" lon="11.4539033"><ele>12.0</ele><time>2026-05-01T07:50:04.754Z</time></trkpt><trkpt lat="44.8681917" lon="11.4542133"><ele>11.0</ele><time>2026-05-01T07:50:05.748Z</time></trkpt><trkpt lat="44.8681533" lon="11.4545333"><ele>10.0</ele><time>2026-05-01T07:50:06.75Z</time></trkpt><trkpt lat="44.8681117" lon="11.4548617"><ele>9.5</ele><time>2026-05-01T07:50:07.744Z</time></trkpt><trkpt lat="44.8680667" lon="11.4551883"><ele>9.0</ele><time>2026-05-01T07:50:08.75Z</time></trkpt><trkpt lat="44.8680233" lon="11.4555117"><ele>8.0</ele><time>2026-05-01T07:50:09.751Z</time></trkpt><trkpt lat="44.86798" lon="11.4558367"><ele>7.0</ele><time>2026-05-01T07:50:10.752Z</time></trkpt><trkpt lat="44.8679383" lon="11.45615"><ele>7.333333333333334</ele><time>2026-05-01T07:50:11.75Z</time></trkpt><trkpt lat="44.8678983" lon="11.4564467"><ele>7.666666666666666</ele><time>2026-05-01T07:50:12.755Z</time></trkpt><trkpt lat="44.8678617" lon="11.4567333"><ele>8.0</ele><time>2026-05-01T07:50:13.752Z</time></trkpt><trkpt lat="44.8678267" lon="11.4570083"><ele>8.666666666666666</ele><time>2026-05-01T07:50:14.752Z</time></trkpt><trkpt lat="44.867795" lon="11.45727"><ele>9.333333333333334</ele><time>2026-05-01T07:50:15.749Z</time></trkpt><trkpt lat="44.867765" lon="11.4575233"><ele>10.0</ele><time>2026-05-01T07:50:16.749Z</time></trkpt><trkpt lat="44.8677467" lon="11.45777"><ele>10.0</ele><time>2026-05-01T07:50:17.748Z</time></trkpt><trkpt lat="44.86773" lon="11.4580183"><ele>10.0</ele><time>2026-05-01T07:50:18.743Z</time></trkpt><trkpt lat="44.86772" lon="11.45827"><ele>10.0</ele><time>2026-05-01T07:50:19.75Z</time></trkpt><trkpt lat="44.8677067" lon="11.4585283"><ele>9.333333333333334</ele><time>2026-05-01T07:50:20.742Z</time></trkpt><trkpt lat="44.86769" lon="11.4587883"><ele>8.666666666666666</ele><time>2026-05-01T07:50:21.751Z</time></trkpt><trkpt lat="44.867685" lon="11.4590467"><ele>8.0</ele><time>2026-05-01T07:50:22.752Z</time></trkpt><trkpt lat="44.8676767" lon="11.4593033"><ele>8.0</ele><time>2026-05-01T07:50:23.755Z</time></trkpt><trkpt lat="44.8676733" lon="11.4595617"><ele>8.0</ele><time>2026-05-01T07:50:24.758Z</time></trkpt><trkpt lat="44.867675" lon="11.4598217"><ele>8.0</ele><time>2026-05-01T07:50:25.754Z</time></trkpt><trkpt lat="44.8676817" lon="11.460075"><ele>7.666666666666666</ele><time>2026-05-01T07:50:26.753Z</time></trkpt><trkpt lat="44.86769" lon="11.4603267"><ele>7.333333333333334</ele><time>2026-05-01T07:50:27.756Z</time></trkpt><trkpt lat="44.8677033" lon="11.46058"><ele>7.0</ele><time>2026-05-01T07:50:28.749Z</time></trkpt><trkpt lat="44.8677167" lon="11.46083"><ele>7.0</ele><time>2026-05-01T07:50:29.75Z</time></trkpt><trkpt lat="44.8677283" lon="11.461075"><ele>7.0</ele><time>2026-05-01T07:50:30.75Z</time></trkpt><trkpt lat="44.8677417" lon="11.4613183"><ele>7.0</ele><time>2026-05-01T07:50:31.748Z</time></trkpt><trkpt lat="44.8677517" lon="11.4615633"><ele>7.333333333333334</ele><time>2026-05-01T07:50:32.75Z</time></trkpt><trkpt lat="44.86776" lon="11.4618067"><ele>7.666666666666666</ele><time>2026-05-01T07:50:33.742Z</time></trkpt><trkpt lat="44.8677633" lon="11.46205"><ele>8.0</ele><time>2026-05-01T07:50:34.751Z</time></trkpt><trkpt lat="44.8677617" lon="11.46229"><ele>8.25</ele><time>2026-05-01T07:50:35.745Z</time></trkpt><trkpt lat="44.8677583" lon="11.462505"><ele>8.5</ele><time>2026-05-01T07:50:36.741Z</time></trkpt><trkpt lat="44.8677533" lon="11.4626933"><ele>8.75</ele><time>2026-05-01T07:50:37.742Z</time></trkpt><trkpt lat="44.8677467" lon="11.4628717"><ele>9.0</ele><time>2026-05-01T07:50:38.754Z</time></trkpt><trkpt lat="44.8677383" lon="11.4630517"><ele>9.0</ele><time>2026-05-01T07:50:39.75Z</time></trkpt><trkpt lat="44.867735" lon="11.4632317"><ele>9.0</ele><time>2026-05-01T07:50:40.748Z</time></trkpt><trkpt lat="44.8677317" lon="11.463415"><ele>9.0</ele><time>2026-05-01T07:50:41.751Z</time></trkpt><trkpt lat="44.8677267" lon="11.4636067"><ele>9.0</ele><time>2026-05-01T07:50:42.743Z</time></trkpt><trkpt lat="44.8677183" lon="11.4637933"><ele>9.0</ele><time>2026-05-01T07:50:43.749Z</time></trkpt><trkpt lat="44.8677083" lon="11.46398"><ele>9.0</ele><time>2026-05-01T07:50:44.753Z</time></trkpt><trkpt lat="44.8676933" lon="11.46417"><ele>9.0</ele><time>2026-05-01T07:50:45.752Z</time></trkpt><trkpt lat="44.86768" lon="11.46436"><ele>9.0</ele><time>2026-05-01T07:50:46.747Z</time></trkpt><trkpt lat="44.867665" lon="11.4645583"><ele>9.25</ele><time>2026-05-01T07:50:47.742Z</time></trkpt><trkpt lat="44.8676483" lon="11.4647583"><ele>9.5</ele><time>2026-05-01T07:50:48.75Z</time></trkpt><trkpt lat="44.8676283" lon="11.46496"><ele>9.75</ele><time>2026-05-01T07:50:49.75Z</time></trkpt><trkpt lat="44.86761" lon="11.4651617"><ele>10.0</ele><time>2026-05-01T07:50:50.749Z</time></trkpt><trkpt lat="44.8675967" lon="11.465365"><ele>9.75</ele><time>2026-05-01T07:50:51.751Z</time></trkpt><trkpt lat="44.8675783" lon="11.4655683"><ele>9.5</ele><time>2026-05-01T07:50:52.748Z</time></trkpt><trkpt lat="44.8675533" lon="11.4657683"><ele>9.25</ele><time>2026-05-01T07:50:53.754Z</time></trkpt><trkpt lat="44.867525" lon="11.4659667"><ele>9.0</ele><time>2026-05-01T07:50:54.752Z</time></trkpt><trkpt lat="44.8674933" lon="11.466165"><ele>9.0</ele><time>2026-05-01T07:50:55.751Z</time></trkpt><trkpt lat="44.8674567" lon="11.4663533"><ele>9.0</ele><time>2026-05-01T07:50:56.751Z</time></trkpt><trkpt lat="44.8674217" lon="11.4665333"><ele>9.0</ele><time>2026-05-01T07:50:57.753Z</time></trkpt><trkpt lat="44.8674" lon="11.466705"><ele>9.0</ele><time>2026-05-01T07:50:58.748Z</time></trkpt><trkpt lat="44.8673867" lon="11.4668733"><ele>9.0</ele><time>2026-05-01T07:50:59.752Z</time></trkpt><trkpt lat="44.86739" lon="11.4670367"><ele>9.0</ele><time>2026-05-01T07:51:00.743Z</time></trkpt><trkpt lat="44.8674083" lon="11.4671983"><ele>9.0</ele><time>2026-05-01T07:51:01.751Z</time></trkpt><trkpt lat="44.8674117" lon="11.467365"><ele>9.0</ele><time>2026-05-01T07:51:02.752Z</time></trkpt><trkpt lat="44.8674" lon="11.4675333"><ele>9.0</ele><time>2026-05-01T07:51:03.75Z</time></trkpt><trkpt lat="44.8673733" lon="11.4677167"><ele>9.0</ele><time>2026-05-01T07:51:04.748Z</time></trkpt><trkpt lat="44.8673317" lon="11.467905"><ele>9.0</ele><time>2026-05-01T07:51:05.75Z</time></trkpt><trkpt lat="44.8672833" lon="11.4681033"><ele>9.0</ele><time>2026-05-01T07:51:06.751Z</time></trkpt><trkpt lat="44.867235" lon="11.468305"><ele>9.0</ele><time>2026-05-01T07:51:07.749Z</time></trkpt><trkpt lat="44.867195" lon="11.4685083"><ele>9.0</ele><time>2026-05-01T07:51:08.75Z</time></trkpt><trkpt lat="44.8671683" lon="11.4687133"><ele>9.0</ele><time>2026-05-01T07:51:09.75Z</time></trkpt><trkpt lat="44.8671667" lon="11.4689217"><ele>9.0</ele><time>2026-05-01T07:51:10.752Z</time></trkpt><trkpt lat="44.8671883" lon="11.46913"><ele>9.0</ele><time>2026-05-01T07:51:11.75Z</time></trkpt><trkpt lat="44.8672367" lon="11.4693283"><ele>9.0</ele><time>2026-05-01T07:51:12.743Z</time></trkpt><trkpt lat="44.8672967" lon="11.4695367"><ele>9.0</ele><time>2026-05-01T07:51:13.751Z</time></trkpt><trkpt lat="44.8673633" lon="11.4697483"><ele>9.333333333333334</ele><time>2026-05-01T07:51:14.752Z</time></trkpt><trkpt lat="44.86742" lon="11.469975"><ele>9.666666666666668</ele><time>2026-05-01T07:51:15.742Z</time></trkpt><trkpt lat="44.867455" lon="11.4702"><ele>10.0</ele><time>2026-05-01T07:51:16.751Z</time></trkpt><trkpt lat="44.86747" lon="11.4704283"><ele>9.666666666666668</ele><time>2026-05-01T07:51:17.744Z</time></trkpt><trkpt lat="44.8674583" lon="11.470665"><ele>9.333333333333334</ele><time>2026-05-01T07:51:18.752Z</time></trkpt><trkpt lat="44.867425" lon="11.470895"><ele>9.0</ele><time>2026-05-01T07:51:19.749Z</time></trkpt><trkpt lat="44.867375" lon="11.471125"><ele>9.0</ele><time>2026-05-01T07:51:20.752Z</time></trkpt><trkpt lat="44.867315" lon="11.4713583"><ele>9.0</ele><time>2026-05-01T07:51:21.753Z</time></trkpt><trkpt lat="44.8672467" lon="11.4715917"><ele>9.0</ele><time>2026-05-01T07:51:22.745Z</time></trkpt><trkpt lat="44.8671783" lon="11.4718183"><ele>9.0</ele><time>2026-05-01T07:51:23.746Z</time></trkpt><trkpt lat="44.8671117" lon="11.4720383"><ele>9.0</ele><time>2026-05-01T07:51:24.752Z</time></trkpt><trkpt lat="44.86705" lon="11.472255"><ele>9.0</ele><time>2026-05-01T07:51:25.751Z</time></trkpt><trkpt lat="44.86699" lon="11.4724717"><ele>8.666666666666666</ele><time>2026-05-01T07:51:26.754Z</time></trkpt><trkpt lat="44.8669267" lon="11.4726833"><ele>8.333333333333332</ele><time>2026-05-01T07:51:27.751Z</time></trkpt><trkpt lat="44.8668633" lon="11.4728983"><ele>8.0</ele><time>2026-05-01T07:51:28.744Z</time></trkpt><trkpt lat="44.8667967" lon="11.4731167"><ele>9.333333333333332</ele><time>2026-05-01T07:51:29.749Z</time></trkpt><trkpt lat="44.8667267" lon="11.4733383"><ele>10.666666666666666</ele><time>2026-05-01T07:51:30.751Z</time></trkpt><trkpt lat="44.866655" lon="11.4735617"><ele>12.0</ele><time>2026-05-01T07:51:31.742Z</time></trkpt><trkpt lat="44.8665883" lon="11.4737933"><ele>12.0</ele><time>2026-05-01T07:51:32.749Z</time></trkpt><trkpt lat="44.86652" lon="11.47403"><ele>12.0</ele><time>2026-05-01T07:51:33.751Z</time></trkpt><trkpt lat="44.8664483" lon="11.47427"><ele>12.0</ele><time>2026-05-01T07:51:34.75Z</time></trkpt><trkpt lat="44.866375" lon="11.4745067"><ele>11.0</ele><time>2026-05-01T07:51:35.749Z</time></trkpt><trkpt lat="44.866305" lon="11.4747333"><ele>10.0</ele><time>2026-05-01T07:51:36.747Z</time></trkpt><trkpt lat="44.866235" lon="11.4749517"><ele>9.0</ele><time>2026-05-01T07:51:37.752Z</time></trkpt><trkpt lat="44.8661733" lon="11.475155"><ele>9.0</ele><time>2026-05-01T07:51:38.753Z</time></trkpt><trkpt lat="44.8661217" lon="11.4753617"><ele>9.0</ele><time>2026-05-01T07:51:39.75Z</time></trkpt><trkpt lat="44.86609" lon="11.475565"><ele>9.0</ele><time>2026-05-01T07:51:40.752Z</time></trkpt><trkpt lat="44.866085" lon="11.4757717"><ele>9.0</ele><time>2026-05-01T07:51:41.748Z</time></trkpt><trkpt lat="44.8661067" lon="11.4759783"><ele>8.333333333333334</ele><time>2026-05-01T07:51:42.747Z</time></trkpt><trkpt lat="44.86616" lon="11.47618"><ele>7.666666666666667</ele><time>2026-05-01T07:51:43.749Z</time></trkpt><trkpt lat="44.8662283" lon="11.4763767"><ele>7.0</ele><time>2026-05-01T07:51:44.746Z</time></trkpt><trkpt lat="44.86632" lon="11.4765483"><ele>6.666666666666667</ele><time>2026-05-01T07:51:45.749Z</time></trkpt><trkpt lat="44.8664333" lon="11.476705"><ele>6.333333333333334</ele><time>2026-05-01T07:51:46.748Z</time></trkpt><trkpt lat="44.8665533" lon="11.476845"><ele>6.0</ele><time>2026-05-01T07:51:47.75Z</time></trkpt><trkpt lat="44.86667" lon="11.4769783"><ele>6.5</ele><time>2026-05-01T07:51:48.748Z</time></trkpt><trkpt lat="44.8667817" lon="11.4771117"><ele>7.0</ele><time>2026-05-01T07:51:49.753Z</time></trkpt><trkpt lat="44.8668933" lon="11.4772433"><ele>7.5</ele><time>2026-05-01T07:51:50.757Z</time></trkpt><trkpt lat="44.8670033" lon="11.47738"><ele>8.0</ele><time>2026-05-01T07:51:51.743Z</time></trkpt><trkpt lat="44.8671067" lon="11.47753"><ele>8.0</ele><time>2026-05-01T07:51:52.751Z</time></trkpt><trkpt lat="44.8672" lon="11.4776933"><ele>8.0</ele><time>2026-05-01T07:51:53.751Z</time></trkpt><trkpt lat="44.86728" lon="11.4778733"><ele>8.0</ele><time>2026-05-01T07:51:54.758Z</time></trkpt><trkpt lat="44.8673483" lon="11.4780617"><ele>8.0</ele><time>2026-05-01T07:51:55.752Z</time></trkpt><trkpt lat="44.8673983" lon="11.47827"><ele>8.333333333333332</ele><time>2026-05-01T07:51:56.752Z</time></trkpt><trkpt lat="44.8674433" lon="11.47851"><ele>8.666666666666666</ele><time>2026-05-01T07:51:57.742Z</time></trkpt><trkpt lat="44.8674833" lon="11.4787633"><ele>9.0</ele><time>2026-05-01T07:51:58.742Z</time></trkpt><trkpt lat="44.867515" lon="11.4790317"><ele>8.333333333333334</ele><time>2026-05-01T07:51:59.751Z</time></trkpt><trkpt lat="44.86755" lon="11.479305"><ele>7.666666666666667</ele><time>2026-05-01T07:52:00.753Z</time></trkpt><trkpt lat="44.8675933" lon="11.4795767"><ele>7.0</ele><time>2026-05-01T07:52:01.747Z</time></trkpt><trkpt lat="44.8676417" lon="11.47985"><ele>6.666666666666667</ele><time>2026-05-01T07:52:02.751Z</time></trkpt><trkpt lat="44.8677033" lon="11.4801167"><ele>6.333333333333334</ele><time>2026-05-01T07:52:03.751Z</time></trkpt><trkpt lat="44.8677733" lon="11.4803867"><ele>6.0</ele><time>2026-05-01T07:52:04.75Z</time></trkpt><trkpt lat="44.8678467" lon="11.480655"><ele>6.0</ele><time>2026-05-01T07:52:05.753Z</time></trkpt><trkpt lat="44.8679133" lon="11.480925"><ele>6.0</ele><time>2026-05-01T07:52:06.743Z</time></trkpt><trkpt lat="44.8679583" lon="11.4812033"><ele>6.0</ele><time>2026-05-01T07:52:07.743Z</time></trkpt><trkpt lat="44.86799" lon="11.4814883"><ele>6.0</ele><time>2026-05-01T07:52:08.75Z</time></trkpt><trkpt lat="44.86801" lon="11.4817783"><ele>6.0</ele><time>2026-05-01T07:52:09.751Z</time></trkpt><trkpt lat="44.86803" lon="11.48207"><ele>6.0</ele><time>2026-05-01T07:52:10.745Z</time></trkpt><trkpt lat="44.8680583" lon="11.4823633"><ele>6.333333333333334</ele><time>2026-05-01T07:52:11.752Z</time></trkpt><trkpt lat="44.8680933" lon="11.48266"><ele>6.666666666666667</ele><time>2026-05-01T07:52:12.757Z</time></trkpt><trkpt lat="44.8681333" lon="11.4829567"><ele>7.0</ele><time>2026-05-01T07:52:13.753Z</time></trkpt><trkpt lat="44.8681733" lon="11.48326"><ele>7.0</ele><time>2026-05-01T07:52:14.751Z</time></trkpt><trkpt lat="44.8682183" lon="11.4835617"><ele>7.0</ele><time>2026-05-01T07:52:15.752Z</time></trkpt><trkpt lat="44.86826" lon="11.4838633"><ele>7.0</ele><time>2026-05-01T07:52:16.744Z</time></trkpt><trkpt lat="44.8683" lon="11.4841683"><ele>7.0</ele><time>2026-05-01T07:52:17.748Z</time></trkpt><trkpt lat="44.868345" lon="11.4844717"><ele>7.0</ele><time>2026-05-01T07:52:18.75Z</time></trkpt><trkpt lat="44.8683917" lon="11.48477"><ele>7.0</ele><time>2026-05-01T07:52:19.745Z</time></trkpt><trkpt lat="44.868445" lon="11.4850533"><ele>7.0</ele><time>2026-05-01T07:52:20.753Z</time></trkpt><trkpt lat="44.86851" lon="11.4853133"><ele>7.0</ele><time>2026-05-01T07:52:21.755Z</time></trkpt><trkpt lat="44.8685983" lon="11.4855583"><ele>7.0</ele><time>2026-05-01T07:52:22.752Z</time></trkpt><trkpt lat="44.8687067" lon="11.4857867"><ele>7.0</ele><time>2026-05-01T07:52:23.748Z</time></trkpt><trkpt lat="44.8688317" lon="11.486005"><ele>7.0</ele><time>2026-05-01T07:52:24.756Z</time></trkpt><trkpt lat="44.8689567" lon="11.4862233"><ele>7.0</ele><time>2026-05-01T07:52:25.744Z</time></trkpt><trkpt lat="44.8690767" lon="11.4864567"><ele>7.0</ele><time>2026-05-01T07:52:26.752Z</time></trkpt><trkpt lat="44.8691783" lon="11.4867067"><ele>7.0</ele><time>2026-05-01T07:52:27.751Z</time></trkpt><trkpt lat="44.86926" lon="11.4869717"><ele>7.0</ele><time>2026-05-01T07:52:28.748Z</time></trkpt><trkpt lat="44.86932" lon="11.4872533"><ele>6.666666666666667</ele><time>2026-05-01T07:52:29.75Z</time></trkpt><trkpt lat="44.86937" lon="11.4875383"><ele>6.333333333333334</ele><time>2026-05-01T07:52:30.742Z</time></trkpt><trkpt lat="44.8694167" lon="11.487825"><ele>6.0</ele><time>2026-05-01T07:52:31.751Z</time></trkpt><trkpt lat="44.8694617" lon="11.4881183"><ele>6.0</ele><time>2026-05-01T07:52:32.751Z</time></trkpt><trkpt lat="44.8695183" lon="11.48841"><ele>6.0</ele><time>2026-05-01T07:52:33.752Z</time></trkpt><trkpt lat="44.8695883" lon="11.488695"><ele>6.0</ele><time>2026-05-01T07:52:34.749Z</time></trkpt><trkpt lat="44.8696717" lon="11.4889783"><ele>6.0</ele><time>2026-05-01T07:52:35.75Z</time></trkpt><trkpt lat="44.8697617" lon="11.4892567"><ele>6.0</ele><time>2026-05-01T07:52:36.751Z</time></trkpt><trkpt lat="44.86985" lon="11.489535"><ele>6.0</ele><time>2026-05-01T07:52:37.744Z</time></trkpt><trkpt lat="44.8699367" lon="11.48981"><ele>6.666666666666666</ele><time>2026-05-01T07:52:38.754Z</time></trkpt><trkpt lat="44.8700217" lon="11.4900817"><ele>7.333333333333333</ele><time>2026-05-01T07:52:39.75Z</time></trkpt><trkpt lat="44.8701033" lon="11.4903467"><ele>8.0</ele><time>2026-05-01T07:52:40.744Z</time></trkpt><trkpt lat="44.8701867" lon="11.49061"><ele>8.0</ele><time>2026-05-01T07:52:41.753Z</time></trkpt><trkpt lat="44.8702683" lon="11.4908683"><ele>8.0</ele><time>2026-05-01T07:52:42.743Z</time></trkpt><trkpt lat="44.8703517" lon="11.491125"><ele>8.0</ele><time>2026-05-01T07:52:43.759Z</time></trkpt><trkpt lat="44.8704317" lon="11.4913767"><ele>8.0</ele><time>2026-05-01T07:52:44.754Z</time></trkpt><trkpt lat="44.8705117" lon="11.4916267"><ele>8.0</ele><time>2026-05-01T07:52:45.75Z</time></trkpt><trkpt lat="44.8705883" lon="11.4918767"><ele>8.0</ele><time>2026-05-01T07:52:46.747Z</time></trkpt><trkpt lat="44.8706667" lon="11.4921233"><ele>8.333333333333332</ele><time>2026-05-01T07:52:47.75Z</time></trkpt><trkpt lat="44.870745" lon="11.4923683"><ele>8.666666666666666</ele><time>2026-05-01T07:52:48.75Z</time></trkpt><trkpt lat="44.8708233" lon="11.4926117"><ele>9.0</ele><time>2026-05-01T07:52:49.754Z</time></trkpt><trkpt lat="44.8709017" lon="11.49285"><ele>9.0</ele><time>2026-05-01T07:52:50.754Z</time></trkpt><trkpt lat="44.8709783" lon="11.4930883"><ele>9.0</ele><time>2026-05-01T07:52:51.749Z</time></trkpt><trkpt lat="44.87105" lon="11.4933233"><ele>9.0</ele><time>2026-05-01T07:52:52.75Z</time></trkpt><trkpt lat="44.87114" lon="11.4935567"><ele>9.0</ele><time>2026-05-01T07:52:53.751Z</time></trkpt><trkpt lat="44.87124" lon="11.4937783"><ele>9.0</ele><time>2026-05-01T07:52:54.752Z</time></trkpt><trkpt lat="44.8713483" lon="11.4940017"><ele>9.0</ele><time>2026-05-01T07:52:55.749Z</time></trkpt><trkpt lat="44.87146" lon="11.4942233"><ele>9.0</ele><time>2026-05-01T07:52:56.752Z</time></trkpt><trkpt lat="44.8715717" lon="11.4944483"><ele>9.0</ele><time>2026-05-01T07:52:57.744Z</time></trkpt><trkpt lat="44.87168" lon="11.4946783"><ele>9.0</ele><time>2026-05-01T07:52:58.789Z</time></trkpt><trkpt lat="44.8717867" lon="11.4949083"><ele>8.666666666666666</ele><time>2026-05-01T07:52:59.75Z</time></trkpt><trkpt lat="44.8718883" lon="11.4951417"><ele>8.333333333333332</ele><time>2026-05-01T07:53:00.752Z</time></trkpt><trkpt lat="44.8719833" lon="11.495375"><ele>8.0</ele><time>2026-05-01T07:53:01.756Z</time></trkpt><trkpt lat="44.872075" lon="11.4956083"><ele>8.0</ele><time>2026-05-01T07:53:02.745Z</time></trkpt><trkpt lat="44.872155" lon="11.4958317"><ele>8.0</ele><time>2026-05-01T07:53:03.744Z</time></trkpt><trkpt lat="44.872235" lon="11.4960567"><ele>8.0</ele><time>2026-05-01T07:53:04.751Z</time></trkpt><trkpt lat="44.872305" lon="11.4962867"><ele>8.333333333333332</ele><time>2026-05-01T07:53:05.751Z</time></trkpt><trkpt lat="44.872365" lon="11.4965267"><ele>8.666666666666666</ele><time>2026-05-01T07:53:06.748Z</time></trkpt><trkpt lat="44.872405" lon="11.49677"><ele>9.0</ele><time>2026-05-01T07:53:07.748Z</time></trkpt><trkpt lat="44.8724267" lon="11.4970167"><ele>9.0</ele><time>2026-05-01T07:53:08.743Z</time></trkpt><trkpt lat="44.8724383" lon="11.4972633"><ele>9.0</ele><time>2026-05-01T07:53:09.742Z</time></trkpt><trkpt lat="44.8724417" lon="11.49751"><ele>9.0</ele><time>2026-05-01T07:53:10.748Z</time></trkpt><trkpt lat="44.8724383" lon="11.49776"><ele>9.0</ele><time>2026-05-01T07:53:11.748Z</time></trkpt><trkpt lat="44.8724317" lon="11.4980083"><ele>9.0</ele><time>2026-05-01T07:53:12.751Z</time></trkpt><trkpt lat="44.8724283" lon="11.4982483"><ele>9.0</ele><time>2026-05-01T07:53:13.752Z</time></trkpt><trkpt lat="44.8724333" lon="11.4984867"><ele>9.0</ele><time>2026-05-01T07:53:14.751Z</time></trkpt><trkpt lat="44.87245" lon="11.498725"><ele>9.0</ele><time>2026-05-01T07:53:15.748Z</time></trkpt><trkpt lat="44.8724767" lon="11.4989617"><ele>9.0</ele><time>2026-05-01T07:53:16.749Z</time></trkpt><trkpt lat="44.8725067" lon="11.499195"><ele>9.333333333333334</ele><time>2026-05-01T07:53:17.751Z</time></trkpt><trkpt lat="44.872535" lon="11.49943"><ele>9.666666666666668</ele><time>2026-05-01T07:53:18.745Z</time></trkpt><trkpt lat="44.8725617" lon="11.4996683"><ele>10.0</ele><time>2026-05-01T07:53:19.749Z</time></trkpt><trkpt lat="44.8725833" lon="11.499915"><ele>10.0</ele><time>2026-05-01T07:53:20.743Z</time></trkpt><trkpt lat="44.8725983" lon="11.500165"><ele>10.0</ele><time>2026-05-01T07:53:21.742Z</time></trkpt><trkpt lat="44.8726" lon="11.5004167"><ele>10.0</ele><time>2026-05-01T07:53:22.746Z</time></trkpt><trkpt lat="44.8725867" lon="11.5006683"><ele>9.666666666666668</ele><time>2026-05-01T07:53:23.752Z</time></trkpt><trkpt lat="44.872565" lon="11.5009133"><ele>9.333333333333334</ele><time>2026-05-01T07:53:24.748Z</time></trkpt><trkpt lat="44.8725317" lon="11.5011417"><ele>9.0</ele><time>2026-05-01T07:53:25.749Z</time></trkpt><trkpt lat="44.8724967" lon="11.5013417"><ele>8.75</ele><time>2026-05-01T07:53:26.752Z</time></trkpt><trkpt lat="44.8724633" lon="11.5015167"><ele>8.5</ele><time>2026-05-01T07:53:27.742Z</time></trkpt><trkpt lat="44.8724317" lon="11.5016717"><ele>8.25</ele><time>2026-05-01T07:53:28.75Z</time></trkpt><trkpt lat="44.8724017" lon="11.501815"><ele>8.0</ele><time>2026-05-01T07:53:29.752Z</time></trkpt><trkpt lat="44.8723683" lon="11.50195"><ele>8.0</ele><time>2026-05-01T07:53:30.752Z</time></trkpt><trkpt lat="44.8723283" lon="11.5020817"><ele>8.0</ele><time>2026-05-01T07:53:31.749Z</time></trkpt><trkpt lat="44.8722867" lon="11.502195"><ele>8.0</ele><time>2026-05-01T07:53:32.747Z</time></trkpt><trkpt lat="44.87224" lon="11.5023033"><ele>8.0</ele><time>2026-05-01T07:53:33.748Z</time></trkpt><trkpt lat="44.8721867" lon="11.5024167"><ele>8.0</ele><time>2026-05-01T07:53:34.749Z</time></trkpt><trkpt lat="44.872135" lon="11.502525"><ele>8.0</ele><time>2026-05-01T07:53:35.752Z</time></trkpt><trkpt lat="44.8720983" lon="11.502655"><ele>8.0</ele><time>2026-05-01T07:53:36.743Z</time></trkpt><trkpt lat="44.8720783" lon="11.5028117"><ele>8.0</ele><time>2026-05-01T07:53:37.748Z</time></trkpt><trkpt lat="44.872065" lon="11.5029983"><ele>8.0</ele><time>2026-05-01T07:53:38.75Z</time></trkpt><trkpt lat="44.8720483" lon="11.5032017"><ele>7.333333333333333</ele><time>2026-05-01T07:53:39.741Z</time></trkpt><trkpt lat="44.8720117" lon="11.50341"><ele>6.666666666666666</ele><time>2026-05-01T07:53:40.752Z</time></trkpt><trkpt lat="44.8719483" lon="11.503615"><ele>6.0</ele><time>2026-05-01T07:53:41.753Z</time></trkpt><trkpt lat="44.8718733" lon="11.50382"><ele>5.666666666666667</ele><time>2026-05-01T07:53:42.752Z</time></trkpt><trkpt lat="44.87179" lon="11.5040333"><ele>5.333333333333334</ele><time>2026-05-01T07:53:43.752Z</time></trkpt><trkpt lat="44.871705" lon="11.5042533"><ele>5.0</ele><time>2026-05-01T07:53:44.75Z</time></trkpt><trkpt lat="44.8716117" lon="11.5044667"><ele>6.333333333333334</ele><time>2026-05-01T07:53:45.753Z</time></trkpt><trkpt lat="44.8715133" lon="11.5046767"><ele>7.666666666666667</ele><time>2026-05-01T07:53:46.743Z</time></trkpt><trkpt lat="44.8714067" lon="11.5048717"><ele>9.0</ele><time>2026-05-01T07:53:47.751Z</time></trkpt><trkpt lat="44.8713067" lon="11.5050517"><ele>9.0</ele><time>2026-05-01T07:53:48.741Z</time></trkpt><trkpt lat="44.8712133" lon="11.5052267"><ele>9.0</ele><time>2026-05-01T07:53:49.743Z</time></trkpt><trkpt lat="44.87112" lon="11.505385"><ele>9.0</ele><time>2026-05-01T07:53:50.747Z</time></trkpt><trkpt lat="44.8710283" lon="11.5055417"><ele>9.0</ele><time>2026-05-01T07:53:51.748Z</time></trkpt><trkpt lat="44.8709367" lon="11.5056967"><ele>9.25</ele><time>2026-05-01T07:53:52.749Z</time></trkpt><trkpt lat="44.870845" lon="11.5058383"><ele>9.5</ele><time>2026-05-01T07:53:53.752Z</time></trkpt><trkpt lat="44.8707567" lon="11.50597"><ele>9.75</ele><time>2026-05-01T07:53:54.746Z</time></trkpt><trkpt lat="44.870665" lon="11.5061"><ele>10.0</ele><time>2026-05-01T07:53:55.751Z</time></trkpt><trkpt lat="44.8705717" lon="11.5062317"><ele>9.75</ele><time>2026-05-01T07:53:56.756Z</time></trkpt><trkpt lat="44.8704717" lon="11.50635"><ele>9.5</ele><time>2026-05-01T07:53:57.751Z</time></trkpt><trkpt lat="44.8703667" lon="11.5064583"><ele>9.25</ele><time>2026-05-01T07:53:58.751Z</time></trkpt><trkpt lat="44.8702583" lon="11.5065517"><ele>9.0</ele><time>2026-05-01T07:53:59.75Z</time></trkpt><trkpt lat="44.8701517" lon="11.5066367"><ele>9.25</ele><time>2026-05-01T07:54:00.751Z</time></trkpt><trkpt lat="44.8700467" lon="11.5067183"><ele>9.5</ele><time>2026-05-01T07:54:01.742Z</time></trkpt><trkpt lat="44.8699417" lon="11.5067933"><ele>9.75</ele><time>2026-05-01T07:54:02.749Z</time></trkpt><trkpt lat="44.8698267" lon="11.5068633"><ele>10.0</ele><time>2026-05-01T07:54:03.741Z</time></trkpt><trkpt lat="44.869715" lon="11.506925"><ele>10.0</ele><time>2026-05-01T07:54:04.751Z</time></trkpt><trkpt lat="44.8696067" lon="11.506985"><ele>10.0</ele><time>2026-05-01T07:54:05.75Z</time></trkpt><trkpt lat="44.869505" lon="11.507045"><ele>10.0</ele><time>2026-05-01T07:54:06.752Z</time></trkpt><trkpt lat="44.869405" lon="11.5071067"><ele>10.0</ele><time>2026-05-01T07:54:07.75Z</time></trkpt><trkpt lat="44.8693017" lon="11.5071667"><ele>10.0</ele><time>2026-05-01T07:54:08.753Z</time></trkpt><trkpt lat="44.8691967" lon="11.5072267"><ele>10.25</ele><time>2026-05-01T07:54:09.75Z</time></trkpt><trkpt lat="44.8690917" lon="11.5072917"><ele>10.5</ele><time>2026-05-01T07:54:10.75Z</time></trkpt><trkpt lat="44.8689833" lon="11.5073583"><ele>10.75</ele><time>2026-05-01T07:54:11.751Z</time></trkpt><trkpt lat="44.86887" lon="11.5074267"><ele>11.0</ele><time>2026-05-01T07:54:12.749Z</time></trkpt><trkpt lat="44.868755" lon="11.5074983"><ele>11.0</ele><time>2026-05-01T07:54:13.751Z</time></trkpt><trkpt lat="44.868635" lon="11.5075717"><ele>11.0</ele><time>2026-05-01T07:54:14.754Z</time></trkpt><trkpt lat="44.86852" lon="11.5076483"><ele>11.0</ele><time>2026-05-01T07:54:15.743Z</time></trkpt><trkpt lat="44.8684017" lon="11.5077283"><ele>11.0</ele><time>2026-05-01T07:54:16.755Z</time></trkpt><trkpt lat="44.8682783" lon="11.5078083"><ele>11.0</ele><time>2026-05-01T07:54:17.749Z</time></trkpt><trkpt lat="44.86815" lon="11.5078883"><ele>11.0</ele><time>2026-05-01T07:54:18.753Z</time></trkpt><trkpt lat="44.868025" lon="11.5079683"><ele>11.0</ele><time>2026-05-01T07:54:19.744Z</time></trkpt><trkpt lat="44.8678983" lon="11.5080533"><ele>11.0</ele><time>2026-05-01T07:54:20.751Z</time></trkpt><trkpt lat="44.8677717" lon="11.5081433"><ele>11.0</ele><time>2026-05-01T07:54:21.748Z</time></trkpt><trkpt lat="44.867645" lon="11.5082283"><ele>11.0</ele><time>2026-05-01T07:54:22.749Z</time></trkpt><trkpt lat="44.86752" lon="11.50831"><ele>11.0</ele><time>2026-05-01T07:54:23.749Z</time></trkpt><trkpt lat="44.8673967" lon="11.50839"><ele>11.0</ele><time>2026-05-01T07:54:24.75Z</time></trkpt><trkpt lat="44.867275" lon="11.508465"><ele>11.0</ele><time>2026-05-01T07:54:25.749Z</time></trkpt><trkpt lat="44.8671517" lon="11.5085417"><ele>11.0</ele><time>2026-05-01T07:54:26.755Z</time></trkpt><trkpt lat="44.8670333" lon="11.5086217"><ele>11.0</ele><time>2026-05-01T07:54:27.752Z</time></trkpt><trkpt lat="44.8669183" lon="11.5087"><ele>11.0</ele><time>2026-05-01T07:54:28.75Z</time></trkpt><trkpt lat="44.866805" lon="11.5087733"><ele>11.0</ele><time>2026-05-01T07:54:29.752Z</time></trkpt><trkpt lat="44.8666917" lon="11.508845"><ele>11.0</ele><time>2026-05-01T07:54:30.752Z</time></trkpt><trkpt lat="44.866585" lon="11.5089167"><ele>11.0</ele><time>2026-05-01T07:54:31.744Z</time></trkpt><trkpt lat="44.86648" lon="11.50899"><ele>11.0</ele><time>2026-05-01T07:54:32.75Z</time></trkpt><trkpt lat="44.8663733" lon="11.5090567"><ele>11.0</ele><time>2026-05-01T07:54:33.751Z</time></trkpt><trkpt lat="44.866265" lon="11.5091283"><ele>11.0</ele><time>2026-05-01T07:54:34.751Z</time></trkpt><trkpt lat="44.86616" lon="11.5092"><ele>11.0</ele><time>2026-05-01T07:54:35.749Z</time></trkpt><trkpt lat="44.8660567" lon="11.5092717"><ele>11.0</ele><time>2026-05-01T07:54:36.743Z</time></trkpt><trkpt lat="44.8659583" lon="11.5093367"><ele>11.0</ele><time>2026-05-01T07:54:37.76Z</time></trkpt><trkpt lat="44.86587" lon="11.5093933"><ele>11.0</ele><time>2026-05-01T07:54:38.746Z</time></trkpt><trkpt lat="44.8657983" lon="11.50944"><ele>11.0</ele><time>2026-05-01T07:54:39.753Z</time></trkpt><trkpt lat="44.8657017" lon="11.50951"><ele>11.0</ele><time>2026-05-01T07:54:41.749Z</time></trkpt><trkpt lat="44.8656506" lon="11.5095899"><ele>11.0</ele><time>2026-05-01T07:54:44.801Z</time></trkpt><trkpt lat="44.8655476" lon="11.5096275"><ele>11.0</ele><time>2026-05-01T07:54:45.747Z</time></trkpt><trkpt lat="44.8654829" lon="11.5096656"><ele>11.0</ele><time>2026-05-01T07:54:46.752Z</time></trkpt><trkpt lat="44.8654222" lon="11.5097027"><ele>11.0</ele><time>2026-05-01T07:54:47.749Z</time></trkpt><trkpt lat="44.8653613" lon="11.5097393"><ele>11.0</ele><time>2026-05-01T07:54:48.752Z</time></trkpt><trkpt lat="44.8653013" lon="11.5097781"><ele>11.0</ele><time>2026-05-01T07:54:49.748Z</time></trkpt><trkpt lat="44.8652361" lon="11.5098218"><ele>11.0</ele><time>2026-05-01T07:54:50.751Z</time></trkpt><trkpt lat="44.8651666" lon="11.5098663"><ele>11.0</ele><time>2026-05-01T07:54:51.75Z</time></trkpt><trkpt lat="44.8650918" lon="11.5099153"><ele>11.333333333333332</ele><time>2026-05-01T07:54:52.742Z</time></trkpt><trkpt lat="44.8650136" lon="11.5099671"><ele>11.666666666666666</ele><time>2026-05-01T07:54:53.744Z</time></trkpt><trkpt lat="44.8649346" lon="11.5100197"><ele>12.0</ele><time>2026-05-01T07:54:54.755Z</time></trkpt><trkpt lat="44.8648547" lon="11.5100731"><ele>12.333333333333332</ele><time>2026-05-01T07:54:55.751Z</time></trkpt><trkpt lat="44.8647724" lon="11.5101272"><ele>12.666666666666666</ele><time>2026-05-01T07:54:56.749Z</time></trkpt><trkpt lat="44.8646882" lon="11.5101825"><ele>13.0</ele><time>2026-05-01T07:54:57.748Z</time></trkpt><trkpt lat="44.8646018" lon="11.5102342"><ele>13.0</ele><time>2026-05-01T07:54:58.744Z</time></trkpt><trkpt lat="44.8645133" lon="11.5102879"><ele>13.0</ele><time>2026-05-01T07:54:59.748Z</time></trkpt><trkpt lat="44.8644235" lon="11.510344"><ele>13.0</ele><time>2026-05-01T07:55:00.747Z</time></trkpt><trkpt lat="44.8643332" lon="11.5104013"><ele>13.0</ele><time>2026-05-01T07:55:01.751Z</time></trkpt><trkpt lat="44.8642442" lon="11.5104583"><ele>13.0</ele><time>2026-05-01T07:55:02.749Z</time></trkpt><trkpt lat="44.8641545" lon="11.5105164"><ele>12.666666666666666</ele><time>2026-05-01T07:55:03.755Z</time></trkpt><trkpt lat="44.8640673" lon="11.5105701"><ele>12.333333333333332</ele><time>2026-05-01T07:55:04.752Z</time></trkpt><trkpt lat="44.8639809" lon="11.5106186"><ele>12.0</ele><time>2026-05-01T07:55:05.754Z</time></trkpt><trkpt lat="44.8638963" lon="11.5106671"><ele>11.666666666666666</ele><time>2026-05-01T07:55:06.749Z</time></trkpt><trkpt lat="44.8638174" lon="11.5107156"><ele>11.333333333333332</ele><time>2026-05-01T07:55:07.744Z</time></trkpt><trkpt lat="44.863742" lon="11.5107622"><ele>11.0</ele><time>2026-05-01T07:55:08.751Z</time></trkpt><trkpt lat="44.8636715" lon="11.5108055"><ele>11.0</ele><time>2026-05-01T07:55:09.744Z</time></trkpt><trkpt lat="44.8636047" lon="11.5108457"><ele>11.0</ele><time>2026-05-01T07:55:10.748Z</time></trkpt><trkpt lat="44.8635414" lon="11.5108862"><ele>11.0</ele><time>2026-05-01T07:55:11.749Z</time></trkpt><trkpt lat="44.8634804" lon="11.5109249"><ele>11.0</ele><time>2026-05-01T07:55:12.747Z</time></trkpt><trkpt lat="44.8634186" lon="11.5109671"><ele>11.0</ele><time>2026-05-01T07:55:13.749Z</time></trkpt><trkpt lat="44.8633534" lon="11.5110158"><ele>11.0</ele><time>2026-05-01T07:55:14.751Z</time></trkpt><trkpt lat="44.8632822" lon="11.511065"><ele>11.0</ele><time>2026-05-01T07:55:15.75Z</time></trkpt><trkpt lat="44.8632012" lon="11.511113"><ele>11.0</ele><time>2026-05-01T07:55:16.75Z</time></trkpt><trkpt lat="44.8631128" lon="11.51116"><ele>11.0</ele><time>2026-05-01T07:55:17.747Z</time></trkpt><trkpt lat="44.8630198" lon="11.5112051"><ele>11.0</ele><time>2026-05-01T07:55:18.752Z</time></trkpt><trkpt lat="44.8629244" lon="11.5112502"><ele>11.0</ele><time>2026-05-01T07:55:19.747Z</time></trkpt><trkpt lat="44.8628277" lon="11.5112948"><ele>11.0</ele><time>2026-05-01T07:55:20.754Z</time></trkpt><trkpt lat="44.8627272" lon="11.5113371"><ele>11.0</ele><time>2026-05-01T07:55:21.749Z</time></trkpt><trkpt lat="44.862624" lon="11.5113803"><ele>11.0</ele><time>2026-05-01T07:55:22.748Z</time></trkpt><trkpt lat="44.8625237" lon="11.5114246"><ele>11.0</ele><time>2026-05-01T07:55:23.742Z</time></trkpt><trkpt lat="44.8624232" lon="11.5114674"><ele>11.0</ele><time>2026-05-01T07:55:24.749Z</time></trkpt><trkpt lat="44.8623261" lon="11.5115103"><ele>11.0</ele><time>2026-05-01T07:55:25.743Z</time></trkpt><trkpt lat="44.8622315" lon="11.5115505"><ele>11.166666666666666</ele><time>2026-05-01T07:55:26.75Z</time></trkpt><trkpt lat="44.8621465" lon="11.511586"><ele>11.333333333333332</ele><time>2026-05-01T07:55:27.759Z</time></trkpt><trkpt lat="44.8620673" lon="11.5116204"><ele>11.5</ele><time>2026-05-01T07:55:28.754Z</time></trkpt><trkpt lat="44.861988" lon="11.5116546"><ele>11.666666666666666</ele><time>2026-05-01T07:55:29.742Z</time></trkpt><trkpt lat="44.8619042" lon="11.5116903"><ele>11.833333333333334</ele><time>2026-05-01T07:55:30.742Z</time></trkpt><trkpt lat="44.8618136" lon="11.5117319"><ele>12.0</ele><time>2026-05-01T07:55:31.753Z</time></trkpt><trkpt lat="44.861718" lon="11.5117801"><ele>12.0</ele><time>2026-05-01T07:55:32.751Z</time></trkpt><trkpt lat="44.8616139" lon="11.5118376"><ele>12.0</ele><time>2026-05-01T07:55:33.751Z</time></trkpt><trkpt lat="44.8614993" lon="11.5119043"><ele>12.0</ele><time>2026-05-01T07:55:34.747Z</time></trkpt><trkpt lat="44.8613725" lon="11.5119738"><ele>12.0</ele><time>2026-05-01T07:55:35.747Z</time></trkpt><trkpt lat="44.8612349" lon="11.5120456"><ele>11.333333333333334</ele><time>2026-05-01T07:55:36.749Z</time></trkpt><trkpt lat="44.8610925" lon="11.5121178"><ele>10.666666666666668</ele><time>2026-05-01T07:55:37.749Z</time></trkpt><trkpt lat="44.8609485" lon="11.5121994"><ele>10.0</ele><time>2026-05-01T07:55:38.751Z</time></trkpt><trkpt lat="44.8608071" lon="11.512288"><ele>9.666666666666668</ele><time>2026-05-01T07:55:39.75Z</time></trkpt><trkpt lat="44.86066" lon="11.5123833"><ele>9.333333333333334</ele><time>2026-05-01T07:55:40.75Z</time></trkpt><trkpt lat="44.86052" lon="11.5124817"><ele>9.0</ele><time>2026-05-01T07:55:41.749Z</time></trkpt><trkpt lat="44.860385" lon="11.5125867"><ele>9.0</ele><time>2026-05-01T07:55:42.742Z</time></trkpt><trkpt lat="44.860255" lon="11.51271"><ele>9.0</ele><time>2026-05-01T07:55:43.747Z</time></trkpt><trkpt lat="44.8601267" lon="11.51285"><ele>9.0</ele><time>2026-05-01T07:55:44.749Z</time></trkpt><trkpt lat="44.8600017" lon="11.5129983"><ele>9.333333333333334</ele><time>2026-05-01T07:55:45.747Z</time></trkpt><trkpt lat="44.8598783" lon="11.51315"><ele>9.666666666666668</ele><time>2026-05-01T07:55:46.748Z</time></trkpt><trkpt lat="44.85976" lon="11.5133033"><ele>10.0</ele><time>2026-05-01T07:55:47.753Z</time></trkpt><trkpt lat="44.8596483" lon="11.5134583"><ele>10.0</ele><time>2026-05-01T07:55:48.749Z</time></trkpt><trkpt lat="44.8595383" lon="11.5136233"><ele>10.0</ele><time>2026-05-01T07:55:49.749Z</time></trkpt><trkpt lat="44.8594333" lon="11.5137967"><ele>10.0</ele><time>2026-05-01T07:55:50.743Z</time></trkpt><trkpt lat="44.8593333" lon="11.5139683"><ele>9.5</ele><time>2026-05-01T07:55:51.751Z</time></trkpt><trkpt lat="44.859235" lon="11.51414"><ele>9.0</ele><time>2026-05-01T07:55:52.747Z</time></trkpt><trkpt lat="44.8591417" lon="11.5143017"><ele>8.5</ele><time>2026-05-01T07:55:53.752Z</time></trkpt><trkpt lat="44.8590533" lon="11.514445"><ele>8.0</ele><time>2026-05-01T07:55:54.751Z</time></trkpt><trkpt lat="44.8589617" lon="11.5145567"><ele>8.200000000000001</ele><time>2026-05-01T07:55:55.742Z</time></trkpt><trkpt lat="44.8588633" lon="11.5146367"><ele>8.4</ele><time>2026-05-01T07:55:56.754Z</time></trkpt><trkpt lat="44.858775" lon="11.5147183"><ele>8.600000000000001</ele><time>2026-05-01T07:55:57.747Z</time></trkpt><trkpt lat="44.8587017" lon="11.5148083"><ele>8.8</ele><time>2026-05-01T07:55:58.746Z</time></trkpt><trkpt lat="44.858655" lon="11.5149067"><ele>9.0</ele><time>2026-05-01T07:55:59.747Z</time></trkpt><trkpt lat="44.8586317" lon="11.5150367"><ele>9.0</ele><time>2026-05-01T07:56:00.742Z</time></trkpt><trkpt lat="44.8586283" lon="11.5152067"><ele>9.0</ele><time>2026-05-01T07:56:01.755Z</time></trkpt><trkpt lat="44.858615" lon="11.5153833"><ele>9.0</ele><time>2026-05-01T07:56:02.756Z</time></trkpt><trkpt lat="44.8585933" lon="11.5155633"><ele>9.0</ele><time>2026-05-01T07:56:03.75Z</time></trkpt><trkpt lat="44.8585683" lon="11.5157383"><ele>8.75</ele><time>2026-05-01T07:56:04.751Z</time></trkpt><trkpt lat="44.8585417" lon="11.51591"><ele>8.5</ele><time>2026-05-01T07:56:05.75Z</time></trkpt><trkpt lat="44.8585117" lon="11.5160767"><ele>8.25</ele><time>2026-05-01T07:56:06.751Z</time></trkpt><trkpt lat="44.8584817" lon="11.5162483"><ele>8.0</ele><time>2026-05-01T07:56:07.749Z</time></trkpt><trkpt lat="44.8584467" lon="11.5164167"><ele>8.25</ele><time>2026-05-01T07:56:08.752Z</time></trkpt><trkpt lat="44.8584067" lon="11.5165883"><ele>8.5</ele><time>2026-05-01T07:56:09.751Z</time></trkpt><trkpt lat="44.858365" lon="11.5167633"><ele>8.75</ele><time>2026-05-01T07:56:10.749Z</time></trkpt><trkpt lat="44.8583217" lon="11.5169433"><ele>9.0</ele><time>2026-05-01T07:56:11.751Z</time></trkpt><trkpt lat="44.8582783" lon="11.5171233"><ele>9.0</ele><time>2026-05-01T07:56:12.75Z</time></trkpt><trkpt lat="44.858235" lon="11.5173117"><ele>9.0</ele><time>2026-05-01T07:56:13.749Z</time></trkpt><trkpt lat="44.8582017" lon="11.51751"><ele>9.0</ele><time>2026-05-01T07:56:14.751Z</time></trkpt><trkpt lat="44.858175" lon="11.5177183"><ele>9.0</ele><time>2026-05-01T07:56:15.751Z</time></trkpt><trkpt lat="44.8581533" lon="11.5179283"><ele>9.0</ele><time>2026-05-01T07:56:16.746Z</time></trkpt><trkpt lat="44.8581317" lon="11.51814"><ele>9.0</ele><time>2026-05-01T07:56:17.75Z</time></trkpt><trkpt lat="44.8581117" lon="11.518355"><ele>9.0</ele><time>2026-05-01T07:56:18.749Z</time></trkpt><trkpt lat="44.8580933" lon="11.51858"><ele>9.0</ele><time>2026-05-01T07:56:19.748Z</time></trkpt><trkpt lat="44.858075" lon="11.5188083"><ele>9.0</ele><time>2026-05-01T07:56:20.752Z</time></trkpt><trkpt lat="44.8580567" lon="11.5190383"><ele>9.0</ele><time>2026-05-01T07:56:21.752Z</time></trkpt><trkpt lat="44.8580383" lon="11.5192733"><ele>9.0</ele><time>2026-05-01T07:56:22.747Z</time></trkpt><trkpt lat="44.85802" lon="11.5195067"><ele>9.0</ele><time>2026-05-01T07:56:23.744Z</time></trkpt><trkpt lat="44.8580033" lon="11.519745"><ele>9.0</ele><time>2026-05-01T07:56:24.749Z</time></trkpt><trkpt lat="44.8579883" lon="11.5199867"><ele>9.0</ele><time>2026-05-01T07:56:25.747Z</time></trkpt><trkpt lat="44.8579717" lon="11.520235"><ele>9.0</ele><time>2026-05-01T07:56:26.752Z</time></trkpt><trkpt lat="44.8579583" lon="11.5204867"><ele>9.0</ele><time>2026-05-01T07:56:27.749Z</time></trkpt><trkpt lat="44.8579467" lon="11.5207367"><ele>8.666666666666666</ele><time>2026-05-01T07:56:28.75Z</time></trkpt><trkpt lat="44.8579417" lon="11.5209867"><ele>8.333333333333332</ele><time>2026-05-01T07:56:29.751Z</time></trkpt><trkpt lat="44.8579383" lon="11.5212317"><ele>8.0</ele><time>2026-05-01T07:56:30.752Z</time></trkpt><trkpt lat="44.8579383" lon="11.52147"><ele>8.0</ele><time>2026-05-01T07:56:31.742Z</time></trkpt><trkpt lat="44.857935" lon="11.5216983"><ele>8.0</ele><time>2026-05-01T07:56:32.742Z</time></trkpt><trkpt lat="44.8579283" lon="11.5219217"><ele>8.0</ele><time>2026-05-01T07:56:33.749Z</time></trkpt><trkpt lat="44.857905" lon="11.52214"><ele>8.0</ele><time>2026-05-01T07:56:34.742Z</time></trkpt><trkpt lat="44.85786" lon="11.5223533"><ele>8.0</ele><time>2026-05-01T07:56:35.742Z</time></trkpt><trkpt lat="44.85779" lon="11.5225533"><ele>8.0</ele><time>2026-05-01T07:56:36.756Z</time></trkpt><trkpt lat="44.8576983" lon="11.5227417"><ele>8.333333333333332</ele><time>2026-05-01T07:56:37.754Z</time></trkpt><trkpt lat="44.85759" lon="11.5229217"><ele>8.666666666666666</ele><time>2026-05-01T07:56:38.752Z</time></trkpt><trkpt lat="44.8574783" lon="11.5231"><ele>9.0</ele><time>2026-05-01T07:56:39.741Z</time></trkpt><trkpt lat="44.8573617" lon="11.5232767"><ele>9.0</ele><time>2026-05-01T07:56:40.742Z</time></trkpt><trkpt lat="44.8572417" lon="11.5234517"><ele>9.0</ele><time>2026-05-01T07:56:41.741Z</time></trkpt><trkpt lat="44.85712" lon="11.5236217"><ele>9.0</ele><time>2026-05-01T07:56:42.743Z</time></trkpt><trkpt lat="44.8570017" lon="11.5237867"><ele>8.666666666666666</ele><time>2026-05-01T07:56:43.744Z</time></trkpt><trkpt lat="44.8568833" lon="11.5239533"><ele>8.333333333333332</ele><time>2026-05-01T07:56:44.744Z</time></trkpt><trkpt lat="44.8567717" lon="11.52413"><ele>8.0</ele><time>2026-05-01T07:56:45.743Z</time></trkpt><trkpt lat="44.856675" lon="11.52432"><ele>8.0</ele><time>2026-05-01T07:56:46.741Z</time></trkpt><trkpt lat="44.856595" lon="11.52453"><ele>8.0</ele><time>2026-05-01T07:56:47.742Z</time></trkpt><trkpt lat="44.856535" lon="11.5247583"><ele>8.0</ele><time>2026-05-01T07:56:48.742Z</time></trkpt><trkpt lat="44.8564983" lon="11.5249983"><ele>8.333333333333332</ele><time>2026-05-01T07:56:49.742Z</time></trkpt><trkpt lat="44.8564817" lon="11.5252483"><ele>8.666666666666666</ele><time>2026-05-01T07:56:50.742Z</time></trkpt><trkpt lat="44.85649" lon="11.5255"><ele>9.0</ele><time>2026-05-01T07:56:51.743Z</time></trkpt><trkpt lat="44.8565267" lon="11.5257483"><ele>9.0</ele><time>2026-05-01T07:56:52.743Z</time></trkpt><trkpt lat="44.8565833" lon="11.52599"><ele>9.0</ele><time>2026-05-01T07:56:53.743Z</time></trkpt><trkpt lat="44.8566483" lon="11.5262317"><ele>9.0</ele><time>2026-05-01T07:56:54.744Z</time></trkpt><trkpt lat="44.8567033" lon="11.5264783"><ele>9.0</ele><time>2026-05-01T07:56:55.742Z</time></trkpt><trkpt lat="44.8567517" lon="11.5267367"><ele>9.0</ele><time>2026-05-01T07:56:56.752Z</time></trkpt><trkpt lat="44.85679" lon="11.5269983"><ele>9.0</ele><time>2026-05-01T07:56:57.743Z</time></trkpt><trkpt lat="44.8568167" lon="11.5272583"><ele>8.0</ele><time>2026-05-01T07:56:58.742Z</time></trkpt><trkpt lat="44.8568383" lon="11.5275033"><ele>7.0</ele><time>2026-05-01T07:56:59.741Z</time></trkpt><trkpt lat="44.8568533" lon="11.5277383"><ele>6.0</ele><time>2026-05-01T07:57:00.742Z</time></trkpt><trkpt lat="44.85686" lon="11.5279533"><ele>5.75</ele><time>2026-05-01T07:57:01.748Z</time></trkpt><trkpt lat="44.8568717" lon="11.5281583"><ele>5.5</ele><time>2026-05-01T07:57:02.753Z</time></trkpt><trkpt lat="44.8568817" lon="11.528365"><ele>5.25</ele><time>2026-05-01T07:57:03.749Z</time></trkpt><trkpt lat="44.8568883" lon="11.5285717"><ele>5.0</ele><time>2026-05-01T07:57:04.756Z</time></trkpt><trkpt lat="44.8568933" lon="11.5287783"><ele>5.0</ele><time>2026-05-01T07:57:05.754Z</time></trkpt><trkpt lat="44.8568967" lon="11.5289817"><ele>5.0</ele><time>2026-05-01T07:57:06.749Z</time></trkpt><trkpt lat="44.8569017" lon="11.5291817"><ele>5.0</ele><time>2026-05-01T07:57:07.748Z</time></trkpt><trkpt lat="44.8569083" lon="11.5293817"><ele>5.0</ele><time>2026-05-01T07:57:08.751Z</time></trkpt><trkpt lat="44.856915" lon="11.529575"><ele>5.5</ele><time>2026-05-01T07:57:09.746Z</time></trkpt><trkpt lat="44.8569217" lon="11.529765"><ele>6.0</ele><time>2026-05-01T07:57:10.754Z</time></trkpt><trkpt lat="44.85693" lon="11.5299517"><ele>6.5</ele><time>2026-05-01T07:57:11.751Z</time></trkpt><trkpt lat="44.8569367" lon="11.530135"><ele>7.0</ele><time>2026-05-01T07:57:12.743Z</time></trkpt><trkpt lat="44.8569417" lon="11.5303133"><ele>6.75</ele><time>2026-05-01T07:57:13.749Z</time></trkpt><trkpt lat="44.8569517" lon="11.53049"><ele>6.5</ele><time>2026-05-01T07:57:14.748Z</time></trkpt><trkpt lat="44.856955" lon="11.53067"><ele>6.25</ele><time>2026-05-01T07:57:15.749Z</time></trkpt><trkpt lat="44.8569617" lon="11.53086"><ele>6.0</ele><time>2026-05-01T07:57:16.75Z</time></trkpt><trkpt lat="44.8569667" lon="11.5310567"><ele>6.0</ele><time>2026-05-01T07:57:17.743Z</time></trkpt><trkpt lat="44.8569667" lon="11.5312433"><ele>6.0</ele><time>2026-05-01T07:57:18.754Z</time></trkpt><trkpt lat="44.8569633" lon="11.5314267"><ele>6.0</ele><time>2026-05-01T07:57:19.752Z</time></trkpt><trkpt lat="44.85696" lon="11.531615"><ele>6.0</ele><time>2026-05-01T07:57:20.749Z</time></trkpt><trkpt lat="44.8569533" lon="11.5318083"><ele>6.0</ele><time>2026-05-01T07:57:21.749Z</time></trkpt><trkpt lat="44.8569433" lon="11.5320033"><ele>6.0</ele><time>2026-05-01T07:57:22.75Z</time></trkpt><trkpt lat="44.8569333" lon="11.5321967"><ele>6.0</ele><time>2026-05-01T07:57:23.749Z</time></trkpt><trkpt lat="44.85692" lon="11.532385"><ele>6.0</ele><time>2026-05-01T07:57:24.75Z</time></trkpt><trkpt lat="44.8569083" lon="11.5325617"><ele>6.0</ele><time>2026-05-01T07:57:25.749Z</time></trkpt><trkpt lat="44.8568983" lon="11.5327283"><ele>6.0</ele><time>2026-05-01T07:57:26.751Z</time></trkpt><trkpt lat="44.8568883" lon="11.5328883"><ele>6.0</ele><time>2026-05-01T07:57:27.749Z</time></trkpt><trkpt lat="44.8568767" lon="11.5330483"><ele>6.0</ele><time>2026-05-01T07:57:28.752Z</time></trkpt><trkpt lat="44.8568667" lon="11.5332167"><ele>6.0</ele><time>2026-05-01T07:57:29.748Z</time></trkpt><trkpt lat="44.8568583" lon="11.533395"><ele>6.0</ele><time>2026-05-01T07:57:30.751Z</time></trkpt><trkpt lat="44.8568467" lon="11.5335767"><ele>6.0</ele><time>2026-05-01T07:57:31.752Z</time></trkpt><trkpt lat="44.85683" lon="11.533755"><ele>6.0</ele><time>2026-05-01T07:57:32.754Z</time></trkpt><trkpt lat="44.8568133" lon="11.5339317"><ele>6.0</ele><time>2026-05-01T07:57:33.751Z</time></trkpt><trkpt lat="44.8567933" lon="11.5341017"><ele>6.0</ele><time>2026-05-01T07:57:34.751Z</time></trkpt><trkpt lat="44.8567767" lon="11.534265"><ele>6.0</ele><time>2026-05-01T07:57:35.752Z</time></trkpt><trkpt lat="44.85676" lon="11.5344317"><ele>6.0</ele><time>2026-05-01T07:57:36.749Z</time></trkpt><trkpt lat="44.8567417" lon="11.5346"><ele>6.0</ele><time>2026-05-01T07:57:37.751Z</time></trkpt><trkpt lat="44.8567217" lon="11.5347767"><ele>6.0</ele><time>2026-05-01T07:57:38.751Z</time></trkpt><trkpt lat="44.8567033" lon="11.53496"><ele>6.0</ele><time>2026-05-01T07:57:39.75Z</time></trkpt><trkpt lat="44.8566833" lon="11.535145"><ele>6.0</ele><time>2026-05-01T07:57:40.749Z</time></trkpt><trkpt lat="44.8566617" lon="11.5353417"><ele>6.333333333333334</ele><time>2026-05-01T07:57:41.756Z</time></trkpt><trkpt lat="44.8566367" lon="11.5355633"><ele>6.666666666666667</ele><time>2026-05-01T07:57:42.75Z</time></trkpt><trkpt lat="44.8566017" lon="11.5358133"><ele>7.0</ele><time>2026-05-01T07:57:43.752Z</time></trkpt><trkpt lat="44.8565633" lon="11.5360883"><ele>7.333333333333334</ele><time>2026-05-01T07:57:44.756Z</time></trkpt><trkpt lat="44.8565117" lon="11.536375"><ele>7.666666666666666</ele><time>2026-05-01T07:57:45.744Z</time></trkpt><trkpt lat="44.8564667" lon="11.5366717"><ele>8.0</ele><time>2026-05-01T07:57:46.753Z</time></trkpt><trkpt lat="44.8564217" lon="11.5369733"><ele>7.333333333333333</ele><time>2026-05-01T07:57:47.751Z</time></trkpt><trkpt lat="44.85638" lon="11.5372617"><ele>6.666666666666666</ele><time>2026-05-01T07:57:48.751Z</time></trkpt><trkpt lat="44.856345" lon="11.5375433"><ele>6.0</ele><time>2026-05-01T07:57:49.748Z</time></trkpt><trkpt lat="44.8563083" lon="11.5378183"><ele>6.0</ele><time>2026-05-01T07:57:50.75Z</time></trkpt><trkpt lat="44.8562717" lon="11.5380917"><ele>6.0</ele><time>2026-05-01T07:57:51.75Z</time></trkpt><trkpt lat="44.856235" lon="11.538365"><ele>6.0</ele><time>2026-05-01T07:57:52.75Z</time></trkpt><trkpt lat="44.8561933" lon="11.5386317"><ele>5.666666666666667</ele><time>2026-05-01T07:57:53.751Z</time></trkpt><trkpt lat="44.8561533" lon="11.5388983"><ele>5.333333333333334</ele><time>2026-05-01T07:57:54.753Z</time></trkpt><trkpt lat="44.856115" lon="11.5391667"><ele>5.0</ele><time>2026-05-01T07:57:55.76Z</time></trkpt><trkpt lat="44.856075" lon="11.5394317"><ele>4.666666666666667</ele><time>2026-05-01T07:57:56.745Z</time></trkpt><trkpt lat="44.8560317" lon="11.5396967"><ele>4.333333333333333</ele><time>2026-05-01T07:57:57.757Z</time></trkpt><trkpt lat="44.855995" lon="11.5399683"><ele>4.0</ele><time>2026-05-01T07:57:58.75Z</time></trkpt><trkpt lat="44.8559583" lon="11.540235"><ele>5.333333333333333</ele><time>2026-05-01T07:57:59.751Z</time></trkpt><trkpt lat="44.8559217" lon="11.5404917"><ele>6.666666666666666</ele><time>2026-05-01T07:58:00.751Z</time></trkpt><trkpt lat="44.8558867" lon="11.5407333"><ele>8.0</ele><time>2026-05-01T07:58:01.749Z</time></trkpt><trkpt lat="44.8558467" lon="11.5409683"><ele>8.0</ele><time>2026-05-01T07:58:02.751Z</time></trkpt><trkpt lat="44.8558133" lon="11.5411933"><ele>8.0</ele><time>2026-05-01T07:58:03.749Z</time></trkpt><trkpt lat="44.8557817" lon="11.5414083"><ele>8.0</ele><time>2026-05-01T07:58:04.75Z</time></trkpt><trkpt lat="44.8557533" lon="11.5416167"><ele>7.75</ele><time>2026-05-01T07:58:05.747Z</time></trkpt><trkpt lat="44.855725" lon="11.5418183"><ele>7.5</ele><time>2026-05-01T07:58:06.753Z</time></trkpt><trkpt lat="44.8556883" lon="11.542015"><ele>7.25</ele><time>2026-05-01T07:58:07.747Z</time></trkpt><trkpt lat="44.8556483" lon="11.54221"><ele>7.0</ele><time>2026-05-01T07:58:08.742Z</time></trkpt><trkpt lat="44.8556083" lon="11.5424067"><ele>7.0</ele><time>2026-05-01T07:58:09.753Z</time></trkpt><trkpt lat="44.8555667" lon="11.5426033"><ele>7.0</ele><time>2026-05-01T07:58:10.748Z</time></trkpt><trkpt lat="44.8555217" lon="11.5428017"><ele>7.0</ele><time>2026-05-01T07:58:11.752Z</time></trkpt><trkpt lat="44.8554783" lon="11.5429983"><ele>7.0</ele><time>2026-05-01T07:58:12.743Z</time></trkpt><trkpt lat="44.8554283" lon="11.54319"><ele>7.0</ele><time>2026-05-01T07:58:13.75Z</time></trkpt><trkpt lat="44.8553767" lon="11.5433783"><ele>7.0</ele><time>2026-05-01T07:58:14.753Z</time></trkpt><trkpt lat="44.8553267" lon="11.5435667"><ele>7.0</ele><time>2026-05-01T07:58:15.753Z</time></trkpt><trkpt lat="44.855275" lon="11.5437483"><ele>7.0</ele><time>2026-05-01T07:58:16.752Z</time></trkpt><trkpt lat="44.8552217" lon="11.5439283"><ele>7.0</ele><time>2026-05-01T07:58:17.744Z</time></trkpt><trkpt lat="44.85517" lon="11.5441117"><ele>7.0</ele><time>2026-05-01T07:58:18.749Z</time></trkpt><trkpt lat="44.8551267" lon="11.544295"><ele>7.0</ele><time>2026-05-01T07:58:19.75Z</time></trkpt><trkpt lat="44.8550883" lon="11.5444867"><ele>7.0</ele><time>2026-05-01T07:58:20.748Z</time></trkpt><trkpt lat="44.8550583" lon="11.5446783"><ele>6.75</ele><time>2026-05-01T07:58:21.757Z</time></trkpt><trkpt lat="44.8550383" lon="11.5448667"><ele>6.5</ele><time>2026-05-01T07:58:22.752Z</time></trkpt><trkpt lat="44.8550233" lon="11.5450483"><ele>6.25</ele><time>2026-05-01T07:58:23.742Z</time></trkpt><trkpt lat="44.8550133" lon="11.5452267"><ele>6.0</ele><time>2026-05-01T07:58:24.752Z</time></trkpt><trkpt lat="44.855005" lon="11.545405"><ele>6.75</ele><time>2026-05-01T07:58:25.753Z</time></trkpt><trkpt lat="44.855" lon="11.54558"><ele>7.5</ele><time>2026-05-01T07:58:26.752Z</time></trkpt><trkpt lat="44.855" lon="11.5457517"><ele>8.25</ele><time>2026-05-01T07:58:27.752Z</time></trkpt><trkpt lat="44.854995" lon="11.5459167"><ele>9.0</ele><time>2026-05-01T07:58:28.753Z</time></trkpt><trkpt lat="44.854985" lon="11.546055"><ele>9.0</ele><time>2026-05-01T07:58:29.743Z</time></trkpt><trkpt lat="44.854965" lon="11.546165"><ele>9.0</ele><time>2026-05-01T07:58:30.742Z</time></trkpt><trkpt lat="44.85494" lon="11.54625"><ele>9.0</ele><time>2026-05-01T07:58:31.748Z</time></trkpt><trkpt lat="44.854865" lon="11.546395"><ele>9.0</ele><time>2026-05-01T07:58:33.753Z</time></trkpt><trkpt lat="44.8548117" lon="11.5464567"><ele>9.0</ele><time>2026-05-01T07:58:34.754Z</time></trkpt><trkpt lat="44.8547533" lon="11.5465167"><ele>9.0</ele><time>2026-05-01T07:58:35.75Z</time></trkpt><trkpt lat="44.8546967" lon="11.546585"><ele>8.6</ele><time>2026-05-01T07:58:36.741Z</time></trkpt><trkpt lat="44.8546467" lon="11.546675"><ele>8.2</ele><time>2026-05-01T07:58:37.744Z</time></trkpt><trkpt lat="44.854615" lon="11.546785"><ele>7.799999999999999</ele><time>2026-05-01T07:58:38.756Z</time></trkpt><trkpt lat="44.8546033" lon="11.5469117"><ele>7.3999999999999995</ele><time>2026-05-01T07:58:39.757Z</time></trkpt><trkpt lat="44.8546067" lon="11.5470533"><ele>7.0</ele><time>2026-05-01T07:58:40.751Z</time></trkpt><trkpt lat="44.854605" lon="11.5472033"><ele>6.5</ele><time>2026-05-01T07:58:41.742Z</time></trkpt><trkpt lat="44.8545717" lon="11.5473533"><ele>6.0</ele><time>2026-05-01T07:58:42.749Z</time></trkpt><trkpt lat="44.8545017" lon="11.5475033"><ele>5.5</ele><time>2026-05-01T07:58:43.75Z</time></trkpt><trkpt lat="44.854425" lon="11.5476533"><ele>5.0</ele><time>2026-05-01T07:58:44.748Z</time></trkpt><trkpt lat="44.8543267" lon="11.5478017"><ele>5.666666666666667</ele><time>2026-05-01T07:58:45.754Z</time></trkpt><trkpt lat="44.8542217" lon="11.5479583"><ele>6.333333333333334</ele><time>2026-05-01T07:58:46.743Z</time></trkpt><trkpt lat="44.8541167" lon="11.5481183"><ele>7.0</ele><time>2026-05-01T07:58:47.748Z</time></trkpt><trkpt lat="44.8540133" lon="11.5482767"><ele>7.0</ele><time>2026-05-01T07:58:48.751Z</time></trkpt><trkpt lat="44.8539217" lon="11.5484317"><ele>7.0</ele><time>2026-05-01T07:58:49.75Z</time></trkpt><trkpt lat="44.8538383" lon="11.5485967"><ele>7.0</ele><time>2026-05-01T07:58:50.751Z</time></trkpt><trkpt lat="44.8537667" lon="11.5487667"><ele>7.0</ele><time>2026-05-01T07:58:51.751Z</time></trkpt><trkpt lat="44.8537083" lon="11.5489383"><ele>7.25</ele><time>2026-05-01T07:58:52.747Z</time></trkpt><trkpt lat="44.8536583" lon="11.5491067"><ele>7.5</ele><time>2026-05-01T07:58:53.745Z</time></trkpt><trkpt lat="44.8536167" lon="11.5492717"><ele>7.75</ele><time>2026-05-01T07:58:54.744Z</time></trkpt><trkpt lat="44.853575" lon="11.5494367"><ele>8.0</ele><time>2026-05-01T07:58:55.748Z</time></trkpt><trkpt lat="44.8535317" lon="11.5495983"><ele>8.0</ele><time>2026-05-01T07:58:56.754Z</time></trkpt><trkpt lat="44.85349" lon="11.549765"><ele>8.0</ele><time>2026-05-01T07:58:57.749Z</time></trkpt><trkpt lat="44.8534483" lon="11.549935"><ele>8.0</ele><time>2026-05-01T07:58:58.741Z</time></trkpt><trkpt lat="44.85341" lon="11.5501117"><ele>8.0</ele><time>2026-05-01T07:58:59.75Z</time></trkpt><trkpt lat="44.8533717" lon="11.5502867"><ele>8.75</ele><time>2026-05-01T07:59:00.752Z</time></trkpt><trkpt lat="44.853335" lon="11.5504533"><ele>9.5</ele><time>2026-05-01T07:59:01.743Z</time></trkpt><trkpt lat="44.8533067" lon="11.5506133"><ele>10.25</ele><time>2026-05-01T07:59:02.752Z</time></trkpt><trkpt lat="44.8532783" lon="11.5507683"><ele>11.0</ele><time>2026-05-01T07:59:03.755Z</time></trkpt><trkpt lat="44.8532517" lon="11.5509233"><ele>11.0</ele><time>2026-05-01T07:59:04.752Z</time></trkpt><trkpt lat="44.8532217" lon="11.5510767"><ele>11.0</ele><time>2026-05-01T07:59:05.758Z</time></trkpt><trkpt lat="44.853195" lon="11.551235"><ele>11.0</ele><time>2026-05-01T07:59:06.753Z</time></trkpt><trkpt lat="44.8531633" lon="11.5513883"><ele>11.0</ele><time>2026-05-01T07:59:07.752Z</time></trkpt><trkpt lat="44.853135" lon="11.55153"><ele>11.0</ele><time>2026-05-01T07:59:08.752Z</time></trkpt><trkpt lat="44.85311" lon="11.5516733"><ele>10.8</ele><time>2026-05-01T07:59:09.75Z</time></trkpt><trkpt lat="44.8530867" lon="11.551815"><ele>10.600000000000001</ele><time>2026-05-01T07:59:10.751Z</time></trkpt><trkpt lat="44.8530583" lon="11.5519517"><ele>10.4</ele><time>2026-05-01T07:59:11.749Z</time></trkpt><trkpt lat="44.8530317" lon="11.5520817"><ele>10.2</ele><time>2026-05-01T07:59:12.755Z</time></trkpt><trkpt lat="44.853005" lon="11.5521983"><ele>10.0</ele><time>2026-05-01T07:59:13.749Z</time></trkpt><trkpt lat="44.8529783" lon="11.552305"><ele>9.4</ele><time>2026-05-01T07:59:14.752Z</time></trkpt><trkpt lat="44.8529533" lon="11.5524"><ele>8.8</ele><time>2026-05-01T07:59:15.75Z</time></trkpt><trkpt lat="44.852925" lon="11.5524817"><ele>8.2</ele><time>2026-05-01T07:59:16.752Z</time></trkpt><trkpt lat="44.8528467" lon="11.5526133"><ele>7.6</ele><time>2026-05-01T07:59:18.752Z</time></trkpt><trkpt lat="44.8527617" lon="11.5527433"><ele>7.0</ele><time>2026-05-01T07:59:20.745Z</time></trkpt><trkpt lat="44.8527317" lon="11.55283"><ele>6.8</ele><time>2026-05-01T07:59:21.747Z</time></trkpt><trkpt lat="44.8527317" lon="11.552935"><ele>6.6</ele><time>2026-05-01T07:59:22.748Z</time></trkpt><trkpt lat="44.8527483" lon="11.5530667"><ele>6.3999999999999995</ele><time>2026-05-01T07:59:23.751Z</time></trkpt><trkpt lat="44.852755" lon="11.5532083"><ele>6.199999999999999</ele><time>2026-05-01T07:59:24.753Z</time></trkpt><trkpt lat="44.8527483" lon="11.5533617"><ele>6.0</ele><time>2026-05-01T07:59:25.742Z</time></trkpt><trkpt lat="44.8527217" lon="11.55352"><ele>6.0</ele><time>2026-05-01T07:59:26.742Z</time></trkpt><trkpt lat="44.8526917" lon="11.553685"><ele>6.0</ele><time>2026-05-01T07:59:27.751Z</time></trkpt><trkpt lat="44.85266" lon="11.5538567"><ele>6.0</ele><time>2026-05-01T07:59:28.753Z</time></trkpt><trkpt lat="44.852625" lon="11.55403"><ele>6.0</ele><time>2026-05-01T07:59:29.751Z</time></trkpt><trkpt lat="44.8525883" lon="11.5542033"><ele>7.0</ele><time>2026-05-01T07:59:30.751Z</time></trkpt><trkpt lat="44.8525517" lon="11.554385"><ele>8.0</ele><time>2026-05-01T07:59:31.747Z</time></trkpt><trkpt lat="44.85251" lon="11.5545767"><ele>9.0</ele><time>2026-05-01T07:59:32.748Z</time></trkpt><trkpt lat="44.8524667" lon="11.5547667"><ele>10.0</ele><time>2026-05-01T07:59:33.749Z</time></trkpt><trkpt lat="44.852425" lon="11.5549533"><ele>10.0</ele><time>2026-05-01T07:59:34.745Z</time></trkpt><trkpt lat="44.852385" lon="11.5551417"><ele>10.0</ele><time>2026-05-01T07:59:35.751Z</time></trkpt><trkpt lat="44.8523467" lon="11.5553283"><ele>10.0</ele><time>2026-05-01T07:59:36.747Z</time></trkpt><trkpt lat="44.8523033" lon="11.5555017"><ele>10.0</ele><time>2026-05-01T07:59:37.754Z</time></trkpt><trkpt lat="44.8522617" lon="11.555665"><ele>9.5</ele><time>2026-05-01T07:59:38.751Z</time></trkpt><trkpt lat="44.8522233" lon="11.5558217"><ele>9.0</ele><time>2026-05-01T07:59:39.742Z</time></trkpt><trkpt lat="44.8521867" lon="11.555975"><ele>8.5</ele><time>2026-05-01T07:59:40.751Z</time></trkpt><trkpt lat="44.8521533" lon="11.5561217"><ele>8.0</ele><time>2026-05-01T07:59:41.752Z</time></trkpt><trkpt lat="44.8521167" lon="11.5562667"><ele>8.0</ele><time>2026-05-01T07:59:42.748Z</time></trkpt><trkpt lat="44.8520817" lon="11.5564067"><ele>8.0</ele><time>2026-05-01T07:59:43.75Z</time></trkpt><trkpt lat="44.8520483" lon="11.556545"><ele>8.0</ele><time>2026-05-01T07:59:44.753Z</time></trkpt><trkpt lat="44.8520167" lon="11.55668"><ele>8.0</ele><time>2026-05-01T07:59:45.747Z</time></trkpt><trkpt lat="44.8519867" lon="11.5568083"><ele>8.0</ele><time>2026-05-01T07:59:46.753Z</time></trkpt><trkpt lat="44.8519567" lon="11.556925"><ele>7.999999999999999</ele><time>2026-05-01T07:59:47.753Z</time></trkpt><trkpt lat="44.8519267" lon="11.5570333"><ele>8.0</ele><time>2026-05-01T07:59:48.75Z</time></trkpt><trkpt lat="44.8518983" lon="11.55714"><ele>8.0</ele><time>2026-05-01T07:59:49.751Z</time></trkpt><trkpt lat="44.8518683" lon="11.5572417"><ele>8.0</ele><time>2026-05-01T07:59:50.745Z</time></trkpt><trkpt lat="44.85184" lon="11.55733"><ele>7.999999999999999</ele><time>2026-05-01T07:59:51.749Z</time></trkpt><trkpt lat="44.8517967" lon="11.5574617"><ele>8.0</ele><time>2026-05-01T07:59:53.754Z</time></trkpt><trkpt lat="44.8517633" lon="11.5575633"><ele>7.999999999999999</ele><time>2026-05-01T07:59:55.755Z</time></trkpt><trkpt lat="44.8517317" lon="11.55767"><ele>8.0</ele><time>2026-05-01T07:59:57.752Z</time></trkpt><trkpt lat="44.8516817" lon="11.5578267"><ele>8.0</ele><time>2026-05-01T07:59:59.747Z</time></trkpt><trkpt lat="44.8516517" lon="11.5579233"><ele>8.0</ele><time>2026-05-01T08:00:00.742Z</time></trkpt><trkpt lat="44.85162" lon="11.558025"><ele>7.999999999999999</ele><time>2026-05-01T08:00:01.753Z</time></trkpt><trkpt lat="44.8515867" lon="11.5581367"><ele>8.0</ele><time>2026-05-01T08:00:02.754Z</time></trkpt><trkpt lat="44.8515467" lon="11.5582667"><ele>8.0</ele><time>2026-05-01T08:00:03.751Z</time></trkpt><trkpt lat="44.8515083" lon="11.558405"><ele>8.0</ele><time>2026-05-01T08:00:04.752Z</time></trkpt><trkpt lat="44.85147" lon="11.5585467"><ele>8.0</ele><time>2026-05-01T08:00:05.752Z</time></trkpt><trkpt lat="44.8514317" lon="11.5586967"><ele>8.0</ele><time>2026-05-01T08:00:06.751Z</time></trkpt><trkpt lat="44.8513933" lon="11.5588517"><ele>8.0</ele><time>2026-05-01T08:00:07.749Z</time></trkpt><trkpt lat="44.851355" lon="11.5590133"><ele>7.5</ele><time>2026-05-01T08:00:08.747Z</time></trkpt><trkpt lat="44.851315" lon="11.5591817"><ele>7.0</ele><time>2026-05-01T08:00:09.749Z</time></trkpt><trkpt lat="44.8512717" lon="11.55936"><ele>6.5</ele><time>2026-05-01T08:00:10.749Z</time></trkpt><trkpt lat="44.8512283" lon="11.5595417"><ele>6.0</ele><time>2026-05-01T08:00:11.751Z</time></trkpt><trkpt lat="44.8511867" lon="11.559725"><ele>6.0</ele><time>2026-05-01T08:00:12.743Z</time></trkpt><trkpt lat="44.8511433" lon="11.5599117"><ele>6.0</ele><time>2026-05-01T08:00:13.742Z</time></trkpt><trkpt lat="44.8510967" lon="11.5601"><ele>6.0</ele><time>2026-05-01T08:00:14.744Z</time></trkpt><trkpt lat="44.85105" lon="11.5602883"><ele>6.0</ele><time>2026-05-01T08:00:15.755Z</time></trkpt><trkpt lat="44.8510033" lon="11.5604733"><ele>6.5</ele><time>2026-05-01T08:00:16.747Z</time></trkpt><trkpt lat="44.8509567" lon="11.5606617"><ele>7.0</ele><time>2026-05-01T08:00:17.742Z</time></trkpt><trkpt lat="44.8509067" lon="11.56085"><ele>7.5</ele><time>2026-05-01T08:00:18.743Z</time></trkpt><trkpt lat="44.8508517" lon="11.561045"><ele>8.0</ele><time>2026-05-01T08:00:19.742Z</time></trkpt><trkpt lat="44.850795" lon="11.56124"><ele>8.0</ele><time>2026-05-01T08:00:20.743Z</time></trkpt><trkpt lat="44.8507383" lon="11.5614367"><ele>8.0</ele><time>2026-05-01T08:00:21.75Z</time></trkpt><trkpt lat="44.8506783" lon="11.5616367"><ele>8.0</ele><time>2026-05-01T08:00:22.751Z</time></trkpt><trkpt lat="44.8506167" lon="11.561835"><ele>8.0</ele><time>2026-05-01T08:00:23.753Z</time></trkpt><trkpt lat="44.85056" lon="11.562025"><ele>8.0</ele><time>2026-05-01T08:00:24.749Z</time></trkpt><trkpt lat="44.8505067" lon="11.56221"><ele>8.0</ele><time>2026-05-01T08:00:25.751Z</time></trkpt><trkpt lat="44.8504583" lon="11.56239"><ele>8.0</ele><time>2026-05-01T08:00:26.748Z</time></trkpt><trkpt lat="44.8504117" lon="11.5625617"><ele>8.0</ele><time>2026-05-01T08:00:27.749Z</time></trkpt><trkpt lat="44.8503633" lon="11.5627333"><ele>8.0</ele><time>2026-05-01T08:00:28.741Z</time></trkpt><trkpt lat="44.8503133" lon="11.5629067"><ele>8.0</ele><time>2026-05-01T08:00:29.741Z</time></trkpt><trkpt lat="44.850255" lon="11.56308"><ele>8.0</ele><time>2026-05-01T08:00:30.749Z</time></trkpt><trkpt lat="44.850195" lon="11.5632467"><ele>7.75</ele><time>2026-05-01T08:00:31.752Z</time></trkpt><trkpt lat="44.8501367" lon="11.5634083"><ele>7.5</ele><time>2026-05-01T08:00:32.753Z</time></trkpt><trkpt lat="44.8500733" lon="11.5635733"><ele>7.25</ele><time>2026-05-01T08:00:33.75Z</time></trkpt><trkpt lat="44.8500067" lon="11.5637283"><ele>7.0</ele><time>2026-05-01T08:00:34.752Z</time></trkpt><trkpt lat="44.8499483" lon="11.5638733"><ele>7.6</ele><time>2026-05-01T08:00:35.749Z</time></trkpt><trkpt lat="44.8498933" lon="11.5640083"><ele>8.2</ele><time>2026-05-01T08:00:36.747Z</time></trkpt><trkpt lat="44.8498417" lon="11.564135"><ele>8.8</ele><time>2026-05-01T08:00:37.742Z</time></trkpt><trkpt lat="44.8497883" lon="11.564255"><ele>9.4</ele><time>2026-05-01T08:00:38.75Z</time></trkpt><trkpt lat="44.8497367" lon="11.5643817"><ele>10.0</ele><time>2026-05-01T08:00:39.744Z</time></trkpt><trkpt lat="44.8496867" lon="11.5645183"><ele>9.5</ele><time>2026-05-01T08:00:40.747Z</time></trkpt><trkpt lat="44.84964" lon="11.5646617"><ele>9.0</ele><time>2026-05-01T08:00:41.751Z</time></trkpt><trkpt lat="44.849595" lon="11.56481"><ele>8.5</ele><time>2026-05-01T08:00:42.751Z</time></trkpt><trkpt lat="44.8495483" lon="11.5649617"><ele>8.0</ele><time>2026-05-01T08:00:43.75Z</time></trkpt><trkpt lat="44.849505" lon="11.5651167"><ele>8.0</ele><time>2026-05-01T08:00:44.753Z</time></trkpt><trkpt lat="44.8494567" lon="11.56528"><ele>8.0</ele><time>2026-05-01T08:00:45.744Z</time></trkpt><trkpt lat="44.84941" lon="11.5654467"><ele>8.0</ele><time>2026-05-01T08:00:46.748Z</time></trkpt><trkpt lat="44.849365" lon="11.5656133"><ele>8.0</ele><time>2026-05-01T08:00:47.749Z</time></trkpt><trkpt lat="44.8493183" lon="11.5657783"><ele>7.75</ele><time>2026-05-01T08:00:48.75Z</time></trkpt><trkpt lat="44.8492733" lon="11.5659467"><ele>7.5</ele><time>2026-05-01T08:00:49.753Z</time></trkpt><trkpt lat="44.849225" lon="11.566115"><ele>7.25</ele><time>2026-05-01T08:00:50.746Z</time></trkpt><trkpt lat="44.849175" lon="11.56629"><ele>7.0</ele><time>2026-05-01T08:00:51.751Z</time></trkpt><trkpt lat="44.8491283" lon="11.5664717"><ele>7.25</ele><time>2026-05-01T08:00:52.753Z</time></trkpt><trkpt lat="44.8490767" lon="11.5666567"><ele>7.5</ele><time>2026-05-01T08:00:53.761Z</time></trkpt><trkpt lat="44.8490233" lon="11.5668417"><ele>7.75</ele><time>2026-05-01T08:00:54.756Z</time></trkpt><trkpt lat="44.8489767" lon="11.5670317"><ele>8.0</ele><time>2026-05-01T08:00:55.757Z</time></trkpt><trkpt lat="44.8489317" lon="11.5672183"><ele>8.0</ele><time>2026-05-01T08:00:56.751Z</time></trkpt><trkpt lat="44.8488817" lon="11.5674033"><ele>8.0</ele><time>2026-05-01T08:00:57.749Z</time></trkpt><trkpt lat="44.8488317" lon="11.567585"><ele>8.0</ele><time>2026-05-01T08:00:58.743Z</time></trkpt><trkpt lat="44.8487783" lon="11.567765"><ele>8.0</ele><time>2026-05-01T08:00:59.744Z</time></trkpt><trkpt lat="44.8487217" lon="11.5679483"><ele>7.75</ele><time>2026-05-01T08:01:00.751Z</time></trkpt><trkpt lat="44.8486683" lon="11.5681283"><ele>7.5</ele><time>2026-05-01T08:01:01.75Z</time></trkpt><trkpt lat="44.8486183" lon="11.568305"><ele>7.25</ele><time>2026-05-01T08:01:02.742Z</time></trkpt><trkpt lat="44.8485717" lon="11.56849"><ele>7.0</ele><time>2026-05-01T08:01:03.749Z</time></trkpt><trkpt lat="44.8485267" lon="11.5686783"><ele>7.25</ele><time>2026-05-01T08:01:04.742Z</time></trkpt><trkpt lat="44.8484867" lon="11.5688733"><ele>7.5</ele><time>2026-05-01T08:01:05.749Z</time></trkpt><trkpt lat="44.84845" lon="11.5690783"><ele>7.75</ele><time>2026-05-01T08:01:06.743Z</time></trkpt><trkpt lat="44.8484183" lon="11.569285"><ele>8.0</ele><time>2026-05-01T08:01:07.75Z</time></trkpt><trkpt lat="44.8483883" lon="11.5695"><ele>7.5</ele><time>2026-05-01T08:01:08.752Z</time></trkpt><trkpt lat="44.8483667" lon="11.5697167"><ele>7.0</ele><time>2026-05-01T08:01:09.742Z</time></trkpt><trkpt lat="44.8483483" lon="11.5699217"><ele>6.5</ele><time>2026-05-01T08:01:10.746Z</time></trkpt><trkpt lat="44.8483283" lon="11.5701233"><ele>6.0</ele><time>2026-05-01T08:01:11.754Z</time></trkpt><trkpt lat="44.848305" lon="11.5703183"><ele>6.5</ele><time>2026-05-01T08:01:12.744Z</time></trkpt><trkpt lat="44.8482817" lon="11.570515"><ele>7.0</ele><time>2026-05-01T08:01:13.745Z</time></trkpt><trkpt lat="44.8482567" lon="11.5707117"><ele>7.5</ele><time>2026-05-01T08:01:14.751Z</time></trkpt><trkpt lat="44.84823" lon="11.5709033"><ele>8.0</ele><time>2026-05-01T08:01:15.742Z</time></trkpt><trkpt lat="44.8482067" lon="11.571095"><ele>8.5</ele><time>2026-05-01T08:01:16.742Z</time></trkpt><trkpt lat="44.8481867" lon="11.57129"><ele>9.0</ele><time>2026-05-01T08:01:17.756Z</time></trkpt><trkpt lat="44.8481667" lon="11.5714883"><ele>9.5</ele><time>2026-05-01T08:01:18.751Z</time></trkpt><trkpt lat="44.8481483" lon="11.5716833"><ele>10.0</ele><time>2026-05-01T08:01:19.756Z</time></trkpt><trkpt lat="44.84813" lon="11.5718717"><ele>10.25</ele><time>2026-05-01T08:01:20.752Z</time></trkpt><trkpt lat="44.8481167" lon="11.57205"><ele>10.5</ele><time>2026-05-01T08:01:21.753Z</time></trkpt><trkpt lat="44.8481033" lon="11.5722233"><ele>10.75</ele><time>2026-05-01T08:01:22.747Z</time></trkpt><trkpt lat="44.8480933" lon="11.5723967"><ele>11.0</ele><time>2026-05-01T08:01:23.75Z</time></trkpt><trkpt lat="44.8480833" lon="11.5725717"><ele>11.0</ele><time>2026-05-01T08:01:24.751Z</time></trkpt><trkpt lat="44.8480683" lon="11.5727483"><ele>11.0</ele><time>2026-05-01T08:01:25.753Z</time></trkpt><trkpt lat="44.848055" lon="11.5729217"><ele>11.0</ele><time>2026-05-01T08:01:26.749Z</time></trkpt><trkpt lat="44.84804" lon="11.5730967"><ele>11.0</ele><time>2026-05-01T08:01:27.752Z</time></trkpt><trkpt lat="44.8480217" lon="11.573265"><ele>10.600000000000001</ele><time>2026-05-01T08:01:28.748Z</time></trkpt><trkpt lat="44.8480017" lon="11.5734283"><ele>10.200000000000001</ele><time>2026-05-01T08:01:29.749Z</time></trkpt><trkpt lat="44.847985" lon="11.5735767"><ele>9.8</ele><time>2026-05-01T08:01:30.75Z</time></trkpt><trkpt lat="44.8479667" lon="11.5737083"><ele>9.4</ele><time>2026-05-01T08:01:31.751Z</time></trkpt><trkpt lat="44.8479467" lon="11.5738317"><ele>9.0</ele><time>2026-05-01T08:01:32.752Z</time></trkpt><trkpt lat="44.847925" lon="11.5739483"><ele>8.2</ele><time>2026-05-01T08:01:33.751Z</time></trkpt><trkpt lat="44.8479083" lon="11.5740533"><ele>7.4</ele><time>2026-05-01T08:01:34.75Z</time></trkpt><trkpt lat="44.8478933" lon="11.5741417"><ele>6.6</ele><time>2026-05-01T08:01:35.746Z</time></trkpt><trkpt lat="44.8478567" lon="11.5742833"><ele>5.8</ele><time>2026-05-01T08:01:37.75Z</time></trkpt><trkpt lat="44.8478033" lon="11.57438"><ele>5.0</ele><time>2026-05-01T08:01:39.744Z</time></trkpt><trkpt lat="44.8476867" lon="11.5744633"><ele>5.2</ele><time>2026-05-01T08:01:41.755Z</time></trkpt><trkpt lat="44.8476083" lon="11.5745033"><ele>5.4</ele><time>2026-05-01T08:01:42.744Z</time></trkpt><trkpt lat="44.8475233" lon="11.5745317"><ele>5.6</ele><time>2026-05-01T08:01:43.75Z</time></trkpt><trkpt lat="44.847435" lon="11.574535"><ele>5.8</ele><time>2026-05-01T08:01:44.753Z</time></trkpt><trkpt lat="44.8473183" lon="11.574465"><ele>6.0</ele><time>2026-05-01T08:01:45.75Z</time></trkpt><trkpt lat="44.8471933" lon="11.5743817"><ele>6.666666666666666</ele><time>2026-05-01T08:01:46.747Z</time></trkpt><trkpt lat="44.84706" lon="11.574285"><ele>7.333333333333333</ele><time>2026-05-01T08:01:47.748Z</time></trkpt><trkpt lat="44.8469133" lon="11.5741833"><ele>8.0</ele><time>2026-05-01T08:01:48.748Z</time></trkpt><trkpt lat="44.8467617" lon="11.5740817"><ele>8.0</ele><time>2026-05-01T08:01:49.749Z</time></trkpt><trkpt lat="44.8466033" lon="11.5739783"><ele>8.0</ele><time>2026-05-01T08:01:50.742Z</time></trkpt><trkpt lat="44.84644" lon="11.5738767"><ele>8.0</ele><time>2026-05-01T08:01:51.753Z</time></trkpt><trkpt lat="44.8462733" lon="11.573775"><ele>7.666666666666666</ele><time>2026-05-01T08:01:52.748Z</time></trkpt><trkpt lat="44.8461083" lon="11.573675"><ele>7.333333333333334</ele><time>2026-05-01T08:01:53.748Z</time></trkpt><trkpt lat="44.8459467" lon="11.57358"><ele>7.0</ele><time>2026-05-01T08:01:54.75Z</time></trkpt><trkpt lat="44.8457833" lon="11.5734933"><ele>6.666666666666667</ele><time>2026-05-01T08:01:55.751Z</time></trkpt><trkpt lat="44.8456183" lon="11.5734083"><ele>6.333333333333334</ele><time>2026-05-01T08:01:56.75Z</time></trkpt><trkpt lat="44.845445" lon="11.5733283"><ele>6.0</ele><time>2026-05-01T08:01:57.752Z</time></trkpt><trkpt lat="44.845265" lon="11.57325"><ele>6.666666666666666</ele><time>2026-05-01T08:01:58.748Z</time></trkpt><trkpt lat="44.84508" lon="11.5731767"><ele>7.333333333333333</ele><time>2026-05-01T08:01:59.746Z</time></trkpt><trkpt lat="44.8448933" lon="11.5731067"><ele>8.0</ele><time>2026-05-01T08:02:00.75Z</time></trkpt><trkpt lat="44.8447083" lon="11.5730417"><ele>8.0</ele><time>2026-05-01T08:02:01.75Z</time></trkpt><trkpt lat="44.8445283" lon="11.5729833"><ele>8.0</ele><time>2026-05-01T08:02:02.753Z</time></trkpt><trkpt lat="44.8443483" lon="11.5729333"><ele>8.0</ele><time>2026-05-01T08:02:03.751Z</time></trkpt><trkpt lat="44.8441667" lon="11.5728917"><ele>7.666666666666666</ele><time>2026-05-01T08:02:04.757Z</time></trkpt><trkpt lat="44.843985" lon="11.5728517"><ele>7.333333333333334</ele><time>2026-05-01T08:02:05.756Z</time></trkpt><trkpt lat="44.8438" lon="11.57282"><ele>7.0</ele><time>2026-05-01T08:02:06.756Z</time></trkpt><trkpt lat="44.8436117" lon="11.57279"><ele>6.0</ele><time>2026-05-01T08:02:07.754Z</time></trkpt><trkpt lat="44.8434233" lon="11.5727633"><ele>5.0</ele><time>2026-05-01T08:02:08.755Z</time></trkpt><trkpt lat="44.8430483" lon="11.57273"><ele>5.0</ele><time>2026-05-01T08:02:10.754Z</time></trkpt><trkpt lat="44.8428683" lon="11.5727183"><ele>5.0</ele><time>2026-05-01T08:02:11.751Z</time></trkpt><trkpt lat="44.842695" lon="11.5727067"><ele>5.0</ele><time>2026-05-01T08:02:12.752Z</time></trkpt><trkpt lat="44.842525" lon="11.572695"><ele>5.666666666666667</ele><time>2026-05-01T08:02:13.751Z</time></trkpt><trkpt lat="44.842355" lon="11.5726833"><ele>6.333333333333334</ele><time>2026-05-01T08:02:14.747Z</time></trkpt><trkpt lat="44.8421833" lon="11.5726683"><ele>7.0</ele><time>2026-05-01T08:02:15.745Z</time></trkpt><trkpt lat="44.8420067" lon="11.5726567"><ele>7.0</ele><time>2026-05-01T08:02:16.746Z</time></trkpt><trkpt lat="44.8418283" lon="11.572645"><ele>7.0</ele><time>2026-05-01T08:02:17.75Z</time></trkpt><trkpt lat="44.84165" lon="11.5726333"><ele>7.0</ele><time>2026-05-01T08:02:18.75Z</time></trkpt><trkpt lat="44.841475" lon="11.5726233"><ele>7.333333333333334</ele><time>2026-05-01T08:02:19.749Z</time></trkpt><trkpt lat="44.8413067" lon="11.572615"><ele>7.666666666666666</ele><time>2026-05-01T08:02:20.744Z</time></trkpt><trkpt lat="44.841135" lon="11.5726133"><ele>8.0</ele><time>2026-05-01T08:02:21.754Z</time></trkpt><trkpt lat="44.8409583" lon="11.57262"><ele>8.333333333333332</ele><time>2026-05-01T08:02:22.756Z</time></trkpt><trkpt lat="44.8407767" lon="11.5726283"><ele>8.666666666666666</ele><time>2026-05-01T08:02:23.748Z</time></trkpt><trkpt lat="44.840585" lon="11.5726433"><ele>9.0</ele><time>2026-05-01T08:02:24.753Z</time></trkpt><trkpt lat="44.8403883" lon="11.5726683"><ele>9.0</ele><time>2026-05-01T08:02:25.752Z</time></trkpt><trkpt lat="44.8401917" lon="11.5726983"><ele>9.0</ele><time>2026-05-01T08:02:26.755Z</time></trkpt><trkpt lat="44.839995" lon="11.5727333"><ele>9.0</ele><time>2026-05-01T08:02:27.751Z</time></trkpt><trkpt lat="44.8397983" lon="11.5727783"><ele>8.666666666666666</ele><time>2026-05-01T08:02:28.749Z</time></trkpt><trkpt lat="44.8396" lon="11.5728267"><ele>8.333333333333332</ele><time>2026-05-01T08:02:29.758Z</time></trkpt><trkpt lat="44.8393983" lon="11.5728833"><ele>8.0</ele><time>2026-05-01T08:02:30.757Z</time></trkpt><trkpt lat="44.8391917" lon="11.57295"><ele>8.0</ele><time>2026-05-01T08:02:31.751Z</time></trkpt><trkpt lat="44.8389833" lon="11.573025"><ele>8.0</ele><time>2026-05-01T08:02:32.752Z</time></trkpt><trkpt lat="44.8387717" lon="11.5731067"><ele>8.0</ele><time>2026-05-01T08:02:33.755Z</time></trkpt><trkpt lat="44.83856" lon="11.5731967"><ele>8.333333333333332</ele><time>2026-05-01T08:02:34.746Z</time></trkpt><trkpt lat="44.8383483" lon="11.573295"><ele>8.666666666666666</ele><time>2026-05-01T08:02:35.751Z</time></trkpt><trkpt lat="44.83814" lon="11.5733967"><ele>9.0</ele><time>2026-05-01T08:02:36.754Z</time></trkpt><trkpt lat="44.8379367" lon="11.573505"><ele>9.0</ele><time>2026-05-01T08:02:37.751Z</time></trkpt><trkpt lat="44.837735" lon="11.57362"><ele>9.0</ele><time>2026-05-01T08:02:38.751Z</time></trkpt><trkpt lat="44.8375383" lon="11.5737383"><ele>9.0</ele><time>2026-05-01T08:02:39.749Z</time></trkpt><trkpt lat="44.8373467" lon="11.57386"><ele>9.0</ele><time>2026-05-01T08:02:40.748Z</time></trkpt><trkpt lat="44.8371617" lon="11.5739867"><ele>9.0</ele><time>2026-05-01T08:02:41.751Z</time></trkpt><trkpt lat="44.83698" lon="11.5741183"><ele>9.0</ele><time>2026-05-01T08:02:42.752Z</time></trkpt><trkpt lat="44.8368017" lon="11.5742567"><ele>8.333333333333334</ele><time>2026-05-01T08:02:43.747Z</time></trkpt><trkpt lat="44.836625" lon="11.5744017"><ele>7.666666666666667</ele><time>2026-05-01T08:02:44.751Z</time></trkpt><trkpt lat="44.8364483" lon="11.5745533"><ele>7.0</ele><time>2026-05-01T08:02:45.752Z</time></trkpt><trkpt lat="44.8362667" lon="11.5747183"><ele>7.0</ele><time>2026-05-01T08:02:46.75Z</time></trkpt><trkpt lat="44.836075" lon="11.5748933"><ele>7.0</ele><time>2026-05-01T08:02:47.747Z</time></trkpt><trkpt lat="44.8358667" lon="11.5750767"><ele>7.0</ele><time>2026-05-01T08:02:48.753Z</time></trkpt><trkpt lat="44.8356433" lon="11.5752717"><ele>7.0</ele><time>2026-05-01T08:02:49.744Z</time></trkpt><trkpt lat="44.8354083" lon="11.5754717"><ele>7.0</ele><time>2026-05-01T08:02:50.758Z</time></trkpt><trkpt lat="44.835165" lon="11.5756833"><ele>7.0</ele><time>2026-05-01T08:02:51.747Z</time></trkpt><trkpt lat="44.83491" lon="11.5759"><ele>6.5</ele><time>2026-05-01T08:02:52.749Z</time></trkpt><trkpt lat="44.8346483" lon="11.5761167"><ele>6.0</ele><time>2026-05-01T08:02:53.756Z</time></trkpt><trkpt lat="44.834385" lon="11.5763333"><ele>6.5</ele><time>2026-05-01T08:02:54.749Z</time></trkpt><trkpt lat="44.834125" lon="11.57655"><ele>7.0</ele><time>2026-05-01T08:02:55.745Z</time></trkpt><trkpt lat="44.83387" lon="11.57677"><ele>7.0</ele><time>2026-05-01T08:02:56.757Z</time></trkpt><trkpt lat="44.8336183" lon="11.5769867"><ele>7.0</ele><time>2026-05-01T08:02:57.765Z</time></trkpt><trkpt lat="44.833375" lon="11.5771983"><ele>8.0</ele><time>2026-05-01T08:02:58.754Z</time></trkpt><trkpt lat="44.8331367" lon="11.577405"><ele>9.0</ele><time>2026-05-01T08:02:59.755Z</time></trkpt><trkpt lat="44.8329017" lon="11.5776117"><ele>9.0</ele><time>2026-05-01T08:03:00.752Z</time></trkpt><trkpt lat="44.8326733" lon="11.5778117"><ele>9.0</ele><time>2026-05-01T08:03:01.751Z</time></trkpt><trkpt lat="44.83245" lon="11.57801"><ele>7.5</ele><time>2026-05-01T08:03:02.755Z</time></trkpt><trkpt lat="44.8322267" lon="11.578205"><ele>6.0</ele><time>2026-05-01T08:03:03.745Z</time></trkpt><trkpt lat="44.83201" lon="11.5783983"><ele>6.0</ele><time>2026-05-01T08:03:04.748Z</time></trkpt><trkpt lat="44.831795" lon="11.5785867"><ele>6.0</ele><time>2026-05-01T08:03:05.749Z</time></trkpt><trkpt lat="44.8315833" lon="11.5787717"><ele>6.0</ele><time>2026-05-01T08:03:06.75Z</time></trkpt><trkpt lat="44.8313733" lon="11.5789583"><ele>6.0</ele><time>2026-05-01T08:03:07.75Z</time></trkpt><trkpt lat="44.831165" lon="11.579145"><ele>6.0</ele><time>2026-05-01T08:03:08.752Z</time></trkpt><trkpt lat="44.830955" lon="11.5793333"><ele>6.0</ele><time>2026-05-01T08:03:09.749Z</time></trkpt><trkpt lat="44.8307433" lon="11.57952"><ele>5.5</ele><time>2026-05-01T08:03:10.745Z</time></trkpt><trkpt lat="44.83053" lon="11.579705"><ele>5.0</ele><time>2026-05-01T08:03:11.75Z</time></trkpt><trkpt lat="44.8303167" lon="11.57989"><ele>5.5</ele><time>2026-05-01T08:03:12.743Z</time></trkpt><trkpt lat="44.8301" lon="11.5800733"><ele>6.0</ele><time>2026-05-01T08:03:13.749Z</time></trkpt><trkpt lat="44.8298817" lon="11.580255"><ele>6.0</ele><time>2026-05-01T08:03:14.752Z</time></trkpt><trkpt lat="44.829665" lon="11.5804383"><ele>6.0</ele><time>2026-05-01T08:03:15.755Z</time></trkpt><trkpt lat="44.82945" lon="11.5806217"><ele>6.5</ele><time>2026-05-01T08:03:16.75Z</time></trkpt><trkpt lat="44.829235" lon="11.580805"><ele>7.0</ele><time>2026-05-01T08:03:17.753Z</time></trkpt><trkpt lat="44.82902" lon="11.5809883"><ele>7.0</ele><time>2026-05-01T08:03:18.752Z</time></trkpt><trkpt lat="44.8288067" lon="11.5811683"><ele>7.0</ele><time>2026-05-01T08:03:19.752Z</time></trkpt><trkpt lat="44.8285933" lon="11.58135"><ele>6.0</ele><time>2026-05-01T08:03:20.754Z</time></trkpt><trkpt lat="44.8283817" lon="11.5815333"><ele>5.0</ele><time>2026-05-01T08:03:21.75Z</time></trkpt><trkpt lat="44.8281767" lon="11.5817183"><ele>5.0</ele><time>2026-05-01T08:03:22.753Z</time></trkpt><trkpt lat="44.8279733" lon="11.581905"><ele>5.0</ele><time>2026-05-01T08:03:23.744Z</time></trkpt><trkpt lat="44.8277767" lon="11.5820983"><ele>5.0</ele><time>2026-05-01T08:03:24.751Z</time></trkpt><trkpt lat="44.827585" lon="11.5822983"><ele>5.0</ele><time>2026-05-01T08:03:25.75Z</time></trkpt><trkpt lat="44.8274033" lon="11.5825"><ele>5.0</ele><time>2026-05-01T08:03:26.753Z</time></trkpt><trkpt lat="44.8272367" lon="11.5827033"><ele>5.0</ele><time>2026-05-01T08:03:27.745Z</time></trkpt><trkpt lat="44.827085" lon="11.582905"><ele>5.0</ele><time>2026-05-01T08:03:28.752Z</time></trkpt><trkpt lat="44.8269467" lon="11.5831017"><ele>4.666666666666667</ele><time>2026-05-01T08:03:29.745Z</time></trkpt><trkpt lat="44.8268217" lon="11.5832883"><ele>4.333333333333333</ele><time>2026-05-01T08:03:30.754Z</time></trkpt><trkpt lat="44.8267117" lon="11.5834617"><ele>4.0</ele><time>2026-05-01T08:03:31.75Z</time></trkpt><trkpt lat="44.8266167" lon="11.5836133"><ele>4.2</ele><time>2026-05-01T08:03:32.753Z</time></trkpt><trkpt lat="44.8265383" lon="11.58374"><ele>4.4</ele><time>2026-05-01T08:03:33.749Z</time></trkpt><trkpt lat="44.8264617" lon="11.5838367"><ele>4.6</ele><time>2026-05-01T08:03:34.748Z</time></trkpt><trkpt lat="44.826375" lon="11.5838917"><ele>4.8</ele><time>2026-05-01T08:03:35.75Z</time></trkpt><trkpt lat="44.8262833" lon="11.5839233"><ele>5.0</ele><time>2026-05-01T08:03:36.747Z</time></trkpt><trkpt lat="44.826195" lon="11.5839683"><ele>5.0</ele><time>2026-05-01T08:03:37.753Z</time></trkpt><trkpt lat="44.8261267" lon="11.584045"><ele>5.0</ele><time>2026-05-01T08:03:38.754Z</time></trkpt><trkpt lat="44.8260767" lon="11.5841367"><ele>5.0</ele><time>2026-05-01T08:03:39.751Z</time></trkpt><trkpt lat="44.8260533" lon="11.5842483"><ele>5.0</ele><time>2026-05-01T08:03:40.747Z</time></trkpt><trkpt lat="44.8260433" lon="11.5843717"><ele>5.0</ele><time>2026-05-01T08:03:41.749Z</time></trkpt><trkpt lat="44.8260417" lon="11.584525"><ele>5.0</ele><time>2026-05-01T08:03:42.745Z</time></trkpt><trkpt lat="44.8260167" lon="11.584685"><ele>6.0</ele><time>2026-05-01T08:03:43.746Z</time></trkpt><trkpt lat="44.825965" lon="11.5848567"><ele>7.0</ele><time>2026-05-01T08:03:44.743Z</time></trkpt><trkpt lat="44.8258917" lon="11.585045"><ele>8.0</ele><time>2026-05-01T08:03:45.747Z</time></trkpt><trkpt lat="44.8258133" lon="11.5852517"><ele>8.333333333333332</ele><time>2026-05-01T08:03:46.752Z</time></trkpt><trkpt lat="44.82573" lon="11.5854733"><ele>8.666666666666666</ele><time>2026-05-01T08:03:47.741Z</time></trkpt><trkpt lat="44.825645" lon="11.5857067"><ele>9.0</ele><time>2026-05-01T08:03:48.752Z</time></trkpt><trkpt lat="44.825555" lon="11.5859433"><ele>8.666666666666666</ele><time>2026-05-01T08:03:49.749Z</time></trkpt><trkpt lat="44.8254633" lon="11.5861783"><ele>8.333333333333332</ele><time>2026-05-01T08:03:50.749Z</time></trkpt><trkpt lat="44.8253717" lon="11.586415"><ele>8.0</ele><time>2026-05-01T08:03:51.751Z</time></trkpt><trkpt lat="44.8252833" lon="11.58665"><ele>8.0</ele><time>2026-05-01T08:03:52.75Z</time></trkpt><trkpt lat="44.8251967" lon="11.586885"><ele>8.0</ele><time>2026-05-01T08:03:53.751Z</time></trkpt><trkpt lat="44.8251083" lon="11.5871217"><ele>8.0</ele><time>2026-05-01T08:03:54.755Z</time></trkpt><trkpt lat="44.8250217" lon="11.58736"><ele>6.333333333333333</ele><time>2026-05-01T08:03:55.756Z</time></trkpt><trkpt lat="44.824935" lon="11.587595"><ele>4.666666666666666</ele><time>2026-05-01T08:03:56.743Z</time></trkpt><trkpt lat="44.824845" lon="11.5878333"><ele>3.0</ele><time>2026-05-01T08:03:57.753Z</time></trkpt><trkpt lat="44.8247567" lon="11.5880683"><ele>3.333333333333333</ele><time>2026-05-01T08:03:58.748Z</time></trkpt><trkpt lat="44.8246667" lon="11.5883017"><ele>3.6666666666666665</ele><time>2026-05-01T08:03:59.758Z</time></trkpt><trkpt lat="44.8245767" lon="11.588535"><ele>4.0</ele><time>2026-05-01T08:04:00.745Z</time></trkpt><trkpt lat="44.8244867" lon="11.5887717"><ele>4.0</ele><time>2026-05-01T08:04:01.755Z</time></trkpt><trkpt lat="44.8243967" lon="11.5890117"><ele>4.0</ele><time>2026-05-01T08:04:02.753Z</time></trkpt><trkpt lat="44.824305" lon="11.589255"><ele>4.0</ele><time>2026-05-01T08:04:03.747Z</time></trkpt><trkpt lat="44.8242117" lon="11.5895033"><ele>4.333333333333333</ele><time>2026-05-01T08:04:04.752Z</time></trkpt><trkpt lat="44.8241183" lon="11.5897533"><ele>4.666666666666667</ele><time>2026-05-01T08:04:05.751Z</time></trkpt><trkpt lat="44.824025" lon="11.5900033"><ele>5.0</ele><time>2026-05-01T08:04:06.743Z</time></trkpt><trkpt lat="44.8239317" lon="11.59025"><ele>3.0</ele><time>2026-05-01T08:04:07.744Z</time></trkpt><trkpt lat="44.8238367" lon="11.5904933"><ele>1.0</ele><time>2026-05-01T08:04:08.745Z</time></trkpt><trkpt lat="44.823745" lon="11.590735"><ele>-1.0</ele><time>2026-05-01T08:04:09.75Z</time></trkpt><trkpt lat="44.8236533" lon="11.5909733"><ele>-0.6666666666666666</ele><time>2026-05-01T08:04:10.751Z</time></trkpt><trkpt lat="44.823565" lon="11.5912117"><ele>-0.3333333333333333</ele><time>2026-05-01T08:04:11.745Z</time></trkpt><trkpt lat="44.823475" lon="11.59145"><ele>0.0</ele><time>2026-05-01T08:04:12.752Z</time></trkpt><trkpt lat="44.8233867" lon="11.5916867"><ele>0.0</ele><time>2026-05-01T08:04:13.751Z</time></trkpt><trkpt lat="44.8232983" lon="11.5919233"><ele>0.0</ele><time>2026-05-01T08:04:14.751Z</time></trkpt><trkpt lat="44.8232117" lon="11.59216"><ele>0.0</ele><time>2026-05-01T08:04:15.751Z</time></trkpt><trkpt lat="44.8231217" lon="11.5923967"><ele>0.3333333333333333</ele><time>2026-05-01T08:04:16.751Z</time></trkpt><trkpt lat="44.8230333" lon="11.5926317"><ele>0.6666666666666666</ele><time>2026-05-01T08:04:17.751Z</time></trkpt><trkpt lat="44.8229433" lon="11.5928633"><ele>1.0</ele><time>2026-05-01T08:04:18.751Z</time></trkpt><trkpt lat="44.8228533" lon="11.5930917"><ele>1.0</ele><time>2026-05-01T08:04:19.75Z</time></trkpt><trkpt lat="44.822765" lon="11.59332"><ele>1.0</ele><time>2026-05-01T08:04:20.75Z</time></trkpt><trkpt lat="44.8226783" lon="11.5935467"><ele>1.0</ele><time>2026-05-01T08:04:21.748Z</time></trkpt><trkpt lat="44.8225917" lon="11.5937767"><ele>2.6666666666666665</ele><time>2026-05-01T08:04:22.742Z</time></trkpt><trkpt lat="44.8225033" lon="11.594005"><ele>4.333333333333333</ele><time>2026-05-01T08:04:23.75Z</time></trkpt><trkpt lat="44.822415" lon="11.5942333"><ele>6.0</ele><time>2026-05-01T08:04:24.753Z</time></trkpt><trkpt lat="44.822325" lon="11.5944617"><ele>6.0</ele><time>2026-05-01T08:04:25.754Z</time></trkpt><trkpt lat="44.8222367" lon="11.5946933"><ele>6.0</ele><time>2026-05-01T08:04:26.755Z</time></trkpt><trkpt lat="44.8221483" lon="11.594925"><ele>6.0</ele><time>2026-05-01T08:04:27.751Z</time></trkpt><trkpt lat="44.8220583" lon="11.59516"><ele>6.333333333333334</ele><time>2026-05-01T08:04:28.753Z</time></trkpt><trkpt lat="44.8219683" lon="11.595395"><ele>6.666666666666667</ele><time>2026-05-01T08:04:29.755Z</time></trkpt><trkpt lat="44.821875" lon="11.59563"><ele>7.0</ele><time>2026-05-01T08:04:30.752Z</time></trkpt><trkpt lat="44.8217817" lon="11.595865"><ele>7.0</ele><time>2026-05-01T08:04:31.745Z</time></trkpt><trkpt lat="44.8216867" lon="11.5961"><ele>7.0</ele><time>2026-05-01T08:04:32.753Z</time></trkpt><trkpt lat="44.8215917" lon="11.596335"><ele>7.0</ele><time>2026-05-01T08:04:33.751Z</time></trkpt><trkpt lat="44.8214967" lon="11.5965717"><ele>7.666666666666667</ele><time>2026-05-01T08:04:34.749Z</time></trkpt><trkpt lat="44.8214017" lon="11.5968083"><ele>8.333333333333334</ele><time>2026-05-01T08:04:35.752Z</time></trkpt><trkpt lat="44.8213067" lon="11.5970467"><ele>9.0</ele><time>2026-05-01T08:04:36.749Z</time></trkpt><trkpt lat="44.8212167" lon="11.5972833"><ele>9.666666666666666</ele><time>2026-05-01T08:04:37.752Z</time></trkpt><trkpt lat="44.821125" lon="11.5975183"><ele>10.333333333333332</ele><time>2026-05-01T08:04:38.75Z</time></trkpt><trkpt lat="44.8210367" lon="11.59775"><ele>11.0</ele><time>2026-05-01T08:04:39.748Z</time></trkpt><trkpt lat="44.8209483" lon="11.5979817"><ele>9.333333333333332</ele><time>2026-05-01T08:04:40.751Z</time></trkpt><trkpt lat="44.82086" lon="11.5982117"><ele>7.666666666666666</ele><time>2026-05-01T08:04:41.748Z</time></trkpt><trkpt lat="44.8207717" lon="11.59844"><ele>6.0</ele><time>2026-05-01T08:04:42.75Z</time></trkpt><trkpt lat="44.820685" lon="11.5986667"><ele>6.0</ele><time>2026-05-01T08:04:43.747Z</time></trkpt><trkpt lat="44.8206" lon="11.5988917"><ele>6.0</ele><time>2026-05-01T08:04:44.753Z</time></trkpt><trkpt lat="44.820515" lon="11.5991167"><ele>6.0</ele><time>2026-05-01T08:04:45.743Z</time></trkpt><trkpt lat="44.82043" lon="11.5993417"><ele>5.666666666666667</ele><time>2026-05-01T08:04:46.748Z</time></trkpt><trkpt lat="44.8203433" lon="11.5995683"><ele>5.333333333333334</ele><time>2026-05-01T08:04:47.751Z</time></trkpt><trkpt lat="44.820255" lon="11.599795"><ele>5.0</ele><time>2026-05-01T08:04:48.743Z</time></trkpt><trkpt lat="44.820165" lon="11.60002"><ele>5.333333333333334</ele><time>2026-05-01T08:04:49.752Z</time></trkpt><trkpt lat="44.8200767" lon="11.6002483"><ele>5.666666666666667</ele><time>2026-05-01T08:04:50.751Z</time></trkpt><trkpt lat="44.8199867" lon="11.600475"><ele>6.0</ele><time>2026-05-01T08:04:51.751Z</time></trkpt><trkpt lat="44.8198983" lon="11.6007017"><ele>6.0</ele><time>2026-05-01T08:04:52.757Z</time></trkpt><trkpt lat="44.8198133" lon="11.6009283"><ele>6.0</ele><time>2026-05-01T08:04:53.755Z</time></trkpt><trkpt lat="44.8197317" lon="11.6011533"><ele>6.0</ele><time>2026-05-01T08:04:54.758Z</time></trkpt><trkpt lat="44.81965" lon="11.601375"><ele>6.0</ele><time>2026-05-01T08:04:55.75Z</time></trkpt><trkpt lat="44.81957" lon="11.60159"><ele>6.0</ele><time>2026-05-01T08:04:56.751Z</time></trkpt><trkpt lat="44.81949" lon="11.6018"><ele>6.0</ele><time>2026-05-01T08:04:57.751Z</time></trkpt><trkpt lat="44.8194133" lon="11.602"><ele>6.25</ele><time>2026-05-01T08:04:58.749Z</time></trkpt><trkpt lat="44.81934" lon="11.60219"><ele>6.5</ele><time>2026-05-01T08:04:59.747Z</time></trkpt><trkpt lat="44.819275" lon="11.602355"><ele>6.75</ele><time>2026-05-01T08:05:00.746Z</time></trkpt><trkpt lat="44.8192183" lon="11.602495"><ele>7.0</ele><time>2026-05-01T08:05:01.749Z</time></trkpt><trkpt lat="44.819165" lon="11.6026067"><ele>7.0</ele><time>2026-05-01T08:05:02.751Z</time></trkpt><trkpt lat="44.819105" lon="11.6026933"><ele>6.999999999999999</ele><time>2026-05-01T08:05:03.745Z</time></trkpt><trkpt lat="44.8190317" lon="11.6027567"><ele>6.999999999999999</ele><time>2026-05-01T08:05:04.742Z</time></trkpt><trkpt lat="44.8189467" lon="11.6028167"><ele>7.0</ele><time>2026-05-01T08:05:05.751Z</time></trkpt><trkpt lat="44.8188633" lon="11.6028933"><ele>7.0</ele><time>2026-05-01T08:05:06.754Z</time></trkpt><trkpt lat="44.81879" lon="11.6029933"><ele>7.0</ele><time>2026-05-01T08:05:07.751Z</time></trkpt><trkpt lat="44.8187367" lon="11.603125"><ele>7.0</ele><time>2026-05-01T08:05:08.742Z</time></trkpt><trkpt lat="44.8187133" lon="11.6032683"><ele>7.0</ele><time>2026-05-01T08:05:09.748Z</time></trkpt><trkpt lat="44.8187167" lon="11.60342"><ele>7.0</ele><time>2026-05-01T08:05:10.745Z</time></trkpt><trkpt lat="44.8187367" lon="11.6037433"><ele>7.75</ele><time>2026-05-01T08:05:12.756Z</time></trkpt><trkpt lat="44.8187133" lon="11.6039033"><ele>8.5</ele><time>2026-05-01T08:05:13.753Z</time></trkpt><trkpt lat="44.8186667" lon="11.6040583"><ele>9.25</ele><time>2026-05-01T08:05:14.755Z</time></trkpt><trkpt lat="44.8186067" lon="11.604215"><ele>10.0</ele><time>2026-05-01T08:05:15.75Z</time></trkpt><trkpt lat="44.8185433" lon="11.6043767"><ele>10.75</ele><time>2026-05-01T08:05:16.746Z</time></trkpt><trkpt lat="44.8184767" lon="11.6045433"><ele>11.5</ele><time>2026-05-01T08:05:17.75Z</time></trkpt><trkpt lat="44.8184117" lon="11.6047117"><ele>12.25</ele><time>2026-05-01T08:05:18.752Z</time></trkpt><trkpt lat="44.8183483" lon="11.6048767"><ele>13.0</ele><time>2026-05-01T08:05:19.749Z</time></trkpt><trkpt lat="44.8182867" lon="11.6050467"><ele>13.0</ele><time>2026-05-01T08:05:20.749Z</time></trkpt><trkpt lat="44.8182233" lon="11.6052133"><ele>13.0</ele><time>2026-05-01T08:05:21.75Z</time></trkpt><trkpt lat="44.81816" lon="11.6053817"><ele>13.0</ele><time>2026-05-01T08:05:22.748Z</time></trkpt><trkpt lat="44.8180983" lon="11.6055533"><ele>13.0</ele><time>2026-05-01T08:05:23.748Z</time></trkpt><trkpt lat="44.818035" lon="11.6057233"><ele>12.25</ele><time>2026-05-01T08:05:24.751Z</time></trkpt><trkpt lat="44.81797" lon="11.60589"><ele>11.5</ele><time>2026-05-01T08:05:25.754Z</time></trkpt><trkpt lat="44.817905" lon="11.6060583"><ele>10.75</ele><time>2026-05-01T08:05:26.753Z</time></trkpt><trkpt lat="44.81784" lon="11.60623"><ele>10.0</ele><time>2026-05-01T08:05:27.749Z</time></trkpt><trkpt lat="44.8177733" lon="11.606405"><ele>9.5</ele><time>2026-05-01T08:05:28.741Z</time></trkpt><trkpt lat="44.81771" lon="11.6065767"><ele>9.0</ele><time>2026-05-01T08:05:29.741Z</time></trkpt><trkpt lat="44.8176483" lon="11.6067467"><ele>8.5</ele><time>2026-05-01T08:05:30.75Z</time></trkpt><trkpt lat="44.8175833" lon="11.60692"><ele>8.0</ele><time>2026-05-01T08:05:31.749Z</time></trkpt><trkpt lat="44.817515" lon="11.6070933"><ele>8.0</ele><time>2026-05-01T08:05:32.747Z</time></trkpt><trkpt lat="44.8174467" lon="11.6072667"><ele>8.0</ele><time>2026-05-01T08:05:33.741Z</time></trkpt><trkpt lat="44.8173783" lon="11.6074467"><ele>8.0</ele><time>2026-05-01T08:05:34.746Z</time></trkpt><trkpt lat="44.8173067" lon="11.60763"><ele>8.0</ele><time>2026-05-01T08:05:35.749Z</time></trkpt><trkpt lat="44.817235" lon="11.607815"><ele>8.0</ele><time>2026-05-01T08:05:36.752Z</time></trkpt><trkpt lat="44.8171633" lon="11.607995"><ele>8.0</ele><time>2026-05-01T08:05:37.748Z</time></trkpt><trkpt lat="44.8170933" lon="11.6081783"><ele>8.0</ele><time>2026-05-01T08:05:38.744Z</time></trkpt><trkpt lat="44.8170217" lon="11.6083683"><ele>8.0</ele><time>2026-05-01T08:05:39.747Z</time></trkpt><trkpt lat="44.8169517" lon="11.60856"><ele>8.0</ele><time>2026-05-01T08:05:40.748Z</time></trkpt><trkpt lat="44.8168833" lon="11.6087583"><ele>8.0</ele><time>2026-05-01T08:05:41.747Z</time></trkpt><trkpt lat="44.81682" lon="11.6089567"><ele>8.0</ele><time>2026-05-01T08:05:42.746Z</time></trkpt><trkpt lat="44.81676" lon="11.6091517"><ele>7.5</ele><time>2026-05-01T08:05:43.751Z</time></trkpt><trkpt lat="44.8167033" lon="11.6093467"><ele>7.0</ele><time>2026-05-01T08:05:44.753Z</time></trkpt><trkpt lat="44.8166483" lon="11.6095417"><ele>6.5</ele><time>2026-05-01T08:05:45.751Z</time></trkpt><trkpt lat="44.8165967" lon="11.6097367"><ele>6.0</ele><time>2026-05-01T08:05:46.741Z</time></trkpt><trkpt lat="44.816545" lon="11.6099367"><ele>6.0</ele><time>2026-05-01T08:05:47.752Z</time></trkpt><trkpt lat="44.8164933" lon="11.61014"><ele>6.0</ele><time>2026-05-01T08:05:48.748Z</time></trkpt><trkpt lat="44.8164483" lon="11.610355"><ele>6.0</ele><time>2026-05-01T08:05:49.748Z</time></trkpt><trkpt lat="44.816405" lon="11.6105733"><ele>6.666666666666666</ele><time>2026-05-01T08:05:50.756Z</time></trkpt><trkpt lat="44.8163633" lon="11.6107917"><ele>7.333333333333333</ele><time>2026-05-01T08:05:51.753Z</time></trkpt><trkpt lat="44.8163217" lon="11.611015"><ele>8.0</ele><time>2026-05-01T08:05:52.746Z</time></trkpt><trkpt lat="44.8162833" lon="11.611245"><ele>8.333333333333332</ele><time>2026-05-01T08:05:53.742Z</time></trkpt><trkpt lat="44.8162517" lon="11.61148"><ele>8.666666666666666</ele><time>2026-05-01T08:05:54.765Z</time></trkpt><trkpt lat="44.816225" lon="11.6117167"><ele>9.0</ele><time>2026-05-01T08:05:55.751Z</time></trkpt><trkpt lat="44.8162017" lon="11.6119567"><ele>8.666666666666666</ele><time>2026-05-01T08:05:56.751Z</time></trkpt><trkpt lat="44.8161817" lon="11.612195"><ele>8.333333333333332</ele><time>2026-05-01T08:05:57.751Z</time></trkpt><trkpt lat="44.8161667" lon="11.6124317"><ele>8.0</ele><time>2026-05-01T08:05:58.753Z</time></trkpt><trkpt lat="44.816155" lon="11.612665"><ele>7.0</ele><time>2026-05-01T08:05:59.753Z</time></trkpt><trkpt lat="44.8161483" lon="11.6129"><ele>6.0</ele><time>2026-05-01T08:06:00.745Z</time></trkpt><trkpt lat="44.8161433" lon="11.6131317"><ele>5.0</ele><time>2026-05-01T08:06:01.743Z</time></trkpt><trkpt lat="44.8161433" lon="11.613365"><ele>5.0</ele><time>2026-05-01T08:06:02.742Z</time></trkpt><trkpt lat="44.8161467" lon="11.613595"><ele>5.0</ele><time>2026-05-01T08:06:03.75Z</time></trkpt><trkpt lat="44.8161533" lon="11.6138267"><ele>5.0</ele><time>2026-05-01T08:06:04.749Z</time></trkpt><trkpt lat="44.8161633" lon="11.6140617"><ele>5.0</ele><time>2026-05-01T08:06:05.75Z</time></trkpt><trkpt lat="44.8161717" lon="11.6142983"><ele>5.0</ele><time>2026-05-01T08:06:06.748Z</time></trkpt><trkpt lat="44.8161833" lon="11.6145367"><ele>5.0</ele><time>2026-05-01T08:06:07.747Z</time></trkpt><trkpt lat="44.8161917" lon="11.614775"><ele>4.666666666666667</ele><time>2026-05-01T08:06:08.749Z</time></trkpt><trkpt lat="44.8162017" lon="11.6150117"><ele>4.333333333333333</ele><time>2026-05-01T08:06:09.747Z</time></trkpt><trkpt lat="44.81621" lon="11.6152483"><ele>4.0</ele><time>2026-05-01T08:06:10.755Z</time></trkpt><trkpt lat="44.81622" lon="11.6154833"><ele>5.0</ele><time>2026-05-01T08:06:11.749Z</time></trkpt><trkpt lat="44.8162367" lon="11.6159483"><ele>6.0</ele><time>2026-05-01T08:06:13.753Z</time></trkpt><trkpt lat="44.8162433" lon="11.6161783"><ele>6.0</ele><time>2026-05-01T08:06:14.756Z</time></trkpt><trkpt lat="44.8162517" lon="11.6164033"><ele>6.0</ele><time>2026-05-01T08:06:15.75Z</time></trkpt><trkpt lat="44.81626" lon="11.616625"><ele>6.0</ele><time>2026-05-01T08:06:16.753Z</time></trkpt><trkpt lat="44.81627" lon="11.616845"><ele>6.666666666666666</ele><time>2026-05-01T08:06:17.749Z</time></trkpt><trkpt lat="44.8162783" lon="11.617065"><ele>7.333333333333333</ele><time>2026-05-01T08:06:18.747Z</time></trkpt><trkpt lat="44.8162833" lon="11.6172867"><ele>8.0</ele><time>2026-05-01T08:06:19.748Z</time></trkpt><trkpt lat="44.81629" lon="11.61751"><ele>8.0</ele><time>2026-05-01T08:06:20.752Z</time></trkpt><trkpt lat="44.8163" lon="11.617735"><ele>8.0</ele><time>2026-05-01T08:06:21.749Z</time></trkpt><trkpt lat="44.8163117" lon="11.617965"><ele>8.0</ele><time>2026-05-01T08:06:22.742Z</time></trkpt><trkpt lat="44.81632" lon="11.6182"><ele>7.666666666666666</ele><time>2026-05-01T08:06:23.751Z</time></trkpt><trkpt lat="44.81633" lon="11.6184367"><ele>7.333333333333334</ele><time>2026-05-01T08:06:24.743Z</time></trkpt><trkpt lat="44.8163383" lon="11.618675"><ele>7.0</ele><time>2026-05-01T08:06:25.747Z</time></trkpt><trkpt lat="44.8163483" lon="11.6189167"><ele>7.0</ele><time>2026-05-01T08:06:26.752Z</time></trkpt><trkpt lat="44.8163567" lon="11.6191633"><ele>7.0</ele><time>2026-05-01T08:06:27.748Z</time></trkpt><trkpt lat="44.816365" lon="11.6194067"><ele>7.0</ele><time>2026-05-01T08:06:28.748Z</time></trkpt><trkpt lat="44.8163717" lon="11.6196483"><ele>6.666666666666667</ele><time>2026-05-01T08:06:29.748Z</time></trkpt><trkpt lat="44.8163783" lon="11.6198933"><ele>6.333333333333334</ele><time>2026-05-01T08:06:30.751Z</time></trkpt><trkpt lat="44.8163817" lon="11.6201417"><ele>6.0</ele><time>2026-05-01T08:06:31.749Z</time></trkpt><trkpt lat="44.8163833" lon="11.62039"><ele>5.333333333333333</ele><time>2026-05-01T08:06:32.748Z</time></trkpt><trkpt lat="44.8163817" lon="11.6206283"><ele>4.666666666666666</ele><time>2026-05-01T08:06:33.741Z</time></trkpt><trkpt lat="44.8163767" lon="11.620855"><ele>4.0</ele><time>2026-05-01T08:06:34.751Z</time></trkpt><trkpt lat="44.8163717" lon="11.6210783"><ele>4.666666666666666</ele><time>2026-05-01T08:06:35.749Z</time></trkpt><trkpt lat="44.816365" lon="11.6212967"><ele>5.333333333333333</ele><time>2026-05-01T08:06:36.748Z</time></trkpt><trkpt lat="44.816355" lon="11.6215167"><ele>6.0</ele><time>2026-05-01T08:06:37.742Z</time></trkpt><trkpt lat="44.8163417" lon="11.6217467"><ele>6.333333333333334</ele><time>2026-05-01T08:06:38.742Z</time></trkpt><trkpt lat="44.81633" lon="11.6219867"><ele>6.666666666666667</ele><time>2026-05-01T08:06:39.752Z</time></trkpt><trkpt lat="44.816315" lon="11.6222383"><ele>7.0</ele><time>2026-05-01T08:06:40.753Z</time></trkpt><trkpt lat="44.816295" lon="11.6224967"><ele>7.0</ele><time>2026-05-01T08:06:41.751Z</time></trkpt><trkpt lat="44.8162717" lon="11.6227583"><ele>7.0</ele><time>2026-05-01T08:06:42.751Z</time></trkpt><trkpt lat="44.8162467" lon="11.62302"><ele>7.0</ele><time>2026-05-01T08:06:43.751Z</time></trkpt><trkpt lat="44.81622" lon="11.6232833"><ele>6.666666666666667</ele><time>2026-05-01T08:06:44.753Z</time></trkpt><trkpt lat="44.8161917" lon="11.6235483"><ele>6.333333333333334</ele><time>2026-05-01T08:06:45.751Z</time></trkpt><trkpt lat="44.81616" lon="11.6238167"><ele>6.0</ele><time>2026-05-01T08:06:46.749Z</time></trkpt><trkpt lat="44.8161217" lon="11.6240867"><ele>6.0</ele><time>2026-05-01T08:06:47.752Z</time></trkpt><trkpt lat="44.8160817" lon="11.62436"><ele>6.0</ele><time>2026-05-01T08:06:48.742Z</time></trkpt><trkpt lat="44.8160383" lon="11.6246317"><ele>6.0</ele><time>2026-05-01T08:06:49.751Z</time></trkpt><trkpt lat="44.8159933" lon="11.6249033"><ele>6.0</ele><time>2026-05-01T08:06:50.755Z</time></trkpt><trkpt lat="44.815945" lon="11.6251683"><ele>6.0</ele><time>2026-05-01T08:06:51.751Z</time></trkpt><trkpt lat="44.8158983" lon="11.6254283"><ele>6.0</ele><time>2026-05-01T08:06:52.75Z</time></trkpt><trkpt lat="44.81585" lon="11.6256783"><ele>6.0</ele><time>2026-05-01T08:06:53.743Z</time></trkpt><trkpt lat="44.8158017" lon="11.6259167"><ele>6.0</ele><time>2026-05-01T08:06:54.758Z</time></trkpt><trkpt lat="44.81575" lon="11.6261417"><ele>6.0</ele><time>2026-05-01T08:06:55.742Z</time></trkpt><trkpt lat="44.8157" lon="11.6263517"><ele>6.0</ele><time>2026-05-01T08:06:56.752Z</time></trkpt><trkpt lat="44.8156483" lon="11.6265467"><ele>6.0</ele><time>2026-05-01T08:06:57.745Z</time></trkpt><trkpt lat="44.8155967" lon="11.6267183"><ele>6.0</ele><time>2026-05-01T08:06:58.75Z</time></trkpt><trkpt lat="44.81555" lon="11.6268617"><ele>6.0</ele><time>2026-05-01T08:06:59.751Z</time></trkpt><trkpt lat="44.8155033" lon="11.6269767"><ele>6.285714285714285</ele><time>2026-05-01T08:07:00.754Z</time></trkpt><trkpt lat="44.8154583" lon="11.6270617"><ele>6.571428571428571</ele><time>2026-05-01T08:07:01.752Z</time></trkpt><trkpt lat="44.8154133" lon="11.6271317"><ele>6.857142857142857</ele><time>2026-05-01T08:07:02.755Z</time></trkpt><trkpt lat="44.8153633" lon="11.6271983"><ele>7.142857142857142</ele><time>2026-05-01T08:07:03.753Z</time></trkpt><trkpt lat="44.81531" lon="11.6272733"><ele>7.428571428571428</ele><time>2026-05-01T08:07:04.749Z</time></trkpt><trkpt lat="44.8152667" lon="11.6273667"><ele>7.7142857142857135</ele><time>2026-05-01T08:07:05.742Z</time></trkpt><trkpt lat="44.8152367" lon="11.6274667"><ele>8.0</ele><time>2026-05-01T08:07:06.743Z</time></trkpt><trkpt lat="44.81523" lon="11.6275717"><ele>7.999999999999999</ele><time>2026-05-01T08:07:07.745Z</time></trkpt><trkpt lat="44.8152467" lon="11.6276767"><ele>8.0</ele><time>2026-05-01T08:07:08.744Z</time></trkpt><trkpt lat="44.8152683" lon="11.627785"><ele>8.0</ele><time>2026-05-01T08:07:09.743Z</time></trkpt><trkpt lat="44.81528" lon="11.6279017"><ele>8.0</ele><time>2026-05-01T08:07:10.743Z</time></trkpt><trkpt lat="44.815275" lon="11.6280167"><ele>7.999999999999999</ele><time>2026-05-01T08:07:11.744Z</time></trkpt><trkpt lat="44.8152517" lon="11.628135"><ele>8.0</ele><time>2026-05-01T08:07:12.743Z</time></trkpt><trkpt lat="44.8152183" lon="11.6282567"><ele>8.0</ele><time>2026-05-01T08:07:13.742Z</time></trkpt><trkpt lat="44.8151833" lon="11.6283783"><ele>8.0</ele><time>2026-05-01T08:07:14.743Z</time></trkpt><trkpt lat="44.81515" lon="11.6285033"><ele>8.0</ele><time>2026-05-01T08:07:15.743Z</time></trkpt><trkpt lat="44.8151133" lon="11.6286333"><ele>8.0</ele><time>2026-05-01T08:07:16.742Z</time></trkpt><trkpt lat="44.8150767" lon="11.62877"><ele>8.0</ele><time>2026-05-01T08:07:17.742Z</time></trkpt><trkpt lat="44.8150333" lon="11.628915"><ele>7.800000000000001</ele><time>2026-05-01T08:07:18.744Z</time></trkpt><trkpt lat="44.8149883" lon="11.6290617"><ele>7.6000000000000005</ele><time>2026-05-01T08:07:19.743Z</time></trkpt><trkpt lat="44.814945" lon="11.6292067"><ele>7.3999999999999995</ele><time>2026-05-01T08:07:20.741Z</time></trkpt><trkpt lat="44.8149033" lon="11.62935"><ele>7.199999999999999</ele><time>2026-05-01T08:07:21.743Z</time></trkpt><trkpt lat="44.8148633" lon="11.629495"><ele>7.0</ele><time>2026-05-01T08:07:22.743Z</time></trkpt><trkpt lat="44.8148233" lon="11.6296433"><ele>7.0</ele><time>2026-05-01T08:07:23.742Z</time></trkpt><trkpt lat="44.8147817" lon="11.6297933"><ele>7.0</ele><time>2026-05-01T08:07:24.742Z</time></trkpt><trkpt lat="44.8147367" lon="11.629945"><ele>7.0</ele><time>2026-05-01T08:07:25.741Z</time></trkpt><trkpt lat="44.8146917" lon="11.6300933"><ele>7.0</ele><time>2026-05-01T08:07:26.753Z</time></trkpt><trkpt lat="44.8146467" lon="11.6302333"><ele>7.0</ele><time>2026-05-01T08:07:27.756Z</time></trkpt><trkpt lat="44.8146" lon="11.6303617"><ele>6.999999999999999</ele><time>2026-05-01T08:07:28.75Z</time></trkpt><trkpt lat="44.814555" lon="11.6304867"><ele>6.999999999999999</ele><time>2026-05-01T08:07:29.742Z</time></trkpt><trkpt lat="44.8145067" lon="11.6306267"><ele>7.0</ele><time>2026-05-01T08:07:30.742Z</time></trkpt><trkpt lat="44.8144583" lon="11.6307717"><ele>7.0</ele><time>2026-05-01T08:07:31.753Z</time></trkpt><trkpt lat="44.814405" lon="11.630927"><ele>7.0</ele><time>2026-05-01T08:07:32.759Z</time></trkpt><trkpt lat="44.8143431" lon="11.6310826"><ele>7.0</ele><time>2026-05-01T08:07:33.75Z</time></trkpt><trkpt lat="44.8142761" lon="11.631239"><ele>7.0</ele><time>2026-05-01T08:07:34.748Z</time></trkpt><trkpt lat="44.8141935" lon="11.6313827"><ele>7.0</ele><time>2026-05-01T08:07:35.752Z</time></trkpt><trkpt lat="44.8140936" lon="11.631504"><ele>7.0</ele><time>2026-05-01T08:07:36.75Z</time></trkpt><trkpt lat="44.8139797" lon="11.6316031"><ele>7.0</ele><time>2026-05-01T08:07:37.752Z</time></trkpt><trkpt lat="44.8138568" lon="11.6316893"><ele>7.0</ele><time>2026-05-01T08:07:38.742Z</time></trkpt><trkpt lat="44.8137247" lon="11.6317789"><ele>7.0</ele><time>2026-05-01T08:07:39.752Z</time></trkpt><trkpt lat="44.8135866" lon="11.6318715"><ele>6.666666666666667</ele><time>2026-05-01T08:07:40.75Z</time></trkpt><trkpt lat="44.813443" lon="11.631966"><ele>6.333333333333334</ele><time>2026-05-01T08:07:41.749Z</time></trkpt><trkpt lat="44.8132977" lon="11.6320677"><ele>6.0</ele><time>2026-05-01T08:07:42.741Z</time></trkpt><trkpt lat="44.8129983" lon="11.6322881"><ele>5.666666666666667</ele><time>2026-05-01T08:07:44.755Z</time></trkpt><trkpt lat="44.8128475" lon="11.6324025"><ele>5.333333333333334</ele><time>2026-05-01T08:07:45.758Z</time></trkpt><trkpt lat="44.8127" lon="11.6325193"><ele>5.0</ele><time>2026-05-01T08:07:46.751Z</time></trkpt><trkpt lat="44.8125554" lon="11.6326445"><ele>5.666666666666667</ele><time>2026-05-01T08:07:47.754Z</time></trkpt><trkpt lat="44.8124142" lon="11.632779"><ele>6.333333333333334</ele><time>2026-05-01T08:07:48.754Z</time></trkpt><trkpt lat="44.8122749" lon="11.6329195"><ele>7.0</ele><time>2026-05-01T08:07:49.741Z</time></trkpt><trkpt lat="44.8121358" lon="11.6330693"><ele>7.0</ele><time>2026-05-01T08:07:50.754Z</time></trkpt><trkpt lat="44.8120014" lon="11.6332168"><ele>7.0</ele><time>2026-05-01T08:07:51.745Z</time></trkpt><trkpt lat="44.8118633" lon="11.6333682"><ele>7.0</ele><time>2026-05-01T08:07:52.745Z</time></trkpt><trkpt lat="44.8117207" lon="11.6335234"><ele>7.0</ele><time>2026-05-01T08:07:53.75Z</time></trkpt><trkpt lat="44.8115773" lon="11.6336822"><ele>7.0</ele><time>2026-05-01T08:07:54.75Z</time></trkpt><trkpt lat="44.8114354" lon="11.6338438"><ele>7.0</ele><time>2026-05-01T08:07:55.748Z</time></trkpt><trkpt lat="44.8112925" lon="11.6340029"><ele>7.0</ele><time>2026-05-01T08:07:56.748Z</time></trkpt><trkpt lat="44.8111473" lon="11.634161"><ele>7.0</ele><time>2026-05-01T08:07:57.748Z</time></trkpt><trkpt lat="44.8110061" lon="11.6343182"><ele>7.0</ele><time>2026-05-01T08:07:58.748Z</time></trkpt><trkpt lat="44.8108667" lon="11.6344716"><ele>7.0</ele><time>2026-05-01T08:07:59.75Z</time></trkpt><trkpt lat="44.8107292" lon="11.634612"><ele>7.0</ele><time>2026-05-01T08:08:00.748Z</time></trkpt><trkpt lat="44.8105819" lon="11.6347237"><ele>7.0</ele><time>2026-05-01T08:08:01.751Z</time></trkpt><trkpt lat="44.8104297" lon="11.6348231"><ele>7.0</ele><time>2026-05-01T08:08:02.756Z</time></trkpt><trkpt lat="44.8102644" lon="11.6348853"><ele>7.0</ele><time>2026-05-01T08:08:03.75Z</time></trkpt><trkpt lat="44.8100899" lon="11.6349381"><ele>7.0</ele><time>2026-05-01T08:08:04.75Z</time></trkpt><trkpt lat="44.8099106" lon="11.6349895"><ele>7.333333333333334</ele><time>2026-05-01T08:08:05.749Z</time></trkpt><trkpt lat="44.809728" lon="11.6350409"><ele>7.666666666666666</ele><time>2026-05-01T08:08:06.743Z</time></trkpt><trkpt lat="44.8095411" lon="11.6350917"><ele>8.0</ele><time>2026-05-01T08:08:07.752Z</time></trkpt><trkpt lat="44.8093537" lon="11.6351434"><ele>7.333333333333333</ele><time>2026-05-01T08:08:08.751Z</time></trkpt><trkpt lat="44.8091626" lon="11.635196"><ele>6.666666666666666</ele><time>2026-05-01T08:08:09.747Z</time></trkpt><trkpt lat="44.8089689" lon="11.6352493"><ele>6.0</ele><time>2026-05-01T08:08:10.748Z</time></trkpt><trkpt lat="44.8087739" lon="11.6353046"><ele>5.666666666666667</ele><time>2026-05-01T08:08:11.742Z</time></trkpt><trkpt lat="44.8085764" lon="11.6353602"><ele>5.333333333333334</ele><time>2026-05-01T08:08:12.745Z</time></trkpt><trkpt lat="44.8083795" lon="11.6354173"><ele>5.0</ele><time>2026-05-01T08:08:13.743Z</time></trkpt><trkpt lat="44.8081802" lon="11.6354792"><ele>5.0</ele><time>2026-05-01T08:08:14.751Z</time></trkpt><trkpt lat="44.8079808" lon="11.6355436"><ele>5.0</ele><time>2026-05-01T08:08:15.751Z</time></trkpt><trkpt lat="44.8077793" lon="11.6356089"><ele>5.0</ele><time>2026-05-01T08:08:16.751Z</time></trkpt><trkpt lat="44.8075771" lon="11.6356744"><ele>5.333333333333334</ele><time>2026-05-01T08:08:17.753Z</time></trkpt><trkpt lat="44.8073762" lon="11.6357412"><ele>5.666666666666667</ele><time>2026-05-01T08:08:18.753Z</time></trkpt><trkpt lat="44.8071762" lon="11.6358115"><ele>6.0</ele><time>2026-05-01T08:08:19.746Z</time></trkpt><trkpt lat="44.8069735" lon="11.6358728"><ele>6.333333333333334</ele><time>2026-05-01T08:08:20.742Z</time></trkpt><trkpt lat="44.8067679" lon="11.635923"><ele>6.666666666666667</ele><time>2026-05-01T08:08:21.75Z</time></trkpt><trkpt lat="44.8065592" lon="11.6359662"><ele>7.0</ele><time>2026-05-01T08:08:22.751Z</time></trkpt><trkpt lat="44.8063469" lon="11.6359982"><ele>7.0</ele><time>2026-05-01T08:08:23.752Z</time></trkpt><trkpt lat="44.8061344" lon="11.6360238"><ele>7.0</ele><time>2026-05-01T08:08:24.75Z</time></trkpt><trkpt lat="44.8059208" lon="11.6360444"><ele>7.0</ele><time>2026-05-01T08:08:25.749Z</time></trkpt><trkpt lat="44.8057086" lon="11.6360666"><ele>6.0</ele><time>2026-05-01T08:08:26.753Z</time></trkpt><trkpt lat="44.8055007" lon="11.6360922"><ele>5.0</ele><time>2026-05-01T08:08:27.755Z</time></trkpt><trkpt lat="44.8052957" lon="11.6361201"><ele>4.0</ele><time>2026-05-01T08:08:28.749Z</time></trkpt><trkpt lat="44.8050922" lon="11.6361454"><ele>3.6666666666666665</ele><time>2026-05-01T08:08:29.743Z</time></trkpt><trkpt lat="44.8048891" lon="11.636168"><ele>3.333333333333333</ele><time>2026-05-01T08:08:30.752Z</time></trkpt><trkpt lat="44.804687" lon="11.636189"><ele>3.0</ele><time>2026-05-01T08:08:31.751Z</time></trkpt><trkpt lat="44.8044851" lon="11.6362133"><ele>3.333333333333333</ele><time>2026-05-01T08:08:32.743Z</time></trkpt><trkpt lat="44.804281" lon="11.6362436"><ele>3.6666666666666665</ele><time>2026-05-01T08:08:33.751Z</time></trkpt><trkpt lat="44.8040771" lon="11.6362754"><ele>4.0</ele><time>2026-05-01T08:08:34.751Z</time></trkpt><trkpt lat="44.8038777" lon="11.636303"><ele>4.0</ele><time>2026-05-01T08:08:35.743Z</time></trkpt><trkpt lat="44.8036836" lon="11.6363228"><ele>4.0</ele><time>2026-05-01T08:08:36.753Z</time></trkpt><trkpt lat="44.8034982" lon="11.6363401"><ele>4.0</ele><time>2026-05-01T08:08:37.749Z</time></trkpt><trkpt lat="44.803321" lon="11.6363577"><ele>3.6666666666666665</ele><time>2026-05-01T08:08:38.752Z</time></trkpt><trkpt lat="44.8031531" lon="11.636373"><ele>3.333333333333333</ele><time>2026-05-01T08:08:39.743Z</time></trkpt><trkpt lat="44.8029883" lon="11.636392"><ele>3.0</ele><time>2026-05-01T08:08:40.753Z</time></trkpt><trkpt lat="44.8028251" lon="11.6364078"><ele>3.333333333333333</ele><time>2026-05-01T08:08:41.75Z</time></trkpt><trkpt lat="44.802662" lon="11.6364231"><ele>3.6666666666666665</ele><time>2026-05-01T08:08:42.75Z</time></trkpt><trkpt lat="44.8024954" lon="11.6364393"><ele>4.0</ele><time>2026-05-01T08:08:43.755Z</time></trkpt><trkpt lat="44.8023255" lon="11.6364559"><ele>4.0</ele><time>2026-05-01T08:08:44.748Z</time></trkpt><trkpt lat="44.8021543" lon="11.6364727"><ele>4.0</ele><time>2026-05-01T08:08:45.75Z</time></trkpt><trkpt lat="44.8019808" lon="11.6364921"><ele>4.0</ele><time>2026-05-01T08:08:46.753Z</time></trkpt><trkpt lat="44.8018042" lon="11.6365136"><ele>4.333333333333333</ele><time>2026-05-01T08:08:47.75Z</time></trkpt><trkpt lat="44.8016268" lon="11.6365332"><ele>4.666666666666667</ele><time>2026-05-01T08:08:48.75Z</time></trkpt><trkpt lat="44.8014501" lon="11.6365504"><ele>5.0</ele><time>2026-05-01T08:08:49.743Z</time></trkpt><trkpt lat="44.8012738" lon="11.6365672"><ele>5.0</ele><time>2026-05-01T08:08:50.753Z</time></trkpt><trkpt lat="44.8010988" lon="11.6365846"><ele>5.0</ele><time>2026-05-01T08:08:51.742Z</time></trkpt><trkpt lat="44.8009204" lon="11.6366046"><ele>5.0</ele><time>2026-05-01T08:08:52.743Z</time></trkpt><trkpt lat="44.8007409" lon="11.6366247"><ele>5.0</ele><time>2026-05-01T08:08:53.752Z</time></trkpt><trkpt lat="44.8005609" lon="11.6366447"><ele>5.0</ele><time>2026-05-01T08:08:54.751Z</time></trkpt><trkpt lat="44.8003789" lon="11.6366628"><ele>5.0</ele><time>2026-05-01T08:08:55.744Z</time></trkpt><trkpt lat="44.8001959" lon="11.6366822"><ele>5.0</ele><time>2026-05-01T08:08:56.751Z</time></trkpt><trkpt lat="44.8000176" lon="11.6367018"><ele>5.0</ele><time>2026-05-01T08:08:57.751Z</time></trkpt><trkpt lat="44.7998411" lon="11.6367205"><ele>5.0</ele><time>2026-05-01T08:08:58.748Z</time></trkpt><trkpt lat="44.799667" lon="11.6367361"><ele>5.0</ele><time>2026-05-01T08:08:59.751Z</time></trkpt><trkpt lat="44.7994963" lon="11.6367512"><ele>5.0</ele><time>2026-05-01T08:09:00.75Z</time></trkpt><trkpt lat="44.7993273" lon="11.6367689"><ele>5.0</ele><time>2026-05-01T08:09:01.746Z</time></trkpt><trkpt lat="44.7991585" lon="11.6367846"><ele>4.666666666666667</ele><time>2026-05-01T08:09:02.749Z</time></trkpt><trkpt lat="44.7989868" lon="11.6368015"><ele>4.333333333333333</ele><time>2026-05-01T08:09:03.751Z</time></trkpt><trkpt lat="44.7988128" lon="11.6368295"><ele>4.0</ele><time>2026-05-01T08:09:04.752Z</time></trkpt><trkpt lat="44.7986389" lon="11.6368623"><ele>4.0</ele><time>2026-05-01T08:09:05.755Z</time></trkpt><trkpt lat="44.7984684" lon="11.636893"><ele>4.0</ele><time>2026-05-01T08:09:06.751Z</time></trkpt><trkpt lat="44.7982995" lon="11.636916"><ele>4.0</ele><time>2026-05-01T08:09:07.752Z</time></trkpt><trkpt lat="44.7981313" lon="11.6369353"><ele>4.0</ele><time>2026-05-01T08:09:08.754Z</time></trkpt><trkpt lat="44.797964" lon="11.6369546"><ele>4.0</ele><time>2026-05-01T08:09:09.748Z</time></trkpt><trkpt lat="44.7977995" lon="11.6369716"><ele>4.0</ele><time>2026-05-01T08:09:10.744Z</time></trkpt><trkpt lat="44.7976359" lon="11.6369856"><ele>3.333333333333333</ele><time>2026-05-01T08:09:11.747Z</time></trkpt><trkpt lat="44.7974724" lon="11.6370004"><ele>2.6666666666666665</ele><time>2026-05-01T08:09:12.754Z</time></trkpt><trkpt lat="44.7973091" lon="11.6370139"><ele>2.0</ele><time>2026-05-01T08:09:13.744Z</time></trkpt><trkpt lat="44.797143" lon="11.6370282"><ele>2.0</ele><time>2026-05-01T08:09:14.745Z</time></trkpt><trkpt lat="44.7969726" lon="11.6370449"><ele>2.0</ele><time>2026-05-01T08:09:15.744Z</time></trkpt><trkpt lat="44.7967984" lon="11.6370617"><ele>2.0</ele><time>2026-05-01T08:09:16.741Z</time></trkpt><trkpt lat="44.7966207" lon="11.6370776"><ele>3.0</ele><time>2026-05-01T08:09:17.75Z</time></trkpt><trkpt lat="44.7964448" lon="11.6370949"><ele>4.0</ele><time>2026-05-01T08:09:18.748Z</time></trkpt><trkpt lat="44.7962729" lon="11.6371108"><ele>5.0</ele><time>2026-05-01T08:09:19.749Z</time></trkpt><trkpt lat="44.7961063" lon="11.6371271"><ele>5.666666666666667</ele><time>2026-05-01T08:09:20.744Z</time></trkpt><trkpt lat="44.7959446" lon="11.6371454"><ele>6.333333333333334</ele><time>2026-05-01T08:09:21.749Z</time></trkpt><trkpt lat="44.7957857" lon="11.637162"><ele>7.0</ele><time>2026-05-01T08:09:22.748Z</time></trkpt><trkpt lat="44.7956282" lon="11.6371783"><ele>7.0</ele><time>2026-05-01T08:09:23.751Z</time></trkpt><trkpt lat="44.7954726" lon="11.6371941"><ele>7.0</ele><time>2026-05-01T08:09:24.753Z</time></trkpt><trkpt lat="44.7953134" lon="11.63721"><ele>7.0</ele><time>2026-05-01T08:09:25.752Z</time></trkpt><trkpt lat="44.7951515" lon="11.6372256"><ele>6.666666666666667</ele><time>2026-05-01T08:09:26.748Z</time></trkpt><trkpt lat="44.7949883" lon="11.6372357"><ele>6.333333333333334</ele><time>2026-05-01T08:09:27.742Z</time></trkpt><trkpt lat="44.7948207" lon="11.6372492"><ele>6.0</ele><time>2026-05-01T08:09:28.741Z</time></trkpt><trkpt lat="44.7946488" lon="11.6372626"><ele>6.0</ele><time>2026-05-01T08:09:29.751Z</time></trkpt><trkpt lat="44.7944741" lon="11.6372798"><ele>6.0</ele><time>2026-05-01T08:09:30.758Z</time></trkpt><trkpt lat="44.7942998" lon="11.6372972"><ele>6.0</ele><time>2026-05-01T08:09:31.753Z</time></trkpt><trkpt lat="44.7941279" lon="11.6373149"><ele>6.333333333333334</ele><time>2026-05-01T08:09:32.751Z</time></trkpt><trkpt lat="44.7939586" lon="11.6373326"><ele>6.666666666666667</ele><time>2026-05-01T08:09:33.748Z</time></trkpt><trkpt lat="44.7937903" lon="11.6373534"><ele>7.0</ele><time>2026-05-01T08:09:34.755Z</time></trkpt><trkpt lat="44.7936302" lon="11.6373729"><ele>6.333333333333334</ele><time>2026-05-01T08:09:35.748Z</time></trkpt><trkpt lat="44.7934778" lon="11.6373936"><ele>5.666666666666667</ele><time>2026-05-01T08:09:36.743Z</time></trkpt><trkpt lat="44.7933278" lon="11.637413"><ele>5.0</ele><time>2026-05-01T08:09:37.752Z</time></trkpt><trkpt lat="44.7931814" lon="11.6374278"><ele>5.0</ele><time>2026-05-01T08:09:38.749Z</time></trkpt><trkpt lat="44.7930312" lon="11.6374416"><ele>5.0</ele><time>2026-05-01T08:09:39.749Z</time></trkpt><trkpt lat="44.792878" lon="11.6374558"><ele>5.0</ele><time>2026-05-01T08:09:40.75Z</time></trkpt><trkpt lat="44.7927273" lon="11.6374682"><ele>4.5</ele><time>2026-05-01T08:09:41.745Z</time></trkpt><trkpt lat="44.7925826" lon="11.6374798"><ele>4.0</ele><time>2026-05-01T08:09:42.754Z</time></trkpt><trkpt lat="44.7924419" lon="11.637493"><ele>3.5</ele><time>2026-05-01T08:09:43.754Z</time></trkpt><trkpt lat="44.7923027" lon="11.6375013"><ele>3.0</ele><time>2026-05-01T08:09:44.75Z</time></trkpt><trkpt lat="44.7921627" lon="11.6374996"><ele>3.0</ele><time>2026-05-01T08:09:45.75Z</time></trkpt><trkpt lat="44.7920218" lon="11.6374976"><ele>3.0</ele><time>2026-05-01T08:09:46.748Z</time></trkpt><trkpt lat="44.7918739" lon="11.6374978"><ele>3.0</ele><time>2026-05-01T08:09:47.75Z</time></trkpt><trkpt lat="44.7917184" lon="11.6375119"><ele>3.0</ele><time>2026-05-01T08:09:48.749Z</time></trkpt><trkpt lat="44.7915585" lon="11.6375346"><ele>3.333333333333333</ele><time>2026-05-01T08:09:49.748Z</time></trkpt><trkpt lat="44.7913983" lon="11.6375614"><ele>3.6666666666666665</ele><time>2026-05-01T08:09:50.749Z</time></trkpt><trkpt lat="44.7912422" lon="11.6375818"><ele>4.0</ele><time>2026-05-01T08:09:51.743Z</time></trkpt><trkpt lat="44.7910822" lon="11.637596"><ele>4.333333333333333</ele><time>2026-05-01T08:09:52.748Z</time></trkpt><trkpt lat="44.790909" lon="11.637606"><ele>4.666666666666667</ele><time>2026-05-01T08:09:53.748Z</time></trkpt><trkpt lat="44.7907228" lon="11.6376196"><ele>5.0</ele><time>2026-05-01T08:09:54.742Z</time></trkpt><trkpt lat="44.7905275" lon="11.6376324"><ele>5.0</ele><time>2026-05-01T08:09:55.751Z</time></trkpt><trkpt lat="44.7903288" lon="11.6376469"><ele>5.0</ele><time>2026-05-01T08:09:56.743Z</time></trkpt><trkpt lat="44.7901236" lon="11.6376625"><ele>5.0</ele><time>2026-05-01T08:09:57.753Z</time></trkpt><trkpt lat="44.7899169" lon="11.6376812"><ele>4.666666666666667</ele><time>2026-05-01T08:09:58.753Z</time></trkpt><trkpt lat="44.7897091" lon="11.6377041"><ele>4.333333333333333</ele><time>2026-05-01T08:09:59.753Z</time></trkpt><trkpt lat="44.7895016" lon="11.6377316"><ele>4.0</ele><time>2026-05-01T08:10:00.753Z</time></trkpt><trkpt lat="44.7892933" lon="11.6377646"><ele>3.6666666666666665</ele><time>2026-05-01T08:10:01.751Z</time></trkpt><trkpt lat="44.7890883" lon="11.6377995"><ele>3.333333333333333</ele><time>2026-05-01T08:10:02.755Z</time></trkpt><trkpt lat="44.7888922" lon="11.6378323"><ele>3.0</ele><time>2026-05-01T08:10:03.755Z</time></trkpt><trkpt lat="44.7887036" lon="11.6378676"><ele>3.0</ele><time>2026-05-01T08:10:04.751Z</time></trkpt><trkpt lat="44.7885185" lon="11.6379038"><ele>3.0</ele><time>2026-05-01T08:10:05.752Z</time></trkpt><trkpt lat="44.7883331" lon="11.6379469"><ele>3.0</ele><time>2026-05-01T08:10:06.751Z</time></trkpt><trkpt lat="44.7881458" lon="11.6379916"><ele>3.0</ele><time>2026-05-01T08:10:07.751Z</time></trkpt><trkpt lat="44.7879587" lon="11.6380393"><ele>3.0</ele><time>2026-05-01T08:10:08.741Z</time></trkpt><trkpt lat="44.7877715" lon="11.6380905"><ele>3.0</ele><time>2026-05-01T08:10:09.742Z</time></trkpt><trkpt lat="44.7875855" lon="11.6381463"><ele>3.333333333333333</ele><time>2026-05-01T08:10:10.75Z</time></trkpt><trkpt lat="44.7874049" lon="11.6382084"><ele>3.6666666666666665</ele><time>2026-05-01T08:10:11.748Z</time></trkpt><trkpt lat="44.7872251" lon="11.6382743"><ele>4.0</ele><time>2026-05-01T08:10:12.753Z</time></trkpt><trkpt lat="44.7870487" lon="11.6383506"><ele>4.0</ele><time>2026-05-01T08:10:13.751Z</time></trkpt><trkpt lat="44.7868755" lon="11.6384342"><ele>4.0</ele><time>2026-05-01T08:10:14.749Z</time></trkpt><trkpt lat="44.7867081" lon="11.6385263"><ele>4.0</ele><time>2026-05-01T08:10:15.749Z</time></trkpt><trkpt lat="44.7865431" lon="11.6386194"><ele>4.333333333333333</ele><time>2026-05-01T08:10:16.749Z</time></trkpt><trkpt lat="44.7863792" lon="11.6387156"><ele>4.666666666666667</ele><time>2026-05-01T08:10:17.745Z</time></trkpt><trkpt lat="44.7862166" lon="11.6388207"><ele>5.0</ele><time>2026-05-01T08:10:18.748Z</time></trkpt><trkpt lat="44.7860639" lon="11.6389315"><ele>5.0</ele><time>2026-05-01T08:10:19.748Z</time></trkpt><trkpt lat="44.785912" lon="11.6390529"><ele>5.0</ele><time>2026-05-01T08:10:20.755Z</time></trkpt><trkpt lat="44.7857652" lon="11.6391826"><ele>5.0</ele><time>2026-05-01T08:10:21.745Z</time></trkpt><trkpt lat="44.7856169" lon="11.6393184"><ele>5.0</ele><time>2026-05-01T08:10:22.755Z</time></trkpt><trkpt lat="44.78547" lon="11.6394572"><ele>5.0</ele><time>2026-05-01T08:10:23.751Z</time></trkpt><trkpt lat="44.7853235" lon="11.639598"><ele>5.0</ele><time>2026-05-01T08:10:24.749Z</time></trkpt><trkpt lat="44.7851754" lon="11.6397442"><ele>4.666666666666667</ele><time>2026-05-01T08:10:25.747Z</time></trkpt><trkpt lat="44.7850247" lon="11.6398985"><ele>4.333333333333333</ele><time>2026-05-01T08:10:26.749Z</time></trkpt><trkpt lat="44.7848732" lon="11.6400583"><ele>4.0</ele><time>2026-05-01T08:10:27.752Z</time></trkpt><trkpt lat="44.7847234" lon="11.6402177"><ele>4.333333333333333</ele><time>2026-05-01T08:10:28.749Z</time></trkpt><trkpt lat="44.7845796" lon="11.6403764"><ele>4.666666666666667</ele><time>2026-05-01T08:10:29.747Z</time></trkpt><trkpt lat="44.7844379" lon="11.6405268"><ele>5.0</ele><time>2026-05-01T08:10:30.749Z</time></trkpt><trkpt lat="44.7842982" lon="11.6406818"><ele>5.0</ele><time>2026-05-01T08:10:31.742Z</time></trkpt><trkpt lat="44.78415" lon="11.640845"><ele>5.0</ele><time>2026-05-01T08:10:32.742Z</time></trkpt><trkpt lat="44.783995" lon="11.6410267"><ele>5.0</ele><time>2026-05-01T08:10:33.748Z</time></trkpt><trkpt lat="44.7838333" lon="11.641205"><ele>5.0</ele><time>2026-05-01T08:10:34.746Z</time></trkpt><trkpt lat="44.78367" lon="11.6413883"><ele>5.0</ele><time>2026-05-01T08:10:35.752Z</time></trkpt><trkpt lat="44.7835033" lon="11.6415733"><ele>5.0</ele><time>2026-05-01T08:10:36.743Z</time></trkpt><trkpt lat="44.783335" lon="11.64176"><ele>4.666666666666667</ele><time>2026-05-01T08:10:37.748Z</time></trkpt><trkpt lat="44.7831667" lon="11.6419467"><ele>4.333333333333333</ele><time>2026-05-01T08:10:38.745Z</time></trkpt><trkpt lat="44.7829983" lon="11.6421333"><ele>4.0</ele><time>2026-05-01T08:10:39.742Z</time></trkpt><trkpt lat="44.7828317" lon="11.6423233"><ele>4.0</ele><time>2026-05-01T08:10:40.749Z</time></trkpt><trkpt lat="44.7826667" lon="11.642515"><ele>4.0</ele><time>2026-05-01T08:10:41.743Z</time></trkpt><trkpt lat="44.7825" lon="11.6427067"><ele>4.0</ele><time>2026-05-01T08:10:42.75Z</time></trkpt><trkpt lat="44.7823317" lon="11.6428983"><ele>4.0</ele><time>2026-05-01T08:10:43.749Z</time></trkpt><trkpt lat="44.782165" lon="11.64309"><ele>4.0</ele><time>2026-05-01T08:10:44.743Z</time></trkpt><trkpt lat="44.7819983" lon="11.64328"><ele>4.0</ele><time>2026-05-01T08:10:45.751Z</time></trkpt><trkpt lat="44.7818317" lon="11.6434717"><ele>3.6666666666666665</ele><time>2026-05-01T08:10:46.748Z</time></trkpt><trkpt lat="44.7816633" lon="11.643665"><ele>3.333333333333333</ele><time>2026-05-01T08:10:47.751Z</time></trkpt><trkpt lat="44.781495" lon="11.6438583"><ele>3.0</ele><time>2026-05-01T08:10:48.752Z</time></trkpt><trkpt lat="44.78133" lon="11.6440517"><ele>3.0</ele><time>2026-05-01T08:10:49.749Z</time></trkpt><trkpt lat="44.7811617" lon="11.6442417"><ele>3.0</ele><time>2026-05-01T08:10:50.746Z</time></trkpt><trkpt lat="44.780995" lon="11.6444367"><ele>3.0</ele><time>2026-05-01T08:10:51.748Z</time></trkpt><trkpt lat="44.7808267" lon="11.6446333"><ele>3.333333333333333</ele><time>2026-05-01T08:10:52.751Z</time></trkpt><trkpt lat="44.7806567" lon="11.64483"><ele>3.6666666666666665</ele><time>2026-05-01T08:10:53.746Z</time></trkpt><trkpt lat="44.7804883" lon="11.6450217"><ele>4.0</ele><time>2026-05-01T08:10:54.752Z</time></trkpt><trkpt lat="44.78032" lon="11.6452183"><ele>4.0</ele><time>2026-05-01T08:10:55.748Z</time></trkpt><trkpt lat="44.7801483" lon="11.645415"><ele>4.0</ele><time>2026-05-01T08:10:56.75Z</time></trkpt><trkpt lat="44.7799767" lon="11.6456133"><ele>4.0</ele><time>2026-05-01T08:10:57.752Z</time></trkpt><trkpt lat="44.7798033" lon="11.6458083"><ele>4.0</ele><time>2026-05-01T08:10:58.743Z</time></trkpt><trkpt lat="44.7796317" lon="11.6460033"><ele>4.0</ele><time>2026-05-01T08:10:59.752Z</time></trkpt><trkpt lat="44.7794583" lon="11.6461967"><ele>4.0</ele><time>2026-05-01T08:11:00.75Z</time></trkpt><trkpt lat="44.7792833" lon="11.64639"><ele>4.0</ele><time>2026-05-01T08:11:01.741Z</time></trkpt><trkpt lat="44.77911" lon="11.6465867"><ele>4.0</ele><time>2026-05-01T08:11:02.742Z</time></trkpt><trkpt lat="44.778935" lon="11.646785"><ele>4.0</ele><time>2026-05-01T08:11:03.749Z</time></trkpt><trkpt lat="44.7787583" lon="11.64698"><ele>4.0</ele><time>2026-05-01T08:11:04.749Z</time></trkpt><trkpt lat="44.77859" lon="11.6471683"><ele>4.0</ele><time>2026-05-01T08:11:05.753Z</time></trkpt><trkpt lat="44.7784217" lon="11.647355"><ele>4.0</ele><time>2026-05-01T08:11:06.749Z</time></trkpt><trkpt lat="44.7782567" lon="11.64754"><ele>4.0</ele><time>2026-05-01T08:11:07.748Z</time></trkpt><trkpt lat="44.7780933" lon="11.6477267"><ele>4.0</ele><time>2026-05-01T08:11:08.751Z</time></trkpt><trkpt lat="44.7779317" lon="11.64791"><ele>4.0</ele><time>2026-05-01T08:11:09.751Z</time></trkpt><trkpt lat="44.77776" lon="11.648105"><ele>4.5</ele><time>2026-05-01T08:11:10.755Z</time></trkpt><trkpt lat="44.7775833" lon="11.6483033"><ele>5.0</ele><time>2026-05-01T08:11:11.757Z</time></trkpt><trkpt lat="44.7774017" lon="11.6484967"><ele>4.0</ele><time>2026-05-01T08:11:12.753Z</time></trkpt><trkpt lat="44.7772183" lon="11.6486983"><ele>3.0</ele><time>2026-05-01T08:11:13.758Z</time></trkpt><trkpt lat="44.77703" lon="11.6489017"><ele>3.5</ele><time>2026-05-01T08:11:14.751Z</time></trkpt><trkpt lat="44.7768417" lon="11.6491067"><ele>4.0</ele><time>2026-05-01T08:11:15.743Z</time></trkpt><trkpt lat="44.776655" lon="11.6493117"><ele>4.0</ele><time>2026-05-01T08:11:16.744Z</time></trkpt><trkpt lat="44.7764717" lon="11.6495167"><ele>4.0</ele><time>2026-05-01T08:11:17.748Z</time></trkpt><trkpt lat="44.77629" lon="11.64972"><ele>4.0</ele><time>2026-05-01T08:11:18.744Z</time></trkpt><trkpt lat="44.7761083" lon="11.64992"><ele>4.0</ele><time>2026-05-01T08:11:19.755Z</time></trkpt><trkpt lat="44.7759267" lon="11.650115"><ele>3.5</ele><time>2026-05-01T08:11:20.752Z</time></trkpt><trkpt lat="44.7757433" lon="11.650315"><ele>3.0</ele><time>2026-05-01T08:11:21.75Z</time></trkpt><trkpt lat="44.7755683" lon="11.65051"><ele>3.0</ele><time>2026-05-01T08:11:22.752Z</time></trkpt><trkpt lat="44.7753983" lon="11.650695"><ele>3.0</ele><time>2026-05-01T08:11:23.751Z</time></trkpt><trkpt lat="44.7752367" lon="11.6508667"><ele>3.0</ele><time>2026-05-01T08:11:24.75Z</time></trkpt><trkpt lat="44.7750833" lon="11.6510367"><ele>3.333333333333333</ele><time>2026-05-01T08:11:25.752Z</time></trkpt><trkpt lat="44.7749333" lon="11.6512067"><ele>3.6666666666666665</ele><time>2026-05-01T08:11:26.75Z</time></trkpt><trkpt lat="44.7747817" lon="11.6513733"><ele>4.0</ele><time>2026-05-01T08:11:27.743Z</time></trkpt><trkpt lat="44.7746267" lon="11.65154"><ele>4.0</ele><time>2026-05-01T08:11:28.742Z</time></trkpt><trkpt lat="44.7744683" lon="11.6517067"><ele>4.0</ele><time>2026-05-01T08:11:29.753Z</time></trkpt><trkpt lat="44.7743117" lon="11.6518717"><ele>4.0</ele><time>2026-05-01T08:11:30.742Z</time></trkpt><trkpt lat="44.774155" lon="11.6520417"><ele>3.6666666666666665</ele><time>2026-05-01T08:11:31.747Z</time></trkpt><trkpt lat="44.7739967" lon="11.6522167"><ele>3.333333333333333</ele><time>2026-05-01T08:11:32.753Z</time></trkpt><trkpt lat="44.7738367" lon="11.652395"><ele>3.0</ele><time>2026-05-01T08:11:33.752Z</time></trkpt><trkpt lat="44.7736733" lon="11.65257"><ele>3.0</ele><time>2026-05-01T08:11:34.746Z</time></trkpt><trkpt lat="44.7735033" lon="11.6527417"><ele>3.0</ele><time>2026-05-01T08:11:35.753Z</time></trkpt><trkpt lat="44.7733283" lon="11.6529167"><ele>3.0</ele><time>2026-05-01T08:11:36.751Z</time></trkpt><trkpt lat="44.7731583" lon="11.6530883"><ele>3.0</ele><time>2026-05-01T08:11:37.753Z</time></trkpt><trkpt lat="44.7729917" lon="11.6532633"><ele>3.0</ele><time>2026-05-01T08:11:38.75Z</time></trkpt><trkpt lat="44.77283" lon="11.653445"><ele>3.0</ele><time>2026-05-01T08:11:39.752Z</time></trkpt><trkpt lat="44.7726683" lon="11.6536367"><ele>3.0</ele><time>2026-05-01T08:11:40.748Z</time></trkpt><trkpt lat="44.7725" lon="11.6538267"><ele>3.0</ele><time>2026-05-01T08:11:41.751Z</time></trkpt><trkpt lat="44.772335" lon="11.6540183"><ele>3.0</ele><time>2026-05-01T08:11:42.752Z</time></trkpt><trkpt lat="44.77217" lon="11.6541967"><ele>3.0</ele><time>2026-05-01T08:11:43.747Z</time></trkpt><trkpt lat="44.772005" lon="11.6543767"><ele>3.0</ele><time>2026-05-01T08:11:44.754Z</time></trkpt><trkpt lat="44.77184" lon="11.6545633"><ele>3.0</ele><time>2026-05-01T08:11:45.747Z</time></trkpt><trkpt lat="44.7716733" lon="11.65473"><ele>3.666666666666667</ele><time>2026-05-01T08:11:46.746Z</time></trkpt><trkpt lat="44.7715167" lon="11.654905"><ele>4.333333333333334</ele><time>2026-05-01T08:11:47.745Z</time></trkpt><trkpt lat="44.7713633" lon="11.65507"><ele>5.0</ele><time>2026-05-01T08:11:48.75Z</time></trkpt><trkpt lat="44.7712133" lon="11.6552383"><ele>5.0</ele><time>2026-05-01T08:11:49.751Z</time></trkpt><trkpt lat="44.77106" lon="11.655405"><ele>5.0</ele><time>2026-05-01T08:11:50.749Z</time></trkpt><trkpt lat="44.770905" lon="11.6555733"><ele>5.0</ele><time>2026-05-01T08:11:51.755Z</time></trkpt><trkpt lat="44.7707467" lon="11.6557433"><ele>5.0</ele><time>2026-05-01T08:11:52.749Z</time></trkpt><trkpt lat="44.7705833" lon="11.6559183"><ele>5.0</ele><time>2026-05-01T08:11:53.745Z</time></trkpt><trkpt lat="44.77042" lon="11.65609"><ele>5.0</ele><time>2026-05-01T08:11:54.745Z</time></trkpt><trkpt lat="44.770255" lon="11.65626"><ele>5.0</ele><time>2026-05-01T08:11:55.752Z</time></trkpt><trkpt lat="44.77009" lon="11.6564317"><ele>5.0</ele><time>2026-05-01T08:11:56.755Z</time></trkpt><trkpt lat="44.7699283" lon="11.6566033"><ele>5.0</ele><time>2026-05-01T08:11:57.751Z</time></trkpt><trkpt lat="44.7697683" lon="11.6567867"><ele>5.0</ele><time>2026-05-01T08:11:58.748Z</time></trkpt><trkpt lat="44.7695983" lon="11.6569717"><ele>5.0</ele><time>2026-05-01T08:11:59.747Z</time></trkpt><trkpt lat="44.7694333" lon="11.6571517"><ele>5.0</ele><time>2026-05-01T08:12:00.754Z</time></trkpt><trkpt lat="44.7692667" lon="11.6573333"><ele>5.0</ele><time>2026-05-01T08:12:01.753Z</time></trkpt><trkpt lat="44.7690933" lon="11.657525"><ele>5.0</ele><time>2026-05-01T08:12:02.758Z</time></trkpt><trkpt lat="44.7689217" lon="11.65772"><ele>5.0</ele><time>2026-05-01T08:12:03.749Z</time></trkpt><trkpt lat="44.7687467" lon="11.65792"><ele>5.0</ele><time>2026-05-01T08:12:04.752Z</time></trkpt><trkpt lat="44.7685717" lon="11.658125"><ele>5.0</ele><time>2026-05-01T08:12:05.752Z</time></trkpt><trkpt lat="44.7683967" lon="11.6583317"><ele>4.5</ele><time>2026-05-01T08:12:06.751Z</time></trkpt><trkpt lat="44.7682217" lon="11.6585383"><ele>4.0</ele><time>2026-05-01T08:12:07.751Z</time></trkpt><trkpt lat="44.76805" lon="11.6587417"><ele>4.0</ele><time>2026-05-01T08:12:08.749Z</time></trkpt><trkpt lat="44.7678767" lon="11.6589483"><ele>4.0</ele><time>2026-05-01T08:12:09.745Z</time></trkpt><trkpt lat="44.7677017" lon="11.6591583"><ele>4.0</ele><time>2026-05-01T08:12:10.742Z</time></trkpt><trkpt lat="44.7675233" lon="11.6593783"><ele>4.0</ele><time>2026-05-01T08:12:11.749Z</time></trkpt><trkpt lat="44.7673433" lon="11.65961"><ele>4.0</ele><time>2026-05-01T08:12:12.75Z</time></trkpt><trkpt lat="44.7671567" lon="11.659845"><ele>4.0</ele><time>2026-05-01T08:12:13.742Z</time></trkpt><trkpt lat="44.7669667" lon="11.6600783"><ele>4.5</ele><time>2026-05-01T08:12:14.744Z</time></trkpt><trkpt lat="44.766775" lon="11.6603117"><ele>5.0</ele><time>2026-05-01T08:12:15.743Z</time></trkpt><trkpt lat="44.7665783" lon="11.660545"><ele>5.0</ele><time>2026-05-01T08:12:16.752Z</time></trkpt><trkpt lat="44.7663767" lon="11.6607767"><ele>5.0</ele><time>2026-05-01T08:12:17.753Z</time></trkpt><trkpt lat="44.766175" lon="11.6610117"><ele>4.0</ele><time>2026-05-01T08:12:18.75Z</time></trkpt><trkpt lat="44.7659733" lon="11.66125"><ele>3.0</ele><time>2026-05-01T08:12:19.75Z</time></trkpt><trkpt lat="44.7657767" lon="11.6614867"><ele>3.0</ele><time>2026-05-01T08:12:20.749Z</time></trkpt><trkpt lat="44.7655783" lon="11.661725"><ele>3.0</ele><time>2026-05-01T08:12:21.75Z</time></trkpt><trkpt lat="44.7653833" lon="11.6619617"><ele>2.5</ele><time>2026-05-01T08:12:22.753Z</time></trkpt><trkpt lat="44.76519" lon="11.6621983"><ele>2.0</ele><time>2026-05-01T08:12:23.757Z</time></trkpt><trkpt lat="44.765" lon="11.6624283"><ele>2.0</ele><time>2026-05-01T08:12:24.758Z</time></trkpt><trkpt lat="44.7648117" lon="11.6626583"><ele>2.0</ele><time>2026-05-01T08:12:25.757Z</time></trkpt><trkpt lat="44.7646267" lon="11.6628917"><ele>2.0</ele><time>2026-05-01T08:12:26.744Z</time></trkpt><trkpt lat="44.7644433" lon="11.66312"><ele>2.0</ele><time>2026-05-01T08:12:27.749Z</time></trkpt><trkpt lat="44.7642567" lon="11.6633433"><ele>2.5</ele><time>2026-05-01T08:12:28.746Z</time></trkpt><trkpt lat="44.7640733" lon="11.663565"><ele>3.0</ele><time>2026-05-01T08:12:29.755Z</time></trkpt><trkpt lat="44.7638933" lon="11.6637867"><ele>3.5</ele><time>2026-05-01T08:12:30.748Z</time></trkpt><trkpt lat="44.7637117" lon="11.6640083"><ele>4.0</ele><time>2026-05-01T08:12:31.748Z</time></trkpt><trkpt lat="44.7635317" lon="11.6642283"><ele>4.5</ele><time>2026-05-01T08:12:32.752Z</time></trkpt><trkpt lat="44.7633543" lon="11.6644474"><ele>5.0</ele><time>2026-05-01T08:12:33.751Z</time></trkpt><trkpt lat="44.7631754" lon="11.6646687"><ele>5.0</ele><time>2026-05-01T08:12:34.751Z</time></trkpt><trkpt lat="44.7629968" lon="11.664887"><ele>5.0</ele><time>2026-05-01T08:12:35.752Z</time></trkpt><trkpt lat="44.7628178" lon="11.6651019"><ele>5.0</ele><time>2026-05-01T08:12:36.742Z</time></trkpt><trkpt lat="44.7626363" lon="11.6653213"><ele>5.0</ele><time>2026-05-01T08:12:37.751Z</time></trkpt><trkpt lat="44.7624571" lon="11.665539"><ele>5.0</ele><time>2026-05-01T08:12:38.742Z</time></trkpt><trkpt lat="44.7622768" lon="11.6657596"><ele>5.0</ele><time>2026-05-01T08:12:39.746Z</time></trkpt><trkpt lat="44.7620948" lon="11.6659795"><ele>4.5</ele><time>2026-05-01T08:12:40.742Z</time></trkpt><trkpt lat="44.7619137" lon="11.6661986"><ele>4.0</ele><time>2026-05-01T08:12:41.743Z</time></trkpt><trkpt lat="44.7617305" lon="11.6664204"><ele>4.0</ele><time>2026-05-01T08:12:42.781Z</time></trkpt><trkpt lat="44.7615552" lon="11.6666349"><ele>4.0</ele><time>2026-05-01T08:12:43.752Z</time></trkpt><trkpt lat="44.761376" lon="11.6668528"><ele>3.5</ele><time>2026-05-01T08:12:44.743Z</time></trkpt><trkpt lat="44.7611944" lon="11.6670741"><ele>3.0</ele><time>2026-05-01T08:12:45.752Z</time></trkpt><trkpt lat="44.7610132" lon="11.6672932"><ele>3.0</ele><time>2026-05-01T08:12:46.755Z</time></trkpt><trkpt lat="44.7608313" lon="11.6675133"><ele>3.0</ele><time>2026-05-01T08:12:47.75Z</time></trkpt><trkpt lat="44.7606494" lon="11.6677376"><ele>2.5</ele><time>2026-05-01T08:12:48.744Z</time></trkpt><trkpt lat="44.7604648" lon="11.6679654"><ele>2.0</ele><time>2026-05-01T08:12:49.751Z</time></trkpt><trkpt lat="44.7602814" lon="11.6681901"><ele>2.0</ele><time>2026-05-01T08:12:50.745Z</time></trkpt><trkpt lat="44.7600966" lon="11.6684173"><ele>2.0</ele><time>2026-05-01T08:12:51.75Z</time></trkpt><trkpt lat="44.7599099" lon="11.6686431"><ele>1.5</ele><time>2026-05-01T08:12:52.751Z</time></trkpt><trkpt lat="44.7597235" lon="11.6688712"><ele>1.0</ele><time>2026-05-01T08:12:53.756Z</time></trkpt><trkpt lat="44.7595384" lon="11.6691"><ele>2.0</ele><time>2026-05-01T08:12:54.75Z</time></trkpt><trkpt lat="44.7593541" lon="11.6693278"><ele>3.0</ele><time>2026-05-01T08:12:55.753Z</time></trkpt><trkpt lat="44.7591698" lon="11.6695509"><ele>3.0</ele><time>2026-05-01T08:12:56.75Z</time></trkpt><trkpt lat="44.7589853" lon="11.6697743"><ele>3.0</ele><time>2026-05-01T08:12:57.75Z</time></trkpt><trkpt lat="44.758799" lon="11.6699976"><ele>3.0</ele><time>2026-05-01T08:12:58.751Z</time></trkpt><trkpt lat="44.7586141" lon="11.6702209"><ele>3.0</ele><time>2026-05-01T08:12:59.751Z</time></trkpt><trkpt lat="44.7584289" lon="11.6704448"><ele>2.5</ele><time>2026-05-01T08:13:00.751Z</time></trkpt><trkpt lat="44.7582453" lon="11.6706716"><ele>2.0</ele><time>2026-05-01T08:13:01.751Z</time></trkpt><trkpt lat="44.7580611" lon="11.6708986"><ele>2.0</ele><time>2026-05-01T08:13:02.749Z</time></trkpt><trkpt lat="44.757877" lon="11.6711245"><ele>2.0</ele><time>2026-05-01T08:13:03.753Z</time></trkpt><trkpt lat="44.7576932" lon="11.6713456"><ele>2.0</ele><time>2026-05-01T08:13:04.749Z</time></trkpt><trkpt lat="44.7575111" lon="11.6715632"><ele>2.0</ele><time>2026-05-01T08:13:05.742Z</time></trkpt><trkpt lat="44.7573295" lon="11.6717792"><ele>2.0</ele><time>2026-05-01T08:13:06.752Z</time></trkpt><trkpt lat="44.757148" lon="11.6719925"><ele>2.0</ele><time>2026-05-01T08:13:07.75Z</time></trkpt><trkpt lat="44.756967" lon="11.6722047"><ele>3.0</ele><time>2026-05-01T08:13:08.757Z</time></trkpt><trkpt lat="44.7567878" lon="11.6724118"><ele>4.0</ele><time>2026-05-01T08:13:09.742Z</time></trkpt><trkpt lat="44.7566069" lon="11.6726215"><ele>4.0</ele><time>2026-05-01T08:13:10.749Z</time></trkpt><trkpt lat="44.7564272" lon="11.6728306"><ele>4.0</ele><time>2026-05-01T08:13:11.748Z</time></trkpt><trkpt lat="44.7562457" lon="11.673039"><ele>4.0</ele><time>2026-05-01T08:13:12.752Z</time></trkpt><trkpt lat="44.7560649" lon="11.6732462"><ele>4.0</ele><time>2026-05-01T08:13:13.743Z</time></trkpt><trkpt lat="44.7558819" lon="11.6734529"><ele>3.5</ele><time>2026-05-01T08:13:14.744Z</time></trkpt><trkpt lat="44.7557001" lon="11.6736623"><ele>3.0</ele><time>2026-05-01T08:13:15.76Z</time></trkpt><trkpt lat="44.7555205" lon="11.6738667"><ele>3.0</ele><time>2026-05-01T08:13:16.752Z</time></trkpt><trkpt lat="44.7553383" lon="11.6740726"><ele>3.0</ele><time>2026-05-01T08:13:17.753Z</time></trkpt><trkpt lat="44.7551571" lon="11.6742791"><ele>2.5</ele><time>2026-05-01T08:13:18.746Z</time></trkpt><trkpt lat="44.7549762" lon="11.6744894"><ele>2.0</ele><time>2026-05-01T08:13:19.753Z</time></trkpt><trkpt lat="44.7547962" lon="11.6746959"><ele>2.0</ele><time>2026-05-01T08:13:20.744Z</time></trkpt><trkpt lat="44.7546124" lon="11.6749025"><ele>2.0</ele><time>2026-05-01T08:13:21.75Z</time></trkpt><trkpt lat="44.7544311" lon="11.6751087"><ele>2.5</ele><time>2026-05-01T08:13:22.742Z</time></trkpt><trkpt lat="44.754251" lon="11.675317"><ele>3.0</ele><time>2026-05-01T08:13:23.752Z</time></trkpt><trkpt lat="44.7540748" lon="11.6755206"><ele>3.0</ele><time>2026-05-01T08:13:24.742Z</time></trkpt><trkpt lat="44.7538966" lon="11.6757242"><ele>3.0</ele><time>2026-05-01T08:13:25.75Z</time></trkpt><trkpt lat="44.753721" lon="11.6759241"><ele>2.5</ele><time>2026-05-01T08:13:26.744Z</time></trkpt><trkpt lat="44.7535448" lon="11.676123"><ele>2.0</ele><time>2026-05-01T08:13:27.743Z</time></trkpt><trkpt lat="44.7533708" lon="11.6763219"><ele>2.6666666666666665</ele><time>2026-05-01T08:13:28.742Z</time></trkpt><trkpt lat="44.7531982" lon="11.6765204"><ele>3.333333333333333</ele><time>2026-05-01T08:13:29.742Z</time></trkpt><trkpt lat="44.7530255" lon="11.6767197"><ele>4.0</ele><time>2026-05-01T08:13:30.745Z</time></trkpt><trkpt lat="44.7528507" lon="11.6769212"><ele>4.5</ele><time>2026-05-01T08:13:31.744Z</time></trkpt><trkpt lat="44.7526742" lon="11.6771228"><ele>5.0</ele><time>2026-05-01T08:13:32.752Z</time></trkpt><trkpt lat="44.7524976" lon="11.6773249"><ele>5.0</ele><time>2026-05-01T08:13:33.751Z</time></trkpt><trkpt lat="44.7523202" lon="11.6775266"><ele>5.0</ele><time>2026-05-01T08:13:34.751Z</time></trkpt><trkpt lat="44.7521436" lon="11.6777335"><ele>4.5</ele><time>2026-05-01T08:13:35.749Z</time></trkpt><trkpt lat="44.7519645" lon="11.6779423"><ele>4.0</ele><time>2026-05-01T08:13:36.749Z</time></trkpt><trkpt lat="44.7517841" lon="11.6781519"><ele>3.5</ele><time>2026-05-01T08:13:37.751Z</time></trkpt><trkpt lat="44.7516048" lon="11.6783598"><ele>3.0</ele><time>2026-05-01T08:13:38.747Z</time></trkpt><trkpt lat="44.7514254" lon="11.6785676"><ele>2.0</ele><time>2026-05-01T08:13:39.743Z</time></trkpt><trkpt lat="44.7512427" lon="11.6787781"><ele>1.0</ele><time>2026-05-01T08:13:40.748Z</time></trkpt><trkpt lat="44.7510602" lon="11.6789885"><ele>1.5</ele><time>2026-05-01T08:13:41.752Z</time></trkpt><trkpt lat="44.7508774" lon="11.679199"><ele>2.0</ele><time>2026-05-01T08:13:42.755Z</time></trkpt><trkpt lat="44.7506915" lon="11.6794085"><ele>2.0</ele><time>2026-05-01T08:13:43.742Z</time></trkpt><trkpt lat="44.7505006" lon="11.679621"><ele>2.0</ele><time>2026-05-01T08:13:44.743Z</time></trkpt><trkpt lat="44.7503089" lon="11.6798378"><ele>2.0</ele><time>2026-05-01T08:13:45.757Z</time></trkpt><trkpt lat="44.7501176" lon="11.6800547"><ele>2.0</ele><time>2026-05-01T08:13:46.752Z</time></trkpt><trkpt lat="44.7499233" lon="11.6802773"><ele>2.0</ele><time>2026-05-01T08:13:47.754Z</time></trkpt><trkpt lat="44.7497288" lon="11.6805015"><ele>2.0</ele><time>2026-05-01T08:13:48.75Z</time></trkpt><trkpt lat="44.7495333" lon="11.6807314"><ele>2.5</ele><time>2026-05-01T08:13:49.754Z</time></trkpt><trkpt lat="44.7493371" lon="11.6809582"><ele>3.0</ele><time>2026-05-01T08:13:50.755Z</time></trkpt><trkpt lat="44.7491403" lon="11.6811838"><ele>3.0</ele><time>2026-05-01T08:13:51.754Z</time></trkpt><trkpt lat="44.7489424" lon="11.6814093"><ele>3.0</ele><time>2026-05-01T08:13:52.753Z</time></trkpt><trkpt lat="44.748746" lon="11.6816372"><ele>3.0</ele><time>2026-05-01T08:13:53.751Z</time></trkpt><trkpt lat="44.7485496" lon="11.6818604"><ele>3.0</ele><time>2026-05-01T08:13:54.748Z</time></trkpt><trkpt lat="44.7483531" lon="11.6820801"><ele>2.5</ele><time>2026-05-01T08:13:55.749Z</time></trkpt><trkpt lat="44.7481576" lon="11.6823008"><ele>2.0</ele><time>2026-05-01T08:13:56.751Z</time></trkpt><trkpt lat="44.7479638" lon="11.6825254"><ele>2.0</ele><time>2026-05-01T08:13:57.75Z</time></trkpt><trkpt lat="44.7477706" lon="11.6827502"><ele>2.0</ele><time>2026-05-01T08:13:58.748Z</time></trkpt><trkpt lat="44.7475781" lon="11.6829726"><ele>1.5</ele><time>2026-05-01T08:13:59.751Z</time></trkpt><trkpt lat="44.7473849" lon="11.6831925"><ele>1.0</ele><time>2026-05-01T08:14:00.752Z</time></trkpt><trkpt lat="44.74719" lon="11.6834098"><ele>1.0</ele><time>2026-05-01T08:14:01.753Z</time></trkpt><trkpt lat="44.7469986" lon="11.6836261"><ele>1.0</ele><time>2026-05-01T08:14:02.749Z</time></trkpt><trkpt lat="44.7468083" lon="11.6838447"><ele>1.0</ele><time>2026-05-01T08:14:03.751Z</time></trkpt><trkpt lat="44.7466177" lon="11.684064"><ele>1.0</ele><time>2026-05-01T08:14:04.751Z</time></trkpt><trkpt lat="44.7464269" lon="11.6842835"><ele>1.0</ele><time>2026-05-01T08:14:05.757Z</time></trkpt><trkpt lat="44.7462352" lon="11.6845028"><ele>1.0</ele><time>2026-05-01T08:14:06.753Z</time></trkpt><trkpt lat="44.7460448" lon="11.6847212"><ele>1.0</ele><time>2026-05-01T08:14:07.748Z</time></trkpt><trkpt lat="44.7458533" lon="11.6849401"><ele>1.0</ele><time>2026-05-01T08:14:08.755Z</time></trkpt><trkpt lat="44.7456631" lon="11.6851582"><ele>0.5</ele><time>2026-05-01T08:14:09.743Z</time></trkpt><trkpt lat="44.7454684" lon="11.6853794"><ele>0.0</ele><time>2026-05-01T08:14:10.758Z</time></trkpt><trkpt lat="44.7452746" lon="11.6855955"><ele>1.0</ele><time>2026-05-01T08:14:11.752Z</time></trkpt><trkpt lat="44.7450775" lon="11.6858101"><ele>2.0</ele><time>2026-05-01T08:14:12.746Z</time></trkpt><trkpt lat="44.7448767" lon="11.6860276"><ele>1.5</ele><time>2026-05-01T08:14:13.754Z</time></trkpt><trkpt lat="44.744679" lon="11.6862461"><ele>1.0</ele><time>2026-05-01T08:14:14.751Z</time></trkpt><trkpt lat="44.7444834" lon="11.6864686"><ele>1.5</ele><time>2026-05-01T08:14:15.751Z</time></trkpt><trkpt lat="44.7442883" lon="11.6866894"><ele>2.0</ele><time>2026-05-01T08:14:16.751Z</time></trkpt><trkpt lat="44.7440933" lon="11.6869113"><ele>2.5</ele><time>2026-05-01T08:14:17.752Z</time></trkpt><trkpt lat="44.7438977" lon="11.6871339"><ele>3.0</ele><time>2026-05-01T08:14:18.747Z</time></trkpt><trkpt lat="44.7436994" lon="11.6873591"><ele>2.5</ele><time>2026-05-01T08:14:19.75Z</time></trkpt><trkpt lat="44.7435009" lon="11.6875843"><ele>2.0</ele><time>2026-05-01T08:14:20.754Z</time></trkpt><trkpt lat="44.7433016" lon="11.6878074"><ele>1.5</ele><time>2026-05-01T08:14:21.749Z</time></trkpt><trkpt lat="44.7431039" lon="11.6880313"><ele>1.0</ele><time>2026-05-01T08:14:22.748Z</time></trkpt><trkpt lat="44.7429069" lon="11.6882579"><ele>1.0</ele><time>2026-05-01T08:14:23.75Z</time></trkpt><trkpt lat="44.7427092" lon="11.6884848"><ele>1.0</ele><time>2026-05-01T08:14:24.747Z</time></trkpt><trkpt lat="44.742509" lon="11.6887132"><ele>1.0</ele><time>2026-05-01T08:14:25.751Z</time></trkpt><trkpt lat="44.7423063" lon="11.6889381"><ele>1.0</ele><time>2026-05-01T08:14:26.754Z</time></trkpt><trkpt lat="44.7421052" lon="11.6891624"><ele>1.0</ele><time>2026-05-01T08:14:27.749Z</time></trkpt><trkpt lat="44.7419047" lon="11.6893898"><ele>1.0</ele><time>2026-05-01T08:14:28.75Z</time></trkpt><trkpt lat="44.7417037" lon="11.6896198"><ele>1.5</ele><time>2026-05-01T08:14:29.752Z</time></trkpt><trkpt lat="44.7415013" lon="11.6898523"><ele>2.0</ele><time>2026-05-01T08:14:30.755Z</time></trkpt><trkpt lat="44.7413002" lon="11.6900826"><ele>2.0</ele><time>2026-05-01T08:14:31.745Z</time></trkpt><trkpt lat="44.7410964" lon="11.6903135"><ele>2.0</ele><time>2026-05-01T08:14:32.749Z</time></trkpt><trkpt lat="44.7408923" lon="11.6905391"><ele>2.0</ele><time>2026-05-01T08:14:33.743Z</time></trkpt><trkpt lat="44.7406873" lon="11.6907694"><ele>2.0</ele><time>2026-05-01T08:14:34.754Z</time></trkpt><trkpt lat="44.7404844" lon="11.6909974"><ele>2.0</ele><time>2026-05-01T08:14:35.751Z</time></trkpt><trkpt lat="44.7402827" lon="11.6912231"><ele>2.0</ele><time>2026-05-01T08:14:36.743Z</time></trkpt><trkpt lat="44.7400827" lon="11.6914483"><ele>2.0</ele><time>2026-05-01T08:14:37.743Z</time></trkpt><trkpt lat="44.739884" lon="11.6916749"><ele>2.0</ele><time>2026-05-01T08:14:38.748Z</time></trkpt><trkpt lat="44.7396848" lon="11.6918986"><ele>2.0</ele><time>2026-05-01T08:14:39.753Z</time></trkpt><trkpt lat="44.7394858" lon="11.6921193"><ele>2.0</ele><time>2026-05-01T08:14:40.748Z</time></trkpt><trkpt lat="44.7392863" lon="11.6923442"><ele>2.0</ele><time>2026-05-01T08:14:41.752Z</time></trkpt><trkpt lat="44.7390883" lon="11.6925709"><ele>2.0</ele><time>2026-05-01T08:14:42.75Z</time></trkpt><trkpt lat="44.7388901" lon="11.6927991"><ele>2.0</ele><time>2026-05-01T08:14:43.754Z</time></trkpt><trkpt lat="44.7386911" lon="11.6930287"><ele>2.0</ele><time>2026-05-01T08:14:44.757Z</time></trkpt><trkpt lat="44.7384937" lon="11.6932593"><ele>2.0</ele><time>2026-05-01T08:14:45.754Z</time></trkpt><trkpt lat="44.7382946" lon="11.6934929"><ele>2.0</ele><time>2026-05-01T08:14:46.751Z</time></trkpt><trkpt lat="44.7380944" lon="11.6937318"><ele>2.0</ele><time>2026-05-01T08:14:47.751Z</time></trkpt><trkpt lat="44.737897" lon="11.693976"><ele>2.0</ele><time>2026-05-01T08:14:48.751Z</time></trkpt><trkpt lat="44.7377018" lon="11.6942209"><ele>2.5</ele><time>2026-05-01T08:14:49.754Z</time></trkpt><trkpt lat="44.7375107" lon="11.6944667"><ele>3.0</ele><time>2026-05-01T08:14:50.755Z</time></trkpt><trkpt lat="44.7373224" lon="11.6947165"><ele>3.0</ele><time>2026-05-01T08:14:51.749Z</time></trkpt><trkpt lat="44.7371353" lon="11.69497"><ele>3.0</ele><time>2026-05-01T08:14:52.75Z</time></trkpt><trkpt lat="44.7369478" lon="11.6952237"><ele>2.5</ele><time>2026-05-01T08:14:53.752Z</time></trkpt><trkpt lat="44.7367627" lon="11.6954807"><ele>2.0</ele><time>2026-05-01T08:14:54.75Z</time></trkpt><trkpt lat="44.736581" lon="11.6957403"><ele>2.0</ele><time>2026-05-01T08:14:55.748Z</time></trkpt><trkpt lat="44.7364033" lon="11.6960027"><ele>2.0</ele><time>2026-05-01T08:14:56.75Z</time></trkpt><trkpt lat="44.73623" lon="11.6962668"><ele>2.0</ele><time>2026-05-01T08:14:57.75Z</time></trkpt><trkpt lat="44.7360591" lon="11.696532"><ele>2.0</ele><time>2026-05-01T08:14:58.749Z</time></trkpt><trkpt lat="44.7358907" lon="11.6967954"><ele>1.5</ele><time>2026-05-01T08:14:59.743Z</time></trkpt><trkpt lat="44.7357228" lon="11.6970597"><ele>1.0</ele><time>2026-05-01T08:15:00.743Z</time></trkpt><trkpt lat="44.7355559" lon="11.697324"><ele>1.0</ele><time>2026-05-01T08:15:01.752Z</time></trkpt><trkpt lat="44.7353889" lon="11.6975891"><ele>1.0</ele><time>2026-05-01T08:15:02.753Z</time></trkpt><trkpt lat="44.735221" lon="11.6978567"><ele>1.5</ele><time>2026-05-01T08:15:03.759Z</time></trkpt><trkpt lat="44.7350549" lon="11.6981211"><ele>2.0</ele><time>2026-05-01T08:15:04.748Z</time></trkpt><trkpt lat="44.7348879" lon="11.6983883"><ele>1.0</ele><time>2026-05-01T08:15:05.749Z</time></trkpt><trkpt lat="44.7347226" lon="11.698657"><ele>0.0</ele><time>2026-05-01T08:15:06.744Z</time></trkpt><trkpt lat="44.7345537" lon="11.6989314"><ele>0.5</ele><time>2026-05-01T08:15:07.747Z</time></trkpt><trkpt lat="44.7343812" lon="11.6992057"><ele>1.0</ele><time>2026-05-01T08:15:08.749Z</time></trkpt><trkpt lat="44.7342041" lon="11.6994759"><ele>1.0</ele><time>2026-05-01T08:15:09.745Z</time></trkpt><trkpt lat="44.7340241" lon="11.6997459"><ele>1.0</ele><time>2026-05-01T08:15:10.749Z</time></trkpt><trkpt lat="44.7338458" lon="11.7000164"><ele>1.0</ele><time>2026-05-01T08:15:11.751Z</time></trkpt><trkpt lat="44.7336672" lon="11.7002879"><ele>1.0</ele><time>2026-05-01T08:15:12.754Z</time></trkpt><trkpt lat="44.7334904" lon="11.7005575"><ele>1.5</ele><time>2026-05-01T08:15:13.75Z</time></trkpt><trkpt lat="44.7333144" lon="11.7008318"><ele>2.0</ele><time>2026-05-01T08:15:14.749Z</time></trkpt><trkpt lat="44.7331405" lon="11.7011104"><ele>2.0</ele><time>2026-05-01T08:15:15.75Z</time></trkpt><trkpt lat="44.7329654" lon="11.701387"><ele>2.0</ele><time>2026-05-01T08:15:16.747Z</time></trkpt><trkpt lat="44.7327897" lon="11.7016656"><ele>2.0</ele><time>2026-05-01T08:15:17.751Z</time></trkpt><trkpt lat="44.7326133" lon="11.7019472"><ele>2.0</ele><time>2026-05-01T08:15:18.752Z</time></trkpt><trkpt lat="44.7324358" lon="11.7022279"><ele>2.0</ele><time>2026-05-01T08:15:19.748Z</time></trkpt><trkpt lat="44.7322569" lon="11.7025093"><ele>2.0</ele><time>2026-05-01T08:15:20.742Z</time></trkpt><trkpt lat="44.7320773" lon="11.7027951"><ele>2.0</ele><time>2026-05-01T08:15:21.75Z</time></trkpt><trkpt lat="44.7318977" lon="11.7030804"><ele>2.0</ele><time>2026-05-01T08:15:22.748Z</time></trkpt><trkpt lat="44.7317175" lon="11.7033638"><ele>1.5</ele><time>2026-05-01T08:15:23.749Z</time></trkpt><trkpt lat="44.7315373" lon="11.703647"><ele>1.0</ele><time>2026-05-01T08:15:24.75Z</time></trkpt><trkpt lat="44.731357" lon="11.7039286"><ele>1.0</ele><time>2026-05-01T08:15:25.75Z</time></trkpt><trkpt lat="44.7311778" lon="11.7042112"><ele>1.0</ele><time>2026-05-01T08:15:26.752Z</time></trkpt><trkpt lat="44.7310004" lon="11.7044925"><ele>1.0</ele><time>2026-05-01T08:15:27.755Z</time></trkpt><trkpt lat="44.7308231" lon="11.7047716"><ele>1.0</ele><time>2026-05-01T08:15:28.748Z</time></trkpt><trkpt lat="44.7306433" lon="11.7050542"><ele>1.0</ele><time>2026-05-01T08:15:29.751Z</time></trkpt><trkpt lat="44.7304663" lon="11.7053379"><ele>1.0</ele><time>2026-05-01T08:15:30.749Z</time></trkpt><trkpt lat="44.7302892" lon="11.7056226"><ele>1.0</ele><time>2026-05-01T08:15:31.756Z</time></trkpt><trkpt lat="44.7301127" lon="11.7059048"><ele>1.0</ele><time>2026-05-01T08:15:32.751Z</time></trkpt><trkpt lat="44.7299348" lon="11.7061891"><ele>0.0</ele><time>2026-05-01T08:15:33.754Z</time></trkpt><trkpt lat="44.7297577" lon="11.7064727"><ele>-1.0</ele><time>2026-05-01T08:15:34.752Z</time></trkpt><trkpt lat="44.7295778" lon="11.7067566"><ele>-0.5</ele><time>2026-05-01T08:15:35.75Z</time></trkpt><trkpt lat="44.7293978" lon="11.7070395"><ele>0.0</ele><time>2026-05-01T08:15:36.75Z</time></trkpt><trkpt lat="44.7292178" lon="11.7073206"><ele>0.0</ele><time>2026-05-01T08:15:37.751Z</time></trkpt><trkpt lat="44.7290393" lon="11.7075976"><ele>0.0</ele><time>2026-05-01T08:15:38.747Z</time></trkpt><trkpt lat="44.7288624" lon="11.7078732"><ele>0.0</ele><time>2026-05-01T08:15:39.749Z</time></trkpt><trkpt lat="44.7286877" lon="11.7081482"><ele>0.0</ele><time>2026-05-01T08:15:40.746Z</time></trkpt><trkpt lat="44.7285133" lon="11.708427"><ele>-0.5</ele><time>2026-05-01T08:15:41.748Z</time></trkpt><trkpt lat="44.7283382" lon="11.7087034"><ele>-1.0</ele><time>2026-05-01T08:15:42.747Z</time></trkpt><trkpt lat="44.7281642" lon="11.7089797"><ele>-1.0</ele><time>2026-05-01T08:15:43.75Z</time></trkpt><trkpt lat="44.727991" lon="11.7092556"><ele>-1.0</ele><time>2026-05-01T08:15:44.746Z</time></trkpt><trkpt lat="44.7278163" lon="11.7095327"><ele>-0.5</ele><time>2026-05-01T08:15:45.749Z</time></trkpt><trkpt lat="44.7276428" lon="11.7098089"><ele>0.0</ele><time>2026-05-01T08:15:46.746Z</time></trkpt><trkpt lat="44.7274686" lon="11.7100874"><ele>0.0</ele><time>2026-05-01T08:15:47.752Z</time></trkpt><trkpt lat="44.7272933" lon="11.7103654"><ele>0.0</ele><time>2026-05-01T08:15:48.755Z</time></trkpt><trkpt lat="44.7271187" lon="11.710643"><ele>0.0</ele><time>2026-05-01T08:15:49.746Z</time></trkpt><trkpt lat="44.7269414" lon="11.7109233"><ele>0.0</ele><time>2026-05-01T08:15:50.753Z</time></trkpt><trkpt lat="44.7267652" lon="11.7112014"><ele>0.0</ele><time>2026-05-01T08:15:51.752Z</time></trkpt><trkpt lat="44.7265899" lon="11.7114782"><ele>0.0</ele><time>2026-05-01T08:15:52.747Z</time></trkpt><trkpt lat="44.726414" lon="11.7117548"><ele>0.0</ele><time>2026-05-01T08:15:53.746Z</time></trkpt><trkpt lat="44.7262379" lon="11.7120335"><ele>0.0</ele><time>2026-05-01T08:15:54.751Z</time></trkpt><trkpt lat="44.7260626" lon="11.7123108"><ele>0.0</ele><time>2026-05-01T08:15:55.755Z</time></trkpt><trkpt lat="44.7258876" lon="11.7125874"><ele>0.0</ele><time>2026-05-01T08:15:56.761Z</time></trkpt><trkpt lat="44.725714" lon="11.712861"><ele>0.0</ele><time>2026-05-01T08:15:57.75Z</time></trkpt><trkpt lat="44.725539" lon="11.7131373"><ele>0.0</ele><time>2026-05-01T08:15:58.745Z</time></trkpt><trkpt lat="44.7253629" lon="11.7134164"><ele>0.5</ele><time>2026-05-01T08:15:59.753Z</time></trkpt><trkpt lat="44.7251883" lon="11.7136937"><ele>1.0</ele><time>2026-05-01T08:16:00.751Z</time></trkpt><trkpt lat="44.7250124" lon="11.7139707"><ele>1.0</ele><time>2026-05-01T08:16:01.752Z</time></trkpt><trkpt lat="44.72484" lon="11.7142438"><ele>1.0</ele><time>2026-05-01T08:16:02.743Z</time></trkpt><trkpt lat="44.7246672" lon="11.7145202"><ele>1.0</ele><time>2026-05-01T08:16:03.749Z</time></trkpt><trkpt lat="44.7244958" lon="11.7147924"><ele>1.0</ele><time>2026-05-01T08:16:04.746Z</time></trkpt><trkpt lat="44.724324" lon="11.715062"><ele>1.0</ele><time>2026-05-01T08:16:05.75Z</time></trkpt><trkpt lat="44.7241547" lon="11.7153269"><ele>1.0</ele><time>2026-05-01T08:16:06.749Z</time></trkpt><trkpt lat="44.7239869" lon="11.715592"><ele>1.0</ele><time>2026-05-01T08:16:07.742Z</time></trkpt><trkpt lat="44.7238184" lon="11.715855"><ele>1.0</ele><time>2026-05-01T08:16:08.752Z</time></trkpt><trkpt lat="44.7236554" lon="11.7161118"><ele>0.5</ele><time>2026-05-01T08:16:09.746Z</time></trkpt><trkpt lat="44.7234918" lon="11.716366"><ele>0.0</ele><time>2026-05-01T08:16:10.749Z</time></trkpt><trkpt lat="44.7233305" lon="11.7166196"><ele>0.0</ele><time>2026-05-01T08:16:11.749Z</time></trkpt><trkpt lat="44.7231689" lon="11.7168696"><ele>0.0</ele><time>2026-05-01T08:16:12.755Z</time></trkpt><trkpt lat="44.7230092" lon="11.7171186"><ele>0.0</ele><time>2026-05-01T08:16:13.749Z</time></trkpt><trkpt lat="44.7228503" lon="11.7173694"><ele>0.0</ele><time>2026-05-01T08:16:14.755Z</time></trkpt><trkpt lat="44.7226929" lon="11.7176185"><ele>0.0</ele><time>2026-05-01T08:16:15.752Z</time></trkpt><trkpt lat="44.7225377" lon="11.7178639"><ele>0.0</ele><time>2026-05-01T08:16:16.75Z</time></trkpt><trkpt lat="44.7223865" lon="11.718102"><ele>0.0</ele><time>2026-05-01T08:16:17.744Z</time></trkpt><trkpt lat="44.7222404" lon="11.7183332"><ele>0.0</ele><time>2026-05-01T08:16:18.753Z</time></trkpt><trkpt lat="44.7221006" lon="11.7185538"><ele>0.0</ele><time>2026-05-01T08:16:19.751Z</time></trkpt><trkpt lat="44.7219654" lon="11.718771"><ele>0.0</ele><time>2026-05-01T08:16:20.754Z</time></trkpt><trkpt lat="44.7218277" lon="11.718985"><ele>0.0</ele><time>2026-05-01T08:16:21.755Z</time></trkpt><trkpt lat="44.7216901" lon="11.7192036"><ele>0.0</ele><time>2026-05-01T08:16:22.748Z</time></trkpt><trkpt lat="44.7215461" lon="11.7194241"><ele>0.0</ele><time>2026-05-01T08:16:23.752Z</time></trkpt><trkpt lat="44.7214007" lon="11.7196461"><ele>0.0</ele><time>2026-05-01T08:16:24.751Z</time></trkpt><trkpt lat="44.7212546" lon="11.7198637"><ele>0.0</ele><time>2026-05-01T08:16:25.75Z</time></trkpt><trkpt lat="44.7211061" lon="11.7200769"><ele>0.3333333333333333</ele><time>2026-05-01T08:16:26.749Z</time></trkpt><trkpt lat="44.7209566" lon="11.7202871"><ele>0.6666666666666666</ele><time>2026-05-01T08:16:27.749Z</time></trkpt><trkpt lat="44.7208039" lon="11.7204956"><ele>1.0</ele><time>2026-05-01T08:16:28.75Z</time></trkpt><trkpt lat="44.7206484" lon="11.7207037"><ele>1.0</ele><time>2026-05-01T08:16:29.752Z</time></trkpt><trkpt lat="44.720494" lon="11.7209081"><ele>1.0</ele><time>2026-05-01T08:16:30.753Z</time></trkpt><trkpt lat="44.7203386" lon="11.7211084"><ele>1.0</ele><time>2026-05-01T08:16:31.753Z</time></trkpt><trkpt lat="44.7201802" lon="11.7213061"><ele>0.6666666666666666</ele><time>2026-05-01T08:16:32.745Z</time></trkpt><trkpt lat="44.72002" lon="11.7214983"><ele>0.3333333333333333</ele><time>2026-05-01T08:16:33.75Z</time></trkpt><trkpt lat="44.7198617" lon="11.721695"><ele>0.0</ele><time>2026-05-01T08:16:34.749Z</time></trkpt><trkpt lat="44.7197033" lon="11.7218867"><ele>0.0</ele><time>2026-05-01T08:16:35.754Z</time></trkpt><trkpt lat="44.7195467" lon="11.7220633"><ele>0.0</ele><time>2026-05-01T08:16:36.751Z</time></trkpt><trkpt lat="44.71939" lon="11.7222433"><ele>0.0</ele><time>2026-05-01T08:16:37.749Z</time></trkpt><trkpt lat="44.7192333" lon="11.7224167"><ele>0.0</ele><time>2026-05-01T08:16:38.751Z</time></trkpt><trkpt lat="44.7190783" lon="11.7225867"><ele>0.0</ele><time>2026-05-01T08:16:39.751Z</time></trkpt><trkpt lat="44.718925" lon="11.722755"><ele>0.0</ele><time>2026-05-01T08:16:40.741Z</time></trkpt><trkpt lat="44.71877" lon="11.7229167"><ele>0.0</ele><time>2026-05-01T08:16:41.75Z</time></trkpt><trkpt lat="44.71861" lon="11.72308"><ele>0.0</ele><time>2026-05-01T08:16:42.752Z</time></trkpt><trkpt lat="44.7184433" lon="11.7232467"><ele>0.0</ele><time>2026-05-01T08:16:43.745Z</time></trkpt><trkpt lat="44.7182683" lon="11.7234233"><ele>0.0</ele><time>2026-05-01T08:16:44.755Z</time></trkpt><trkpt lat="44.718085" lon="11.7236083"><ele>0.0</ele><time>2026-05-01T08:16:45.742Z</time></trkpt><trkpt lat="44.7178867" lon="11.723795"><ele>0.0</ele><time>2026-05-01T08:16:46.749Z</time></trkpt><trkpt lat="44.7176817" lon="11.7239933"><ele>0.0</ele><time>2026-05-01T08:16:47.742Z</time></trkpt><trkpt lat="44.7174767" lon="11.7241933"><ele>0.0</ele><time>2026-05-01T08:16:48.753Z</time></trkpt><trkpt lat="44.71726" lon="11.7243967"><ele>0.0</ele><time>2026-05-01T08:16:49.751Z</time></trkpt><trkpt lat="44.7170417" lon="11.7246"><ele>0.0</ele><time>2026-05-01T08:16:50.754Z</time></trkpt><trkpt lat="44.7168217" lon="11.7248067"><ele>0.0</ele><time>2026-05-01T08:16:51.754Z</time></trkpt><trkpt lat="44.7166" lon="11.7250133"><ele>0.0</ele><time>2026-05-01T08:16:52.749Z</time></trkpt><trkpt lat="44.716375" lon="11.7252217"><ele>0.0</ele><time>2026-05-01T08:16:53.749Z</time></trkpt><trkpt lat="44.7161483" lon="11.7254333"><ele>0.5</ele><time>2026-05-01T08:16:54.751Z</time></trkpt><trkpt lat="44.7159183" lon="11.7256467"><ele>1.0</ele><time>2026-05-01T08:16:55.752Z</time></trkpt><trkpt lat="44.7156883" lon="11.7258567"><ele>1.0</ele><time>2026-05-01T08:16:56.75Z</time></trkpt><trkpt lat="44.71546" lon="11.7260683"><ele>1.0</ele><time>2026-05-01T08:16:57.751Z</time></trkpt><trkpt lat="44.71523" lon="11.7262733"><ele>1.0</ele><time>2026-05-01T08:16:58.755Z</time></trkpt><trkpt lat="44.715005" lon="11.7264783"><ele>1.0</ele><time>2026-05-01T08:16:59.744Z</time></trkpt><trkpt lat="44.7147867" lon="11.7266817"><ele>1.0</ele><time>2026-05-01T08:17:00.745Z</time></trkpt><trkpt lat="44.7145717" lon="11.726885"><ele>1.0</ele><time>2026-05-01T08:17:01.755Z</time></trkpt><trkpt lat="44.71436" lon="11.7270817"><ele>0.5</ele><time>2026-05-01T08:17:02.75Z</time></trkpt><trkpt lat="44.71415" lon="11.7272717"><ele>0.0</ele><time>2026-05-01T08:17:03.752Z</time></trkpt><trkpt lat="44.7139467" lon="11.7274567"><ele>0.0</ele><time>2026-05-01T08:17:04.751Z</time></trkpt><trkpt lat="44.7137517" lon="11.7276383"><ele>0.0</ele><time>2026-05-01T08:17:05.751Z</time></trkpt><trkpt lat="44.7135583" lon="11.72782"><ele>-0.5</ele><time>2026-05-01T08:17:06.749Z</time></trkpt><trkpt lat="44.7133683" lon="11.7280033"><ele>-1.0</ele><time>2026-05-01T08:17:07.749Z</time></trkpt><trkpt lat="44.71318" lon="11.7281867"><ele>-1.0</ele><time>2026-05-01T08:17:08.754Z</time></trkpt><trkpt lat="44.7129917" lon="11.728375"><ele>-1.0</ele><time>2026-05-01T08:17:09.752Z</time></trkpt><trkpt lat="44.7128067" lon="11.7285667"><ele>0.5</ele><time>2026-05-01T08:17:10.752Z</time></trkpt><trkpt lat="44.7126267" lon="11.728755"><ele>2.0</ele><time>2026-05-01T08:17:11.755Z</time></trkpt><trkpt lat="44.7124467" lon="11.7289467"><ele>2.0</ele><time>2026-05-01T08:17:12.751Z</time></trkpt><trkpt lat="44.71227" lon="11.7291383"><ele>2.0</ele><time>2026-05-01T08:17:13.744Z</time></trkpt><trkpt lat="44.712095" lon="11.7293367"><ele>2.0</ele><time>2026-05-01T08:17:14.749Z</time></trkpt><trkpt lat="44.7119167" lon="11.7295517"><ele>1.5</ele><time>2026-05-01T08:17:15.748Z</time></trkpt><trkpt lat="44.7117333" lon="11.7297733"><ele>1.0</ele><time>2026-05-01T08:17:16.751Z</time></trkpt><trkpt lat="44.711545" lon="11.7300033"><ele>1.0</ele><time>2026-05-01T08:17:17.744Z</time></trkpt><trkpt lat="44.711355" lon="11.7302433"><ele>1.0</ele><time>2026-05-01T08:17:18.754Z</time></trkpt><trkpt lat="44.7111667" lon="11.7304867"><ele>0.5</ele><time>2026-05-01T08:17:19.748Z</time></trkpt><trkpt lat="44.7109783" lon="11.7307367"><ele>0.0</ele><time>2026-05-01T08:17:20.748Z</time></trkpt><trkpt lat="44.7107917" lon="11.7309917"><ele>-0.5</ele><time>2026-05-01T08:17:21.749Z</time></trkpt><trkpt lat="44.710605" lon="11.7312517"><ele>-1.0</ele><time>2026-05-01T08:17:22.748Z</time></trkpt><trkpt lat="44.71042" lon="11.731515"><ele>-1.0</ele><time>2026-05-01T08:17:23.748Z</time></trkpt><trkpt lat="44.7102367" lon="11.7317833"><ele>-1.0</ele><time>2026-05-01T08:17:24.749Z</time></trkpt><trkpt lat="44.710055" lon="11.7320583"><ele>-1.0</ele><time>2026-05-01T08:17:25.748Z</time></trkpt><trkpt lat="44.7098767" lon="11.7323367"><ele>-1.0</ele><time>2026-05-01T08:17:26.75Z</time></trkpt><trkpt lat="44.7097" lon="11.7326183"><ele>-1.0</ele><time>2026-05-01T08:17:27.75Z</time></trkpt><trkpt lat="44.7095267" lon="11.7329"><ele>-1.0</ele><time>2026-05-01T08:17:28.751Z</time></trkpt><trkpt lat="44.709355" lon="11.7331833"><ele>0.0</ele><time>2026-05-01T08:17:29.749Z</time></trkpt><trkpt lat="44.7091817" lon="11.73346"><ele>1.0</ele><time>2026-05-01T08:17:30.754Z</time></trkpt><trkpt lat="44.70901" lon="11.733735"><ele>1.0</ele><time>2026-05-01T08:17:31.746Z</time></trkpt><trkpt lat="44.70884" lon="11.7340067"><ele>1.0</ele><time>2026-05-01T08:17:32.745Z</time></trkpt><trkpt lat="44.7086733" lon="11.7342767"><ele>0.5</ele><time>2026-05-01T08:17:33.743Z</time></trkpt><trkpt lat="44.7085083" lon="11.7345483"><ele>0.0</ele><time>2026-05-01T08:17:34.744Z</time></trkpt><trkpt lat="44.7083417" lon="11.7348217"><ele>0.0</ele><time>2026-05-01T08:17:35.743Z</time></trkpt><trkpt lat="44.7081767" lon="11.735095"><ele>0.0</ele><time>2026-05-01T08:17:36.745Z</time></trkpt><trkpt lat="44.7080033" lon="11.7353683"><ele>0.0</ele><time>2026-05-01T08:17:37.742Z</time></trkpt><trkpt lat="44.7078267" lon="11.735655"><ele>0.0</ele><time>2026-05-01T08:17:38.746Z</time></trkpt><trkpt lat="44.7076467" lon="11.735945"><ele>-0.5</ele><time>2026-05-01T08:17:39.744Z</time></trkpt><trkpt lat="44.707465" lon="11.7362383"><ele>-1.0</ele><time>2026-05-01T08:17:40.746Z</time></trkpt><trkpt lat="44.7072817" lon="11.7365283"><ele>-1.0</ele><time>2026-05-01T08:17:41.742Z</time></trkpt><trkpt lat="44.7071033" lon="11.7368183"><ele>-1.0</ele><time>2026-05-01T08:17:42.745Z</time></trkpt><trkpt lat="44.7069217" lon="11.7371067"><ele>-1.0</ele><time>2026-05-01T08:17:43.746Z</time></trkpt><trkpt lat="44.706735" lon="11.73739"><ele>-1.0</ele><time>2026-05-01T08:17:44.742Z</time></trkpt><trkpt lat="44.706555" lon="11.737675"><ele>-1.0</ele><time>2026-05-01T08:17:45.744Z</time></trkpt><trkpt lat="44.7063767" lon="11.7379633"><ele>-1.0</ele><time>2026-05-01T08:17:46.743Z</time></trkpt><trkpt lat="44.7062" lon="11.7382483"><ele>-0.5</ele><time>2026-05-01T08:17:47.745Z</time></trkpt><trkpt lat="44.7060233" lon="11.73853"><ele>0.0</ele><time>2026-05-01T08:17:48.744Z</time></trkpt><trkpt lat="44.7058467" lon="11.73881"><ele>0.0</ele><time>2026-05-01T08:17:49.744Z</time></trkpt><trkpt lat="44.70567" lon="11.7390917"><ele>0.0</ele><time>2026-05-01T08:17:50.745Z</time></trkpt><trkpt lat="44.7054933" lon="11.7393733"><ele>0.0</ele><time>2026-05-01T08:17:51.746Z</time></trkpt><trkpt lat="44.7053183" lon="11.7396533"><ele>0.0</ele><time>2026-05-01T08:17:52.744Z</time></trkpt><trkpt lat="44.7051433" lon="11.7399317"><ele>0.0</ele><time>2026-05-01T08:17:53.75Z</time></trkpt><trkpt lat="44.7049717" lon="11.7402117"><ele>0.0</ele><time>2026-05-01T08:17:54.75Z</time></trkpt><trkpt lat="44.7048" lon="11.7404917"><ele>0.0</ele><time>2026-05-01T08:17:55.749Z</time></trkpt><trkpt lat="44.704625" lon="11.7407717"><ele>0.0</ele><time>2026-05-01T08:17:56.753Z</time></trkpt><trkpt lat="44.7044533" lon="11.7410533"><ele>-0.5</ele><time>2026-05-01T08:17:57.748Z</time></trkpt><trkpt lat="44.70428" lon="11.7413383"><ele>-1.0</ele><time>2026-05-01T08:17:58.749Z</time></trkpt><trkpt lat="44.7041067" lon="11.7416233"><ele>-1.5</ele><time>2026-05-01T08:17:59.748Z</time></trkpt><trkpt lat="44.7039333" lon="11.7419067"><ele>-2.0</ele><time>2026-05-01T08:18:00.746Z</time></trkpt><trkpt lat="44.7037583" lon="11.742185"><ele>-2.0</ele><time>2026-05-01T08:18:01.743Z</time></trkpt><trkpt lat="44.7035883" lon="11.742465"><ele>-2.0</ele><time>2026-05-01T08:18:02.76Z</time></trkpt><trkpt lat="44.7034167" lon="11.7427417"><ele>-1.0</ele><time>2026-05-01T08:18:03.751Z</time></trkpt><trkpt lat="44.7032533" lon="11.7430133"><ele>0.0</ele><time>2026-05-01T08:18:04.749Z</time></trkpt><trkpt lat="44.7030933" lon="11.7432717"><ele>0.0</ele><time>2026-05-01T08:18:05.751Z</time></trkpt><trkpt lat="44.7029333" lon="11.7435267"><ele>0.0</ele><time>2026-05-01T08:18:06.755Z</time></trkpt><trkpt lat="44.7027767" lon="11.7437767"><ele>1.0</ele><time>2026-05-01T08:18:07.756Z</time></trkpt><trkpt lat="44.7026183" lon="11.7440267"><ele>2.0</ele><time>2026-05-01T08:18:08.753Z</time></trkpt><trkpt lat="44.7024633" lon="11.74428"><ele>2.0</ele><time>2026-05-01T08:18:09.743Z</time></trkpt><trkpt lat="44.7023067" lon="11.7445383"><ele>2.0</ele><time>2026-05-01T08:18:10.755Z</time></trkpt><trkpt lat="44.7021517" lon="11.7447933"><ele>2.0</ele><time>2026-05-01T08:18:11.755Z</time></trkpt><trkpt lat="44.701995" lon="11.7450467"><ele>2.0</ele><time>2026-05-01T08:18:12.756Z</time></trkpt><trkpt lat="44.7018367" lon="11.7453067"><ele>1.0</ele><time>2026-05-01T08:18:13.749Z</time></trkpt><trkpt lat="44.7016783" lon="11.7455667"><ele>0.0</ele><time>2026-05-01T08:18:14.749Z</time></trkpt><trkpt lat="44.7015167" lon="11.7458217"><ele>0.0</ele><time>2026-05-01T08:18:15.743Z</time></trkpt><trkpt lat="44.7013517" lon="11.7460817"><ele>0.0</ele><time>2026-05-01T08:18:16.752Z</time></trkpt><trkpt lat="44.70119" lon="11.7463417"><ele>0.5</ele><time>2026-05-01T08:18:17.767Z</time></trkpt><trkpt lat="44.7010283" lon="11.7466033"><ele>1.0</ele><time>2026-05-01T08:18:18.749Z</time></trkpt><trkpt lat="44.7008667" lon="11.7468633"><ele>1.0</ele><time>2026-05-01T08:18:19.756Z</time></trkpt><trkpt lat="44.7007067" lon="11.74712"><ele>1.0</ele><time>2026-05-01T08:18:20.745Z</time></trkpt><trkpt lat="44.70055" lon="11.74737"><ele>1.0</ele><time>2026-05-01T08:18:21.744Z</time></trkpt><trkpt lat="44.700395" lon="11.7476183"><ele>1.0</ele><time>2026-05-01T08:18:22.752Z</time></trkpt><trkpt lat="44.7002417" lon="11.7478667"><ele>0.5</ele><time>2026-05-01T08:18:23.754Z</time></trkpt><trkpt lat="44.7000883" lon="11.7481117"><ele>0.0</ele><time>2026-05-01T08:18:24.75Z</time></trkpt><trkpt lat="44.6999333" lon="11.748355"><ele>0.5</ele><time>2026-05-01T08:18:25.754Z</time></trkpt><trkpt lat="44.6997833" lon="11.748595"><ele>1.0</ele><time>2026-05-01T08:18:26.75Z</time></trkpt><trkpt lat="44.6996367" lon="11.7488333"><ele>1.0</ele><time>2026-05-01T08:18:27.751Z</time></trkpt><trkpt lat="44.6994917" lon="11.7490683"><ele>1.0</ele><time>2026-05-01T08:18:28.743Z</time></trkpt><trkpt lat="44.6993483" lon="11.7493"><ele>1.0</ele><time>2026-05-01T08:18:29.746Z</time></trkpt><trkpt lat="44.6992017" lon="11.7495283"><ele>1.0</ele><time>2026-05-01T08:18:30.755Z</time></trkpt><trkpt lat="44.6990567" lon="11.7497633"><ele>1.0</ele><time>2026-05-01T08:18:31.743Z</time></trkpt><trkpt lat="44.6989117" lon="11.7500017"><ele>1.0</ele><time>2026-05-01T08:18:32.755Z</time></trkpt><trkpt lat="44.698765" lon="11.7502417"><ele>0.5</ele><time>2026-05-01T08:18:33.755Z</time></trkpt><trkpt lat="44.6986167" lon="11.75049"><ele>0.0</ele><time>2026-05-01T08:18:34.75Z</time></trkpt><trkpt lat="44.6984667" lon="11.7507367"><ele>1.0</ele><time>2026-05-01T08:18:35.751Z</time></trkpt><trkpt lat="44.698315" lon="11.7509817"><ele>2.0</ele><time>2026-05-01T08:18:36.752Z</time></trkpt><trkpt lat="44.6981583" lon="11.75123"><ele>2.0</ele><time>2026-05-01T08:18:37.751Z</time></trkpt><trkpt lat="44.698" lon="11.7514933"><ele>2.0</ele><time>2026-05-01T08:18:38.751Z</time></trkpt><trkpt lat="44.6978333" lon="11.7517683"><ele>1.5</ele><time>2026-05-01T08:18:39.757Z</time></trkpt><trkpt lat="44.6976583" lon="11.7520533"><ele>1.0</ele><time>2026-05-01T08:18:40.75Z</time></trkpt><trkpt lat="44.6974783" lon="11.7523433"><ele>1.0</ele><time>2026-05-01T08:18:41.751Z</time></trkpt><trkpt lat="44.6972883" lon="11.75264"><ele>1.0</ele><time>2026-05-01T08:18:42.751Z</time></trkpt><trkpt lat="44.6970967" lon="11.7529383"><ele>1.0</ele><time>2026-05-01T08:18:43.751Z</time></trkpt><trkpt lat="44.6969083" lon="11.7532317"><ele>1.0</ele><time>2026-05-01T08:18:44.756Z</time></trkpt><trkpt lat="44.6967217" lon="11.75353"><ele>0.0</ele><time>2026-05-01T08:18:45.751Z</time></trkpt><trkpt lat="44.6965383" lon="11.7538283"><ele>-1.0</ele><time>2026-05-01T08:18:46.749Z</time></trkpt><trkpt lat="44.696365" lon="11.7541233"><ele>-1.0</ele><time>2026-05-01T08:18:47.748Z</time></trkpt><trkpt lat="44.6961967" lon="11.7544217"><ele>-1.0</ele><time>2026-05-01T08:18:48.75Z</time></trkpt><trkpt lat="44.6960317" lon="11.754715"><ele>-1.0</ele><time>2026-05-01T08:18:49.742Z</time></trkpt><trkpt lat="44.6958733" lon="11.755"><ele>-1.0</ele><time>2026-05-01T08:18:50.752Z</time></trkpt><trkpt lat="44.6957167" lon="11.7552783"><ele>-1.0</ele><time>2026-05-01T08:18:51.755Z</time></trkpt><trkpt lat="44.69556" lon="11.7555583"><ele>-1.0</ele><time>2026-05-01T08:18:52.749Z</time></trkpt><trkpt lat="44.695405" lon="11.755835"><ele>-2.0</ele><time>2026-05-01T08:18:53.743Z</time></trkpt><trkpt lat="44.695255" lon="11.7561067"><ele>-3.0</ele><time>2026-05-01T08:18:54.752Z</time></trkpt><trkpt lat="44.6951083" lon="11.75637"><ele>-3.0</ele><time>2026-05-01T08:18:55.742Z</time></trkpt><trkpt lat="44.694965" lon="11.756625"><ele>-3.0</ele><time>2026-05-01T08:18:56.751Z</time></trkpt><trkpt lat="44.6948317" lon="11.7568683"><ele>-3.0</ele><time>2026-05-01T08:18:57.755Z</time></trkpt><trkpt lat="44.6946967" lon="11.7571083"><ele>-2.6666666666666665</ele><time>2026-05-01T08:18:58.751Z</time></trkpt><trkpt lat="44.69456" lon="11.7573467"><ele>-2.333333333333333</ele><time>2026-05-01T08:18:59.756Z</time></trkpt><trkpt lat="44.694425" lon="11.7575867"><ele>-2.0</ele><time>2026-05-01T08:19:00.749Z</time></trkpt><trkpt lat="44.6942867" lon="11.757835"><ele>-2.0</ele><time>2026-05-01T08:19:01.752Z</time></trkpt><trkpt lat="44.6941483" lon="11.7580833"><ele>-2.0</ele><time>2026-05-01T08:19:02.753Z</time></trkpt><trkpt lat="44.6940067" lon="11.7583383"><ele>-2.0</ele><time>2026-05-01T08:19:03.761Z</time></trkpt><trkpt lat="44.6938633" lon="11.7585917"><ele>-2.0</ele><time>2026-05-01T08:19:04.755Z</time></trkpt><trkpt lat="44.6937217" lon="11.7588467"><ele>-2.0</ele><time>2026-05-01T08:19:05.755Z</time></trkpt><trkpt lat="44.6935767" lon="11.7591017"><ele>-2.0</ele><time>2026-05-01T08:19:06.746Z</time></trkpt><trkpt lat="44.6934317" lon="11.75936"><ele>-1.5</ele><time>2026-05-01T08:19:07.75Z</time></trkpt><trkpt lat="44.6932867" lon="11.7596167"><ele>-1.0</ele><time>2026-05-01T08:19:08.748Z</time></trkpt><trkpt lat="44.693145" lon="11.7598717"><ele>-1.0</ele><time>2026-05-01T08:19:09.75Z</time></trkpt><trkpt lat="44.693005" lon="11.760125"><ele>-1.0</ele><time>2026-05-01T08:19:10.751Z</time></trkpt><trkpt lat="44.6928667" lon="11.760375"><ele>-1.0</ele><time>2026-05-01T08:19:11.744Z</time></trkpt><trkpt lat="44.692725" lon="11.76064"><ele>-1.0</ele><time>2026-05-01T08:19:12.75Z</time></trkpt><trkpt lat="44.692575" lon="11.760915"><ele>-1.5</ele><time>2026-05-01T08:19:13.743Z</time></trkpt><trkpt lat="44.6924183" lon="11.7611967"><ele>-2.0</ele><time>2026-05-01T08:19:14.75Z</time></trkpt><trkpt lat="44.692255" lon="11.7614817"><ele>-2.0</ele><time>2026-05-01T08:19:15.752Z</time></trkpt><trkpt lat="44.69209" lon="11.7617667"><ele>-2.0</ele><time>2026-05-01T08:19:16.746Z</time></trkpt><trkpt lat="44.6919267" lon="11.7620483"><ele>-2.0</ele><time>2026-05-01T08:19:17.751Z</time></trkpt><trkpt lat="44.6917667" lon="11.7623283"><ele>-2.0</ele><time>2026-05-01T08:19:18.753Z</time></trkpt><trkpt lat="44.6916117" lon="11.7626033"><ele>-1.0</ele><time>2026-05-01T08:19:19.75Z</time></trkpt><trkpt lat="44.6914617" lon="11.76287"><ele>0.0</ele><time>2026-05-01T08:19:20.753Z</time></trkpt><trkpt lat="44.6913167" lon="11.7631317"><ele>0.0</ele><time>2026-05-01T08:19:21.749Z</time></trkpt><trkpt lat="44.691175" lon="11.7633833"><ele>0.0</ele><time>2026-05-01T08:19:22.752Z</time></trkpt><trkpt lat="44.6910383" lon="11.7636233"><ele>0.0</ele><time>2026-05-01T08:19:23.75Z</time></trkpt><trkpt lat="44.690905" lon="11.7638633"><ele>0.0</ele><time>2026-05-01T08:19:24.756Z</time></trkpt><trkpt lat="44.6907683" lon="11.76411"><ele>0.0</ele><time>2026-05-01T08:19:25.749Z</time></trkpt><trkpt lat="44.6906283" lon="11.7643683"><ele>0.0</ele><time>2026-05-01T08:19:26.755Z</time></trkpt><trkpt lat="44.6904817" lon="11.7646417"><ele>0.0</ele><time>2026-05-01T08:19:27.748Z</time></trkpt><trkpt lat="44.6903283" lon="11.7649217"><ele>0.0</ele><time>2026-05-01T08:19:28.745Z</time></trkpt><trkpt lat="44.6901683" lon="11.7652067"><ele>0.0</ele><time>2026-05-01T08:19:29.751Z</time></trkpt><trkpt lat="44.68985" lon="11.7657817"><ele>0.5</ele><time>2026-05-01T08:19:31.754Z</time></trkpt><trkpt lat="44.6896883" lon="11.7660717"><ele>1.0</ele><time>2026-05-01T08:19:32.748Z</time></trkpt><trkpt lat="44.6895267" lon="11.7663617"><ele>0.0</ele><time>2026-05-01T08:19:33.743Z</time></trkpt><trkpt lat="44.689365" lon="11.7666483"><ele>-1.0</ele><time>2026-05-01T08:19:34.75Z</time></trkpt><trkpt lat="44.6892043" lon="11.7669381"><ele>-1.0</ele><time>2026-05-01T08:19:35.752Z</time></trkpt><trkpt lat="44.6890433" lon="11.7672287"><ele>-1.0</ele><time>2026-05-01T08:19:36.751Z</time></trkpt><trkpt lat="44.6888803" lon="11.7675179"><ele>-0.5</ele><time>2026-05-01T08:19:37.749Z</time></trkpt><trkpt lat="44.6887163" lon="11.7678073"><ele>0.0</ele><time>2026-05-01T08:19:38.753Z</time></trkpt><trkpt lat="44.6885536" lon="11.7680961"><ele>0.0</ele><time>2026-05-01T08:19:39.751Z</time></trkpt><trkpt lat="44.6883908" lon="11.7683845"><ele>0.0</ele><time>2026-05-01T08:19:40.742Z</time></trkpt><trkpt lat="44.688229" lon="11.7686767"><ele>-0.5</ele><time>2026-05-01T08:19:41.75Z</time></trkpt><trkpt lat="44.6880688" lon="11.7689659"><ele>-1.0</ele><time>2026-05-01T08:19:42.751Z</time></trkpt><trkpt lat="44.6879082" lon="11.7692507"><ele>0.0</ele><time>2026-05-01T08:19:43.749Z</time></trkpt><trkpt lat="44.6877459" lon="11.7695309"><ele>1.0</ele><time>2026-05-01T08:19:44.752Z</time></trkpt><trkpt lat="44.6875903" lon="11.7698048"><ele>1.0</ele><time>2026-05-01T08:19:45.742Z</time></trkpt><trkpt lat="44.6874393" lon="11.7700709"><ele>1.0</ele><time>2026-05-01T08:19:46.748Z</time></trkpt><trkpt lat="44.6872999" lon="11.7703166"><ele>1.0</ele><time>2026-05-01T08:19:47.749Z</time></trkpt><trkpt lat="44.6871724" lon="11.7705388"><ele>1.0</ele><time>2026-05-01T08:19:48.747Z</time></trkpt><trkpt lat="44.6870492" lon="11.7707569"><ele>1.0</ele><time>2026-05-01T08:19:49.751Z</time></trkpt><trkpt lat="44.6869307" lon="11.7709737"><ele>0.6666666666666666</ele><time>2026-05-01T08:19:50.743Z</time></trkpt><trkpt lat="44.686808" lon="11.771192"><ele>0.3333333333333333</ele><time>2026-05-01T08:19:51.745Z</time></trkpt><trkpt lat="44.6866856" lon="11.7714142"><ele>0.0</ele><time>2026-05-01T08:19:52.752Z</time></trkpt><trkpt lat="44.6865643" lon="11.771633"><ele>0.0</ele><time>2026-05-01T08:19:53.744Z</time></trkpt><trkpt lat="44.6864506" lon="11.7718386"><ele>0.0</ele><time>2026-05-01T08:19:54.752Z</time></trkpt><trkpt lat="44.6863475" lon="11.7720262"><ele>0.0</ele><time>2026-05-01T08:19:55.752Z</time></trkpt><trkpt lat="44.6862472" lon="11.7722068"><ele>0.0</ele><time>2026-05-01T08:19:56.75Z</time></trkpt><trkpt lat="44.6861421" lon="11.7723923"><ele>0.0</ele><time>2026-05-01T08:19:57.747Z</time></trkpt><trkpt lat="44.6860331" lon="11.7725937"><ele>0.0</ele><time>2026-05-01T08:19:58.745Z</time></trkpt><trkpt lat="44.6859148" lon="11.7728116"><ele>0.0</ele><time>2026-05-01T08:19:59.749Z</time></trkpt><trkpt lat="44.6857899" lon="11.7730383"><ele>0.0</ele><time>2026-05-01T08:20:00.751Z</time></trkpt><trkpt lat="44.6856731" lon="11.7732517"><ele>0.0</ele><time>2026-05-01T08:20:01.75Z</time></trkpt><trkpt lat="44.6855404" lon="11.7734834"><ele>-0.5</ele><time>2026-05-01T08:20:02.744Z</time></trkpt><trkpt lat="44.6853951" lon="11.7737292"><ele>-1.0</ele><time>2026-05-01T08:20:03.753Z</time></trkpt><trkpt lat="44.685245" lon="11.7739851"><ele>-1.0</ele><time>2026-05-01T08:20:04.751Z</time></trkpt><trkpt lat="44.6850898" lon="11.7742474"><ele>-1.0</ele><time>2026-05-01T08:20:05.749Z</time></trkpt><trkpt lat="44.6849323" lon="11.7745127"><ele>-0.5</ele><time>2026-05-01T08:20:06.751Z</time></trkpt><trkpt lat="44.6847744" lon="11.7747846"><ele>0.0</ele><time>2026-05-01T08:20:07.752Z</time></trkpt><trkpt lat="44.6846191" lon="11.7750599"><ele>0.0</ele><time>2026-05-01T08:20:08.749Z</time></trkpt><trkpt lat="44.6844626" lon="11.7753365"><ele>0.0</ele><time>2026-05-01T08:20:09.748Z</time></trkpt><trkpt lat="44.6843093" lon="11.7756158"><ele>0.0</ele><time>2026-05-01T08:20:10.742Z</time></trkpt><trkpt lat="44.6841549" lon="11.7758997"><ele>0.0</ele><time>2026-05-01T08:20:11.744Z</time></trkpt><trkpt lat="44.6839995" lon="11.7761832"><ele>0.0</ele><time>2026-05-01T08:20:12.752Z</time></trkpt><trkpt lat="44.6838425" lon="11.7764677"><ele>0.0</ele><time>2026-05-01T08:20:13.752Z</time></trkpt><trkpt lat="44.6836823" lon="11.7767536"><ele>-1.0</ele><time>2026-05-01T08:20:14.746Z</time></trkpt><trkpt lat="44.6835188" lon="11.7770419"><ele>-2.0</ele><time>2026-05-01T08:20:15.744Z</time></trkpt><trkpt lat="44.6833551" lon="11.7773334"><ele>-2.0</ele><time>2026-05-01T08:20:16.749Z</time></trkpt><trkpt lat="44.6831923" lon="11.7776254"><ele>-2.0</ele><time>2026-05-01T08:20:17.751Z</time></trkpt><trkpt lat="44.6830296" lon="11.7779196"><ele>-1.0</ele><time>2026-05-01T08:20:18.748Z</time></trkpt><trkpt lat="44.6828661" lon="11.7782135"><ele>0.0</ele><time>2026-05-01T08:20:19.753Z</time></trkpt><trkpt lat="44.6827025" lon="11.7785061"><ele>0.5</ele><time>2026-05-01T08:20:20.754Z</time></trkpt><trkpt lat="44.6825396" lon="11.7787966"><ele>1.0</ele><time>2026-05-01T08:20:21.743Z</time></trkpt><trkpt lat="44.682378" lon="11.7790887"><ele>1.0</ele><time>2026-05-01T08:20:22.748Z</time></trkpt><trkpt lat="44.6822168" lon="11.7793795"><ele>1.0</ele><time>2026-05-01T08:20:23.755Z</time></trkpt><trkpt lat="44.682056" lon="11.7796681"><ele>0.0</ele><time>2026-05-01T08:20:24.746Z</time></trkpt><trkpt lat="44.6818944" lon="11.7799568"><ele>-1.0</ele><time>2026-05-01T08:20:25.747Z</time></trkpt><trkpt lat="44.6817344" lon="11.7802459"><ele>-1.0</ele><time>2026-05-01T08:20:26.749Z</time></trkpt><trkpt lat="44.6815751" lon="11.7805322"><ele>-1.0</ele><time>2026-05-01T08:20:27.747Z</time></trkpt><trkpt lat="44.6814154" lon="11.7808161"><ele>-1.0</ele><time>2026-05-01T08:20:28.75Z</time></trkpt><trkpt lat="44.6812571" lon="11.7810971"><ele>-1.0</ele><time>2026-05-01T08:20:29.755Z</time></trkpt><trkpt lat="44.6810992" lon="11.7813769"><ele>-0.5</ele><time>2026-05-01T08:20:30.752Z</time></trkpt><trkpt lat="44.6809427" lon="11.7816591"><ele>0.0</ele><time>2026-05-01T08:20:31.751Z</time></trkpt><trkpt lat="44.6807853" lon="11.7819399"><ele>0.0</ele><time>2026-05-01T08:20:32.745Z</time></trkpt><trkpt lat="44.6806264" lon="11.7822179"><ele>0.0</ele><time>2026-05-01T08:20:33.749Z</time></trkpt><trkpt lat="44.6804688" lon="11.782491"><ele>0.0</ele><time>2026-05-01T08:20:34.742Z</time></trkpt><trkpt lat="44.680314" lon="11.7827632"><ele>0.0</ele><time>2026-05-01T08:20:35.752Z</time></trkpt><trkpt lat="44.6801626" lon="11.7830312"><ele>0.0</ele><time>2026-05-01T08:20:36.752Z</time></trkpt><trkpt lat="44.6800121" lon="11.7832957"><ele>0.0</ele><time>2026-05-01T08:20:37.752Z</time></trkpt><trkpt lat="44.6798664" lon="11.7835527"><ele>0.5</ele><time>2026-05-01T08:20:38.743Z</time></trkpt><trkpt lat="44.6797241" lon="11.7838076"><ele>1.0</ele><time>2026-05-01T08:20:39.744Z</time></trkpt><trkpt lat="44.6795866" lon="11.7840569"><ele>1.0</ele><time>2026-05-01T08:20:40.748Z</time></trkpt><trkpt lat="44.6794481" lon="11.7843007"><ele>1.0</ele><time>2026-05-01T08:20:41.754Z</time></trkpt><trkpt lat="44.6793116" lon="11.784542"><ele>1.0</ele><time>2026-05-01T08:20:42.751Z</time></trkpt><trkpt lat="44.6791739" lon="11.7847857"><ele>1.0</ele><time>2026-05-01T08:20:43.756Z</time></trkpt><trkpt lat="44.6790377" lon="11.7850294"><ele>1.0</ele><time>2026-05-01T08:20:44.753Z</time></trkpt><trkpt lat="44.6789011" lon="11.7852746"><ele>1.0</ele><time>2026-05-01T08:20:45.757Z</time></trkpt><trkpt lat="44.6787642" lon="11.7855205"><ele>0.5</ele><time>2026-05-01T08:20:46.749Z</time></trkpt><trkpt lat="44.6786257" lon="11.7857732"><ele>0.0</ele><time>2026-05-01T08:20:47.754Z</time></trkpt><trkpt lat="44.678484" lon="11.7860357"><ele>-0.5</ele><time>2026-05-01T08:20:48.749Z</time></trkpt><trkpt lat="44.678337" lon="11.7863052"><ele>-1.0</ele><time>2026-05-01T08:20:49.752Z</time></trkpt><trkpt lat="44.6781856" lon="11.7865779"><ele>0.0</ele><time>2026-05-01T08:20:50.751Z</time></trkpt><trkpt lat="44.6780303" lon="11.7868524"><ele>1.0</ele><time>2026-05-01T08:20:51.751Z</time></trkpt><trkpt lat="44.6778765" lon="11.7871289"><ele>1.5</ele><time>2026-05-01T08:20:52.748Z</time></trkpt><trkpt lat="44.6777192" lon="11.7874033"><ele>2.0</ele><time>2026-05-01T08:20:53.748Z</time></trkpt><trkpt lat="44.6775635" lon="11.7876773"><ele>2.5</ele><time>2026-05-01T08:20:54.751Z</time></trkpt><trkpt lat="44.6774074" lon="11.7879492"><ele>3.0</ele><time>2026-05-01T08:20:55.742Z</time></trkpt><trkpt lat="44.6772479" lon="11.7882206"><ele>3.0</ele><time>2026-05-01T08:20:56.752Z</time></trkpt><trkpt lat="44.6770896" lon="11.7884885"><ele>3.0</ele><time>2026-05-01T08:20:57.751Z</time></trkpt><trkpt lat="44.6769314" lon="11.7887563"><ele>1.5</ele><time>2026-05-01T08:20:58.748Z</time></trkpt><trkpt lat="44.6767719" lon="11.7890184"><ele>0.0</ele><time>2026-05-01T08:20:59.752Z</time></trkpt><trkpt lat="44.6766123" lon="11.7892677"><ele>0.5</ele><time>2026-05-01T08:21:00.75Z</time></trkpt><trkpt lat="44.6764502" lon="11.7895064"><ele>1.0</ele><time>2026-05-01T08:21:01.75Z</time></trkpt><trkpt lat="44.6762877" lon="11.7897322"><ele>1.0</ele><time>2026-05-01T08:21:02.753Z</time></trkpt><trkpt lat="44.676131" lon="11.7899392"><ele>1.0</ele><time>2026-05-01T08:21:03.753Z</time></trkpt><trkpt lat="44.6759817" lon="11.7901133"><ele>1.0</ele><time>2026-05-01T08:21:04.748Z</time></trkpt><trkpt lat="44.6758283" lon="11.7903017"><ele>0.6666666666666666</ele><time>2026-05-01T08:21:05.749Z</time></trkpt><trkpt lat="44.6756717" lon="11.79048"><ele>0.3333333333333333</ele><time>2026-05-01T08:21:06.742Z</time></trkpt><trkpt lat="44.6755183" lon="11.7906483"><ele>0.0</ele><time>2026-05-01T08:21:07.751Z</time></trkpt><trkpt lat="44.6753567" lon="11.7908167"><ele>0.0</ele><time>2026-05-01T08:21:08.748Z</time></trkpt><trkpt lat="44.6751883" lon="11.79099"><ele>0.0</ele><time>2026-05-01T08:21:09.75Z</time></trkpt><trkpt lat="44.6750233" lon="11.7911467"><ele>0.0</ele><time>2026-05-01T08:21:10.75Z</time></trkpt><trkpt lat="44.6748417" lon="11.7913133"><ele>-0.3333333333333333</ele><time>2026-05-01T08:21:11.76Z</time></trkpt><trkpt lat="44.674655" lon="11.7914817"><ele>-0.6666666666666666</ele><time>2026-05-01T08:21:12.751Z</time></trkpt><trkpt lat="44.6744633" lon="11.7916533"><ele>-1.0</ele><time>2026-05-01T08:21:13.757Z</time></trkpt><trkpt lat="44.6742667" lon="11.7918267"><ele>-1.0</ele><time>2026-05-01T08:21:14.754Z</time></trkpt><trkpt lat="44.6740683" lon="11.792"><ele>-1.0</ele><time>2026-05-01T08:21:15.745Z</time></trkpt><trkpt lat="44.673865" lon="11.79218"><ele>-1.0</ele><time>2026-05-01T08:21:16.742Z</time></trkpt><trkpt lat="44.67366" lon="11.7923617"><ele>-1.0</ele><time>2026-05-01T08:21:17.748Z</time></trkpt><trkpt lat="44.6734517" lon="11.7925433"><ele>-0.5</ele><time>2026-05-01T08:21:18.75Z</time></trkpt><trkpt lat="44.67324" lon="11.7927267"><ele>0.0</ele><time>2026-05-01T08:21:19.752Z</time></trkpt><trkpt lat="44.6730217" lon="11.7929117"><ele>0.0</ele><time>2026-05-01T08:21:20.749Z</time></trkpt><trkpt lat="44.6728017" lon="11.7930967"><ele>0.0</ele><time>2026-05-01T08:21:21.751Z</time></trkpt><trkpt lat="44.67258" lon="11.79329"><ele>-0.5</ele><time>2026-05-01T08:21:22.753Z</time></trkpt><trkpt lat="44.672355" lon="11.793485"><ele>-1.0</ele><time>2026-05-01T08:21:23.743Z</time></trkpt><trkpt lat="44.6721283" lon="11.7936767"><ele>-1.0</ele><time>2026-05-01T08:21:24.75Z</time></trkpt><trkpt lat="44.6718983" lon="11.7938683"><ele>-1.0</ele><time>2026-05-01T08:21:25.742Z</time></trkpt><trkpt lat="44.6716683" lon="11.7940617"><ele>-1.0</ele><time>2026-05-01T08:21:26.752Z</time></trkpt><trkpt lat="44.6714367" lon="11.7942567"><ele>-1.0</ele><time>2026-05-01T08:21:27.751Z</time></trkpt><trkpt lat="44.6712067" lon="11.79445"><ele>-1.5</ele><time>2026-05-01T08:21:28.75Z</time></trkpt><trkpt lat="44.670975" lon="11.7946417"><ele>-2.0</ele><time>2026-05-01T08:21:29.752Z</time></trkpt><trkpt lat="44.6707467" lon="11.7948317"><ele>-2.0</ele><time>2026-05-01T08:21:30.755Z</time></trkpt><trkpt lat="44.6705183" lon="11.7950233"><ele>-2.0</ele><time>2026-05-01T08:21:31.752Z</time></trkpt><trkpt lat="44.6702933" lon="11.7952183"><ele>-1.0</ele><time>2026-05-01T08:21:32.747Z</time></trkpt><trkpt lat="44.6700683" lon="11.7954117"><ele>0.0</ele><time>2026-05-01T08:21:33.749Z</time></trkpt><trkpt lat="44.6698433" lon="11.7956033"><ele>0.0</ele><time>2026-05-01T08:21:34.749Z</time></trkpt><trkpt lat="44.6696167" lon="11.7957967"><ele>0.0</ele><time>2026-05-01T08:21:35.747Z</time></trkpt><trkpt lat="44.66939" lon="11.7959917"><ele>-0.5</ele><time>2026-05-01T08:21:36.753Z</time></trkpt><trkpt lat="44.6691633" lon="11.7961817"><ele>-1.0</ele><time>2026-05-01T08:21:37.742Z</time></trkpt><trkpt lat="44.6689383" lon="11.796375"><ele>-1.0</ele><time>2026-05-01T08:21:38.745Z</time></trkpt><trkpt lat="44.6687117" lon="11.7965717"><ele>-1.0</ele><time>2026-05-01T08:21:39.753Z</time></trkpt><trkpt lat="44.6684817" lon="11.796765"><ele>-0.5</ele><time>2026-05-01T08:21:40.753Z</time></trkpt><trkpt lat="44.668255" lon="11.796965"><ele>0.0</ele><time>2026-05-01T08:21:41.75Z</time></trkpt><trkpt lat="44.6680267" lon="11.797165"><ele>0.0</ele><time>2026-05-01T08:21:42.753Z</time></trkpt><trkpt lat="44.6677983" lon="11.7973617"><ele>0.0</ele><time>2026-05-01T08:21:43.76Z</time></trkpt><trkpt lat="44.6675683" lon="11.7975583"><ele>0.0</ele><time>2026-05-01T08:21:44.75Z</time></trkpt><trkpt lat="44.6673367" lon="11.7977517"><ele>0.0</ele><time>2026-05-01T08:21:45.752Z</time></trkpt><trkpt lat="44.667105" lon="11.79795"><ele>-0.5</ele><time>2026-05-01T08:21:46.748Z</time></trkpt><trkpt lat="44.66687" lon="11.7981467"><ele>-1.0</ele><time>2026-05-01T08:21:47.745Z</time></trkpt><trkpt lat="44.6666383" lon="11.7983433"><ele>-1.0</ele><time>2026-05-01T08:21:48.749Z</time></trkpt><trkpt lat="44.6664033" lon="11.798545"><ele>-1.0</ele><time>2026-05-01T08:21:49.751Z</time></trkpt><trkpt lat="44.66617" lon="11.79875"><ele>-1.0</ele><time>2026-05-01T08:21:50.751Z</time></trkpt><trkpt lat="44.6659367" lon="11.798955"><ele>-1.0</ele><time>2026-05-01T08:21:51.748Z</time></trkpt><trkpt lat="44.6657" lon="11.7991583"><ele>-1.0</ele><time>2026-05-01T08:21:52.75Z</time></trkpt><trkpt lat="44.665465" lon="11.7993633"><ele>-1.0</ele><time>2026-05-01T08:21:53.75Z</time></trkpt><trkpt lat="44.6652283" lon="11.799565"><ele>-0.5</ele><time>2026-05-01T08:21:54.745Z</time></trkpt><trkpt lat="44.6649933" lon="11.7997717"><ele>0.0</ele><time>2026-05-01T08:21:55.753Z</time></trkpt><trkpt lat="44.6647583" lon="11.7999733"><ele>0.0</ele><time>2026-05-01T08:21:56.749Z</time></trkpt><trkpt lat="44.6645217" lon="11.80018"><ele>0.0</ele><time>2026-05-01T08:21:57.749Z</time></trkpt><trkpt lat="44.6642833" lon="11.8003783"><ele>0.0</ele><time>2026-05-01T08:21:58.751Z</time></trkpt><trkpt lat="44.6640467" lon="11.800575"><ele>0.0</ele><time>2026-05-01T08:21:59.751Z</time></trkpt><trkpt lat="44.6638133" lon="11.8007733"><ele>0.5</ele><time>2026-05-01T08:22:00.749Z</time></trkpt><trkpt lat="44.6635817" lon="11.8009767"><ele>1.0</ele><time>2026-05-01T08:22:01.754Z</time></trkpt><trkpt lat="44.6633517" lon="11.8011817"><ele>1.0</ele><time>2026-05-01T08:22:02.754Z</time></trkpt><trkpt lat="44.6631183" lon="11.801385"><ele>1.0</ele><time>2026-05-01T08:22:03.747Z</time></trkpt><trkpt lat="44.6628833" lon="11.8015867"><ele>0.5</ele><time>2026-05-01T08:22:04.749Z</time></trkpt><trkpt lat="44.66265" lon="11.801785"><ele>0.0</ele><time>2026-05-01T08:22:05.751Z</time></trkpt><trkpt lat="44.6624183" lon="11.801985"><ele>0.0</ele><time>2026-05-01T08:22:06.753Z</time></trkpt><trkpt lat="44.66219" lon="11.8021867"><ele>0.0</ele><time>2026-05-01T08:22:07.749Z</time></trkpt><trkpt lat="44.66196" lon="11.8023833"><ele>-0.5</ele><time>2026-05-01T08:22:08.754Z</time></trkpt><trkpt lat="44.66173" lon="11.80258"><ele>-1.0</ele><time>2026-05-01T08:22:09.752Z</time></trkpt><trkpt lat="44.661505" lon="11.802775"><ele>-1.0</ele><time>2026-05-01T08:22:10.743Z</time></trkpt><trkpt lat="44.6612833" lon="11.8029667"><ele>-1.0</ele><time>2026-05-01T08:22:11.754Z</time></trkpt><trkpt lat="44.66106" lon="11.8031617"><ele>-1.0</ele><time>2026-05-01T08:22:12.754Z</time></trkpt><trkpt lat="44.66084" lon="11.8033583"><ele>-1.0</ele><time>2026-05-01T08:22:13.749Z</time></trkpt><trkpt lat="44.6606183" lon="11.8035517"><ele>-1.5</ele><time>2026-05-01T08:22:14.754Z</time></trkpt><trkpt lat="44.6603933" lon="11.8037433"><ele>-2.0</ele><time>2026-05-01T08:22:15.751Z</time></trkpt><trkpt lat="44.6601667" lon="11.803935"><ele>-2.0</ele><time>2026-05-01T08:22:16.748Z</time></trkpt><trkpt lat="44.6599433" lon="11.8041317"><ele>-2.0</ele><time>2026-05-01T08:22:17.749Z</time></trkpt><trkpt lat="44.6597183" lon="11.8043333"><ele>-2.0</ele><time>2026-05-01T08:22:18.745Z</time></trkpt><trkpt lat="44.65949" lon="11.8045367"><ele>-2.0</ele><time>2026-05-01T08:22:19.745Z</time></trkpt><trkpt lat="44.65926" lon="11.8047367"><ele>-1.5</ele><time>2026-05-01T08:22:20.75Z</time></trkpt><trkpt lat="44.6590267" lon="11.8049333"><ele>-1.0</ele><time>2026-05-01T08:22:21.755Z</time></trkpt><trkpt lat="44.6587933" lon="11.8051267"><ele>-0.5</ele><time>2026-05-01T08:22:22.751Z</time></trkpt><trkpt lat="44.6585567" lon="11.80532"><ele>0.0</ele><time>2026-05-01T08:22:23.754Z</time></trkpt><trkpt lat="44.6583233" lon="11.805515"><ele>0.0</ele><time>2026-05-01T08:22:24.744Z</time></trkpt><trkpt lat="44.65809" lon="11.8057133"><ele>0.0</ele><time>2026-05-01T08:22:25.751Z</time></trkpt><trkpt lat="44.6578567" lon="11.8059117"><ele>-0.5</ele><time>2026-05-01T08:22:26.754Z</time></trkpt><trkpt lat="44.6576217" lon="11.8061133"><ele>-1.0</ele><time>2026-05-01T08:22:27.752Z</time></trkpt><trkpt lat="44.65739" lon="11.806315"><ele>-1.0</ele><time>2026-05-01T08:22:28.748Z</time></trkpt><trkpt lat="44.6571583" lon="11.8065267"><ele>-1.0</ele><time>2026-05-01T08:22:29.75Z</time></trkpt><trkpt lat="44.6569217" lon="11.806735"><ele>-1.5</ele><time>2026-05-01T08:22:30.755Z</time></trkpt><trkpt lat="44.6566867" lon="11.8069433"><ele>-2.0</ele><time>2026-05-01T08:22:31.759Z</time></trkpt><trkpt lat="44.6564583" lon="11.8071617"><ele>-2.0</ele><time>2026-05-01T08:22:32.753Z</time></trkpt><trkpt lat="44.656225" lon="11.807375"><ele>-2.0</ele><time>2026-05-01T08:22:33.749Z</time></trkpt><trkpt lat="44.6559883" lon="11.807595"><ele>-2.0</ele><time>2026-05-01T08:22:34.743Z</time></trkpt><trkpt lat="44.6557517" lon="11.807815"><ele>-2.0</ele><time>2026-05-01T08:22:35.754Z</time></trkpt><trkpt lat="44.6555167" lon="11.8080333"><ele>-2.5</ele><time>2026-05-01T08:22:36.746Z</time></trkpt><trkpt lat="44.6552783" lon="11.80825"><ele>-3.0</ele><time>2026-05-01T08:22:37.743Z</time></trkpt><trkpt lat="44.655045" lon="11.8084717"><ele>-3.0</ele><time>2026-05-01T08:22:38.753Z</time></trkpt><trkpt lat="44.654805" lon="11.8086983"><ele>-3.0</ele><time>2026-05-01T08:22:39.752Z</time></trkpt><trkpt lat="44.6545667" lon="11.8089267"><ele>-3.0</ele><time>2026-05-01T08:22:40.751Z</time></trkpt><trkpt lat="44.6543317" lon="11.8091517"><ele>-3.0</ele><time>2026-05-01T08:22:41.749Z</time></trkpt><trkpt lat="44.654095" lon="11.8093783"><ele>-2.5</ele><time>2026-05-01T08:22:42.755Z</time></trkpt><trkpt lat="44.653865" lon="11.8095983"><ele>-2.0</ele><time>2026-05-01T08:22:43.75Z</time></trkpt><trkpt lat="44.653635" lon="11.80982"><ele>-2.0</ele><time>2026-05-01T08:22:44.756Z</time></trkpt><trkpt lat="44.6534067" lon="11.81004"><ele>-2.0</ele><time>2026-05-01T08:22:45.748Z</time></trkpt><trkpt lat="44.6531817" lon="11.8102633"><ele>-2.0</ele><time>2026-05-01T08:22:46.747Z</time></trkpt><trkpt lat="44.652955" lon="11.8104817"><ele>-2.0</ele><time>2026-05-01T08:22:47.75Z</time></trkpt><trkpt lat="44.6527317" lon="11.8106933"><ele>-2.0</ele><time>2026-05-01T08:22:48.749Z</time></trkpt><trkpt lat="44.6525117" lon="11.810905"><ele>-2.0</ele><time>2026-05-01T08:22:49.751Z</time></trkpt><trkpt lat="44.6522917" lon="11.8111183"><ele>-1.0</ele><time>2026-05-01T08:22:50.753Z</time></trkpt><trkpt lat="44.6520717" lon="11.8113367"><ele>0.0</ele><time>2026-05-01T08:22:51.754Z</time></trkpt><trkpt lat="44.6518517" lon="11.8115533"><ele>0.0</ele><time>2026-05-01T08:22:52.749Z</time></trkpt><trkpt lat="44.6516333" lon="11.8117733"><ele>0.0</ele><time>2026-05-01T08:22:53.751Z</time></trkpt><trkpt lat="44.65142" lon="11.8119883"><ele>-0.5</ele><time>2026-05-01T08:22:54.744Z</time></trkpt><trkpt lat="44.6512067" lon="11.8122017"><ele>-1.0</ele><time>2026-05-01T08:22:55.751Z</time></trkpt><trkpt lat="44.6509933" lon="11.8124167"><ele>-1.0</ele><time>2026-05-01T08:22:56.754Z</time></trkpt><trkpt lat="44.6507833" lon="11.81263"><ele>-1.0</ele><time>2026-05-01T08:22:57.742Z</time></trkpt><trkpt lat="44.6505717" lon="11.8128433"><ele>-1.0</ele><time>2026-05-01T08:22:58.749Z</time></trkpt><trkpt lat="44.6503583" lon="11.8130567"><ele>-1.0</ele><time>2026-05-01T08:22:59.756Z</time></trkpt><trkpt lat="44.6501483" lon="11.813265"><ele>-0.5</ele><time>2026-05-01T08:23:00.75Z</time></trkpt><trkpt lat="44.6499383" lon="11.813475"><ele>0.0</ele><time>2026-05-01T08:23:01.743Z</time></trkpt><trkpt lat="44.64973" lon="11.8136883"><ele>0.0</ele><time>2026-05-01T08:23:02.744Z</time></trkpt><trkpt lat="44.64952" lon="11.8139"><ele>0.0</ele><time>2026-05-01T08:23:03.752Z</time></trkpt><trkpt lat="44.64931" lon="11.8141133"><ele>-0.5</ele><time>2026-05-01T08:23:04.745Z</time></trkpt><trkpt lat="44.6491023" lon="11.8143274"><ele>-1.0</ele><time>2026-05-01T08:23:05.757Z</time></trkpt><trkpt lat="44.648896" lon="11.8145414"><ele>-1.0</ele><time>2026-05-01T08:23:06.752Z</time></trkpt><trkpt lat="44.6486865" lon="11.8147526"><ele>-1.0</ele><time>2026-05-01T08:23:07.754Z</time></trkpt><trkpt lat="44.6484754" lon="11.8149594"><ele>-1.5</ele><time>2026-05-01T08:23:08.754Z</time></trkpt><trkpt lat="44.6482671" lon="11.8151671"><ele>-2.0</ele><time>2026-05-01T08:23:09.751Z</time></trkpt><trkpt lat="44.6480588" lon="11.815377"><ele>-2.0</ele><time>2026-05-01T08:23:10.747Z</time></trkpt><trkpt lat="44.6478487" lon="11.8155886"><ele>-2.0</ele><time>2026-05-01T08:23:11.753Z</time></trkpt><trkpt lat="44.6476394" lon="11.8157977"><ele>-1.5</ele><time>2026-05-01T08:23:12.75Z</time></trkpt><trkpt lat="44.64743" lon="11.8160071"><ele>-1.0</ele><time>2026-05-01T08:23:13.746Z</time></trkpt><trkpt lat="44.6472191" lon="11.8162161"><ele>-1.0</ele><time>2026-05-01T08:23:14.748Z</time></trkpt><trkpt lat="44.6470068" lon="11.8164249"><ele>-1.0</ele><time>2026-05-01T08:23:15.751Z</time></trkpt><trkpt lat="44.6467952" lon="11.8166339"><ele>-1.0</ele><time>2026-05-01T08:23:16.749Z</time></trkpt><trkpt lat="44.6465834" lon="11.8168418"><ele>-1.0</ele><time>2026-05-01T08:23:17.75Z</time></trkpt><trkpt lat="44.6463729" lon="11.8170474"><ele>-1.0</ele><time>2026-05-01T08:23:18.749Z</time></trkpt><trkpt lat="44.6461642" lon="11.8172509"><ele>-1.0</ele><time>2026-05-01T08:23:19.749Z</time></trkpt><trkpt lat="44.6459572" lon="11.8174576"><ele>-1.5</ele><time>2026-05-01T08:23:20.752Z</time></trkpt><trkpt lat="44.6457498" lon="11.8176633"><ele>-2.0</ele><time>2026-05-01T08:23:21.743Z</time></trkpt><trkpt lat="44.6455395" lon="11.8178707"><ele>-2.0</ele><time>2026-05-01T08:23:22.745Z</time></trkpt><trkpt lat="44.6453285" lon="11.8180775"><ele>-2.0</ele><time>2026-05-01T08:23:23.75Z</time></trkpt><trkpt lat="44.6451194" lon="11.818285"><ele>-3.0</ele><time>2026-05-01T08:23:24.744Z</time></trkpt><trkpt lat="44.6449069" lon="11.8184922"><ele>-4.0</ele><time>2026-05-01T08:23:25.749Z</time></trkpt><trkpt lat="44.6446917" lon="11.8186928"><ele>-4.0</ele><time>2026-05-01T08:23:26.748Z</time></trkpt><trkpt lat="44.644476" lon="11.8188918"><ele>-4.0</ele><time>2026-05-01T08:23:27.755Z</time></trkpt><trkpt lat="44.6442635" lon="11.8190924"><ele>-3.5</ele><time>2026-05-01T08:23:28.756Z</time></trkpt><trkpt lat="44.6440514" lon="11.8192943"><ele>-3.0</ele><time>2026-05-01T08:23:29.752Z</time></trkpt><trkpt lat="44.6438401" lon="11.8194962"><ele>-3.0</ele><time>2026-05-01T08:23:30.751Z</time></trkpt><trkpt lat="44.6436292" lon="11.8196941"><ele>-3.0</ele><time>2026-05-01T08:23:31.746Z</time></trkpt><trkpt lat="44.6434188" lon="11.8198914"><ele>-3.0</ele><time>2026-05-01T08:23:32.744Z</time></trkpt><trkpt lat="44.6432104" lon="11.8200875"><ele>-3.0</ele><time>2026-05-01T08:23:33.743Z</time></trkpt><trkpt lat="44.6430091" lon="11.8202779"><ele>-2.0</ele><time>2026-05-01T08:23:34.753Z</time></trkpt><trkpt lat="44.6428166" lon="11.8204581"><ele>-1.0</ele><time>2026-05-01T08:23:35.751Z</time></trkpt><trkpt lat="44.6426287" lon="11.8206304"><ele>-1.0</ele><time>2026-05-01T08:23:36.748Z</time></trkpt><trkpt lat="44.6424436" lon="11.8208008"><ele>-1.0</ele><time>2026-05-01T08:23:37.751Z</time></trkpt><trkpt lat="44.642259" lon="11.8209722"><ele>-1.0</ele><time>2026-05-01T08:23:38.752Z</time></trkpt><trkpt lat="44.6420745" lon="11.821142"><ele>-1.3333333333333333</ele><time>2026-05-01T08:23:39.749Z</time></trkpt><trkpt lat="44.64189" lon="11.8213099"><ele>-1.6666666666666665</ele><time>2026-05-01T08:23:40.747Z</time></trkpt><trkpt lat="44.6417034" lon="11.8214815"><ele>-2.0</ele><time>2026-05-01T08:23:41.749Z</time></trkpt><trkpt lat="44.6415119" lon="11.8216624"><ele>-2.0</ele><time>2026-05-01T08:23:42.754Z</time></trkpt><trkpt lat="44.6413167" lon="11.8218464"><ele>-2.0</ele><time>2026-05-01T08:23:43.749Z</time></trkpt><trkpt lat="44.6411141" lon="11.8220331"><ele>-2.0</ele><time>2026-05-01T08:23:44.753Z</time></trkpt><trkpt lat="44.6409095" lon="11.8222179"><ele>-2.0</ele><time>2026-05-01T08:23:45.742Z</time></trkpt><trkpt lat="44.6407018" lon="11.8224047"><ele>-2.0</ele><time>2026-05-01T08:23:46.748Z</time></trkpt><trkpt lat="44.6404963" lon="11.8225878"><ele>-2.0</ele><time>2026-05-01T08:23:47.742Z</time></trkpt><trkpt lat="44.6402923" lon="11.8227705"><ele>-2.0</ele><time>2026-05-01T08:23:48.744Z</time></trkpt><trkpt lat="44.6400894" lon="11.8229527"><ele>-2.0</ele><time>2026-05-01T08:23:49.75Z</time></trkpt><trkpt lat="44.6398876" lon="11.8231332"><ele>-2.0</ele><time>2026-05-01T08:23:50.754Z</time></trkpt><trkpt lat="44.6396887" lon="11.8233107"><ele>-2.0</ele><time>2026-05-01T08:23:51.751Z</time></trkpt><trkpt lat="44.6394949" lon="11.8234811"><ele>-1.3333333333333333</ele><time>2026-05-01T08:23:52.752Z</time></trkpt><trkpt lat="44.6393104" lon="11.8236453"><ele>-0.6666666666666666</ele><time>2026-05-01T08:23:53.755Z</time></trkpt><trkpt lat="44.6391341" lon="11.8238041"><ele>0.0</ele><time>2026-05-01T08:23:54.752Z</time></trkpt><trkpt lat="44.6389601" lon="11.8239641"><ele>0.0</ele><time>2026-05-01T08:23:55.743Z</time></trkpt><trkpt lat="44.6387821" lon="11.8241282"><ele>0.0</ele><time>2026-05-01T08:23:56.742Z</time></trkpt><trkpt lat="44.6386057" lon="11.8242934"><ele>0.0</ele><time>2026-05-01T08:23:57.751Z</time></trkpt><trkpt lat="44.6384266" lon="11.8244612"><ele>-0.5</ele><time>2026-05-01T08:23:58.749Z</time></trkpt><trkpt lat="44.6382428" lon="11.82464"><ele>-1.0</ele><time>2026-05-01T08:23:59.75Z</time></trkpt><trkpt lat="44.6380549" lon="11.8248263"><ele>-1.0</ele><time>2026-05-01T08:24:00.747Z</time></trkpt><trkpt lat="44.6378656" lon="11.8250105"><ele>-1.0</ele><time>2026-05-01T08:24:01.751Z</time></trkpt><trkpt lat="44.6376768" lon="11.8251895"><ele>-1.0</ele><time>2026-05-01T08:24:02.752Z</time></trkpt><trkpt lat="44.6374871" lon="11.8253652"><ele>-1.0</ele><time>2026-05-01T08:24:03.752Z</time></trkpt><trkpt lat="44.6372981" lon="11.8255423"><ele>-1.0</ele><time>2026-05-01T08:24:04.75Z</time></trkpt><trkpt lat="44.6371092" lon="11.8257218"><ele>-1.0</ele><time>2026-05-01T08:24:05.75Z</time></trkpt><trkpt lat="44.6369206" lon="11.8259057"><ele>-1.0</ele><time>2026-05-01T08:24:06.753Z</time></trkpt><trkpt lat="44.6367291" lon="11.8260903"><ele>-1.0</ele><time>2026-05-01T08:24:07.751Z</time></trkpt><trkpt lat="44.6365348" lon="11.8262744"><ele>-1.0</ele><time>2026-05-01T08:24:08.748Z</time></trkpt><trkpt lat="44.6363378" lon="11.8264601"><ele>-1.0</ele><time>2026-05-01T08:24:09.748Z</time></trkpt><trkpt lat="44.6361385" lon="11.8266489"><ele>-1.5</ele><time>2026-05-01T08:24:10.742Z</time></trkpt><trkpt lat="44.6359356" lon="11.8268413"><ele>-2.0</ele><time>2026-05-01T08:24:11.75Z</time></trkpt><trkpt lat="44.6357312" lon="11.8270355"><ele>-2.0</ele><time>2026-05-01T08:24:12.749Z</time></trkpt><trkpt lat="44.6355247" lon="11.8272369"><ele>-2.0</ele><time>2026-05-01T08:24:13.748Z</time></trkpt><trkpt lat="44.6353157" lon="11.8274409"><ele>-2.0</ele><time>2026-05-01T08:24:14.752Z</time></trkpt><trkpt lat="44.6351069" lon="11.8276478"><ele>-2.0</ele><time>2026-05-01T08:24:15.75Z</time></trkpt><trkpt lat="44.6348966" lon="11.8278575"><ele>-2.0</ele><time>2026-05-01T08:24:16.749Z</time></trkpt><trkpt lat="44.6346864" lon="11.8280679"><ele>-2.0</ele><time>2026-05-01T08:24:17.743Z</time></trkpt><trkpt lat="44.6344724" lon="11.8282831"><ele>-3.0</ele><time>2026-05-01T08:24:18.752Z</time></trkpt><trkpt lat="44.6342595" lon="11.8284985"><ele>-4.0</ele><time>2026-05-01T08:24:19.752Z</time></trkpt><trkpt lat="44.6340472" lon="11.828717"><ele>-4.0</ele><time>2026-05-01T08:24:20.754Z</time></trkpt><trkpt lat="44.633834" lon="11.8289382"><ele>-4.0</ele><time>2026-05-01T08:24:21.745Z</time></trkpt><trkpt lat="44.6336183" lon="11.8291627"><ele>-3.0</ele><time>2026-05-01T08:24:22.752Z</time></trkpt><trkpt lat="44.6333995" lon="11.8293864"><ele>-2.0</ele><time>2026-05-01T08:24:23.754Z</time></trkpt><trkpt lat="44.6331774" lon="11.8296086"><ele>-2.0</ele><time>2026-05-01T08:24:24.75Z</time></trkpt><trkpt lat="44.6329541" lon="11.829831"><ele>-2.0</ele><time>2026-05-01T08:24:25.753Z</time></trkpt><trkpt lat="44.6327309" lon="11.8300525"><ele>-0.5</ele><time>2026-05-01T08:24:26.752Z</time></trkpt><trkpt lat="44.6325095" lon="11.830272"><ele>1.0</ele><time>2026-05-01T08:24:27.751Z</time></trkpt><trkpt lat="44.6322908" lon="11.8304919"><ele>1.0</ele><time>2026-05-01T08:24:28.75Z</time></trkpt><trkpt lat="44.6320719" lon="11.830713"><ele>1.0</ele><time>2026-05-01T08:24:29.752Z</time></trkpt><trkpt lat="44.6318535" lon="11.8309334"><ele>0.5</ele><time>2026-05-01T08:24:30.745Z</time></trkpt><trkpt lat="44.631635" lon="11.8311547"><ele>0.0</ele><time>2026-05-01T08:24:31.752Z</time></trkpt><trkpt lat="44.6314187" lon="11.8313761"><ele>0.0</ele><time>2026-05-01T08:24:32.754Z</time></trkpt><trkpt lat="44.6312038" lon="11.8315973"><ele>0.0</ele><time>2026-05-01T08:24:33.75Z</time></trkpt><trkpt lat="44.6309871" lon="11.8318172"><ele>-0.5</ele><time>2026-05-01T08:24:34.746Z</time></trkpt><trkpt lat="44.6307694" lon="11.8320375"><ele>-1.0</ele><time>2026-05-01T08:24:35.748Z</time></trkpt><trkpt lat="44.6305543" lon="11.8322546"><ele>-1.0</ele><time>2026-05-01T08:24:36.744Z</time></trkpt><trkpt lat="44.6303377" lon="11.8324752"><ele>-1.0</ele><time>2026-05-01T08:24:37.751Z</time></trkpt><trkpt lat="44.6301223" lon="11.8326988"><ele>-1.5</ele><time>2026-05-01T08:24:38.753Z</time></trkpt><trkpt lat="44.6299071" lon="11.8329216"><ele>-2.0</ele><time>2026-05-01T08:24:39.749Z</time></trkpt><trkpt lat="44.6296917" lon="11.8331434"><ele>-2.0</ele><time>2026-05-01T08:24:40.751Z</time></trkpt><trkpt lat="44.6294771" lon="11.8333654"><ele>-2.0</ele><time>2026-05-01T08:24:41.749Z</time></trkpt><trkpt lat="44.6292638" lon="11.8335857"><ele>-1.5</ele><time>2026-05-01T08:24:42.751Z</time></trkpt><trkpt lat="44.6290497" lon="11.8338048"><ele>-1.0</ele><time>2026-05-01T08:24:43.752Z</time></trkpt><trkpt lat="44.6288347" lon="11.8340224"><ele>-1.5</ele><time>2026-05-01T08:24:44.761Z</time></trkpt><trkpt lat="44.628622" lon="11.8342378"><ele>-2.0</ele><time>2026-05-01T08:24:45.752Z</time></trkpt><trkpt lat="44.6284095" lon="11.8344601"><ele>-2.5</ele><time>2026-05-01T08:24:46.741Z</time></trkpt><trkpt lat="44.6281938" lon="11.834687"><ele>-3.0</ele><time>2026-05-01T08:24:47.75Z</time></trkpt><trkpt lat="44.6279804" lon="11.8349144"><ele>-1.5</ele><time>2026-05-01T08:24:48.743Z</time></trkpt><trkpt lat="44.6277646" lon="11.8351492"><ele>0.0</ele><time>2026-05-01T08:24:49.752Z</time></trkpt><trkpt lat="44.6275498" lon="11.8353831"><ele>0.0</ele><time>2026-05-01T08:24:50.753Z</time></trkpt><trkpt lat="44.6273372" lon="11.8356159"><ele>0.0</ele><time>2026-05-01T08:24:51.749Z</time></trkpt><trkpt lat="44.6271256" lon="11.8358531"><ele>-0.5</ele><time>2026-05-01T08:24:52.75Z</time></trkpt><trkpt lat="44.626916" lon="11.8360927"><ele>-1.0</ele><time>2026-05-01T08:24:53.751Z</time></trkpt><trkpt lat="44.626708" lon="11.836334"><ele>-1.0</ele><time>2026-05-01T08:24:54.752Z</time></trkpt><trkpt lat="44.6265029" lon="11.8365753"><ele>-1.0</ele><time>2026-05-01T08:24:55.752Z</time></trkpt><trkpt lat="44.6263035" lon="11.8368162"><ele>-1.5</ele><time>2026-05-01T08:24:56.752Z</time></trkpt><trkpt lat="44.6261104" lon="11.8370534"><ele>-2.0</ele><time>2026-05-01T08:24:57.747Z</time></trkpt><trkpt lat="44.625922" lon="11.8372876"><ele>-2.0</ele><time>2026-05-01T08:24:58.75Z</time></trkpt><trkpt lat="44.6257429" lon="11.8375138"><ele>-2.0</ele><time>2026-05-01T08:24:59.747Z</time></trkpt><trkpt lat="44.6255721" lon="11.8377319"><ele>-2.0</ele><time>2026-05-01T08:25:00.748Z</time></trkpt><trkpt lat="44.6254101" lon="11.8379434"><ele>-2.0</ele><time>2026-05-01T08:25:01.754Z</time></trkpt><trkpt lat="44.6252567" lon="11.8381471"><ele>-2.0</ele><time>2026-05-01T08:25:02.756Z</time></trkpt><trkpt lat="44.6251124" lon="11.8383441"><ele>-1.6666666666666665</ele><time>2026-05-01T08:25:03.754Z</time></trkpt><trkpt lat="44.6249762" lon="11.8385271"><ele>-1.3333333333333333</ele><time>2026-05-01T08:25:04.756Z</time></trkpt><trkpt lat="44.6248535" lon="11.8386864"><ele>-1.0</ele><time>2026-05-01T08:25:05.746Z</time></trkpt><trkpt lat="44.6247413" lon="11.8388349"><ele>-1.0</ele><time>2026-05-01T08:25:06.749Z</time></trkpt><trkpt lat="44.6246391" lon="11.838967"><ele>-1.0</ele><time>2026-05-01T08:25:07.752Z</time></trkpt><trkpt lat="44.6245415" lon="11.8390544"><ele>-1.0</ele><time>2026-05-01T08:25:08.744Z</time></trkpt><trkpt lat="44.6244408" lon="11.8391092"><ele>-1.0</ele><time>2026-05-01T08:25:09.748Z</time></trkpt><trkpt lat="44.6243357" lon="11.8391196"><ele>-1.25</ele><time>2026-05-01T08:25:10.744Z</time></trkpt><trkpt lat="44.6242238" lon="11.8391137"><ele>-1.5</ele><time>2026-05-01T08:25:11.747Z</time></trkpt><trkpt lat="44.6241074" lon="11.8391016"><ele>-1.75</ele><time>2026-05-01T08:25:12.754Z</time></trkpt><trkpt lat="44.6239905" lon="11.8390791"><ele>-2.0</ele><time>2026-05-01T08:25:13.751Z</time></trkpt><trkpt lat="44.6238827" lon="11.8390284"><ele>-2.0</ele><time>2026-05-01T08:25:14.744Z</time></trkpt><trkpt lat="44.6237862" lon="11.8389318"><ele>-2.0</ele><time>2026-05-01T08:25:15.752Z</time></trkpt><trkpt lat="44.6236963" lon="11.8388019"><ele>-2.0</ele><time>2026-05-01T08:25:16.753Z</time></trkpt><trkpt lat="44.6236057" lon="11.8386576"><ele>-2.0</ele><time>2026-05-01T08:25:17.746Z</time></trkpt><trkpt lat="44.6235063" lon="11.8385074"><ele>-2.333333333333333</ele><time>2026-05-01T08:25:18.751Z</time></trkpt><trkpt lat="44.6234034" lon="11.8383507"><ele>-2.6666666666666665</ele><time>2026-05-01T08:25:19.751Z</time></trkpt><trkpt lat="44.6232988" lon="11.8381871"><ele>-3.0</ele><time>2026-05-01T08:25:20.742Z</time></trkpt><trkpt lat="44.6231975" lon="11.8380103"><ele>-3.0</ele><time>2026-05-01T08:25:21.745Z</time></trkpt><trkpt lat="44.6230969" lon="11.8378213"><ele>-3.0</ele><time>2026-05-01T08:25:22.742Z</time></trkpt><trkpt lat="44.6230004" lon="11.8376214"><ele>-3.0</ele><time>2026-05-01T08:25:23.75Z</time></trkpt><trkpt lat="44.6229082" lon="11.8374152"><ele>-2.0</ele><time>2026-05-01T08:25:24.752Z</time></trkpt><trkpt lat="44.6228184" lon="11.8372106"><ele>-1.0</ele><time>2026-05-01T08:25:25.749Z</time></trkpt><trkpt lat="44.6227341" lon="11.8370148"><ele>0.0</ele><time>2026-05-01T08:25:26.753Z</time></trkpt><trkpt lat="44.6226568" lon="11.8368331"><ele>0.2</ele><time>2026-05-01T08:25:27.749Z</time></trkpt><trkpt lat="44.6225907" lon="11.836677"><ele>0.4</ele><time>2026-05-01T08:25:28.751Z</time></trkpt><trkpt lat="44.6225357" lon="11.8365528"><ele>0.6000000000000001</ele><time>2026-05-01T08:25:29.749Z</time></trkpt><trkpt lat="44.6224898" lon="11.8364644"><ele>0.8</ele><time>2026-05-01T08:25:30.75Z</time></trkpt><trkpt lat="44.6224424" lon="11.8363979"><ele>1.0</ele><time>2026-05-01T08:25:31.751Z</time></trkpt><trkpt lat="44.6223637" lon="11.836353"><ele>1.0</ele><time>2026-05-01T08:25:33.744Z</time></trkpt><trkpt lat="44.6222672" lon="11.8364232"><ele>1.0</ele><time>2026-05-01T08:25:35.741Z</time></trkpt><trkpt lat="44.6221996" lon="11.8365021"><ele>1.0</ele><time>2026-05-01T08:25:36.751Z</time></trkpt><trkpt lat="44.6221173" lon="11.8365941"><ele>1.0</ele><time>2026-05-01T08:25:37.749Z</time></trkpt><trkpt lat="44.6220246" lon="11.8366963"><ele>1.0</ele><time>2026-05-01T08:25:38.752Z</time></trkpt><trkpt lat="44.6219235" lon="11.836814"><ele>0.5</ele><time>2026-05-01T08:25:39.748Z</time></trkpt><trkpt lat="44.6218233" lon="11.8369384"><ele>0.0</ele><time>2026-05-01T08:25:40.751Z</time></trkpt><trkpt lat="44.6217181" lon="11.8370662"><ele>-0.5</ele><time>2026-05-01T08:25:41.755Z</time></trkpt><trkpt lat="44.6216133" lon="11.8371943"><ele>-1.0</ele><time>2026-05-01T08:25:42.75Z</time></trkpt><trkpt lat="44.6215103" lon="11.8373316"><ele>-1.0</ele><time>2026-05-01T08:25:43.748Z</time></trkpt><trkpt lat="44.6214114" lon="11.8374826"><ele>-1.0</ele><time>2026-05-01T08:25:44.749Z</time></trkpt><trkpt lat="44.6213245" lon="11.8376446"><ele>-1.0</ele><time>2026-05-01T08:25:45.751Z</time></trkpt><trkpt lat="44.6212527" lon="11.8378204"><ele>-1.0</ele><time>2026-05-01T08:25:46.75Z</time></trkpt><trkpt lat="44.6211982" lon="11.8380093"><ele>-1.0</ele><time>2026-05-01T08:25:47.746Z</time></trkpt><trkpt lat="44.6211596" lon="11.8381971"><ele>-1.0</ele><time>2026-05-01T08:25:48.742Z</time></trkpt><trkpt lat="44.6211346" lon="11.8383815"><ele>-1.0</ele><time>2026-05-01T08:25:49.756Z</time></trkpt><trkpt lat="44.6211218" lon="11.8385553"><ele>-1.0</ele><time>2026-05-01T08:25:50.743Z</time></trkpt><trkpt lat="44.6211163" lon="11.8387171"><ele>-0.8</ele><time>2026-05-01T08:25:51.747Z</time></trkpt><trkpt lat="44.6211109" lon="11.8388585"><ele>-0.6000000000000001</ele><time>2026-05-01T08:25:52.749Z</time></trkpt><trkpt lat="44.6210957" lon="11.8389759"><ele>-0.4</ele><time>2026-05-01T08:25:53.742Z</time></trkpt><trkpt lat="44.6210659" lon="11.8390678"><ele>-0.2</ele><time>2026-05-01T08:25:54.748Z</time></trkpt><trkpt lat="44.6209908" lon="11.8391598"><ele>0.0</ele><time>2026-05-01T08:25:56.742Z</time></trkpt><trkpt lat="44.6208893" lon="11.8391557"><ele>0.0</ele><time>2026-05-01T08:25:58.744Z</time></trkpt><trkpt lat="44.6208212" lon="11.8391184"><ele>0.0</ele><time>2026-05-01T08:25:59.748Z</time></trkpt><trkpt lat="44.6207388" lon="11.8390701"><ele>0.0</ele><time>2026-05-01T08:26:00.741Z</time></trkpt><trkpt lat="44.6206494" lon="11.8390207"><ele>0.0</ele><time>2026-05-01T08:26:01.749Z</time></trkpt><trkpt lat="44.6205561" lon="11.8389806"><ele>0.0</ele><time>2026-05-01T08:26:02.75Z</time></trkpt><trkpt lat="44.62046" lon="11.8389509"><ele>0.0</ele><time>2026-05-01T08:26:03.75Z</time></trkpt><trkpt lat="44.6203635" lon="11.8389269"><ele>0.0</ele><time>2026-05-01T08:26:04.751Z</time></trkpt><trkpt lat="44.6202567" lon="11.838905"><ele>0.0</ele><time>2026-05-01T08:26:05.748Z</time></trkpt><trkpt lat="44.62015" lon="11.8388917"><ele>0.0</ele><time>2026-05-01T08:26:06.749Z</time></trkpt><trkpt lat="44.6200383" lon="11.8388833"><ele>0.0</ele><time>2026-05-01T08:26:07.742Z</time></trkpt><trkpt lat="44.61993" lon="11.8388767"><ele>0.0</ele><time>2026-05-01T08:26:08.752Z</time></trkpt><trkpt lat="44.6198183" lon="11.8388717"><ele>0.0</ele><time>2026-05-01T08:26:09.752Z</time></trkpt><trkpt lat="44.6197033" lon="11.8388633"><ele>0.0</ele><time>2026-05-01T08:26:10.755Z</time></trkpt><trkpt lat="44.6195883" lon="11.8388533"><ele>0.0</ele><time>2026-05-01T08:26:11.748Z</time></trkpt><trkpt lat="44.61948" lon="11.8388383"><ele>0.2</ele><time>2026-05-01T08:26:12.751Z</time></trkpt><trkpt lat="44.619375" lon="11.8388267"><ele>0.4</ele><time>2026-05-01T08:26:13.752Z</time></trkpt><trkpt lat="44.6192733" lon="11.8388167"><ele>0.6000000000000001</ele><time>2026-05-01T08:26:14.751Z</time></trkpt><trkpt lat="44.619175" lon="11.8388067"><ele>0.8</ele><time>2026-05-01T08:26:15.751Z</time></trkpt><trkpt lat="44.6190767" lon="11.8387967"><ele>1.0</ele><time>2026-05-01T08:26:16.742Z</time></trkpt><trkpt lat="44.61898" lon="11.8387883"><ele>0.9999999999999999</ele><time>2026-05-01T08:26:17.756Z</time></trkpt><trkpt lat="44.618885" lon="11.8387767"><ele>1.0</ele><time>2026-05-01T08:26:18.754Z</time></trkpt><trkpt lat="44.6187933" lon="11.8387617"><ele>1.0</ele><time>2026-05-01T08:26:19.751Z</time></trkpt><trkpt lat="44.6187033" lon="11.838745"><ele>1.0</ele><time>2026-05-01T08:26:20.75Z</time></trkpt><trkpt lat="44.618615" lon="11.83872"><ele>0.9999999999999999</ele><time>2026-05-01T08:26:21.747Z</time></trkpt><trkpt lat="44.6185383" lon="11.8386933"><ele>1.0</ele><time>2026-05-01T08:26:22.748Z</time></trkpt><trkpt lat="44.6184717" lon="11.838665"><ele>1.2000000000000002</ele><time>2026-05-01T08:26:23.749Z</time></trkpt><trkpt lat="44.61837" lon="11.8386367"><ele>1.4000000000000001</ele><time>2026-05-01T08:26:25.742Z</time></trkpt><trkpt lat="44.6183" lon="11.8386817"><ele>1.6</ele><time>2026-05-01T08:26:27.75Z</time></trkpt><trkpt lat="44.6182483" lon="11.83882"><ele>1.8</ele><time>2026-05-01T08:26:29.758Z</time></trkpt><trkpt lat="44.6182217" lon="11.83892"><ele>2.0</ele><time>2026-05-01T08:26:30.753Z</time></trkpt><trkpt lat="44.6181867" lon="11.8390333"><ele>2.0</ele><time>2026-05-01T08:26:31.741Z</time></trkpt><trkpt lat="44.6181517" lon="11.839155"><ele>2.0</ele><time>2026-05-01T08:26:32.749Z</time></trkpt><trkpt lat="44.6181167" lon="11.83928"><ele>2.0</ele><time>2026-05-01T08:26:33.75Z</time></trkpt><trkpt lat="44.618085" lon="11.8394067"><ele>2.0</ele><time>2026-05-01T08:26:34.748Z</time></trkpt><trkpt lat="44.6180483" lon="11.8395383"><ele>2.0</ele><time>2026-05-01T08:26:35.753Z</time></trkpt><trkpt lat="44.61801" lon="11.839675"><ele>1.5</ele><time>2026-05-01T08:26:36.749Z</time></trkpt><trkpt lat="44.617965" lon="11.8398133"><ele>1.0</ele><time>2026-05-01T08:26:37.749Z</time></trkpt><trkpt lat="44.61791" lon="11.8399533"><ele>0.5</ele><time>2026-05-01T08:26:38.752Z</time></trkpt><trkpt lat="44.617845" lon="11.8400983"><ele>0.0</ele><time>2026-05-01T08:26:39.747Z</time></trkpt><trkpt lat="44.617775" lon="11.8402433"><ele>-0.25</ele><time>2026-05-01T08:26:40.747Z</time></trkpt><trkpt lat="44.6177033" lon="11.8403867"><ele>-0.5</ele><time>2026-05-01T08:26:41.752Z</time></trkpt><trkpt lat="44.61763" lon="11.8405283"><ele>-0.75</ele><time>2026-05-01T08:26:42.755Z</time></trkpt><trkpt lat="44.617555" lon="11.840665"><ele>-1.0</ele><time>2026-05-01T08:26:43.752Z</time></trkpt><trkpt lat="44.6174817" lon="11.8407967"><ele>-0.9999999999999999</ele><time>2026-05-01T08:26:44.749Z</time></trkpt><trkpt lat="44.6174167" lon="11.8409167"><ele>-1.0</ele><time>2026-05-01T08:26:45.746Z</time></trkpt><trkpt lat="44.61737" lon="11.8410233"><ele>-1.0</ele><time>2026-05-01T08:26:46.75Z</time></trkpt><trkpt lat="44.6173367" lon="11.8411283"><ele>-1.0</ele><time>2026-05-01T08:26:47.749Z</time></trkpt><trkpt lat="44.6173183" lon="11.84123"><ele>-0.9999999999999999</ele><time>2026-05-01T08:26:48.748Z</time></trkpt><trkpt lat="44.617315" lon="11.8413367"><ele>-1.0</ele><time>2026-05-01T08:26:49.751Z</time></trkpt><trkpt lat="44.6173167" lon="11.8414483"><ele>-0.6000000000000001</ele><time>2026-05-01T08:26:50.752Z</time></trkpt><trkpt lat="44.6173033" lon="11.8415617"><ele>-0.20000000000000007</ele><time>2026-05-01T08:26:51.745Z</time></trkpt><trkpt lat="44.6172717" lon="11.841675"><ele>0.20000000000000007</ele><time>2026-05-01T08:26:52.745Z</time></trkpt><trkpt lat="44.617225" lon="11.8417817"><ele>0.6000000000000001</ele><time>2026-05-01T08:26:53.75Z</time></trkpt><trkpt lat="44.6171717" lon="11.8418867"><ele>1.0</ele><time>2026-05-01T08:26:54.749Z</time></trkpt><trkpt lat="44.6171117" lon="11.842"><ele>1.0</ele><time>2026-05-01T08:26:55.751Z</time></trkpt><trkpt lat="44.61705" lon="11.8421217"><ele>1.0</ele><time>2026-05-01T08:26:56.751Z</time></trkpt><trkpt lat="44.6169883" lon="11.84225"><ele>1.0</ele><time>2026-05-01T08:26:57.742Z</time></trkpt><trkpt lat="44.616925" lon="11.8423817"><ele>1.0</ele><time>2026-05-01T08:26:58.757Z</time></trkpt><trkpt lat="44.61686" lon="11.8425117"><ele>1.0</ele><time>2026-05-01T08:26:59.749Z</time></trkpt><trkpt lat="44.6167967" lon="11.8426433"><ele>1.2000000000000002</ele><time>2026-05-01T08:27:00.741Z</time></trkpt><trkpt lat="44.6167317" lon="11.8427767"><ele>1.4000000000000001</ele><time>2026-05-01T08:27:01.75Z</time></trkpt><trkpt lat="44.6166683" lon="11.8429033"><ele>1.6</ele><time>2026-05-01T08:27:02.752Z</time></trkpt><trkpt lat="44.616615" lon="11.8430217"><ele>1.8</ele><time>2026-05-01T08:27:03.749Z</time></trkpt><trkpt lat="44.6165683" lon="11.8431333"><ele>2.0</ele><time>2026-05-01T08:27:04.746Z</time></trkpt><trkpt lat="44.6165217" lon="11.8432367"><ele>1.9999999999999998</ele><time>2026-05-01T08:27:05.752Z</time></trkpt><trkpt lat="44.616475" lon="11.8433333"><ele>2.0</ele><time>2026-05-01T08:27:06.749Z</time></trkpt><trkpt lat="44.6164267" lon="11.8434283"><ele>2.0</ele><time>2026-05-01T08:27:07.748Z</time></trkpt><trkpt lat="44.6163817" lon="11.84352"><ele>2.0</ele><time>2026-05-01T08:27:08.752Z</time></trkpt><trkpt lat="44.6163383" lon="11.84361"><ele>1.9999999999999998</ele><time>2026-05-01T08:27:09.751Z</time></trkpt><trkpt lat="44.6162983" lon="11.843695"><ele>2.0</ele><time>2026-05-01T08:27:10.751Z</time></trkpt><trkpt lat="44.6162617" lon="11.8437733"><ele>2.0</ele><time>2026-05-01T08:27:11.752Z</time></trkpt><trkpt lat="44.61621" lon="11.843905"><ele>2.0</ele><time>2026-05-01T08:27:13.753Z</time></trkpt><trkpt lat="44.616155" lon="11.843995"><ele>2.0</ele><time>2026-05-01T08:27:16.749Z</time></trkpt><trkpt lat="44.61607" lon="11.8439683"><ele>2.0</ele><time>2026-05-01T08:27:19.753Z</time></trkpt><trkpt lat="44.6159867" lon="11.8438417"><ele>2.0</ele><time>2026-05-01T08:27:21.76Z</time></trkpt><trkpt lat="44.6159383" lon="11.8437583"><ele>1.9999999999999998</ele><time>2026-05-01T08:27:22.748Z</time></trkpt><trkpt lat="44.6158833" lon="11.8436733"><ele>2.0</ele><time>2026-05-01T08:27:23.752Z</time></trkpt><trkpt lat="44.61583" lon="11.8435933"><ele>2.0</ele><time>2026-05-01T08:27:24.754Z</time></trkpt><trkpt lat="44.615775" lon="11.8435133"><ele>2.0</ele><time>2026-05-01T08:27:25.751Z</time></trkpt><trkpt lat="44.615725" lon="11.8434383"><ele>1.9999999999999998</ele><time>2026-05-01T08:27:26.748Z</time></trkpt><trkpt lat="44.6156833" lon="11.8433717"><ele>2.0</ele><time>2026-05-01T08:27:27.746Z</time></trkpt><trkpt lat="44.61561" lon="11.843275"><ele>2.333333333333333</ele><time>2026-05-01T08:27:29.752Z</time></trkpt><trkpt lat="44.6155917" lon="11.84319"><ele>2.6666666666666665</ele><time>2026-05-01T08:27:46.749Z</time></trkpt><trkpt lat="44.6155017" lon="11.8432717"><ele>3.0</ele><time>2026-05-01T08:27:55.749Z</time></trkpt><trkpt lat="44.6154417" lon="11.8433583"><ele>3.333333333333333</ele><time>2026-05-01T08:27:56.756Z</time></trkpt><trkpt lat="44.61537" lon="11.8434417"><ele>3.6666666666666665</ele><time>2026-05-01T08:27:57.742Z</time></trkpt><trkpt lat="44.6153033" lon="11.8434967"><ele>4.0</ele><time>2026-05-01T08:27:58.743Z</time></trkpt><trkpt lat="44.6152067" lon="11.8435617"><ele>3.9999999999999996</ele><time>2026-05-01T08:28:00.744Z</time></trkpt><trkpt lat="44.6151533" lon="11.8436283"><ele>4.0</ele><time>2026-05-01T08:28:02.745Z</time></trkpt><trkpt lat="44.615135" lon="11.843745"><ele>4.0</ele><time>2026-05-01T08:28:04.742Z</time></trkpt><trkpt lat="44.61514" lon="11.8438333"><ele>4.0</ele><time>2026-05-01T08:28:05.742Z</time></trkpt><trkpt lat="44.61515" lon="11.843945"><ele>3.9999999999999996</ele><time>2026-05-01T08:28:06.745Z</time></trkpt><trkpt lat="44.6151567" lon="11.844065"><ele>4.0</ele><time>2026-05-01T08:28:07.744Z</time></trkpt><trkpt lat="44.6151483" lon="11.8442033"><ele>3.5</ele><time>2026-05-01T08:28:08.742Z</time></trkpt><trkpt lat="44.61513" lon="11.8443533"><ele>3.0</ele><time>2026-05-01T08:28:09.743Z</time></trkpt><trkpt lat="44.615105" lon="11.8445117"><ele>2.5</ele><time>2026-05-01T08:28:10.745Z</time></trkpt><trkpt lat="44.6150617" lon="11.8446717"><ele>2.0</ele><time>2026-05-01T08:28:11.743Z</time></trkpt><trkpt lat="44.6150033" lon="11.8448317"><ele>2.0</ele><time>2026-05-01T08:28:12.747Z</time></trkpt><trkpt lat="44.614925" lon="11.84498"><ele>2.0</ele><time>2026-05-01T08:28:13.745Z</time></trkpt><trkpt lat="44.6148367" lon="11.84513"><ele>2.0</ele><time>2026-05-01T08:28:14.744Z</time></trkpt><trkpt lat="44.6147433" lon="11.84528"><ele>2.0</ele><time>2026-05-01T08:28:15.746Z</time></trkpt><trkpt lat="44.61465" lon="11.8454267"><ele>2.0</ele><time>2026-05-01T08:28:16.746Z</time></trkpt><trkpt lat="44.6145483" lon="11.845575"><ele>2.0</ele><time>2026-05-01T08:28:17.751Z</time></trkpt><trkpt lat="44.6144467" lon="11.8457117"><ele>2.0</ele><time>2026-05-01T08:28:18.744Z</time></trkpt><trkpt lat="44.6143517" lon="11.8458417"><ele>2.0</ele><time>2026-05-01T08:28:19.743Z</time></trkpt><trkpt lat="44.61426" lon="11.8459617"><ele>2.0</ele><time>2026-05-01T08:28:20.743Z</time></trkpt><trkpt lat="44.6141733" lon="11.84607"><ele>2.0</ele><time>2026-05-01T08:28:21.744Z</time></trkpt><trkpt lat="44.6140917" lon="11.8461683"><ele>2.0</ele><time>2026-05-01T08:28:22.746Z</time></trkpt><trkpt lat="44.6140083" lon="11.8462517"><ele>2.0</ele><time>2026-05-01T08:28:23.749Z</time></trkpt><trkpt lat="44.61392" lon="11.8463217"><ele>2.0</ele><time>2026-05-01T08:28:24.753Z</time></trkpt><trkpt lat="44.61382" lon="11.846375"><ele>2.0</ele><time>2026-05-01T08:28:25.754Z</time></trkpt><trkpt lat="44.6137083" lon="11.8464133"><ele>2.0</ele><time>2026-05-01T08:28:26.754Z</time></trkpt><trkpt lat="44.613575" lon="11.8464383"><ele>2.0</ele><time>2026-05-01T08:28:27.742Z</time></trkpt><trkpt lat="44.6134417" lon="11.8464467"><ele>2.0</ele><time>2026-05-01T08:28:28.747Z</time></trkpt><trkpt lat="44.6133083" lon="11.8464467"><ele>2.25</ele><time>2026-05-01T08:28:29.751Z</time></trkpt><trkpt lat="44.61317" lon="11.8464483"><ele>2.5</ele><time>2026-05-01T08:28:30.756Z</time></trkpt><trkpt lat="44.61303" lon="11.846445"><ele>2.75</ele><time>2026-05-01T08:28:31.751Z</time></trkpt><trkpt lat="44.612885" lon="11.846445"><ele>3.0</ele><time>2026-05-01T08:28:32.743Z</time></trkpt><trkpt lat="44.612735" lon="11.8464483"><ele>3.0</ele><time>2026-05-01T08:28:33.753Z</time></trkpt><trkpt lat="44.6125783" lon="11.8464517"><ele>3.0</ele><time>2026-05-01T08:28:34.749Z</time></trkpt><trkpt lat="44.612425" lon="11.8464533"><ele>3.0</ele><time>2026-05-01T08:28:35.742Z</time></trkpt><trkpt lat="44.612275" lon="11.8464567"><ele>3.0</ele><time>2026-05-01T08:28:36.753Z</time></trkpt><trkpt lat="44.6121283" lon="11.8464633"><ele>3.0</ele><time>2026-05-01T08:28:37.752Z</time></trkpt><trkpt lat="44.61186" lon="11.846465"><ele>3.0</ele><time>2026-05-01T08:28:39.751Z</time></trkpt><trkpt lat="44.61173" lon="11.846465"><ele>3.75</ele><time>2026-05-01T08:28:40.745Z</time></trkpt><trkpt lat="44.6115917" lon="11.8464683"><ele>4.5</ele><time>2026-05-01T08:28:41.75Z</time></trkpt><trkpt lat="44.611455" lon="11.8464683"><ele>5.25</ele><time>2026-05-01T08:28:42.754Z</time></trkpt><trkpt lat="44.611315" lon="11.8464733"><ele>6.0</ele><time>2026-05-01T08:28:43.752Z</time></trkpt><trkpt lat="44.61118" lon="11.8464783"><ele>6.25</ele><time>2026-05-01T08:28:44.756Z</time></trkpt><trkpt lat="44.6110517" lon="11.8464733"><ele>6.5</ele><time>2026-05-01T08:28:45.751Z</time></trkpt><trkpt lat="44.6109183" lon="11.8464733"><ele>6.75</ele><time>2026-05-01T08:28:46.754Z</time></trkpt><trkpt lat="44.6107817" lon="11.846475"><ele>7.0</ele><time>2026-05-01T08:28:47.744Z</time></trkpt><trkpt lat="44.6106417" lon="11.8464783"><ele>7.0</ele><time>2026-05-01T08:28:48.753Z</time></trkpt><trkpt lat="44.6104967" lon="11.8464767"><ele>7.0</ele><time>2026-05-01T08:28:49.742Z</time></trkpt><trkpt lat="44.6103483" lon="11.8464767"><ele>7.0</ele><time>2026-05-01T08:28:50.75Z</time></trkpt><trkpt lat="44.6102033" lon="11.84647"><ele>7.0</ele><time>2026-05-01T08:28:51.753Z</time></trkpt><trkpt lat="44.6100633" lon="11.8464517"><ele>6.75</ele><time>2026-05-01T08:28:52.75Z</time></trkpt><trkpt lat="44.6099267" lon="11.846435"><ele>6.5</ele><time>2026-05-01T08:28:53.752Z</time></trkpt><trkpt lat="44.6097883" lon="11.846415"><ele>6.25</ele><time>2026-05-01T08:28:54.742Z</time></trkpt><trkpt lat="44.6096467" lon="11.8463933"><ele>6.0</ele><time>2026-05-01T08:28:55.752Z</time></trkpt><trkpt lat="44.6095067" lon="11.84637"><ele>5.75</ele><time>2026-05-01T08:28:56.754Z</time></trkpt><trkpt lat="44.6093667" lon="11.84635"><ele>5.5</ele><time>2026-05-01T08:28:57.751Z</time></trkpt><trkpt lat="44.60923" lon="11.84633"><ele>5.25</ele><time>2026-05-01T08:28:58.751Z</time></trkpt><trkpt lat="44.6091" lon="11.846305"><ele>5.0</ele><time>2026-05-01T08:28:59.743Z</time></trkpt><trkpt lat="44.6089617" lon="11.8462867"><ele>5.0</ele><time>2026-05-01T08:29:00.751Z</time></trkpt><trkpt lat="44.6088233" lon="11.8462683"><ele>5.0</ele><time>2026-05-01T08:29:01.753Z</time></trkpt><trkpt lat="44.608685" lon="11.8462483"><ele>5.0</ele><time>2026-05-01T08:29:02.753Z</time></trkpt><trkpt lat="44.6085433" lon="11.8462383"><ele>5.0</ele><time>2026-05-01T08:29:03.748Z</time></trkpt><trkpt lat="44.6084083" lon="11.8462267"><ele>4.75</ele><time>2026-05-01T08:29:04.741Z</time></trkpt><trkpt lat="44.6082667" lon="11.8462217"><ele>4.5</ele><time>2026-05-01T08:29:05.748Z</time></trkpt><trkpt lat="44.6081283" lon="11.8462133"><ele>4.25</ele><time>2026-05-01T08:29:06.75Z</time></trkpt><trkpt lat="44.607995" lon="11.8462083"><ele>4.0</ele><time>2026-05-01T08:29:07.744Z</time></trkpt><trkpt lat="44.6078667" lon="11.8462067"><ele>4.5</ele><time>2026-05-01T08:29:08.753Z</time></trkpt><trkpt lat="44.6077383" lon="11.8462033"><ele>5.0</ele><time>2026-05-01T08:29:09.752Z</time></trkpt><trkpt lat="44.60761" lon="11.8462067"><ele>5.5</ele><time>2026-05-01T08:29:10.75Z</time></trkpt><trkpt lat="44.60747" lon="11.8462183"><ele>6.0</ele><time>2026-05-01T08:29:11.75Z</time></trkpt><trkpt lat="44.6073333" lon="11.846235"><ele>6.0</ele><time>2026-05-01T08:29:12.754Z</time></trkpt><trkpt lat="44.6071967" lon="11.8462583"><ele>6.0</ele><time>2026-05-01T08:29:13.749Z</time></trkpt><trkpt lat="44.6070533" lon="11.8462983"><ele>6.0</ele><time>2026-05-01T08:29:14.754Z</time></trkpt><trkpt lat="44.6069067" lon="11.84634"><ele>6.0</ele><time>2026-05-01T08:29:15.75Z</time></trkpt><trkpt lat="44.60675" lon="11.8463867"><ele>7.666666666666666</ele><time>2026-05-01T08:29:16.748Z</time></trkpt><trkpt lat="44.6065833" lon="11.8464283"><ele>9.333333333333332</ele><time>2026-05-01T08:29:17.753Z</time></trkpt><trkpt lat="44.6064" lon="11.846475"><ele>11.0</ele><time>2026-05-01T08:29:18.754Z</time></trkpt><trkpt lat="44.6062167" lon="11.84652"><ele>9.666666666666666</ele><time>2026-05-01T08:29:19.744Z</time></trkpt><trkpt lat="44.6060283" lon="11.8465667"><ele>8.333333333333334</ele><time>2026-05-01T08:29:20.754Z</time></trkpt><trkpt lat="44.6058367" lon="11.8466262"><ele>7.0</ele><time>2026-05-01T08:29:21.749Z</time></trkpt><trkpt lat="44.6056403" lon="11.8466955"><ele>7.0</ele><time>2026-05-01T08:29:22.752Z</time></trkpt><trkpt lat="44.6054403" lon="11.846776"><ele>7.0</ele><time>2026-05-01T08:29:23.75Z</time></trkpt><trkpt lat="44.6052392" lon="11.8468651"><ele>7.0</ele><time>2026-05-01T08:29:24.753Z</time></trkpt><trkpt lat="44.6050399" lon="11.8469664"><ele>6.0</ele><time>2026-05-01T08:29:25.751Z</time></trkpt><trkpt lat="44.6048422" lon="11.8470749"><ele>5.0</ele><time>2026-05-01T08:29:26.751Z</time></trkpt><trkpt lat="44.6046517" lon="11.8471852"><ele>4.0</ele><time>2026-05-01T08:29:27.752Z</time></trkpt><trkpt lat="44.6044666" lon="11.8473014"><ele>4.0</ele><time>2026-05-01T08:29:28.744Z</time></trkpt><trkpt lat="44.6042814" lon="11.8474166"><ele>4.0</ele><time>2026-05-01T08:29:29.751Z</time></trkpt><trkpt lat="44.6041036" lon="11.847529"><ele>4.0</ele><time>2026-05-01T08:29:30.753Z</time></trkpt><trkpt lat="44.6039364" lon="11.8476357"><ele>4.333333333333333</ele><time>2026-05-01T08:29:31.75Z</time></trkpt><trkpt lat="44.6037773" lon="11.8477368"><ele>4.666666666666667</ele><time>2026-05-01T08:29:32.749Z</time></trkpt><trkpt lat="44.603624" lon="11.8478351"><ele>5.0</ele><time>2026-05-01T08:29:33.748Z</time></trkpt><trkpt lat="44.6034721" lon="11.8479167"><ele>5.0</ele><time>2026-05-01T08:29:34.748Z</time></trkpt><trkpt lat="44.6033183" lon="11.8479895"><ele>5.0</ele><time>2026-05-01T08:29:35.751Z</time></trkpt><trkpt lat="44.6031627" lon="11.8480446"><ele>5.0</ele><time>2026-05-01T08:29:36.753Z</time></trkpt><trkpt lat="44.6030067" lon="11.8480896"><ele>5.0</ele><time>2026-05-01T08:29:37.749Z</time></trkpt><trkpt lat="44.6028577" lon="11.8481242"><ele>5.0</ele><time>2026-05-01T08:29:38.749Z</time></trkpt><trkpt lat="44.6027166" lon="11.8481529"><ele>5.0</ele><time>2026-05-01T08:29:39.745Z</time></trkpt><trkpt lat="44.6025859" lon="11.8481768"><ele>5.0</ele><time>2026-05-01T08:29:40.755Z</time></trkpt><trkpt lat="44.602464" lon="11.8482037"><ele>5.0</ele><time>2026-05-01T08:29:41.751Z</time></trkpt><trkpt lat="44.6023547" lon="11.8482271"><ele>5.0</ele><time>2026-05-01T08:29:42.743Z</time></trkpt><trkpt lat="44.602251" lon="11.8482457"><ele>5.0</ele><time>2026-05-01T08:29:43.754Z</time></trkpt><trkpt lat="44.6021493" lon="11.8482592"><ele>5.0</ele><time>2026-05-01T08:29:44.752Z</time></trkpt><trkpt lat="44.6020462" lon="11.8482689"><ele>5.0</ele><time>2026-05-01T08:29:45.754Z</time></trkpt><trkpt lat="44.6019383" lon="11.8482765"><ele>5.0</ele><time>2026-05-01T08:29:46.759Z</time></trkpt><trkpt lat="44.6018284" lon="11.8482785"><ele>5.0</ele><time>2026-05-01T08:29:47.745Z</time></trkpt><trkpt lat="44.6017181" lon="11.8482753"><ele>5.0</ele><time>2026-05-01T08:29:48.749Z</time></trkpt><trkpt lat="44.6016096" lon="11.8482645"><ele>5.0</ele><time>2026-05-01T08:29:49.742Z</time></trkpt><trkpt lat="44.6014995" lon="11.848245"><ele>5.0</ele><time>2026-05-01T08:29:50.752Z</time></trkpt><trkpt lat="44.6013872" lon="11.848217"><ele>5.0</ele><time>2026-05-01T08:29:51.75Z</time></trkpt><trkpt lat="44.6012766" lon="11.8481745"><ele>5.0</ele><time>2026-05-01T08:29:52.749Z</time></trkpt><trkpt lat="44.6011638" lon="11.8481246"><ele>5.0</ele><time>2026-05-01T08:29:53.744Z</time></trkpt><trkpt lat="44.601051" lon="11.8480635"><ele>5.0</ele><time>2026-05-01T08:29:54.754Z</time></trkpt><trkpt lat="44.6009329" lon="11.8479903"><ele>5.666666666666667</ele><time>2026-05-01T08:29:55.743Z</time></trkpt><trkpt lat="44.6008006" lon="11.8479056"><ele>6.333333333333334</ele><time>2026-05-01T08:29:56.751Z</time></trkpt><trkpt lat="44.6006548" lon="11.8478132"><ele>7.0</ele><time>2026-05-01T08:29:57.749Z</time></trkpt><trkpt lat="44.6005019" lon="11.8477141"><ele>7.0</ele><time>2026-05-01T08:29:58.748Z</time></trkpt><trkpt lat="44.6003401" lon="11.8476088"><ele>7.0</ele><time>2026-05-01T08:29:59.753Z</time></trkpt><trkpt lat="44.6001783" lon="11.8475039"><ele>7.0</ele><time>2026-05-01T08:30:00.753Z</time></trkpt><trkpt lat="44.6000118" lon="11.8473981"><ele>7.0</ele><time>2026-05-01T08:30:01.744Z</time></trkpt><trkpt lat="44.5998411" lon="11.8472882"><ele>7.0</ele><time>2026-05-01T08:30:02.748Z</time></trkpt><trkpt lat="44.5996751" lon="11.8471839"><ele>7.0</ele><time>2026-05-01T08:30:03.75Z</time></trkpt><trkpt lat="44.5995134" lon="11.847082"><ele>6.0</ele><time>2026-05-01T08:30:04.752Z</time></trkpt><trkpt lat="44.5993599" lon="11.8469883"><ele>5.0</ele><time>2026-05-01T08:30:05.757Z</time></trkpt><trkpt lat="44.5992152" lon="11.8469037"><ele>4.0</ele><time>2026-05-01T08:30:06.751Z</time></trkpt><trkpt lat="44.5990712" lon="11.8468369"><ele>3.5</ele><time>2026-05-01T08:30:07.748Z</time></trkpt><trkpt lat="44.5989246" lon="11.8467936"><ele>3.0</ele><time>2026-05-01T08:30:08.75Z</time></trkpt><trkpt lat="44.5987817" lon="11.8467917"><ele>2.5</ele><time>2026-05-01T08:30:09.744Z</time></trkpt><trkpt lat="44.59864" lon="11.8468317"><ele>2.0</ele><time>2026-05-01T08:30:10.743Z</time></trkpt><trkpt lat="44.5985017" lon="11.8469017"><ele>2.0</ele><time>2026-05-01T08:30:11.752Z</time></trkpt><trkpt lat="44.5983717" lon="11.8469683"><ele>2.0</ele><time>2026-05-01T08:30:12.743Z</time></trkpt><trkpt lat="44.5982483" lon="11.8470283"><ele>2.0</ele><time>2026-05-01T08:30:13.751Z</time></trkpt><trkpt lat="44.5981333" lon="11.8470817"><ele>2.0</ele><time>2026-05-01T08:30:14.752Z</time></trkpt><trkpt lat="44.5980367" lon="11.84713"><ele>1.9999999999999998</ele><time>2026-05-01T08:30:15.754Z</time></trkpt><trkpt lat="44.5979617" lon="11.8471633"><ele>2.0</ele><time>2026-05-01T08:30:16.747Z</time></trkpt><trkpt lat="44.5978683" lon="11.847195"><ele>2.0</ele><time>2026-05-01T08:30:18.747Z</time></trkpt><trkpt lat="44.597785" lon="11.8472033"><ele>2.0</ele><time>2026-05-01T08:30:36.748Z</time></trkpt><trkpt lat="44.5977217" lon="11.8472433"><ele>1.9999999999999998</ele><time>2026-05-01T08:30:37.747Z</time></trkpt><trkpt lat="44.5976467" lon="11.8473117"><ele>2.0</ele><time>2026-05-01T08:30:38.743Z</time></trkpt><trkpt lat="44.5975567" lon="11.8474"><ele>1.75</ele><time>2026-05-01T08:30:39.743Z</time></trkpt><trkpt lat="44.5974467" lon="11.8475017"><ele>1.5</ele><time>2026-05-01T08:30:40.741Z</time></trkpt><trkpt lat="44.5973417" lon="11.8476033"><ele>1.25</ele><time>2026-05-01T08:30:41.741Z</time></trkpt><trkpt lat="44.59723" lon="11.8477167"><ele>1.0</ele><time>2026-05-01T08:30:42.748Z</time></trkpt><trkpt lat="44.59711" lon="11.8478333"><ele>1.0</ele><time>2026-05-01T08:30:43.749Z</time></trkpt><trkpt lat="44.5969867" lon="11.8479583"><ele>1.0</ele><time>2026-05-01T08:30:44.756Z</time></trkpt><trkpt lat="44.5968567" lon="11.8480917"><ele>1.0</ele><time>2026-05-01T08:30:45.742Z</time></trkpt><trkpt lat="44.59672" lon="11.8482283"><ele>1.0</ele><time>2026-05-01T08:30:46.744Z</time></trkpt><trkpt lat="44.59658" lon="11.8483717"><ele>1.0</ele><time>2026-05-01T08:30:47.745Z</time></trkpt><trkpt lat="44.59645" lon="11.848515"><ele>1.0</ele><time>2026-05-01T08:30:48.747Z</time></trkpt><trkpt lat="44.5963217" lon="11.8486517"><ele>0.6666666666666666</ele><time>2026-05-01T08:30:49.743Z</time></trkpt><trkpt lat="44.5961967" lon="11.8487817"><ele>0.3333333333333333</ele><time>2026-05-01T08:30:50.746Z</time></trkpt><trkpt lat="44.5960783" lon="11.8489083"><ele>0.0</ele><time>2026-05-01T08:30:51.744Z</time></trkpt><trkpt lat="44.59596" lon="11.849035"><ele>1.3333333333333333</ele><time>2026-05-01T08:30:52.751Z</time></trkpt><trkpt lat="44.5958433" lon="11.84916"><ele>2.6666666666666665</ele><time>2026-05-01T08:30:53.752Z</time></trkpt><trkpt lat="44.59572" lon="11.8492867"><ele>4.0</ele><time>2026-05-01T08:30:54.753Z</time></trkpt><trkpt lat="44.5955983" lon="11.8494167"><ele>4.0</ele><time>2026-05-01T08:30:55.75Z</time></trkpt><trkpt lat="44.5954733" lon="11.8495533"><ele>4.0</ele><time>2026-05-01T08:30:56.749Z</time></trkpt><trkpt lat="44.595335" lon="11.8497033"><ele>4.0</ele><time>2026-05-01T08:30:57.751Z</time></trkpt><trkpt lat="44.5952017" lon="11.8498733"><ele>4.0</ele><time>2026-05-01T08:30:58.76Z</time></trkpt><trkpt lat="44.595075" lon="11.8500483"><ele>4.0</ele><time>2026-05-01T08:30:59.742Z</time></trkpt><trkpt lat="44.594945" lon="11.8502283"><ele>4.0</ele><time>2026-05-01T08:31:00.751Z</time></trkpt><trkpt lat="44.5948167" lon="11.8504133"><ele>4.0</ele><time>2026-05-01T08:31:01.742Z</time></trkpt><trkpt lat="44.59469" lon="11.8506083"><ele>4.0</ele><time>2026-05-01T08:31:02.753Z</time></trkpt><trkpt lat="44.5945533" lon="11.8507833"><ele>4.0</ele><time>2026-05-01T08:31:03.753Z</time></trkpt><trkpt lat="44.5944233" lon="11.8509567"><ele>3.6666666666666665</ele><time>2026-05-01T08:31:04.749Z</time></trkpt><trkpt lat="44.5942867" lon="11.8511183"><ele>3.333333333333333</ele><time>2026-05-01T08:31:05.744Z</time></trkpt><trkpt lat="44.5941433" lon="11.8512533"><ele>3.0</ele><time>2026-05-01T08:31:06.753Z</time></trkpt><trkpt lat="44.5939933" lon="11.8513633"><ele>3.0</ele><time>2026-05-01T08:31:07.75Z</time></trkpt><trkpt lat="44.5938333" lon="11.8514533"><ele>3.0</ele><time>2026-05-01T08:31:08.745Z</time></trkpt><trkpt lat="44.593665" lon="11.85151"><ele>3.0</ele><time>2026-05-01T08:31:09.745Z</time></trkpt><trkpt lat="44.5934917" lon="11.8515417"><ele>3.333333333333333</ele><time>2026-05-01T08:31:10.742Z</time></trkpt><trkpt lat="44.5933183" lon="11.85155"><ele>3.6666666666666665</ele><time>2026-05-01T08:31:11.744Z</time></trkpt><trkpt lat="44.593145" lon="11.8515383"><ele>4.0</ele><time>2026-05-01T08:31:12.752Z</time></trkpt><trkpt lat="44.5929667" lon="11.8515083"><ele>3.0</ele><time>2026-05-01T08:31:13.743Z</time></trkpt><trkpt lat="44.5927867" lon="11.85147"><ele>2.0</ele><time>2026-05-01T08:31:14.751Z</time></trkpt><trkpt lat="44.5926083" lon="11.851425"><ele>1.0</ele><time>2026-05-01T08:31:15.751Z</time></trkpt><trkpt lat="44.592435" lon="11.85139"><ele>1.0</ele><time>2026-05-01T08:31:16.746Z</time></trkpt><trkpt lat="44.592265" lon="11.8513617"><ele>1.0</ele><time>2026-05-01T08:31:17.755Z</time></trkpt><trkpt lat="44.5920967" lon="11.8513633"><ele>1.0</ele><time>2026-05-01T08:31:18.75Z</time></trkpt><trkpt lat="44.591935" lon="11.8513817"><ele>1.3333333333333333</ele><time>2026-05-01T08:31:19.752Z</time></trkpt><trkpt lat="44.59177" lon="11.8514233"><ele>1.6666666666666665</ele><time>2026-05-01T08:31:20.743Z</time></trkpt><trkpt lat="44.5916067" lon="11.8514767"><ele>2.0</ele><time>2026-05-01T08:31:21.749Z</time></trkpt><trkpt lat="44.5914467" lon="11.8515267"><ele>2.0</ele><time>2026-05-01T08:31:22.752Z</time></trkpt><trkpt lat="44.5912917" lon="11.851585"><ele>2.0</ele><time>2026-05-01T08:31:23.755Z</time></trkpt><trkpt lat="44.5911417" lon="11.8516417"><ele>2.0</ele><time>2026-05-01T08:31:24.754Z</time></trkpt><trkpt lat="44.590995" lon="11.85171"><ele>1.3333333333333333</ele><time>2026-05-01T08:31:25.755Z</time></trkpt><trkpt lat="44.590855" lon="11.8518117"><ele>0.6666666666666666</ele><time>2026-05-01T08:31:26.75Z</time></trkpt><trkpt lat="44.5907167" lon="11.8519333"><ele>0.0</ele><time>2026-05-01T08:31:27.747Z</time></trkpt><trkpt lat="44.5905883" lon="11.852075"><ele>0.0</ele><time>2026-05-01T08:31:28.75Z</time></trkpt><trkpt lat="44.5904633" lon="11.85223"><ele>0.0</ele><time>2026-05-01T08:31:29.749Z</time></trkpt><trkpt lat="44.5903383" lon="11.852395"><ele>0.0</ele><time>2026-05-01T08:31:30.752Z</time></trkpt><trkpt lat="44.5902167" lon="11.8525517"><ele>0.0</ele><time>2026-05-01T08:31:31.751Z</time></trkpt><trkpt lat="44.5901017" lon="11.852705"><ele>0.0</ele><time>2026-05-01T08:31:32.745Z</time></trkpt><trkpt lat="44.5899833" lon="11.8528583"><ele>0.0</ele><time>2026-05-01T08:31:33.748Z</time></trkpt><trkpt lat="44.58987" lon="11.8530117"><ele>0.0</ele><time>2026-05-01T08:31:34.749Z</time></trkpt><trkpt lat="44.589755" lon="11.8531667"><ele>0.0</ele><time>2026-05-01T08:31:35.753Z</time></trkpt><trkpt lat="44.589645" lon="11.8533217"><ele>0.0</ele><time>2026-05-01T08:31:36.75Z</time></trkpt><trkpt lat="44.5895317" lon="11.8534717"><ele>0.6666666666666666</ele><time>2026-05-01T08:31:37.746Z</time></trkpt><trkpt lat="44.5894183" lon="11.8536233"><ele>1.3333333333333333</ele><time>2026-05-01T08:31:38.751Z</time></trkpt><trkpt lat="44.5892967" lon="11.85377"><ele>2.0</ele><time>2026-05-01T08:31:39.754Z</time></trkpt><trkpt lat="44.589165" lon="11.853905"><ele>2.0</ele><time>2026-05-01T08:31:40.754Z</time></trkpt><trkpt lat="44.589025" lon="11.8540333"><ele>2.0</ele><time>2026-05-01T08:31:41.747Z</time></trkpt><trkpt lat="44.5888767" lon="11.854155"><ele>2.0</ele><time>2026-05-01T08:31:42.741Z</time></trkpt><trkpt lat="44.588725" lon="11.8542733"><ele>1.3333333333333333</ele><time>2026-05-01T08:31:43.749Z</time></trkpt><trkpt lat="44.5885733" lon="11.85439"><ele>0.6666666666666666</ele><time>2026-05-01T08:31:44.75Z</time></trkpt><trkpt lat="44.588425" lon="11.8545083"><ele>0.0</ele><time>2026-05-01T08:31:45.749Z</time></trkpt><trkpt lat="44.5882783" lon="11.8546267"><ele>0.0</ele><time>2026-05-01T08:31:46.751Z</time></trkpt><trkpt lat="44.588135" lon="11.8547533"><ele>0.0</ele><time>2026-05-01T08:31:47.752Z</time></trkpt><trkpt lat="44.588" lon="11.8548917"><ele>0.0</ele><time>2026-05-01T08:31:48.75Z</time></trkpt><trkpt lat="44.587875" lon="11.8550433"><ele>0.0</ele><time>2026-05-01T08:31:49.748Z</time></trkpt><trkpt lat="44.5877633" lon="11.8552083"><ele>0.0</ele><time>2026-05-01T08:31:50.749Z</time></trkpt><trkpt lat="44.5876583" lon="11.8553967"><ele>0.0</ele><time>2026-05-01T08:31:51.744Z</time></trkpt><trkpt lat="44.5875633" lon="11.855585"><ele>0.0</ele><time>2026-05-01T08:31:52.748Z</time></trkpt><trkpt lat="44.5874717" lon="11.8557733"><ele>0.0</ele><time>2026-05-01T08:31:53.751Z</time></trkpt><trkpt lat="44.5873817" lon="11.85596"><ele>0.0</ele><time>2026-05-01T08:31:54.756Z</time></trkpt><trkpt lat="44.5872883" lon="11.8561467"><ele>0.0</ele><time>2026-05-01T08:31:55.752Z</time></trkpt><trkpt lat="44.5871883" lon="11.856335"><ele>0.0</ele><time>2026-05-01T08:31:56.752Z</time></trkpt><trkpt lat="44.5870917" lon="11.8565183"><ele>0.0</ele><time>2026-05-01T08:31:57.75Z</time></trkpt><trkpt lat="44.5869917" lon="11.856705"><ele>0.3333333333333333</ele><time>2026-05-01T08:31:58.75Z</time></trkpt><trkpt lat="44.5868917" lon="11.85689"><ele>0.6666666666666666</ele><time>2026-05-01T08:31:59.754Z</time></trkpt><trkpt lat="44.5867883" lon="11.857075"><ele>1.0</ele><time>2026-05-01T08:32:00.744Z</time></trkpt><trkpt lat="44.5866783" lon="11.857255"><ele>1.0</ele><time>2026-05-01T08:32:01.754Z</time></trkpt><trkpt lat="44.5865617" lon="11.8574283"><ele>1.0</ele><time>2026-05-01T08:32:02.75Z</time></trkpt><trkpt lat="44.58644" lon="11.8575883"><ele>1.0</ele><time>2026-05-01T08:32:03.75Z</time></trkpt><trkpt lat="44.5863083" lon="11.8577317"><ele>1.3333333333333333</ele><time>2026-05-01T08:32:04.75Z</time></trkpt><trkpt lat="44.58617" lon="11.8578533"><ele>1.6666666666666665</ele><time>2026-05-01T08:32:05.75Z</time></trkpt><trkpt lat="44.586025" lon="11.857965"><ele>2.0</ele><time>2026-05-01T08:32:06.756Z</time></trkpt><trkpt lat="44.5858767" lon="11.8580717"><ele>2.0</ele><time>2026-05-01T08:32:07.75Z</time></trkpt><trkpt lat="44.5857217" lon="11.85817"><ele>2.0</ele><time>2026-05-01T08:32:08.753Z</time></trkpt><trkpt lat="44.585565" lon="11.8582567"><ele>2.0</ele><time>2026-05-01T08:32:09.749Z</time></trkpt><trkpt lat="44.5854067" lon="11.858335"><ele>2.0</ele><time>2026-05-01T08:32:10.749Z</time></trkpt><trkpt lat="44.5852517" lon="11.8584017"><ele>2.0</ele><time>2026-05-01T08:32:11.749Z</time></trkpt><trkpt lat="44.585095" lon="11.858455"><ele>2.0</ele><time>2026-05-01T08:32:12.752Z</time></trkpt><trkpt lat="44.5849383" lon="11.8585033"><ele>1.6666666666666665</ele><time>2026-05-01T08:32:13.75Z</time></trkpt><trkpt lat="44.584785" lon="11.8585483"><ele>1.3333333333333333</ele><time>2026-05-01T08:32:14.754Z</time></trkpt><trkpt lat="44.5846383" lon="11.8585917"><ele>1.0</ele><time>2026-05-01T08:32:15.743Z</time></trkpt><trkpt lat="44.58449" lon="11.85864"><ele>1.0</ele><time>2026-05-01T08:32:16.748Z</time></trkpt><trkpt lat="44.584345" lon="11.858705"><ele>1.0</ele><time>2026-05-01T08:32:17.752Z</time></trkpt><trkpt lat="44.5842083" lon="11.8587833"><ele>1.0</ele><time>2026-05-01T08:32:18.747Z</time></trkpt><trkpt lat="44.5840867" lon="11.85888"><ele>1.0</ele><time>2026-05-01T08:32:19.748Z</time></trkpt><trkpt lat="44.5839817" lon="11.858995"><ele>1.0</ele><time>2026-05-01T08:32:20.749Z</time></trkpt><trkpt lat="44.5838967" lon="11.8591383"><ele>1.0</ele><time>2026-05-01T08:32:21.745Z</time></trkpt><trkpt lat="44.5838333" lon="11.8592967"><ele>1.0</ele><time>2026-05-01T08:32:22.748Z</time></trkpt><trkpt lat="44.583795" lon="11.85947"><ele>1.0</ele><time>2026-05-01T08:32:23.749Z</time></trkpt><trkpt lat="44.58377" lon="11.8596383"><ele>1.25</ele><time>2026-05-01T08:32:24.752Z</time></trkpt><trkpt lat="44.58375" lon="11.8598017"><ele>1.5</ele><time>2026-05-01T08:32:25.75Z</time></trkpt><trkpt lat="44.58373" lon="11.859975"><ele>1.75</ele><time>2026-05-01T08:32:26.75Z</time></trkpt><trkpt lat="44.5837183" lon="11.860155"><ele>2.0</ele><time>2026-05-01T08:32:27.747Z</time></trkpt><trkpt lat="44.583705" lon="11.860335"><ele>1.75</ele><time>2026-05-01T08:32:28.742Z</time></trkpt><trkpt lat="44.5836967" lon="11.8605117"><ele>1.5</ele><time>2026-05-01T08:32:29.753Z</time></trkpt><trkpt lat="44.58369" lon="11.8606917"><ele>1.25</ele><time>2026-05-01T08:32:30.754Z</time></trkpt><trkpt lat="44.5836833" lon="11.8608717"><ele>1.0</ele><time>2026-05-01T08:32:31.75Z</time></trkpt><trkpt lat="44.5836817" lon="11.861055"><ele>1.0</ele><time>2026-05-01T08:32:32.751Z</time></trkpt><trkpt lat="44.583685" lon="11.86124"><ele>1.0</ele><time>2026-05-01T08:32:33.751Z</time></trkpt><trkpt lat="44.58369" lon="11.8614267"><ele>1.0</ele><time>2026-05-01T08:32:34.741Z</time></trkpt><trkpt lat="44.583695" lon="11.861615"><ele>1.0</ele><time>2026-05-01T08:32:35.753Z</time></trkpt><trkpt lat="44.5837" lon="11.8618017"><ele>1.25</ele><time>2026-05-01T08:32:36.753Z</time></trkpt><trkpt lat="44.5837067" lon="11.8619883"><ele>1.5</ele><time>2026-05-01T08:32:37.752Z</time></trkpt><trkpt lat="44.583715" lon="11.8621767"><ele>1.75</ele><time>2026-05-01T08:32:38.75Z</time></trkpt><trkpt lat="44.58373" lon="11.862365"><ele>2.0</ele><time>2026-05-01T08:32:39.75Z</time></trkpt><trkpt lat="44.5837483" lon="11.8625533"><ele>2.0</ele><time>2026-05-01T08:32:40.748Z</time></trkpt><trkpt lat="44.5837733" lon="11.8627417"><ele>2.0</ele><time>2026-05-01T08:32:41.749Z</time></trkpt><trkpt lat="44.5837983" lon="11.8629317"><ele>2.0</ele><time>2026-05-01T08:32:42.752Z</time></trkpt><trkpt lat="44.58383" lon="11.8631233"><ele>2.0</ele><time>2026-05-01T08:32:43.747Z</time></trkpt><trkpt lat="44.5838617" lon="11.8633117"><ele>1.75</ele><time>2026-05-01T08:32:44.752Z</time></trkpt><trkpt lat="44.5838925" lon="11.8634983"><ele>1.5</ele><time>2026-05-01T08:32:45.748Z</time></trkpt><trkpt lat="44.5839229" lon="11.8636843"><ele>1.25</ele><time>2026-05-01T08:32:46.752Z</time></trkpt><trkpt lat="44.5839514" lon="11.8638713"><ele>1.0</ele><time>2026-05-01T08:32:47.747Z</time></trkpt><trkpt lat="44.5839802" lon="11.8640606"><ele>1.0</ele><time>2026-05-01T08:32:48.751Z</time></trkpt><trkpt lat="44.5840091" lon="11.8642503"><ele>1.0</ele><time>2026-05-01T08:32:49.741Z</time></trkpt><trkpt lat="44.5840363" lon="11.8644445"><ele>1.0</ele><time>2026-05-01T08:32:50.748Z</time></trkpt><trkpt lat="44.5840585" lon="11.8646401"><ele>1.0</ele><time>2026-05-01T08:32:51.741Z</time></trkpt><trkpt lat="44.5840796" lon="11.864841"><ele>1.25</ele><time>2026-05-01T08:32:52.746Z</time></trkpt><trkpt lat="44.5840931" lon="11.8650437"><ele>1.5</ele><time>2026-05-01T08:32:53.749Z</time></trkpt><trkpt lat="44.5840979" lon="11.8652477"><ele>1.75</ele><time>2026-05-01T08:32:54.751Z</time></trkpt><trkpt lat="44.5840956" lon="11.8654535"><ele>2.0</ele><time>2026-05-01T08:32:55.742Z</time></trkpt><trkpt lat="44.5840809" lon="11.8656601"><ele>2.0</ele><time>2026-05-01T08:32:56.749Z</time></trkpt><trkpt lat="44.5840515" lon="11.86586"><ele>2.0</ele><time>2026-05-01T08:32:57.754Z</time></trkpt><trkpt lat="44.5840122" lon="11.8660549"><ele>2.0</ele><time>2026-05-01T08:32:58.749Z</time></trkpt><trkpt lat="44.5839717" lon="11.86625"><ele>2.0</ele><time>2026-05-01T08:32:59.752Z</time></trkpt><trkpt lat="44.5839323" lon="11.8664444"><ele>2.0</ele><time>2026-05-01T08:33:00.753Z</time></trkpt><trkpt lat="44.5838961" lon="11.8666317"><ele>2.0</ele><time>2026-05-01T08:33:01.742Z</time></trkpt><trkpt lat="44.5838615" lon="11.8668072"><ele>2.0</ele><time>2026-05-01T08:33:02.744Z</time></trkpt><trkpt lat="44.5838288" lon="11.8669702"><ele>2.0</ele><time>2026-05-01T08:33:03.753Z</time></trkpt><trkpt lat="44.5837923" lon="11.8671274"><ele>2.0</ele><time>2026-05-01T08:33:04.751Z</time></trkpt><trkpt lat="44.5837503" lon="11.8672898"><ele>2.0</ele><time>2026-05-01T08:33:05.757Z</time></trkpt><trkpt lat="44.5837052" lon="11.8674569"><ele>2.0</ele><time>2026-05-01T08:33:06.752Z</time></trkpt><trkpt lat="44.5836532" lon="11.867629"><ele>2.0</ele><time>2026-05-01T08:33:07.751Z</time></trkpt><trkpt lat="44.583595" lon="11.8678041"><ele>2.0</ele><time>2026-05-01T08:33:08.743Z</time></trkpt><trkpt lat="44.5835291" lon="11.8679835"><ele>2.0</ele><time>2026-05-01T08:33:09.753Z</time></trkpt><trkpt lat="44.5834604" lon="11.8681626"><ele>2.0</ele><time>2026-05-01T08:33:10.749Z</time></trkpt><trkpt lat="44.5833897" lon="11.8683398"><ele>2.0</ele><time>2026-05-01T08:33:11.753Z</time></trkpt><trkpt lat="44.5833145" lon="11.8685114"><ele>2.0</ele><time>2026-05-01T08:33:12.742Z</time></trkpt><trkpt lat="44.5832346" lon="11.8686807"><ele>2.0</ele><time>2026-05-01T08:33:13.741Z</time></trkpt><trkpt lat="44.5831493" lon="11.8688473"><ele>2.0</ele><time>2026-05-01T08:33:14.753Z</time></trkpt><trkpt lat="44.5830625" lon="11.8690125"><ele>2.0</ele><time>2026-05-01T08:33:15.748Z</time></trkpt><trkpt lat="44.5829768" lon="11.8691745"><ele>1.75</ele><time>2026-05-01T08:33:16.747Z</time></trkpt><trkpt lat="44.5828895" lon="11.8693267"><ele>1.5</ele><time>2026-05-01T08:33:17.743Z</time></trkpt><trkpt lat="44.5827972" lon="11.8694715"><ele>1.25</ele><time>2026-05-01T08:33:18.748Z</time></trkpt><trkpt lat="44.5827016" lon="11.8696168"><ele>1.0</ele><time>2026-05-01T08:33:19.749Z</time></trkpt><trkpt lat="44.5826035" lon="11.8697627"><ele>1.0</ele><time>2026-05-01T08:33:20.751Z</time></trkpt><trkpt lat="44.5825036" lon="11.8699072"><ele>1.0</ele><time>2026-05-01T08:33:21.743Z</time></trkpt><trkpt lat="44.5823998" lon="11.8700545"><ele>1.0</ele><time>2026-05-01T08:33:22.751Z</time></trkpt><trkpt lat="44.5822949" lon="11.8702032"><ele>1.0</ele><time>2026-05-01T08:33:23.754Z</time></trkpt><trkpt lat="44.5821875" lon="11.870352"><ele>0.6666666666666666</ele><time>2026-05-01T08:33:24.751Z</time></trkpt><trkpt lat="44.5820795" lon="11.8704977"><ele>0.3333333333333333</ele><time>2026-05-01T08:33:25.745Z</time></trkpt><trkpt lat="44.5819695" lon="11.8706446"><ele>0.0</ele><time>2026-05-01T08:33:26.75Z</time></trkpt><trkpt lat="44.5818593" lon="11.8707969"><ele>0.0</ele><time>2026-05-01T08:33:27.748Z</time></trkpt><trkpt lat="44.5817461" lon="11.8709495"><ele>0.0</ele><time>2026-05-01T08:33:28.754Z</time></trkpt><trkpt lat="44.5816293" lon="11.8710944"><ele>0.0</ele><time>2026-05-01T08:33:29.748Z</time></trkpt><trkpt lat="44.5815114" lon="11.8712397"><ele>0.0</ele><time>2026-05-01T08:33:30.754Z</time></trkpt><trkpt lat="44.5814024" lon="11.8713901"><ele>0.0</ele><time>2026-05-01T08:33:31.749Z</time></trkpt><trkpt lat="44.5812971" lon="11.8715477"><ele>0.0</ele><time>2026-05-01T08:33:32.753Z</time></trkpt><trkpt lat="44.5811917" lon="11.871709"><ele>0.3333333333333333</ele><time>2026-05-01T08:33:33.751Z</time></trkpt><trkpt lat="44.5810838" lon="11.8718741"><ele>0.6666666666666666</ele><time>2026-05-01T08:33:34.75Z</time></trkpt><trkpt lat="44.5809749" lon="11.8720422"><ele>1.0</ele><time>2026-05-01T08:33:35.753Z</time></trkpt><trkpt lat="44.580865" lon="11.8722083"><ele>1.0</ele><time>2026-05-01T08:33:36.75Z</time></trkpt><trkpt lat="44.5807588" lon="11.8723659"><ele>1.0</ele><time>2026-05-01T08:33:37.751Z</time></trkpt><trkpt lat="44.5806672" lon="11.872509"><ele>1.0</ele><time>2026-05-01T08:33:38.749Z</time></trkpt><trkpt lat="44.5805792" lon="11.8726411"><ele>1.0</ele><time>2026-05-01T08:33:39.748Z</time></trkpt><trkpt lat="44.5804904" lon="11.8727697"><ele>1.5</ele><time>2026-05-01T08:33:40.741Z</time></trkpt><trkpt lat="44.5803997" lon="11.8728977"><ele>2.0</ele><time>2026-05-01T08:33:41.743Z</time></trkpt><trkpt lat="44.5803054" lon="11.8730226"><ele>2.5</ele><time>2026-05-01T08:33:42.744Z</time></trkpt><trkpt lat="44.5802045" lon="11.873148"><ele>3.0</ele><time>2026-05-01T08:33:43.747Z</time></trkpt><trkpt lat="44.5800986" lon="11.8732723"><ele>3.0</ele><time>2026-05-01T08:33:44.742Z</time></trkpt><trkpt lat="44.5799923" lon="11.8733999"><ele>3.0</ele><time>2026-05-01T08:33:45.742Z</time></trkpt><trkpt lat="44.5798905" lon="11.8735325"><ele>3.0</ele><time>2026-05-01T08:33:46.75Z</time></trkpt><trkpt lat="44.5797942" lon="11.8736657"><ele>3.0</ele><time>2026-05-01T08:33:47.742Z</time></trkpt><trkpt lat="44.5796929" lon="11.8738064"><ele>3.0</ele><time>2026-05-01T08:33:48.746Z</time></trkpt><trkpt lat="44.5795833" lon="11.8739504"><ele>3.0</ele><time>2026-05-01T08:33:49.742Z</time></trkpt><trkpt lat="44.57947" lon="11.8740986"><ele>3.0</ele><time>2026-05-01T08:33:50.753Z</time></trkpt><trkpt lat="44.5793581" lon="11.8742391"><ele>3.0</ele><time>2026-05-01T08:33:51.741Z</time></trkpt><trkpt lat="44.5792548" lon="11.8743641"><ele>3.0</ele><time>2026-05-01T08:33:52.749Z</time></trkpt><trkpt lat="44.579159" lon="11.8744835"><ele>3.0</ele><time>2026-05-01T08:33:53.756Z</time></trkpt><trkpt lat="44.5790758" lon="11.8745955"><ele>3.0</ele><time>2026-05-01T08:33:54.749Z</time></trkpt><trkpt lat="44.5789963" lon="11.8747058"><ele>3.0</ele><time>2026-05-01T08:33:55.751Z</time></trkpt><trkpt lat="44.5789172" lon="11.874812"><ele>3.0</ele><time>2026-05-01T08:33:56.751Z</time></trkpt><trkpt lat="44.5788444" lon="11.8749029"><ele>3.0</ele><time>2026-05-01T08:33:57.75Z</time></trkpt><trkpt lat="44.5787854" lon="11.8749771"><ele>3.0</ele><time>2026-05-01T08:33:58.745Z</time></trkpt><trkpt lat="44.5787159" lon="11.8750615"><ele>3.0</ele><time>2026-05-01T08:34:00.75Z</time></trkpt><trkpt lat="44.578667" lon="11.8751203"><ele>3.0</ele><time>2026-05-01T08:34:02.754Z</time></trkpt><trkpt lat="44.5785857" lon="11.8752172"><ele>3.571428571428571</ele><time>2026-05-01T08:34:04.749Z</time></trkpt><trkpt lat="44.5785329" lon="11.8752791"><ele>4.142857142857142</ele><time>2026-05-01T08:34:05.747Z</time></trkpt><trkpt lat="44.5784806" lon="11.8753416"><ele>4.714285714285714</ele><time>2026-05-01T08:34:06.749Z</time></trkpt><trkpt lat="44.5784316" lon="11.8754037"><ele>5.285714285714286</ele><time>2026-05-01T08:34:07.746Z</time></trkpt><trkpt lat="44.5783816" lon="11.875463"><ele>5.857142857142857</ele><time>2026-05-01T08:34:08.756Z</time></trkpt><trkpt lat="44.578326" lon="11.8755174"><ele>6.428571428571429</ele><time>2026-05-01T08:34:09.747Z</time></trkpt><trkpt lat="44.578265" lon="11.875561"><ele>7.0</ele><time>2026-05-01T08:34:10.744Z</time></trkpt><trkpt lat="44.5781986" lon="11.8755844"><ele>7.000000000000001</ele><time>2026-05-01T08:34:11.748Z</time></trkpt><trkpt lat="44.5781277" lon="11.8755838"><ele>7.0</ele><time>2026-05-01T08:34:12.751Z</time></trkpt><trkpt lat="44.5780513" lon="11.8755599"><ele>7.0</ele><time>2026-05-01T08:34:13.752Z</time></trkpt><trkpt lat="44.5779697" lon="11.8755195"><ele>7.0</ele><time>2026-05-01T08:34:14.741Z</time></trkpt><trkpt lat="44.577881" lon="11.8754751"><ele>7.000000000000001</ele><time>2026-05-01T08:34:15.749Z</time></trkpt><trkpt lat="44.5777811" lon="11.8754254"><ele>7.0</ele><time>2026-05-01T08:34:16.748Z</time></trkpt><trkpt lat="44.5776739" lon="11.8753717"><ele>6.25</ele><time>2026-05-01T08:34:17.742Z</time></trkpt><trkpt lat="44.5775609" lon="11.8753129"><ele>5.5</ele><time>2026-05-01T08:34:18.752Z</time></trkpt><trkpt lat="44.5774433" lon="11.8752524"><ele>4.75</ele><time>2026-05-01T08:34:19.742Z</time></trkpt><trkpt lat="44.5773205" lon="11.8751896"><ele>4.0</ele><time>2026-05-01T08:34:20.753Z</time></trkpt><trkpt lat="44.5772077" lon="11.8751308"><ele>3.8000000000000003</ele><time>2026-05-01T08:34:21.748Z</time></trkpt><trkpt lat="44.5771015" lon="11.875075"><ele>3.6000000000000005</ele><time>2026-05-01T08:34:22.751Z</time></trkpt><trkpt lat="44.5770027" lon="11.8750209"><ele>3.4</ele><time>2026-05-01T08:34:23.75Z</time></trkpt><trkpt lat="44.5769106" lon="11.8749693"><ele>3.2</ele><time>2026-05-01T08:34:24.748Z</time></trkpt><trkpt lat="44.5768217" lon="11.8749214"><ele>3.0</ele><time>2026-05-01T08:34:25.749Z</time></trkpt><trkpt lat="44.5767319" lon="11.8748771"><ele>3.4</ele><time>2026-05-01T08:34:26.748Z</time></trkpt><trkpt lat="44.5766374" lon="11.8748352"><ele>3.8</ele><time>2026-05-01T08:34:27.749Z</time></trkpt><trkpt lat="44.5765402" lon="11.8748003"><ele>4.2</ele><time>2026-05-01T08:34:28.742Z</time></trkpt><trkpt lat="44.5764367" lon="11.8747958"><ele>4.6</ele><time>2026-05-01T08:34:29.746Z</time></trkpt><trkpt lat="44.5763386" lon="11.874832"><ele>5.0</ele><time>2026-05-01T08:34:30.743Z</time></trkpt><trkpt lat="44.5762485" lon="11.8749097"><ele>4.75</ele><time>2026-05-01T08:34:31.744Z</time></trkpt><trkpt lat="44.576165" lon="11.8750019"><ele>4.5</ele><time>2026-05-01T08:34:32.755Z</time></trkpt><trkpt lat="44.5760935" lon="11.8751567"><ele>4.25</ele><time>2026-05-01T08:34:33.75Z</time></trkpt><trkpt lat="44.576021" lon="11.8753221"><ele>4.0</ele><time>2026-05-01T08:34:34.742Z</time></trkpt><trkpt lat="44.5759409" lon="11.8755026"><ele>4.0</ele><time>2026-05-01T08:34:35.741Z</time></trkpt><trkpt lat="44.5758572" lon="11.8756919"><ele>4.0</ele><time>2026-05-01T08:34:36.749Z</time></trkpt><trkpt lat="44.5757715" lon="11.8758933"><ele>4.0</ele><time>2026-05-01T08:34:37.748Z</time></trkpt><trkpt lat="44.5756806" lon="11.8761049"><ele>4.0</ele><time>2026-05-01T08:34:38.751Z</time></trkpt><trkpt lat="44.5755885" lon="11.8763262"><ele>4.0</ele><time>2026-05-01T08:34:39.752Z</time></trkpt><trkpt lat="44.5754927" lon="11.8765553"><ele>4.0</ele><time>2026-05-01T08:34:40.75Z</time></trkpt><trkpt lat="44.5753956" lon="11.8767894"><ele>4.0</ele><time>2026-05-01T08:34:41.75Z</time></trkpt><trkpt lat="44.5752964" lon="11.8770236"><ele>4.0</ele><time>2026-05-01T08:34:42.746Z</time></trkpt><trkpt lat="44.5751997" lon="11.8772558"><ele>4.0</ele><time>2026-05-01T08:34:43.743Z</time></trkpt><trkpt lat="44.5751061" lon="11.8774778"><ele>3.6666666666666665</ele><time>2026-05-01T08:34:44.75Z</time></trkpt><trkpt lat="44.5750156" lon="11.8776866"><ele>3.333333333333333</ele><time>2026-05-01T08:34:45.756Z</time></trkpt><trkpt lat="44.5749291" lon="11.8778832"><ele>3.0</ele><time>2026-05-01T08:34:46.749Z</time></trkpt><trkpt lat="44.5748421" lon="11.8780742"><ele>3.0</ele><time>2026-05-01T08:34:47.751Z</time></trkpt><trkpt lat="44.5747562" lon="11.8782633"><ele>3.0</ele><time>2026-05-01T08:34:48.744Z</time></trkpt><trkpt lat="44.5746708" lon="11.8784584"><ele>3.0</ele><time>2026-05-01T08:34:49.751Z</time></trkpt><trkpt lat="44.5745897" lon="11.8786479"><ele>3.5</ele><time>2026-05-01T08:34:50.752Z</time></trkpt><trkpt lat="44.5745137" lon="11.878839"><ele>4.0</ele><time>2026-05-01T08:34:51.755Z</time></trkpt><trkpt lat="44.5744369" lon="11.8790192"><ele>4.5</ele><time>2026-05-01T08:34:52.756Z</time></trkpt><trkpt lat="44.5743627" lon="11.8791849"><ele>5.0</ele><time>2026-05-01T08:34:53.751Z</time></trkpt><trkpt lat="44.5742943" lon="11.8793367"><ele>5.2</ele><time>2026-05-01T08:34:54.745Z</time></trkpt><trkpt lat="44.574236" lon="11.8794749"><ele>5.4</ele><time>2026-05-01T08:34:55.751Z</time></trkpt><trkpt lat="44.5741833" lon="11.8795986"><ele>5.6</ele><time>2026-05-01T08:34:56.751Z</time></trkpt><trkpt lat="44.5741317" lon="11.8797146"><ele>5.8</ele><time>2026-05-01T08:34:57.752Z</time></trkpt><trkpt lat="44.5740808" lon="11.8798322"><ele>6.0</ele><time>2026-05-01T08:34:58.75Z</time></trkpt><trkpt lat="44.5740249" lon="11.8799608"><ele>6.0</ele><time>2026-05-01T08:34:59.748Z</time></trkpt><trkpt lat="44.5739605" lon="11.8800995"><ele>6.0</ele><time>2026-05-01T08:35:00.741Z</time></trkpt><trkpt lat="44.5738913" lon="11.880256"><ele>6.0</ele><time>2026-05-01T08:35:01.742Z</time></trkpt><trkpt lat="44.5738184" lon="11.8804255"><ele>6.0</ele><time>2026-05-01T08:35:02.752Z</time></trkpt><trkpt lat="44.5737467" lon="11.8806034"><ele>4.5</ele><time>2026-05-01T08:35:03.75Z</time></trkpt><trkpt lat="44.5736736" lon="11.8807783"><ele>3.0</ele><time>2026-05-01T08:35:04.749Z</time></trkpt><trkpt lat="44.5736035" lon="11.8809434"><ele>1.5</ele><time>2026-05-01T08:35:05.749Z</time></trkpt><trkpt lat="44.5735368" lon="11.8810925"><ele>0.0</ele><time>2026-05-01T08:35:06.754Z</time></trkpt><trkpt lat="44.573477" lon="11.881223"><ele>-0.2</ele><time>2026-05-01T08:35:07.748Z</time></trkpt><trkpt lat="44.5734253" lon="11.881341"><ele>-0.4</ele><time>2026-05-01T08:35:08.751Z</time></trkpt><trkpt lat="44.5733759" lon="11.8814506"><ele>-0.6000000000000001</ele><time>2026-05-01T08:35:09.748Z</time></trkpt><trkpt lat="44.5733289" lon="11.8815564"><ele>-0.8</ele><time>2026-05-01T08:35:10.747Z</time></trkpt><trkpt lat="44.5732807" lon="11.8816634"><ele>-1.0</ele><time>2026-05-01T08:35:11.748Z</time></trkpt><trkpt lat="44.5732299" lon="11.8817769"><ele>-1.2000000000000002</ele><time>2026-05-01T08:35:12.749Z</time></trkpt><trkpt lat="44.573178" lon="11.8818983"><ele>-1.4000000000000001</ele><time>2026-05-01T08:35:13.745Z</time></trkpt><trkpt lat="44.5731257" lon="11.8820201"><ele>-1.6</ele><time>2026-05-01T08:35:14.755Z</time></trkpt><trkpt lat="44.5730733" lon="11.8821383"><ele>-1.8</ele><time>2026-05-01T08:35:15.751Z</time></trkpt><trkpt lat="44.5730233" lon="11.8822533"><ele>-2.0</ele><time>2026-05-01T08:35:16.757Z</time></trkpt><trkpt lat="44.572975" lon="11.8823667"><ele>-2.0</ele><time>2026-05-01T08:35:17.762Z</time></trkpt><trkpt lat="44.5729267" lon="11.88248"><ele>-2.0</ele><time>2026-05-01T08:35:18.751Z</time></trkpt><trkpt lat="44.57288" lon="11.8825917"><ele>-2.0</ele><time>2026-05-01T08:35:19.75Z</time></trkpt><trkpt lat="44.5728333" lon="11.8827067"><ele>-2.0</ele><time>2026-05-01T08:35:20.752Z</time></trkpt><trkpt lat="44.5727867" lon="11.8828183"><ele>-2.0</ele><time>2026-05-01T08:35:21.751Z</time></trkpt><trkpt lat="44.5727367" lon="11.88293"><ele>-1.4000000000000001</ele><time>2026-05-01T08:35:22.743Z</time></trkpt><trkpt lat="44.5726833" lon="11.8830467"><ele>-0.8000000000000002</ele><time>2026-05-01T08:35:23.744Z</time></trkpt><trkpt lat="44.57263" lon="11.8831683"><ele>-0.19999999999999996</ele><time>2026-05-01T08:35:24.748Z</time></trkpt><trkpt lat="44.5725733" lon="11.8832983"><ele>0.4</ele><time>2026-05-01T08:35:25.751Z</time></trkpt><trkpt lat="44.5725167" lon="11.88345"><ele>1.0</ele><time>2026-05-01T08:35:26.752Z</time></trkpt><trkpt lat="44.5724483" lon="11.883615"><ele>1.6666666666666665</ele><time>2026-05-01T08:35:27.742Z</time></trkpt><trkpt lat="44.572375" lon="11.8837917"><ele>2.3333333333333335</ele><time>2026-05-01T08:35:28.749Z</time></trkpt><trkpt lat="44.5722967" lon="11.8839833"><ele>3.0</ele><time>2026-05-01T08:35:29.749Z</time></trkpt><trkpt lat="44.5722133" lon="11.8841767"><ele>2.3333333333333335</ele><time>2026-05-01T08:35:30.749Z</time></trkpt><trkpt lat="44.57212" lon="11.884375"><ele>1.6666666666666665</ele><time>2026-05-01T08:35:31.75Z</time></trkpt><trkpt lat="44.5720233" lon="11.8845817"><ele>1.0</ele><time>2026-05-01T08:35:32.744Z</time></trkpt><trkpt lat="44.5719267" lon="11.8847917"><ele>1.0</ele><time>2026-05-01T08:35:33.75Z</time></trkpt><trkpt lat="44.5718283" lon="11.8850067"><ele>1.0</ele><time>2026-05-01T08:35:34.748Z</time></trkpt><trkpt lat="44.5717317" lon="11.8852267"><ele>1.0</ele><time>2026-05-01T08:35:35.749Z</time></trkpt><trkpt lat="44.5716317" lon="11.88545"><ele>1.6666666666666665</ele><time>2026-05-01T08:35:36.745Z</time></trkpt><trkpt lat="44.5715317" lon="11.8856767"><ele>2.3333333333333335</ele><time>2026-05-01T08:35:37.751Z</time></trkpt><trkpt lat="44.57143" lon="11.8859067"><ele>3.0</ele><time>2026-05-01T08:35:38.751Z</time></trkpt><trkpt lat="44.5713317" lon="11.886135"><ele>3.0</ele><time>2026-05-01T08:35:39.752Z</time></trkpt><trkpt lat="44.5712317" lon="11.8863683"><ele>3.0</ele><time>2026-05-01T08:35:40.746Z</time></trkpt><trkpt lat="44.5711317" lon="11.8865983"><ele>3.0</ele><time>2026-05-01T08:35:41.755Z</time></trkpt><trkpt lat="44.571025" lon="11.88683"><ele>2.0</ele><time>2026-05-01T08:35:42.762Z</time></trkpt><trkpt lat="44.57092" lon="11.8870683"><ele>1.0</ele><time>2026-05-01T08:35:43.751Z</time></trkpt><trkpt lat="44.5708117" lon="11.887315"><ele>0.0</ele><time>2026-05-01T08:35:44.747Z</time></trkpt><trkpt lat="44.5707017" lon="11.887565"><ele>-0.3333333333333333</ele><time>2026-05-01T08:35:45.753Z</time></trkpt><trkpt lat="44.5705867" lon="11.8878167"><ele>-0.6666666666666666</ele><time>2026-05-01T08:35:46.752Z</time></trkpt><trkpt lat="44.5704733" lon="11.8880683"><ele>-1.0</ele><time>2026-05-01T08:35:47.753Z</time></trkpt><trkpt lat="44.5703567" lon="11.8883217"><ele>-0.6666666666666666</ele><time>2026-05-01T08:35:48.742Z</time></trkpt><trkpt lat="44.5702417" lon="11.888575"><ele>-0.3333333333333333</ele><time>2026-05-01T08:35:49.753Z</time></trkpt><trkpt lat="44.5701267" lon="11.8888267"><ele>0.0</ele><time>2026-05-01T08:35:50.751Z</time></trkpt><trkpt lat="44.5700133" lon="11.8890767"><ele>0.0</ele><time>2026-05-01T08:35:51.749Z</time></trkpt><trkpt lat="44.5699033" lon="11.8893233"><ele>0.0</ele><time>2026-05-01T08:35:52.749Z</time></trkpt><trkpt lat="44.5697967" lon="11.889565"><ele>0.0</ele><time>2026-05-01T08:35:53.752Z</time></trkpt><trkpt lat="44.5696883" lon="11.8898067"><ele>0.0</ele><time>2026-05-01T08:35:54.749Z</time></trkpt><trkpt lat="44.5695783" lon="11.8900533"><ele>0.0</ele><time>2026-05-01T08:35:55.756Z</time></trkpt><trkpt lat="44.5694683" lon="11.8903"><ele>0.0</ele><time>2026-05-01T08:35:56.749Z</time></trkpt><trkpt lat="44.569355" lon="11.8905533"><ele>0.3333333333333333</ele><time>2026-05-01T08:35:57.751Z</time></trkpt><trkpt lat="44.5692367" lon="11.8908183"><ele>0.6666666666666666</ele><time>2026-05-01T08:35:58.745Z</time></trkpt><trkpt lat="44.5691167" lon="11.8910883"><ele>1.0</ele><time>2026-05-01T08:35:59.751Z</time></trkpt><trkpt lat="44.5689933" lon="11.8913683"><ele>1.5</ele><time>2026-05-01T08:36:00.75Z</time></trkpt><trkpt lat="44.5688667" lon="11.891665"><ele>2.0</ele><time>2026-05-01T08:36:01.75Z</time></trkpt><trkpt lat="44.5687383" lon="11.8919717"><ele>2.0</ele><time>2026-05-01T08:36:02.742Z</time></trkpt><trkpt lat="44.5686" lon="11.8922767"><ele>2.0</ele><time>2026-05-01T08:36:03.754Z</time></trkpt><trkpt lat="44.56846" lon="11.8925867"><ele>2.0</ele><time>2026-05-01T08:36:04.752Z</time></trkpt><trkpt lat="44.568315" lon="11.8929"><ele>2.0</ele><time>2026-05-01T08:36:05.746Z</time></trkpt><trkpt lat="44.5681683" lon="11.8932133"><ele>2.0</ele><time>2026-05-01T08:36:06.75Z</time></trkpt><trkpt lat="44.56802" lon="11.893535"><ele>2.0</ele><time>2026-05-01T08:36:07.751Z</time></trkpt><trkpt lat="44.567875" lon="11.8938467"><ele>2.5</ele><time>2026-05-01T08:36:08.753Z</time></trkpt><trkpt lat="44.567735" lon="11.89416"><ele>3.0</ele><time>2026-05-01T08:36:09.75Z</time></trkpt><trkpt lat="44.567595" lon="11.8944617"><ele>3.0</ele><time>2026-05-01T08:36:10.745Z</time></trkpt><trkpt lat="44.56746" lon="11.8947583"><ele>3.0</ele><time>2026-05-01T08:36:11.75Z</time></trkpt><trkpt lat="44.567325" lon="11.89505"><ele>2.5</ele><time>2026-05-01T08:36:12.752Z</time></trkpt><trkpt lat="44.5671933" lon="11.89534"><ele>2.0</ele><time>2026-05-01T08:36:13.744Z</time></trkpt><trkpt lat="44.5670617" lon="11.8956317"><ele>1.5</ele><time>2026-05-01T08:36:14.751Z</time></trkpt><trkpt lat="44.5669317" lon="11.8959267"><ele>1.0</ele><time>2026-05-01T08:36:15.749Z</time></trkpt><trkpt lat="44.5667983" lon="11.8962233"><ele>1.0</ele><time>2026-05-01T08:36:16.75Z</time></trkpt><trkpt lat="44.566665" lon="11.8965233"><ele>1.0</ele><time>2026-05-01T08:36:17.753Z</time></trkpt><trkpt lat="44.56653" lon="11.8968233"><ele>0.5</ele><time>2026-05-01T08:36:18.745Z</time></trkpt><trkpt lat="44.5663967" lon="11.89713"><ele>0.0</ele><time>2026-05-01T08:36:19.751Z</time></trkpt><trkpt lat="44.5662617" lon="11.897435"><ele>1.0</ele><time>2026-05-01T08:36:20.752Z</time></trkpt><trkpt lat="44.566125" lon="11.8977367"><ele>2.0</ele><time>2026-05-01T08:36:21.749Z</time></trkpt><trkpt lat="44.5659867" lon="11.8980433"><ele>2.0</ele><time>2026-05-01T08:36:22.752Z</time></trkpt><trkpt lat="44.56585" lon="11.8983517"><ele>2.0</ele><time>2026-05-01T08:36:23.744Z</time></trkpt><trkpt lat="44.5657167" lon="11.8986567"><ele>1.0</ele><time>2026-05-01T08:36:24.742Z</time></trkpt><trkpt lat="44.5655817" lon="11.8989633"><ele>0.0</ele><time>2026-05-01T08:36:25.751Z</time></trkpt><trkpt lat="44.5654467" lon="11.8992717"><ele>0.5</ele><time>2026-05-01T08:36:26.752Z</time></trkpt><trkpt lat="44.56531" lon="11.8995783"><ele>1.0</ele><time>2026-05-01T08:36:27.753Z</time></trkpt><trkpt lat="44.5651733" lon="11.899885"><ele>0.0</ele><time>2026-05-01T08:36:28.751Z</time></trkpt><trkpt lat="44.5650367" lon="11.9001933"><ele>-1.0</ele><time>2026-05-01T08:36:29.749Z</time></trkpt><trkpt lat="44.5649033" lon="11.9005"><ele>-1.0</ele><time>2026-05-01T08:36:30.75Z</time></trkpt><trkpt lat="44.56477" lon="11.9008033"><ele>-1.0</ele><time>2026-05-01T08:36:31.755Z</time></trkpt><trkpt lat="44.5646367" lon="11.9011083"><ele>0.0</ele><time>2026-05-01T08:36:32.754Z</time></trkpt><trkpt lat="44.5645033" lon="11.9014117"><ele>1.0</ele><time>2026-05-01T08:36:33.752Z</time></trkpt><trkpt lat="44.56437" lon="11.9017117"><ele>0.5</ele><time>2026-05-01T08:36:34.758Z</time></trkpt><trkpt lat="44.5642367" lon="11.9020117"><ele>0.0</ele><time>2026-05-01T08:36:35.744Z</time></trkpt><trkpt lat="44.5641067" lon="11.9023117"><ele>0.0</ele><time>2026-05-01T08:36:36.76Z</time></trkpt><trkpt lat="44.563975" lon="11.9026083"><ele>0.0</ele><time>2026-05-01T08:36:37.753Z</time></trkpt><trkpt lat="44.5638433" lon="11.902905"><ele>0.0</ele><time>2026-05-01T08:36:38.742Z</time></trkpt><trkpt lat="44.5637117" lon="11.9032033"><ele>0.0</ele><time>2026-05-01T08:36:39.751Z</time></trkpt><trkpt lat="44.56358" lon="11.9034983"><ele>0.0</ele><time>2026-05-01T08:36:40.751Z</time></trkpt><trkpt lat="44.5634483" lon="11.9037933"><ele>0.0</ele><time>2026-05-01T08:36:41.742Z</time></trkpt><trkpt lat="44.5633183" lon="11.90409"><ele>0.0</ele><time>2026-05-01T08:36:42.745Z</time></trkpt><trkpt lat="44.5631883" lon="11.9043833"><ele>0.0</ele><time>2026-05-01T08:36:43.752Z</time></trkpt><trkpt lat="44.5630583" lon="11.9046767"><ele>0.0</ele><time>2026-05-01T08:36:44.751Z</time></trkpt><trkpt lat="44.5629283" lon="11.90497"><ele>0.0</ele><time>2026-05-01T08:36:45.742Z</time></trkpt><trkpt lat="44.5628" lon="11.905265"><ele>1.5</ele><time>2026-05-01T08:36:46.749Z</time></trkpt><trkpt lat="44.5626733" lon="11.9055617"><ele>3.0</ele><time>2026-05-01T08:36:47.754Z</time></trkpt><trkpt lat="44.5625433" lon="11.9058583"><ele>1.5</ele><time>2026-05-01T08:36:48.758Z</time></trkpt><trkpt lat="44.5624133" lon="11.9061517"><ele>0.0</ele><time>2026-05-01T08:36:49.75Z</time></trkpt><trkpt lat="44.5622833" lon="11.906445"><ele>0.0</ele><time>2026-05-01T08:36:50.749Z</time></trkpt><trkpt lat="44.562155" lon="11.9067383"><ele>0.0</ele><time>2026-05-01T08:36:51.743Z</time></trkpt><trkpt lat="44.5620283" lon="11.90703"><ele>0.0</ele><time>2026-05-01T08:36:52.748Z</time></trkpt><trkpt lat="44.5619033" lon="11.907315"><ele>0.0</ele><time>2026-05-01T08:36:53.744Z</time></trkpt><trkpt lat="44.5617767" lon="11.9075983"><ele>0.5</ele><time>2026-05-01T08:36:54.743Z</time></trkpt><trkpt lat="44.561655" lon="11.907885"><ele>1.0</ele><time>2026-05-01T08:36:55.744Z</time></trkpt><trkpt lat="44.561535" lon="11.908175"><ele>0.0</ele><time>2026-05-01T08:36:56.757Z</time></trkpt><trkpt lat="44.561425" lon="11.9084717"><ele>-1.0</ele><time>2026-05-01T08:36:57.744Z</time></trkpt><trkpt lat="44.5613217" lon="11.9087733"><ele>-1.0</ele><time>2026-05-01T08:36:58.744Z</time></trkpt><trkpt lat="44.561225" lon="11.90908"><ele>-1.0</ele><time>2026-05-01T08:36:59.744Z</time></trkpt><trkpt lat="44.5611283" lon="11.9093867"><ele>0.5</ele><time>2026-05-01T08:37:00.751Z</time></trkpt><trkpt lat="44.561035" lon="11.9097017"><ele>2.0</ele><time>2026-05-01T08:37:01.752Z</time></trkpt><trkpt lat="44.560945" lon="11.9100167"><ele>2.5</ele><time>2026-05-01T08:37:02.75Z</time></trkpt><trkpt lat="44.560855" lon="11.9103333"><ele>3.0</ele><time>2026-05-01T08:37:03.752Z</time></trkpt><trkpt lat="44.5607667" lon="11.9106467"><ele>2.0</ele><time>2026-05-01T08:37:04.748Z</time></trkpt><trkpt lat="44.5606767" lon="11.9109567"><ele>1.0</ele><time>2026-05-01T08:37:05.755Z</time></trkpt><trkpt lat="44.5605883" lon="11.9112717"><ele>1.0</ele><time>2026-05-01T08:37:06.751Z</time></trkpt><trkpt lat="44.5604983" lon="11.911585"><ele>1.0</ele><time>2026-05-01T08:37:07.75Z</time></trkpt><trkpt lat="44.5604083" lon="11.9119033"><ele>0.0</ele><time>2026-05-01T08:37:08.742Z</time></trkpt><trkpt lat="44.5603217" lon="11.9122167"><ele>-1.0</ele><time>2026-05-01T08:37:09.751Z</time></trkpt><trkpt lat="44.5602283" lon="11.9125317"><ele>0.0</ele><time>2026-05-01T08:37:10.751Z</time></trkpt><trkpt lat="44.5601383" lon="11.9128467"><ele>1.0</ele><time>2026-05-01T08:37:11.752Z</time></trkpt><trkpt lat="44.560045" lon="11.9131633"><ele>1.5</ele><time>2026-05-01T08:37:12.748Z</time></trkpt><trkpt lat="44.5599567" lon="11.9134833"><ele>2.0</ele><time>2026-05-01T08:37:13.748Z</time></trkpt><trkpt lat="44.559865" lon="11.9138"><ele>2.0</ele><time>2026-05-01T08:37:14.751Z</time></trkpt><trkpt lat="44.55977" lon="11.914115"><ele>2.0</ele><time>2026-05-01T08:37:15.751Z</time></trkpt><trkpt lat="44.559675" lon="11.91443"><ele>2.0</ele><time>2026-05-01T08:37:16.751Z</time></trkpt><trkpt lat="44.5595833" lon="11.91475"><ele>2.0</ele><time>2026-05-01T08:37:17.751Z</time></trkpt><trkpt lat="44.55949" lon="11.9150683"><ele>1.5</ele><time>2026-05-01T08:37:18.75Z</time></trkpt><trkpt lat="44.5593967" lon="11.9153867"><ele>1.0</ele><time>2026-05-01T08:37:19.751Z</time></trkpt><trkpt lat="44.559305" lon="11.9157067"><ele>1.5</ele><time>2026-05-01T08:37:20.753Z</time></trkpt><trkpt lat="44.559215" lon="11.9160267"><ele>2.0</ele><time>2026-05-01T08:37:21.75Z</time></trkpt><trkpt lat="44.5591333" lon="11.91635"><ele>2.0</ele><time>2026-05-01T08:37:22.75Z</time></trkpt><trkpt lat="44.5590567" lon="11.916675"><ele>2.0</ele><time>2026-05-01T08:37:23.745Z</time></trkpt><trkpt lat="44.5589817" lon="11.9169983"><ele>1.5</ele><time>2026-05-01T08:37:24.754Z</time></trkpt><trkpt lat="44.5589067" lon="11.9173233"><ele>1.0</ele><time>2026-05-01T08:37:25.752Z</time></trkpt><trkpt lat="44.5588317" lon="11.9176433"><ele>1.0</ele><time>2026-05-01T08:37:26.756Z</time></trkpt><trkpt lat="44.558755" lon="11.917965"><ele>1.0</ele><time>2026-05-01T08:37:27.744Z</time></trkpt><trkpt lat="44.55868" lon="11.9182883"><ele>1.0</ele><time>2026-05-01T08:37:28.755Z</time></trkpt><trkpt lat="44.5586067" lon="11.9186083"><ele>1.0</ele><time>2026-05-01T08:37:29.745Z</time></trkpt><trkpt lat="44.5585317" lon="11.9189283"><ele>1.0</ele><time>2026-05-01T08:37:30.753Z</time></trkpt><trkpt lat="44.5584567" lon="11.9192483"><ele>1.0</ele><time>2026-05-01T08:37:31.752Z</time></trkpt><trkpt lat="44.5583833" lon="11.9195683"><ele>1.0</ele><time>2026-05-01T08:37:32.749Z</time></trkpt><trkpt lat="44.5583117" lon="11.919885"><ele>1.0</ele><time>2026-05-01T08:37:33.745Z</time></trkpt><trkpt lat="44.55824" lon="11.920205"><ele>1.0</ele><time>2026-05-01T08:37:34.75Z</time></trkpt><trkpt lat="44.5581667" lon="11.9205183"><ele>1.0</ele><time>2026-05-01T08:37:35.751Z</time></trkpt><trkpt lat="44.5580967" lon="11.920835"><ele>1.0</ele><time>2026-05-01T08:37:36.751Z</time></trkpt><trkpt lat="44.558025" lon="11.921155"><ele>1.0</ele><time>2026-05-01T08:37:37.752Z</time></trkpt><trkpt lat="44.557955" lon="11.9214733"><ele>1.5</ele><time>2026-05-01T08:37:38.752Z</time></trkpt><trkpt lat="44.5578817" lon="11.9217933"><ele>2.0</ele><time>2026-05-01T08:37:39.752Z</time></trkpt><trkpt lat="44.5578083" lon="11.922115"><ele>0.5</ele><time>2026-05-01T08:37:40.744Z</time></trkpt><trkpt lat="44.557735" lon="11.922435"><ele>-1.0</ele><time>2026-05-01T08:37:41.752Z</time></trkpt><trkpt lat="44.5576617" lon="11.9227533"><ele>-1.0</ele><time>2026-05-01T08:37:42.744Z</time></trkpt><trkpt lat="44.557585" lon="11.9230733"><ele>-1.0</ele><time>2026-05-01T08:37:43.752Z</time></trkpt><trkpt lat="44.5575117" lon="11.9233917"><ele>1.0</ele><time>2026-05-01T08:37:44.746Z</time></trkpt><trkpt lat="44.5574383" lon="11.9237133"><ele>3.0</ele><time>2026-05-01T08:37:45.746Z</time></trkpt><trkpt lat="44.557365" lon="11.9240283"><ele>3.5</ele><time>2026-05-01T08:37:46.758Z</time></trkpt><trkpt lat="44.5572933" lon="11.9243433"><ele>4.0</ele><time>2026-05-01T08:37:47.744Z</time></trkpt><trkpt lat="44.5572217" lon="11.9246583"><ele>4.0</ele><time>2026-05-01T08:37:48.745Z</time></trkpt><trkpt lat="44.55715" lon="11.92497"><ele>4.0</ele><time>2026-05-01T08:37:49.753Z</time></trkpt><trkpt lat="44.5570783" lon="11.9252817"><ele>3.0</ele><time>2026-05-01T08:37:50.744Z</time></trkpt><trkpt lat="44.5570067" lon="11.9255967"><ele>2.0</ele><time>2026-05-01T08:37:51.748Z</time></trkpt><trkpt lat="44.5569367" lon="11.925905"><ele>2.0</ele><time>2026-05-01T08:37:52.742Z</time></trkpt><trkpt lat="44.5568667" lon="11.926215"><ele>2.0</ele><time>2026-05-01T08:37:53.755Z</time></trkpt><trkpt lat="44.556795" lon="11.926525"><ele>1.5</ele><time>2026-05-01T08:37:54.744Z</time></trkpt><trkpt lat="44.5567233" lon="11.9268333"><ele>1.0</ele><time>2026-05-01T08:37:55.752Z</time></trkpt><trkpt lat="44.5566567" lon="11.9271383"><ele>1.0</ele><time>2026-05-01T08:37:56.744Z</time></trkpt><trkpt lat="44.5565867" lon="11.9274417"><ele>1.0</ele><time>2026-05-01T08:37:57.743Z</time></trkpt><trkpt lat="44.5565167" lon="11.9277433"><ele>1.3333333333333333</ele><time>2026-05-01T08:37:58.753Z</time></trkpt><trkpt lat="44.556445" lon="11.9280417"><ele>1.6666666666666665</ele><time>2026-05-01T08:37:59.753Z</time></trkpt><trkpt lat="44.556375" lon="11.92834"><ele>2.0</ele><time>2026-05-01T08:38:00.753Z</time></trkpt><trkpt lat="44.556305" lon="11.928635"><ele>2.0</ele><time>2026-05-01T08:38:01.755Z</time></trkpt><trkpt lat="44.5562383" lon="11.928925"><ele>2.0</ele><time>2026-05-01T08:38:02.751Z</time></trkpt><trkpt lat="44.5561717" lon="11.92921"><ele>2.0</ele><time>2026-05-01T08:38:03.756Z</time></trkpt><trkpt lat="44.556105" lon="11.92949"><ele>2.0</ele><time>2026-05-01T08:38:04.749Z</time></trkpt><trkpt lat="44.5560417" lon="11.9297683"><ele>2.0</ele><time>2026-05-01T08:38:05.753Z</time></trkpt><trkpt lat="44.5559833" lon="11.9300483"><ele>2.0</ele><time>2026-05-01T08:38:06.752Z</time></trkpt><trkpt lat="44.5559183" lon="11.9303217"><ele>2.0</ele><time>2026-05-01T08:38:07.753Z</time></trkpt><trkpt lat="44.5558533" lon="11.9305967"><ele>2.0</ele><time>2026-05-01T08:38:08.754Z</time></trkpt><trkpt lat="44.5557867" lon="11.9308717"><ele>2.0</ele><time>2026-05-01T08:38:09.757Z</time></trkpt><trkpt lat="44.5557183" lon="11.93114"><ele>2.333333333333333</ele><time>2026-05-01T08:38:10.752Z</time></trkpt><trkpt lat="44.5556517" lon="11.9314083"><ele>2.6666666666666665</ele><time>2026-05-01T08:38:11.752Z</time></trkpt><trkpt lat="44.555585" lon="11.93168"><ele>3.0</ele><time>2026-05-01T08:38:12.746Z</time></trkpt><trkpt lat="44.5555167" lon="11.9319533"><ele>3.333333333333333</ele><time>2026-05-01T08:38:13.753Z</time></trkpt><trkpt lat="44.5554467" lon="11.932225"><ele>3.6666666666666665</ele><time>2026-05-01T08:38:14.755Z</time></trkpt><trkpt lat="44.5553767" lon="11.9324917"><ele>4.0</ele><time>2026-05-01T08:38:15.744Z</time></trkpt><trkpt lat="44.55531" lon="11.9327533"><ele>4.0</ele><time>2026-05-01T08:38:16.751Z</time></trkpt><trkpt lat="44.555245" lon="11.9329967"><ele>4.0</ele><time>2026-05-01T08:38:17.753Z</time></trkpt><trkpt lat="44.555185" lon="11.9332367"><ele>4.0</ele><time>2026-05-01T08:38:18.752Z</time></trkpt><trkpt lat="44.5551267" lon="11.93347"><ele>4.333333333333333</ele><time>2026-05-01T08:38:19.75Z</time></trkpt><trkpt lat="44.555065" lon="11.933695"><ele>4.666666666666667</ele><time>2026-05-01T08:38:20.752Z</time></trkpt><trkpt lat="44.555" lon="11.9339033"><ele>5.0</ele><time>2026-05-01T08:38:21.743Z</time></trkpt><trkpt lat="44.5549267" lon="11.9340783"><ele>5.0</ele><time>2026-05-01T08:38:22.751Z</time></trkpt><trkpt lat="44.5548333" lon="11.9342233"><ele>5.0</ele><time>2026-05-01T08:38:23.746Z</time></trkpt><trkpt lat="44.554725" lon="11.9343517"><ele>5.0</ele><time>2026-05-01T08:38:24.742Z</time></trkpt><trkpt lat="44.554605" lon="11.9344667"><ele>5.0</ele><time>2026-05-01T08:38:25.746Z</time></trkpt><trkpt lat="44.5544783" lon="11.9345817"><ele>4.666666666666667</ele><time>2026-05-01T08:38:26.746Z</time></trkpt><trkpt lat="44.5543517" lon="11.9347067"><ele>4.333333333333333</ele><time>2026-05-01T08:38:27.745Z</time></trkpt><trkpt lat="44.5542217" lon="11.9348333"><ele>4.0</ele><time>2026-05-01T08:38:28.746Z</time></trkpt><trkpt lat="44.5540983" lon="11.9349517"><ele>4.5</ele><time>2026-05-01T08:38:29.743Z</time></trkpt><trkpt lat="44.5539767" lon="11.93506"><ele>5.0</ele><time>2026-05-01T08:38:30.743Z</time></trkpt><trkpt lat="44.5538667" lon="11.9351617"><ele>5.5</ele><time>2026-05-01T08:38:31.743Z</time></trkpt><trkpt lat="44.553775" lon="11.9352783"><ele>6.0</ele><time>2026-05-01T08:38:32.747Z</time></trkpt><trkpt lat="44.5536967" lon="11.9354083"><ele>6.0</ele><time>2026-05-01T08:38:33.742Z</time></trkpt><trkpt lat="44.553655" lon="11.9355633"><ele>6.0</ele><time>2026-05-01T08:38:34.743Z</time></trkpt><trkpt lat="44.553645" lon="11.9357333"><ele>6.0</ele><time>2026-05-01T08:38:35.746Z</time></trkpt><trkpt lat="44.5536517" lon="11.9359117"><ele>6.0</ele><time>2026-05-01T08:38:36.742Z</time></trkpt><trkpt lat="44.5536817" lon="11.93611"><ele>6.0</ele><time>2026-05-01T08:38:37.748Z</time></trkpt><trkpt lat="44.5537183" lon="11.9363217"><ele>6.0</ele><time>2026-05-01T08:38:38.742Z</time></trkpt><trkpt lat="44.5537583" lon="11.9365517"><ele>6.0</ele><time>2026-05-01T08:38:39.744Z</time></trkpt><trkpt lat="44.5538017" lon="11.9367917"><ele>5.666666666666667</ele><time>2026-05-01T08:38:40.743Z</time></trkpt><trkpt lat="44.5538467" lon="11.93704"><ele>5.333333333333334</ele><time>2026-05-01T08:38:41.754Z</time></trkpt><trkpt lat="44.5538967" lon="11.9372867"><ele>5.0</ele><time>2026-05-01T08:38:42.747Z</time></trkpt><trkpt lat="44.553945" lon="11.937525"><ele>4.333333333333334</ele><time>2026-05-01T08:38:43.743Z</time></trkpt><trkpt lat="44.553985" lon="11.9377517"><ele>3.666666666666667</ele><time>2026-05-01T08:38:44.748Z</time></trkpt><trkpt lat="44.5540117" lon="11.93798"><ele>3.0</ele><time>2026-05-01T08:38:45.75Z</time></trkpt><trkpt lat="44.5540217" lon="11.9382133"><ele>2.0</ele><time>2026-05-01T08:38:46.752Z</time></trkpt><trkpt lat="44.5540133" lon="11.9384533"><ele>1.0</ele><time>2026-05-01T08:38:47.751Z</time></trkpt><trkpt lat="44.553975" lon="11.938695"><ele>0.0</ele><time>2026-05-01T08:38:48.742Z</time></trkpt><trkpt lat="44.5539217" lon="11.9389417"><ele>0.0</ele><time>2026-05-01T08:38:49.748Z</time></trkpt><trkpt lat="44.5538667" lon="11.9391917"><ele>0.0</ele><time>2026-05-01T08:38:50.755Z</time></trkpt><trkpt lat="44.553815" lon="11.93943"><ele>0.0</ele><time>2026-05-01T08:38:51.751Z</time></trkpt><trkpt lat="44.5537617" lon="11.9396617"><ele>0.0</ele><time>2026-05-01T08:38:52.752Z</time></trkpt><trkpt lat="44.55371" lon="11.93989"><ele>0.0</ele><time>2026-05-01T08:38:53.751Z</time></trkpt><trkpt lat="44.553655" lon="11.9401133"><ele>0.0</ele><time>2026-05-01T08:38:54.749Z</time></trkpt><trkpt lat="44.5536017" lon="11.9403367"><ele>0.3333333333333333</ele><time>2026-05-01T08:38:55.75Z</time></trkpt><trkpt lat="44.5535483" lon="11.9405633"><ele>0.6666666666666666</ele><time>2026-05-01T08:38:56.755Z</time></trkpt><trkpt lat="44.553495" lon="11.9407883"><ele>1.0</ele><time>2026-05-01T08:38:57.748Z</time></trkpt><trkpt lat="44.5534433" lon="11.9410117"><ele>1.3333333333333333</ele><time>2026-05-01T08:38:58.752Z</time></trkpt><trkpt lat="44.55339" lon="11.9412333"><ele>1.6666666666666665</ele><time>2026-05-01T08:38:59.751Z</time></trkpt><trkpt lat="44.5533383" lon="11.9414533"><ele>2.0</ele><time>2026-05-01T08:39:00.743Z</time></trkpt><trkpt lat="44.553285" lon="11.941675"><ele>1.6666666666666665</ele><time>2026-05-01T08:39:01.743Z</time></trkpt><trkpt lat="44.553235" lon="11.9418967"><ele>1.3333333333333333</ele><time>2026-05-01T08:39:02.743Z</time></trkpt><trkpt lat="44.553185" lon="11.94212"><ele>1.0</ele><time>2026-05-01T08:39:03.744Z</time></trkpt><trkpt lat="44.5531333" lon="11.9423417"><ele>1.25</ele><time>2026-05-01T08:39:04.75Z</time></trkpt><trkpt lat="44.553085" lon="11.9425517"><ele>1.5</ele><time>2026-05-01T08:39:05.75Z</time></trkpt><trkpt lat="44.553045" lon="11.9427467"><ele>1.75</ele><time>2026-05-01T08:39:06.745Z</time></trkpt><trkpt lat="44.553005" lon="11.9429317"><ele>2.0</ele><time>2026-05-01T08:39:07.753Z</time></trkpt><trkpt lat="44.552965" lon="11.9431083"><ele>2.0</ele><time>2026-05-01T08:39:08.751Z</time></trkpt><trkpt lat="44.552925" lon="11.94328"><ele>2.0</ele><time>2026-05-01T08:39:09.76Z</time></trkpt><trkpt lat="44.5528833" lon="11.9434467"><ele>2.0</ele><time>2026-05-01T08:39:10.742Z</time></trkpt><trkpt lat="44.5528433" lon="11.9436117"><ele>2.0</ele><time>2026-05-01T08:39:11.75Z</time></trkpt><trkpt lat="44.5528033" lon="11.9437833"><ele>2.25</ele><time>2026-05-01T08:39:12.751Z</time></trkpt><trkpt lat="44.5527617" lon="11.9439583"><ele>2.5</ele><time>2026-05-01T08:39:13.75Z</time></trkpt><trkpt lat="44.55272" lon="11.9441367"><ele>2.75</ele><time>2026-05-01T08:39:14.751Z</time></trkpt><trkpt lat="44.5526767" lon="11.9443233"><ele>3.0</ele><time>2026-05-01T08:39:15.752Z</time></trkpt><trkpt lat="44.5526317" lon="11.944515"><ele>3.333333333333333</ele><time>2026-05-01T08:39:16.744Z</time></trkpt><trkpt lat="44.552585" lon="11.9447183"><ele>3.6666666666666665</ele><time>2026-05-01T08:39:17.751Z</time></trkpt><trkpt lat="44.5525367" lon="11.944935"><ele>4.0</ele><time>2026-05-01T08:39:18.751Z</time></trkpt><trkpt lat="44.5524833" lon="11.945155"><ele>3.333333333333333</ele><time>2026-05-01T08:39:19.747Z</time></trkpt><trkpt lat="44.55243" lon="11.94538"><ele>2.6666666666666665</ele><time>2026-05-01T08:39:20.751Z</time></trkpt><trkpt lat="44.5523733" lon="11.94561"><ele>2.0</ele><time>2026-05-01T08:39:21.751Z</time></trkpt><trkpt lat="44.5523167" lon="11.945845"><ele>2.0</ele><time>2026-05-01T08:39:22.743Z</time></trkpt><trkpt lat="44.5522567" lon="11.946085"><ele>2.0</ele><time>2026-05-01T08:39:23.759Z</time></trkpt><trkpt lat="44.5521933" lon="11.9463317"><ele>2.0</ele><time>2026-05-01T08:39:24.752Z</time></trkpt><trkpt lat="44.552135" lon="11.946575"><ele>2.0</ele><time>2026-05-01T08:39:25.753Z</time></trkpt><trkpt lat="44.552075" lon="11.9468317"><ele>2.0</ele><time>2026-05-01T08:39:26.751Z</time></trkpt><trkpt lat="44.552015" lon="11.9470883"><ele>2.0</ele><time>2026-05-01T08:39:27.749Z</time></trkpt><trkpt lat="44.5519533" lon="11.9473467"><ele>2.0</ele><time>2026-05-01T08:39:28.75Z</time></trkpt><trkpt lat="44.5518917" lon="11.9476067"><ele>2.0</ele><time>2026-05-01T08:39:29.754Z</time></trkpt><trkpt lat="44.55183" lon="11.9478717"><ele>2.0</ele><time>2026-05-01T08:39:30.761Z</time></trkpt><trkpt lat="44.5517667" lon="11.9481383"><ele>1.6666666666666665</ele><time>2026-05-01T08:39:31.754Z</time></trkpt><trkpt lat="44.5517017" lon="11.948405"><ele>1.3333333333333333</ele><time>2026-05-01T08:39:32.745Z</time></trkpt><trkpt lat="44.5516383" lon="11.9486783"><ele>1.0</ele><time>2026-05-01T08:39:33.745Z</time></trkpt><trkpt lat="44.5515733" lon="11.9489483"><ele>1.3333333333333333</ele><time>2026-05-01T08:39:34.744Z</time></trkpt><trkpt lat="44.5515067" lon="11.949225"><ele>1.6666666666666665</ele><time>2026-05-01T08:39:35.744Z</time></trkpt><trkpt lat="44.55144" lon="11.9495"><ele>2.0</ele><time>2026-05-01T08:39:36.756Z</time></trkpt><trkpt lat="44.5513733" lon="11.9497767"><ele>2.0</ele><time>2026-05-01T08:39:37.745Z</time></trkpt><trkpt lat="44.5513067" lon="11.95005"><ele>2.0</ele><time>2026-05-01T08:39:38.756Z</time></trkpt><trkpt lat="44.5512383" lon="11.950325"><ele>2.0</ele><time>2026-05-01T08:39:39.754Z</time></trkpt><trkpt lat="44.55117" lon="11.9506017"><ele>2.0</ele><time>2026-05-01T08:39:40.75Z</time></trkpt><trkpt lat="44.5511017" lon="11.9508817"><ele>2.0</ele><time>2026-05-01T08:39:41.747Z</time></trkpt><trkpt lat="44.5510317" lon="11.9511583"><ele>2.0</ele><time>2026-05-01T08:39:42.751Z</time></trkpt><trkpt lat="44.55096" lon="11.9514367"><ele>2.333333333333333</ele><time>2026-05-01T08:39:43.757Z</time></trkpt><trkpt lat="44.55089" lon="11.9517167"><ele>2.6666666666666665</ele><time>2026-05-01T08:39:44.749Z</time></trkpt><trkpt lat="44.5508217" lon="11.9519983"><ele>3.0</ele><time>2026-05-01T08:39:45.745Z</time></trkpt><trkpt lat="44.5507527" lon="11.9522808"><ele>2.6666666666666665</ele><time>2026-05-01T08:39:46.746Z</time></trkpt><trkpt lat="44.5506836" lon="11.9525657"><ele>2.333333333333333</ele><time>2026-05-01T08:39:47.748Z</time></trkpt><trkpt lat="44.5506116" lon="11.9528532"><ele>2.0</ele><time>2026-05-01T08:39:48.747Z</time></trkpt><trkpt lat="44.5505383" lon="11.9531424"><ele>2.0</ele><time>2026-05-01T08:39:49.751Z</time></trkpt><trkpt lat="44.5504618" lon="11.9534286"><ele>2.0</ele><time>2026-05-01T08:39:50.752Z</time></trkpt><trkpt lat="44.5503862" lon="11.9537137"><ele>2.0</ele><time>2026-05-01T08:39:51.743Z</time></trkpt><trkpt lat="44.5503127" lon="11.9540031"><ele>2.0</ele><time>2026-05-01T08:39:52.75Z</time></trkpt><trkpt lat="44.5502404" lon="11.9542915"><ele>2.0</ele><time>2026-05-01T08:39:53.751Z</time></trkpt><trkpt lat="44.5501685" lon="11.9545814"><ele>2.0</ele><time>2026-05-01T08:39:54.754Z</time></trkpt><trkpt lat="44.5500982" lon="11.9548712"><ele>2.0</ele><time>2026-05-01T08:39:55.752Z</time></trkpt><trkpt lat="44.5500256" lon="11.9551617"><ele>2.0</ele><time>2026-05-01T08:39:56.753Z</time></trkpt><trkpt lat="44.5499516" lon="11.9554544"><ele>2.0</ele><time>2026-05-01T08:39:57.752Z</time></trkpt><trkpt lat="44.5498781" lon="11.955747"><ele>2.0</ele><time>2026-05-01T08:39:58.742Z</time></trkpt><trkpt lat="44.549802" lon="11.9560432"><ele>2.0</ele><time>2026-05-01T08:39:59.754Z</time></trkpt><trkpt lat="44.5497269" lon="11.9563382"><ele>2.0</ele><time>2026-05-01T08:40:00.753Z</time></trkpt><trkpt lat="44.5496535" lon="11.9566355"><ele>2.0</ele><time>2026-05-01T08:40:01.753Z</time></trkpt><trkpt lat="44.54958" lon="11.9569342"><ele>2.0</ele><time>2026-05-01T08:40:02.754Z</time></trkpt><trkpt lat="44.5495038" lon="11.9572316"><ele>2.0</ele><time>2026-05-01T08:40:03.754Z</time></trkpt><trkpt lat="44.549426" lon="11.9575288"><ele>2.0</ele><time>2026-05-01T08:40:04.748Z</time></trkpt><trkpt lat="44.5493508" lon="11.9578302"><ele>2.0</ele><time>2026-05-01T08:40:05.751Z</time></trkpt><trkpt lat="44.5492759" lon="11.9581306"><ele>2.0</ele><time>2026-05-01T08:40:06.75Z</time></trkpt><trkpt lat="44.5492008" lon="11.9584311"><ele>2.0</ele><time>2026-05-01T08:40:07.75Z</time></trkpt><trkpt lat="44.5491259" lon="11.9587282"><ele>2.0</ele><time>2026-05-01T08:40:08.752Z</time></trkpt><trkpt lat="44.5490554" lon="11.9590136"><ele>2.0</ele><time>2026-05-01T08:40:09.75Z</time></trkpt><trkpt lat="44.5489917" lon="11.9592853"><ele>2.0</ele><time>2026-05-01T08:40:10.752Z</time></trkpt><trkpt lat="44.5489287" lon="11.9595484"><ele>2.0</ele><time>2026-05-01T08:40:11.752Z</time></trkpt><trkpt lat="44.5488641" lon="11.959811"><ele>2.0</ele><time>2026-05-01T08:40:12.743Z</time></trkpt><trkpt lat="44.5487966" lon="11.9600782"><ele>2.0</ele><time>2026-05-01T08:40:13.75Z</time></trkpt><trkpt lat="44.5487312" lon="11.9603501"><ele>2.0</ele><time>2026-05-01T08:40:14.753Z</time></trkpt><trkpt lat="44.5486667" lon="11.96063"><ele>2.0</ele><time>2026-05-01T08:40:15.746Z</time></trkpt><trkpt lat="44.5486" lon="11.96091"><ele>2.0</ele><time>2026-05-01T08:40:16.749Z</time></trkpt><trkpt lat="44.5485317" lon="11.96119"><ele>2.0</ele><time>2026-05-01T08:40:17.75Z</time></trkpt><trkpt lat="44.548465" lon="11.9614733"><ele>2.0</ele><time>2026-05-01T08:40:18.743Z</time></trkpt><trkpt lat="44.5483967" lon="11.9617617"><ele>2.0</ele><time>2026-05-01T08:40:19.744Z</time></trkpt><trkpt lat="44.54833" lon="11.962045"><ele>2.0</ele><time>2026-05-01T08:40:20.752Z</time></trkpt><trkpt lat="44.548265" lon="11.96233"><ele>2.0</ele><time>2026-05-01T08:40:21.755Z</time></trkpt><trkpt lat="44.5481983" lon="11.9626133"><ele>2.0</ele><time>2026-05-01T08:40:22.75Z</time></trkpt><trkpt lat="44.54813" lon="11.9629"><ele>2.0</ele><time>2026-05-01T08:40:23.751Z</time></trkpt><trkpt lat="44.5480617" lon="11.9631833"><ele>2.0</ele><time>2026-05-01T08:40:24.754Z</time></trkpt><trkpt lat="44.5479933" lon="11.9634717"><ele>2.0</ele><time>2026-05-01T08:40:25.752Z</time></trkpt><trkpt lat="44.5479233" lon="11.9637583"><ele>2.0</ele><time>2026-05-01T08:40:26.754Z</time></trkpt><trkpt lat="44.547855" lon="11.964045"><ele>2.0</ele><time>2026-05-01T08:40:27.753Z</time></trkpt><trkpt lat="44.5477867" lon="11.9643317"><ele>2.0</ele><time>2026-05-01T08:40:28.747Z</time></trkpt><trkpt lat="44.5477183" lon="11.9646183"><ele>2.0</ele><time>2026-05-01T08:40:29.751Z</time></trkpt><trkpt lat="44.54765" lon="11.964905"><ele>2.0</ele><time>2026-05-01T08:40:30.752Z</time></trkpt><trkpt lat="44.54758" lon="11.965195"><ele>2.333333333333333</ele><time>2026-05-01T08:40:31.752Z</time></trkpt><trkpt lat="44.54751" lon="11.965485"><ele>2.6666666666666665</ele><time>2026-05-01T08:40:32.756Z</time></trkpt><trkpt lat="44.54744" lon="11.965775"><ele>3.0</ele><time>2026-05-01T08:40:33.752Z</time></trkpt><trkpt lat="44.5473683" lon="11.9660633"><ele>3.0</ele><time>2026-05-01T08:40:34.751Z</time></trkpt><trkpt lat="44.5472967" lon="11.9663533"><ele>3.0</ele><time>2026-05-01T08:40:35.743Z</time></trkpt><trkpt lat="44.5472267" lon="11.96664"><ele>3.0</ele><time>2026-05-01T08:40:36.748Z</time></trkpt><trkpt lat="44.5471583" lon="11.9669267"><ele>2.6666666666666665</ele><time>2026-05-01T08:40:37.754Z</time></trkpt><trkpt lat="44.54709" lon="11.967215"><ele>2.333333333333333</ele><time>2026-05-01T08:40:38.752Z</time></trkpt><trkpt lat="44.5470233" lon="11.9675017"><ele>2.0</ele><time>2026-05-01T08:40:39.752Z</time></trkpt><trkpt lat="44.5469567" lon="11.9677867"><ele>2.0</ele><time>2026-05-01T08:40:40.751Z</time></trkpt><trkpt lat="44.5468867" lon="11.96807"><ele>2.0</ele><time>2026-05-01T08:40:41.756Z</time></trkpt><trkpt lat="44.5468183" lon="11.96835"><ele>2.0</ele><time>2026-05-01T08:40:42.746Z</time></trkpt><trkpt lat="44.54675" lon="11.9686267"><ele>1.6666666666666665</ele><time>2026-05-01T08:40:43.753Z</time></trkpt><trkpt lat="44.5466817" lon="11.9689067"><ele>1.3333333333333333</ele><time>2026-05-01T08:40:44.751Z</time></trkpt><trkpt lat="44.546615" lon="11.9691883"><ele>1.0</ele><time>2026-05-01T08:40:45.746Z</time></trkpt><trkpt lat="44.5465417" lon="11.96946"><ele>1.0</ele><time>2026-05-01T08:40:46.749Z</time></trkpt><trkpt lat="44.5464783" lon="11.9697367"><ele>1.0</ele><time>2026-05-01T08:40:47.751Z</time></trkpt><trkpt lat="44.546415" lon="11.9700083"><ele>1.0</ele><time>2026-05-01T08:40:48.75Z</time></trkpt><trkpt lat="44.5463533" lon="11.9702783"><ele>1.3333333333333333</ele><time>2026-05-01T08:40:49.75Z</time></trkpt><trkpt lat="44.5462883" lon="11.9705533"><ele>1.6666666666666665</ele><time>2026-05-01T08:40:50.743Z</time></trkpt><trkpt lat="44.5462233" lon="11.970825"><ele>2.0</ele><time>2026-05-01T08:40:51.748Z</time></trkpt><trkpt lat="44.5461583" lon="11.9710967"><ele>2.333333333333333</ele><time>2026-05-01T08:40:52.75Z</time></trkpt><trkpt lat="44.5460933" lon="11.97137"><ele>2.6666666666666665</ele><time>2026-05-01T08:40:53.75Z</time></trkpt><trkpt lat="44.5460283" lon="11.9716433"><ele>3.0</ele><time>2026-05-01T08:40:54.752Z</time></trkpt><trkpt lat="44.545955" lon="11.9719183"><ele>3.0</ele><time>2026-05-01T08:40:55.751Z</time></trkpt><trkpt lat="44.5458867" lon="11.9721967"><ele>3.0</ele><time>2026-05-01T08:40:56.754Z</time></trkpt><trkpt lat="44.54582" lon="11.972485"><ele>3.0</ele><time>2026-05-01T08:40:57.754Z</time></trkpt><trkpt lat="44.5457533" lon="11.9727883"><ele>3.0</ele><time>2026-05-01T08:40:58.751Z</time></trkpt><trkpt lat="44.5456833" lon="11.9730983"><ele>3.0</ele><time>2026-05-01T08:40:59.742Z</time></trkpt><trkpt lat="44.5456117" lon="11.9734133"><ele>3.5</ele><time>2026-05-01T08:41:00.757Z</time></trkpt><trkpt lat="44.5455333" lon="11.97373"><ele>4.0</ele><time>2026-05-01T08:41:01.75Z</time></trkpt><trkpt lat="44.545455" lon="11.9740467"><ele>3.0</ele><time>2026-05-01T08:41:02.75Z</time></trkpt><trkpt lat="44.5453767" lon="11.9743633"><ele>2.0</ele><time>2026-05-01T08:41:03.743Z</time></trkpt><trkpt lat="44.5453017" lon="11.9746817"><ele>2.0</ele><time>2026-05-01T08:41:04.75Z</time></trkpt><trkpt lat="44.5452283" lon="11.9750033"><ele>2.0</ele><time>2026-05-01T08:41:05.752Z</time></trkpt><trkpt lat="44.5451517" lon="11.975325"><ele>2.5</ele><time>2026-05-01T08:41:06.744Z</time></trkpt><trkpt lat="44.545075" lon="11.9756433"><ele>3.0</ele><time>2026-05-01T08:41:07.745Z</time></trkpt><trkpt lat="44.5449967" lon="11.9759633"><ele>3.5</ele><time>2026-05-01T08:41:08.755Z</time></trkpt><trkpt lat="44.544915" lon="11.9762833"><ele>4.0</ele><time>2026-05-01T08:41:09.752Z</time></trkpt><trkpt lat="44.544835" lon="11.9766"><ele>4.0</ele><time>2026-05-01T08:41:10.754Z</time></trkpt><trkpt lat="44.5447583" lon="11.9769167"><ele>4.0</ele><time>2026-05-01T08:41:11.752Z</time></trkpt><trkpt lat="44.5446817" lon="11.9772267"><ele>3.0</ele><time>2026-05-01T08:41:12.753Z</time></trkpt><trkpt lat="44.544605" lon="11.977535"><ele>2.0</ele><time>2026-05-01T08:41:13.753Z</time></trkpt><trkpt lat="44.544525" lon="11.9778367"><ele>2.0</ele><time>2026-05-01T08:41:14.755Z</time></trkpt><trkpt lat="44.54443" lon="11.9781333"><ele>2.0</ele><time>2026-05-01T08:41:15.752Z</time></trkpt><trkpt lat="44.54432" lon="11.9784167"><ele>1.5</ele><time>2026-05-01T08:41:16.75Z</time></trkpt><trkpt lat="44.544205" lon="11.9786967"><ele>1.0</ele><time>2026-05-01T08:41:17.752Z</time></trkpt><trkpt lat="44.5440867" lon="11.9789733"><ele>1.5</ele><time>2026-05-01T08:41:18.748Z</time></trkpt><trkpt lat="44.5439633" lon="11.97925"><ele>2.0</ele><time>2026-05-01T08:41:19.749Z</time></trkpt><trkpt lat="44.54384" lon="11.979525"><ele>2.0</ele><time>2026-05-01T08:41:20.752Z</time></trkpt><trkpt lat="44.5437183" lon="11.9798017"><ele>2.0</ele><time>2026-05-01T08:41:21.743Z</time></trkpt><trkpt lat="44.5435983" lon="11.98008"><ele>2.0</ele><time>2026-05-01T08:41:22.749Z</time></trkpt><trkpt lat="44.5434783" lon="11.9803517"><ele>2.0</ele><time>2026-05-01T08:41:23.751Z</time></trkpt><trkpt lat="44.54336" lon="11.980625"><ele>2.0</ele><time>2026-05-01T08:41:24.744Z</time></trkpt><trkpt lat="44.5432417" lon="11.980895"><ele>2.0</ele><time>2026-05-01T08:41:25.755Z</time></trkpt><trkpt lat="44.543125" lon="11.9811633"><ele>2.0</ele><time>2026-05-01T08:41:26.757Z</time></trkpt><trkpt lat="44.5430133" lon="11.9814217"><ele>2.0</ele><time>2026-05-01T08:41:27.756Z</time></trkpt><trkpt lat="44.542905" lon="11.98167"><ele>2.0</ele><time>2026-05-01T08:41:28.76Z</time></trkpt><trkpt lat="44.5428017" lon="11.9819083"><ele>2.0</ele><time>2026-05-01T08:41:29.749Z</time></trkpt><trkpt lat="44.5427" lon="11.982145"><ele>2.0</ele><time>2026-05-01T08:41:30.753Z</time></trkpt><trkpt lat="44.542595" lon="11.9823817"><ele>2.0</ele><time>2026-05-01T08:41:31.754Z</time></trkpt><trkpt lat="44.54249" lon="11.9826183"><ele>2.0</ele><time>2026-05-01T08:41:32.753Z</time></trkpt><trkpt lat="44.5423867" lon="11.982855"><ele>2.0</ele><time>2026-05-01T08:41:33.75Z</time></trkpt><trkpt lat="44.5422817" lon="11.98309"><ele>2.0</ele><time>2026-05-01T08:41:34.75Z</time></trkpt><trkpt lat="44.5421817" lon="11.9833233"><ele>2.6666666666666665</ele><time>2026-05-01T08:41:35.757Z</time></trkpt><trkpt lat="44.5420783" lon="11.9835517"><ele>3.333333333333333</ele><time>2026-05-01T08:41:36.75Z</time></trkpt><trkpt lat="44.5419817" lon="11.9837717"><ele>4.0</ele><time>2026-05-01T08:41:37.752Z</time></trkpt><trkpt lat="44.5418883" lon="11.983985"><ele>3.6666666666666665</ele><time>2026-05-01T08:41:38.751Z</time></trkpt><trkpt lat="44.541795" lon="11.9841967"><ele>3.333333333333333</ele><time>2026-05-01T08:41:39.749Z</time></trkpt><trkpt lat="44.541705" lon="11.984405"><ele>3.0</ele><time>2026-05-01T08:41:40.746Z</time></trkpt><trkpt lat="44.541615" lon="11.984615"><ele>3.0</ele><time>2026-05-01T08:41:41.742Z</time></trkpt><trkpt lat="44.5415233" lon="11.984825"><ele>3.0</ele><time>2026-05-01T08:41:42.747Z</time></trkpt><trkpt lat="44.5414317" lon="11.9850317"><ele>3.0</ele><time>2026-05-01T08:41:43.756Z</time></trkpt><trkpt lat="44.54134" lon="11.985235"><ele>2.6666666666666665</ele><time>2026-05-01T08:41:44.757Z</time></trkpt><trkpt lat="44.5412533" lon="11.98544"><ele>2.333333333333333</ele><time>2026-05-01T08:41:45.75Z</time></trkpt><trkpt lat="44.5411783" lon="11.98565"><ele>2.0</ele><time>2026-05-01T08:41:46.743Z</time></trkpt><trkpt lat="44.5411153" lon="11.9858669"><ele>2.0</ele><time>2026-05-01T08:41:47.743Z</time></trkpt><trkpt lat="44.5410719" lon="11.9860936"><ele>2.0</ele><time>2026-05-01T08:41:48.742Z</time></trkpt><trkpt lat="44.5410528" lon="11.9863281"><ele>2.0</ele><time>2026-05-01T08:41:49.753Z</time></trkpt><trkpt lat="44.5410572" lon="11.9865577"><ele>2.0</ele><time>2026-05-01T08:41:50.756Z</time></trkpt><trkpt lat="44.5410755" lon="11.9867806"><ele>2.0</ele><time>2026-05-01T08:41:51.754Z</time></trkpt><trkpt lat="44.5411016" lon="11.9870026"><ele>2.0</ele><time>2026-05-01T08:41:52.751Z</time></trkpt><trkpt lat="44.5411276" lon="11.9872293"><ele>2.0</ele><time>2026-05-01T08:41:53.755Z</time></trkpt><trkpt lat="44.5411542" lon="11.987458"><ele>2.0</ele><time>2026-05-01T08:41:54.748Z</time></trkpt><trkpt lat="44.5411806" lon="11.9876923"><ele>2.0</ele><time>2026-05-01T08:41:55.742Z</time></trkpt><trkpt lat="44.5412064" lon="11.9879303"><ele>2.333333333333333</ele><time>2026-05-01T08:41:56.751Z</time></trkpt><trkpt lat="44.5412306" lon="11.988168"><ele>2.6666666666666665</ele><time>2026-05-01T08:41:57.75Z</time></trkpt><trkpt lat="44.5412563" lon="11.988407"><ele>3.0</ele><time>2026-05-01T08:41:58.75Z</time></trkpt><trkpt lat="44.5412815" lon="11.9886417"><ele>3.0</ele><time>2026-05-01T08:41:59.748Z</time></trkpt><trkpt lat="44.5413074" lon="11.9888778"><ele>3.0</ele><time>2026-05-01T08:42:00.754Z</time></trkpt><trkpt lat="44.5413328" lon="11.9891105"><ele>3.0</ele><time>2026-05-01T08:42:01.754Z</time></trkpt><trkpt lat="44.5413577" lon="11.9893365"><ele>2.6666666666666665</ele><time>2026-05-01T08:42:02.751Z</time></trkpt><trkpt lat="44.5413804" lon="11.9895539"><ele>2.333333333333333</ele><time>2026-05-01T08:42:03.748Z</time></trkpt><trkpt lat="44.5413983" lon="11.9897635"><ele>2.0</ele><time>2026-05-01T08:42:04.752Z</time></trkpt><trkpt lat="44.5414122" lon="11.9899687"><ele>2.0</ele><time>2026-05-01T08:42:05.741Z</time></trkpt><trkpt lat="44.5414041" lon="11.9901758"><ele>2.0</ele><time>2026-05-01T08:42:06.754Z</time></trkpt><trkpt lat="44.5413765" lon="11.9903722"><ele>2.0</ele><time>2026-05-01T08:42:07.749Z</time></trkpt><trkpt lat="44.5413409" lon="11.9905614"><ele>2.0</ele><time>2026-05-01T08:42:08.751Z</time></trkpt><trkpt lat="44.5412811" lon="11.9907385"><ele>2.25</ele><time>2026-05-01T08:42:09.752Z</time></trkpt><trkpt lat="44.5412125" lon="11.9909139"><ele>2.5</ele><time>2026-05-01T08:42:10.751Z</time></trkpt><trkpt lat="44.5411368" lon="11.9910827"><ele>2.75</ele><time>2026-05-01T08:42:11.742Z</time></trkpt><trkpt lat="44.5410507" lon="11.9912498"><ele>3.0</ele><time>2026-05-01T08:42:12.743Z</time></trkpt><trkpt lat="44.540961" lon="11.9914161"><ele>3.0</ele><time>2026-05-01T08:42:13.744Z</time></trkpt><trkpt lat="44.5408715" lon="11.9915874"><ele>3.0</ele><time>2026-05-01T08:42:14.749Z</time></trkpt><trkpt lat="44.5407823" lon="11.9917624"><ele>3.0</ele><time>2026-05-01T08:42:15.751Z</time></trkpt><trkpt lat="44.5406917" lon="11.9919417"><ele>3.0</ele><time>2026-05-01T08:42:16.751Z</time></trkpt><trkpt lat="44.5406033" lon="11.99211"><ele>3.0</ele><time>2026-05-01T08:42:17.748Z</time></trkpt><trkpt lat="44.5405183" lon="11.99228"><ele>3.0</ele><time>2026-05-01T08:42:18.748Z</time></trkpt><trkpt lat="44.5404367" lon="11.9924433"><ele>3.0</ele><time>2026-05-01T08:42:19.744Z</time></trkpt><trkpt lat="44.54036" lon="11.992615"><ele>3.25</ele><time>2026-05-01T08:42:20.745Z</time></trkpt><trkpt lat="44.540295" lon="11.9927917"><ele>3.5</ele><time>2026-05-01T08:42:21.75Z</time></trkpt><trkpt lat="44.5402483" lon="11.9929633"><ele>3.75</ele><time>2026-05-01T08:42:22.748Z</time></trkpt><trkpt lat="44.5402167" lon="11.9931333"><ele>4.0</ele><time>2026-05-01T08:42:23.75Z</time></trkpt><trkpt lat="44.5402033" lon="11.993295"><ele>3.8000000000000003</ele><time>2026-05-01T08:42:24.752Z</time></trkpt><trkpt lat="44.5401967" lon="11.9934517"><ele>3.6000000000000005</ele><time>2026-05-01T08:42:25.744Z</time></trkpt><trkpt lat="44.5402017" lon="11.993595"><ele>3.4</ele><time>2026-05-01T08:42:26.755Z</time></trkpt><trkpt lat="44.54021" lon="11.9937267"><ele>3.2</ele><time>2026-05-01T08:42:27.749Z</time></trkpt><trkpt lat="44.5402217" lon="11.9938517"><ele>3.0</ele><time>2026-05-01T08:42:28.749Z</time></trkpt><trkpt lat="44.5402367" lon="11.9939733"><ele>3.0</ele><time>2026-05-01T08:42:29.751Z</time></trkpt><trkpt lat="44.5402533" lon="11.9940917"><ele>3.0</ele><time>2026-05-01T08:42:30.749Z</time></trkpt><trkpt lat="44.5402717" lon="11.9942083"><ele>3.0</ele><time>2026-05-01T08:42:31.751Z</time></trkpt><trkpt lat="44.54029" lon="11.9943267"><ele>3.0</ele><time>2026-05-01T08:42:32.75Z</time></trkpt><trkpt lat="44.5403133" lon="11.9944467"><ele>3.0</ele><time>2026-05-01T08:42:33.744Z</time></trkpt><trkpt lat="44.5403383" lon="11.99457"><ele>3.0</ele><time>2026-05-01T08:42:34.752Z</time></trkpt><trkpt lat="44.5403567" lon="11.994695"><ele>2.8333333333333335</ele><time>2026-05-01T08:42:35.754Z</time></trkpt><trkpt lat="44.540375" lon="11.99482"><ele>2.6666666666666665</ele><time>2026-05-01T08:42:36.751Z</time></trkpt><trkpt lat="44.5403867" lon="11.9949417"><ele>2.5</ele><time>2026-05-01T08:42:37.751Z</time></trkpt><trkpt lat="44.5403917" lon="11.9950617"><ele>2.333333333333333</ele><time>2026-05-01T08:42:38.753Z</time></trkpt><trkpt lat="44.5403983" lon="11.99518"><ele>2.1666666666666665</ele><time>2026-05-01T08:42:39.752Z</time></trkpt><trkpt lat="44.5404017" lon="11.9953017"><ele>2.0</ele><time>2026-05-01T08:42:40.752Z</time></trkpt><trkpt lat="44.5403983" lon="11.99542"><ele>1.9999999999999998</ele><time>2026-05-01T08:42:41.754Z</time></trkpt><trkpt lat="44.5403883" lon="11.9955317"><ele>2.0</ele><time>2026-05-01T08:42:42.753Z</time></trkpt><trkpt lat="44.5403717" lon="11.995645"><ele>2.0</ele><time>2026-05-01T08:42:43.753Z</time></trkpt><trkpt lat="44.5403617" lon="11.995765"><ele>2.0</ele><time>2026-05-01T08:42:44.756Z</time></trkpt><trkpt lat="44.5403767" lon="11.99589"><ele>1.9999999999999998</ele><time>2026-05-01T08:42:45.748Z</time></trkpt><trkpt lat="44.5404217" lon="11.9960017"><ele>2.0</ele><time>2026-05-01T08:42:46.756Z</time></trkpt><trkpt lat="44.5404967" lon="11.9960917"><ele>2.5</ele><time>2026-05-01T08:42:47.742Z</time></trkpt><trkpt lat="44.5405967" lon="11.9961617"><ele>3.0</ele><time>2026-05-01T08:42:48.75Z</time></trkpt><trkpt lat="44.54071" lon="11.9962317"><ele>3.5</ele><time>2026-05-01T08:42:49.752Z</time></trkpt><trkpt lat="44.5408383" lon="11.996315"><ele>4.0</ele><time>2026-05-01T08:42:50.751Z</time></trkpt><trkpt lat="44.5409767" lon="11.9964067"><ele>4.0</ele><time>2026-05-01T08:42:51.749Z</time></trkpt><trkpt lat="44.541125" lon="11.99651"><ele>4.0</ele><time>2026-05-01T08:42:52.749Z</time></trkpt><trkpt lat="44.5412867" lon="11.9966183"><ele>4.0</ele><time>2026-05-01T08:42:53.753Z</time></trkpt><trkpt lat="44.5414583" lon="11.996725"><ele>3.6666666666666665</ele><time>2026-05-01T08:42:54.752Z</time></trkpt><trkpt lat="44.541635" lon="11.996835"><ele>3.333333333333333</ele><time>2026-05-01T08:42:55.751Z</time></trkpt><trkpt lat="44.5418233" lon="11.9969533"><ele>3.0</ele><time>2026-05-01T08:42:56.755Z</time></trkpt><trkpt lat="44.54202" lon="11.997085"><ele>2.6666666666666665</ele><time>2026-05-01T08:42:57.753Z</time></trkpt><trkpt lat="44.5422117" lon="11.9972217"><ele>2.333333333333333</ele><time>2026-05-01T08:42:58.749Z</time></trkpt><trkpt lat="44.5424083" lon="11.9973583"><ele>2.0</ele><time>2026-05-01T08:42:59.753Z</time></trkpt><trkpt lat="44.5425983" lon="11.99749"><ele>2.333333333333333</ele><time>2026-05-01T08:43:00.743Z</time></trkpt><trkpt lat="44.5427817" lon="11.99761"><ele>2.6666666666666665</ele><time>2026-05-01T08:43:01.75Z</time></trkpt><trkpt lat="44.5429583" lon="11.9977233"><ele>3.0</ele><time>2026-05-01T08:43:02.754Z</time></trkpt><trkpt lat="44.5431267" lon="11.9978333"><ele>2.3333333333333335</ele><time>2026-05-01T08:43:03.754Z</time></trkpt><trkpt lat="44.543295" lon="11.9979417"><ele>1.6666666666666665</ele><time>2026-05-01T08:43:04.75Z</time></trkpt><trkpt lat="44.54346" lon="11.9980467"><ele>1.0</ele><time>2026-05-01T08:43:05.743Z</time></trkpt><trkpt lat="44.54362" lon="11.998155"><ele>1.0</ele><time>2026-05-01T08:43:06.75Z</time></trkpt><trkpt lat="44.5437717" lon="11.99826"><ele>1.0</ele><time>2026-05-01T08:43:07.751Z</time></trkpt><trkpt lat="44.543915" lon="11.9983583"><ele>1.0</ele><time>2026-05-01T08:43:08.748Z</time></trkpt><trkpt lat="44.5440367" lon="11.99845"><ele>1.0</ele><time>2026-05-01T08:43:09.748Z</time></trkpt><trkpt lat="44.5441367" lon="11.998535"><ele>1.0</ele><time>2026-05-01T08:43:10.755Z</time></trkpt><trkpt lat="44.5442217" lon="11.99863"><ele>1.0</ele><time>2026-05-01T08:43:11.744Z</time></trkpt><trkpt lat="44.5442883" lon="11.9987417"><ele>1.0</ele><time>2026-05-01T08:43:12.748Z</time></trkpt><trkpt lat="44.54434" lon="11.9988583"><ele>1.0</ele><time>2026-05-01T08:43:13.753Z</time></trkpt><trkpt lat="44.5443783" lon="11.9989733"><ele>1.0</ele><time>2026-05-01T08:43:14.755Z</time></trkpt><trkpt lat="44.5444017" lon="11.9990983"><ele>1.0</ele><time>2026-05-01T08:43:15.742Z</time></trkpt><trkpt lat="44.5444133" lon="11.9992317"><ele>1.0</ele><time>2026-05-01T08:43:16.759Z</time></trkpt><trkpt lat="44.5444283" lon="11.999375"><ele>1.0</ele><time>2026-05-01T08:43:17.749Z</time></trkpt><trkpt lat="44.54445" lon="11.9995117"><ele>1.0</ele><time>2026-05-01T08:43:18.742Z</time></trkpt><trkpt lat="44.5444833" lon="11.999635"><ele>1.0</ele><time>2026-05-01T08:43:19.752Z</time></trkpt><trkpt lat="44.5445117" lon="11.9997567"><ele>1.0</ele><time>2026-05-01T08:43:20.753Z</time></trkpt><trkpt lat="44.5445217" lon="11.999885"><ele>1.0</ele><time>2026-05-01T08:43:21.749Z</time></trkpt><trkpt lat="44.5445117" lon="12.00003"><ele>1.0</ele><time>2026-05-01T08:43:22.746Z</time></trkpt><trkpt lat="44.54448" lon="12.0001933"><ele>1.0</ele><time>2026-05-01T08:43:23.751Z</time></trkpt><trkpt lat="44.544435" lon="12.0003767"><ele>1.0</ele><time>2026-05-01T08:43:24.744Z</time></trkpt><trkpt lat="44.5443767" lon="12.0005767"><ele>1.0</ele><time>2026-05-01T08:43:25.749Z</time></trkpt><trkpt lat="44.5443117" lon="12.0007833"><ele>1.0</ele><time>2026-05-01T08:43:26.751Z</time></trkpt><trkpt lat="44.5442483" lon="12.0010017"><ele>0.6666666666666666</ele><time>2026-05-01T08:43:27.751Z</time></trkpt><trkpt lat="44.544185" lon="12.0012367"><ele>0.3333333333333333</ele><time>2026-05-01T08:43:28.742Z</time></trkpt><trkpt lat="44.5441133" lon="12.0014967"><ele>0.0</ele><time>2026-05-01T08:43:29.752Z</time></trkpt><trkpt lat="44.5440333" lon="12.0017767"><ele>0.0</ele><time>2026-05-01T08:43:30.754Z</time></trkpt><trkpt lat="44.5439517" lon="12.00207"><ele>0.0</ele><time>2026-05-01T08:43:31.751Z</time></trkpt><trkpt lat="44.5438617" lon="12.0023833"><ele>0.5</ele><time>2026-05-01T08:43:32.751Z</time></trkpt><trkpt lat="44.5437667" lon="12.0027067"><ele>1.0</ele><time>2026-05-01T08:43:33.749Z</time></trkpt><trkpt lat="44.5436717" lon="12.0030383"><ele>1.5</ele><time>2026-05-01T08:43:34.749Z</time></trkpt><trkpt lat="44.5435733" lon="12.0033717"><ele>2.0</ele><time>2026-05-01T08:43:35.753Z</time></trkpt><trkpt lat="44.543475" lon="12.00371"><ele>2.0</ele><time>2026-05-01T08:43:36.756Z</time></trkpt><trkpt lat="44.5433733" lon="12.004055"><ele>2.0</ele><time>2026-05-01T08:43:37.745Z</time></trkpt><trkpt lat="44.54327" lon="12.0044"><ele>1.5</ele><time>2026-05-01T08:43:38.76Z</time></trkpt><trkpt lat="44.5431633" lon="12.00475"><ele>1.0</ele><time>2026-05-01T08:43:39.753Z</time></trkpt><trkpt lat="44.5430583" lon="12.0050983"><ele>1.0</ele><time>2026-05-01T08:43:40.753Z</time></trkpt><trkpt lat="44.5429533" lon="12.0054483"><ele>1.0</ele><time>2026-05-01T08:43:41.751Z</time></trkpt><trkpt lat="44.54285" lon="12.0057933"><ele>1.5</ele><time>2026-05-01T08:43:42.752Z</time></trkpt><trkpt lat="44.54275" lon="12.0061383"><ele>2.0</ele><time>2026-05-01T08:43:43.752Z</time></trkpt><trkpt lat="44.54265" lon="12.00648"><ele>1.5</ele><time>2026-05-01T08:43:44.753Z</time></trkpt><trkpt lat="44.542555" lon="12.0068133"><ele>1.0</ele><time>2026-05-01T08:43:45.751Z</time></trkpt><trkpt lat="44.542465" lon="12.007135"><ele>1.0</ele><time>2026-05-01T08:43:46.748Z</time></trkpt><trkpt lat="44.5423783" lon="12.0074433"><ele>1.0</ele><time>2026-05-01T08:43:47.744Z</time></trkpt><trkpt lat="44.5422917" lon="12.0077517"><ele>1.0</ele><time>2026-05-01T08:43:48.75Z</time></trkpt><trkpt lat="44.5422033" lon="12.0080617"><ele>1.0</ele><time>2026-05-01T08:43:49.749Z</time></trkpt><trkpt lat="44.542115" lon="12.0083767"><ele>0.5</ele><time>2026-05-01T08:43:50.75Z</time></trkpt><trkpt lat="44.5420233" lon="12.0086983"><ele>0.0</ele><time>2026-05-01T08:43:51.75Z</time></trkpt><trkpt lat="44.5419283" lon="12.0090233"><ele>0.5</ele><time>2026-05-01T08:43:52.75Z</time></trkpt><trkpt lat="44.5418317" lon="12.009355"><ele>1.0</ele><time>2026-05-01T08:43:53.743Z</time></trkpt><trkpt lat="44.541735" lon="12.009685"><ele>1.5</ele><time>2026-05-01T08:43:54.755Z</time></trkpt><trkpt lat="44.5416367" lon="12.0100133"><ele>2.0</ele><time>2026-05-01T08:43:55.751Z</time></trkpt><trkpt lat="44.5415367" lon="12.0103417"><ele>2.0</ele><time>2026-05-01T08:43:56.763Z</time></trkpt><trkpt lat="44.5414383" lon="12.0106683"><ele>2.0</ele><time>2026-05-01T08:43:57.751Z</time></trkpt><trkpt lat="44.54134" lon="12.0109917"><ele>1.5</ele><time>2026-05-01T08:43:58.749Z</time></trkpt><trkpt lat="44.54124" lon="12.0113067"><ele>1.0</ele><time>2026-05-01T08:43:59.752Z</time></trkpt><trkpt lat="44.54114" lon="12.0116183"><ele>1.0</ele><time>2026-05-01T08:44:00.752Z</time></trkpt><trkpt lat="44.5410417" lon="12.011925"><ele>1.0</ele><time>2026-05-01T08:44:01.754Z</time></trkpt><trkpt lat="44.54094" lon="12.0122333"><ele>1.0</ele><time>2026-05-01T08:44:02.752Z</time></trkpt><trkpt lat="44.54084" lon="12.01254"><ele>1.0</ele><time>2026-05-01T08:44:03.752Z</time></trkpt><trkpt lat="44.5407367" lon="12.0128433"><ele>1.0</ele><time>2026-05-01T08:44:04.753Z</time></trkpt><trkpt lat="44.54063" lon="12.013145"><ele>1.0</ele><time>2026-05-01T08:44:05.75Z</time></trkpt><trkpt lat="44.5405267" lon="12.01344"><ele>1.0</ele><time>2026-05-01T08:44:06.746Z</time></trkpt><trkpt lat="44.5404283" lon="12.0137283"><ele>1.0</ele><time>2026-05-01T08:44:07.752Z</time></trkpt><trkpt lat="44.5403283" lon="12.0140083"><ele>1.6666666666666665</ele><time>2026-05-01T08:44:08.752Z</time></trkpt><trkpt lat="44.5402317" lon="12.0142783"><ele>2.3333333333333335</ele><time>2026-05-01T08:44:09.749Z</time></trkpt><trkpt lat="44.540135" lon="12.0145467"><ele>3.0</ele><time>2026-05-01T08:44:10.751Z</time></trkpt><trkpt lat="44.5400333" lon="12.0148167"><ele>2.5</ele><time>2026-05-01T08:44:11.751Z</time></trkpt><trkpt lat="44.5399267" lon="12.0150933"><ele>2.0</ele><time>2026-05-01T08:44:12.75Z</time></trkpt><trkpt lat="44.5398117" lon="12.0153733"><ele>2.0</ele><time>2026-05-01T08:44:13.749Z</time></trkpt><trkpt lat="44.5396983" lon="12.01565"><ele>2.0</ele><time>2026-05-01T08:44:14.744Z</time></trkpt><trkpt lat="44.5395833" lon="12.0159233"><ele>1.5</ele><time>2026-05-01T08:44:15.75Z</time></trkpt><trkpt lat="44.5394683" lon="12.0161933"><ele>1.0</ele><time>2026-05-01T08:44:16.751Z</time></trkpt><trkpt lat="44.5393533" lon="12.01647"><ele>1.0</ele><time>2026-05-01T08:44:17.749Z</time></trkpt><trkpt lat="44.5392333" lon="12.0167583"><ele>1.0</ele><time>2026-05-01T08:44:18.748Z</time></trkpt><trkpt lat="44.53911" lon="12.0170567"><ele>1.0</ele><time>2026-05-01T08:44:19.743Z</time></trkpt><trkpt lat="44.53898" lon="12.0173617"><ele>1.0</ele><time>2026-05-01T08:44:20.755Z</time></trkpt><trkpt lat="44.538845" lon="12.017675"><ele>1.0</ele><time>2026-05-01T08:44:21.744Z</time></trkpt><trkpt lat="44.538705" lon="12.01799"><ele>1.0</ele><time>2026-05-01T08:44:22.75Z</time></trkpt><trkpt lat="44.5385633" lon="12.0183083"><ele>1.0</ele><time>2026-05-01T08:44:23.75Z</time></trkpt><trkpt lat="44.538425" lon="12.018625"><ele>1.0</ele><time>2026-05-01T08:44:24.751Z</time></trkpt><trkpt lat="44.538285" lon="12.0189383"><ele>1.0</ele><time>2026-05-01T08:44:25.753Z</time></trkpt><trkpt lat="44.5381483" lon="12.01925"><ele>1.0</ele><time>2026-05-01T08:44:26.752Z</time></trkpt><trkpt lat="44.5380117" lon="12.01956"><ele>0.0</ele><time>2026-05-01T08:44:27.752Z</time></trkpt><trkpt lat="44.5378783" lon="12.0198683"><ele>-1.0</ele><time>2026-05-01T08:44:28.752Z</time></trkpt><trkpt lat="44.5377467" lon="12.0201717"><ele>-1.0</ele><time>2026-05-01T08:44:29.752Z</time></trkpt><trkpt lat="44.5376183" lon="12.02046"><ele>-1.0</ele><time>2026-05-01T08:44:30.75Z</time></trkpt><trkpt lat="44.5374917" lon="12.02074"><ele>0.0</ele><time>2026-05-01T08:44:31.75Z</time></trkpt><trkpt lat="44.5373683" lon="12.0210117"><ele>1.0</ele><time>2026-05-01T08:44:32.752Z</time></trkpt><trkpt lat="44.53725" lon="12.0212783"><ele>1.0</ele><time>2026-05-01T08:44:33.743Z</time></trkpt><trkpt lat="44.5371317" lon="12.021545"><ele>1.0</ele><time>2026-05-01T08:44:34.754Z</time></trkpt><trkpt lat="44.53701" lon="12.0218167"><ele>0.5</ele><time>2026-05-01T08:44:35.743Z</time></trkpt><trkpt lat="44.5368867" lon="12.0220967"><ele>0.0</ele><time>2026-05-01T08:44:36.75Z</time></trkpt><trkpt lat="44.5367617" lon="12.0223833"><ele>0.0</ele><time>2026-05-01T08:44:37.744Z</time></trkpt><trkpt lat="44.5366317" lon="12.02268"><ele>0.0</ele><time>2026-05-01T08:44:38.752Z</time></trkpt><trkpt lat="44.5364983" lon="12.0229817"><ele>0.0</ele><time>2026-05-01T08:44:39.751Z</time></trkpt><trkpt lat="44.5363617" lon="12.023285"><ele>0.0</ele><time>2026-05-01T08:44:40.749Z</time></trkpt><trkpt lat="44.5362233" lon="12.0235883"><ele>0.0</ele><time>2026-05-01T08:44:41.756Z</time></trkpt><trkpt lat="44.5360883" lon="12.02389"><ele>0.0</ele><time>2026-05-01T08:44:42.75Z</time></trkpt><trkpt lat="44.535955" lon="12.0241917"><ele>0.5</ele><time>2026-05-01T08:44:43.748Z</time></trkpt><trkpt lat="44.535825" lon="12.0244917"><ele>1.0</ele><time>2026-05-01T08:44:44.754Z</time></trkpt><trkpt lat="44.535695" lon="12.0247933"><ele>1.0</ele><time>2026-05-01T08:44:45.752Z</time></trkpt><trkpt lat="44.5355633" lon="12.0251"><ele>1.0</ele><time>2026-05-01T08:44:46.743Z</time></trkpt><trkpt lat="44.5354283" lon="12.025405"><ele>1.0</ele><time>2026-05-01T08:44:47.76Z</time></trkpt><trkpt lat="44.5352917" lon="12.0257133"><ele>1.0</ele><time>2026-05-01T08:44:48.756Z</time></trkpt><trkpt lat="44.5351533" lon="12.026025"><ele>1.0</ele><time>2026-05-01T08:44:49.748Z</time></trkpt><trkpt lat="44.5350133" lon="12.0263383"><ele>1.0</ele><time>2026-05-01T08:44:50.757Z</time></trkpt><trkpt lat="44.53487" lon="12.0266533"><ele>0.5</ele><time>2026-05-01T08:44:51.752Z</time></trkpt><trkpt lat="44.5347267" lon="12.02697"><ele>0.0</ele><time>2026-05-01T08:44:52.749Z</time></trkpt><trkpt lat="44.5345817" lon="12.0272883"><ele>0.5</ele><time>2026-05-01T08:44:53.744Z</time></trkpt><trkpt lat="44.5344383" lon="12.0276083"><ele>1.0</ele><time>2026-05-01T08:44:54.754Z</time></trkpt><trkpt lat="44.5343" lon="12.02793"><ele>1.0</ele><time>2026-05-01T08:44:55.754Z</time></trkpt><trkpt lat="44.5341617" lon="12.02825"><ele>1.0</ele><time>2026-05-01T08:44:56.755Z</time></trkpt><trkpt lat="44.534025" lon="12.0285683"><ele>1.0</ele><time>2026-05-01T08:44:57.754Z</time></trkpt><trkpt lat="44.533885" lon="12.0288833"><ele>1.0</ele><time>2026-05-01T08:44:58.745Z</time></trkpt><trkpt lat="44.5337433" lon="12.0291967"><ele>1.0</ele><time>2026-05-01T08:44:59.751Z</time></trkpt><trkpt lat="44.5336017" lon="12.0295067"><ele>1.0</ele><time>2026-05-01T08:45:00.752Z</time></trkpt><trkpt lat="44.53346" lon="12.0298167"><ele>1.0</ele><time>2026-05-01T08:45:01.744Z</time></trkpt><trkpt lat="44.53332" lon="12.0301233"><ele>1.0</ele><time>2026-05-01T08:45:02.752Z</time></trkpt><trkpt lat="44.5331833" lon="12.03043"><ele>1.0</ele><time>2026-05-01T08:45:03.752Z</time></trkpt><trkpt lat="44.53305" lon="12.0307333"><ele>1.0</ele><time>2026-05-01T08:45:04.748Z</time></trkpt><trkpt lat="44.5329217" lon="12.0310283"><ele>1.5</ele><time>2026-05-01T08:45:05.753Z</time></trkpt><trkpt lat="44.5328" lon="12.0313167"><ele>2.0</ele><time>2026-05-01T08:45:06.749Z</time></trkpt><trkpt lat="44.5326783" lon="12.0316"><ele>1.5</ele><time>2026-05-01T08:45:07.745Z</time></trkpt><trkpt lat="44.532555" lon="12.0318867"><ele>1.0</ele><time>2026-05-01T08:45:08.757Z</time></trkpt><trkpt lat="44.53243" lon="12.0321767"><ele>1.0</ele><time>2026-05-01T08:45:09.75Z</time></trkpt><trkpt lat="44.532305" lon="12.03247"><ele>1.0</ele><time>2026-05-01T08:45:10.748Z</time></trkpt><trkpt lat="44.5321767" lon="12.0327667"><ele>1.0</ele><time>2026-05-01T08:45:11.748Z</time></trkpt><trkpt lat="44.5320467" lon="12.033065"><ele>1.0</ele><time>2026-05-01T08:45:12.749Z</time></trkpt><trkpt lat="44.53192" lon="12.03337"><ele>1.0</ele><time>2026-05-01T08:45:13.749Z</time></trkpt><trkpt lat="44.531795" lon="12.033675"><ele>1.0</ele><time>2026-05-01T08:45:14.754Z</time></trkpt><trkpt lat="44.5316683" lon="12.0339783"><ele>1.0</ele><time>2026-05-01T08:45:15.751Z</time></trkpt><trkpt lat="44.5315467" lon="12.0342783"><ele>1.0</ele><time>2026-05-01T08:45:16.753Z</time></trkpt><trkpt lat="44.5314271" lon="12.0345767"><ele>1.0</ele><time>2026-05-01T08:45:17.755Z</time></trkpt><trkpt lat="44.5313091" lon="12.0348696"><ele>1.0</ele><time>2026-05-01T08:45:18.744Z</time></trkpt><trkpt lat="44.5311928" lon="12.0351637"><ele>1.0</ele><time>2026-05-01T08:45:19.743Z</time></trkpt><trkpt lat="44.5310747" lon="12.0354583"><ele>1.0</ele><time>2026-05-01T08:45:20.752Z</time></trkpt><trkpt lat="44.530958" lon="12.0357494"><ele>2.0</ele><time>2026-05-01T08:45:21.752Z</time></trkpt><trkpt lat="44.5308395" lon="12.0360389"><ele>3.0</ele><time>2026-05-01T08:45:22.75Z</time></trkpt><trkpt lat="44.5307192" lon="12.0363238"><ele>3.0</ele><time>2026-05-01T08:45:23.744Z</time></trkpt><trkpt lat="44.530594" lon="12.0366057"><ele>3.0</ele><time>2026-05-01T08:45:24.754Z</time></trkpt><trkpt lat="44.5304641" lon="12.0368811"><ele>2.5</ele><time>2026-05-01T08:45:25.751Z</time></trkpt><trkpt lat="44.5303279" lon="12.0371533"><ele>2.0</ele><time>2026-05-01T08:45:26.752Z</time></trkpt><trkpt lat="44.5301863" lon="12.0374189"><ele>2.0</ele><time>2026-05-01T08:45:27.744Z</time></trkpt><trkpt lat="44.5300385" lon="12.0376814"><ele>2.0</ele><time>2026-05-01T08:45:28.751Z</time></trkpt><trkpt lat="44.5298874" lon="12.03794"><ele>2.0</ele><time>2026-05-01T08:45:29.743Z</time></trkpt><trkpt lat="44.5297316" lon="12.0381993"><ele>2.0</ele><time>2026-05-01T08:45:30.751Z</time></trkpt><trkpt lat="44.5294272" lon="12.038721"><ele>2.5</ele><time>2026-05-01T08:45:32.742Z</time></trkpt><trkpt lat="44.5292782" lon="12.0389864"><ele>3.0</ele><time>2026-05-01T08:45:33.747Z</time></trkpt><trkpt lat="44.5291306" lon="12.0392538"><ele>3.0</ele><time>2026-05-01T08:45:34.751Z</time></trkpt><trkpt lat="44.5289883" lon="12.0395261"><ele>3.0</ele><time>2026-05-01T08:45:35.752Z</time></trkpt><trkpt lat="44.5288497" lon="12.0398037"><ele>2.5</ele><time>2026-05-01T08:45:36.752Z</time></trkpt><trkpt lat="44.5287152" lon="12.0400859"><ele>2.0</ele><time>2026-05-01T08:45:37.742Z</time></trkpt><trkpt lat="44.5285849" lon="12.0403756"><ele>2.0</ele><time>2026-05-01T08:45:38.749Z</time></trkpt><trkpt lat="44.5284608" lon="12.0406699"><ele>2.0</ele><time>2026-05-01T08:45:39.753Z</time></trkpt><trkpt lat="44.5283423" lon="12.0409658"><ele>2.0</ele><time>2026-05-01T08:45:40.746Z</time></trkpt><trkpt lat="44.5282265" lon="12.0412635"><ele>2.0</ele><time>2026-05-01T08:45:41.754Z</time></trkpt><trkpt lat="44.5281127" lon="12.0415534"><ele>1.5</ele><time>2026-05-01T08:45:42.752Z</time></trkpt><trkpt lat="44.528002" lon="12.0418374"><ele>1.0</ele><time>2026-05-01T08:45:43.749Z</time></trkpt><trkpt lat="44.5278937" lon="12.0421145"><ele>1.3333333333333333</ele><time>2026-05-01T08:45:44.749Z</time></trkpt><trkpt lat="44.5277859" lon="12.0423874"><ele>1.6666666666666665</ele><time>2026-05-01T08:45:45.747Z</time></trkpt><trkpt lat="44.5276761" lon="12.042658"><ele>2.0</ele><time>2026-05-01T08:45:46.743Z</time></trkpt><trkpt lat="44.5275652" lon="12.0429324"><ele>2.0</ele><time>2026-05-01T08:45:47.751Z</time></trkpt><trkpt lat="44.5274551" lon="12.0432085"><ele>2.0</ele><time>2026-05-01T08:45:48.744Z</time></trkpt><trkpt lat="44.5273422" lon="12.043484"><ele>1.5</ele><time>2026-05-01T08:45:49.75Z</time></trkpt><trkpt lat="44.5272288" lon="12.0437622"><ele>1.0</ele><time>2026-05-01T08:45:50.752Z</time></trkpt><trkpt lat="44.5271139" lon="12.0440449"><ele>1.5</ele><time>2026-05-01T08:45:51.751Z</time></trkpt><trkpt lat="44.5269972" lon="12.0443363"><ele>2.0</ele><time>2026-05-01T08:45:52.75Z</time></trkpt><trkpt lat="44.5268742" lon="12.0446377"><ele>2.0</ele><time>2026-05-01T08:45:53.747Z</time></trkpt><trkpt lat="44.5267439" lon="12.0449451"><ele>2.0</ele><time>2026-05-01T08:45:54.757Z</time></trkpt><trkpt lat="44.5266111" lon="12.0452562"><ele>2.0</ele><time>2026-05-01T08:45:55.742Z</time></trkpt><trkpt lat="44.5264706" lon="12.0455709"><ele>2.0</ele><time>2026-05-01T08:45:56.755Z</time></trkpt><trkpt lat="44.526335" lon="12.0458898"><ele>2.5</ele><time>2026-05-01T08:45:57.748Z</time></trkpt><trkpt lat="44.5261972" lon="12.0462124"><ele>3.0</ele><time>2026-05-01T08:45:58.751Z</time></trkpt><trkpt lat="44.5260554" lon="12.0465355"><ele>3.0</ele><time>2026-05-01T08:45:59.751Z</time></trkpt><trkpt lat="44.5259117" lon="12.0468584"><ele>3.0</ele><time>2026-05-01T08:46:00.748Z</time></trkpt><trkpt lat="44.5257686" lon="12.0471799"><ele>3.0</ele><time>2026-05-01T08:46:01.752Z</time></trkpt><trkpt lat="44.5256296" lon="12.0474987"><ele>3.0</ele><time>2026-05-01T08:46:02.754Z</time></trkpt><trkpt lat="44.5254907" lon="12.0478106"><ele>2.5</ele><time>2026-05-01T08:46:03.743Z</time></trkpt><trkpt lat="44.5253508" lon="12.0481183"><ele>2.0</ele><time>2026-05-01T08:46:04.752Z</time></trkpt><trkpt lat="44.5252092" lon="12.0484179"><ele>1.5</ele><time>2026-05-01T08:46:05.752Z</time></trkpt><trkpt lat="44.5250685" lon="12.0487129"><ele>1.0</ele><time>2026-05-01T08:46:06.754Z</time></trkpt><trkpt lat="44.5249332" lon="12.0490052"><ele>1.5</ele><time>2026-05-01T08:46:07.751Z</time></trkpt><trkpt lat="44.5248002" lon="12.0492974"><ele>2.0</ele><time>2026-05-01T08:46:08.756Z</time></trkpt><trkpt lat="44.5246701" lon="12.0495856"><ele>2.0</ele><time>2026-05-01T08:46:09.753Z</time></trkpt><trkpt lat="44.5245431" lon="12.0498704"><ele>2.0</ele><time>2026-05-01T08:46:10.748Z</time></trkpt><trkpt lat="44.5244199" lon="12.0501542"><ele>2.0</ele><time>2026-05-01T08:46:11.751Z</time></trkpt><trkpt lat="44.5242971" lon="12.0504351"><ele>2.0</ele><time>2026-05-01T08:46:12.743Z</time></trkpt><trkpt lat="44.5241722" lon="12.050713"><ele>2.5</ele><time>2026-05-01T08:46:13.75Z</time></trkpt><trkpt lat="44.5240499" lon="12.0509913"><ele>3.0</ele><time>2026-05-01T08:46:14.744Z</time></trkpt><trkpt lat="44.5239267" lon="12.0512741"><ele>3.0</ele><time>2026-05-01T08:46:15.757Z</time></trkpt><trkpt lat="44.523802" lon="12.051553"><ele>3.0</ele><time>2026-05-01T08:46:16.742Z</time></trkpt><trkpt lat="44.5236775" lon="12.0518363"><ele>3.5</ele><time>2026-05-01T08:46:17.749Z</time></trkpt><trkpt lat="44.5235541" lon="12.0521177"><ele>4.0</ele><time>2026-05-01T08:46:18.743Z</time></trkpt><trkpt lat="44.5234291" lon="12.0524005"><ele>3.0</ele><time>2026-05-01T08:46:19.753Z</time></trkpt><trkpt lat="44.5233034" lon="12.052679"><ele>2.0</ele><time>2026-05-01T08:46:20.75Z</time></trkpt><trkpt lat="44.5231751" lon="12.0529549"><ele>2.0</ele><time>2026-05-01T08:46:21.742Z</time></trkpt><trkpt lat="44.5230406" lon="12.0532277"><ele>2.0</ele><time>2026-05-01T08:46:22.748Z</time></trkpt><trkpt lat="44.5228991" lon="12.0534932"><ele>1.5</ele><time>2026-05-01T08:46:23.752Z</time></trkpt><trkpt lat="44.5227473" lon="12.0537499"><ele>1.0</ele><time>2026-05-01T08:46:24.742Z</time></trkpt><trkpt lat="44.5225815" lon="12.0539984"><ele>1.5</ele><time>2026-05-01T08:46:25.749Z</time></trkpt><trkpt lat="44.5224006" lon="12.0542345"><ele>2.0</ele><time>2026-05-01T08:46:26.751Z</time></trkpt><trkpt lat="44.5222098" lon="12.054461"><ele>2.0</ele><time>2026-05-01T08:46:27.749Z</time></trkpt><trkpt lat="44.5220104" lon="12.0546775"><ele>2.0</ele><time>2026-05-01T08:46:28.749Z</time></trkpt><trkpt lat="44.5218004" lon="12.0548802"><ele>2.5</ele><time>2026-05-01T08:46:29.752Z</time></trkpt><trkpt lat="44.521582" lon="12.0550684"><ele>3.0</ele><time>2026-05-01T08:46:30.751Z</time></trkpt><trkpt lat="44.5213535" lon="12.0552397"><ele>1.5</ele><time>2026-05-01T08:46:31.756Z</time></trkpt><trkpt lat="44.5211185" lon="12.0553922"><ele>0.0</ele><time>2026-05-01T08:46:32.75Z</time></trkpt><trkpt lat="44.5208746" lon="12.0555267"><ele>0.0</ele><time>2026-05-01T08:46:33.759Z</time></trkpt><trkpt lat="44.5206293" lon="12.0556427"><ele>0.0</ele><time>2026-05-01T08:46:34.752Z</time></trkpt><trkpt lat="44.5203787" lon="12.0557451"><ele>1.5</ele><time>2026-05-01T08:46:35.755Z</time></trkpt><trkpt lat="44.520125" lon="12.0558323"><ele>3.0</ele><time>2026-05-01T08:46:36.743Z</time></trkpt><trkpt lat="44.519865" lon="12.0559106"><ele>3.0</ele><time>2026-05-01T08:46:37.753Z</time></trkpt><trkpt lat="44.5196046" lon="12.055987"><ele>3.0</ele><time>2026-05-01T08:46:38.753Z</time></trkpt><trkpt lat="44.5193429" lon="12.0560658"><ele>2.5</ele><time>2026-05-01T08:46:39.753Z</time></trkpt><trkpt lat="44.5190809" lon="12.0561454"><ele>2.0</ele><time>2026-05-01T08:46:40.75Z</time></trkpt><trkpt lat="44.5188154" lon="12.0562242"><ele>2.5</ele><time>2026-05-01T08:46:41.747Z</time></trkpt><trkpt lat="44.5185467" lon="12.0563019"><ele>3.0</ele><time>2026-05-01T08:46:42.75Z</time></trkpt><trkpt lat="44.5182749" lon="12.0563802"><ele>3.0</ele><time>2026-05-01T08:46:43.751Z</time></trkpt><trkpt lat="44.5180025" lon="12.0564588"><ele>3.0</ele><time>2026-05-01T08:46:44.752Z</time></trkpt><trkpt lat="44.5177278" lon="12.0565419"><ele>3.0</ele><time>2026-05-01T08:46:45.754Z</time></trkpt><trkpt lat="44.5174541" lon="12.0566254"><ele>3.0</ele><time>2026-05-01T08:46:46.752Z</time></trkpt><trkpt lat="44.5171793" lon="12.0567086"><ele>3.5</ele><time>2026-05-01T08:46:47.749Z</time></trkpt><trkpt lat="44.5169046" lon="12.0567918"><ele>4.0</ele><time>2026-05-01T08:46:48.743Z</time></trkpt><trkpt lat="44.5166304" lon="12.0568777"><ele>4.0</ele><time>2026-05-01T08:46:49.742Z</time></trkpt><trkpt lat="44.5163548" lon="12.0569643"><ele>4.0</ele><time>2026-05-01T08:46:50.753Z</time></trkpt><trkpt lat="44.5160832" lon="12.0570519"><ele>3.0</ele><time>2026-05-01T08:46:51.749Z</time></trkpt><trkpt lat="44.5158095" lon="12.0571366"><ele>2.0</ele><time>2026-05-01T08:46:52.754Z</time></trkpt><trkpt lat="44.5155366" lon="12.0572214"><ele>2.5</ele><time>2026-05-01T08:46:53.75Z</time></trkpt><trkpt lat="44.5152643" lon="12.0573052"><ele>3.0</ele><time>2026-05-01T08:46:54.753Z</time></trkpt><trkpt lat="44.5149928" lon="12.0573922"><ele>3.0</ele><time>2026-05-01T08:46:55.753Z</time></trkpt><trkpt lat="44.5147235" lon="12.0574778"><ele>3.0</ele><time>2026-05-01T08:46:56.756Z</time></trkpt><trkpt lat="44.514453" lon="12.0575592"><ele>3.0</ele><time>2026-05-01T08:46:57.753Z</time></trkpt><trkpt lat="44.5141814" lon="12.057642"><ele>3.0</ele><time>2026-05-01T08:46:58.753Z</time></trkpt><trkpt lat="44.5139101" lon="12.0577227"><ele>2.5</ele><time>2026-05-01T08:46:59.75Z</time></trkpt><trkpt lat="44.5136371" lon="12.0578054"><ele>2.0</ele><time>2026-05-01T08:47:00.752Z</time></trkpt><trkpt lat="44.5133664" lon="12.0578897"><ele>2.0</ele><time>2026-05-01T08:47:01.752Z</time></trkpt><trkpt lat="44.5128238" lon="12.0580553"><ele>2.0</ele><time>2026-05-01T08:47:03.754Z</time></trkpt><trkpt lat="44.5125544" lon="12.0581349"><ele>2.0</ele><time>2026-05-01T08:47:04.745Z</time></trkpt><trkpt lat="44.5122846" lon="12.0582147"><ele>2.5</ele><time>2026-05-01T08:47:05.753Z</time></trkpt><trkpt lat="44.5120181" lon="12.0582976"><ele>3.0</ele><time>2026-05-01T08:47:06.75Z</time></trkpt><trkpt lat="44.5117524" lon="12.0583823"><ele>3.0</ele><time>2026-05-01T08:47:07.754Z</time></trkpt><trkpt lat="44.5114881" lon="12.0584658"><ele>3.0</ele><time>2026-05-01T08:47:08.752Z</time></trkpt><trkpt lat="44.5112248" lon="12.0585479"><ele>3.5</ele><time>2026-05-01T08:47:09.751Z</time></trkpt><trkpt lat="44.5109642" lon="12.0586308"><ele>4.0</ele><time>2026-05-01T08:47:10.75Z</time></trkpt><trkpt lat="44.5107044" lon="12.0587139"><ele>4.0</ele><time>2026-05-01T08:47:11.751Z</time></trkpt><trkpt lat="44.5104474" lon="12.0587933"><ele>4.0</ele><time>2026-05-01T08:47:12.751Z</time></trkpt><trkpt lat="44.5101939" lon="12.0588734"><ele>4.5</ele><time>2026-05-01T08:47:13.752Z</time></trkpt><trkpt lat="44.5099493" lon="12.0589464"><ele>5.0</ele><time>2026-05-01T08:47:14.755Z</time></trkpt><trkpt lat="44.5097069" lon="12.0590187"><ele>5.0</ele><time>2026-05-01T08:47:15.75Z</time></trkpt><trkpt lat="44.50948" lon="12.059085"><ele>5.0</ele><time>2026-05-01T08:47:16.926Z</time></trkpt><trkpt lat="44.50904" lon="12.0592333"><ele>5.0</ele><time>2026-05-01T08:47:18.752Z</time></trkpt><trkpt lat="44.5088183" lon="12.0593083"><ele>5.0</ele><time>2026-05-01T08:47:19.747Z</time></trkpt><trkpt lat="44.5085933" lon="12.0593817"><ele>5.0</ele><time>2026-05-01T08:47:20.748Z</time></trkpt><trkpt lat="44.5083667" lon="12.05945"><ele>5.0</ele><time>2026-05-01T08:47:21.754Z</time></trkpt><trkpt lat="44.5081383" lon="12.0595167"><ele>5.0</ele><time>2026-05-01T08:47:22.753Z</time></trkpt><trkpt lat="44.5079167" lon="12.0595817"><ele>5.0</ele><time>2026-05-01T08:47:23.742Z</time></trkpt><trkpt lat="44.5076933" lon="12.059655"><ele>5.5</ele><time>2026-05-01T08:47:24.75Z</time></trkpt><trkpt lat="44.507465" lon="12.0597267"><ele>6.0</ele><time>2026-05-01T08:47:25.752Z</time></trkpt><trkpt lat="44.507235" lon="12.059795"><ele>5.5</ele><time>2026-05-01T08:47:26.75Z</time></trkpt><trkpt lat="44.5070067" lon="12.059865"><ele>5.0</ele><time>2026-05-01T08:47:27.742Z</time></trkpt><trkpt lat="44.506775" lon="12.059935"><ele>4.5</ele><time>2026-05-01T08:47:28.749Z</time></trkpt><trkpt lat="44.5065433" lon="12.0600133"><ele>4.0</ele><time>2026-05-01T08:47:29.753Z</time></trkpt><trkpt lat="44.5063083" lon="12.0601"><ele>4.0</ele><time>2026-05-01T08:47:30.751Z</time></trkpt><trkpt lat="44.5060717" lon="12.060195"><ele>4.0</ele><time>2026-05-01T08:47:31.753Z</time></trkpt><trkpt lat="44.5058333" lon="12.060295"><ele>4.0</ele><time>2026-05-01T08:47:32.75Z</time></trkpt><trkpt lat="44.50559" lon="12.0604017"><ele>4.0</ele><time>2026-05-01T08:47:33.754Z</time></trkpt><trkpt lat="44.5053467" lon="12.06051"><ele>4.0</ele><time>2026-05-01T08:47:34.748Z</time></trkpt><trkpt lat="44.5051" lon="12.0606283"><ele>4.0</ele><time>2026-05-01T08:47:35.748Z</time></trkpt><trkpt lat="44.504855" lon="12.0607517"><ele>3.5</ele><time>2026-05-01T08:47:36.75Z</time></trkpt><trkpt lat="44.5046083" lon="12.0608783"><ele>3.0</ele><time>2026-05-01T08:47:37.749Z</time></trkpt><trkpt lat="44.504365" lon="12.061005"><ele>3.0</ele><time>2026-05-01T08:47:38.751Z</time></trkpt><trkpt lat="44.5041217" lon="12.06113"><ele>3.0</ele><time>2026-05-01T08:47:39.742Z</time></trkpt><trkpt lat="44.5038817" lon="12.0612517"><ele>3.0</ele><time>2026-05-01T08:47:40.751Z</time></trkpt><trkpt lat="44.5036417" lon="12.0613733"><ele>3.0</ele><time>2026-05-01T08:47:41.755Z</time></trkpt><trkpt lat="44.503405" lon="12.061485"><ele>3.0</ele><time>2026-05-01T08:47:42.751Z</time></trkpt><trkpt lat="44.5031667" lon="12.0615833"><ele>3.0</ele><time>2026-05-01T08:47:43.742Z</time></trkpt><trkpt lat="44.5029267" lon="12.06166"><ele>3.0</ele><time>2026-05-01T08:47:44.754Z</time></trkpt><trkpt lat="44.5026833" lon="12.061705"><ele>3.0</ele><time>2026-05-01T08:47:45.742Z</time></trkpt><trkpt lat="44.5024433" lon="12.06172"><ele>3.0</ele><time>2026-05-01T08:47:46.743Z</time></trkpt><trkpt lat="44.5022067" lon="12.0617083"><ele>3.0</ele><time>2026-05-01T08:47:47.743Z</time></trkpt><trkpt lat="44.50197" lon="12.0616617"><ele>3.5</ele><time>2026-05-01T08:47:48.745Z</time></trkpt><trkpt lat="44.5017383" lon="12.0615917"><ele>4.0</ele><time>2026-05-01T08:47:49.742Z</time></trkpt><trkpt lat="44.50151" lon="12.0614967"><ele>4.0</ele><time>2026-05-01T08:47:50.751Z</time></trkpt><trkpt lat="44.5012933" lon="12.0613717"><ele>4.0</ele><time>2026-05-01T08:47:51.743Z</time></trkpt><trkpt lat="44.5010867" lon="12.0612233"><ele>3.5</ele><time>2026-05-01T08:47:52.752Z</time></trkpt><trkpt lat="44.5008867" lon="12.061055"><ele>3.0</ele><time>2026-05-01T08:47:53.749Z</time></trkpt><trkpt lat="44.5006917" lon="12.0608683"><ele>3.0</ele><time>2026-05-01T08:47:54.75Z</time></trkpt><trkpt lat="44.5004983" lon="12.06068"><ele>3.0</ele><time>2026-05-01T08:47:55.747Z</time></trkpt><trkpt lat="44.50031" lon="12.0604867"><ele>2.5</ele><time>2026-05-01T08:47:56.753Z</time></trkpt><trkpt lat="44.5001183" lon="12.060295"><ele>2.0</ele><time>2026-05-01T08:47:57.743Z</time></trkpt><trkpt lat="44.4999333" lon="12.0601067"><ele>2.0</ele><time>2026-05-01T08:47:58.744Z</time></trkpt><trkpt lat="44.4997483" lon="12.059915"><ele>2.0</ele><time>2026-05-01T08:47:59.749Z</time></trkpt><trkpt lat="44.4995633" lon="12.059725"><ele>2.5</ele><time>2026-05-01T08:48:00.743Z</time></trkpt><trkpt lat="44.49938" lon="12.0595367"><ele>3.0</ele><time>2026-05-01T08:48:01.742Z</time></trkpt><trkpt lat="44.4992" lon="12.05935"><ele>3.0</ele><time>2026-05-01T08:48:02.752Z</time></trkpt><trkpt lat="44.4990183" lon="12.0591583"><ele>3.0</ele><time>2026-05-01T08:48:03.746Z</time></trkpt><trkpt lat="44.4988417" lon="12.0589583"><ele>3.0</ele><time>2026-05-01T08:48:04.742Z</time></trkpt><trkpt lat="44.49867" lon="12.0587483"><ele>3.0</ele><time>2026-05-01T08:48:05.749Z</time></trkpt><trkpt lat="44.4984967" lon="12.0585317"><ele>3.0</ele><time>2026-05-01T08:48:06.752Z</time></trkpt><trkpt lat="44.4983283" lon="12.0583117"><ele>3.0</ele><time>2026-05-01T08:48:07.75Z</time></trkpt><trkpt lat="44.4981667" lon="12.05809"><ele>3.0</ele><time>2026-05-01T08:48:08.753Z</time></trkpt><trkpt lat="44.4980133" lon="12.0578667"><ele>3.0</ele><time>2026-05-01T08:48:09.752Z</time></trkpt><trkpt lat="44.4978683" lon="12.0576483"><ele>3.0</ele><time>2026-05-01T08:48:10.757Z</time></trkpt><trkpt lat="44.4977283" lon="12.0574417"><ele>3.666666666666667</ele><time>2026-05-01T08:48:11.754Z</time></trkpt><trkpt lat="44.4976083" lon="12.057245"><ele>4.333333333333334</ele><time>2026-05-01T08:48:12.755Z</time></trkpt><trkpt lat="44.4975083" lon="12.0570683"><ele>5.0</ele><time>2026-05-01T08:48:13.749Z</time></trkpt><trkpt lat="44.49743" lon="12.05691"><ele>5.0</ele><time>2026-05-01T08:48:14.75Z</time></trkpt><trkpt lat="44.4973867" lon="12.056755"><ele>5.0</ele><time>2026-05-01T08:48:15.742Z</time></trkpt><trkpt lat="44.4973783" lon="12.0566"><ele>5.0</ele><time>2026-05-01T08:48:16.747Z</time></trkpt><trkpt lat="44.4973883" lon="12.0564583"><ele>5.0</ele><time>2026-05-01T08:48:17.745Z</time></trkpt><trkpt lat="44.4973883" lon="12.056335"><ele>5.0</ele><time>2026-05-01T08:48:18.753Z</time></trkpt><trkpt lat="44.4973733" lon="12.0562017"><ele>5.0</ele><time>2026-05-01T08:48:19.743Z</time></trkpt><trkpt lat="44.4973367" lon="12.0560717"><ele>5.0</ele><time>2026-05-01T08:48:20.756Z</time></trkpt><trkpt lat="44.4972683" lon="12.0559617"><ele>5.0</ele><time>2026-05-01T08:48:21.755Z</time></trkpt><trkpt lat="44.49719" lon="12.0558867"><ele>5.0</ele><time>2026-05-01T08:48:22.749Z</time></trkpt><trkpt lat="44.4970967" lon="12.05585"><ele>5.0</ele><time>2026-05-01T08:48:23.746Z</time></trkpt><trkpt lat="44.4969933" lon="12.055855"><ele>4.4</ele><time>2026-05-01T08:48:24.752Z</time></trkpt><trkpt lat="44.4969017" lon="12.0558983"><ele>3.8</ele><time>2026-05-01T08:48:25.751Z</time></trkpt><trkpt lat="44.4968283" lon="12.0559783"><ele>3.2</ele><time>2026-05-01T08:48:26.759Z</time></trkpt><trkpt lat="44.49677" lon="12.0560967"><ele>2.6</ele><time>2026-05-01T08:48:27.759Z</time></trkpt><trkpt lat="44.4967283" lon="12.0562417"><ele>2.0</ele><time>2026-05-01T08:48:28.747Z</time></trkpt><trkpt lat="44.4966933" lon="12.0564"><ele>2.0</ele><time>2026-05-01T08:48:29.743Z</time></trkpt><trkpt lat="44.4966533" lon="12.0565617"><ele>2.0</ele><time>2026-05-01T08:48:30.752Z</time></trkpt><trkpt lat="44.49659" lon="12.0567133"><ele>2.0</ele><time>2026-05-01T08:48:31.747Z</time></trkpt><trkpt lat="44.496495" lon="12.0568367"><ele>2.0</ele><time>2026-05-01T08:48:32.749Z</time></trkpt><trkpt lat="44.49627" lon="12.0570667"><ele>2.0</ele><time>2026-05-01T08:48:34.748Z</time></trkpt><trkpt lat="44.4961583" lon="12.0571917"><ele>2.0</ele><time>2026-05-01T08:48:35.751Z</time></trkpt><trkpt lat="44.4960467" lon="12.0573267"><ele>2.0</ele><time>2026-05-01T08:48:36.75Z</time></trkpt><trkpt lat="44.4959417" lon="12.0574733"><ele>2.0</ele><time>2026-05-01T08:48:37.75Z</time></trkpt><trkpt lat="44.4958383" lon="12.05763"><ele>2.333333333333333</ele><time>2026-05-01T08:48:38.75Z</time></trkpt><trkpt lat="44.4957317" lon="12.0577983"><ele>2.6666666666666665</ele><time>2026-05-01T08:48:39.748Z</time></trkpt><trkpt lat="44.495635" lon="12.0579833"><ele>3.0</ele><time>2026-05-01T08:48:40.741Z</time></trkpt><trkpt lat="44.4955483" lon="12.0581817"><ele>3.333333333333333</ele><time>2026-05-01T08:48:41.75Z</time></trkpt><trkpt lat="44.495465" lon="12.058395"><ele>3.6666666666666665</ele><time>2026-05-01T08:48:42.749Z</time></trkpt><trkpt lat="44.495385" lon="12.05862"><ele>4.0</ele><time>2026-05-01T08:48:43.745Z</time></trkpt><trkpt lat="44.4953017" lon="12.058845"><ele>4.0</ele><time>2026-05-01T08:48:44.753Z</time></trkpt><trkpt lat="44.4952133" lon="12.0590783"><ele>4.0</ele><time>2026-05-01T08:48:45.751Z</time></trkpt><trkpt lat="44.4951267" lon="12.0593167"><ele>4.0</ele><time>2026-05-01T08:48:46.747Z</time></trkpt><trkpt lat="44.495035" lon="12.0595583"><ele>3.6666666666666665</ele><time>2026-05-01T08:48:47.754Z</time></trkpt><trkpt lat="44.4949433" lon="12.0598033"><ele>3.333333333333333</ele><time>2026-05-01T08:48:48.753Z</time></trkpt><trkpt lat="44.4948517" lon="12.06005"><ele>3.0</ele><time>2026-05-01T08:48:49.753Z</time></trkpt><trkpt lat="44.49476" lon="12.0603017"><ele>3.0</ele><time>2026-05-01T08:48:50.744Z</time></trkpt><trkpt lat="44.4946683" lon="12.060555"><ele>3.0</ele><time>2026-05-01T08:48:51.746Z</time></trkpt><trkpt lat="44.494575" lon="12.060805"><ele>3.0</ele><time>2026-05-01T08:48:52.743Z</time></trkpt><trkpt lat="44.494485" lon="12.0610533"><ele>3.0</ele><time>2026-05-01T08:48:53.743Z</time></trkpt><trkpt lat="44.4943967" lon="12.0613017"><ele>3.0</ele><time>2026-05-01T08:48:54.745Z</time></trkpt><trkpt lat="44.4943067" lon="12.0615467"><ele>3.0</ele><time>2026-05-01T08:48:55.744Z</time></trkpt><trkpt lat="44.4942167" lon="12.0617883"><ele>3.0</ele><time>2026-05-01T08:48:56.746Z</time></trkpt><trkpt lat="44.4941267" lon="12.0620217"><ele>3.0</ele><time>2026-05-01T08:48:57.745Z</time></trkpt><trkpt lat="44.4940417" lon="12.0622517"><ele>3.0</ele><time>2026-05-01T08:48:58.743Z</time></trkpt><trkpt lat="44.4939583" lon="12.0624733"><ele>3.333333333333333</ele><time>2026-05-01T08:48:59.745Z</time></trkpt><trkpt lat="44.4938817" lon="12.0626883"><ele>3.6666666666666665</ele><time>2026-05-01T08:49:00.741Z</time></trkpt><trkpt lat="44.493805" lon="12.0628933"><ele>4.0</ele><time>2026-05-01T08:49:01.741Z</time></trkpt><trkpt lat="44.49373" lon="12.063095"><ele>3.0</ele><time>2026-05-01T08:49:02.745Z</time></trkpt><trkpt lat="44.4936517" lon="12.06329"><ele>2.0</ele><time>2026-05-01T08:49:03.743Z</time></trkpt><trkpt lat="44.4935683" lon="12.0634817"><ele>1.0</ele><time>2026-05-01T08:49:04.743Z</time></trkpt><trkpt lat="44.4934817" lon="12.063675"><ele>1.0</ele><time>2026-05-01T08:49:05.742Z</time></trkpt><trkpt lat="44.4933867" lon="12.0638617"><ele>1.0</ele><time>2026-05-01T08:49:06.742Z</time></trkpt><trkpt lat="44.49328" lon="12.064035"><ele>1.0</ele><time>2026-05-01T08:49:07.743Z</time></trkpt><trkpt lat="44.4931633" lon="12.064195"><ele>1.6666666666666665</ele><time>2026-05-01T08:49:08.746Z</time></trkpt><trkpt lat="44.49304" lon="12.06434"><ele>2.3333333333333335</ele><time>2026-05-01T08:49:09.742Z</time></trkpt><trkpt lat="44.4929133" lon="12.0644733"><ele>3.0</ele><time>2026-05-01T08:49:10.743Z</time></trkpt><trkpt lat="44.4927783" lon="12.0645983"><ele>3.0</ele><time>2026-05-01T08:49:11.741Z</time></trkpt><trkpt lat="44.4926417" lon="12.0647183"><ele>3.0</ele><time>2026-05-01T08:49:12.756Z</time></trkpt><trkpt lat="44.4925033" lon="12.0648417"><ele>3.0</ele><time>2026-05-01T08:49:13.75Z</time></trkpt><trkpt lat="44.4923583" lon="12.064965"><ele>2.3333333333333335</ele><time>2026-05-01T08:49:14.747Z</time></trkpt><trkpt lat="44.4922117" lon="12.0650867"><ele>1.6666666666666665</ele><time>2026-05-01T08:49:15.755Z</time></trkpt><trkpt lat="44.4920683" lon="12.0652067"><ele>1.0</ele><time>2026-05-01T08:49:16.75Z</time></trkpt><trkpt lat="44.4919267" lon="12.0653283"><ele>0.6666666666666666</ele><time>2026-05-01T08:49:17.743Z</time></trkpt><trkpt lat="44.4917933" lon="12.065445"><ele>0.3333333333333333</ele><time>2026-05-01T08:49:18.748Z</time></trkpt><trkpt lat="44.491665" lon="12.0655583"><ele>0.0</ele><time>2026-05-01T08:49:19.759Z</time></trkpt><trkpt lat="44.4915417" lon="12.065665"><ele>0.0</ele><time>2026-05-01T08:49:20.751Z</time></trkpt><trkpt lat="44.4914217" lon="12.0657683"><ele>0.0</ele><time>2026-05-01T08:49:21.753Z</time></trkpt><trkpt lat="44.491305" lon="12.0658733"><ele>0.0</ele><time>2026-05-01T08:49:22.75Z</time></trkpt><trkpt lat="44.4911783" lon="12.0659883"><ele>0.0</ele><time>2026-05-01T08:49:23.754Z</time></trkpt><trkpt lat="44.4910417" lon="12.06611"><ele>-0.3333333333333333</ele><time>2026-05-01T08:49:24.754Z</time></trkpt><trkpt lat="44.4908917" lon="12.06624"><ele>-0.6666666666666666</ele><time>2026-05-01T08:49:25.749Z</time></trkpt><trkpt lat="44.4907317" lon="12.066375"><ele>-1.0</ele><time>2026-05-01T08:49:26.752Z</time></trkpt><trkpt lat="44.490565" lon="12.066515"><ele>0.0</ele><time>2026-05-01T08:49:27.75Z</time></trkpt><trkpt lat="44.49039" lon="12.0666667"><ele>1.0</ele><time>2026-05-01T08:49:28.743Z</time></trkpt><trkpt lat="44.49021" lon="12.0668233"><ele>2.0</ele><time>2026-05-01T08:49:29.742Z</time></trkpt><trkpt lat="44.4900233" lon="12.0669817"><ele>2.0</ele><time>2026-05-01T08:49:30.776Z</time></trkpt><trkpt lat="44.48983" lon="12.0671433"><ele>2.0</ele><time>2026-05-01T08:49:31.746Z</time></trkpt><trkpt lat="44.489635" lon="12.0673033"><ele>1.5</ele><time>2026-05-01T08:49:32.754Z</time></trkpt><trkpt lat="44.48944" lon="12.0674667"><ele>1.0</ele><time>2026-05-01T08:49:33.755Z</time></trkpt><trkpt lat="44.489245" lon="12.06763"><ele>1.0</ele><time>2026-05-01T08:49:34.753Z</time></trkpt><trkpt lat="44.4890533" lon="12.06779"><ele>1.0</ele><time>2026-05-01T08:49:35.753Z</time></trkpt><trkpt lat="44.488865" lon="12.0679467"><ele>1.0</ele><time>2026-05-01T08:49:36.751Z</time></trkpt><trkpt lat="44.48868" lon="12.0681017"><ele>1.3333333333333333</ele><time>2026-05-01T08:49:37.751Z</time></trkpt><trkpt lat="44.4884983" lon="12.0682483"><ele>1.6666666666666665</ele><time>2026-05-01T08:49:38.753Z</time></trkpt><trkpt lat="44.4883133" lon="12.068385"><ele>2.0</ele><time>2026-05-01T08:49:39.742Z</time></trkpt><trkpt lat="44.4881267" lon="12.0685117"><ele>2.0</ele><time>2026-05-01T08:49:40.742Z</time></trkpt><trkpt lat="44.4879367" lon="12.0686267"><ele>2.0</ele><time>2026-05-01T08:49:41.75Z</time></trkpt><trkpt lat="44.4877483" lon="12.06873"><ele>2.0</ele><time>2026-05-01T08:49:42.756Z</time></trkpt><trkpt lat="44.48756" lon="12.0688233"><ele>1.6666666666666665</ele><time>2026-05-01T08:49:43.749Z</time></trkpt><trkpt lat="44.4873717" lon="12.0689017"><ele>1.3333333333333333</ele><time>2026-05-01T08:49:44.753Z</time></trkpt><trkpt lat="44.48718" lon="12.0689633"><ele>1.0</ele><time>2026-05-01T08:49:45.757Z</time></trkpt><trkpt lat="44.4869883" lon="12.0690033"><ele>1.6666666666666665</ele><time>2026-05-01T08:49:46.744Z</time></trkpt><trkpt lat="44.4867917" lon="12.0690267"><ele>2.3333333333333335</ele><time>2026-05-01T08:49:47.752Z</time></trkpt><trkpt lat="44.4865917" lon="12.0690417"><ele>3.0</ele><time>2026-05-01T08:49:48.755Z</time></trkpt><trkpt lat="44.4863883" lon="12.069055"><ele>3.333333333333333</ele><time>2026-05-01T08:49:49.749Z</time></trkpt><trkpt lat="44.48618" lon="12.0690717"><ele>3.6666666666666665</ele><time>2026-05-01T08:49:50.754Z</time></trkpt><trkpt lat="44.4859717" lon="12.0690867"><ele>4.0</ele><time>2026-05-01T08:49:51.746Z</time></trkpt><trkpt lat="44.4857683" lon="12.069095"><ele>4.0</ele><time>2026-05-01T08:49:52.752Z</time></trkpt><trkpt lat="44.4855667" lon="12.069105"><ele>4.0</ele><time>2026-05-01T08:49:53.754Z</time></trkpt><trkpt lat="44.4853633" lon="12.0691217"><ele>4.0</ele><time>2026-05-01T08:49:54.753Z</time></trkpt><trkpt lat="44.48516" lon="12.0691367"><ele>3.6666666666666665</ele><time>2026-05-01T08:49:55.75Z</time></trkpt><trkpt lat="44.4849583" lon="12.06915"><ele>3.333333333333333</ele><time>2026-05-01T08:49:56.751Z</time></trkpt><trkpt lat="44.4847583" lon="12.0691633"><ele>3.0</ele><time>2026-05-01T08:49:57.756Z</time></trkpt><trkpt lat="44.48456" lon="12.0691767"><ele>3.0</ele><time>2026-05-01T08:49:58.751Z</time></trkpt><trkpt lat="44.484365" lon="12.06919"><ele>3.0</ele><time>2026-05-01T08:49:59.746Z</time></trkpt><trkpt lat="44.484175" lon="12.0692"><ele>3.0</ele><time>2026-05-01T08:50:00.75Z</time></trkpt><trkpt lat="44.48399" lon="12.0692117"><ele>3.0</ele><time>2026-05-01T08:50:01.749Z</time></trkpt><trkpt lat="44.483805" lon="12.0692233"><ele>3.0</ele><time>2026-05-01T08:50:02.752Z</time></trkpt><trkpt lat="44.483615" lon="12.0692317"><ele>3.0</ele><time>2026-05-01T08:50:03.745Z</time></trkpt><trkpt lat="44.4834233" lon="12.0692417"><ele>3.0</ele><time>2026-05-01T08:50:04.749Z</time></trkpt><trkpt lat="44.48323" lon="12.069255"><ele>3.0</ele><time>2026-05-01T08:50:05.743Z</time></trkpt><trkpt lat="44.483035" lon="12.0692683"><ele>3.0</ele><time>2026-05-01T08:50:06.744Z</time></trkpt><trkpt lat="44.4828383" lon="12.0692867"><ele>3.0</ele><time>2026-05-01T08:50:07.752Z</time></trkpt><trkpt lat="44.4826417" lon="12.0693083"><ele>3.0</ele><time>2026-05-01T08:50:08.752Z</time></trkpt><trkpt lat="44.4824417" lon="12.06933"><ele>3.0</ele><time>2026-05-01T08:50:09.749Z</time></trkpt><trkpt lat="44.4822417" lon="12.0693533"><ele>4.0</ele><time>2026-05-01T08:50:10.751Z</time></trkpt><trkpt lat="44.4820417" lon="12.069375"><ele>5.0</ele><time>2026-05-01T08:50:11.743Z</time></trkpt><trkpt lat="44.48184" lon="12.0694"><ele>6.0</ele><time>2026-05-01T08:50:12.75Z</time></trkpt><trkpt lat="44.4816383" lon="12.0694183"><ele>6.0</ele><time>2026-05-01T08:50:13.748Z</time></trkpt><trkpt lat="44.4814383" lon="12.0694367"><ele>6.0</ele><time>2026-05-01T08:50:14.751Z</time></trkpt><trkpt lat="44.4812367" lon="12.069455"><ele>6.0</ele><time>2026-05-01T08:50:15.742Z</time></trkpt><trkpt lat="44.4810367" lon="12.0694717"><ele>6.333333333333334</ele><time>2026-05-01T08:50:16.75Z</time></trkpt><trkpt lat="44.480835" lon="12.0694933"><ele>6.666666666666667</ele><time>2026-05-01T08:50:17.75Z</time></trkpt><trkpt lat="44.4806317" lon="12.0695167"><ele>7.0</ele><time>2026-05-01T08:50:18.748Z</time></trkpt><trkpt lat="44.4804283" lon="12.0695467"><ele>7.0</ele><time>2026-05-01T08:50:19.751Z</time></trkpt><trkpt lat="44.4802233" lon="12.069575"><ele>7.0</ele><time>2026-05-01T08:50:20.751Z</time></trkpt><trkpt lat="44.4800217" lon="12.0696"><ele>7.0</ele><time>2026-05-01T08:50:21.743Z</time></trkpt><trkpt lat="44.4798217" lon="12.0696217"><ele>7.0</ele><time>2026-05-01T08:50:22.746Z</time></trkpt><trkpt lat="44.4796217" lon="12.0696467"><ele>7.0</ele><time>2026-05-01T08:50:23.756Z</time></trkpt><trkpt lat="44.4794233" lon="12.0696767"><ele>7.0</ele><time>2026-05-01T08:50:24.756Z</time></trkpt><trkpt lat="44.4792317" lon="12.0697183"><ele>6.0</ele><time>2026-05-01T08:50:25.749Z</time></trkpt><trkpt lat="44.4790483" lon="12.0697817"><ele>5.0</ele><time>2026-05-01T08:50:26.742Z</time></trkpt><trkpt lat="44.4788717" lon="12.0698733"><ele>4.0</ele><time>2026-05-01T08:50:27.751Z</time></trkpt><trkpt lat="44.478705" lon="12.069995"><ele>3.333333333333333</ele><time>2026-05-01T08:50:28.747Z</time></trkpt><trkpt lat="44.478545" lon="12.07014"><ele>2.6666666666666665</ele><time>2026-05-01T08:50:29.754Z</time></trkpt><trkpt lat="44.4783967" lon="12.0703033"><ele>2.0</ele><time>2026-05-01T08:50:30.759Z</time></trkpt><trkpt lat="44.4782517" lon="12.07048"><ele>2.0</ele><time>2026-05-01T08:50:31.746Z</time></trkpt><trkpt lat="44.47811" lon="12.070665"><ele>2.0</ele><time>2026-05-01T08:50:32.742Z</time></trkpt><trkpt lat="44.4779683" lon="12.0708583"><ele>2.0</ele><time>2026-05-01T08:50:33.743Z</time></trkpt><trkpt lat="44.4778283" lon="12.0710467"><ele>2.6666666666666665</ele><time>2026-05-01T08:50:34.755Z</time></trkpt><trkpt lat="44.4776883" lon="12.0712383"><ele>3.333333333333333</ele><time>2026-05-01T08:50:35.742Z</time></trkpt><trkpt lat="44.4775533" lon="12.0714333"><ele>4.0</ele><time>2026-05-01T08:50:36.753Z</time></trkpt><trkpt lat="44.477425" lon="12.071625"><ele>4.0</ele><time>2026-05-01T08:50:37.749Z</time></trkpt><trkpt lat="44.477305" lon="12.0718233"><ele>4.0</ele><time>2026-05-01T08:50:38.753Z</time></trkpt><trkpt lat="44.4771933" lon="12.07203"><ele>4.0</ele><time>2026-05-01T08:50:39.75Z</time></trkpt><trkpt lat="44.4770967" lon="12.072245"><ele>4.0</ele><time>2026-05-01T08:50:40.749Z</time></trkpt><trkpt lat="44.477015" lon="12.072475"><ele>4.0</ele><time>2026-05-01T08:50:41.752Z</time></trkpt><trkpt lat="44.4769417" lon="12.072715"><ele>4.0</ele><time>2026-05-01T08:50:42.743Z</time></trkpt><trkpt lat="44.4768767" lon="12.07296"><ele>4.0</ele><time>2026-05-01T08:50:43.752Z</time></trkpt><trkpt lat="44.47682" lon="12.0732083"><ele>4.0</ele><time>2026-05-01T08:50:44.755Z</time></trkpt><trkpt lat="44.4767667" lon="12.073455"><ele>4.0</ele><time>2026-05-01T08:50:45.743Z</time></trkpt><trkpt lat="44.476715" lon="12.0736967"><ele>4.0</ele><time>2026-05-01T08:50:46.748Z</time></trkpt><trkpt lat="44.4766617" lon="12.0739333"><ele>4.0</ele><time>2026-05-01T08:50:47.741Z</time></trkpt><trkpt lat="44.4766017" lon="12.07416"><ele>4.0</ele><time>2026-05-01T08:50:48.747Z</time></trkpt><trkpt lat="44.4765317" lon="12.07438"><ele>4.0</ele><time>2026-05-01T08:50:49.748Z</time></trkpt><trkpt lat="44.4764517" lon="12.0745917"><ele>4.0</ele><time>2026-05-01T08:50:50.749Z</time></trkpt><trkpt lat="44.4763567" lon="12.0747917"><ele>4.0</ele><time>2026-05-01T08:50:51.748Z</time></trkpt><trkpt lat="44.4762467" lon="12.0749817"><ele>4.0</ele><time>2026-05-01T08:50:52.749Z</time></trkpt><trkpt lat="44.476125" lon="12.075165"><ele>4.0</ele><time>2026-05-01T08:50:53.752Z</time></trkpt><trkpt lat="44.4760017" lon="12.07535"><ele>4.0</ele><time>2026-05-01T08:50:54.75Z</time></trkpt><trkpt lat="44.4758767" lon="12.075535"><ele>4.0</ele><time>2026-05-01T08:50:55.748Z</time></trkpt><trkpt lat="44.4757483" lon="12.07572"><ele>4.0</ele><time>2026-05-01T08:50:56.754Z</time></trkpt><trkpt lat="44.4756217" lon="12.0759"><ele>4.0</ele><time>2026-05-01T08:50:57.752Z</time></trkpt><trkpt lat="44.475495" lon="12.076085"><ele>4.0</ele><time>2026-05-01T08:50:58.749Z</time></trkpt><trkpt lat="44.47537" lon="12.0762717"><ele>4.0</ele><time>2026-05-01T08:50:59.752Z</time></trkpt><trkpt lat="44.4752433" lon="12.076455"><ele>4.0</ele><time>2026-05-01T08:51:00.751Z</time></trkpt><trkpt lat="44.475115" lon="12.0766383"><ele>4.0</ele><time>2026-05-01T08:51:01.742Z</time></trkpt><trkpt lat="44.4749817" lon="12.076815"><ele>4.0</ele><time>2026-05-01T08:51:02.752Z</time></trkpt><trkpt lat="44.4748467" lon="12.076985"><ele>4.0</ele><time>2026-05-01T08:51:03.742Z</time></trkpt><trkpt lat="44.4747067" lon="12.0771467"><ele>4.0</ele><time>2026-05-01T08:51:04.757Z</time></trkpt><trkpt lat="44.474565" lon="12.0773033"><ele>4.0</ele><time>2026-05-01T08:51:05.75Z</time></trkpt><trkpt lat="44.47442" lon="12.0774533"><ele>4.0</ele><time>2026-05-01T08:51:06.752Z</time></trkpt><trkpt lat="44.4742767" lon="12.0776"><ele>4.333333333333333</ele><time>2026-05-01T08:51:07.748Z</time></trkpt><trkpt lat="44.4741367" lon="12.0777467"><ele>4.666666666666667</ele><time>2026-05-01T08:51:08.753Z</time></trkpt><trkpt lat="44.4739967" lon="12.07789"><ele>5.0</ele><time>2026-05-01T08:51:09.752Z</time></trkpt><trkpt lat="44.4738617" lon="12.0780267"><ele>4.666666666666667</ele><time>2026-05-01T08:51:10.75Z</time></trkpt><trkpt lat="44.4737267" lon="12.07816"><ele>4.333333333333333</ele><time>2026-05-01T08:51:11.751Z</time></trkpt><trkpt lat="44.473595" lon="12.078295"><ele>4.0</ele><time>2026-05-01T08:51:12.753Z</time></trkpt><trkpt lat="44.473465" lon="12.078425"><ele>4.0</ele><time>2026-05-01T08:51:13.749Z</time></trkpt><trkpt lat="44.473335" lon="12.0785483"><ele>4.0</ele><time>2026-05-01T08:51:14.743Z</time></trkpt><trkpt lat="44.473205" lon="12.0786633"><ele>4.0</ele><time>2026-05-01T08:51:15.748Z</time></trkpt><trkpt lat="44.4730733" lon="12.0787733"><ele>4.0</ele><time>2026-05-01T08:51:16.75Z</time></trkpt><trkpt lat="44.4729433" lon="12.0788683"><ele>4.0</ele><time>2026-05-01T08:51:17.75Z</time></trkpt><trkpt lat="44.4728133" lon="12.078955"><ele>4.0</ele><time>2026-05-01T08:51:18.753Z</time></trkpt><trkpt lat="44.4726883" lon="12.0790367"><ele>4.0</ele><time>2026-05-01T08:51:19.75Z</time></trkpt><trkpt lat="44.4725667" lon="12.0791133"><ele>4.25</ele><time>2026-05-01T08:51:20.751Z</time></trkpt><trkpt lat="44.4724517" lon="12.079185"><ele>4.5</ele><time>2026-05-01T08:51:21.749Z</time></trkpt><trkpt lat="44.47234" lon="12.0792583"><ele>4.75</ele><time>2026-05-01T08:51:22.75Z</time></trkpt><trkpt lat="44.47224" lon="12.079325"><ele>5.0</ele><time>2026-05-01T08:51:23.746Z</time></trkpt><trkpt lat="44.4721467" lon="12.0793933"><ele>5.333333333333334</ele><time>2026-05-01T08:51:24.75Z</time></trkpt><trkpt lat="44.4720617" lon="12.07946"><ele>5.666666666666667</ele><time>2026-05-01T08:51:25.752Z</time></trkpt><trkpt lat="44.4719883" lon="12.079525"><ele>6.0</ele><time>2026-05-01T08:51:26.75Z</time></trkpt><trkpt lat="44.47193" lon="12.0795833"><ele>6.333333333333334</ele><time>2026-05-01T08:51:27.751Z</time></trkpt><trkpt lat="44.47185" lon="12.0796567"><ele>6.666666666666667</ele><time>2026-05-01T08:51:29.749Z</time></trkpt><trkpt lat="44.4717833" lon="12.07968"><ele>7.0</ele><time>2026-05-01T08:51:32.751Z</time></trkpt><trkpt lat="44.4718267" lon="12.079615"><ele>7.000000000000001</ele><time>2026-05-01T08:53:42.751Z</time></trkpt><trkpt lat="44.4717929" lon="12.0796968"><ele>7.0</ele><time>2026-05-01T08:54:20.79Z</time></trkpt><trkpt lat="44.4718267" lon="12.0796195"><ele>7.0</ele><time>2026-05-01T08:54:56.748Z</time></trkpt><trkpt lat="44.4717846" lon="12.0796854"><ele>7.0</ele><time>2026-05-01T09:02:56.789Z</time></trkpt><trkpt lat="44.471731" lon="12.079739"><ele>7.000000000000001</ele><time>2026-05-01T09:08:52.745Z</time></trkpt><trkpt lat="44.4716673" lon="12.0797905"><ele>7.0</ele><time>2026-05-01T09:08:55.786Z</time></trkpt><trkpt lat="44.471559" lon="12.0800076"><ele>7.0</ele><time>2026-05-01T09:08:56.745Z</time></trkpt><trkpt lat="44.4714567" lon="12.0801736"><ele>7.0</ele><time>2026-05-01T09:08:57.744Z</time></trkpt><trkpt lat="44.4713709" lon="12.0803031"><ele>7.0</ele><time>2026-05-01T09:08:58.741Z</time></trkpt><trkpt lat="44.4712885" lon="12.08042"><ele>7.0</ele><time>2026-05-01T09:08:59.746Z</time></trkpt><trkpt lat="44.4712072" lon="12.0805411"><ele>7.0</ele><time>2026-05-01T09:09:00.747Z</time></trkpt><trkpt lat="44.4711244" lon="12.0806688"><ele>7.0</ele><time>2026-05-01T09:09:01.751Z</time></trkpt><trkpt lat="44.4710398" lon="12.0808005"><ele>7.0</ele><time>2026-05-01T09:09:02.749Z</time></trkpt><trkpt lat="44.4709529" lon="12.0809369"><ele>7.0</ele><time>2026-05-01T09:09:03.751Z</time></trkpt><trkpt lat="44.4708645" lon="12.0810762"><ele>7.0</ele><time>2026-05-01T09:09:04.75Z</time></trkpt><trkpt lat="44.4707731" lon="12.0812184"><ele>7.0</ele><time>2026-05-01T09:09:05.749Z</time></trkpt><trkpt lat="44.4706798" lon="12.0813543"><ele>7.0</ele><time>2026-05-01T09:09:06.749Z</time></trkpt><trkpt lat="44.4705851" lon="12.0814869"><ele>7.0</ele><time>2026-05-01T09:09:07.742Z</time></trkpt><trkpt lat="44.4704909" lon="12.0816235"><ele>7.25</ele><time>2026-05-01T09:09:08.743Z</time></trkpt><trkpt lat="44.4703998" lon="12.0817624"><ele>7.5</ele><time>2026-05-01T09:09:09.741Z</time></trkpt><trkpt lat="44.4703109" lon="12.0819023"><ele>7.75</ele><time>2026-05-01T09:09:10.741Z</time></trkpt><trkpt lat="44.4702199" lon="12.0820391"><ele>8.0</ele><time>2026-05-01T09:09:11.749Z</time></trkpt><trkpt lat="44.4701327" lon="12.0821756"><ele>8.0</ele><time>2026-05-01T09:09:12.752Z</time></trkpt><trkpt lat="44.4700519" lon="12.0823093"><ele>8.0</ele><time>2026-05-01T09:09:13.746Z</time></trkpt><trkpt lat="44.4699737" lon="12.0824378"><ele>8.0</ele><time>2026-05-01T09:09:14.744Z</time></trkpt><trkpt lat="44.4698908" lon="12.0825502"><ele>8.0</ele><time>2026-05-01T09:09:15.74Z</time></trkpt><trkpt lat="44.4698073" lon="12.0826508"><ele>8.0</ele><time>2026-05-01T09:09:16.751Z</time></trkpt><trkpt lat="44.4697258" lon="12.0827462"><ele>8.0</ele><time>2026-05-01T09:09:17.746Z</time></trkpt><trkpt lat="44.4696458" lon="12.0828389"><ele>8.0</ele><time>2026-05-01T09:09:18.751Z</time></trkpt><trkpt lat="44.4695659" lon="12.082931"><ele>8.0</ele><time>2026-05-01T09:09:19.749Z</time></trkpt><trkpt lat="44.4694802" lon="12.0830269"><ele>8.0</ele><time>2026-05-01T09:09:20.747Z</time></trkpt><trkpt lat="44.4693917" lon="12.0831254"><ele>7.5</ele><time>2026-05-01T09:09:21.75Z</time></trkpt><trkpt lat="44.4693014" lon="12.083227"><ele>7.0</ele><time>2026-05-01T09:09:22.753Z</time></trkpt><trkpt lat="44.4692073" lon="12.0833315"><ele>6.5</ele><time>2026-05-01T09:09:23.741Z</time></trkpt><trkpt lat="44.4691103" lon="12.083443"><ele>6.0</ele><time>2026-05-01T09:09:24.741Z</time></trkpt><trkpt lat="44.4690103" lon="12.0835628"><ele>5.75</ele><time>2026-05-01T09:09:25.751Z</time></trkpt><trkpt lat="44.468913" lon="12.0836821"><ele>5.5</ele><time>2026-05-01T09:09:26.755Z</time></trkpt><trkpt lat="44.4688192" lon="12.0837992"><ele>5.25</ele><time>2026-05-01T09:09:27.749Z</time></trkpt><trkpt lat="44.4687287" lon="12.0839158"><ele>5.0</ele><time>2026-05-01T09:09:28.746Z</time></trkpt><trkpt lat="44.4686433" lon="12.08403"><ele>5.0</ele><time>2026-05-01T09:09:29.742Z</time></trkpt><trkpt lat="44.4685617" lon="12.084145"><ele>5.0</ele><time>2026-05-01T09:09:30.751Z</time></trkpt><trkpt lat="44.46848" lon="12.08426"><ele>5.0</ele><time>2026-05-01T09:09:31.755Z</time></trkpt><trkpt lat="44.4684" lon="12.0843733"><ele>5.0</ele><time>2026-05-01T09:09:32.754Z</time></trkpt><trkpt lat="44.46832" lon="12.084485"><ele>5.0</ele><time>2026-05-01T09:09:33.748Z</time></trkpt><trkpt lat="44.4682383" lon="12.0845917"><ele>5.0</ele><time>2026-05-01T09:09:34.744Z</time></trkpt><trkpt lat="44.4681567" lon="12.0846967"><ele>5.0</ele><time>2026-05-01T09:09:35.751Z</time></trkpt><trkpt lat="44.4680767" lon="12.0848033"><ele>5.0</ele><time>2026-05-01T09:09:36.742Z</time></trkpt><trkpt lat="44.4679967" lon="12.0849167"><ele>5.0</ele><time>2026-05-01T09:09:37.742Z</time></trkpt><trkpt lat="44.4679117" lon="12.0850283"><ele>5.0</ele><time>2026-05-01T09:09:38.749Z</time></trkpt><trkpt lat="44.4678267" lon="12.0851383"><ele>5.0</ele><time>2026-05-01T09:09:39.743Z</time></trkpt><trkpt lat="44.4677483" lon="12.0852483"><ele>5.0</ele><time>2026-05-01T09:09:40.748Z</time></trkpt><trkpt lat="44.467675" lon="12.08536"><ele>5.0</ele><time>2026-05-01T09:09:41.748Z</time></trkpt><trkpt lat="44.4676067" lon="12.0854683"><ele>5.0</ele><time>2026-05-01T09:09:42.746Z</time></trkpt><trkpt lat="44.4675433" lon="12.0855733"><ele>5.0</ele><time>2026-05-01T09:09:43.748Z</time></trkpt><trkpt lat="44.4674817" lon="12.0856767"><ele>5.0</ele><time>2026-05-01T09:09:44.743Z</time></trkpt><trkpt lat="44.4674217" lon="12.0857717"><ele>5.0</ele><time>2026-05-01T09:09:45.744Z</time></trkpt><trkpt lat="44.4673683" lon="12.0858667"><ele>5.0</ele><time>2026-05-01T09:09:46.743Z</time></trkpt><trkpt lat="44.4673167" lon="12.0859617"><ele>5.0</ele><time>2026-05-01T09:09:47.742Z</time></trkpt><trkpt lat="44.46726" lon="12.086065"><ele>5.25</ele><time>2026-05-01T09:09:48.743Z</time></trkpt><trkpt lat="44.4671983" lon="12.0861767"><ele>5.5</ele><time>2026-05-01T09:09:49.742Z</time></trkpt><trkpt lat="44.4671317" lon="12.0863033"><ele>5.75</ele><time>2026-05-01T09:09:50.743Z</time></trkpt><trkpt lat="44.467055" lon="12.0864317"><ele>6.0</ele><time>2026-05-01T09:09:51.743Z</time></trkpt><trkpt lat="44.466975" lon="12.0865633"><ele>5.75</ele><time>2026-05-01T09:09:52.744Z</time></trkpt><trkpt lat="44.466895" lon="12.0866967"><ele>5.5</ele><time>2026-05-01T09:09:53.745Z</time></trkpt><trkpt lat="44.466815" lon="12.086835"><ele>5.25</ele><time>2026-05-01T09:09:54.742Z</time></trkpt><trkpt lat="44.4667283" lon="12.0869783"><ele>5.0</ele><time>2026-05-01T09:09:55.743Z</time></trkpt><trkpt lat="44.46664" lon="12.08712"><ele>5.0</ele><time>2026-05-01T09:09:56.743Z</time></trkpt><trkpt lat="44.4665533" lon="12.08727"><ele>5.0</ele><time>2026-05-01T09:09:57.743Z</time></trkpt><trkpt lat="44.466455" lon="12.0874217"><ele>5.0</ele><time>2026-05-01T09:09:58.743Z</time></trkpt><trkpt lat="44.4663567" lon="12.0875833"><ele>5.0</ele><time>2026-05-01T09:09:59.741Z</time></trkpt><trkpt lat="44.4662567" lon="12.0877517"><ele>4.666666666666667</ele><time>2026-05-01T09:10:00.743Z</time></trkpt><trkpt lat="44.4661533" lon="12.0879183"><ele>4.333333333333333</ele><time>2026-05-01T09:10:01.743Z</time></trkpt><trkpt lat="44.4660467" lon="12.0880967"><ele>4.0</ele><time>2026-05-01T09:10:02.742Z</time></trkpt><trkpt lat="44.4659367" lon="12.0882767"><ele>4.0</ele><time>2026-05-01T09:10:03.741Z</time></trkpt><trkpt lat="44.4658233" lon="12.0884617"><ele>4.0</ele><time>2026-05-01T09:10:04.743Z</time></trkpt><trkpt lat="44.4657117" lon="12.0886483"><ele>4.0</ele><time>2026-05-01T09:10:05.759Z</time></trkpt><trkpt lat="44.4655983" lon="12.0888283"><ele>4.0</ele><time>2026-05-01T09:10:06.759Z</time></trkpt><trkpt lat="44.46549" lon="12.089005"><ele>4.0</ele><time>2026-05-01T09:10:07.752Z</time></trkpt><trkpt lat="44.4653867" lon="12.0891883"><ele>4.0</ele><time>2026-05-01T09:10:08.756Z</time></trkpt><trkpt lat="44.4652767" lon="12.08937"><ele>4.0</ele><time>2026-05-01T09:10:09.747Z</time></trkpt><trkpt lat="44.4651683" lon="12.0895517"><ele>4.0</ele><time>2026-05-01T09:10:10.75Z</time></trkpt><trkpt lat="44.46506" lon="12.0897367"><ele>4.0</ele><time>2026-05-01T09:10:11.749Z</time></trkpt><trkpt lat="44.46495" lon="12.0899217"><ele>4.0</ele><time>2026-05-01T09:10:12.742Z</time></trkpt><trkpt lat="44.46484" lon="12.09011"><ele>4.0</ele><time>2026-05-01T09:10:13.752Z</time></trkpt><trkpt lat="44.4647283" lon="12.0903"><ele>4.0</ele><time>2026-05-01T09:10:14.752Z</time></trkpt><trkpt lat="44.4646167" lon="12.0904883"><ele>4.0</ele><time>2026-05-01T09:10:15.749Z</time></trkpt><trkpt lat="44.4645083" lon="12.0906767"><ele>4.0</ele><time>2026-05-01T09:10:16.748Z</time></trkpt><trkpt lat="44.4644017" lon="12.0908617"><ele>4.0</ele><time>2026-05-01T09:10:17.751Z</time></trkpt><trkpt lat="44.464295" lon="12.0910417"><ele>4.0</ele><time>2026-05-01T09:10:18.751Z</time></trkpt><trkpt lat="44.46419" lon="12.0912233"><ele>4.0</ele><time>2026-05-01T09:10:19.746Z</time></trkpt><trkpt lat="44.4640883" lon="12.0913967"><ele>4.0</ele><time>2026-05-01T09:10:20.746Z</time></trkpt><trkpt lat="44.4639917" lon="12.0915583"><ele>3.75</ele><time>2026-05-01T09:10:21.746Z</time></trkpt><trkpt lat="44.4639033" lon="12.09171"><ele>3.5</ele><time>2026-05-01T09:10:22.743Z</time></trkpt><trkpt lat="44.46382" lon="12.0918567"><ele>3.25</ele><time>2026-05-01T09:10:23.742Z</time></trkpt><trkpt lat="44.4637367" lon="12.0920083"><ele>3.0</ele><time>2026-05-01T09:10:24.748Z</time></trkpt><trkpt lat="44.463655" lon="12.0921667"><ele>3.0</ele><time>2026-05-01T09:10:25.741Z</time></trkpt><trkpt lat="44.4635683" lon="12.09232"><ele>3.0</ele><time>2026-05-01T09:10:26.751Z</time></trkpt><trkpt lat="44.46348" lon="12.092475"><ele>3.0</ele><time>2026-05-01T09:10:27.749Z</time></trkpt><trkpt lat="44.4633933" lon="12.0926217"><ele>3.0</ele><time>2026-05-01T09:10:28.752Z</time></trkpt><trkpt lat="44.463305" lon="12.0927717"><ele>3.0</ele><time>2026-05-01T09:10:29.745Z</time></trkpt><trkpt lat="44.4632117" lon="12.0929317"><ele>3.0</ele><time>2026-05-01T09:10:30.747Z</time></trkpt><trkpt lat="44.46312" lon="12.0930917"><ele>3.0</ele><time>2026-05-01T09:10:31.751Z</time></trkpt><trkpt lat="44.463035" lon="12.0932317"><ele>3.0</ele><time>2026-05-01T09:10:32.751Z</time></trkpt><trkpt lat="44.4629567" lon="12.0933667"><ele>3.0</ele><time>2026-05-01T09:10:33.748Z</time></trkpt><trkpt lat="44.46288" lon="12.093505"><ele>3.0</ele><time>2026-05-01T09:10:34.752Z</time></trkpt><trkpt lat="44.462795" lon="12.0936483"><ele>3.0</ele><time>2026-05-01T09:10:35.748Z</time></trkpt><trkpt lat="44.4627083" lon="12.0937967"><ele>3.0</ele><time>2026-05-01T09:10:36.749Z</time></trkpt><trkpt lat="44.462615" lon="12.093955"><ele>3.0</ele><time>2026-05-01T09:10:37.741Z</time></trkpt><trkpt lat="44.46252" lon="12.0941167"><ele>3.0</ele><time>2026-05-01T09:10:38.744Z</time></trkpt><trkpt lat="44.4624217" lon="12.09428"><ele>3.0</ele><time>2026-05-01T09:10:39.752Z</time></trkpt><trkpt lat="44.4623233" lon="12.0944433"><ele>3.0</ele><time>2026-05-01T09:10:40.749Z</time></trkpt><trkpt lat="44.4622283" lon="12.0946117"><ele>3.0</ele><time>2026-05-01T09:10:41.749Z</time></trkpt><trkpt lat="44.4621283" lon="12.094785"><ele>3.0</ele><time>2026-05-01T09:10:42.741Z</time></trkpt><trkpt lat="44.4620317" lon="12.0949467"><ele>3.0</ele><time>2026-05-01T09:10:43.748Z</time></trkpt><trkpt lat="44.4619367" lon="12.09511"><ele>3.0</ele><time>2026-05-01T09:10:44.751Z</time></trkpt><trkpt lat="44.4618433" lon="12.0952733"><ele>3.0</ele><time>2026-05-01T09:10:45.751Z</time></trkpt><trkpt lat="44.46175" lon="12.095435"><ele>3.0</ele><time>2026-05-01T09:10:46.746Z</time></trkpt><trkpt lat="44.461655" lon="12.0956"><ele>3.333333333333333</ele><time>2026-05-01T09:10:47.749Z</time></trkpt><trkpt lat="44.4615617" lon="12.0957717"><ele>3.6666666666666665</ele><time>2026-05-01T09:10:48.751Z</time></trkpt><trkpt lat="44.461465" lon="12.0959367"><ele>4.0</ele><time>2026-05-01T09:10:49.75Z</time></trkpt><trkpt lat="44.4613633" lon="12.09611"><ele>4.0</ele><time>2026-05-01T09:10:50.751Z</time></trkpt><trkpt lat="44.4612667" lon="12.0962867"><ele>4.0</ele><time>2026-05-01T09:10:51.747Z</time></trkpt><trkpt lat="44.4611667" lon="12.0964617"><ele>4.0</ele><time>2026-05-01T09:10:52.749Z</time></trkpt><trkpt lat="44.4610683" lon="12.096635"><ele>3.6666666666666665</ele><time>2026-05-01T09:10:53.75Z</time></trkpt><trkpt lat="44.4609683" lon="12.0968067"><ele>3.333333333333333</ele><time>2026-05-01T09:10:54.741Z</time></trkpt><trkpt lat="44.4608683" lon="12.0969817"><ele>3.0</ele><time>2026-05-01T09:10:55.744Z</time></trkpt><trkpt lat="44.460765" lon="12.0971583"><ele>3.0</ele><time>2026-05-01T09:10:56.743Z</time></trkpt><trkpt lat="44.460665" lon="12.0973367"><ele>3.0</ele><time>2026-05-01T09:10:57.749Z</time></trkpt><trkpt lat="44.460565" lon="12.0975167"><ele>3.0</ele><time>2026-05-01T09:10:58.754Z</time></trkpt><trkpt lat="44.4604633" lon="12.0976933"><ele>2.6666666666666665</ele><time>2026-05-01T09:10:59.747Z</time></trkpt><trkpt lat="44.4603567" lon="12.09787"><ele>2.333333333333333</ele><time>2026-05-01T09:11:00.752Z</time></trkpt><trkpt lat="44.4602517" lon="12.098045"><ele>2.0</ele><time>2026-05-01T09:11:01.752Z</time></trkpt><trkpt lat="44.460145" lon="12.0982317"><ele>1.6666666666666665</ele><time>2026-05-01T09:11:02.752Z</time></trkpt><trkpt lat="44.4600417" lon="12.098415"><ele>1.3333333333333333</ele><time>2026-05-01T09:11:03.75Z</time></trkpt><trkpt lat="44.4599417" lon="12.0985883"><ele>1.0</ele><time>2026-05-01T09:11:04.751Z</time></trkpt><trkpt lat="44.4598433" lon="12.09876"><ele>1.0</ele><time>2026-05-01T09:11:05.742Z</time></trkpt><trkpt lat="44.4597483" lon="12.0989333"><ele>1.0</ele><time>2026-05-01T09:11:06.75Z</time></trkpt><trkpt lat="44.4596583" lon="12.0990867"><ele>1.0</ele><time>2026-05-01T09:11:07.749Z</time></trkpt><trkpt lat="44.4595633" lon="12.0992417"><ele>1.0</ele><time>2026-05-01T09:11:08.752Z</time></trkpt><trkpt lat="44.4594667" lon="12.0994033"><ele>1.6666666666666665</ele><time>2026-05-01T09:11:09.742Z</time></trkpt><trkpt lat="44.45937" lon="12.09957"><ele>2.3333333333333335</ele><time>2026-05-01T09:11:10.751Z</time></trkpt><trkpt lat="44.4592733" lon="12.0997383"><ele>3.0</ele><time>2026-05-01T09:11:11.75Z</time></trkpt><trkpt lat="44.45918" lon="12.099905"><ele>2.6666666666666665</ele><time>2026-05-01T09:11:12.748Z</time></trkpt><trkpt lat="44.459085" lon="12.1000767"><ele>2.333333333333333</ele><time>2026-05-01T09:11:13.748Z</time></trkpt><trkpt lat="44.4589833" lon="12.1002533"><ele>2.0</ele><time>2026-05-01T09:11:14.75Z</time></trkpt><trkpt lat="44.4588783" lon="12.1004367"><ele>2.0</ele><time>2026-05-01T09:11:15.748Z</time></trkpt><trkpt lat="44.4587717" lon="12.100625"><ele>2.0</ele><time>2026-05-01T09:11:16.746Z</time></trkpt><trkpt lat="44.458665" lon="12.1008117"><ele>2.0</ele><time>2026-05-01T09:11:17.754Z</time></trkpt><trkpt lat="44.458555" lon="12.101"><ele>2.0</ele><time>2026-05-01T09:11:18.751Z</time></trkpt><trkpt lat="44.4584467" lon="12.1011933"><ele>2.0</ele><time>2026-05-01T09:11:19.748Z</time></trkpt><trkpt lat="44.4583367" lon="12.1013883"><ele>2.0</ele><time>2026-05-01T09:11:20.751Z</time></trkpt><trkpt lat="44.458225" lon="12.10159"><ele>2.0</ele><time>2026-05-01T09:11:21.748Z</time></trkpt><trkpt lat="44.458115" lon="12.101805"><ele>2.0</ele><time>2026-05-01T09:11:22.746Z</time></trkpt><trkpt lat="44.4579933" lon="12.1020067"><ele>2.0</ele><time>2026-05-01T09:11:23.751Z</time></trkpt><trkpt lat="44.4578717" lon="12.1022133"><ele>2.0</ele><time>2026-05-01T09:11:24.755Z</time></trkpt><trkpt lat="44.4577483" lon="12.10242"><ele>2.0</ele><time>2026-05-01T09:11:25.744Z</time></trkpt><trkpt lat="44.4576267" lon="12.1026267"><ele>2.0</ele><time>2026-05-01T09:11:26.743Z</time></trkpt><trkpt lat="44.457505" lon="12.1028267"><ele>2.0</ele><time>2026-05-01T09:11:27.75Z</time></trkpt><trkpt lat="44.4573867" lon="12.1030283"><ele>2.0</ele><time>2026-05-01T09:11:28.751Z</time></trkpt><trkpt lat="44.4572717" lon="12.1032233"><ele>2.0</ele><time>2026-05-01T09:11:29.753Z</time></trkpt><trkpt lat="44.4571633" lon="12.1034083"><ele>2.0</ele><time>2026-05-01T09:11:30.749Z</time></trkpt><trkpt lat="44.4570617" lon="12.1035767"><ele>2.0</ele><time>2026-05-01T09:11:31.742Z</time></trkpt><trkpt lat="44.4569683" lon="12.1037283"><ele>2.0</ele><time>2026-05-01T09:11:32.75Z</time></trkpt><trkpt lat="44.4568883" lon="12.10386"><ele>2.0</ele><time>2026-05-01T09:11:33.749Z</time></trkpt><trkpt lat="44.4568183" lon="12.10398"><ele>1.9999999999999998</ele><time>2026-05-01T09:11:34.749Z</time></trkpt><trkpt lat="44.4567517" lon="12.1040967"><ele>2.0</ele><time>2026-05-01T09:11:35.749Z</time></trkpt><trkpt lat="44.456695" lon="12.1041917"><ele>2.0</ele><time>2026-05-01T09:11:36.746Z</time></trkpt><trkpt lat="44.456645" lon="12.1042717"><ele>2.0</ele><time>2026-05-01T09:11:37.747Z</time></trkpt><trkpt lat="44.4566033" lon="12.1043533"><ele>1.9999999999999998</ele><time>2026-05-01T09:11:38.756Z</time></trkpt><trkpt lat="44.4565617" lon="12.10443"><ele>2.0</ele><time>2026-05-01T09:11:39.749Z</time></trkpt><trkpt lat="44.4565133" lon="12.1045183"><ele>2.0</ele><time>2026-05-01T09:11:40.748Z</time></trkpt><trkpt lat="44.4564517" lon="12.1046283"><ele>2.0</ele><time>2026-05-01T09:11:41.748Z</time></trkpt><trkpt lat="44.45638" lon="12.1047633"><ele>2.0</ele><time>2026-05-01T09:11:42.749Z</time></trkpt><trkpt lat="44.4563" lon="12.10491"><ele>2.0</ele><time>2026-05-01T09:11:43.741Z</time></trkpt><trkpt lat="44.45621" lon="12.1050717"><ele>2.0</ele><time>2026-05-01T09:11:44.742Z</time></trkpt><trkpt lat="44.456115" lon="12.105235"><ele>2.0</ele><time>2026-05-01T09:11:45.751Z</time></trkpt><trkpt lat="44.4560133" lon="12.1054133"><ele>2.0</ele><time>2026-05-01T09:11:46.745Z</time></trkpt><trkpt lat="44.4559067" lon="12.1055983"><ele>2.333333333333333</ele><time>2026-05-01T09:11:47.741Z</time></trkpt><trkpt lat="44.4557967" lon="12.1057933"><ele>2.6666666666666665</ele><time>2026-05-01T09:11:48.742Z</time></trkpt><trkpt lat="44.4556833" lon="12.1059933"><ele>3.0</ele><time>2026-05-01T09:11:49.742Z</time></trkpt><trkpt lat="44.455565" lon="12.106195"><ele>3.0</ele><time>2026-05-01T09:11:50.753Z</time></trkpt><trkpt lat="44.4554417" lon="12.1063983"><ele>3.0</ele><time>2026-05-01T09:11:51.755Z</time></trkpt><trkpt lat="44.45532" lon="12.106605"><ele>3.0</ele><time>2026-05-01T09:11:52.752Z</time></trkpt><trkpt lat="44.4551983" lon="12.106815"><ele>2.6666666666666665</ele><time>2026-05-01T09:11:53.754Z</time></trkpt><trkpt lat="44.455075" lon="12.10703"><ele>2.333333333333333</ele><time>2026-05-01T09:11:54.749Z</time></trkpt><trkpt lat="44.4549483" lon="12.107245"><ele>2.0</ele><time>2026-05-01T09:11:55.75Z</time></trkpt><trkpt lat="44.454825" lon="12.10746"><ele>1.6666666666666665</ele><time>2026-05-01T09:11:56.756Z</time></trkpt><trkpt lat="44.4547033" lon="12.1076767"><ele>1.3333333333333333</ele><time>2026-05-01T09:11:57.753Z</time></trkpt><trkpt lat="44.45459" lon="12.1079"><ele>1.0</ele><time>2026-05-01T09:11:58.75Z</time></trkpt><trkpt lat="44.4544833" lon="12.1081283"><ele>1.0</ele><time>2026-05-01T09:11:59.75Z</time></trkpt><trkpt lat="44.45438" lon="12.1083583"><ele>1.0</ele><time>2026-05-01T09:12:00.75Z</time></trkpt><trkpt lat="44.4542817" lon="12.1085917"><ele>1.0</ele><time>2026-05-01T09:12:01.751Z</time></trkpt><trkpt lat="44.454185" lon="12.108825"><ele>1.0</ele><time>2026-05-01T09:12:02.751Z</time></trkpt><trkpt lat="44.4540883" lon="12.10906"><ele>1.0</ele><time>2026-05-01T09:12:03.742Z</time></trkpt><trkpt lat="44.453995" lon="12.1092983"><ele>1.0</ele><time>2026-05-01T09:12:04.753Z</time></trkpt><trkpt lat="44.4539" lon="12.1095383"><ele>1.0</ele><time>2026-05-01T09:12:05.742Z</time></trkpt><trkpt lat="44.453805" lon="12.1097767"><ele>1.0</ele><time>2026-05-01T09:12:06.743Z</time></trkpt><trkpt lat="44.4537117" lon="12.1100167"><ele>1.0</ele><time>2026-05-01T09:12:07.753Z</time></trkpt><trkpt lat="44.4536183" lon="12.110255"><ele>1.0</ele><time>2026-05-01T09:12:08.752Z</time></trkpt><trkpt lat="44.453525" lon="12.110495"><ele>1.0</ele><time>2026-05-01T09:12:09.751Z</time></trkpt><trkpt lat="44.45343" lon="12.110735"><ele>1.0</ele><time>2026-05-01T09:12:10.748Z</time></trkpt><trkpt lat="44.4533367" lon="12.110975"><ele>1.0</ele><time>2026-05-01T09:12:11.746Z</time></trkpt><trkpt lat="44.4532467" lon="12.1112133"><ele>1.0</ele><time>2026-05-01T09:12:12.744Z</time></trkpt><trkpt lat="44.4531533" lon="12.1114533"><ele>1.0</ele><time>2026-05-01T09:12:13.752Z</time></trkpt><trkpt lat="44.4530583" lon="12.1116883"><ele>0.3333333333333333</ele><time>2026-05-01T09:12:14.75Z</time></trkpt><trkpt lat="44.4529667" lon="12.1119233"><ele>-0.3333333333333333</ele><time>2026-05-01T09:12:15.746Z</time></trkpt><trkpt lat="44.4528767" lon="12.1121517"><ele>-1.0</ele><time>2026-05-01T09:12:16.755Z</time></trkpt><trkpt lat="44.452785" lon="12.1123817"><ele>-1.0</ele><time>2026-05-01T09:12:17.756Z</time></trkpt><trkpt lat="44.4526967" lon="12.1126067"><ele>-1.0</ele><time>2026-05-01T09:12:18.757Z</time></trkpt><trkpt lat="44.4526017" lon="12.1128317"><ele>-1.0</ele><time>2026-05-01T09:12:19.757Z</time></trkpt><trkpt lat="44.4525083" lon="12.1130567"><ele>-1.0</ele><time>2026-05-01T09:12:20.751Z</time></trkpt><trkpt lat="44.4524183" lon="12.1132783"><ele>-1.0</ele><time>2026-05-01T09:12:21.748Z</time></trkpt><trkpt lat="44.4523333" lon="12.1134933"><ele>-1.0</ele><time>2026-05-01T09:12:22.755Z</time></trkpt><trkpt lat="44.45225" lon="12.1137133"><ele>-1.0</ele><time>2026-05-01T09:12:23.752Z</time></trkpt><trkpt lat="44.452165" lon="12.1139417"><ele>-1.0</ele><time>2026-05-01T09:12:24.75Z</time></trkpt><trkpt lat="44.4520733" lon="12.1141733"><ele>-1.0</ele><time>2026-05-01T09:12:25.747Z</time></trkpt><trkpt lat="44.4519783" lon="12.1144083"><ele>-1.0</ele><time>2026-05-01T09:12:26.752Z</time></trkpt><trkpt lat="44.4518817" lon="12.114645"><ele>-1.0</ele><time>2026-05-01T09:12:27.753Z</time></trkpt><trkpt lat="44.4517833" lon="12.1148867"><ele>-1.0</ele><time>2026-05-01T09:12:28.751Z</time></trkpt><trkpt lat="44.4516833" lon="12.1151267"><ele>-1.0</ele><time>2026-05-01T09:12:29.747Z</time></trkpt><trkpt lat="44.4515833" lon="12.1153683"><ele>-1.0</ele><time>2026-05-01T09:12:30.747Z</time></trkpt><trkpt lat="44.451482" lon="12.115611"><ele>-1.0</ele><time>2026-05-01T09:12:31.75Z</time></trkpt><trkpt lat="44.451383" lon="12.1158525"><ele>-0.6666666666666666</ele><time>2026-05-01T09:12:32.742Z</time></trkpt><trkpt lat="44.4512834" lon="12.116099"><ele>-0.3333333333333333</ele><time>2026-05-01T09:12:33.749Z</time></trkpt><trkpt lat="44.4511851" lon="12.1163449"><ele>0.0</ele><time>2026-05-01T09:12:34.75Z</time></trkpt><trkpt lat="44.4510869" lon="12.1165921"><ele>0.0</ele><time>2026-05-01T09:12:35.757Z</time></trkpt><trkpt lat="44.4509894" lon="12.116837"><ele>0.0</ele><time>2026-05-01T09:12:36.751Z</time></trkpt><trkpt lat="44.4508913" lon="12.1170834"><ele>0.0</ele><time>2026-05-01T09:12:37.75Z</time></trkpt><trkpt lat="44.4507935" lon="12.1173299"><ele>-0.3333333333333333</ele><time>2026-05-01T09:12:38.75Z</time></trkpt><trkpt lat="44.4506965" lon="12.1175768"><ele>-0.6666666666666666</ele><time>2026-05-01T09:12:39.752Z</time></trkpt><trkpt lat="44.4505996" lon="12.1178237"><ele>-1.0</ele><time>2026-05-01T09:12:40.753Z</time></trkpt><trkpt lat="44.4505023" lon="12.1180708"><ele>-0.6666666666666666</ele><time>2026-05-01T09:12:41.753Z</time></trkpt><trkpt lat="44.4504054" lon="12.1183168"><ele>-0.3333333333333333</ele><time>2026-05-01T09:12:42.756Z</time></trkpt><trkpt lat="44.4503095" lon="12.118559"><ele>0.0</ele><time>2026-05-01T09:12:43.75Z</time></trkpt><trkpt lat="44.450213" lon="12.1188011"><ele>0.0</ele><time>2026-05-01T09:12:44.746Z</time></trkpt><trkpt lat="44.4501147" lon="12.1190407"><ele>0.0</ele><time>2026-05-01T09:12:45.747Z</time></trkpt><trkpt lat="44.4500182" lon="12.1192779"><ele>0.0</ele><time>2026-05-01T09:12:46.751Z</time></trkpt><trkpt lat="44.4499256" lon="12.1195115"><ele>0.0</ele><time>2026-05-01T09:12:47.752Z</time></trkpt><trkpt lat="44.4498359" lon="12.1197466"><ele>0.0</ele><time>2026-05-01T09:12:48.751Z</time></trkpt><trkpt lat="44.4497458" lon="12.1199816"><ele>0.0</ele><time>2026-05-01T09:12:49.751Z</time></trkpt><trkpt lat="44.4496545" lon="12.1202146"><ele>0.0</ele><time>2026-05-01T09:12:50.751Z</time></trkpt><trkpt lat="44.449562" lon="12.1204437"><ele>0.0</ele><time>2026-05-01T09:12:51.742Z</time></trkpt><trkpt lat="44.4494686" lon="12.1206751"><ele>0.0</ele><time>2026-05-01T09:12:52.751Z</time></trkpt><trkpt lat="44.4493772" lon="12.1209042"><ele>0.3333333333333333</ele><time>2026-05-01T09:12:53.752Z</time></trkpt><trkpt lat="44.4492868" lon="12.1211339"><ele>0.6666666666666666</ele><time>2026-05-01T09:12:54.748Z</time></trkpt><trkpt lat="44.4491935" lon="12.1213647"><ele>1.0</ele><time>2026-05-01T09:12:55.752Z</time></trkpt><trkpt lat="44.4491009" lon="12.1215946"><ele>1.0</ele><time>2026-05-01T09:12:56.752Z</time></trkpt><trkpt lat="44.449008" lon="12.1218256"><ele>1.0</ele><time>2026-05-01T09:12:57.75Z</time></trkpt><trkpt lat="44.4489146" lon="12.1220569"><ele>1.0</ele><time>2026-05-01T09:12:58.744Z</time></trkpt><trkpt lat="44.4488202" lon="12.1222907"><ele>1.3333333333333333</ele><time>2026-05-01T09:12:59.752Z</time></trkpt><trkpt lat="44.4487265" lon="12.1225243"><ele>1.6666666666666665</ele><time>2026-05-01T09:13:00.753Z</time></trkpt><trkpt lat="44.4486329" lon="12.1227587"><ele>2.0</ele><time>2026-05-01T09:13:01.747Z</time></trkpt><trkpt lat="44.4485396" lon="12.1229955"><ele>1.6666666666666665</ele><time>2026-05-01T09:13:02.744Z</time></trkpt><trkpt lat="44.4484455" lon="12.1232345"><ele>1.3333333333333333</ele><time>2026-05-01T09:13:03.753Z</time></trkpt><trkpt lat="44.4483508" lon="12.1234729"><ele>1.0</ele><time>2026-05-01T09:13:04.748Z</time></trkpt><trkpt lat="44.4482548" lon="12.1237139"><ele>1.0</ele><time>2026-05-01T09:13:05.749Z</time></trkpt><trkpt lat="44.4481613" lon="12.1239565"><ele>1.0</ele><time>2026-05-01T09:13:06.742Z</time></trkpt><trkpt lat="44.4480671" lon="12.124203"><ele>1.0</ele><time>2026-05-01T09:13:07.751Z</time></trkpt><trkpt lat="44.4479725" lon="12.1244455"><ele>1.0</ele><time>2026-05-01T09:13:08.743Z</time></trkpt><trkpt lat="44.4478749" lon="12.1246921"><ele>1.0</ele><time>2026-05-01T09:13:09.751Z</time></trkpt><trkpt lat="44.4477784" lon="12.1249374"><ele>1.0</ele><time>2026-05-01T09:13:10.75Z</time></trkpt><trkpt lat="44.4476825" lon="12.1251858"><ele>1.0</ele><time>2026-05-01T09:13:11.752Z</time></trkpt><trkpt lat="44.4475875" lon="12.1254305"><ele>1.0</ele><time>2026-05-01T09:13:12.745Z</time></trkpt><trkpt lat="44.4474905" lon="12.1256768"><ele>1.0</ele><time>2026-05-01T09:13:13.746Z</time></trkpt><trkpt lat="44.4473927" lon="12.125923"><ele>1.0</ele><time>2026-05-01T09:13:14.743Z</time></trkpt><trkpt lat="44.4472922" lon="12.1261723"><ele>1.0</ele><time>2026-05-01T09:13:15.745Z</time></trkpt><trkpt lat="44.4471917" lon="12.1264225"><ele>1.0</ele><time>2026-05-01T09:13:16.748Z</time></trkpt><trkpt lat="44.4470915" lon="12.1266722"><ele>1.0</ele><time>2026-05-01T09:13:17.745Z</time></trkpt><trkpt lat="44.4469913" lon="12.1269234"><ele>1.0</ele><time>2026-05-01T09:13:18.742Z</time></trkpt><trkpt lat="44.4468897" lon="12.1271731"><ele>1.0</ele><time>2026-05-01T09:13:19.744Z</time></trkpt><trkpt lat="44.446785" lon="12.1274236"><ele>0.3333333333333333</ele><time>2026-05-01T09:13:20.753Z</time></trkpt><trkpt lat="44.4466853" lon="12.127674"><ele>-0.3333333333333333</ele><time>2026-05-01T09:13:21.749Z</time></trkpt><trkpt lat="44.4465858" lon="12.1279329"><ele>-1.0</ele><time>2026-05-01T09:13:22.749Z</time></trkpt><trkpt lat="44.446486" lon="12.1281978"><ele>-1.0</ele><time>2026-05-01T09:13:23.751Z</time></trkpt><trkpt lat="44.4463857" lon="12.1284632"><ele>-1.0</ele><time>2026-05-01T09:13:24.751Z</time></trkpt><trkpt lat="44.4462859" lon="12.1287188"><ele>-1.0</ele><time>2026-05-01T09:13:25.743Z</time></trkpt><trkpt lat="44.4461875" lon="12.1289681"><ele>-1.0</ele><time>2026-05-01T09:13:26.757Z</time></trkpt><trkpt lat="44.4460878" lon="12.1292159"><ele>-1.0</ele><time>2026-05-01T09:13:27.743Z</time></trkpt><trkpt lat="44.4459843" lon="12.1294742"><ele>-1.0</ele><time>2026-05-01T09:13:28.75Z</time></trkpt><trkpt lat="44.4458791" lon="12.1297311"><ele>-0.6666666666666666</ele><time>2026-05-01T09:13:29.748Z</time></trkpt><trkpt lat="44.44577" lon="12.1299917"><ele>-0.3333333333333333</ele><time>2026-05-01T09:13:30.752Z</time></trkpt><trkpt lat="44.4456667" lon="12.13025"><ele>0.0</ele><time>2026-05-01T09:13:31.747Z</time></trkpt><trkpt lat="44.44556" lon="12.13051"><ele>0.0</ele><time>2026-05-01T09:13:32.751Z</time></trkpt><trkpt lat="44.445455" lon="12.1307667"><ele>0.0</ele><time>2026-05-01T09:13:33.756Z</time></trkpt><trkpt lat="44.4453517" lon="12.1310233"><ele>0.0</ele><time>2026-05-01T09:13:34.742Z</time></trkpt><trkpt lat="44.4452467" lon="12.1312817"><ele>0.0</ele><time>2026-05-01T09:13:35.751Z</time></trkpt><trkpt lat="44.4451417" lon="12.13153"><ele>0.0</ele><time>2026-05-01T09:13:36.756Z</time></trkpt><trkpt lat="44.4450383" lon="12.1317817"><ele>0.0</ele><time>2026-05-01T09:13:37.757Z</time></trkpt><trkpt lat="44.4449367" lon="12.1320217"><ele>0.0</ele><time>2026-05-01T09:13:38.743Z</time></trkpt><trkpt lat="44.444825" lon="12.132245"><ele>0.0</ele><time>2026-05-01T09:13:39.751Z</time></trkpt><trkpt lat="44.4447" lon="12.1324567"><ele>0.0</ele><time>2026-05-01T09:13:40.75Z</time></trkpt><trkpt lat="44.4445683" lon="12.13265"><ele>1.0</ele><time>2026-05-01T09:13:41.752Z</time></trkpt><trkpt lat="44.4444283" lon="12.132835"><ele>2.0</ele><time>2026-05-01T09:13:42.754Z</time></trkpt><trkpt lat="44.4442883" lon="12.1330217"><ele>3.0</ele><time>2026-05-01T09:13:43.749Z</time></trkpt><trkpt lat="44.4441517" lon="12.1332133"><ele>3.0</ele><time>2026-05-01T09:13:44.755Z</time></trkpt><trkpt lat="44.4440133" lon="12.1334017"><ele>3.0</ele><time>2026-05-01T09:13:45.756Z</time></trkpt><trkpt lat="44.443875" lon="12.13359"><ele>3.0</ele><time>2026-05-01T09:13:46.751Z</time></trkpt><trkpt lat="44.4437367" lon="12.1337833"><ele>2.6666666666666665</ele><time>2026-05-01T09:13:47.751Z</time></trkpt><trkpt lat="44.443595" lon="12.1339783"><ele>2.333333333333333</ele><time>2026-05-01T09:13:48.751Z</time></trkpt><trkpt lat="44.443455" lon="12.134175"><ele>2.0</ele><time>2026-05-01T09:13:49.744Z</time></trkpt><trkpt lat="44.4433117" lon="12.1343733"><ele>1.6666666666666665</ele><time>2026-05-01T09:13:50.744Z</time></trkpt><trkpt lat="44.4431667" lon="12.1345667"><ele>1.3333333333333333</ele><time>2026-05-01T09:13:51.749Z</time></trkpt><trkpt lat="44.4430233" lon="12.134765"><ele>1.0</ele><time>2026-05-01T09:13:52.748Z</time></trkpt><trkpt lat="44.4428767" lon="12.13497"><ele>1.0</ele><time>2026-05-01T09:13:53.743Z</time></trkpt><trkpt lat="44.4427283" lon="12.1351683"><ele>1.0</ele><time>2026-05-01T09:13:54.744Z</time></trkpt><trkpt lat="44.44258" lon="12.1353783"><ele>1.0</ele><time>2026-05-01T09:13:55.747Z</time></trkpt><trkpt lat="44.442435" lon="12.1355783"><ele>1.0</ele><time>2026-05-01T09:13:56.751Z</time></trkpt><trkpt lat="44.44228" lon="12.1357783"><ele>1.0</ele><time>2026-05-01T09:13:57.753Z</time></trkpt><trkpt lat="44.44213" lon="12.1359717"><ele>1.0</ele><time>2026-05-01T09:13:58.75Z</time></trkpt><trkpt lat="44.4419817" lon="12.1361817"><ele>1.0</ele><time>2026-05-01T09:13:59.744Z</time></trkpt><trkpt lat="44.4418267" lon="12.13638"><ele>1.0</ele><time>2026-05-01T09:14:00.759Z</time></trkpt><trkpt lat="44.4416817" lon="12.1365917"><ele>1.0</ele><time>2026-05-01T09:14:01.742Z</time></trkpt><trkpt lat="44.4415417" lon="12.136785"><ele>1.0</ele><time>2026-05-01T09:14:02.747Z</time></trkpt><trkpt lat="44.441405" lon="12.1369683"><ele>1.0</ele><time>2026-05-01T09:14:03.753Z</time></trkpt><trkpt lat="44.44127" lon="12.1371517"><ele>1.0</ele><time>2026-05-01T09:14:04.753Z</time></trkpt><trkpt lat="44.4411333" lon="12.13733"><ele>0.6666666666666666</ele><time>2026-05-01T09:14:05.742Z</time></trkpt><trkpt lat="44.4409983" lon="12.1375067"><ele>0.3333333333333333</ele><time>2026-05-01T09:14:06.751Z</time></trkpt><trkpt lat="44.440865" lon="12.1376833"><ele>0.0</ele><time>2026-05-01T09:14:07.75Z</time></trkpt><trkpt lat="44.440735" lon="12.1378633"><ele>0.0</ele><time>2026-05-01T09:14:08.751Z</time></trkpt><trkpt lat="44.4406033" lon="12.1380417"><ele>0.0</ele><time>2026-05-01T09:14:09.743Z</time></trkpt><trkpt lat="44.44047" lon="12.1382183"><ele>0.0</ele><time>2026-05-01T09:14:10.749Z</time></trkpt><trkpt lat="44.440335" lon="12.1383917"><ele>0.0</ele><time>2026-05-01T09:14:11.75Z</time></trkpt><trkpt lat="44.4402017" lon="12.1385767"><ele>0.0</ele><time>2026-05-01T09:14:12.743Z</time></trkpt><trkpt lat="44.44007" lon="12.1387533"><ele>0.0</ele><time>2026-05-01T09:14:13.753Z</time></trkpt><trkpt lat="44.4399383" lon="12.1389383"><ele>0.0</ele><time>2026-05-01T09:14:14.751Z</time></trkpt><trkpt lat="44.4398083" lon="12.1391183"><ele>0.0</ele><time>2026-05-01T09:14:15.751Z</time></trkpt><trkpt lat="44.43967" lon="12.1393033"><ele>0.0</ele><time>2026-05-01T09:14:16.749Z</time></trkpt><trkpt lat="44.4395367" lon="12.1394967"><ele>0.0</ele><time>2026-05-01T09:14:17.752Z</time></trkpt><trkpt lat="44.4393967" lon="12.139695"><ele>0.0</ele><time>2026-05-01T09:14:18.752Z</time></trkpt><trkpt lat="44.4392467" lon="12.1399"><ele>0.0</ele><time>2026-05-01T09:14:19.749Z</time></trkpt><trkpt lat="44.43909" lon="12.1401033"><ele>0.0</ele><time>2026-05-01T09:14:20.756Z</time></trkpt><trkpt lat="44.4389333" lon="12.1403117"><ele>0.0</ele><time>2026-05-01T09:14:21.743Z</time></trkpt><trkpt lat="44.4387767" lon="12.140515"><ele>0.0</ele><time>2026-05-01T09:14:22.756Z</time></trkpt><trkpt lat="44.4386167" lon="12.1407217"><ele>0.0</ele><time>2026-05-01T09:14:23.746Z</time></trkpt><trkpt lat="44.43846" lon="12.14093"><ele>0.0</ele><time>2026-05-01T09:14:24.744Z</time></trkpt><trkpt lat="44.4383" lon="12.141145"><ele>0.0</ele><time>2026-05-01T09:14:25.757Z</time></trkpt><trkpt lat="44.43813" lon="12.1413783"><ele>-0.5</ele><time>2026-05-01T09:14:26.753Z</time></trkpt><trkpt lat="44.437955" lon="12.1416133"><ele>-1.0</ele><time>2026-05-01T09:14:27.751Z</time></trkpt><trkpt lat="44.437775" lon="12.14185"><ele>-1.0</ele><time>2026-05-01T09:14:28.749Z</time></trkpt><trkpt lat="44.4375933" lon="12.1420833"><ele>-1.0</ele><time>2026-05-01T09:14:29.754Z</time></trkpt><trkpt lat="44.4374133" lon="12.1423133"><ele>-1.0</ele><time>2026-05-01T09:14:30.75Z</time></trkpt><trkpt lat="44.4372367" lon="12.14254"><ele>-1.0</ele><time>2026-05-01T09:14:31.753Z</time></trkpt><trkpt lat="44.437065" lon="12.1427617"><ele>-0.6666666666666666</ele><time>2026-05-01T09:14:32.75Z</time></trkpt><trkpt lat="44.4369" lon="12.1429767"><ele>-0.3333333333333333</ele><time>2026-05-01T09:14:33.75Z</time></trkpt><trkpt lat="44.43674" lon="12.1431867"><ele>0.0</ele><time>2026-05-01T09:14:34.75Z</time></trkpt><trkpt lat="44.4365867" lon="12.1433933"><ele>0.0</ele><time>2026-05-01T09:14:35.753Z</time></trkpt><trkpt lat="44.4364317" lon="12.14359"><ele>0.0</ele><time>2026-05-01T09:14:36.751Z</time></trkpt><trkpt lat="44.436275" lon="12.1437833"><ele>0.0</ele><time>2026-05-01T09:14:37.753Z</time></trkpt><trkpt lat="44.436125" lon="12.1439733"><ele>0.3333333333333333</ele><time>2026-05-01T09:14:38.753Z</time></trkpt><trkpt lat="44.43598" lon="12.144165"><ele>0.6666666666666666</ele><time>2026-05-01T09:14:39.752Z</time></trkpt><trkpt lat="44.4358383" lon="12.144355"><ele>1.0</ele><time>2026-05-01T09:14:40.75Z</time></trkpt><trkpt lat="44.4356967" lon="12.1445383"><ele>1.0</ele><time>2026-05-01T09:14:41.747Z</time></trkpt><trkpt lat="44.435555" lon="12.1447233"><ele>1.0</ele><time>2026-05-01T09:14:42.754Z</time></trkpt><trkpt lat="44.4354167" lon="12.1449117"><ele>1.0</ele><time>2026-05-01T09:14:43.755Z</time></trkpt><trkpt lat="44.43528" lon="12.1451"><ele>1.0</ele><time>2026-05-01T09:14:44.749Z</time></trkpt><trkpt lat="44.4351417" lon="12.1452867"><ele>1.0</ele><time>2026-05-01T09:14:45.744Z</time></trkpt><trkpt lat="44.4350033" lon="12.14548"><ele>1.0</ele><time>2026-05-01T09:14:46.745Z</time></trkpt><trkpt lat="44.434865" lon="12.1456733"><ele>1.3333333333333333</ele><time>2026-05-01T09:14:47.752Z</time></trkpt><trkpt lat="44.4347217" lon="12.1458667"><ele>1.6666666666666665</ele><time>2026-05-01T09:14:48.745Z</time></trkpt><trkpt lat="44.434575" lon="12.14606"><ele>2.0</ele><time>2026-05-01T09:14:49.752Z</time></trkpt><trkpt lat="44.4344333" lon="12.146255"><ele>2.333333333333333</ele><time>2026-05-01T09:14:50.751Z</time></trkpt><trkpt lat="44.43429" lon="12.1464467"><ele>2.6666666666666665</ele><time>2026-05-01T09:14:51.75Z</time></trkpt><trkpt lat="44.4341433" lon="12.14664"><ele>3.0</ele><time>2026-05-01T09:14:52.742Z</time></trkpt><trkpt lat="44.434" lon="12.1468317"><ele>2.3333333333333335</ele><time>2026-05-01T09:14:53.751Z</time></trkpt><trkpt lat="44.433855" lon="12.1470233"><ele>1.6666666666666665</ele><time>2026-05-01T09:14:54.75Z</time></trkpt><trkpt lat="44.4337117" lon="12.14721"><ele>1.0</ele><time>2026-05-01T09:14:55.753Z</time></trkpt><trkpt lat="44.4335667" lon="12.147395"><ele>1.0</ele><time>2026-05-01T09:14:56.751Z</time></trkpt><trkpt lat="44.4334233" lon="12.1475817"><ele>1.0</ele><time>2026-05-01T09:14:57.752Z</time></trkpt><trkpt lat="44.4332783" lon="12.1477717"><ele>1.0</ele><time>2026-05-01T09:14:58.747Z</time></trkpt><trkpt lat="44.4331383" lon="12.1479617"><ele>1.0</ele><time>2026-05-01T09:14:59.751Z</time></trkpt><trkpt lat="44.433" lon="12.1481483"><ele>1.0</ele><time>2026-05-01T09:15:00.759Z</time></trkpt><trkpt lat="44.43286" lon="12.148335"><ele>1.0</ele><time>2026-05-01T09:15:01.748Z</time></trkpt><trkpt lat="44.43272" lon="12.148515"><ele>0.6666666666666666</ele><time>2026-05-01T09:15:02.743Z</time></trkpt><trkpt lat="44.4325817" lon="12.1486983"><ele>0.3333333333333333</ele><time>2026-05-01T09:15:03.754Z</time></trkpt><trkpt lat="44.4324417" lon="12.148885"><ele>0.0</ele><time>2026-05-01T09:15:04.751Z</time></trkpt><trkpt lat="44.4323017" lon="12.1490717"><ele>0.6666666666666666</ele><time>2026-05-01T09:15:05.751Z</time></trkpt><trkpt lat="44.4321617" lon="12.1492617"><ele>1.3333333333333333</ele><time>2026-05-01T09:15:06.75Z</time></trkpt><trkpt lat="44.4320217" lon="12.1494483"><ele>2.0</ele><time>2026-05-01T09:15:07.742Z</time></trkpt><trkpt lat="44.4318817" lon="12.14963"><ele>2.0</ele><time>2026-05-01T09:15:08.75Z</time></trkpt><trkpt lat="44.431745" lon="12.14981"><ele>2.0</ele><time>2026-05-01T09:15:09.743Z</time></trkpt><trkpt lat="44.4316117" lon="12.1499867"><ele>2.0</ele><time>2026-05-01T09:15:10.75Z</time></trkpt><trkpt lat="44.4314817" lon="12.150165"><ele>1.6666666666666665</ele><time>2026-05-01T09:15:11.743Z</time></trkpt><trkpt lat="44.4313517" lon="12.1503467"><ele>1.3333333333333333</ele><time>2026-05-01T09:15:12.743Z</time></trkpt><trkpt lat="44.4312183" lon="12.1505267"><ele>1.0</ele><time>2026-05-01T09:15:13.75Z</time></trkpt><trkpt lat="44.4310833" lon="12.1507083"><ele>0.6666666666666666</ele><time>2026-05-01T09:15:14.743Z</time></trkpt><trkpt lat="44.43095" lon="12.1508883"><ele>0.3333333333333333</ele><time>2026-05-01T09:15:15.752Z</time></trkpt><trkpt lat="44.4308183" lon="12.15107"><ele>0.0</ele><time>2026-05-01T09:15:16.751Z</time></trkpt><trkpt lat="44.43068" lon="12.1512517"><ele>0.0</ele><time>2026-05-01T09:15:17.753Z</time></trkpt><trkpt lat="44.4305433" lon="12.15143"><ele>0.0</ele><time>2026-05-01T09:15:18.759Z</time></trkpt><trkpt lat="44.4304067" lon="12.1516167"><ele>0.0</ele><time>2026-05-01T09:15:19.753Z</time></trkpt><trkpt lat="44.4302683" lon="12.1518033"><ele>-0.3333333333333333</ele><time>2026-05-01T09:15:20.751Z</time></trkpt><trkpt lat="44.4301283" lon="12.1519867"><ele>-0.6666666666666666</ele><time>2026-05-01T09:15:21.751Z</time></trkpt><trkpt lat="44.4299883" lon="12.1521717"><ele>-1.0</ele><time>2026-05-01T09:15:22.751Z</time></trkpt><trkpt lat="44.42985" lon="12.1523583"><ele>-1.0</ele><time>2026-05-01T09:15:23.753Z</time></trkpt><trkpt lat="44.4297083" lon="12.1525467"><ele>-1.0</ele><time>2026-05-01T09:15:24.746Z</time></trkpt><trkpt lat="44.4295667" lon="12.1527317"><ele>-1.0</ele><time>2026-05-01T09:15:25.75Z</time></trkpt><trkpt lat="44.4294267" lon="12.1529233"><ele>-1.0</ele><time>2026-05-01T09:15:26.742Z</time></trkpt><trkpt lat="44.4292883" lon="12.1531167"><ele>-1.0</ele><time>2026-05-01T09:15:27.754Z</time></trkpt><trkpt lat="44.4291517" lon="12.1533083"><ele>-1.0</ele><time>2026-05-01T09:15:28.752Z</time></trkpt><trkpt lat="44.4290133" lon="12.1535"><ele>-1.3333333333333333</ele><time>2026-05-01T09:15:29.753Z</time></trkpt><trkpt lat="44.4288733" lon="12.1536867"><ele>-1.6666666666666665</ele><time>2026-05-01T09:15:30.752Z</time></trkpt><trkpt lat="44.4287334" lon="12.153874"><ele>-2.0</ele><time>2026-05-01T09:15:31.751Z</time></trkpt><trkpt lat="44.4285948" lon="12.1540615"><ele>-0.6666666666666666</ele><time>2026-05-01T09:15:32.749Z</time></trkpt><trkpt lat="44.4284573" lon="12.1542542"><ele>0.6666666666666666</ele><time>2026-05-01T09:15:33.747Z</time></trkpt><trkpt lat="44.4283164" lon="12.1544544"><ele>2.0</ele><time>2026-05-01T09:15:34.753Z</time></trkpt><trkpt lat="44.4281732" lon="12.1546575"><ele>2.0</ele><time>2026-05-01T09:15:35.746Z</time></trkpt><trkpt lat="44.428022" lon="12.154867"><ele>2.0</ele><time>2026-05-01T09:15:36.75Z</time></trkpt><trkpt lat="44.4278702" lon="12.1550759"><ele>2.0</ele><time>2026-05-01T09:15:37.75Z</time></trkpt><trkpt lat="44.4277167" lon="12.1552848"><ele>2.333333333333333</ele><time>2026-05-01T09:15:38.751Z</time></trkpt><trkpt lat="44.4275612" lon="12.1554909"><ele>2.6666666666666665</ele><time>2026-05-01T09:15:39.753Z</time></trkpt><trkpt lat="44.4274041" lon="12.1556949"><ele>3.0</ele><time>2026-05-01T09:15:40.752Z</time></trkpt><trkpt lat="44.4272473" lon="12.1558965"><ele>2.0</ele><time>2026-05-01T09:15:41.743Z</time></trkpt><trkpt lat="44.4270878" lon="12.1561012"><ele>1.0</ele><time>2026-05-01T09:15:42.75Z</time></trkpt><trkpt lat="44.4269281" lon="12.1563061"><ele>0.0</ele><time>2026-05-01T09:15:43.75Z</time></trkpt><trkpt lat="44.4267673" lon="12.1565145"><ele>0.0</ele><time>2026-05-01T09:15:44.753Z</time></trkpt><trkpt lat="44.426607" lon="12.1567239"><ele>0.0</ele><time>2026-05-01T09:15:45.75Z</time></trkpt><trkpt lat="44.4264463" lon="12.1569354"><ele>0.0</ele><time>2026-05-01T09:15:46.748Z</time></trkpt><trkpt lat="44.4262844" lon="12.1571478"><ele>0.0</ele><time>2026-05-01T09:15:47.743Z</time></trkpt><trkpt lat="44.4261189" lon="12.1573627"><ele>0.0</ele><time>2026-05-01T09:15:48.75Z</time></trkpt><trkpt lat="44.4259519" lon="12.1575811"><ele>0.0</ele><time>2026-05-01T09:15:49.754Z</time></trkpt><trkpt lat="44.4257867" lon="12.1578017"><ele>0.0</ele><time>2026-05-01T09:15:50.746Z</time></trkpt><trkpt lat="44.4256201" lon="12.1580259"><ele>-1.5</ele><time>2026-05-01T09:15:51.75Z</time></trkpt><trkpt lat="44.4254541" lon="12.158249"><ele>-3.0</ele><time>2026-05-01T09:15:52.749Z</time></trkpt><trkpt lat="44.4252858" lon="12.1584677"><ele>-3.0</ele><time>2026-05-01T09:15:53.752Z</time></trkpt><trkpt lat="44.42512" lon="12.1586798"><ele>-3.0</ele><time>2026-05-01T09:15:54.749Z</time></trkpt><trkpt lat="44.4249605" lon="12.1588863"><ele>-3.0</ele><time>2026-05-01T09:15:55.753Z</time></trkpt><trkpt lat="44.4248076" lon="12.1590861"><ele>-2.6666666666666665</ele><time>2026-05-01T09:15:56.743Z</time></trkpt><trkpt lat="44.4246562" lon="12.1592863"><ele>-2.333333333333333</ele><time>2026-05-01T09:15:57.747Z</time></trkpt><trkpt lat="44.4245036" lon="12.1594858"><ele>-2.0</ele><time>2026-05-01T09:15:58.749Z</time></trkpt><trkpt lat="44.4243525" lon="12.1596833"><ele>-2.0</ele><time>2026-05-01T09:15:59.747Z</time></trkpt><trkpt lat="44.4242015" lon="12.1598788"><ele>-2.0</ele><time>2026-05-01T09:16:00.742Z</time></trkpt><trkpt lat="44.4240502" lon="12.1600839"><ele>-2.0</ele><time>2026-05-01T09:16:01.75Z</time></trkpt><trkpt lat="44.423897" lon="12.1602891"><ele>-1.6666666666666665</ele><time>2026-05-01T09:16:02.755Z</time></trkpt><trkpt lat="44.4237441" lon="12.1604937"><ele>-1.3333333333333333</ele><time>2026-05-01T09:16:03.751Z</time></trkpt><trkpt lat="44.4235893" lon="12.1606998"><ele>-1.0</ele><time>2026-05-01T09:16:04.749Z</time></trkpt><trkpt lat="44.4234336" lon="12.1609076"><ele>-0.3333333333333333</ele><time>2026-05-01T09:16:05.748Z</time></trkpt><trkpt lat="44.4232789" lon="12.1611133"><ele>0.3333333333333333</ele><time>2026-05-01T09:16:06.747Z</time></trkpt><trkpt lat="44.4231246" lon="12.1613189"><ele>1.0</ele><time>2026-05-01T09:16:07.752Z</time></trkpt><trkpt lat="44.4229722" lon="12.1615225"><ele>1.3333333333333333</ele><time>2026-05-01T09:16:08.751Z</time></trkpt><trkpt lat="44.4228221" lon="12.1617226"><ele>1.6666666666666665</ele><time>2026-05-01T09:16:09.743Z</time></trkpt><trkpt lat="44.4226734" lon="12.1619174"><ele>2.0</ele><time>2026-05-01T09:16:10.748Z</time></trkpt><trkpt lat="44.4225277" lon="12.1621106"><ele>2.0</ele><time>2026-05-01T09:16:11.743Z</time></trkpt><trkpt lat="44.4223828" lon="12.1623045"><ele>2.0</ele><time>2026-05-01T09:16:12.752Z</time></trkpt><trkpt lat="44.4222374" lon="12.1624943"><ele>2.0</ele><time>2026-05-01T09:16:13.751Z</time></trkpt><trkpt lat="44.4220923" lon="12.1626748"><ele>2.0</ele><time>2026-05-01T09:16:14.749Z</time></trkpt><trkpt lat="44.4219512" lon="12.1628606"><ele>2.0</ele><time>2026-05-01T09:16:15.742Z</time></trkpt><trkpt lat="44.4218089" lon="12.1630474"><ele>2.0</ele><time>2026-05-01T09:16:16.742Z</time></trkpt><trkpt lat="44.4216668" lon="12.1632375"><ele>2.0</ele><time>2026-05-01T09:16:17.743Z</time></trkpt><trkpt lat="44.4215228" lon="12.16343"><ele>2.0</ele><time>2026-05-01T09:16:18.744Z</time></trkpt><trkpt lat="44.4213777" lon="12.1636236"><ele>2.0</ele><time>2026-05-01T09:16:19.746Z</time></trkpt><trkpt lat="44.421229" lon="12.16382"><ele>1.6666666666666665</ele><time>2026-05-01T09:16:20.745Z</time></trkpt><trkpt lat="44.4210804" lon="12.1640194"><ele>1.3333333333333333</ele><time>2026-05-01T09:16:21.746Z</time></trkpt><trkpt lat="44.4209317" lon="12.1642184"><ele>1.0</ele><time>2026-05-01T09:16:22.743Z</time></trkpt><trkpt lat="44.4207834" lon="12.1644151"><ele>1.0</ele><time>2026-05-01T09:16:23.743Z</time></trkpt><trkpt lat="44.4206374" lon="12.1646062"><ele>1.0</ele><time>2026-05-01T09:16:24.743Z</time></trkpt><trkpt lat="44.4204914" lon="12.1647987"><ele>1.0</ele><time>2026-05-01T09:16:25.743Z</time></trkpt><trkpt lat="44.4203388" lon="12.1649908"><ele>1.0</ele><time>2026-05-01T09:16:26.745Z</time></trkpt><trkpt lat="44.4201806" lon="12.1651754"><ele>1.0</ele><time>2026-05-01T09:16:27.744Z</time></trkpt><trkpt lat="44.4200175" lon="12.1653495"><ele>1.0</ele><time>2026-05-01T09:16:28.743Z</time></trkpt><trkpt lat="44.4198519" lon="12.1655156"><ele>1.0</ele><time>2026-05-01T09:16:29.743Z</time></trkpt><trkpt lat="44.4196841" lon="12.1656792"><ele>1.0</ele><time>2026-05-01T09:16:30.745Z</time></trkpt><trkpt lat="44.4195133" lon="12.16584"><ele>1.0</ele><time>2026-05-01T09:16:31.743Z</time></trkpt><trkpt lat="44.4193467" lon="12.1660033"><ele>0.6666666666666666</ele><time>2026-05-01T09:16:32.743Z</time></trkpt><trkpt lat="44.4191783" lon="12.166165"><ele>0.3333333333333333</ele><time>2026-05-01T09:16:33.742Z</time></trkpt><trkpt lat="44.4190133" lon="12.1663267"><ele>0.0</ele><time>2026-05-01T09:16:34.743Z</time></trkpt><trkpt lat="44.4188483" lon="12.1664917"><ele>-0.6666666666666666</ele><time>2026-05-01T09:16:35.75Z</time></trkpt><trkpt lat="44.41868" lon="12.1666483"><ele>-1.3333333333333333</ele><time>2026-05-01T09:16:36.751Z</time></trkpt><trkpt lat="44.418505" lon="12.1668083"><ele>-2.0</ele><time>2026-05-01T09:16:37.752Z</time></trkpt><trkpt lat="44.418325" lon="12.1669717"><ele>-2.0</ele><time>2026-05-01T09:16:38.751Z</time></trkpt><trkpt lat="44.4181483" lon="12.1671433"><ele>-2.0</ele><time>2026-05-01T09:16:39.753Z</time></trkpt><trkpt lat="44.4179667" lon="12.1673183"><ele>-2.0</ele><time>2026-05-01T09:16:40.76Z</time></trkpt><trkpt lat="44.4177833" lon="12.1674967"><ele>-1.5</ele><time>2026-05-01T09:16:41.748Z</time></trkpt><trkpt lat="44.4175917" lon="12.16767"><ele>-1.0</ele><time>2026-05-01T09:16:42.759Z</time></trkpt><trkpt lat="44.4173917" lon="12.1678333"><ele>-1.0</ele><time>2026-05-01T09:16:43.745Z</time></trkpt><trkpt lat="44.4171867" lon="12.1679933"><ele>-1.0</ele><time>2026-05-01T09:16:44.751Z</time></trkpt><trkpt lat="44.416975" lon="12.168155"><ele>-1.0</ele><time>2026-05-01T09:16:45.742Z</time></trkpt><trkpt lat="44.4167583" lon="12.1683133"><ele>-1.0</ele><time>2026-05-01T09:16:46.742Z</time></trkpt><trkpt lat="44.4165383" lon="12.1684683"><ele>-0.5</ele><time>2026-05-01T09:16:47.756Z</time></trkpt><trkpt lat="44.4163167" lon="12.1686217"><ele>0.0</ele><time>2026-05-01T09:16:48.754Z</time></trkpt><trkpt lat="44.4160933" lon="12.1687717"><ele>0.0</ele><time>2026-05-01T09:16:49.753Z</time></trkpt><trkpt lat="44.41587" lon="12.168925"><ele>0.0</ele><time>2026-05-01T09:16:50.753Z</time></trkpt><trkpt lat="44.4156467" lon="12.16908"><ele>0.5</ele><time>2026-05-01T09:16:51.742Z</time></trkpt><trkpt lat="44.4154217" lon="12.16924"><ele>1.0</ele><time>2026-05-01T09:16:52.75Z</time></trkpt><trkpt lat="44.4151967" lon="12.1694067"><ele>1.0</ele><time>2026-05-01T09:16:53.752Z</time></trkpt><trkpt lat="44.41497" lon="12.1695683"><ele>1.0</ele><time>2026-05-01T09:16:54.755Z</time></trkpt><trkpt lat="44.4147417" lon="12.1697333"><ele>0.0</ele><time>2026-05-01T09:16:55.749Z</time></trkpt><trkpt lat="44.4145117" lon="12.1698933"><ele>-1.0</ele><time>2026-05-01T09:16:56.75Z</time></trkpt><trkpt lat="44.4142817" lon="12.170055"><ele>-1.0</ele><time>2026-05-01T09:16:57.752Z</time></trkpt><trkpt lat="44.4140483" lon="12.1702133"><ele>-1.0</ele><time>2026-05-01T09:16:58.749Z</time></trkpt><trkpt lat="44.413815" lon="12.1703733"><ele>0.0</ele><time>2026-05-01T09:16:59.753Z</time></trkpt><trkpt lat="44.4135817" lon="12.170535"><ele>1.0</ele><time>2026-05-01T09:17:00.744Z</time></trkpt><trkpt lat="44.4133483" lon="12.170695"><ele>1.0</ele><time>2026-05-01T09:17:01.744Z</time></trkpt><trkpt lat="44.413115" lon="12.1708517"><ele>1.0</ele><time>2026-05-01T09:17:02.743Z</time></trkpt><trkpt lat="44.4128833" lon="12.1710067"><ele>0.5</ele><time>2026-05-01T09:17:03.746Z</time></trkpt><trkpt lat="44.41265" lon="12.1711633"><ele>0.0</ele><time>2026-05-01T09:17:04.743Z</time></trkpt><trkpt lat="44.41242" lon="12.1713233"><ele>0.0</ele><time>2026-05-01T09:17:05.744Z</time></trkpt><trkpt lat="44.41219" lon="12.1714817"><ele>0.0</ele><time>2026-05-01T09:17:06.746Z</time></trkpt><trkpt lat="44.41196" lon="12.1716367"><ele>0.5</ele><time>2026-05-01T09:17:07.746Z</time></trkpt><trkpt lat="44.4117267" lon="12.17179"><ele>1.0</ele><time>2026-05-01T09:17:08.742Z</time></trkpt><trkpt lat="44.4114967" lon="12.171945"><ele>2.0</ele><time>2026-05-01T09:17:09.743Z</time></trkpt><trkpt lat="44.41127" lon="12.172105"><ele>3.0</ele><time>2026-05-01T09:17:10.743Z</time></trkpt><trkpt lat="44.411045" lon="12.1722683"><ele>3.0</ele><time>2026-05-01T09:17:11.744Z</time></trkpt><trkpt lat="44.4108167" lon="12.17243"><ele>3.0</ele><time>2026-05-01T09:17:12.743Z</time></trkpt><trkpt lat="44.4105917" lon="12.1725867"><ele>1.5</ele><time>2026-05-01T09:17:13.743Z</time></trkpt><trkpt lat="44.4103667" lon="12.172745"><ele>0.0</ele><time>2026-05-01T09:17:14.745Z</time></trkpt><trkpt lat="44.410145" lon="12.172905"><ele>0.0</ele><time>2026-05-01T09:17:15.743Z</time></trkpt><trkpt lat="44.4099217" lon="12.1730633"><ele>0.0</ele><time>2026-05-01T09:17:16.744Z</time></trkpt><trkpt lat="44.4096933" lon="12.1732233"><ele>1.5</ele><time>2026-05-01T09:17:17.742Z</time></trkpt><trkpt lat="44.409465" lon="12.17338"><ele>3.0</ele><time>2026-05-01T09:17:18.742Z</time></trkpt><trkpt lat="44.4092383" lon="12.1735333"><ele>3.0</ele><time>2026-05-01T09:17:19.742Z</time></trkpt><trkpt lat="44.40901" lon="12.173685"><ele>3.0</ele><time>2026-05-01T09:17:20.756Z</time></trkpt><trkpt lat="44.4087867" lon="12.1738383"><ele>1.5</ele><time>2026-05-01T09:17:21.752Z</time></trkpt><trkpt lat="44.408565" lon="12.17399"><ele>0.0</ele><time>2026-05-01T09:17:22.751Z</time></trkpt><trkpt lat="44.4083483" lon="12.1741467"><ele>0.0</ele><time>2026-05-01T09:17:23.748Z</time></trkpt><trkpt lat="44.40814" lon="12.1743017"><ele>0.0</ele><time>2026-05-01T09:17:24.754Z</time></trkpt><trkpt lat="44.40794" lon="12.1744617"><ele>1.0</ele><time>2026-05-01T09:17:25.755Z</time></trkpt><trkpt lat="44.4077467" lon="12.17462"><ele>2.0</ele><time>2026-05-01T09:17:26.749Z</time></trkpt><trkpt lat="44.4075633" lon="12.1747617"><ele>3.0</ele><time>2026-05-01T09:17:27.751Z</time></trkpt><trkpt lat="44.4073817" lon="12.1749"><ele>3.0</ele><time>2026-05-01T09:17:28.741Z</time></trkpt><trkpt lat="44.4072017" lon="12.1750283"><ele>3.0</ele><time>2026-05-01T09:17:29.747Z</time></trkpt><trkpt lat="44.4070383" lon="12.17515"><ele>3.0</ele><time>2026-05-01T09:17:30.753Z</time></trkpt><trkpt lat="44.4068917" lon="12.1752533"><ele>2.75</ele><time>2026-05-01T09:17:31.748Z</time></trkpt><trkpt lat="44.4067583" lon="12.17534"><ele>2.5</ele><time>2026-05-01T09:17:32.747Z</time></trkpt><trkpt lat="44.4066517" lon="12.1754133"><ele>2.25</ele><time>2026-05-01T09:17:33.749Z</time></trkpt><trkpt lat="44.406555" lon="12.1754833"><ele>2.0</ele><time>2026-05-01T09:17:34.75Z</time></trkpt><trkpt lat="44.40646" lon="12.175555"><ele>2.0</ele><time>2026-05-01T09:17:35.75Z</time></trkpt><trkpt lat="44.40636" lon="12.17563"><ele>2.0</ele><time>2026-05-01T09:17:36.746Z</time></trkpt><trkpt lat="44.4062583" lon="12.1757083"><ele>2.0</ele><time>2026-05-01T09:17:37.753Z</time></trkpt><trkpt lat="44.4061617" lon="12.1757783"><ele>2.0</ele><time>2026-05-01T09:17:38.75Z</time></trkpt><trkpt lat="44.4060683" lon="12.175845"><ele>2.0</ele><time>2026-05-01T09:17:39.744Z</time></trkpt><trkpt lat="44.4059767" lon="12.1759183"><ele>1.8</ele><time>2026-05-01T09:17:40.748Z</time></trkpt><trkpt lat="44.4058817" lon="12.1759917"><ele>1.6</ele><time>2026-05-01T09:17:41.749Z</time></trkpt><trkpt lat="44.4057933" lon="12.1760567"><ele>1.4000000000000001</ele><time>2026-05-01T09:17:42.748Z</time></trkpt><trkpt lat="44.4057117" lon="12.1761167"><ele>1.2000000000000002</ele><time>2026-05-01T09:17:43.749Z</time></trkpt><trkpt lat="44.4056333" lon="12.1761683"><ele>1.0</ele><time>2026-05-01T09:17:44.754Z</time></trkpt><trkpt lat="44.4055583" lon="12.1762183"><ele>1.1666666666666665</ele><time>2026-05-01T09:17:45.75Z</time></trkpt><trkpt lat="44.4054817" lon="12.1762667"><ele>1.3333333333333333</ele><time>2026-05-01T09:17:46.752Z</time></trkpt><trkpt lat="44.405405" lon="12.176315"><ele>1.5</ele><time>2026-05-01T09:17:47.75Z</time></trkpt><trkpt lat="44.4053317" lon="12.1763683"><ele>1.6666666666666665</ele><time>2026-05-01T09:17:48.752Z</time></trkpt><trkpt lat="44.4052617" lon="12.176425"><ele>1.8333333333333333</ele><time>2026-05-01T09:17:49.749Z</time></trkpt><trkpt lat="44.4051883" lon="12.17648"><ele>2.0</ele><time>2026-05-01T09:17:50.751Z</time></trkpt><trkpt lat="44.4051033" lon="12.176535"><ele>2.0</ele><time>2026-05-01T09:17:51.75Z</time></trkpt><trkpt lat="44.40502" lon="12.1765917"><ele>2.0</ele><time>2026-05-01T09:17:52.747Z</time></trkpt><trkpt lat="44.40494" lon="12.17665"><ele>2.0</ele><time>2026-05-01T09:17:53.749Z</time></trkpt><trkpt lat="44.4048583" lon="12.1767083"><ele>2.0</ele><time>2026-05-01T09:17:54.747Z</time></trkpt><trkpt lat="44.4047733" lon="12.1767683"><ele>2.0</ele><time>2026-05-01T09:17:55.751Z</time></trkpt><trkpt lat="44.4046867" lon="12.17683"><ele>2.333333333333333</ele><time>2026-05-01T09:17:56.755Z</time></trkpt><trkpt lat="44.4046017" lon="12.1768883"><ele>2.6666666666666665</ele><time>2026-05-01T09:17:57.751Z</time></trkpt><trkpt lat="44.4045183" lon="12.17695"><ele>3.0</ele><time>2026-05-01T09:17:58.75Z</time></trkpt><trkpt lat="44.404445" lon="12.1770117"><ele>3.333333333333333</ele><time>2026-05-01T09:17:59.756Z</time></trkpt><trkpt lat="44.4043783" lon="12.177055"><ele>3.6666666666666665</ele><time>2026-05-01T09:18:00.752Z</time></trkpt><trkpt lat="44.4043133" lon="12.1770967"><ele>4.0</ele><time>2026-05-01T09:18:01.748Z</time></trkpt><trkpt lat="44.4042483" lon="12.17714"><ele>3.9999999999999996</ele><time>2026-05-01T09:18:02.743Z</time></trkpt><trkpt lat="44.404185" lon="12.177185"><ele>4.0</ele><time>2026-05-01T09:18:03.754Z</time></trkpt><trkpt lat="44.4041283" lon="12.1772283"><ele>4.0</ele><time>2026-05-01T09:18:04.749Z</time></trkpt><trkpt lat="44.4040717" lon="12.17727"><ele>4.0</ele><time>2026-05-01T09:18:05.75Z</time></trkpt><trkpt lat="44.403965" lon="12.17735"><ele>3.9999999999999996</ele><time>2026-05-01T09:18:07.751Z</time></trkpt><trkpt lat="44.40386" lon="12.1774283"><ele>4.0</ele><time>2026-05-01T09:18:09.75Z</time></trkpt><trkpt lat="44.40376" lon="12.1775133"><ele>3.25</ele><time>2026-05-01T09:18:11.752Z</time></trkpt><trkpt lat="44.4036683" lon="12.1775717"><ele>2.5</ele><time>2026-05-01T09:18:13.751Z</time></trkpt><trkpt lat="44.4035683" lon="12.1776367"><ele>1.75</ele><time>2026-05-01T09:18:15.747Z</time></trkpt><trkpt lat="44.4034633" lon="12.1777117"><ele>1.0</ele><time>2026-05-01T09:18:17.745Z</time></trkpt><trkpt lat="44.4033533" lon="12.1777817"><ele>1.0</ele><time>2026-05-01T09:18:19.748Z</time></trkpt><trkpt lat="44.4032567" lon="12.1778417"><ele>1.0</ele><time>2026-05-01T09:18:21.749Z</time></trkpt><trkpt lat="44.4031867" lon="12.1778917"><ele>1.0</ele><time>2026-05-01T09:18:23.753Z</time></trkpt><trkpt lat="44.4031167" lon="12.17794"><ele>1.0</ele><time>2026-05-01T09:18:27.75Z</time></trkpt><trkpt lat="44.40295" lon="12.1780733"><ele>1.1428571428571428</ele><time>2026-05-01T09:18:35.75Z</time></trkpt><trkpt lat="44.4028883" lon="12.1781067"><ele>1.2857142857142856</ele><time>2026-05-01T09:18:38.753Z</time></trkpt><trkpt lat="44.40283" lon="12.1781467"><ele>1.4285714285714284</ele><time>2026-05-01T09:18:41.753Z</time></trkpt><trkpt lat="44.4027683" lon="12.178195"><ele>1.5714285714285714</ele><time>2026-05-01T09:18:43.75Z</time></trkpt><trkpt lat="44.40269" lon="12.1782517"><ele>1.714285714285714</ele><time>2026-05-01T09:18:46.753Z</time></trkpt><trkpt lat="44.402625" lon="12.1782967"><ele>1.857142857142857</ele><time>2026-05-01T09:18:48.752Z</time></trkpt><trkpt lat="44.40255" lon="12.17835"><ele>2.0</ele><time>2026-05-01T09:18:51.752Z</time></trkpt><trkpt lat="44.4024683" lon="12.1784117"><ele>2.0</ele><time>2026-05-01T09:18:53.75Z</time></trkpt><trkpt lat="44.4023767" lon="12.1784867"><ele>2.0</ele><time>2026-05-01T09:18:55.742Z</time></trkpt><trkpt lat="44.40232" lon="12.17853"><ele>2.0</ele><time>2026-05-01T09:18:56.742Z</time></trkpt><trkpt lat="44.4022217" lon="12.1785983"><ele>2.0</ele><time>2026-05-01T09:18:58.75Z</time></trkpt><trkpt lat="44.4021417" lon="12.1786533"><ele>2.0</ele><time>2026-05-01T09:19:00.752Z</time></trkpt><trkpt lat="44.4020383" lon="12.178735"><ele>2.0</ele><time>2026-05-01T09:19:02.753Z</time></trkpt><trkpt lat="44.40198" lon="12.178775"><ele>1.9999999999999998</ele><time>2026-05-01T09:19:03.747Z</time></trkpt><trkpt lat="44.4019233" lon="12.178815"><ele>2.0</ele><time>2026-05-01T09:19:04.751Z</time></trkpt><trkpt lat="44.401865" lon="12.178855"><ele>2.0</ele><time>2026-05-01T09:19:05.748Z</time></trkpt><trkpt lat="44.401805" lon="12.1789017"><ele>1.9999999999999998</ele><time>2026-05-01T09:19:06.752Z</time></trkpt><trkpt lat="44.4017433" lon="12.1789417"><ele>2.0</ele><time>2026-05-01T09:19:07.748Z</time></trkpt><trkpt lat="44.40168" lon="12.1789733"><ele>2.0</ele><time>2026-05-01T09:19:08.749Z</time></trkpt><trkpt lat="44.40162" lon="12.179005"><ele>2.2</ele><time>2026-05-01T09:19:09.744Z</time></trkpt><trkpt lat="44.40151" lon="12.1790617"><ele>2.4000000000000004</ele><time>2026-05-01T09:19:11.752Z</time></trkpt><trkpt lat="44.40142" lon="12.1791183"><ele>2.5999999999999996</ele><time>2026-05-01T09:19:13.752Z</time></trkpt><trkpt lat="44.4013533" lon="12.179165"><ele>2.8</ele><time>2026-05-01T09:19:15.753Z</time></trkpt><trkpt lat="44.40127" lon="12.1792283"><ele>3.0</ele><time>2026-05-01T09:19:17.751Z</time></trkpt><trkpt lat="44.4011583" lon="12.1793117"><ele>2.6666666666666665</ele><time>2026-05-01T09:19:19.75Z</time></trkpt><trkpt lat="44.401065" lon="12.1793867"><ele>2.3333333333333335</ele><time>2026-05-01T09:19:21.752Z</time></trkpt><trkpt lat="44.4010017" lon="12.1794367"><ele>2.0</ele><time>2026-05-01T09:19:25.747Z</time></trkpt><trkpt lat="44.4009333" lon="12.1794683"><ele>1.6666666666666665</ele><time>2026-05-01T09:19:31.751Z</time></trkpt><trkpt lat="44.4008367" lon="12.179525"><ele>1.3333333333333333</ele><time>2026-05-01T09:19:37.754Z</time></trkpt><trkpt lat="44.4007583" lon="12.1795583"><ele>1.0</ele><time>2026-05-01T09:19:39.743Z</time></trkpt><trkpt lat="44.4006433" lon="12.1796267"><ele>0.9999999999999999</ele><time>2026-05-01T09:19:41.742Z</time></trkpt><trkpt lat="44.4005783" lon="12.17967"><ele>1.0</ele><time>2026-05-01T09:19:42.749Z</time></trkpt><trkpt lat="44.4005083" lon="12.179705"><ele>1.0</ele><time>2026-05-01T09:19:43.749Z</time></trkpt><trkpt lat="44.4004283" lon="12.179735"><ele>1.0</ele><time>2026-05-01T09:19:44.759Z</time></trkpt><trkpt lat="44.40035" lon="12.1797517"><ele>0.9999999999999999</ele><time>2026-05-01T09:19:45.751Z</time></trkpt><trkpt lat="44.40027" lon="12.179755"><ele>1.0</ele><time>2026-05-01T09:19:46.751Z</time></trkpt><trkpt lat="44.4001733" lon="12.1797633"><ele>1.6</ele><time>2026-05-01T09:19:47.749Z</time></trkpt><trkpt lat="44.4000733" lon="12.1797517"><ele>2.2</ele><time>2026-05-01T09:19:48.75Z</time></trkpt><trkpt lat="44.3999633" lon="12.179725"><ele>2.8000000000000003</ele><time>2026-05-01T09:19:49.746Z</time></trkpt><trkpt lat="44.3998517" lon="12.1796883"><ele>3.4000000000000004</ele><time>2026-05-01T09:19:50.748Z</time></trkpt><trkpt lat="44.3997483" lon="12.1796583"><ele>4.0</ele><time>2026-05-01T09:19:51.752Z</time></trkpt><trkpt lat="44.399645" lon="12.1796283"><ele>3.9999999999999996</ele><time>2026-05-01T09:19:52.748Z</time></trkpt><trkpt lat="44.39955" lon="12.1796"><ele>4.0</ele><time>2026-05-01T09:19:53.745Z</time></trkpt><trkpt lat="44.3994667" lon="12.17958"><ele>4.0</ele><time>2026-05-01T09:19:54.748Z</time></trkpt><trkpt lat="44.3993883" lon="12.1795583"><ele>4.0</ele><time>2026-05-01T09:19:55.75Z</time></trkpt><trkpt lat="44.3993133" lon="12.179535"><ele>3.9999999999999996</ele><time>2026-05-01T09:19:56.754Z</time></trkpt><trkpt lat="44.3992417" lon="12.1795133"><ele>4.0</ele><time>2026-05-01T09:19:57.751Z</time></trkpt><trkpt lat="44.3991733" lon="12.179495"><ele>3.9999999999999996</ele><time>2026-05-01T09:19:58.751Z</time></trkpt><trkpt lat="44.3991017" lon="12.17947"><ele>4.0</ele><time>2026-05-01T09:19:59.749Z</time></trkpt><trkpt lat="44.3990317" lon="12.1794533"><ele>4.0</ele><time>2026-05-01T09:20:00.755Z</time></trkpt><trkpt lat="44.398925" lon="12.1794183"><ele>4.0</ele><time>2026-05-01T09:20:02.746Z</time></trkpt><trkpt lat="44.3988533" lon="12.1793883"><ele>3.9999999999999996</ele><time>2026-05-01T09:20:04.746Z</time></trkpt><trkpt lat="44.3987883" lon="12.1793483"><ele>4.0</ele><time>2026-05-01T09:20:14.742Z</time></trkpt><trkpt lat="44.398695" lon="12.179255"><ele>3.8000000000000003</ele><time>2026-05-01T09:20:16.743Z</time></trkpt><trkpt lat="44.3986117" lon="12.1791383"><ele>3.6000000000000005</ele><time>2026-05-01T09:20:18.741Z</time></trkpt><trkpt lat="44.3985683" lon="12.17897"><ele>3.4</ele><time>2026-05-01T09:20:20.742Z</time></trkpt><trkpt lat="44.3985683" lon="12.17887"><ele>3.2</ele><time>2026-05-01T09:20:21.742Z</time></trkpt><trkpt lat="44.3985717" lon="12.17877"><ele>3.0</ele><time>2026-05-01T09:20:22.741Z</time></trkpt><trkpt lat="44.3985683" lon="12.1786717"><ele>2.8571428571428568</ele><time>2026-05-01T09:20:23.743Z</time></trkpt><trkpt lat="44.3985483" lon="12.1785817"><ele>2.7142857142857144</ele><time>2026-05-01T09:20:24.742Z</time></trkpt><trkpt lat="44.3985017" lon="12.1785"><ele>2.571428571428571</ele><time>2026-05-01T09:20:25.744Z</time></trkpt><trkpt lat="44.3984483" lon="12.1784267"><ele>2.4285714285714284</ele><time>2026-05-01T09:20:26.746Z</time></trkpt><trkpt lat="44.3983817" lon="12.1783833"><ele>2.2857142857142856</ele><time>2026-05-01T09:20:27.743Z</time></trkpt><trkpt lat="44.398305" lon="12.178365"><ele>2.142857142857143</ele><time>2026-05-01T09:20:28.743Z</time></trkpt><trkpt lat="44.39823" lon="12.1783767"><ele>2.0</ele><time>2026-05-01T09:20:29.743Z</time></trkpt><trkpt lat="44.3981617" lon="12.1784167"><ele>2.0</ele><time>2026-05-01T09:20:30.742Z</time></trkpt><trkpt lat="44.3981017" lon="12.1784833"><ele>1.9999999999999998</ele><time>2026-05-01T09:20:31.744Z</time></trkpt><trkpt lat="44.3980583" lon="12.1785683"><ele>2.0</ele><time>2026-05-01T09:20:32.752Z</time></trkpt><trkpt lat="44.398035" lon="12.1786617"><ele>2.0</ele><time>2026-05-01T09:20:33.753Z</time></trkpt><trkpt lat="44.3980267" lon="12.17876"><ele>1.9999999999999998</ele><time>2026-05-01T09:20:34.753Z</time></trkpt><trkpt lat="44.3980333" lon="12.17886"><ele>2.0</ele><time>2026-05-01T09:20:35.754Z</time></trkpt><trkpt lat="44.3980633" lon="12.1789533"><ele>2.0</ele><time>2026-05-01T09:20:36.749Z</time></trkpt><trkpt lat="44.398115" lon="12.1790383"><ele>2.1666666666666665</ele><time>2026-05-01T09:20:37.753Z</time></trkpt><trkpt lat="44.3981783" lon="12.1790983"><ele>2.333333333333333</ele><time>2026-05-01T09:20:38.757Z</time></trkpt><trkpt lat="44.3982417" lon="12.1791283"><ele>2.5</ele><time>2026-05-01T09:20:39.755Z</time></trkpt><trkpt lat="44.398305" lon="12.1791333"><ele>2.6666666666666665</ele><time>2026-05-01T09:20:40.759Z</time></trkpt><trkpt lat="44.3983683" lon="12.17913"><ele>2.8333333333333335</ele><time>2026-05-01T09:20:41.755Z</time></trkpt><trkpt lat="44.398495" lon="12.1791383"><ele>3.0</ele><time>2026-05-01T09:20:43.741Z</time></trkpt><trkpt lat="44.398565" lon="12.1791767"><ele>3.0</ele><time>2026-05-01T09:20:44.752Z</time></trkpt><trkpt lat="44.3986367" lon="12.179235"><ele>3.0</ele><time>2026-05-01T09:20:45.746Z</time></trkpt><trkpt lat="44.3987033" lon="12.1793167"><ele>3.0</ele><time>2026-05-01T09:20:46.749Z</time></trkpt><trkpt lat="44.398755" lon="12.179395"><ele>3.0</ele><time>2026-05-01T09:20:47.749Z</time></trkpt><trkpt lat="44.398805" lon="12.179465"><ele>3.0</ele><time>2026-05-01T09:20:48.742Z</time></trkpt><trkpt lat="44.398855" lon="12.1795317"><ele>3.0</ele><time>2026-05-01T09:20:49.75Z</time></trkpt><trkpt lat="44.39891" lon="12.179605"><ele>3.0</ele><time>2026-05-01T09:20:50.752Z</time></trkpt><trkpt lat="44.39897" lon="12.179685"><ele>3.0</ele><time>2026-05-01T09:20:51.748Z</time></trkpt><trkpt lat="44.3990333" lon="12.1797817"><ele>3.0</ele><time>2026-05-01T09:20:52.75Z</time></trkpt><trkpt lat="44.3991" lon="12.179875"><ele>3.0</ele><time>2026-05-01T09:20:53.747Z</time></trkpt><trkpt lat="44.3991683" lon="12.17997"><ele>3.0</ele><time>2026-05-01T09:20:54.749Z</time></trkpt><trkpt lat="44.3992367" lon="12.1800717"><ele>3.0</ele><time>2026-05-01T09:20:55.749Z</time></trkpt><trkpt lat="44.3993083" lon="12.1801767"><ele>3.0</ele><time>2026-05-01T09:20:56.753Z</time></trkpt><trkpt lat="44.3993833" lon="12.1802783"><ele>3.0</ele><time>2026-05-01T09:20:57.749Z</time></trkpt><trkpt lat="44.3994633" lon="12.18039"><ele>3.0</ele><time>2026-05-01T09:20:58.75Z</time></trkpt><trkpt lat="44.3995483" lon="12.1805033"><ele>3.0</ele><time>2026-05-01T09:20:59.749Z</time></trkpt><trkpt lat="44.3996367" lon="12.18062"><ele>3.25</ele><time>2026-05-01T09:21:00.753Z</time></trkpt><trkpt lat="44.3997283" lon="12.1807417"><ele>3.5</ele><time>2026-05-01T09:21:01.753Z</time></trkpt><trkpt lat="44.399825" lon="12.1808683"><ele>3.75</ele><time>2026-05-01T09:21:02.755Z</time></trkpt><trkpt lat="44.3999167" lon="12.1809917"><ele>4.0</ele><time>2026-05-01T09:21:03.753Z</time></trkpt><trkpt lat="44.4000067" lon="12.1811133"><ele>4.0</ele><time>2026-05-01T09:21:04.751Z</time></trkpt><trkpt lat="44.4000933" lon="12.1812383"><ele>4.0</ele><time>2026-05-01T09:21:05.754Z</time></trkpt><trkpt lat="44.40018" lon="12.1813683"><ele>4.0</ele><time>2026-05-01T09:21:06.741Z</time></trkpt><trkpt lat="44.4002683" lon="12.1815"><ele>4.0</ele><time>2026-05-01T09:21:07.75Z</time></trkpt><trkpt lat="44.4003533" lon="12.1816317"><ele>4.0</ele><time>2026-05-01T09:21:08.757Z</time></trkpt><trkpt lat="44.4004433" lon="12.1817567"><ele>4.0</ele><time>2026-05-01T09:21:09.749Z</time></trkpt><trkpt lat="44.4005333" lon="12.1818817"><ele>4.0</ele><time>2026-05-01T09:21:10.751Z</time></trkpt><trkpt lat="44.400625" lon="12.1820083"><ele>4.0</ele><time>2026-05-01T09:21:11.75Z</time></trkpt><trkpt lat="44.4007167" lon="12.1821333"><ele>4.0</ele><time>2026-05-01T09:21:12.749Z</time></trkpt><trkpt lat="44.4008033" lon="12.18226"><ele>4.0</ele><time>2026-05-01T09:21:13.742Z</time></trkpt><trkpt lat="44.4008933" lon="12.1823817"><ele>4.0</ele><time>2026-05-01T09:21:14.75Z</time></trkpt><trkpt lat="44.4009767" lon="12.1824933"><ele>4.0</ele><time>2026-05-01T09:21:15.75Z</time></trkpt><trkpt lat="44.4010567" lon="12.1826017"><ele>3.8000000000000003</ele><time>2026-05-01T09:21:16.745Z</time></trkpt><trkpt lat="44.401135" lon="12.1827117"><ele>3.6000000000000005</ele><time>2026-05-01T09:21:17.75Z</time></trkpt><trkpt lat="44.4012117" lon="12.18282"><ele>3.4</ele><time>2026-05-01T09:21:18.749Z</time></trkpt><trkpt lat="44.4012833" lon="12.1829167"><ele>3.2</ele><time>2026-05-01T09:21:19.751Z</time></trkpt><trkpt lat="44.4013517" lon="12.1830083"><ele>3.0</ele><time>2026-05-01T09:21:20.742Z</time></trkpt><trkpt lat="44.40142" lon="12.1830933"><ele>3.0</ele><time>2026-05-01T09:21:21.747Z</time></trkpt><trkpt lat="44.4014883" lon="12.18317"><ele>3.0</ele><time>2026-05-01T09:21:22.747Z</time></trkpt><trkpt lat="44.401555" lon="12.1832467"><ele>3.0</ele><time>2026-05-01T09:21:23.745Z</time></trkpt><trkpt lat="44.4016183" lon="12.1833133"><ele>3.0</ele><time>2026-05-01T09:21:24.741Z</time></trkpt><trkpt lat="44.401675" lon="12.1833767"><ele>3.0</ele><time>2026-05-01T09:21:25.748Z</time></trkpt><trkpt lat="44.4017233" lon="12.1834333"><ele>3.0</ele><time>2026-05-01T09:21:26.742Z</time></trkpt><trkpt lat="44.401815" lon="12.1835217"><ele>3.1428571428571423</ele><time>2026-05-01T09:21:28.749Z</time></trkpt><trkpt lat="44.401865" lon="12.1835817"><ele>3.2857142857142856</ele><time>2026-05-01T09:21:29.751Z</time></trkpt><trkpt lat="44.4019233" lon="12.183655"><ele>3.4285714285714284</ele><time>2026-05-01T09:21:30.742Z</time></trkpt><trkpt lat="44.4019767" lon="12.1837317"><ele>3.571428571428571</ele><time>2026-05-01T09:21:31.747Z</time></trkpt><trkpt lat="44.4020167" lon="12.1838"><ele>3.714285714285714</ele><time>2026-05-01T09:21:32.75Z</time></trkpt><trkpt lat="44.4020717" lon="12.18389"><ele>3.8571428571428568</ele><time>2026-05-01T09:21:34.751Z</time></trkpt><trkpt lat="44.4021167" lon="12.183955"><ele>4.0</ele><time>2026-05-01T09:21:36.749Z</time></trkpt><trkpt lat="44.4021767" lon="12.1840333"><ele>4.0</ele><time>2026-05-01T09:21:38.75Z</time></trkpt><trkpt lat="44.4022383" lon="12.1841217"><ele>4.0</ele><time>2026-05-01T09:21:40.743Z</time></trkpt><trkpt lat="44.4022933" lon="12.184215"><ele>4.0</ele><time>2026-05-01T09:21:42.75Z</time></trkpt><trkpt lat="44.40232" lon="12.1843383"><ele>4.0</ele><time>2026-05-01T09:21:44.754Z</time></trkpt><trkpt lat="44.4023183" lon="12.1845017"><ele>4.0</ele><time>2026-05-01T09:21:46.752Z</time></trkpt><trkpt lat="44.4022767" lon="12.1846633"><ele>3.9999999999999996</ele><time>2026-05-01T09:21:48.749Z</time></trkpt><trkpt lat="44.4022267" lon="12.1847883"><ele>4.0</ele><time>2026-05-01T09:21:57.75Z</time></trkpt><trkpt lat="44.4021317" lon="12.184875"><ele>4.0</ele><time>2026-05-01T09:21:59.748Z</time></trkpt><trkpt lat="44.40207" lon="12.1849183"><ele>4.0</ele><time>2026-05-01T09:22:00.751Z</time></trkpt><trkpt lat="44.4020067" lon="12.1849633"><ele>3.9999999999999996</ele><time>2026-05-01T09:22:01.756Z</time></trkpt><trkpt lat="44.4019467" lon="12.185005"><ele>4.0</ele><time>2026-05-01T09:22:02.758Z</time></trkpt><trkpt lat="44.4018833" lon="12.1850433"><ele>3.6666666666666665</ele><time>2026-05-01T09:22:03.75Z</time></trkpt><trkpt lat="44.401815" lon="12.1850917"><ele>3.333333333333333</ele><time>2026-05-01T09:22:04.751Z</time></trkpt><trkpt lat="44.4017433" lon="12.18514"><ele>3.0</ele><time>2026-05-01T09:22:05.752Z</time></trkpt><trkpt lat="44.4016633" lon="12.1851883"><ele>2.6666666666666665</ele><time>2026-05-01T09:22:06.753Z</time></trkpt><trkpt lat="44.4015817" lon="12.1852433"><ele>2.333333333333333</ele><time>2026-05-01T09:22:07.744Z</time></trkpt><trkpt lat="44.4014967" lon="12.185295"><ele>2.0</ele><time>2026-05-01T09:22:08.751Z</time></trkpt><trkpt lat="44.40141" lon="12.1853517"><ele>2.2</ele><time>2026-05-01T09:22:09.751Z</time></trkpt><trkpt lat="44.4013217" lon="12.18541"><ele>2.4000000000000004</ele><time>2026-05-01T09:22:10.751Z</time></trkpt><trkpt lat="44.4012367" lon="12.1854783"><ele>2.5999999999999996</ele><time>2026-05-01T09:22:11.75Z</time></trkpt><trkpt lat="44.401145" lon="12.1855467"><ele>2.8</ele><time>2026-05-01T09:22:12.75Z</time></trkpt><trkpt lat="44.4010533" lon="12.1856167"><ele>3.0</ele><time>2026-05-01T09:22:13.751Z</time></trkpt><trkpt lat="44.4009533" lon="12.1856833"><ele>3.2</ele><time>2026-05-01T09:22:14.743Z</time></trkpt><trkpt lat="44.4008517" lon="12.1857483"><ele>3.4</ele><time>2026-05-01T09:22:15.747Z</time></trkpt><trkpt lat="44.4007517" lon="12.1858167"><ele>3.6000000000000005</ele><time>2026-05-01T09:22:16.75Z</time></trkpt><trkpt lat="44.4006533" lon="12.185885"><ele>3.8000000000000003</ele><time>2026-05-01T09:22:17.75Z</time></trkpt><trkpt lat="44.4005517" lon="12.18595"><ele>4.0</ele><time>2026-05-01T09:22:18.742Z</time></trkpt><trkpt lat="44.400455" lon="12.1860133"><ele>4.0</ele><time>2026-05-01T09:22:19.75Z</time></trkpt><trkpt lat="44.4003633" lon="12.18608"><ele>4.0</ele><time>2026-05-01T09:22:20.743Z</time></trkpt><trkpt lat="44.400275" lon="12.1861583"><ele>4.0</ele><time>2026-05-01T09:22:21.75Z</time></trkpt><trkpt lat="44.40018" lon="12.1862267"><ele>4.0</ele><time>2026-05-01T09:22:22.742Z</time></trkpt><trkpt lat="44.4000833" lon="12.1862933"><ele>4.0</ele><time>2026-05-01T09:22:23.748Z</time></trkpt><trkpt lat="44.3999867" lon="12.1863583"><ele>4.0</ele><time>2026-05-01T09:22:24.752Z</time></trkpt><trkpt lat="44.3998883" lon="12.1864317"><ele>4.0</ele><time>2026-05-01T09:22:25.75Z</time></trkpt><trkpt lat="44.3997883" lon="12.186505"><ele>4.0</ele><time>2026-05-01T09:22:26.757Z</time></trkpt><trkpt lat="44.39969" lon="12.1865767"><ele>4.0</ele><time>2026-05-01T09:22:27.753Z</time></trkpt><trkpt lat="44.3996" lon="12.1866433"><ele>4.0</ele><time>2026-05-01T09:22:28.75Z</time></trkpt><trkpt lat="44.3995117" lon="12.1867033"><ele>4.0</ele><time>2026-05-01T09:22:29.757Z</time></trkpt><trkpt lat="44.3994233" lon="12.1867617"><ele>4.0</ele><time>2026-05-01T09:22:30.748Z</time></trkpt><trkpt lat="44.3993367" lon="12.1868233"><ele>4.0</ele><time>2026-05-01T09:22:31.751Z</time></trkpt><trkpt lat="44.3992517" lon="12.1868883"><ele>4.0</ele><time>2026-05-01T09:22:32.746Z</time></trkpt><trkpt lat="44.3991617" lon="12.1869483"><ele>4.0</ele><time>2026-05-01T09:22:33.749Z</time></trkpt><trkpt lat="44.3990733" lon="12.1870117"><ele>4.0</ele><time>2026-05-01T09:22:34.744Z</time></trkpt><trkpt lat="44.3989833" lon="12.187075"><ele>4.0</ele><time>2026-05-01T09:22:35.755Z</time></trkpt><trkpt lat="44.39889" lon="12.1871417"><ele>4.0</ele><time>2026-05-01T09:22:36.754Z</time></trkpt><trkpt lat="44.398795" lon="12.1872117"><ele>4.0</ele><time>2026-05-01T09:22:37.75Z</time></trkpt><trkpt lat="44.3987" lon="12.1872783"><ele>4.0</ele><time>2026-05-01T09:22:38.749Z</time></trkpt><trkpt lat="44.3986017" lon="12.1873467"><ele>3.6</ele><time>2026-05-01T09:22:39.75Z</time></trkpt><trkpt lat="44.3985017" lon="12.1874217"><ele>3.2</ele><time>2026-05-01T09:22:40.758Z</time></trkpt><trkpt lat="44.3984083" lon="12.1874933"><ele>2.8000000000000003</ele><time>2026-05-01T09:22:41.745Z</time></trkpt><trkpt lat="44.398315" lon="12.1875617"><ele>2.4000000000000004</ele><time>2026-05-01T09:22:42.749Z</time></trkpt><trkpt lat="44.39822" lon="12.1876317"><ele>2.0</ele><time>2026-05-01T09:22:43.751Z</time></trkpt><trkpt lat="44.3981183" lon="12.1877017"><ele>2.0</ele><time>2026-05-01T09:22:44.746Z</time></trkpt><trkpt lat="44.3980183" lon="12.18777"><ele>2.0</ele><time>2026-05-01T09:22:45.743Z</time></trkpt><trkpt lat="44.3979167" lon="12.1878433"><ele>2.0</ele><time>2026-05-01T09:22:46.75Z</time></trkpt><trkpt lat="44.3978167" lon="12.187905"><ele>2.0</ele><time>2026-05-01T09:22:47.751Z</time></trkpt><trkpt lat="44.3977167" lon="12.18797"><ele>2.0</ele><time>2026-05-01T09:22:48.749Z</time></trkpt><trkpt lat="44.3976167" lon="12.1880383"><ele>2.0</ele><time>2026-05-01T09:22:49.753Z</time></trkpt><trkpt lat="44.39752" lon="12.1881067"><ele>2.0</ele><time>2026-05-01T09:22:50.743Z</time></trkpt><trkpt lat="44.3974217" lon="12.18818"><ele>2.0</ele><time>2026-05-01T09:22:51.752Z</time></trkpt><trkpt lat="44.39732" lon="12.1882567"><ele>2.0</ele><time>2026-05-01T09:22:52.756Z</time></trkpt><trkpt lat="44.3972167" lon="12.188335"><ele>2.0</ele><time>2026-05-01T09:22:53.753Z</time></trkpt><trkpt lat="44.3971117" lon="12.1884133"><ele>2.0</ele><time>2026-05-01T09:22:54.752Z</time></trkpt><trkpt lat="44.3970033" lon="12.188485"><ele>2.0</ele><time>2026-05-01T09:22:55.753Z</time></trkpt><trkpt lat="44.396895" lon="12.1885617"><ele>2.0</ele><time>2026-05-01T09:22:56.754Z</time></trkpt><trkpt lat="44.3967883" lon="12.18864"><ele>2.0</ele><time>2026-05-01T09:22:57.751Z</time></trkpt><trkpt lat="44.3966883" lon="12.1887183"><ele>2.0</ele><time>2026-05-01T09:22:58.749Z</time></trkpt><trkpt lat="44.3965883" lon="12.1887983"><ele>2.0</ele><time>2026-05-01T09:22:59.748Z</time></trkpt><trkpt lat="44.39649" lon="12.188885"><ele>2.0</ele><time>2026-05-01T09:23:00.753Z</time></trkpt><trkpt lat="44.3963933" lon="12.1889683"><ele>2.0</ele><time>2026-05-01T09:23:01.742Z</time></trkpt><trkpt lat="44.3962983" lon="12.18906"><ele>2.0</ele><time>2026-05-01T09:23:02.754Z</time></trkpt><trkpt lat="44.396205" lon="12.1891583"><ele>2.0</ele><time>2026-05-01T09:23:03.749Z</time></trkpt><trkpt lat="44.39612" lon="12.1892667"><ele>2.0</ele><time>2026-05-01T09:23:04.746Z</time></trkpt><trkpt lat="44.396035" lon="12.18939"><ele>2.0</ele><time>2026-05-01T09:23:05.751Z</time></trkpt><trkpt lat="44.395955" lon="12.1895233"><ele>2.0</ele><time>2026-05-01T09:23:06.742Z</time></trkpt><trkpt lat="44.3958867" lon="12.1896683"><ele>2.0</ele><time>2026-05-01T09:23:07.749Z</time></trkpt><trkpt lat="44.39582" lon="12.1898183"><ele>2.0</ele><time>2026-05-01T09:23:08.749Z</time></trkpt><trkpt lat="44.3957633" lon="12.1899817"><ele>2.0</ele><time>2026-05-01T09:23:09.748Z</time></trkpt><trkpt lat="44.395715" lon="12.1901533"><ele>2.0</ele><time>2026-05-01T09:23:10.743Z</time></trkpt><trkpt lat="44.3956767" lon="12.19033"><ele>2.0</ele><time>2026-05-01T09:23:11.747Z</time></trkpt><trkpt lat="44.3956483" lon="12.190515"><ele>2.0</ele><time>2026-05-01T09:23:12.75Z</time></trkpt><trkpt lat="44.3956317" lon="12.1907033"><ele>2.0</ele><time>2026-05-01T09:23:13.748Z</time></trkpt><trkpt lat="44.3956283" lon="12.1908933"><ele>2.0</ele><time>2026-05-01T09:23:14.753Z</time></trkpt><trkpt lat="44.3956383" lon="12.1910817"><ele>2.0</ele><time>2026-05-01T09:23:15.741Z</time></trkpt><trkpt lat="44.3956667" lon="12.1912733"><ele>2.0</ele><time>2026-05-01T09:23:16.742Z</time></trkpt><trkpt lat="44.3957031" lon="12.1914625"><ele>1.5</ele><time>2026-05-01T09:23:17.752Z</time></trkpt><trkpt lat="44.3957474" lon="12.191646"><ele>1.0</ele><time>2026-05-01T09:23:18.755Z</time></trkpt><trkpt lat="44.3957938" lon="12.1918275"><ele>0.5</ele><time>2026-05-01T09:23:19.753Z</time></trkpt><trkpt lat="44.3958421" lon="12.1920091"><ele>0.0</ele><time>2026-05-01T09:23:20.75Z</time></trkpt><trkpt lat="44.395893" lon="12.1921948"><ele>-0.25</ele><time>2026-05-01T09:23:21.749Z</time></trkpt><trkpt lat="44.3959408" lon="12.1923847"><ele>-0.5</ele><time>2026-05-01T09:23:22.753Z</time></trkpt><trkpt lat="44.3959875" lon="12.1925726"><ele>-0.75</ele><time>2026-05-01T09:23:23.744Z</time></trkpt><trkpt lat="44.3960355" lon="12.192754"><ele>-1.0</ele><time>2026-05-01T09:23:24.751Z</time></trkpt><trkpt lat="44.3960823" lon="12.19293"><ele>-1.0</ele><time>2026-05-01T09:23:25.741Z</time></trkpt><trkpt lat="44.3961268" lon="12.1930996"><ele>-1.0</ele><time>2026-05-01T09:23:26.753Z</time></trkpt><trkpt lat="44.3961685" lon="12.1932536"><ele>-1.0</ele><time>2026-05-01T09:23:27.749Z</time></trkpt><trkpt lat="44.3962085" lon="12.1934005"><ele>-1.0</ele><time>2026-05-01T09:23:28.742Z</time></trkpt><trkpt lat="44.3962458" lon="12.1935464"><ele>-0.4</ele><time>2026-05-01T09:23:29.748Z</time></trkpt><trkpt lat="44.3962823" lon="12.1936895"><ele>0.19999999999999996</ele><time>2026-05-01T09:23:30.751Z</time></trkpt><trkpt lat="44.3963176" lon="12.1938321"><ele>0.8000000000000002</ele><time>2026-05-01T09:23:31.749Z</time></trkpt><trkpt lat="44.3963519" lon="12.1939696"><ele>1.4000000000000001</ele><time>2026-05-01T09:23:32.751Z</time></trkpt><trkpt lat="44.3963875" lon="12.1941029"><ele>2.0</ele><time>2026-05-01T09:23:33.751Z</time></trkpt><trkpt lat="44.3964218" lon="12.1942353"><ele>2.0</ele><time>2026-05-01T09:23:34.749Z</time></trkpt><trkpt lat="44.3964558" lon="12.1943754"><ele>2.0</ele><time>2026-05-01T09:23:35.747Z</time></trkpt><trkpt lat="44.3964926" lon="12.1945236"><ele>2.0</ele><time>2026-05-01T09:23:36.75Z</time></trkpt><trkpt lat="44.3965344" lon="12.1946771"><ele>2.0</ele><time>2026-05-01T09:23:37.743Z</time></trkpt><trkpt lat="44.3965852" lon="12.1948337"><ele>1.8</ele><time>2026-05-01T09:23:38.743Z</time></trkpt><trkpt lat="44.3966353" lon="12.1949874"><ele>1.6</ele><time>2026-05-01T09:23:39.75Z</time></trkpt><trkpt lat="44.3966825" lon="12.1951338"><ele>1.4000000000000001</ele><time>2026-05-01T09:23:40.748Z</time></trkpt><trkpt lat="44.3967226" lon="12.1952659"><ele>1.2000000000000002</ele><time>2026-05-01T09:23:41.747Z</time></trkpt><trkpt lat="44.3967528" lon="12.1953837"><ele>1.0</ele><time>2026-05-01T09:23:42.749Z</time></trkpt><trkpt lat="44.3967779" lon="12.195491"><ele>1.0</ele><time>2026-05-01T09:23:43.755Z</time></trkpt><trkpt lat="44.3967998" lon="12.1955863"><ele>1.0</ele><time>2026-05-01T09:23:44.751Z</time></trkpt><trkpt lat="44.3968234" lon="12.1956716"><ele>1.0</ele><time>2026-05-01T09:23:45.746Z</time></trkpt><trkpt lat="44.3968901" lon="12.1957973"><ele>1.0</ele><time>2026-05-01T09:23:47.752Z</time></trkpt><trkpt lat="44.3969839" lon="12.195847"><ele>1.0</ele><time>2026-05-01T09:23:49.75Z</time></trkpt><trkpt lat="44.3970901" lon="12.1958059"><ele>0.9999999999999999</ele><time>2026-05-01T09:23:51.754Z</time></trkpt><trkpt lat="44.3971462" lon="12.1957486"><ele>1.0</ele><time>2026-05-01T09:23:52.748Z</time></trkpt><trkpt lat="44.397209" lon="12.1956858"><ele>1.0</ele><time>2026-05-01T09:23:53.742Z</time></trkpt><trkpt lat="44.3972776" lon="12.1956359"><ele>1.0</ele><time>2026-05-01T09:23:54.751Z</time></trkpt><trkpt lat="44.397351" lon="12.1956054"><ele>0.9999999999999999</ele><time>2026-05-01T09:23:55.748Z</time></trkpt><trkpt lat="44.3974284" lon="12.195592"><ele>1.0</ele><time>2026-05-01T09:23:56.749Z</time></trkpt><trkpt lat="44.3975087" lon="12.1955888"><ele>0.9999999999999999</ele><time>2026-05-01T09:23:57.741Z</time></trkpt><trkpt lat="44.3975962" lon="12.1955881"><ele>1.0</ele><time>2026-05-01T09:23:58.742Z</time></trkpt><trkpt lat="44.3976898" lon="12.1955958"><ele>1.0</ele><time>2026-05-01T09:23:59.751Z</time></trkpt><trkpt lat="44.3977824" lon="12.1956124"><ele>1.0</ele><time>2026-05-01T09:24:00.751Z</time></trkpt><trkpt lat="44.3978671" lon="12.1956487"><ele>0.9999999999999999</ele><time>2026-05-01T09:24:01.749Z</time></trkpt><trkpt lat="44.3979401" lon="12.19571"><ele>1.0</ele><time>2026-05-01T09:24:02.752Z</time></trkpt><trkpt lat="44.3980027" lon="12.1957948"><ele>0.9999999999999999</ele><time>2026-05-01T09:24:03.745Z</time></trkpt><trkpt lat="44.3980473" lon="12.1959055"><ele>1.0</ele><time>2026-05-01T09:24:04.752Z</time></trkpt><trkpt lat="44.3980706" lon="12.1960235"><ele>1.0</ele><time>2026-05-01T09:24:05.749Z</time></trkpt><trkpt lat="44.3980723" lon="12.1961399"><ele>1.0</ele><time>2026-05-01T09:24:06.748Z</time></trkpt><trkpt lat="44.398068" lon="12.1962501"><ele>0.9999999999999999</ele><time>2026-05-01T09:24:07.751Z</time></trkpt><trkpt lat="44.3980622" lon="12.1963437"><ele>1.0</ele><time>2026-05-01T09:24:08.753Z</time></trkpt><trkpt lat="44.3980605" lon="12.1964592"><ele>1.0</ele><time>2026-05-01T09:24:10.752Z</time></trkpt><trkpt lat="44.3980333" lon="12.1965833"><ele>1.0</ele><time>2026-05-01T09:24:20.753Z</time></trkpt><trkpt lat="44.39797" lon="12.1967067"><ele>1.0</ele><time>2026-05-01T09:24:22.742Z</time></trkpt><trkpt lat="44.3978517" lon="12.1967633"><ele>1.0</ele><time>2026-05-01T09:24:24.752Z</time></trkpt><trkpt lat="44.397785" lon="12.19677"><ele>1.0</ele><time>2026-05-01T09:24:25.745Z</time></trkpt><trkpt lat="44.39772" lon="12.196775"><ele>0.9999999999999999</ele><time>2026-05-01T09:24:26.751Z</time></trkpt><trkpt lat="44.3976567" lon="12.1967817"><ele>1.0</ele><time>2026-05-01T09:24:27.749Z</time></trkpt><trkpt lat="44.3975917" lon="12.1967933"><ele>1.0</ele><time>2026-05-01T09:24:28.752Z</time></trkpt><trkpt lat="44.397465" lon="12.1967967"><ele>1.0</ele><time>2026-05-01T09:24:30.753Z</time></trkpt><trkpt lat="44.3973917" lon="12.196795"><ele>0.9999999999999999</ele><time>2026-05-01T09:24:31.753Z</time></trkpt><trkpt lat="44.39731" lon="12.1968"><ele>1.0</ele><time>2026-05-01T09:24:32.751Z</time></trkpt><trkpt lat="44.397225" lon="12.1968"><ele>1.5</ele><time>2026-05-01T09:24:33.745Z</time></trkpt><trkpt lat="44.397145" lon="12.1968017"><ele>2.0</ele><time>2026-05-01T09:24:34.748Z</time></trkpt><trkpt lat="44.3970767" lon="12.196805"><ele>2.5</ele><time>2026-05-01T09:24:35.752Z</time></trkpt><trkpt lat="44.39698" lon="12.1968083"><ele>3.0</ele><time>2026-05-01T09:24:37.75Z</time></trkpt><trkpt lat="44.3969033" lon="12.1968183"><ele>3.4999999999999996</ele><time>2026-05-01T09:24:39.748Z</time></trkpt><trkpt lat="44.3968317" lon="12.1968383"><ele>4.0</ele><time>2026-05-01T09:24:41.754Z</time></trkpt><trkpt lat="44.396725" lon="12.1968717"><ele>3.9999999999999996</ele><time>2026-05-01T09:24:43.75Z</time></trkpt><trkpt lat="44.3966633" lon="12.1968917"><ele>4.0</ele><time>2026-05-01T09:24:44.752Z</time></trkpt><trkpt lat="44.3965483" lon="12.1969417"><ele>4.0</ele><time>2026-05-01T09:24:46.751Z</time></trkpt><trkpt lat="44.3964867" lon="12.1969717"><ele>4.0</ele><time>2026-05-01T09:24:47.751Z</time></trkpt><trkpt lat="44.39637" lon="12.1970283"><ele>3.9999999999999996</ele><time>2026-05-01T09:24:49.743Z</time></trkpt><trkpt lat="44.3963083" lon="12.1970633"><ele>4.0</ele><time>2026-05-01T09:24:50.75Z</time></trkpt><trkpt lat="44.396245" lon="12.197105"><ele>3.714285714285714</ele><time>2026-05-01T09:24:51.743Z</time></trkpt><trkpt lat="44.3961767" lon="12.19714"><ele>3.428571428571428</ele><time>2026-05-01T09:24:52.748Z</time></trkpt><trkpt lat="44.3961017" lon="12.1971733"><ele>3.142857142857143</ele><time>2026-05-01T09:24:53.751Z</time></trkpt><trkpt lat="44.3960267" lon="12.1972"><ele>2.8571428571428568</ele><time>2026-05-01T09:24:54.748Z</time></trkpt><trkpt lat="44.395955" lon="12.197215"><ele>2.571428571428571</ele><time>2026-05-01T09:24:55.754Z</time></trkpt><trkpt lat="44.395885" lon="12.1972317"><ele>2.2857142857142856</ele><time>2026-05-01T09:24:56.754Z</time></trkpt><trkpt lat="44.3958183" lon="12.1972467"><ele>2.0</ele><time>2026-05-01T09:24:57.748Z</time></trkpt><trkpt lat="44.3957467" lon="12.1972567"><ele>2.0</ele><time>2026-05-01T09:24:58.744Z</time></trkpt><trkpt lat="44.3956667" lon="12.1972667"><ele>2.0</ele><time>2026-05-01T09:24:59.749Z</time></trkpt><trkpt lat="44.3955767" lon="12.1972683"><ele>2.0</ele><time>2026-05-01T09:25:00.75Z</time></trkpt><trkpt lat="44.3954833" lon="12.1972667"><ele>2.0</ele><time>2026-05-01T09:25:01.756Z</time></trkpt><trkpt lat="44.395385" lon="12.1972567"><ele>2.0</ele><time>2026-05-01T09:25:02.75Z</time></trkpt><trkpt lat="44.3952883" lon="12.197255"><ele>1.6666666666666665</ele><time>2026-05-01T09:25:03.752Z</time></trkpt><trkpt lat="44.3951967" lon="12.1972483"><ele>1.3333333333333333</ele><time>2026-05-01T09:25:04.748Z</time></trkpt><trkpt lat="44.3951117" lon="12.1972433"><ele>1.0</ele><time>2026-05-01T09:25:05.743Z</time></trkpt><trkpt lat="44.39503" lon="12.19724"><ele>0.6666666666666666</ele><time>2026-05-01T09:25:06.754Z</time></trkpt><trkpt lat="44.394945" lon="12.197235"><ele>0.3333333333333333</ele><time>2026-05-01T09:25:07.751Z</time></trkpt><trkpt lat="44.3948633" lon="12.1972233"><ele>0.0</ele><time>2026-05-01T09:25:08.752Z</time></trkpt><trkpt lat="44.3947883" lon="12.197205"><ele>0.0</ele><time>2026-05-01T09:25:09.752Z</time></trkpt><trkpt lat="44.3947167" lon="12.1971883"><ele>0.0</ele><time>2026-05-01T09:25:10.742Z</time></trkpt><trkpt lat="44.394645" lon="12.1971767"><ele>0.0</ele><time>2026-05-01T09:25:11.752Z</time></trkpt><trkpt lat="44.3945683" lon="12.1971733"><ele>0.0</ele><time>2026-05-01T09:25:12.751Z</time></trkpt><trkpt lat="44.3944883" lon="12.1971767"><ele>0.0</ele><time>2026-05-01T09:25:13.753Z</time></trkpt><trkpt lat="44.3943983" lon="12.1971733"><ele>0.0</ele><time>2026-05-01T09:25:14.754Z</time></trkpt><trkpt lat="44.3943017" lon="12.1971683"><ele>0.2</ele><time>2026-05-01T09:25:15.752Z</time></trkpt><trkpt lat="44.3942033" lon="12.1971667"><ele>0.4</ele><time>2026-05-01T09:25:16.752Z</time></trkpt><trkpt lat="44.3941" lon="12.1971667"><ele>0.6000000000000001</ele><time>2026-05-01T09:25:17.743Z</time></trkpt><trkpt lat="44.393985" lon="12.19716"><ele>0.8</ele><time>2026-05-01T09:25:18.746Z</time></trkpt><trkpt lat="44.39387" lon="12.1971517"><ele>1.0</ele><time>2026-05-01T09:25:19.75Z</time></trkpt><trkpt lat="44.393745" lon="12.1971433"><ele>1.5</ele><time>2026-05-01T09:25:20.753Z</time></trkpt><trkpt lat="44.3936267" lon="12.1971333"><ele>2.0</ele><time>2026-05-01T09:25:21.751Z</time></trkpt><trkpt lat="44.3935033" lon="12.1971217"><ele>2.5</ele><time>2026-05-01T09:25:22.753Z</time></trkpt><trkpt lat="44.3933867" lon="12.1971117"><ele>3.0</ele><time>2026-05-01T09:25:23.753Z</time></trkpt><trkpt lat="44.3932867" lon="12.19711"><ele>3.0</ele><time>2026-05-01T09:25:24.753Z</time></trkpt><trkpt lat="44.3932" lon="12.1971083"><ele>3.0</ele><time>2026-05-01T09:25:25.75Z</time></trkpt><trkpt lat="44.39312" lon="12.1971067"><ele>3.0</ele><time>2026-05-01T09:25:26.754Z</time></trkpt><trkpt lat="44.39304" lon="12.19711"><ele>3.0</ele><time>2026-05-01T09:25:27.748Z</time></trkpt><trkpt lat="44.3929483" lon="12.1971083"><ele>3.0</ele><time>2026-05-01T09:25:28.748Z</time></trkpt><trkpt lat="44.3928483" lon="12.1971"><ele>3.0</ele><time>2026-05-01T09:25:29.754Z</time></trkpt><trkpt lat="44.3927417" lon="12.197085"><ele>2.75</ele><time>2026-05-01T09:25:30.745Z</time></trkpt><trkpt lat="44.39263" lon="12.197075"><ele>2.5</ele><time>2026-05-01T09:25:31.751Z</time></trkpt><trkpt lat="44.3925167" lon="12.197065"><ele>2.25</ele><time>2026-05-01T09:25:32.752Z</time></trkpt><trkpt lat="44.3923983" lon="12.1970617"><ele>2.0</ele><time>2026-05-01T09:25:33.75Z</time></trkpt><trkpt lat="44.3922767" lon="12.19706"><ele>2.5</ele><time>2026-05-01T09:25:34.75Z</time></trkpt><trkpt lat="44.39215" lon="12.1970617"><ele>3.0</ele><time>2026-05-01T09:25:35.748Z</time></trkpt><trkpt lat="44.3920183" lon="12.19705"><ele>3.5</ele><time>2026-05-01T09:25:36.743Z</time></trkpt><trkpt lat="44.3918883" lon="12.1970383"><ele>4.0</ele><time>2026-05-01T09:25:37.748Z</time></trkpt><trkpt lat="44.3917633" lon="12.1970167"><ele>4.0</ele><time>2026-05-01T09:25:38.75Z</time></trkpt><trkpt lat="44.3916333" lon="12.1970033"><ele>4.0</ele><time>2026-05-01T09:25:39.746Z</time></trkpt><trkpt lat="44.3915017" lon="12.1969917"><ele>4.0</ele><time>2026-05-01T09:25:40.751Z</time></trkpt><trkpt lat="44.3913733" lon="12.19698"><ele>4.0</ele><time>2026-05-01T09:25:41.754Z</time></trkpt><trkpt lat="44.391245" lon="12.1969733"><ele>4.0</ele><time>2026-05-01T09:25:42.755Z</time></trkpt><trkpt lat="44.391115" lon="12.1969683"><ele>4.0</ele><time>2026-05-01T09:25:43.752Z</time></trkpt><trkpt lat="44.3909883" lon="12.1969633"><ele>4.0</ele><time>2026-05-01T09:25:44.752Z</time></trkpt><trkpt lat="44.39087" lon="12.19696"><ele>4.0</ele><time>2026-05-01T09:25:45.749Z</time></trkpt><trkpt lat="44.390755" lon="12.1969583"><ele>4.0</ele><time>2026-05-01T09:25:46.752Z</time></trkpt><trkpt lat="44.39064" lon="12.19695"><ele>4.0</ele><time>2026-05-01T09:25:47.751Z</time></trkpt><trkpt lat="44.3905217" lon="12.196945"><ele>4.0</ele><time>2026-05-01T09:25:48.75Z</time></trkpt><trkpt lat="44.3904017" lon="12.1969367"><ele>4.0</ele><time>2026-05-01T09:25:49.755Z</time></trkpt><trkpt lat="44.3902833" lon="12.1969283"><ele>4.2</ele><time>2026-05-01T09:25:50.755Z</time></trkpt><trkpt lat="44.3901667" lon="12.1969217"><ele>4.4</ele><time>2026-05-01T09:25:51.752Z</time></trkpt><trkpt lat="44.3900517" lon="12.196915"><ele>4.6</ele><time>2026-05-01T09:25:52.745Z</time></trkpt><trkpt lat="44.3899433" lon="12.1969067"><ele>4.8</ele><time>2026-05-01T09:25:53.748Z</time></trkpt><trkpt lat="44.3898483" lon="12.1969"><ele>5.0</ele><time>2026-05-01T09:25:54.748Z</time></trkpt><trkpt lat="44.3897617" lon="12.196895"><ele>5.0</ele><time>2026-05-01T09:25:55.749Z</time></trkpt><trkpt lat="44.389675" lon="12.1968883"><ele>5.0</ele><time>2026-05-01T09:25:56.751Z</time></trkpt><trkpt lat="44.38959" lon="12.1968783"><ele>5.0</ele><time>2026-05-01T09:25:57.751Z</time></trkpt><trkpt lat="44.3895" lon="12.196865"><ele>5.0</ele><time>2026-05-01T09:25:58.75Z</time></trkpt><trkpt lat="44.38941" lon="12.1968467"><ele>5.0</ele><time>2026-05-01T09:25:59.749Z</time></trkpt><trkpt lat="44.389315" lon="12.196825"><ele>5.0</ele><time>2026-05-01T09:26:00.747Z</time></trkpt><trkpt lat="44.389215" lon="12.1968017"><ele>5.0</ele><time>2026-05-01T09:26:01.751Z</time></trkpt><trkpt lat="44.3891067" lon="12.1967717"><ele>5.0</ele><time>2026-05-01T09:26:02.75Z</time></trkpt><trkpt lat="44.3889933" lon="12.19674"><ele>5.0</ele><time>2026-05-01T09:26:03.742Z</time></trkpt><trkpt lat="44.3888817" lon="12.1967067"><ele>5.0</ele><time>2026-05-01T09:26:04.749Z</time></trkpt><trkpt lat="44.38877" lon="12.1966717"><ele>4.6</ele><time>2026-05-01T09:26:05.748Z</time></trkpt><trkpt lat="44.3886617" lon="12.1966333"><ele>4.2</ele><time>2026-05-01T09:26:06.75Z</time></trkpt><trkpt lat="44.3885567" lon="12.1965967"><ele>3.8</ele><time>2026-05-01T09:26:07.75Z</time></trkpt><trkpt lat="44.3884567" lon="12.1965617"><ele>3.4</ele><time>2026-05-01T09:26:08.748Z</time></trkpt><trkpt lat="44.38836" lon="12.1965317"><ele>3.0</ele><time>2026-05-01T09:26:09.748Z</time></trkpt><trkpt lat="44.388265" lon="12.1965017"><ele>3.2</ele><time>2026-05-01T09:26:10.758Z</time></trkpt><trkpt lat="44.3881717" lon="12.1964717"><ele>3.4</ele><time>2026-05-01T09:26:11.748Z</time></trkpt><trkpt lat="44.38808" lon="12.196445"><ele>3.6000000000000005</ele><time>2026-05-01T09:26:12.75Z</time></trkpt><trkpt lat="44.3879883" lon="12.1964183"><ele>3.8000000000000003</ele><time>2026-05-01T09:26:13.753Z</time></trkpt><trkpt lat="44.38789" lon="12.19639"><ele>4.0</ele><time>2026-05-01T09:26:14.746Z</time></trkpt><trkpt lat="44.3877883" lon="12.1963617"><ele>4.0</ele><time>2026-05-01T09:26:15.748Z</time></trkpt><trkpt lat="44.387685" lon="12.1963333"><ele>4.0</ele><time>2026-05-01T09:26:16.745Z</time></trkpt><trkpt lat="44.3875917" lon="12.1963"><ele>4.0</ele><time>2026-05-01T09:26:17.749Z</time></trkpt><trkpt lat="44.3875017" lon="12.19627"><ele>4.0</ele><time>2026-05-01T09:26:18.75Z</time></trkpt><trkpt lat="44.38742" lon="12.19624"><ele>4.0</ele><time>2026-05-01T09:26:19.751Z</time></trkpt><trkpt lat="44.3873483" lon="12.1962083"><ele>3.9999999999999996</ele><time>2026-05-01T09:26:20.754Z</time></trkpt><trkpt lat="44.38728" lon="12.19618"><ele>4.0</ele><time>2026-05-01T09:26:21.749Z</time></trkpt><trkpt lat="44.3872133" lon="12.196155"><ele>4.0</ele><time>2026-05-01T09:26:22.754Z</time></trkpt><trkpt lat="44.3870917" lon="12.19612"><ele>4.0</ele><time>2026-05-01T09:26:24.75Z</time></trkpt><trkpt lat="44.3870267" lon="12.196095"><ele>3.9999999999999996</ele><time>2026-05-01T09:26:25.749Z</time></trkpt><trkpt lat="44.3869617" lon="12.1960667"><ele>4.0</ele><time>2026-05-01T09:26:26.752Z</time></trkpt><trkpt lat="44.386875" lon="12.195985"><ele>3.8000000000000003</ele><time>2026-05-01T09:26:28.747Z</time></trkpt><trkpt lat="44.386825" lon="12.1958917"><ele>3.6000000000000005</ele><time>2026-05-01T09:26:30.75Z</time></trkpt><trkpt lat="44.3867633" lon="12.1958083"><ele>3.4</ele><time>2026-05-01T09:26:33.748Z</time></trkpt><trkpt lat="44.3866033" lon="12.1957433"><ele>3.2</ele><time>2026-05-01T09:29:07.751Z</time></trkpt><trkpt lat="44.38653" lon="12.1957733"><ele>3.0</ele><time>2026-05-01T09:29:09.752Z</time></trkpt><trkpt lat="44.386465" lon="12.1958217"><ele>3.0</ele><time>2026-05-01T09:29:11.741Z</time></trkpt><trkpt lat="44.3863867" lon="12.1958517"><ele>3.0</ele><time>2026-05-01T09:29:14.753Z</time></trkpt><trkpt lat="44.38632" lon="12.1958483"><ele>3.0</ele><time>2026-05-01T09:29:17.756Z</time></trkpt><trkpt lat="44.3862433" lon="12.19583"><ele>3.0</ele><time>2026-05-01T09:29:19.75Z</time></trkpt><trkpt lat="44.3861733" lon="12.1958117"><ele>3.0</ele><time>2026-05-01T09:29:21.754Z</time></trkpt><trkpt lat="44.3861017" lon="12.1958017"><ele>3.0</ele><time>2026-05-01T09:29:23.752Z</time></trkpt><trkpt lat="44.38602" lon="12.1957967"><ele>3.3333333333333335</ele><time>2026-05-01T09:29:25.75Z</time></trkpt><trkpt lat="44.3859467" lon="12.195785"><ele>3.666666666666667</ele><time>2026-05-01T09:29:27.749Z</time></trkpt><trkpt lat="44.3858767" lon="12.195775"><ele>4.0</ele><time>2026-05-01T09:29:29.748Z</time></trkpt><trkpt lat="44.3857967" lon="12.1957517"><ele>4.333333333333334</ele><time>2026-05-01T09:29:32.752Z</time></trkpt><trkpt lat="44.3857233" lon="12.19574"><ele>4.666666666666667</ele><time>2026-05-01T09:29:34.742Z</time></trkpt><trkpt lat="44.38562" lon="12.1956967"><ele>5.0</ele><time>2026-05-01T09:29:36.743Z</time></trkpt><trkpt lat="44.3855167" lon="12.1956517"><ele>5.166666666666667</ele><time>2026-05-01T09:29:38.742Z</time></trkpt><trkpt lat="44.385435" lon="12.1956133"><ele>5.333333333333334</ele><time>2026-05-01T09:29:40.742Z</time></trkpt><trkpt lat="44.3853583" lon="12.1955833"><ele>5.5</ele><time>2026-05-01T09:29:42.743Z</time></trkpt><trkpt lat="44.3852617" lon="12.19553"><ele>5.666666666666667</ele><time>2026-05-01T09:29:44.744Z</time></trkpt><trkpt lat="44.3851817" lon="12.1954833"><ele>5.833333333333333</ele><time>2026-05-01T09:29:46.743Z</time></trkpt><trkpt lat="44.38511" lon="12.1954533"><ele>6.0</ele><time>2026-05-01T09:29:48.744Z</time></trkpt><trkpt lat="44.3850317" lon="12.1954083"><ele>6.0</ele><time>2026-05-01T09:29:50.747Z</time></trkpt><trkpt lat="44.3849417" lon="12.1953317"><ele>6.0</ele><time>2026-05-01T09:29:52.743Z</time></trkpt><trkpt lat="44.38489" lon="12.195275"><ele>6.0</ele><time>2026-05-01T09:29:53.748Z</time></trkpt><trkpt lat="44.3848367" lon="12.1952133"><ele>6.0</ele><time>2026-05-01T09:29:54.75Z</time></trkpt><trkpt lat="44.3847883" lon="12.1951567"><ele>6.0</ele><time>2026-05-01T09:29:55.749Z</time></trkpt><trkpt lat="44.384715" lon="12.1950667"><ele>6.0</ele><time>2026-05-01T09:29:57.746Z</time></trkpt><trkpt lat="44.384665" lon="12.1949783"><ele>5.8</ele><time>2026-05-01T09:29:59.75Z</time></trkpt><trkpt lat="44.3846333" lon="12.19489"><ele>5.6</ele><time>2026-05-01T09:30:01.753Z</time></trkpt><trkpt lat="44.3845767" lon="12.1947567"><ele>5.4</ele><time>2026-05-01T09:30:03.754Z</time></trkpt><trkpt lat="44.3845317" lon="12.19469"><ele>5.2</ele><time>2026-05-01T09:30:04.749Z</time></trkpt><trkpt lat="44.3844283" lon="12.1945983"><ele>5.0</ele><time>2026-05-01T09:30:06.751Z</time></trkpt><trkpt lat="44.3843217" lon="12.19462"><ele>5.0</ele><time>2026-05-01T09:30:08.752Z</time></trkpt><trkpt lat="44.3842583" lon="12.194725"><ele>5.0</ele><time>2026-05-01T09:30:10.752Z</time></trkpt><trkpt lat="44.3842383" lon="12.1948383"><ele>5.0</ele><time>2026-05-01T09:30:12.749Z</time></trkpt><trkpt lat="44.3842417" lon="12.1949633"><ele>5.0</ele><time>2026-05-01T09:30:14.751Z</time></trkpt><trkpt lat="44.3842433" lon="12.1950967"><ele>5.0</ele><time>2026-05-01T09:30:16.748Z</time></trkpt><trkpt lat="44.38423" lon="12.1952183"><ele>5.0</ele><time>2026-05-01T09:30:18.748Z</time></trkpt><trkpt lat="44.384205" lon="12.195305"><ele>5.0</ele><time>2026-05-01T09:30:20.755Z</time></trkpt><trkpt lat="44.3841783" lon="12.195385"><ele>5.0</ele><time>2026-05-01T09:30:22.751Z</time></trkpt><trkpt lat="44.384145" lon="12.1954733"><ele>5.0</ele><time>2026-05-01T09:30:24.756Z</time></trkpt><trkpt lat="44.3841" lon="12.1956017"><ele>5.0</ele><time>2026-05-01T09:30:26.743Z</time></trkpt><trkpt lat="44.3840567" lon="12.1957283"><ele>5.0</ele><time>2026-05-01T09:30:28.751Z</time></trkpt><trkpt lat="44.3840117" lon="12.1958717"><ele>4.666666666666667</ele><time>2026-05-01T09:30:30.742Z</time></trkpt><trkpt lat="44.383985" lon="12.19596"><ele>4.333333333333334</ele><time>2026-05-01T09:30:31.752Z</time></trkpt><trkpt lat="44.3839567" lon="12.1960533"><ele>4.0</ele><time>2026-05-01T09:30:32.745Z</time></trkpt><trkpt lat="44.3839267" lon="12.196155"><ele>3.666666666666667</ele><time>2026-05-01T09:30:33.756Z</time></trkpt><trkpt lat="44.3838917" lon="12.1962633"><ele>3.3333333333333335</ele><time>2026-05-01T09:30:34.753Z</time></trkpt><trkpt lat="44.3838517" lon="12.1963817"><ele>3.0</ele><time>2026-05-01T09:30:35.752Z</time></trkpt><trkpt lat="44.38381" lon="12.196505"><ele>2.6</ele><time>2026-05-01T09:30:36.744Z</time></trkpt><trkpt lat="44.3837683" lon="12.19663"><ele>2.1999999999999997</ele><time>2026-05-01T09:30:37.744Z</time></trkpt><trkpt lat="44.3837267" lon="12.19676"><ele>1.8</ele><time>2026-05-01T09:30:38.745Z</time></trkpt><trkpt lat="44.3836833" lon="12.1968917"><ele>1.4</ele><time>2026-05-01T09:30:39.744Z</time></trkpt><trkpt lat="44.38364" lon="12.197025"><ele>1.0</ele><time>2026-05-01T09:30:40.743Z</time></trkpt><trkpt lat="44.3835983" lon="12.1971533"><ele>1.0</ele><time>2026-05-01T09:30:41.742Z</time></trkpt><trkpt lat="44.38356" lon="12.1972767"><ele>1.0</ele><time>2026-05-01T09:30:42.743Z</time></trkpt><trkpt lat="44.38352" lon="12.1973983"><ele>1.0</ele><time>2026-05-01T09:30:43.744Z</time></trkpt><trkpt lat="44.3834817" lon="12.1975233"><ele>1.0</ele><time>2026-05-01T09:30:44.742Z</time></trkpt><trkpt lat="44.3834383" lon="12.1976583"><ele>1.0</ele><time>2026-05-01T09:30:45.743Z</time></trkpt><trkpt lat="44.3833933" lon="12.1978017"><ele>1.25</ele><time>2026-05-01T09:30:46.742Z</time></trkpt><trkpt lat="44.383345" lon="12.19795"><ele>1.5</ele><time>2026-05-01T09:30:47.743Z</time></trkpt><trkpt lat="44.3832967" lon="12.1981017"><ele>1.75</ele><time>2026-05-01T09:30:48.744Z</time></trkpt><trkpt lat="44.3832467" lon="12.198255"><ele>2.0</ele><time>2026-05-01T09:30:49.744Z</time></trkpt><trkpt lat="44.383195" lon="12.1984183"><ele>2.0</ele><time>2026-05-01T09:30:50.746Z</time></trkpt><trkpt lat="44.3831417" lon="12.19858"><ele>2.0</ele><time>2026-05-01T09:30:51.743Z</time></trkpt><trkpt lat="44.383085" lon="12.1987517"><ele>2.0</ele><time>2026-05-01T09:30:52.743Z</time></trkpt><trkpt lat="44.38303" lon="12.1989267"><ele>2.0</ele><time>2026-05-01T09:30:53.742Z</time></trkpt><trkpt lat="44.38297" lon="12.1991067"><ele>1.6666666666666665</ele><time>2026-05-01T09:30:54.741Z</time></trkpt><trkpt lat="44.38291" lon="12.19929"><ele>1.3333333333333333</ele><time>2026-05-01T09:30:55.748Z</time></trkpt><trkpt lat="44.38285" lon="12.19948"><ele>1.0</ele><time>2026-05-01T09:30:56.745Z</time></trkpt><trkpt lat="44.38279" lon="12.19969"><ele>1.3333333333333333</ele><time>2026-05-01T09:30:57.74Z</time></trkpt><trkpt lat="44.382725" lon="12.1999067"><ele>1.6666666666666665</ele><time>2026-05-01T09:30:58.749Z</time></trkpt><trkpt lat="44.3826567" lon="12.200125"><ele>2.0</ele><time>2026-05-01T09:30:59.749Z</time></trkpt><trkpt lat="44.382585" lon="12.2003533"><ele>2.0</ele><time>2026-05-01T09:31:00.754Z</time></trkpt><trkpt lat="44.38251" lon="12.2005867"><ele>2.0</ele><time>2026-05-01T09:31:01.749Z</time></trkpt><trkpt lat="44.3824433" lon="12.2008217"><ele>2.0</ele><time>2026-05-01T09:31:02.757Z</time></trkpt><trkpt lat="44.3823617" lon="12.2010567"><ele>1.6666666666666665</ele><time>2026-05-01T09:31:03.751Z</time></trkpt><trkpt lat="44.3822817" lon="12.2013"><ele>1.3333333333333333</ele><time>2026-05-01T09:31:04.744Z</time></trkpt><trkpt lat="44.3822033" lon="12.2015417"><ele>1.0</ele><time>2026-05-01T09:31:05.752Z</time></trkpt><trkpt lat="44.3821267" lon="12.2017817"><ele>1.0</ele><time>2026-05-01T09:31:06.751Z</time></trkpt><trkpt lat="44.3820517" lon="12.202025"><ele>1.0</ele><time>2026-05-01T09:31:07.743Z</time></trkpt><trkpt lat="44.381975" lon="12.202265"><ele>1.0</ele><time>2026-05-01T09:31:08.751Z</time></trkpt><trkpt lat="44.3818983" lon="12.202505"><ele>1.0</ele><time>2026-05-01T09:31:09.749Z</time></trkpt><trkpt lat="44.38182" lon="12.20274"><ele>1.0</ele><time>2026-05-01T09:31:10.749Z</time></trkpt><trkpt lat="44.381745" lon="12.2029767"><ele>1.0</ele><time>2026-05-01T09:31:11.743Z</time></trkpt><trkpt lat="44.38167" lon="12.2032167"><ele>1.0</ele><time>2026-05-01T09:31:12.751Z</time></trkpt><trkpt lat="44.3816033" lon="12.203455"><ele>1.0</ele><time>2026-05-01T09:31:13.75Z</time></trkpt><trkpt lat="44.3815283" lon="12.2036833"><ele>1.0</ele><time>2026-05-01T09:31:14.748Z</time></trkpt><trkpt lat="44.381455" lon="12.2039217"><ele>0.6666666666666666</ele><time>2026-05-01T09:31:15.749Z</time></trkpt><trkpt lat="44.381375" lon="12.2041467"><ele>0.3333333333333333</ele><time>2026-05-01T09:31:16.751Z</time></trkpt><trkpt lat="44.3812983" lon="12.2043817"><ele>0.0</ele><time>2026-05-01T09:31:17.753Z</time></trkpt><trkpt lat="44.3812217" lon="12.2046083"><ele>-0.3333333333333333</ele><time>2026-05-01T09:31:18.751Z</time></trkpt><trkpt lat="44.3811483" lon="12.2048467"><ele>-0.6666666666666666</ele><time>2026-05-01T09:31:19.754Z</time></trkpt><trkpt lat="44.3810667" lon="12.2050867"><ele>-1.0</ele><time>2026-05-01T09:31:20.751Z</time></trkpt><trkpt lat="44.3809983" lon="12.205325"><ele>-1.0</ele><time>2026-05-01T09:31:21.75Z</time></trkpt><trkpt lat="44.380915" lon="12.2055533"><ele>-1.0</ele><time>2026-05-01T09:31:22.749Z</time></trkpt><trkpt lat="44.3808367" lon="12.2057933"><ele>-1.0</ele><time>2026-05-01T09:31:23.745Z</time></trkpt><trkpt lat="44.38076" lon="12.206035"><ele>-0.3333333333333333</ele><time>2026-05-01T09:31:24.748Z</time></trkpt><trkpt lat="44.38068" lon="12.2062767"><ele>0.3333333333333333</ele><time>2026-05-01T09:31:25.752Z</time></trkpt><trkpt lat="44.3805983" lon="12.2065217"><ele>1.0</ele><time>2026-05-01T09:31:26.765Z</time></trkpt><trkpt lat="44.3805183" lon="12.206765"><ele>1.0</ele><time>2026-05-01T09:31:27.75Z</time></trkpt><trkpt lat="44.38044" lon="12.20701"><ele>1.0</ele><time>2026-05-01T09:31:28.743Z</time></trkpt><trkpt lat="44.3803617" lon="12.2072567"><ele>1.0</ele><time>2026-05-01T09:31:29.752Z</time></trkpt><trkpt lat="44.3802833" lon="12.2074983"><ele>1.0</ele><time>2026-05-01T09:31:30.752Z</time></trkpt><trkpt lat="44.3802017" lon="12.2077433"><ele>1.0</ele><time>2026-05-01T09:31:31.753Z</time></trkpt><trkpt lat="44.38012" lon="12.2079867"><ele>1.0</ele><time>2026-05-01T09:31:32.751Z</time></trkpt><trkpt lat="44.3800367" lon="12.2082317"><ele>1.0</ele><time>2026-05-01T09:31:33.75Z</time></trkpt><trkpt lat="44.3799533" lon="12.2084767"><ele>1.0</ele><time>2026-05-01T09:31:34.749Z</time></trkpt><trkpt lat="44.3798683" lon="12.208725"><ele>1.0</ele><time>2026-05-01T09:31:35.748Z</time></trkpt><trkpt lat="44.379785" lon="12.2089783"><ele>1.3333333333333333</ele><time>2026-05-01T09:31:36.753Z</time></trkpt><trkpt lat="44.3797" lon="12.2092267"><ele>1.6666666666666665</ele><time>2026-05-01T09:31:37.749Z</time></trkpt><trkpt lat="44.3796217" lon="12.20948"><ele>2.0</ele><time>2026-05-01T09:31:38.749Z</time></trkpt><trkpt lat="44.3795383" lon="12.2097317"><ele>1.6666666666666665</ele><time>2026-05-01T09:31:39.75Z</time></trkpt><trkpt lat="44.379455" lon="12.2099817"><ele>1.3333333333333333</ele><time>2026-05-01T09:31:40.751Z</time></trkpt><trkpt lat="44.379375" lon="12.21024"><ele>1.0</ele><time>2026-05-01T09:31:41.757Z</time></trkpt><trkpt lat="44.379295" lon="12.210495"><ele>0.6666666666666666</ele><time>2026-05-01T09:31:42.753Z</time></trkpt><trkpt lat="44.379215" lon="12.2107467"><ele>0.3333333333333333</ele><time>2026-05-01T09:31:43.752Z</time></trkpt><trkpt lat="44.379135" lon="12.2109967"><ele>0.0</ele><time>2026-05-01T09:31:44.749Z</time></trkpt><trkpt lat="44.379055" lon="12.21125"><ele>-0.3333333333333333</ele><time>2026-05-01T09:31:45.753Z</time></trkpt><trkpt lat="44.3789733" lon="12.2115083"><ele>-0.6666666666666666</ele><time>2026-05-01T09:31:46.751Z</time></trkpt><trkpt lat="44.3788917" lon="12.211765"><ele>-1.0</ele><time>2026-05-01T09:31:47.751Z</time></trkpt><trkpt lat="44.378805" lon="12.2120183"><ele>-1.3333333333333333</ele><time>2026-05-01T09:31:48.751Z</time></trkpt><trkpt lat="44.378715" lon="12.2122667"><ele>-1.6666666666666665</ele><time>2026-05-01T09:31:49.75Z</time></trkpt><trkpt lat="44.378625" lon="12.212515"><ele>-2.0</ele><time>2026-05-01T09:31:50.75Z</time></trkpt><trkpt lat="44.378535" lon="12.2127683"><ele>-2.0</ele><time>2026-05-01T09:31:51.748Z</time></trkpt><trkpt lat="44.3784533" lon="12.2130167"><ele>-2.0</ele><time>2026-05-01T09:31:52.755Z</time></trkpt><trkpt lat="44.3783717" lon="12.213265"><ele>-2.0</ele><time>2026-05-01T09:31:53.743Z</time></trkpt><trkpt lat="44.37829" lon="12.2135083"><ele>-2.0</ele><time>2026-05-01T09:31:54.751Z</time></trkpt><trkpt lat="44.37821" lon="12.2137567"><ele>-2.0</ele><time>2026-05-01T09:31:55.76Z</time></trkpt><trkpt lat="44.378125" lon="12.2139983"><ele>-2.0</ele><time>2026-05-01T09:31:56.754Z</time></trkpt><trkpt lat="44.3780417" lon="12.2142383"><ele>-1.5</ele><time>2026-05-01T09:31:57.752Z</time></trkpt><trkpt lat="44.37788" lon="12.2147083"><ele>-1.0</ele><time>2026-05-01T09:31:59.745Z</time></trkpt><trkpt lat="44.3777967" lon="12.2149433"><ele>-1.0</ele><time>2026-05-01T09:32:00.75Z</time></trkpt><trkpt lat="44.377715" lon="12.2151833"><ele>-1.0</ele><time>2026-05-01T09:32:01.756Z</time></trkpt><trkpt lat="44.377635" lon="12.21542"><ele>-1.0</ele><time>2026-05-01T09:32:02.746Z</time></trkpt><trkpt lat="44.3775583" lon="12.2156667"><ele>-1.0</ele><time>2026-05-01T09:32:03.755Z</time></trkpt><trkpt lat="44.37748" lon="12.2159133"><ele>-1.0</ele><time>2026-05-01T09:32:04.743Z</time></trkpt><trkpt lat="44.3774033" lon="12.2161617"><ele>-1.0</ele><time>2026-05-01T09:32:05.751Z</time></trkpt><trkpt lat="44.3773267" lon="12.21641"><ele>-1.3333333333333333</ele><time>2026-05-01T09:32:06.742Z</time></trkpt><trkpt lat="44.3772517" lon="12.21666"><ele>-1.6666666666666665</ele><time>2026-05-01T09:32:07.753Z</time></trkpt><trkpt lat="44.377175" lon="12.2169117"><ele>-2.0</ele><time>2026-05-01T09:32:08.75Z</time></trkpt><trkpt lat="44.3771" lon="12.2171667"><ele>-1.3333333333333333</ele><time>2026-05-01T09:32:09.748Z</time></trkpt><trkpt lat="44.3770283" lon="12.2174267"><ele>-0.6666666666666666</ele><time>2026-05-01T09:32:10.751Z</time></trkpt><trkpt lat="44.37696" lon="12.2176917"><ele>0.0</ele><time>2026-05-01T09:32:11.753Z</time></trkpt><trkpt lat="44.3768917" lon="12.2179583"><ele>-0.3333333333333333</ele><time>2026-05-01T09:32:12.75Z</time></trkpt><trkpt lat="44.376825" lon="12.21823"><ele>-0.6666666666666666</ele><time>2026-05-01T09:32:13.743Z</time></trkpt><trkpt lat="44.3767633" lon="12.2185"><ele>-1.0</ele><time>2026-05-01T09:32:14.757Z</time></trkpt><trkpt lat="44.3767017" lon="12.2187717"><ele>-1.3333333333333333</ele><time>2026-05-01T09:32:15.746Z</time></trkpt><trkpt lat="44.3766417" lon="12.2190467"><ele>-1.6666666666666665</ele><time>2026-05-01T09:32:16.741Z</time></trkpt><trkpt lat="44.3765833" lon="12.2193267"><ele>-2.0</ele><time>2026-05-01T09:32:17.749Z</time></trkpt><trkpt lat="44.3765217" lon="12.2196067"><ele>-2.0</ele><time>2026-05-01T09:32:18.752Z</time></trkpt><trkpt lat="44.3764617" lon="12.219885"><ele>-2.0</ele><time>2026-05-01T09:32:19.751Z</time></trkpt><trkpt lat="44.3764017" lon="12.22017"><ele>-2.0</ele><time>2026-05-01T09:32:20.751Z</time></trkpt><trkpt lat="44.376345" lon="12.2204533"><ele>-2.0</ele><time>2026-05-01T09:32:21.75Z</time></trkpt><trkpt lat="44.3762883" lon="12.2207417"><ele>-2.0</ele><time>2026-05-01T09:32:22.751Z</time></trkpt><trkpt lat="44.3762283" lon="12.2210267"><ele>-2.0</ele><time>2026-05-01T09:32:23.749Z</time></trkpt><trkpt lat="44.37617" lon="12.2213133"><ele>-1.6666666666666665</ele><time>2026-05-01T09:32:24.761Z</time></trkpt><trkpt lat="44.376115" lon="12.2216017"><ele>-1.3333333333333333</ele><time>2026-05-01T09:32:25.75Z</time></trkpt><trkpt lat="44.3760567" lon="12.2218933"><ele>-1.0</ele><time>2026-05-01T09:32:26.753Z</time></trkpt><trkpt lat="44.3759983" lon="12.2221883"><ele>-1.3333333333333333</ele><time>2026-05-01T09:32:27.75Z</time></trkpt><trkpt lat="44.3759367" lon="12.222485"><ele>-1.6666666666666665</ele><time>2026-05-01T09:32:28.748Z</time></trkpt><trkpt lat="44.3758783" lon="12.22278"><ele>-2.0</ele><time>2026-05-01T09:32:29.751Z</time></trkpt><trkpt lat="44.37582" lon="12.2230817"><ele>-2.0</ele><time>2026-05-01T09:32:30.751Z</time></trkpt><trkpt lat="44.3757617" lon="12.2233817"><ele>-2.0</ele><time>2026-05-01T09:32:31.743Z</time></trkpt><trkpt lat="44.3757017" lon="12.2236867"><ele>-2.0</ele><time>2026-05-01T09:32:32.754Z</time></trkpt><trkpt lat="44.3756433" lon="12.223995"><ele>-2.0</ele><time>2026-05-01T09:32:33.747Z</time></trkpt><trkpt lat="44.3755833" lon="12.2243"><ele>-2.0</ele><time>2026-05-01T09:32:34.752Z</time></trkpt><trkpt lat="44.3755233" lon="12.2246017"><ele>-1.5</ele><time>2026-05-01T09:32:35.748Z</time></trkpt><trkpt lat="44.3754633" lon="12.2249083"><ele>-1.0</ele><time>2026-05-01T09:32:36.751Z</time></trkpt><trkpt lat="44.3754017" lon="12.225215"><ele>-1.0</ele><time>2026-05-01T09:32:37.744Z</time></trkpt><trkpt lat="44.37534" lon="12.2255233"><ele>-1.0</ele><time>2026-05-01T09:32:38.753Z</time></trkpt><trkpt lat="44.3752783" lon="12.2258267"><ele>-1.0</ele><time>2026-05-01T09:32:39.748Z</time></trkpt><trkpt lat="44.375215" lon="12.2261333"><ele>-1.0</ele><time>2026-05-01T09:32:40.749Z</time></trkpt><trkpt lat="44.3751517" lon="12.2264417"><ele>-1.5</ele><time>2026-05-01T09:32:41.754Z</time></trkpt><trkpt lat="44.375085" lon="12.2267483"><ele>-2.0</ele><time>2026-05-01T09:32:42.743Z</time></trkpt><trkpt lat="44.3750183" lon="12.227055"><ele>-2.0</ele><time>2026-05-01T09:32:43.755Z</time></trkpt><trkpt lat="44.37495" lon="12.2273567"><ele>-2.0</ele><time>2026-05-01T09:32:44.751Z</time></trkpt><trkpt lat="44.3748833" lon="12.2276617"><ele>-2.0</ele><time>2026-05-01T09:32:45.748Z</time></trkpt><trkpt lat="44.37482" lon="12.2279683"><ele>-2.0</ele><time>2026-05-01T09:32:46.75Z</time></trkpt><trkpt lat="44.3747583" lon="12.2282733"><ele>-2.0</ele><time>2026-05-01T09:32:47.751Z</time></trkpt><trkpt lat="44.3746967" lon="12.22858"><ele>-2.0</ele><time>2026-05-01T09:32:48.758Z</time></trkpt><trkpt lat="44.37463" lon="12.2288817"><ele>-2.333333333333333</ele><time>2026-05-01T09:32:49.755Z</time></trkpt><trkpt lat="44.3745633" lon="12.22918"><ele>-2.6666666666666665</ele><time>2026-05-01T09:32:50.754Z</time></trkpt><trkpt lat="44.3744967" lon="12.229475"><ele>-3.0</ele><time>2026-05-01T09:32:51.749Z</time></trkpt><trkpt lat="44.3744267" lon="12.2297667"><ele>-2.6666666666666665</ele><time>2026-05-01T09:32:52.749Z</time></trkpt><trkpt lat="44.3743533" lon="12.230055"><ele>-2.333333333333333</ele><time>2026-05-01T09:32:53.756Z</time></trkpt><trkpt lat="44.374275" lon="12.23034"><ele>-2.0</ele><time>2026-05-01T09:32:54.749Z</time></trkpt><trkpt lat="44.3741933" lon="12.2306167"><ele>-2.333333333333333</ele><time>2026-05-01T09:32:55.752Z</time></trkpt><trkpt lat="44.374105" lon="12.23089"><ele>-2.6666666666666665</ele><time>2026-05-01T09:32:56.758Z</time></trkpt><trkpt lat="44.374015" lon="12.2311567"><ele>-3.0</ele><time>2026-05-01T09:32:57.751Z</time></trkpt><trkpt lat="44.3739217" lon="12.2314267"><ele>-3.0</ele><time>2026-05-01T09:32:58.741Z</time></trkpt><trkpt lat="44.3738283" lon="12.231695"><ele>-3.0</ele><time>2026-05-01T09:32:59.753Z</time></trkpt><trkpt lat="44.3737317" lon="12.2319617"><ele>-3.0</ele><time>2026-05-01T09:33:00.751Z</time></trkpt><trkpt lat="44.373635" lon="12.2322267"><ele>-2.6666666666666665</ele><time>2026-05-01T09:33:01.744Z</time></trkpt><trkpt lat="44.373535" lon="12.232485"><ele>-2.333333333333333</ele><time>2026-05-01T09:33:02.743Z</time></trkpt><trkpt lat="44.3734483" lon="12.23275"><ele>-2.0</ele><time>2026-05-01T09:33:03.755Z</time></trkpt><trkpt lat="44.3733533" lon="12.23301"><ele>-2.0</ele><time>2026-05-01T09:33:04.742Z</time></trkpt><trkpt lat="44.3732467" lon="12.2332617"><ele>-2.0</ele><time>2026-05-01T09:33:05.759Z</time></trkpt><trkpt lat="44.3731517" lon="12.2335217"><ele>-2.0</ele><time>2026-05-01T09:33:06.753Z</time></trkpt><trkpt lat="44.3730533" lon="12.2337883"><ele>-2.333333333333333</ele><time>2026-05-01T09:33:07.751Z</time></trkpt><trkpt lat="44.3729617" lon="12.2340533"><ele>-2.6666666666666665</ele><time>2026-05-01T09:33:08.751Z</time></trkpt><trkpt lat="44.3728783" lon="12.2343117"><ele>-3.0</ele><time>2026-05-01T09:33:09.751Z</time></trkpt><trkpt lat="44.372785" lon="12.2345717"><ele>-3.0</ele><time>2026-05-01T09:33:10.753Z</time></trkpt><trkpt lat="44.372685" lon="12.2348283"><ele>-3.0</ele><time>2026-05-01T09:33:11.742Z</time></trkpt><trkpt lat="44.3725783" lon="12.2350783"><ele>-3.0</ele><time>2026-05-01T09:33:12.75Z</time></trkpt><trkpt lat="44.3724783" lon="12.2353367"><ele>-3.0</ele><time>2026-05-01T09:33:13.743Z</time></trkpt><trkpt lat="44.3723817" lon="12.2356067"><ele>-3.0</ele><time>2026-05-01T09:33:14.755Z</time></trkpt><trkpt lat="44.3722883" lon="12.23587"><ele>-3.0</ele><time>2026-05-01T09:33:15.749Z</time></trkpt><trkpt lat="44.3722033" lon="12.2361283"><ele>-2.0</ele><time>2026-05-01T09:33:16.751Z</time></trkpt><trkpt lat="44.372115" lon="12.2363933"><ele>-1.0</ele><time>2026-05-01T09:33:17.748Z</time></trkpt><trkpt lat="44.3720317" lon="12.23666"><ele>0.0</ele><time>2026-05-01T09:33:18.752Z</time></trkpt><trkpt lat="44.3719417" lon="12.2369233"><ele>0.0</ele><time>2026-05-01T09:33:19.749Z</time></trkpt><trkpt lat="44.3718433" lon="12.2371833"><ele>0.0</ele><time>2026-05-01T09:33:20.752Z</time></trkpt><trkpt lat="44.371745" lon="12.23745"><ele>0.0</ele><time>2026-05-01T09:33:21.742Z</time></trkpt><trkpt lat="44.371645" lon="12.2377167"><ele>-0.3333333333333333</ele><time>2026-05-01T09:33:22.743Z</time></trkpt><trkpt lat="44.3715467" lon="12.2379767"><ele>-0.6666666666666666</ele><time>2026-05-01T09:33:23.745Z</time></trkpt><trkpt lat="44.3714467" lon="12.238245"><ele>-1.0</ele><time>2026-05-01T09:33:24.751Z</time></trkpt><trkpt lat="44.3713517" lon="12.238495"><ele>-1.3333333333333333</ele><time>2026-05-01T09:33:25.757Z</time></trkpt><trkpt lat="44.3712567" lon="12.2387483"><ele>-1.6666666666666665</ele><time>2026-05-01T09:33:26.742Z</time></trkpt><trkpt lat="44.3711667" lon="12.239"><ele>-2.0</ele><time>2026-05-01T09:33:27.75Z</time></trkpt><trkpt lat="44.3710767" lon="12.2392433"><ele>-2.0</ele><time>2026-05-01T09:33:28.75Z</time></trkpt><trkpt lat="44.370995" lon="12.2394767"><ele>-2.0</ele><time>2026-05-01T09:33:29.744Z</time></trkpt><trkpt lat="44.370915" lon="12.2397017"><ele>-2.0</ele><time>2026-05-01T09:33:30.749Z</time></trkpt><trkpt lat="44.370835" lon="12.2399133"><ele>-2.25</ele><time>2026-05-01T09:33:31.748Z</time></trkpt><trkpt lat="44.3707617" lon="12.240115"><ele>-2.5</ele><time>2026-05-01T09:33:32.749Z</time></trkpt><trkpt lat="44.3706933" lon="12.2403"><ele>-2.75</ele><time>2026-05-01T09:33:33.749Z</time></trkpt><trkpt lat="44.3706283" lon="12.2404683"><ele>-3.0</ele><time>2026-05-01T09:33:34.751Z</time></trkpt><trkpt lat="44.37057" lon="12.2406217"><ele>-3.0</ele><time>2026-05-01T09:33:35.748Z</time></trkpt><trkpt lat="44.3705167" lon="12.2407617"><ele>-3.0</ele><time>2026-05-01T09:33:36.752Z</time></trkpt><trkpt lat="44.3704683" lon="12.24089"><ele>-3.0</ele><time>2026-05-01T09:33:37.749Z</time></trkpt><trkpt lat="44.3704267" lon="12.2410117"><ele>-3.0</ele><time>2026-05-01T09:33:38.755Z</time></trkpt><trkpt lat="44.3703933" lon="12.2411117"><ele>-3.0</ele><time>2026-05-01T09:33:39.752Z</time></trkpt><trkpt lat="44.3703633" lon="12.2412"><ele>-3.0</ele><time>2026-05-01T09:33:40.751Z</time></trkpt><trkpt lat="44.3703317" lon="12.241285"><ele>-3.0</ele><time>2026-05-01T09:33:41.755Z</time></trkpt><trkpt lat="44.3703033" lon="12.241365"><ele>-3.0</ele><time>2026-05-01T09:33:42.747Z</time></trkpt><trkpt lat="44.3702583" lon="12.241495"><ele>-3.0</ele><time>2026-05-01T09:33:44.749Z</time></trkpt><trkpt lat="44.3702167" lon="12.2415767"><ele>-3.0</ele><time>2026-05-01T09:33:46.749Z</time></trkpt><trkpt lat="44.3701883" lon="12.241665"><ele>-3.0</ele><time>2026-05-01T09:33:48.75Z</time></trkpt><trkpt lat="44.3701533" lon="12.2417617"><ele>-3.0</ele><time>2026-05-01T09:33:50.752Z</time></trkpt><trkpt lat="44.3701167" lon="12.2418683"><ele>-3.0</ele><time>2026-05-01T09:33:53.743Z</time></trkpt><trkpt lat="44.370085" lon="12.2419583"><ele>-3.0</ele><time>2026-05-01T09:33:55.749Z</time></trkpt><trkpt lat="44.3700417" lon="12.24209"><ele>-3.0</ele><time>2026-05-01T09:33:57.752Z</time></trkpt><trkpt lat="44.3700167" lon="12.2421833"><ele>-3.0</ele><time>2026-05-01T09:33:59.747Z</time></trkpt><trkpt lat="44.369975" lon="12.2422967"><ele>-3.0</ele><time>2026-05-01T09:34:02.752Z</time></trkpt><trkpt lat="44.3699417" lon="12.2423883"><ele>-2.9999999999999996</ele><time>2026-05-01T09:34:06.744Z</time></trkpt><trkpt lat="44.3699067" lon="12.242475"><ele>-3.0</ele><time>2026-05-01T09:34:09.752Z</time></trkpt><trkpt lat="44.36987" lon="12.2425767"><ele>-3.0</ele><time>2026-05-01T09:34:11.752Z</time></trkpt><trkpt lat="44.369835" lon="12.24267"><ele>-3.0</ele><time>2026-05-01T09:34:13.747Z</time></trkpt><trkpt lat="44.3698" lon="12.2427683"><ele>-3.0</ele><time>2026-05-01T09:34:16.752Z</time></trkpt><trkpt lat="44.3697667" lon="12.24285"><ele>-2.9999999999999996</ele><time>2026-05-01T09:34:19.749Z</time></trkpt><trkpt lat="44.3697467" lon="12.2429433"><ele>-3.0</ele><time>2026-05-01T09:35:07.748Z</time></trkpt><trkpt lat="44.3697133" lon="12.2430367"><ele>-3.0</ele><time>2026-05-01T09:35:12.752Z</time></trkpt><trkpt lat="44.3696683" lon="12.2431183"><ele>-3.0</ele><time>2026-05-01T09:35:28.743Z</time></trkpt><trkpt lat="44.3696267" lon="12.243235"><ele>-3.0</ele><time>2026-05-01T09:35:55.751Z</time></trkpt><trkpt lat="44.3695933" lon="12.24331"><ele>-3.0</ele><time>2026-05-01T09:35:57.749Z</time></trkpt><trkpt lat="44.3695583" lon="12.2434067"><ele>-3.0</ele><time>2026-05-01T09:35:59.751Z</time></trkpt><trkpt lat="44.3695183" lon="12.2435133"><ele>-3.0</ele><time>2026-05-01T09:36:01.75Z</time></trkpt><trkpt lat="44.3694733" lon="12.24364"><ele>-2.8333333333333335</ele><time>2026-05-01T09:36:03.749Z</time></trkpt><trkpt lat="44.36943" lon="12.24376"><ele>-2.6666666666666665</ele><time>2026-05-01T09:36:05.749Z</time></trkpt><trkpt lat="44.3693933" lon="12.2438367"><ele>-2.5</ele><time>2026-05-01T09:36:07.752Z</time></trkpt><trkpt lat="44.3693783" lon="12.24396"><ele>-2.333333333333333</ele><time>2026-05-01T09:36:19.751Z</time></trkpt><trkpt lat="44.3693467" lon="12.24404"><ele>-2.1666666666666665</ele><time>2026-05-01T09:36:21.746Z</time></trkpt><trkpt lat="44.369315" lon="12.2441367"><ele>-2.0</ele><time>2026-05-01T09:36:23.75Z</time></trkpt><trkpt lat="44.3692683" lon="12.24424"><ele>-2.0</ele><time>2026-05-01T09:36:25.75Z</time></trkpt><trkpt lat="44.3692283" lon="12.2443317"><ele>-2.0</ele><time>2026-05-01T09:36:27.75Z</time></trkpt><trkpt lat="44.3691883" lon="12.2444433"><ele>-2.0</ele><time>2026-05-01T09:36:29.751Z</time></trkpt><trkpt lat="44.369135" lon="12.244575"><ele>-2.0</ele><time>2026-05-01T09:36:31.747Z</time></trkpt><trkpt lat="44.3690817" lon="12.2447067"><ele>-2.0</ele><time>2026-05-01T09:36:33.752Z</time></trkpt><trkpt lat="44.3690467" lon="12.244825"><ele>-1.6</ele><time>2026-05-01T09:36:35.75Z</time></trkpt><trkpt lat="44.3690067" lon="12.2449717"><ele>-1.2000000000000002</ele><time>2026-05-01T09:36:37.75Z</time></trkpt><trkpt lat="44.3689633" lon="12.2450967"><ele>-0.8</ele><time>2026-05-01T09:36:39.754Z</time></trkpt><trkpt lat="44.3689283" lon="12.2451883"><ele>-0.4</ele><time>2026-05-01T09:36:41.753Z</time></trkpt><trkpt lat="44.3688933" lon="12.2453333"><ele>0.0</ele><time>2026-05-01T09:36:43.748Z</time></trkpt><trkpt lat="44.3688683" lon="12.24542"><ele>-0.2</ele><time>2026-05-01T09:36:44.746Z</time></trkpt><trkpt lat="44.368835" lon="12.24553"><ele>-0.4</ele><time>2026-05-01T09:36:45.75Z</time></trkpt><trkpt lat="44.3687967" lon="12.245665"><ele>-0.6000000000000001</ele><time>2026-05-01T09:36:46.742Z</time></trkpt><trkpt lat="44.368745" lon="12.2458183"><ele>-0.8</ele><time>2026-05-01T09:36:47.751Z</time></trkpt><trkpt lat="44.3686867" lon="12.2459767"><ele>-1.0</ele><time>2026-05-01T09:36:48.753Z</time></trkpt><trkpt lat="44.36862" lon="12.2461317"><ele>-1.0</ele><time>2026-05-01T09:36:49.754Z</time></trkpt><trkpt lat="44.3685517" lon="12.2462817"><ele>-1.0</ele><time>2026-05-01T09:36:50.754Z</time></trkpt><trkpt lat="44.3684817" lon="12.2464283"><ele>-1.0</ele><time>2026-05-01T09:36:51.751Z</time></trkpt><trkpt lat="44.3684183" lon="12.246565"><ele>-1.0</ele><time>2026-05-01T09:36:52.752Z</time></trkpt><trkpt lat="44.368355" lon="12.2467"><ele>-1.0</ele><time>2026-05-01T09:36:53.75Z</time></trkpt><trkpt lat="44.3682883" lon="12.2468333"><ele>-1.0</ele><time>2026-05-01T09:36:54.75Z</time></trkpt><trkpt lat="44.368215" lon="12.2469667"><ele>-1.0</ele><time>2026-05-01T09:36:55.751Z</time></trkpt><trkpt lat="44.3681367" lon="12.24709"><ele>-1.0</ele><time>2026-05-01T09:36:56.751Z</time></trkpt><trkpt lat="44.3680583" lon="12.2472017"><ele>-1.2000000000000002</ele><time>2026-05-01T09:36:57.747Z</time></trkpt><trkpt lat="44.3679833" lon="12.247305"><ele>-1.4000000000000001</ele><time>2026-05-01T09:36:58.752Z</time></trkpt><trkpt lat="44.3679067" lon="12.24741"><ele>-1.6</ele><time>2026-05-01T09:36:59.75Z</time></trkpt><trkpt lat="44.3678267" lon="12.2475133"><ele>-1.8</ele><time>2026-05-01T09:37:00.741Z</time></trkpt><trkpt lat="44.3677367" lon="12.2476117"><ele>-2.0</ele><time>2026-05-01T09:37:01.748Z</time></trkpt><trkpt lat="44.3676433" lon="12.2477133"><ele>-2.0</ele><time>2026-05-01T09:37:02.742Z</time></trkpt><trkpt lat="44.3675417" lon="12.2478217"><ele>-2.0</ele><time>2026-05-01T09:37:03.748Z</time></trkpt><trkpt lat="44.36744" lon="12.2479367"><ele>-2.0</ele><time>2026-05-01T09:37:04.747Z</time></trkpt><trkpt lat="44.3673333" lon="12.248055"><ele>-2.0</ele><time>2026-05-01T09:37:05.742Z</time></trkpt><trkpt lat="44.3672217" lon="12.2481767"><ele>-2.5</ele><time>2026-05-01T09:37:06.756Z</time></trkpt><trkpt lat="44.3671017" lon="12.2483033"><ele>-3.0</ele><time>2026-05-01T09:37:07.758Z</time></trkpt><trkpt lat="44.3669817" lon="12.248425"><ele>-3.5</ele><time>2026-05-01T09:37:08.743Z</time></trkpt><trkpt lat="44.36686" lon="12.2485483"><ele>-4.0</ele><time>2026-05-01T09:37:09.741Z</time></trkpt><trkpt lat="44.3667367" lon="12.24867"><ele>-4.0</ele><time>2026-05-01T09:37:10.752Z</time></trkpt><trkpt lat="44.3666183" lon="12.248805"><ele>-4.0</ele><time>2026-05-01T09:37:11.748Z</time></trkpt><trkpt lat="44.3664983" lon="12.2489333"><ele>-4.0</ele><time>2026-05-01T09:37:12.752Z</time></trkpt><trkpt lat="44.3663683" lon="12.2490617"><ele>-4.0</ele><time>2026-05-01T09:37:13.751Z</time></trkpt><trkpt lat="44.3662367" lon="12.2491983"><ele>-4.0</ele><time>2026-05-01T09:37:14.751Z</time></trkpt><trkpt lat="44.3661033" lon="12.249345"><ele>-4.0</ele><time>2026-05-01T09:37:15.751Z</time></trkpt><trkpt lat="44.3659633" lon="12.2494967"><ele>-4.0</ele><time>2026-05-01T09:37:16.747Z</time></trkpt><trkpt lat="44.3658167" lon="12.2496533"><ele>-4.0</ele><time>2026-05-01T09:37:17.75Z</time></trkpt><trkpt lat="44.365665" lon="12.2498083"><ele>-4.0</ele><time>2026-05-01T09:37:18.749Z</time></trkpt><trkpt lat="44.3655133" lon="12.2499667"><ele>-3.333333333333333</ele><time>2026-05-01T09:37:19.756Z</time></trkpt><trkpt lat="44.3653567" lon="12.250125"><ele>-2.6666666666666665</ele><time>2026-05-01T09:37:20.753Z</time></trkpt><trkpt lat="44.3652" lon="12.250285"><ele>-2.0</ele><time>2026-05-01T09:37:21.751Z</time></trkpt><trkpt lat="44.3650417" lon="12.2504433"><ele>-2.0</ele><time>2026-05-01T09:37:22.749Z</time></trkpt><trkpt lat="44.3648833" lon="12.250605"><ele>-2.0</ele><time>2026-05-01T09:37:23.75Z</time></trkpt><trkpt lat="44.3647267" lon="12.25077"><ele>-2.0</ele><time>2026-05-01T09:37:24.751Z</time></trkpt><trkpt lat="44.36457" lon="12.2509367"><ele>-2.6666666666666665</ele><time>2026-05-01T09:37:25.75Z</time></trkpt><trkpt lat="44.3644133" lon="12.2511033"><ele>-3.333333333333333</ele><time>2026-05-01T09:37:26.752Z</time></trkpt><trkpt lat="44.364255" lon="12.25127"><ele>-4.0</ele><time>2026-05-01T09:37:27.755Z</time></trkpt><trkpt lat="44.3640983" lon="12.251435"><ele>-4.0</ele><time>2026-05-01T09:37:28.748Z</time></trkpt><trkpt lat="44.36394" lon="12.2516017"><ele>-4.0</ele><time>2026-05-01T09:37:29.749Z</time></trkpt><trkpt lat="44.3637817" lon="12.25177"><ele>-4.0</ele><time>2026-05-01T09:37:30.753Z</time></trkpt><trkpt lat="44.3636217" lon="12.2519383"><ele>-4.333333333333333</ele><time>2026-05-01T09:37:31.751Z</time></trkpt><trkpt lat="44.3634633" lon="12.2521083"><ele>-4.666666666666667</ele><time>2026-05-01T09:37:32.748Z</time></trkpt><trkpt lat="44.3633017" lon="12.2522733"><ele>-5.0</ele><time>2026-05-01T09:37:33.749Z</time></trkpt><trkpt lat="44.3631433" lon="12.252435"><ele>-4.666666666666667</ele><time>2026-05-01T09:37:34.758Z</time></trkpt><trkpt lat="44.3629933" lon="12.2525933"><ele>-4.333333333333333</ele><time>2026-05-01T09:37:35.753Z</time></trkpt><trkpt lat="44.36285" lon="12.2527383"><ele>-4.0</ele><time>2026-05-01T09:37:36.76Z</time></trkpt><trkpt lat="44.36271" lon="12.2528867"><ele>-4.0</ele><time>2026-05-01T09:37:37.753Z</time></trkpt><trkpt lat="44.3625733" lon="12.2530333"><ele>-4.0</ele><time>2026-05-01T09:37:38.756Z</time></trkpt><trkpt lat="44.36244" lon="12.2531767"><ele>-4.0</ele><time>2026-05-01T09:37:39.756Z</time></trkpt><trkpt lat="44.3623133" lon="12.2533167"><ele>-3.6666666666666665</ele><time>2026-05-01T09:37:40.746Z</time></trkpt><trkpt lat="44.3621917" lon="12.2534467"><ele>-3.333333333333333</ele><time>2026-05-01T09:37:41.751Z</time></trkpt><trkpt lat="44.3620717" lon="12.25358"><ele>-3.0</ele><time>2026-05-01T09:37:42.75Z</time></trkpt><trkpt lat="44.361955" lon="12.2537083"><ele>-3.0</ele><time>2026-05-01T09:37:43.749Z</time></trkpt><trkpt lat="44.36184" lon="12.253835"><ele>-3.0</ele><time>2026-05-01T09:37:44.752Z</time></trkpt><trkpt lat="44.3617217" lon="12.2539633"><ele>-3.0</ele><time>2026-05-01T09:37:45.753Z</time></trkpt><trkpt lat="44.3616033" lon="12.2540867"><ele>-3.0</ele><time>2026-05-01T09:37:46.75Z</time></trkpt><trkpt lat="44.361485" lon="12.2542117"><ele>-2.5</ele><time>2026-05-01T09:37:47.752Z</time></trkpt><trkpt lat="44.361365" lon="12.25433"><ele>-2.0</ele><time>2026-05-01T09:37:48.75Z</time></trkpt><trkpt lat="44.3612433" lon="12.2544467"><ele>-1.5</ele><time>2026-05-01T09:37:49.749Z</time></trkpt><trkpt lat="44.3611233" lon="12.2545617"><ele>-1.0</ele><time>2026-05-01T09:37:50.753Z</time></trkpt><trkpt lat="44.3609933" lon="12.2546667"><ele>-1.0</ele><time>2026-05-01T09:37:51.753Z</time></trkpt><trkpt lat="44.360865" lon="12.2547767"><ele>-1.0</ele><time>2026-05-01T09:37:52.749Z</time></trkpt><trkpt lat="44.3607333" lon="12.254885"><ele>-1.0</ele><time>2026-05-01T09:37:53.751Z</time></trkpt><trkpt lat="44.3606017" lon="12.2549833"><ele>-0.6666666666666666</ele><time>2026-05-01T09:37:54.746Z</time></trkpt><trkpt lat="44.3604683" lon="12.25508"><ele>-0.3333333333333333</ele><time>2026-05-01T09:37:55.75Z</time></trkpt><trkpt lat="44.3603283" lon="12.2551617"><ele>0.0</ele><time>2026-05-01T09:37:56.752Z</time></trkpt><trkpt lat="44.36019" lon="12.2552467"><ele>0.0</ele><time>2026-05-01T09:37:57.75Z</time></trkpt><trkpt lat="44.3600517" lon="12.2553217"><ele>0.0</ele><time>2026-05-01T09:37:58.75Z</time></trkpt><trkpt lat="44.35992" lon="12.255385"><ele>0.0</ele><time>2026-05-01T09:37:59.751Z</time></trkpt><trkpt lat="44.3597883" lon="12.2554417"><ele>0.0</ele><time>2026-05-01T09:38:00.756Z</time></trkpt><trkpt lat="44.3596617" lon="12.2554933"><ele>0.0</ele><time>2026-05-01T09:38:01.761Z</time></trkpt><trkpt lat="44.35953" lon="12.2555417"><ele>0.0</ele><time>2026-05-01T09:38:02.754Z</time></trkpt><trkpt lat="44.3594017" lon="12.2555917"><ele>0.0</ele><time>2026-05-01T09:38:03.753Z</time></trkpt><trkpt lat="44.3592733" lon="12.2556417"><ele>0.0</ele><time>2026-05-01T09:38:04.758Z</time></trkpt><trkpt lat="44.3591433" lon="12.2556917"><ele>0.0</ele><time>2026-05-01T09:38:05.751Z</time></trkpt><trkpt lat="44.3590083" lon="12.2557467"><ele>0.0</ele><time>2026-05-01T09:38:06.748Z</time></trkpt><trkpt lat="44.358875" lon="12.25579"><ele>0.0</ele><time>2026-05-01T09:38:07.754Z</time></trkpt><trkpt lat="44.358745" lon="12.2558317"><ele>0.0</ele><time>2026-05-01T09:38:08.751Z</time></trkpt><trkpt lat="44.3586117" lon="12.2558783"><ele>0.0</ele><time>2026-05-01T09:38:09.742Z</time></trkpt><trkpt lat="44.3584783" lon="12.2559283"><ele>0.0</ele><time>2026-05-01T09:38:10.749Z</time></trkpt><trkpt lat="44.3583433" lon="12.2559733"><ele>0.0</ele><time>2026-05-01T09:38:11.743Z</time></trkpt><trkpt lat="44.3582033" lon="12.2560183"><ele>0.0</ele><time>2026-05-01T09:38:12.752Z</time></trkpt><trkpt lat="44.3580617" lon="12.2560583"><ele>0.0</ele><time>2026-05-01T09:38:13.752Z</time></trkpt><trkpt lat="44.357915" lon="12.2561033"><ele>0.0</ele><time>2026-05-01T09:38:14.749Z</time></trkpt><trkpt lat="44.35777" lon="12.2561567"><ele>0.0</ele><time>2026-05-01T09:38:15.751Z</time></trkpt><trkpt lat="44.3576233" lon="12.2562"><ele>0.0</ele><time>2026-05-01T09:38:16.749Z</time></trkpt><trkpt lat="44.357485" lon="12.256245"><ele>0.0</ele><time>2026-05-01T09:38:17.75Z</time></trkpt><trkpt lat="44.3573433" lon="12.2562917"><ele>0.0</ele><time>2026-05-01T09:38:18.752Z</time></trkpt><trkpt lat="44.357205" lon="12.2563317"><ele>0.0</ele><time>2026-05-01T09:38:19.753Z</time></trkpt><trkpt lat="44.357065" lon="12.256365"><ele>0.0</ele><time>2026-05-01T09:38:20.757Z</time></trkpt><trkpt lat="44.3569233" lon="12.2563933"><ele>0.0</ele><time>2026-05-01T09:38:21.753Z</time></trkpt><trkpt lat="44.3567783" lon="12.2564183"><ele>0.0</ele><time>2026-05-01T09:38:22.748Z</time></trkpt><trkpt lat="44.356635" lon="12.2564417"><ele>0.0</ele><time>2026-05-01T09:38:23.751Z</time></trkpt><trkpt lat="44.35649" lon="12.25646"><ele>0.0</ele><time>2026-05-01T09:38:24.746Z</time></trkpt><trkpt lat="44.3563433" lon="12.256485"><ele>0.0</ele><time>2026-05-01T09:38:25.75Z</time></trkpt><trkpt lat="44.3561917" lon="12.2564967"><ele>0.0</ele><time>2026-05-01T09:38:26.754Z</time></trkpt><trkpt lat="44.3560417" lon="12.25651"><ele>0.0</ele><time>2026-05-01T09:38:27.75Z</time></trkpt><trkpt lat="44.35589" lon="12.2565267"><ele>0.0</ele><time>2026-05-01T09:38:28.759Z</time></trkpt><trkpt lat="44.3557333" lon="12.25655"><ele>0.0</ele><time>2026-05-01T09:38:29.749Z</time></trkpt><trkpt lat="44.3555717" lon="12.2565667"><ele>0.0</ele><time>2026-05-01T09:38:30.752Z</time></trkpt><trkpt lat="44.355415" lon="12.2565783"><ele>0.0</ele><time>2026-05-01T09:38:31.749Z</time></trkpt><trkpt lat="44.3552583" lon="12.25659"><ele>0.0</ele><time>2026-05-01T09:38:32.752Z</time></trkpt><trkpt lat="44.3551017" lon="12.2566033"><ele>0.0</ele><time>2026-05-01T09:38:33.751Z</time></trkpt><trkpt lat="44.3549467" lon="12.256625"><ele>0.0</ele><time>2026-05-01T09:38:34.751Z</time></trkpt><trkpt lat="44.35479" lon="12.2566633"><ele>0.0</ele><time>2026-05-01T09:38:35.751Z</time></trkpt><trkpt lat="44.3546383" lon="12.2567117"><ele>0.0</ele><time>2026-05-01T09:38:36.743Z</time></trkpt><trkpt lat="44.35448" lon="12.256765"><ele>0.0</ele><time>2026-05-01T09:38:37.75Z</time></trkpt><trkpt lat="44.3543183" lon="12.256815"><ele>0.0</ele><time>2026-05-01T09:38:38.75Z</time></trkpt><trkpt lat="44.3541567" lon="12.2568617"><ele>0.0</ele><time>2026-05-01T09:38:39.751Z</time></trkpt><trkpt lat="44.3539983" lon="12.2569083"><ele>0.0</ele><time>2026-05-01T09:38:40.75Z</time></trkpt><trkpt lat="44.3538467" lon="12.25695"><ele>0.0</ele><time>2026-05-01T09:38:41.748Z</time></trkpt><trkpt lat="44.3536917" lon="12.2569983"><ele>-0.5</ele><time>2026-05-01T09:38:42.751Z</time></trkpt><trkpt lat="44.3535417" lon="12.25705"><ele>-1.0</ele><time>2026-05-01T09:38:43.753Z</time></trkpt><trkpt lat="44.353405" lon="12.2571017"><ele>-1.5</ele><time>2026-05-01T09:38:44.743Z</time></trkpt><trkpt lat="44.3532767" lon="12.257165"><ele>-2.0</ele><time>2026-05-01T09:38:45.751Z</time></trkpt><trkpt lat="44.353155" lon="12.2572233"><ele>-2.0</ele><time>2026-05-01T09:38:46.75Z</time></trkpt><trkpt lat="44.3530333" lon="12.2572833"><ele>-2.0</ele><time>2026-05-01T09:38:47.752Z</time></trkpt><trkpt lat="44.3529167" lon="12.257345"><ele>-2.0</ele><time>2026-05-01T09:38:48.751Z</time></trkpt><trkpt lat="44.352805" lon="12.25741"><ele>-2.0</ele><time>2026-05-01T09:38:49.748Z</time></trkpt><trkpt lat="44.3526967" lon="12.25748"><ele>-2.0</ele><time>2026-05-01T09:38:50.751Z</time></trkpt><trkpt lat="44.3525917" lon="12.2575517"><ele>-2.0</ele><time>2026-05-01T09:38:51.744Z</time></trkpt><trkpt lat="44.3524883" lon="12.2576233"><ele>-2.0</ele><time>2026-05-01T09:38:52.751Z</time></trkpt><trkpt lat="44.3523867" lon="12.2576917"><ele>-2.0</ele><time>2026-05-01T09:38:53.758Z</time></trkpt><trkpt lat="44.3522917" lon="12.2577617"><ele>-1.9999999999999998</ele><time>2026-05-01T09:38:54.764Z</time></trkpt><trkpt lat="44.352205" lon="12.25783"><ele>-2.0</ele><time>2026-05-01T09:38:55.75Z</time></trkpt><trkpt lat="44.3521233" lon="12.25789"><ele>-2.0</ele><time>2026-05-01T09:38:56.745Z</time></trkpt><trkpt lat="44.352045" lon="12.2579417"><ele>-2.0</ele><time>2026-05-01T09:38:57.751Z</time></trkpt><trkpt lat="44.3519717" lon="12.2579817"><ele>-1.9999999999999998</ele><time>2026-05-01T09:38:58.746Z</time></trkpt><trkpt lat="44.3518983" lon="12.2580117"><ele>-2.0</ele><time>2026-05-01T09:38:59.747Z</time></trkpt><trkpt lat="44.3518267" lon="12.2580233"><ele>-2.0</ele><time>2026-05-01T09:39:00.753Z</time></trkpt><trkpt lat="44.3517567" lon="12.258025"><ele>-1.9999999999999998</ele><time>2026-05-01T09:39:01.742Z</time></trkpt><trkpt lat="44.3516867" lon="12.2580067"><ele>-2.0</ele><time>2026-05-01T09:39:02.754Z</time></trkpt><trkpt lat="44.3516183" lon="12.25798"><ele>-2.0</ele><time>2026-05-01T09:39:03.75Z</time></trkpt><trkpt lat="44.3515517" lon="12.2579533"><ele>-1.9999999999999998</ele><time>2026-05-01T09:39:04.752Z</time></trkpt><trkpt lat="44.3514833" lon="12.2579467"><ele>-2.0</ele><time>2026-05-01T09:39:05.753Z</time></trkpt><trkpt lat="44.351415" lon="12.2579667"><ele>-2.0</ele><time>2026-05-01T09:39:06.756Z</time></trkpt><trkpt lat="44.3513467" lon="12.258015"><ele>-2.1666666666666665</ele><time>2026-05-01T09:39:07.749Z</time></trkpt><trkpt lat="44.3512867" lon="12.2580783"><ele>-2.333333333333333</ele><time>2026-05-01T09:39:08.744Z</time></trkpt><trkpt lat="44.351235" lon="12.2581567"><ele>-2.5</ele><time>2026-05-01T09:39:09.754Z</time></trkpt><trkpt lat="44.3511933" lon="12.2582467"><ele>-2.6666666666666665</ele><time>2026-05-01T09:39:10.747Z</time></trkpt><trkpt lat="44.3511533" lon="12.258355"><ele>-2.8333333333333335</ele><time>2026-05-01T09:39:11.753Z</time></trkpt><trkpt lat="44.3511083" lon="12.25847"><ele>-3.0</ele><time>2026-05-01T09:39:12.751Z</time></trkpt><trkpt lat="44.3510533" lon="12.258595"><ele>-3.0</ele><time>2026-05-01T09:39:13.745Z</time></trkpt><trkpt lat="44.35098" lon="12.2587"><ele>-3.0</ele><time>2026-05-01T09:39:14.751Z</time></trkpt><trkpt lat="44.3508967" lon="12.2587917"><ele>-3.0</ele><time>2026-05-01T09:39:15.743Z</time></trkpt><trkpt lat="44.3508033" lon="12.25888"><ele>-3.0</ele><time>2026-05-01T09:39:16.742Z</time></trkpt><trkpt lat="44.3507033" lon="12.25897"><ele>-3.0</ele><time>2026-05-01T09:39:17.754Z</time></trkpt><trkpt lat="44.350595" lon="12.25905"><ele>-2.75</ele><time>2026-05-01T09:39:18.755Z</time></trkpt><trkpt lat="44.3504783" lon="12.25914"><ele>-2.5</ele><time>2026-05-01T09:39:19.751Z</time></trkpt><trkpt lat="44.3503533" lon="12.2592433"><ele>-2.25</ele><time>2026-05-01T09:39:20.744Z</time></trkpt><trkpt lat="44.3502117" lon="12.2593533"><ele>-2.0</ele><time>2026-05-01T09:39:21.751Z</time></trkpt><trkpt lat="44.3500683" lon="12.2594567"><ele>-2.0</ele><time>2026-05-01T09:39:22.751Z</time></trkpt><trkpt lat="44.349925" lon="12.25956"><ele>-2.0</ele><time>2026-05-01T09:39:23.75Z</time></trkpt><trkpt lat="44.3497833" lon="12.2596633"><ele>-2.0</ele><time>2026-05-01T09:39:24.756Z</time></trkpt><trkpt lat="44.3496417" lon="12.25977"><ele>-1.0</ele><time>2026-05-01T09:39:25.752Z</time></trkpt><trkpt lat="44.3494967" lon="12.2598783"><ele>0.0</ele><time>2026-05-01T09:39:26.759Z</time></trkpt><trkpt lat="44.3493483" lon="12.2599933"><ele>1.0</ele><time>2026-05-01T09:39:27.751Z</time></trkpt><trkpt lat="44.3492" lon="12.2601083"><ele>1.0</ele><time>2026-05-01T09:39:28.751Z</time></trkpt><trkpt lat="44.3490517" lon="12.2602183"><ele>1.0</ele><time>2026-05-01T09:39:29.746Z</time></trkpt><trkpt lat="44.348905" lon="12.26033"><ele>1.0</ele><time>2026-05-01T09:39:30.752Z</time></trkpt><trkpt lat="44.3487583" lon="12.2604417"><ele>0.6666666666666666</ele><time>2026-05-01T09:39:31.751Z</time></trkpt><trkpt lat="44.348615" lon="12.26056"><ele>0.3333333333333333</ele><time>2026-05-01T09:39:32.752Z</time></trkpt><trkpt lat="44.3484683" lon="12.2606783"><ele>0.0</ele><time>2026-05-01T09:39:33.749Z</time></trkpt><trkpt lat="44.3483167" lon="12.2607917"><ele>0.0</ele><time>2026-05-01T09:39:34.749Z</time></trkpt><trkpt lat="44.3481617" lon="12.2609067"><ele>0.0</ele><time>2026-05-01T09:39:35.744Z</time></trkpt><trkpt lat="44.3480083" lon="12.2610217"><ele>0.0</ele><time>2026-05-01T09:39:36.753Z</time></trkpt><trkpt lat="44.3478567" lon="12.26114"><ele>-0.3333333333333333</ele><time>2026-05-01T09:39:37.75Z</time></trkpt><trkpt lat="44.3477067" lon="12.2612583"><ele>-0.6666666666666666</ele><time>2026-05-01T09:39:38.753Z</time></trkpt><trkpt lat="44.3475567" lon="12.2613683"><ele>-1.0</ele><time>2026-05-01T09:39:39.751Z</time></trkpt><trkpt lat="44.347405" lon="12.261475"><ele>-1.3333333333333333</ele><time>2026-05-01T09:39:40.753Z</time></trkpt><trkpt lat="44.34725" lon="12.2615867"><ele>-1.6666666666666665</ele><time>2026-05-01T09:39:41.751Z</time></trkpt><trkpt lat="44.3470967" lon="12.261705"><ele>-2.0</ele><time>2026-05-01T09:39:42.741Z</time></trkpt><trkpt lat="44.3469433" lon="12.261825"><ele>-2.0</ele><time>2026-05-01T09:39:43.747Z</time></trkpt><trkpt lat="44.34679" lon="12.2619467"><ele>-2.0</ele><time>2026-05-01T09:39:44.754Z</time></trkpt><trkpt lat="44.34663" lon="12.2620633"><ele>-2.0</ele><time>2026-05-01T09:39:45.754Z</time></trkpt><trkpt lat="44.3464683" lon="12.2621783"><ele>-2.0</ele><time>2026-05-01T09:39:46.75Z</time></trkpt><trkpt lat="44.3463067" lon="12.2622967"><ele>-2.0</ele><time>2026-05-01T09:39:47.75Z</time></trkpt><trkpt lat="44.3461417" lon="12.2624233"><ele>-2.0</ele><time>2026-05-01T09:39:48.751Z</time></trkpt><trkpt lat="44.3459783" lon="12.2625533"><ele>-2.0</ele><time>2026-05-01T09:39:49.751Z</time></trkpt><trkpt lat="44.3458133" lon="12.262685"><ele>-2.0</ele><time>2026-05-01T09:39:50.751Z</time></trkpt><trkpt lat="44.345645" lon="12.2628133"><ele>-2.0</ele><time>2026-05-01T09:39:51.756Z</time></trkpt><trkpt lat="44.3454783" lon="12.2629417"><ele>-2.333333333333333</ele><time>2026-05-01T09:39:52.753Z</time></trkpt><trkpt lat="44.3453067" lon="12.2630683"><ele>-2.6666666666666665</ele><time>2026-05-01T09:39:53.76Z</time></trkpt><trkpt lat="44.3451367" lon="12.2632"><ele>-3.0</ele><time>2026-05-01T09:39:54.753Z</time></trkpt><trkpt lat="44.3449617" lon="12.2633367"><ele>-3.0</ele><time>2026-05-01T09:39:55.744Z</time></trkpt><trkpt lat="44.344785" lon="12.2634717"><ele>-3.0</ele><time>2026-05-01T09:39:56.757Z</time></trkpt><trkpt lat="44.3446117" lon="12.2636083"><ele>-3.0</ele><time>2026-05-01T09:39:57.75Z</time></trkpt><trkpt lat="44.3444333" lon="12.2637467"><ele>-3.0</ele><time>2026-05-01T09:39:58.75Z</time></trkpt><trkpt lat="44.34425" lon="12.263885"><ele>-3.0</ele><time>2026-05-01T09:39:59.75Z</time></trkpt><trkpt lat="44.3440683" lon="12.2640217"><ele>-3.0</ele><time>2026-05-01T09:40:00.75Z</time></trkpt><trkpt lat="44.3438833" lon="12.26416"><ele>-3.0</ele><time>2026-05-01T09:40:01.748Z</time></trkpt><trkpt lat="44.3436967" lon="12.2643"><ele>-3.0</ele><time>2026-05-01T09:40:02.751Z</time></trkpt><trkpt lat="44.3435083" lon="12.2644383"><ele>-3.0</ele><time>2026-05-01T09:40:03.752Z</time></trkpt><trkpt lat="44.3433233" lon="12.2645767"><ele>-3.0</ele><time>2026-05-01T09:40:04.752Z</time></trkpt><trkpt lat="44.34314" lon="12.26472"><ele>-3.0</ele><time>2026-05-01T09:40:05.752Z</time></trkpt><trkpt lat="44.34296" lon="12.2648617"><ele>-3.0</ele><time>2026-05-01T09:40:06.749Z</time></trkpt><trkpt lat="44.3427783" lon="12.2650033"><ele>-2.0</ele><time>2026-05-01T09:40:07.751Z</time></trkpt><trkpt lat="44.3425967" lon="12.2651433"><ele>-1.0</ele><time>2026-05-01T09:40:08.75Z</time></trkpt><trkpt lat="44.3424133" lon="12.2652817"><ele>0.0</ele><time>2026-05-01T09:40:09.75Z</time></trkpt><trkpt lat="44.3422267" lon="12.2654167"><ele>0.0</ele><time>2026-05-01T09:40:10.75Z</time></trkpt><trkpt lat="44.3420417" lon="12.265555"><ele>0.0</ele><time>2026-05-01T09:40:11.752Z</time></trkpt><trkpt lat="44.34186" lon="12.2656933"><ele>0.0</ele><time>2026-05-01T09:40:12.758Z</time></trkpt><trkpt lat="44.34168" lon="12.2658283"><ele>-0.3333333333333333</ele><time>2026-05-01T09:40:13.756Z</time></trkpt><trkpt lat="44.341495" lon="12.2659683"><ele>-0.6666666666666666</ele><time>2026-05-01T09:40:14.754Z</time></trkpt><trkpt lat="44.3413083" lon="12.2661033"><ele>-1.0</ele><time>2026-05-01T09:40:15.743Z</time></trkpt><trkpt lat="44.3411183" lon="12.2662367"><ele>-1.0</ele><time>2026-05-01T09:40:16.748Z</time></trkpt><trkpt lat="44.3409333" lon="12.2663683"><ele>-1.0</ele><time>2026-05-01T09:40:17.752Z</time></trkpt><trkpt lat="44.3407467" lon="12.2665"><ele>-1.0</ele><time>2026-05-01T09:40:18.752Z</time></trkpt><trkpt lat="44.34056" lon="12.266635"><ele>-1.0</ele><time>2026-05-01T09:40:19.753Z</time></trkpt><trkpt lat="44.3403733" lon="12.2667717"><ele>-1.0</ele><time>2026-05-01T09:40:20.758Z</time></trkpt><trkpt lat="44.34019" lon="12.2669067"><ele>-1.0</ele><time>2026-05-01T09:40:21.758Z</time></trkpt><trkpt lat="44.3400117" lon="12.2670367"><ele>-1.0</ele><time>2026-05-01T09:40:22.752Z</time></trkpt><trkpt lat="44.3398333" lon="12.26717"><ele>-1.0</ele><time>2026-05-01T09:40:23.751Z</time></trkpt><trkpt lat="44.33966" lon="12.2673017"><ele>-1.0</ele><time>2026-05-01T09:40:24.75Z</time></trkpt><trkpt lat="44.3394883" lon="12.2674333"><ele>-0.3333333333333333</ele><time>2026-05-01T09:40:25.743Z</time></trkpt><trkpt lat="44.3393217" lon="12.2675667"><ele>0.3333333333333333</ele><time>2026-05-01T09:40:26.752Z</time></trkpt><trkpt lat="44.3391533" lon="12.2677"><ele>1.0</ele><time>2026-05-01T09:40:27.751Z</time></trkpt><trkpt lat="44.3389833" lon="12.26783"><ele>0.6666666666666666</ele><time>2026-05-01T09:40:28.747Z</time></trkpt><trkpt lat="44.338815" lon="12.2679583"><ele>0.3333333333333333</ele><time>2026-05-01T09:40:29.751Z</time></trkpt><trkpt lat="44.3386483" lon="12.2680917"><ele>0.0</ele><time>2026-05-01T09:40:30.744Z</time></trkpt><trkpt lat="44.3384833" lon="12.2682217"><ele>0.3333333333333333</ele><time>2026-05-01T09:40:31.752Z</time></trkpt><trkpt lat="44.3383167" lon="12.26836"><ele>0.6666666666666666</ele><time>2026-05-01T09:40:32.755Z</time></trkpt><trkpt lat="44.338155" lon="12.2684933"><ele>1.0</ele><time>2026-05-01T09:40:33.75Z</time></trkpt><trkpt lat="44.338" lon="12.268625"><ele>1.0</ele><time>2026-05-01T09:40:34.751Z</time></trkpt><trkpt lat="44.3378483" lon="12.2687467"><ele>1.0</ele><time>2026-05-01T09:40:35.746Z</time></trkpt><trkpt lat="44.3376917" lon="12.2688667"><ele>1.0</ele><time>2026-05-01T09:40:36.742Z</time></trkpt><trkpt lat="44.3375317" lon="12.268985"><ele>0.6666666666666666</ele><time>2026-05-01T09:40:37.742Z</time></trkpt><trkpt lat="44.33737" lon="12.2691017"><ele>0.3333333333333333</ele><time>2026-05-01T09:40:38.742Z</time></trkpt><trkpt lat="44.3372083" lon="12.2692267"><ele>0.0</ele><time>2026-05-01T09:40:39.742Z</time></trkpt><trkpt lat="44.3370433" lon="12.2693383"><ele>0.0</ele><time>2026-05-01T09:40:40.751Z</time></trkpt><trkpt lat="44.3368783" lon="12.2694517"><ele>0.0</ele><time>2026-05-01T09:40:41.753Z</time></trkpt><trkpt lat="44.33671" lon="12.26956"><ele>0.0</ele><time>2026-05-01T09:40:42.751Z</time></trkpt><trkpt lat="44.3365433" lon="12.2696767"><ele>0.0</ele><time>2026-05-01T09:40:43.742Z</time></trkpt><trkpt lat="44.3363733" lon="12.269795"><ele>0.0</ele><time>2026-05-01T09:40:44.751Z</time></trkpt><trkpt lat="44.3362033" lon="12.2699083"><ele>0.0</ele><time>2026-05-01T09:40:45.754Z</time></trkpt><trkpt lat="44.33604" lon="12.270025"><ele>0.0</ele><time>2026-05-01T09:40:46.754Z</time></trkpt><trkpt lat="44.335875" lon="12.2701367"><ele>0.0</ele><time>2026-05-01T09:40:47.755Z</time></trkpt><trkpt lat="44.335715" lon="12.2702467"><ele>0.0</ele><time>2026-05-01T09:40:48.751Z</time></trkpt><trkpt lat="44.3355533" lon="12.2703533"><ele>-0.6666666666666666</ele><time>2026-05-01T09:40:49.757Z</time></trkpt><trkpt lat="44.3353967" lon="12.270455"><ele>-1.3333333333333333</ele><time>2026-05-01T09:40:50.755Z</time></trkpt><trkpt lat="44.3352417" lon="12.2705583"><ele>-2.0</ele><time>2026-05-01T09:40:51.753Z</time></trkpt><trkpt lat="44.3350883" lon="12.2706617"><ele>-2.0</ele><time>2026-05-01T09:40:52.766Z</time></trkpt><trkpt lat="44.3349433" lon="12.27076"><ele>-2.0</ele><time>2026-05-01T09:40:53.75Z</time></trkpt><trkpt lat="44.3348083" lon="12.27085"><ele>-2.0</ele><time>2026-05-01T09:40:54.754Z</time></trkpt><trkpt lat="44.3346833" lon="12.2709283"><ele>-2.0</ele><time>2026-05-01T09:40:55.742Z</time></trkpt><trkpt lat="44.3345783" lon="12.270995"><ele>-2.1666666666666665</ele><time>2026-05-01T09:40:56.752Z</time></trkpt><trkpt lat="44.33449" lon="12.2710467"><ele>-2.333333333333333</ele><time>2026-05-01T09:40:57.756Z</time></trkpt><trkpt lat="44.3344167" lon="12.2710867"><ele>-2.5</ele><time>2026-05-01T09:40:58.75Z</time></trkpt><trkpt lat="44.3343417" lon="12.2711117"><ele>-2.6666666666666665</ele><time>2026-05-01T09:40:59.754Z</time></trkpt><trkpt lat="44.33426" lon="12.27113"><ele>-2.8333333333333335</ele><time>2026-05-01T09:41:00.741Z</time></trkpt><trkpt lat="44.3341783" lon="12.271135"><ele>-3.0</ele><time>2026-05-01T09:41:01.75Z</time></trkpt><trkpt lat="44.3340883" lon="12.271145"><ele>-3.0</ele><time>2026-05-01T09:41:02.742Z</time></trkpt><trkpt lat="44.3339983" lon="12.2711767"><ele>-3.0</ele><time>2026-05-01T09:41:03.742Z</time></trkpt><trkpt lat="44.33391" lon="12.2712167"><ele>-3.0</ele><time>2026-05-01T09:41:04.744Z</time></trkpt><trkpt lat="44.333835" lon="12.2712817"><ele>-3.0</ele><time>2026-05-01T09:41:05.743Z</time></trkpt><trkpt lat="44.3337783" lon="12.2713583"><ele>-3.0</ele><time>2026-05-01T09:41:06.742Z</time></trkpt><trkpt lat="44.3337367" lon="12.2714333"><ele>-3.0</ele><time>2026-05-01T09:41:07.742Z</time></trkpt><trkpt lat="44.333685" lon="12.2715517"><ele>-2.5</ele><time>2026-05-01T09:41:09.742Z</time></trkpt><trkpt lat="44.333645" lon="12.271635"><ele>-2.0</ele><time>2026-05-01T09:41:11.746Z</time></trkpt><trkpt lat="44.333585" lon="12.2717333"><ele>-1.5</ele><time>2026-05-01T09:41:16.742Z</time></trkpt><trkpt lat="44.3335383" lon="12.2718217"><ele>-1.0</ele><time>2026-05-01T09:41:20.745Z</time></trkpt><trkpt lat="44.33346" lon="12.2718933"><ele>-0.5</ele><time>2026-05-01T09:41:23.743Z</time></trkpt><trkpt lat="44.3333883" lon="12.27197"><ele>0.0</ele><time>2026-05-01T09:41:26.751Z</time></trkpt><trkpt lat="44.3333267" lon="12.27203"><ele>0.0</ele><time>2026-05-01T09:41:28.749Z</time></trkpt><trkpt lat="44.3332467" lon="12.2721167"><ele>0.0</ele><time>2026-05-01T09:41:31.751Z</time></trkpt><trkpt lat="44.3331617" lon="12.27219"><ele>0.0</ele><time>2026-05-01T09:41:33.75Z</time></trkpt><trkpt lat="44.33309" lon="12.2722533"><ele>0.0</ele><time>2026-05-01T09:41:35.751Z</time></trkpt><trkpt lat="44.3330283" lon="12.2723167"><ele>0.0</ele><time>2026-05-01T09:41:37.745Z</time></trkpt><trkpt lat="44.3329683" lon="12.2723783"><ele>0.0</ele><time>2026-05-01T09:41:39.747Z</time></trkpt><trkpt lat="44.3329083" lon="12.27244"><ele>-0.16666666666666666</ele><time>2026-05-01T09:41:41.75Z</time></trkpt><trkpt lat="44.3328517" lon="12.2724933"><ele>-0.3333333333333333</ele><time>2026-05-01T09:41:43.754Z</time></trkpt><trkpt lat="44.3327983" lon="12.2725517"><ele>-0.5</ele><time>2026-05-01T09:41:45.751Z</time></trkpt><trkpt lat="44.332725" lon="12.27262"><ele>-0.6666666666666666</ele><time>2026-05-01T09:41:48.746Z</time></trkpt><trkpt lat="44.33266" lon="12.2726783"><ele>-0.8333333333333333</ele><time>2026-05-01T09:41:52.751Z</time></trkpt><trkpt lat="44.332585" lon="12.27275"><ele>-1.0</ele><time>2026-05-01T09:41:56.752Z</time></trkpt><trkpt lat="44.3325117" lon="12.27281"><ele>-0.9999999999999999</ele><time>2026-05-01T09:41:59.75Z</time></trkpt><trkpt lat="44.3324317" lon="12.2728783"><ele>-1.0</ele><time>2026-05-01T09:42:02.746Z</time></trkpt><trkpt lat="44.3323667" lon="12.2729533"><ele>-1.0</ele><time>2026-05-01T09:42:05.75Z</time></trkpt><trkpt lat="44.3323017" lon="12.2730183"><ele>-1.0</ele><time>2026-05-01T09:42:08.754Z</time></trkpt><trkpt lat="44.3322483" lon="12.273075"><ele>-0.9999999999999999</ele><time>2026-05-01T09:42:10.744Z</time></trkpt><trkpt lat="44.3321967" lon="12.2731267"><ele>-1.0</ele><time>2026-05-01T09:42:12.749Z</time></trkpt><trkpt lat="44.3321333" lon="12.27319"><ele>-0.8333333333333333</ele><time>2026-05-01T09:42:15.746Z</time></trkpt><trkpt lat="44.332065" lon="12.2732567"><ele>-0.6666666666666666</ele><time>2026-05-01T09:42:17.747Z</time></trkpt><trkpt lat="44.3319983" lon="12.273315"><ele>-0.5</ele><time>2026-05-01T09:42:19.751Z</time></trkpt><trkpt lat="44.3319383" lon="12.2733683"><ele>-0.3333333333333333</ele><time>2026-05-01T09:42:22.749Z</time></trkpt><trkpt lat="44.3318783" lon="12.273445"><ele>-0.16666666666666666</ele><time>2026-05-01T09:42:26.75Z</time></trkpt><trkpt lat="44.331805" lon="12.2735167"><ele>0.0</ele><time>2026-05-01T09:42:29.751Z</time></trkpt><trkpt lat="44.33175" lon="12.27357"><ele>0.0</ele><time>2026-05-01T09:42:31.755Z</time></trkpt><trkpt lat="44.3316933" lon="12.27363"><ele>0.0</ele><time>2026-05-01T09:42:33.753Z</time></trkpt><trkpt lat="44.3316367" lon="12.273685"><ele>0.0</ele><time>2026-05-01T09:42:35.752Z</time></trkpt><trkpt lat="44.3315617" lon="12.2737533"><ele>0.0</ele><time>2026-05-01T09:42:38.749Z</time></trkpt><trkpt lat="44.3314817" lon="12.2738217"><ele>0.0</ele><time>2026-05-01T09:42:41.75Z</time></trkpt><trkpt lat="44.3314233" lon="12.273885"><ele>0.0</ele><time>2026-05-01T09:42:43.751Z</time></trkpt><trkpt lat="44.3313583" lon="12.273965"><ele>-0.2</ele><time>2026-05-01T09:42:46.749Z</time></trkpt><trkpt lat="44.3313067" lon="12.27402"><ele>-0.4</ele><time>2026-05-01T09:42:48.752Z</time></trkpt><trkpt lat="44.3312483" lon="12.2741"><ele>-0.6000000000000001</ele><time>2026-05-01T09:42:52.75Z</time></trkpt><trkpt lat="44.33119" lon="12.27418"><ele>-0.8</ele><time>2026-05-01T09:42:55.751Z</time></trkpt><trkpt lat="44.3311067" lon="12.2742667"><ele>-1.0</ele><time>2026-05-01T09:42:57.751Z</time></trkpt><trkpt lat="44.3310067" lon="12.2743583"><ele>-1.0</ele><time>2026-05-01T09:42:59.754Z</time></trkpt><trkpt lat="44.3309117" lon="12.2744483"><ele>-1.0</ele><time>2026-05-01T09:43:01.749Z</time></trkpt><trkpt lat="44.3308033" lon="12.2745517"><ele>-1.0</ele><time>2026-05-01T09:43:03.747Z</time></trkpt><trkpt lat="44.33073" lon="12.2746083"><ele>-1.0</ele><time>2026-05-01T09:43:04.752Z</time></trkpt><trkpt lat="44.330645" lon="12.274675"><ele>-1.0</ele><time>2026-05-01T09:43:05.746Z</time></trkpt><trkpt lat="44.33055" lon="12.2747417"><ele>-0.75</ele><time>2026-05-01T09:43:06.749Z</time></trkpt><trkpt lat="44.330455" lon="12.2748133"><ele>-0.5</ele><time>2026-05-01T09:43:07.754Z</time></trkpt><trkpt lat="44.3303567" lon="12.27489"><ele>-0.25</ele><time>2026-05-01T09:43:08.754Z</time></trkpt><trkpt lat="44.3302517" lon="12.274975"><ele>0.0</ele><time>2026-05-01T09:43:09.742Z</time></trkpt><trkpt lat="44.3301417" lon="12.2750717"><ele>0.0</ele><time>2026-05-01T09:43:10.75Z</time></trkpt><trkpt lat="44.3300317" lon="12.2751667"><ele>0.0</ele><time>2026-05-01T09:43:11.742Z</time></trkpt><trkpt lat="44.329915" lon="12.2752633"><ele>0.0</ele><time>2026-05-01T09:43:12.751Z</time></trkpt><trkpt lat="44.3297933" lon="12.27536"><ele>0.0</ele><time>2026-05-01T09:43:13.75Z</time></trkpt><trkpt lat="44.3296683" lon="12.27546"><ele>-0.25</ele><time>2026-05-01T09:43:14.75Z</time></trkpt><trkpt lat="44.3295467" lon="12.275565"><ele>-0.5</ele><time>2026-05-01T09:43:15.75Z</time></trkpt><trkpt lat="44.3294217" lon="12.2756683"><ele>-0.75</ele><time>2026-05-01T09:43:16.749Z</time></trkpt><trkpt lat="44.3292933" lon="12.2757717"><ele>-1.0</ele><time>2026-05-01T09:43:17.749Z</time></trkpt><trkpt lat="44.329165" lon="12.2758717"><ele>-1.0</ele><time>2026-05-01T09:43:18.75Z</time></trkpt><trkpt lat="44.3290383" lon="12.2759733"><ele>-1.0</ele><time>2026-05-01T09:43:19.748Z</time></trkpt><trkpt lat="44.32891" lon="12.2760767"><ele>-1.0</ele><time>2026-05-01T09:43:20.753Z</time></trkpt><trkpt lat="44.3287833" lon="12.2761833"><ele>-1.0</ele><time>2026-05-01T09:43:21.742Z</time></trkpt><trkpt lat="44.3286617" lon="12.27629"><ele>-1.0</ele><time>2026-05-01T09:43:22.751Z</time></trkpt><trkpt lat="44.3285317" lon="12.276395"><ele>-1.0</ele><time>2026-05-01T09:43:23.746Z</time></trkpt><trkpt lat="44.3284017" lon="12.276505"><ele>-1.0</ele><time>2026-05-01T09:43:24.742Z</time></trkpt><trkpt lat="44.32827" lon="12.2766083"><ele>-1.0</ele><time>2026-05-01T09:43:25.76Z</time></trkpt><trkpt lat="44.32814" lon="12.276705"><ele>-1.0</ele><time>2026-05-01T09:43:26.755Z</time></trkpt><trkpt lat="44.32802" lon="12.2768033"><ele>-1.0</ele><time>2026-05-01T09:43:27.751Z</time></trkpt><trkpt lat="44.32791" lon="12.27689"><ele>-1.0</ele><time>2026-05-01T09:43:28.75Z</time></trkpt><trkpt lat="44.3278083" lon="12.2769783"><ele>-1.0</ele><time>2026-05-01T09:43:29.752Z</time></trkpt><trkpt lat="44.32771" lon="12.2770617"><ele>-1.0</ele><time>2026-05-01T09:43:30.752Z</time></trkpt><trkpt lat="44.3276133" lon="12.2771417"><ele>-1.0</ele><time>2026-05-01T09:43:31.747Z</time></trkpt><trkpt lat="44.327515" lon="12.277225"><ele>-1.0</ele><time>2026-05-01T09:43:32.744Z</time></trkpt><trkpt lat="44.3274067" lon="12.2773167"><ele>-1.25</ele><time>2026-05-01T09:43:33.753Z</time></trkpt><trkpt lat="44.327295" lon="12.27741"><ele>-1.5</ele><time>2026-05-01T09:43:34.751Z</time></trkpt><trkpt lat="44.327175" lon="12.2775083"><ele>-1.75</ele><time>2026-05-01T09:43:35.75Z</time></trkpt><trkpt lat="44.32705" lon="12.277615"><ele>-2.0</ele><time>2026-05-01T09:43:36.747Z</time></trkpt><trkpt lat="44.3269167" lon="12.2777283"><ele>-1.0</ele><time>2026-05-01T09:43:37.753Z</time></trkpt><trkpt lat="44.3267783" lon="12.27784"><ele>0.0</ele><time>2026-05-01T09:43:38.754Z</time></trkpt><trkpt lat="44.32664" lon="12.27795"><ele>1.0</ele><time>2026-05-01T09:43:39.751Z</time></trkpt><trkpt lat="44.3264967" lon="12.2780633"><ele>0.6666666666666666</ele><time>2026-05-01T09:43:40.752Z</time></trkpt><trkpt lat="44.32635" lon="12.2781783"><ele>0.3333333333333333</ele><time>2026-05-01T09:43:41.745Z</time></trkpt><trkpt lat="44.3262" lon="12.278305"><ele>0.0</ele><time>2026-05-01T09:43:42.752Z</time></trkpt><trkpt lat="44.3260533" lon="12.2784267"><ele>0.0</ele><time>2026-05-01T09:43:43.75Z</time></trkpt><trkpt lat="44.3259117" lon="12.2785417"><ele>0.0</ele><time>2026-05-01T09:43:44.751Z</time></trkpt><trkpt lat="44.325775" lon="12.278655"><ele>0.0</ele><time>2026-05-01T09:43:45.752Z</time></trkpt><trkpt lat="44.325645" lon="12.278765"><ele>0.0</ele><time>2026-05-01T09:43:46.751Z</time></trkpt><trkpt lat="44.3255167" lon="12.2788733"><ele>0.0</ele><time>2026-05-01T09:43:47.756Z</time></trkpt><trkpt lat="44.32539" lon="12.278975"><ele>0.0</ele><time>2026-05-01T09:43:48.75Z</time></trkpt><trkpt lat="44.3252683" lon="12.2790833"><ele>0.0</ele><time>2026-05-01T09:43:49.742Z</time></trkpt><trkpt lat="44.3251483" lon="12.2791917"><ele>0.0</ele><time>2026-05-01T09:43:50.754Z</time></trkpt><trkpt lat="44.3250217" lon="12.27931"><ele>0.0</ele><time>2026-05-01T09:43:51.754Z</time></trkpt><trkpt lat="44.3248883" lon="12.2794317"><ele>0.0</ele><time>2026-05-01T09:43:52.742Z</time></trkpt><trkpt lat="44.3247533" lon="12.27955"><ele>0.0</ele><time>2026-05-01T09:43:53.753Z</time></trkpt><trkpt lat="44.3246167" lon="12.2796633"><ele>0.0</ele><time>2026-05-01T09:43:54.75Z</time></trkpt><trkpt lat="44.324485" lon="12.2797683"><ele>0.0</ele><time>2026-05-01T09:43:55.751Z</time></trkpt><trkpt lat="44.3243683" lon="12.2798633"><ele>0.0</ele><time>2026-05-01T09:43:56.754Z</time></trkpt><trkpt lat="44.324255" lon="12.2799567"><ele>0.0</ele><time>2026-05-01T09:43:57.747Z</time></trkpt><trkpt lat="44.3241483" lon="12.2800467"><ele>0.0</ele><time>2026-05-01T09:43:58.743Z</time></trkpt><trkpt lat="44.3240467" lon="12.28013"><ele>0.0</ele><time>2026-05-01T09:43:59.747Z</time></trkpt><trkpt lat="44.32394" lon="12.2802183"><ele>0.0</ele><time>2026-05-01T09:44:00.742Z</time></trkpt><trkpt lat="44.3238283" lon="12.2803183"><ele>-0.25</ele><time>2026-05-01T09:44:01.741Z</time></trkpt><trkpt lat="44.3237083" lon="12.2804217"><ele>-0.5</ele><time>2026-05-01T09:44:02.752Z</time></trkpt><trkpt lat="44.32358" lon="12.2805283"><ele>-0.75</ele><time>2026-05-01T09:44:03.748Z</time></trkpt><trkpt lat="44.3234467" lon="12.2806333"><ele>-1.0</ele><time>2026-05-01T09:44:04.748Z</time></trkpt><trkpt lat="44.323305" lon="12.28075"><ele>-1.0</ele><time>2026-05-01T09:44:05.75Z</time></trkpt><trkpt lat="44.323155" lon="12.2808783"><ele>-1.0</ele><time>2026-05-01T09:44:06.749Z</time></trkpt><trkpt lat="44.3230067" lon="12.2810067"><ele>-1.0</ele><time>2026-05-01T09:44:07.75Z</time></trkpt><trkpt lat="44.3228567" lon="12.281135"><ele>-1.0</ele><time>2026-05-01T09:44:08.756Z</time></trkpt><trkpt lat="44.3227117" lon="12.2812583"><ele>-1.0</ele><time>2026-05-01T09:44:09.751Z</time></trkpt><trkpt lat="44.322565" lon="12.2813833"><ele>-1.0</ele><time>2026-05-01T09:44:10.749Z</time></trkpt><trkpt lat="44.322415" lon="12.2815083"><ele>-1.0</ele><time>2026-05-01T09:44:11.751Z</time></trkpt><trkpt lat="44.3222717" lon="12.281635"><ele>-1.0</ele><time>2026-05-01T09:44:12.749Z</time></trkpt><trkpt lat="44.32213" lon="12.2817567"><ele>-1.0</ele><time>2026-05-01T09:44:13.751Z</time></trkpt><trkpt lat="44.3219933" lon="12.2818733"><ele>-0.6666666666666666</ele><time>2026-05-01T09:44:14.752Z</time></trkpt><trkpt lat="44.3218533" lon="12.2819917"><ele>-0.3333333333333333</ele><time>2026-05-01T09:44:15.752Z</time></trkpt><trkpt lat="44.321715" lon="12.2821083"><ele>0.0</ele><time>2026-05-01T09:44:16.743Z</time></trkpt><trkpt lat="44.321575" lon="12.2822283"><ele>0.0</ele><time>2026-05-01T09:44:17.746Z</time></trkpt><trkpt lat="44.321435" lon="12.28235"><ele>0.0</ele><time>2026-05-01T09:44:18.751Z</time></trkpt><trkpt lat="44.3212917" lon="12.2824717"><ele>0.0</ele><time>2026-05-01T09:44:19.747Z</time></trkpt><trkpt lat="44.3211467" lon="12.2825833"><ele>-0.3333333333333333</ele><time>2026-05-01T09:44:20.751Z</time></trkpt><trkpt lat="44.3209983" lon="12.2826933"><ele>-0.6666666666666666</ele><time>2026-05-01T09:44:21.752Z</time></trkpt><trkpt lat="44.320855" lon="12.2828"><ele>-1.0</ele><time>2026-05-01T09:44:22.748Z</time></trkpt><trkpt lat="44.3207067" lon="12.2829"><ele>-1.0</ele><time>2026-05-01T09:44:23.75Z</time></trkpt><trkpt lat="44.3205567" lon="12.2830017"><ele>-1.0</ele><time>2026-05-01T09:44:24.752Z</time></trkpt><trkpt lat="44.3204067" lon="12.283105"><ele>-1.0</ele><time>2026-05-01T09:44:25.749Z</time></trkpt><trkpt lat="44.3202533" lon="12.2832033"><ele>-0.6666666666666666</ele><time>2026-05-01T09:44:26.742Z</time></trkpt><trkpt lat="44.320095" lon="12.2832967"><ele>-0.3333333333333333</ele><time>2026-05-01T09:44:27.753Z</time></trkpt><trkpt lat="44.3199317" lon="12.2833917"><ele>0.0</ele><time>2026-05-01T09:44:28.75Z</time></trkpt><trkpt lat="44.3197617" lon="12.2834833"><ele>-0.3333333333333333</ele><time>2026-05-01T09:44:29.749Z</time></trkpt><trkpt lat="44.3195883" lon="12.2835683"><ele>-0.6666666666666666</ele><time>2026-05-01T09:44:30.747Z</time></trkpt><trkpt lat="44.3194133" lon="12.2836483"><ele>-1.0</ele><time>2026-05-01T09:44:31.751Z</time></trkpt><trkpt lat="44.3192367" lon="12.2837267"><ele>-1.0</ele><time>2026-05-01T09:44:32.753Z</time></trkpt><trkpt lat="44.31906" lon="12.2837983"><ele>-1.0</ele><time>2026-05-01T09:44:33.755Z</time></trkpt><trkpt lat="44.3188833" lon="12.2838667"><ele>-1.0</ele><time>2026-05-01T09:44:34.75Z</time></trkpt><trkpt lat="44.3187083" lon="12.2839267"><ele>-1.0</ele><time>2026-05-01T09:44:35.751Z</time></trkpt><trkpt lat="44.318535" lon="12.28398"><ele>-1.0</ele><time>2026-05-01T09:44:36.752Z</time></trkpt><trkpt lat="44.3183617" lon="12.2840267"><ele>-1.0</ele><time>2026-05-01T09:44:37.752Z</time></trkpt><trkpt lat="44.3181883" lon="12.284065"><ele>-1.3333333333333333</ele><time>2026-05-01T09:44:38.744Z</time></trkpt><trkpt lat="44.31802" lon="12.2840983"><ele>-1.6666666666666665</ele><time>2026-05-01T09:44:39.749Z</time></trkpt><trkpt lat="44.3178483" lon="12.28412"><ele>-2.0</ele><time>2026-05-01T09:44:40.752Z</time></trkpt><trkpt lat="44.3176733" lon="12.284145"><ele>-2.0</ele><time>2026-05-01T09:44:41.759Z</time></trkpt><trkpt lat="44.3175017" lon="12.284165"><ele>-2.0</ele><time>2026-05-01T09:44:42.757Z</time></trkpt><trkpt lat="44.31733" lon="12.28419"><ele>-2.0</ele><time>2026-05-01T09:44:43.753Z</time></trkpt><trkpt lat="44.3171583" lon="12.2842083"><ele>-1.3333333333333333</ele><time>2026-05-01T09:44:44.743Z</time></trkpt><trkpt lat="44.316985" lon="12.284225"><ele>-0.6666666666666666</ele><time>2026-05-01T09:44:45.742Z</time></trkpt><trkpt lat="44.3168117" lon="12.284245"><ele>0.0</ele><time>2026-05-01T09:44:46.746Z</time></trkpt><trkpt lat="44.31664" lon="12.2842617"><ele>0.0</ele><time>2026-05-01T09:44:47.748Z</time></trkpt><trkpt lat="44.3164767" lon="12.2842717"><ele>0.0</ele><time>2026-05-01T09:44:48.749Z</time></trkpt><trkpt lat="44.31633" lon="12.2842833"><ele>0.0</ele><time>2026-05-01T09:44:49.752Z</time></trkpt><trkpt lat="44.3161833" lon="12.2842967"><ele>0.0</ele><time>2026-05-01T09:44:50.749Z</time></trkpt><trkpt lat="44.3160433" lon="12.2843083"><ele>0.0</ele><time>2026-05-01T09:44:51.748Z</time></trkpt><trkpt lat="44.3159117" lon="12.2843133"><ele>0.0</ele><time>2026-05-01T09:44:52.752Z</time></trkpt><trkpt lat="44.3157867" lon="12.28432"><ele>0.0</ele><time>2026-05-01T09:44:53.748Z</time></trkpt><trkpt lat="44.3156617" lon="12.2843333"><ele>0.0</ele><time>2026-05-01T09:44:54.742Z</time></trkpt><trkpt lat="44.3155283" lon="12.2843483"><ele>0.0</ele><time>2026-05-01T09:44:55.75Z</time></trkpt><trkpt lat="44.3153883" lon="12.2843633"><ele>0.0</ele><time>2026-05-01T09:44:56.743Z</time></trkpt><trkpt lat="44.3152433" lon="12.284375"><ele>0.0</ele><time>2026-05-01T09:44:57.748Z</time></trkpt><trkpt lat="44.3150867" lon="12.28438"><ele>0.0</ele><time>2026-05-01T09:44:58.749Z</time></trkpt><trkpt lat="44.3149233" lon="12.2843867"><ele>0.0</ele><time>2026-05-01T09:44:59.751Z</time></trkpt><trkpt lat="44.3147467" lon="12.284405"><ele>0.0</ele><time>2026-05-01T09:45:00.75Z</time></trkpt><trkpt lat="44.3145683" lon="12.2844233"><ele>-0.3333333333333333</ele><time>2026-05-01T09:45:01.748Z</time></trkpt><trkpt lat="44.3143867" lon="12.2844417"><ele>-0.6666666666666666</ele><time>2026-05-01T09:45:02.753Z</time></trkpt><trkpt lat="44.3141967" lon="12.2844633"><ele>-1.0</ele><time>2026-05-01T09:45:03.742Z</time></trkpt><trkpt lat="44.3140017" lon="12.2844817"><ele>-1.0</ele><time>2026-05-01T09:45:04.75Z</time></trkpt><trkpt lat="44.3138033" lon="12.2845"><ele>-1.0</ele><time>2026-05-01T09:45:05.753Z</time></trkpt><trkpt lat="44.3136" lon="12.2845183"><ele>-1.0</ele><time>2026-05-01T09:45:06.752Z</time></trkpt><trkpt lat="44.313395" lon="12.2845367"><ele>-1.0</ele><time>2026-05-01T09:45:07.743Z</time></trkpt><trkpt lat="44.3131883" lon="12.284555"><ele>-1.0</ele><time>2026-05-01T09:45:08.744Z</time></trkpt><trkpt lat="44.3129783" lon="12.2845717"><ele>-1.0</ele><time>2026-05-01T09:45:09.749Z</time></trkpt><trkpt lat="44.312765" lon="12.2845867"><ele>-1.0</ele><time>2026-05-01T09:45:10.754Z</time></trkpt><trkpt lat="44.3125483" lon="12.2846033"><ele>-1.0</ele><time>2026-05-01T09:45:11.749Z</time></trkpt><trkpt lat="44.3123317" lon="12.28462"><ele>-1.0</ele><time>2026-05-01T09:45:12.749Z</time></trkpt><trkpt lat="44.3121133" lon="12.2846417"><ele>-1.0</ele><time>2026-05-01T09:45:13.75Z</time></trkpt><trkpt lat="44.311895" lon="12.28467"><ele>-1.0</ele><time>2026-05-01T09:45:14.749Z</time></trkpt><trkpt lat="44.3116767" lon="12.2847083"><ele>-1.0</ele><time>2026-05-01T09:45:15.747Z</time></trkpt><trkpt lat="44.3114567" lon="12.2847533"><ele>-1.0</ele><time>2026-05-01T09:45:16.751Z</time></trkpt><trkpt lat="44.3112383" lon="12.2848033"><ele>-1.0</ele><time>2026-05-01T09:45:17.754Z</time></trkpt><trkpt lat="44.31102" lon="12.284855"><ele>-1.0</ele><time>2026-05-01T09:45:18.753Z</time></trkpt><trkpt lat="44.3108033" lon="12.28491"><ele>-1.0</ele><time>2026-05-01T09:45:19.749Z</time></trkpt><trkpt lat="44.3105883" lon="12.28498"><ele>-1.0</ele><time>2026-05-01T09:45:20.751Z</time></trkpt><trkpt lat="44.310375" lon="12.2850583"><ele>-1.0</ele><time>2026-05-01T09:45:21.752Z</time></trkpt><trkpt lat="44.3101667" lon="12.2851483"><ele>-1.3333333333333333</ele><time>2026-05-01T09:45:22.75Z</time></trkpt><trkpt lat="44.3099567" lon="12.28524"><ele>-1.6666666666666665</ele><time>2026-05-01T09:45:23.753Z</time></trkpt><trkpt lat="44.309755" lon="12.2853317"><ele>-2.0</ele><time>2026-05-01T09:45:24.752Z</time></trkpt><trkpt lat="44.30956" lon="12.2854267"><ele>-2.0</ele><time>2026-05-01T09:45:25.744Z</time></trkpt><trkpt lat="44.30937" lon="12.2855267"><ele>-2.0</ele><time>2026-05-01T09:45:26.755Z</time></trkpt><trkpt lat="44.3091833" lon="12.2856383"><ele>-2.0</ele><time>2026-05-01T09:45:27.751Z</time></trkpt><trkpt lat="44.3089983" lon="12.2857533"><ele>-2.333333333333333</ele><time>2026-05-01T09:45:28.751Z</time></trkpt><trkpt lat="44.3088167" lon="12.2858717"><ele>-2.6666666666666665</ele><time>2026-05-01T09:45:29.752Z</time></trkpt><trkpt lat="44.3086333" lon="12.285995"><ele>-3.0</ele><time>2026-05-01T09:45:30.749Z</time></trkpt><trkpt lat="44.3084533" lon="12.2861183"><ele>-3.0</ele><time>2026-05-01T09:45:31.754Z</time></trkpt><trkpt lat="44.30827" lon="12.286245"><ele>-3.0</ele><time>2026-05-01T09:45:32.753Z</time></trkpt><trkpt lat="44.3080883" lon="12.2863767"><ele>-3.0</ele><time>2026-05-01T09:45:33.745Z</time></trkpt><trkpt lat="44.3079033" lon="12.2865167"><ele>-2.3333333333333335</ele><time>2026-05-01T09:45:34.749Z</time></trkpt><trkpt lat="44.3077133" lon="12.2866633"><ele>-1.6666666666666665</ele><time>2026-05-01T09:45:35.752Z</time></trkpt><trkpt lat="44.3075217" lon="12.2868117"><ele>-1.0</ele><time>2026-05-01T09:45:36.744Z</time></trkpt><trkpt lat="44.3073267" lon="12.2869567"><ele>-1.0</ele><time>2026-05-01T09:45:37.745Z</time></trkpt><trkpt lat="44.3071283" lon="12.2871017"><ele>-1.0</ele><time>2026-05-01T09:45:38.748Z</time></trkpt><trkpt lat="44.30693" lon="12.287245"><ele>-1.0</ele><time>2026-05-01T09:45:39.746Z</time></trkpt><trkpt lat="44.30673" lon="12.2873933"><ele>-1.5</ele><time>2026-05-01T09:45:40.75Z</time></trkpt><trkpt lat="44.3065317" lon="12.2875417"><ele>-2.0</ele><time>2026-05-01T09:45:41.749Z</time></trkpt><trkpt lat="44.3063317" lon="12.2876917"><ele>-2.0</ele><time>2026-05-01T09:45:42.75Z</time></trkpt><trkpt lat="44.3061333" lon="12.2878367"><ele>-2.0</ele><time>2026-05-01T09:45:43.754Z</time></trkpt><trkpt lat="44.3059333" lon="12.2879867"><ele>-1.6666666666666665</ele><time>2026-05-01T09:45:44.753Z</time></trkpt><trkpt lat="44.305735" lon="12.288135"><ele>-1.3333333333333333</ele><time>2026-05-01T09:45:45.751Z</time></trkpt><trkpt lat="44.3055383" lon="12.288285"><ele>-1.0</ele><time>2026-05-01T09:45:46.752Z</time></trkpt><trkpt lat="44.3053433" lon="12.2884333"><ele>-0.6666666666666666</ele><time>2026-05-01T09:45:47.753Z</time></trkpt><trkpt lat="44.3051483" lon="12.28858"><ele>-0.3333333333333333</ele><time>2026-05-01T09:45:48.75Z</time></trkpt><trkpt lat="44.304955" lon="12.2887283"><ele>0.0</ele><time>2026-05-01T09:45:49.753Z</time></trkpt><trkpt lat="44.30476" lon="12.2888733"><ele>0.0</ele><time>2026-05-01T09:45:50.753Z</time></trkpt><trkpt lat="44.30457" lon="12.2890183"><ele>0.0</ele><time>2026-05-01T09:45:51.753Z</time></trkpt><trkpt lat="44.304385" lon="12.289165"><ele>0.0</ele><time>2026-05-01T09:45:52.745Z</time></trkpt><trkpt lat="44.3041967" lon="12.2893083"><ele>0.0</ele><time>2026-05-01T09:45:53.751Z</time></trkpt><trkpt lat="44.3040067" lon="12.2894533"><ele>0.0</ele><time>2026-05-01T09:45:54.754Z</time></trkpt><trkpt lat="44.3038183" lon="12.2895983"><ele>0.0</ele><time>2026-05-01T09:45:55.752Z</time></trkpt><trkpt lat="44.3036283" lon="12.289745"><ele>0.0</ele><time>2026-05-01T09:45:56.752Z</time></trkpt><trkpt lat="44.3034333" lon="12.28989"><ele>0.0</ele><time>2026-05-01T09:45:57.749Z</time></trkpt><trkpt lat="44.3032367" lon="12.2900367"><ele>0.0</ele><time>2026-05-01T09:45:58.745Z</time></trkpt><trkpt lat="44.30304" lon="12.2901883"><ele>-0.5</ele><time>2026-05-01T09:45:59.744Z</time></trkpt><trkpt lat="44.30284" lon="12.29034"><ele>-1.0</ele><time>2026-05-01T09:46:00.752Z</time></trkpt><trkpt lat="44.30264" lon="12.2904917"><ele>-1.0</ele><time>2026-05-01T09:46:01.756Z</time></trkpt><trkpt lat="44.3024383" lon="12.2906483"><ele>-1.0</ele><time>2026-05-01T09:46:02.751Z</time></trkpt><trkpt lat="44.3022333" lon="12.290805"><ele>-1.0</ele><time>2026-05-01T09:46:03.753Z</time></trkpt><trkpt lat="44.302025" lon="12.2909667"><ele>-1.0</ele><time>2026-05-01T09:46:04.75Z</time></trkpt><trkpt lat="44.3018183" lon="12.291125"><ele>-1.0</ele><time>2026-05-01T09:46:05.751Z</time></trkpt><trkpt lat="44.30161" lon="12.2912883"><ele>-1.0</ele><time>2026-05-01T09:46:06.757Z</time></trkpt><trkpt lat="44.3013967" lon="12.2914517"><ele>-1.5</ele><time>2026-05-01T09:46:07.749Z</time></trkpt><trkpt lat="44.30118" lon="12.291615"><ele>-2.0</ele><time>2026-05-01T09:46:08.751Z</time></trkpt><trkpt lat="44.3009617" lon="12.2917833"><ele>-2.0</ele><time>2026-05-01T09:46:09.752Z</time></trkpt><trkpt lat="44.3007433" lon="12.2919533"><ele>-2.0</ele><time>2026-05-01T09:46:10.743Z</time></trkpt><trkpt lat="44.3005267" lon="12.2921233"><ele>-3.5</ele><time>2026-05-01T09:46:11.748Z</time></trkpt><trkpt lat="44.3003083" lon="12.2922933"><ele>-5.0</ele><time>2026-05-01T09:46:12.751Z</time></trkpt><trkpt lat="44.300085" lon="12.2924633"><ele>-5.0</ele><time>2026-05-01T09:46:13.752Z</time></trkpt><trkpt lat="44.29986" lon="12.2926333"><ele>-5.0</ele><time>2026-05-01T09:46:14.748Z</time></trkpt><trkpt lat="44.2996367" lon="12.2928067"><ele>-4.5</ele><time>2026-05-01T09:46:15.745Z</time></trkpt><trkpt lat="44.2994117" lon="12.29298"><ele>-4.0</ele><time>2026-05-01T09:46:16.755Z</time></trkpt><trkpt lat="44.2991883" lon="12.2931567"><ele>-4.0</ele><time>2026-05-01T09:46:17.749Z</time></trkpt><trkpt lat="44.2989633" lon="12.29333"><ele>-4.0</ele><time>2026-05-01T09:46:18.749Z</time></trkpt><trkpt lat="44.2987367" lon="12.2935083"><ele>-3.5</ele><time>2026-05-01T09:46:19.748Z</time></trkpt><trkpt lat="44.2985133" lon="12.29369"><ele>-3.0</ele><time>2026-05-01T09:46:20.751Z</time></trkpt><trkpt lat="44.2982917" lon="12.2938767"><ele>-2.5</ele><time>2026-05-01T09:46:21.751Z</time></trkpt><trkpt lat="44.2980733" lon="12.2940667"><ele>-2.0</ele><time>2026-05-01T09:46:22.743Z</time></trkpt><trkpt lat="44.2978567" lon="12.2942617"><ele>-2.0</ele><time>2026-05-01T09:46:23.75Z</time></trkpt><trkpt lat="44.297645" lon="12.2944567"><ele>-2.0</ele><time>2026-05-01T09:46:24.75Z</time></trkpt><trkpt lat="44.2974383" lon="12.2946583"><ele>-2.0</ele><time>2026-05-01T09:46:25.75Z</time></trkpt><trkpt lat="44.297235" lon="12.2948633"><ele>-2.0</ele><time>2026-05-01T09:46:26.746Z</time></trkpt><trkpt lat="44.2970383" lon="12.295065"><ele>-2.0</ele><time>2026-05-01T09:46:27.752Z</time></trkpt><trkpt lat="44.296845" lon="12.2952633"><ele>-2.0</ele><time>2026-05-01T09:46:28.749Z</time></trkpt><trkpt lat="44.2966533" lon="12.2954617"><ele>-2.0</ele><time>2026-05-01T09:46:29.755Z</time></trkpt><trkpt lat="44.2964633" lon="12.2956617"><ele>-2.0</ele><time>2026-05-01T09:46:30.744Z</time></trkpt><trkpt lat="44.2962717" lon="12.29586"><ele>-2.0</ele><time>2026-05-01T09:46:31.748Z</time></trkpt><trkpt lat="44.296085" lon="12.296055"><ele>-2.0</ele><time>2026-05-01T09:46:32.756Z</time></trkpt><trkpt lat="44.2958967" lon="12.29625"><ele>-2.0</ele><time>2026-05-01T09:46:33.751Z</time></trkpt><trkpt lat="44.2957117" lon="12.2964417"><ele>-2.0</ele><time>2026-05-01T09:46:34.749Z</time></trkpt><trkpt lat="44.2955267" lon="12.2966333"><ele>-2.0</ele><time>2026-05-01T09:46:35.752Z</time></trkpt><trkpt lat="44.2953433" lon="12.2968233"><ele>-2.0</ele><time>2026-05-01T09:46:36.743Z</time></trkpt><trkpt lat="44.29516" lon="12.2970183"><ele>-2.0</ele><time>2026-05-01T09:46:37.747Z</time></trkpt><trkpt lat="44.2949783" lon="12.29721"><ele>-2.0</ele><time>2026-05-01T09:46:38.75Z</time></trkpt><trkpt lat="44.2947967" lon="12.2974017"><ele>-2.333333333333333</ele><time>2026-05-01T09:46:39.744Z</time></trkpt><trkpt lat="44.29462" lon="12.2975817"><ele>-2.6666666666666665</ele><time>2026-05-01T09:46:40.749Z</time></trkpt><trkpt lat="44.29445" lon="12.2977583"><ele>-3.0</ele><time>2026-05-01T09:46:41.752Z</time></trkpt><trkpt lat="44.2942783" lon="12.2979317"><ele>-2.6666666666666665</ele><time>2026-05-01T09:46:42.756Z</time></trkpt><trkpt lat="44.2941183" lon="12.2981"><ele>-2.333333333333333</ele><time>2026-05-01T09:46:43.745Z</time></trkpt><trkpt lat="44.2939617" lon="12.29826"><ele>-2.0</ele><time>2026-05-01T09:46:44.755Z</time></trkpt><trkpt lat="44.29381" lon="12.2984167"><ele>-2.0</ele><time>2026-05-01T09:46:45.754Z</time></trkpt><trkpt lat="44.2936633" lon="12.2985667"><ele>-2.0</ele><time>2026-05-01T09:46:46.751Z</time></trkpt><trkpt lat="44.2935233" lon="12.2987083"><ele>-2.0</ele><time>2026-05-01T09:46:47.751Z</time></trkpt><trkpt lat="44.2933867" lon="12.2988483"><ele>-2.0</ele><time>2026-05-01T09:46:48.749Z</time></trkpt><trkpt lat="44.29325" lon="12.2989883"><ele>-2.0</ele><time>2026-05-01T09:46:49.748Z</time></trkpt><trkpt lat="44.2931117" lon="12.2991317"><ele>-2.0</ele><time>2026-05-01T09:46:50.754Z</time></trkpt><trkpt lat="44.2929733" lon="12.29928"><ele>-2.0</ele><time>2026-05-01T09:46:51.752Z</time></trkpt><trkpt lat="44.2928283" lon="12.2994333"><ele>-2.0</ele><time>2026-05-01T09:46:52.749Z</time></trkpt><trkpt lat="44.292685" lon="12.299585"><ele>-2.0</ele><time>2026-05-01T09:46:53.766Z</time></trkpt><trkpt lat="44.292545" lon="12.2997533"><ele>-2.0</ele><time>2026-05-01T09:46:54.755Z</time></trkpt><trkpt lat="44.292395" lon="12.2999133"><ele>-2.0</ele><time>2026-05-01T09:46:55.752Z</time></trkpt><trkpt lat="44.2922483" lon="12.3000567"><ele>-2.0</ele><time>2026-05-01T09:46:56.75Z</time></trkpt><trkpt lat="44.2921017" lon="12.3001967"><ele>-2.333333333333333</ele><time>2026-05-01T09:46:57.748Z</time></trkpt><trkpt lat="44.2919533" lon="12.300345"><ele>-2.6666666666666665</ele><time>2026-05-01T09:46:58.749Z</time></trkpt><trkpt lat="44.291795" lon="12.3004883"><ele>-3.0</ele><time>2026-05-01T09:46:59.756Z</time></trkpt><trkpt lat="44.291645" lon="12.3006517"><ele>-3.0</ele><time>2026-05-01T09:47:00.751Z</time></trkpt><trkpt lat="44.2914967" lon="12.30083"><ele>-3.0</ele><time>2026-05-01T09:47:01.742Z</time></trkpt><trkpt lat="44.29134" lon="12.3010233"><ele>-3.0</ele><time>2026-05-01T09:47:02.75Z</time></trkpt><trkpt lat="44.291185" lon="12.3012267"><ele>-3.0</ele><time>2026-05-01T09:47:03.75Z</time></trkpt><trkpt lat="44.2910333" lon="12.3014417"><ele>-3.0</ele><time>2026-05-01T09:47:04.749Z</time></trkpt><trkpt lat="44.2908867" lon="12.30167"><ele>-3.0</ele><time>2026-05-01T09:47:05.742Z</time></trkpt><trkpt lat="44.2907467" lon="12.30191"><ele>-3.0</ele><time>2026-05-01T09:47:06.75Z</time></trkpt><trkpt lat="44.290615" lon="12.3021583"><ele>-3.0</ele><time>2026-05-01T09:47:07.75Z</time></trkpt><trkpt lat="44.290495" lon="12.30242"><ele>-3.0</ele><time>2026-05-01T09:47:08.75Z</time></trkpt><trkpt lat="44.2903817" lon="12.3026967"><ele>-3.5</ele><time>2026-05-01T09:47:09.752Z</time></trkpt><trkpt lat="44.29027" lon="12.3029817"><ele>-4.0</ele><time>2026-05-01T09:47:10.748Z</time></trkpt><trkpt lat="44.2901683" lon="12.303275"><ele>-4.0</ele><time>2026-05-01T09:47:11.749Z</time></trkpt><trkpt lat="44.2900767" lon="12.3035783"><ele>-4.0</ele><time>2026-05-01T09:47:12.754Z</time></trkpt><trkpt lat="44.289995" lon="12.3038833"><ele>-3.5</ele><time>2026-05-01T09:47:13.749Z</time></trkpt><trkpt lat="44.289925" lon="12.3041933"><ele>-3.0</ele><time>2026-05-01T09:47:14.754Z</time></trkpt><trkpt lat="44.2898683" lon="12.3045067"><ele>-3.0</ele><time>2026-05-01T09:47:15.753Z</time></trkpt><trkpt lat="44.289825" lon="12.3048267"><ele>-3.0</ele><time>2026-05-01T09:47:16.754Z</time></trkpt><trkpt lat="44.28979" lon="12.3051483"><ele>-3.0</ele><time>2026-05-01T09:47:17.752Z</time></trkpt><trkpt lat="44.2897633" lon="12.3054717"><ele>-3.0</ele><time>2026-05-01T09:47:18.753Z</time></trkpt><trkpt lat="44.2897433" lon="12.3058033"><ele>-3.0</ele><time>2026-05-01T09:47:19.752Z</time></trkpt><trkpt lat="44.2897217" lon="12.30613"><ele>-3.0</ele><time>2026-05-01T09:47:20.751Z</time></trkpt><trkpt lat="44.2897033" lon="12.30645"><ele>-3.5</ele><time>2026-05-01T09:47:21.754Z</time></trkpt><trkpt lat="44.289685" lon="12.3067733"><ele>-4.0</ele><time>2026-05-01T09:47:22.75Z</time></trkpt><trkpt lat="44.2896683" lon="12.3071017"><ele>-3.5</ele><time>2026-05-01T09:47:23.753Z</time></trkpt><trkpt lat="44.28965" lon="12.3074283"><ele>-3.0</ele><time>2026-05-01T09:47:24.743Z</time></trkpt><trkpt lat="44.2896283" lon="12.3077567"><ele>-3.5</ele><time>2026-05-01T09:47:25.751Z</time></trkpt><trkpt lat="44.2896" lon="12.308085"><ele>-4.0</ele><time>2026-05-01T09:47:26.745Z</time></trkpt><trkpt lat="44.2895583" lon="12.308405"><ele>-4.0</ele><time>2026-05-01T09:47:27.75Z</time></trkpt><trkpt lat="44.2895017" lon="12.3087117"><ele>-4.0</ele><time>2026-05-01T09:47:28.743Z</time></trkpt><trkpt lat="44.289435" lon="12.3090133"><ele>-3.6666666666666665</ele><time>2026-05-01T09:47:29.751Z</time></trkpt><trkpt lat="44.2893567" lon="12.3093033"><ele>-3.333333333333333</ele><time>2026-05-01T09:47:30.744Z</time></trkpt><trkpt lat="44.2892667" lon="12.309585"><ele>-3.0</ele><time>2026-05-01T09:47:31.758Z</time></trkpt><trkpt lat="44.289165" lon="12.3098533"><ele>-3.0</ele><time>2026-05-01T09:47:32.756Z</time></trkpt><trkpt lat="44.28905" lon="12.31011"><ele>-3.0</ele><time>2026-05-01T09:47:33.751Z</time></trkpt><trkpt lat="44.2889283" lon="12.3103583"><ele>-3.0</ele><time>2026-05-01T09:47:34.752Z</time></trkpt><trkpt lat="44.288795" lon="12.3105933"><ele>-3.333333333333333</ele><time>2026-05-01T09:47:35.75Z</time></trkpt><trkpt lat="44.2886567" lon="12.310805"><ele>-3.6666666666666665</ele><time>2026-05-01T09:47:36.751Z</time></trkpt><trkpt lat="44.288515" lon="12.3110017"><ele>-4.0</ele><time>2026-05-01T09:47:37.75Z</time></trkpt><trkpt lat="44.28837" lon="12.3111867"><ele>-4.0</ele><time>2026-05-01T09:47:38.752Z</time></trkpt><trkpt lat="44.28822" lon="12.31136"><ele>-4.0</ele><time>2026-05-01T09:47:39.755Z</time></trkpt><trkpt lat="44.288065" lon="12.311525"><ele>-4.0</ele><time>2026-05-01T09:47:40.748Z</time></trkpt><trkpt lat="44.28791" lon="12.3116867"><ele>-4.0</ele><time>2026-05-01T09:47:41.752Z</time></trkpt><trkpt lat="44.28775" lon="12.3118433"><ele>-4.0</ele><time>2026-05-01T09:47:42.755Z</time></trkpt><trkpt lat="44.2875883" lon="12.3119967"><ele>-4.0</ele><time>2026-05-01T09:47:43.75Z</time></trkpt><trkpt lat="44.2874283" lon="12.3121467"><ele>-3.6666666666666665</ele><time>2026-05-01T09:47:44.752Z</time></trkpt><trkpt lat="44.287265" lon="12.312295"><ele>-3.333333333333333</ele><time>2026-05-01T09:47:45.754Z</time></trkpt><trkpt lat="44.2870967" lon="12.31244"><ele>-3.0</ele><time>2026-05-01T09:47:46.75Z</time></trkpt><trkpt lat="44.2869283" lon="12.312585"><ele>-3.0</ele><time>2026-05-01T09:47:47.755Z</time></trkpt><trkpt lat="44.28676" lon="12.3127367"><ele>-3.0</ele><time>2026-05-01T09:47:48.751Z</time></trkpt><trkpt lat="44.2865883" lon="12.3128833"><ele>-3.0</ele><time>2026-05-01T09:47:49.75Z</time></trkpt><trkpt lat="44.286415" lon="12.31303"><ele>-2.6666666666666665</ele><time>2026-05-01T09:47:50.753Z</time></trkpt><trkpt lat="44.2862417" lon="12.31318"><ele>-2.333333333333333</ele><time>2026-05-01T09:47:51.753Z</time></trkpt><trkpt lat="44.2860667" lon="12.3133333"><ele>-2.0</ele><time>2026-05-01T09:47:52.755Z</time></trkpt><trkpt lat="44.28589" lon="12.313485"><ele>-2.0</ele><time>2026-05-01T09:47:53.757Z</time></trkpt><trkpt lat="44.2857117" lon="12.3136367"><ele>-2.0</ele><time>2026-05-01T09:47:54.755Z</time></trkpt><trkpt lat="44.2855317" lon="12.31379"><ele>-2.0</ele><time>2026-05-01T09:47:55.752Z</time></trkpt><trkpt lat="44.2853533" lon="12.31394"><ele>-1.6666666666666665</ele><time>2026-05-01T09:47:56.761Z</time></trkpt><trkpt lat="44.285175" lon="12.3140883"><ele>-1.3333333333333333</ele><time>2026-05-01T09:47:57.751Z</time></trkpt><trkpt lat="44.284995" lon="12.3142417"><ele>-1.0</ele><time>2026-05-01T09:47:58.749Z</time></trkpt><trkpt lat="44.2848183" lon="12.3143967"><ele>-1.0</ele><time>2026-05-01T09:47:59.75Z</time></trkpt><trkpt lat="44.28464" lon="12.31455"><ele>-1.0</ele><time>2026-05-01T09:48:00.749Z</time></trkpt><trkpt lat="44.2844617" lon="12.3147"><ele>-1.0</ele><time>2026-05-01T09:48:01.748Z</time></trkpt><trkpt lat="44.2842833" lon="12.31485"><ele>-1.0</ele><time>2026-05-01T09:48:02.75Z</time></trkpt><trkpt lat="44.2841033" lon="12.3150017"><ele>-1.0</ele><time>2026-05-01T09:48:03.752Z</time></trkpt><trkpt lat="44.2839233" lon="12.315155"><ele>-1.0</ele><time>2026-05-01T09:48:04.742Z</time></trkpt><trkpt lat="44.283745" lon="12.3153117"><ele>-1.3333333333333333</ele><time>2026-05-01T09:48:05.752Z</time></trkpt><trkpt lat="44.2835633" lon="12.3154667"><ele>-1.6666666666666665</ele><time>2026-05-01T09:48:06.756Z</time></trkpt><trkpt lat="44.2833867" lon="12.3156167"><ele>-2.0</ele><time>2026-05-01T09:48:07.752Z</time></trkpt><trkpt lat="44.28321" lon="12.3157683"><ele>-2.6666666666666665</ele><time>2026-05-01T09:48:08.752Z</time></trkpt><trkpt lat="44.283035" lon="12.31592"><ele>-3.333333333333333</ele><time>2026-05-01T09:48:09.752Z</time></trkpt><trkpt lat="44.282865" lon="12.3160683"><ele>-4.0</ele><time>2026-05-01T09:48:10.75Z</time></trkpt><trkpt lat="44.2827017" lon="12.316215"><ele>-4.0</ele><time>2026-05-01T09:48:11.749Z</time></trkpt><trkpt lat="44.2825433" lon="12.316365"><ele>-4.0</ele><time>2026-05-01T09:48:12.752Z</time></trkpt><trkpt lat="44.2823867" lon="12.3165117"><ele>-4.0</ele><time>2026-05-01T09:48:13.754Z</time></trkpt><trkpt lat="44.2822283" lon="12.31666"><ele>-3.333333333333333</ele><time>2026-05-01T09:48:14.753Z</time></trkpt><trkpt lat="44.2820667" lon="12.3168067"><ele>-2.6666666666666665</ele><time>2026-05-01T09:48:15.754Z</time></trkpt><trkpt lat="44.281905" lon="12.3169533"><ele>-2.0</ele><time>2026-05-01T09:48:16.751Z</time></trkpt><trkpt lat="44.2817383" lon="12.3170967"><ele>-2.0</ele><time>2026-05-01T09:48:17.751Z</time></trkpt><trkpt lat="44.2815683" lon="12.31724"><ele>-2.0</ele><time>2026-05-01T09:48:18.752Z</time></trkpt><trkpt lat="44.2813983" lon="12.317385"><ele>-2.0</ele><time>2026-05-01T09:48:19.743Z</time></trkpt><trkpt lat="44.28123" lon="12.3175333"><ele>-2.0</ele><time>2026-05-01T09:48:20.754Z</time></trkpt><trkpt lat="44.28106" lon="12.317685"><ele>-2.0</ele><time>2026-05-01T09:48:21.754Z</time></trkpt><trkpt lat="44.280885" lon="12.3178367"><ele>-2.0</ele><time>2026-05-01T09:48:22.75Z</time></trkpt><trkpt lat="44.2807067" lon="12.3179833"><ele>-1.6666666666666665</ele><time>2026-05-01T09:48:23.759Z</time></trkpt><trkpt lat="44.2805267" lon="12.31813"><ele>-1.3333333333333333</ele><time>2026-05-01T09:48:24.753Z</time></trkpt><trkpt lat="44.2803467" lon="12.3182767"><ele>-1.0</ele><time>2026-05-01T09:48:25.752Z</time></trkpt><trkpt lat="44.2801617" lon="12.31843"><ele>-1.0</ele><time>2026-05-01T09:48:26.749Z</time></trkpt><trkpt lat="44.2799767" lon="12.3185867"><ele>-1.0</ele><time>2026-05-01T09:48:27.748Z</time></trkpt><trkpt lat="44.27979" lon="12.3187433"><ele>-1.0</ele><time>2026-05-01T09:48:28.748Z</time></trkpt><trkpt lat="44.2796033" lon="12.3188967"><ele>-0.6666666666666666</ele><time>2026-05-01T09:48:29.749Z</time></trkpt><trkpt lat="44.2794167" lon="12.3190517"><ele>-0.3333333333333333</ele><time>2026-05-01T09:48:30.752Z</time></trkpt><trkpt lat="44.2792267" lon="12.3192133"><ele>0.0</ele><time>2026-05-01T09:48:31.749Z</time></trkpt><trkpt lat="44.2790417" lon="12.319375"><ele>-0.6666666666666666</ele><time>2026-05-01T09:48:32.743Z</time></trkpt><trkpt lat="44.2788567" lon="12.3195383"><ele>-1.3333333333333333</ele><time>2026-05-01T09:48:33.745Z</time></trkpt><trkpt lat="44.27868" lon="12.319695"><ele>-2.0</ele><time>2026-05-01T09:48:34.753Z</time></trkpt><trkpt lat="44.2785083" lon="12.3198467"><ele>-2.0</ele><time>2026-05-01T09:48:35.752Z</time></trkpt><trkpt lat="44.2783383" lon="12.3199983"><ele>-2.0</ele><time>2026-05-01T09:48:36.751Z</time></trkpt><trkpt lat="44.27817" lon="12.3201467"><ele>-2.0</ele><time>2026-05-01T09:48:37.749Z</time></trkpt><trkpt lat="44.2779983" lon="12.3202933"><ele>-2.0</ele><time>2026-05-01T09:48:38.75Z</time></trkpt><trkpt lat="44.2778267" lon="12.3204383"><ele>-2.0</ele><time>2026-05-01T09:48:39.75Z</time></trkpt><trkpt lat="44.2776567" lon="12.3205833"><ele>-2.0</ele><time>2026-05-01T09:48:40.752Z</time></trkpt><trkpt lat="44.2773117" lon="12.3208767"><ele>-1.3333333333333333</ele><time>2026-05-01T09:48:42.751Z</time></trkpt><trkpt lat="44.27714" lon="12.3210233"><ele>-0.6666666666666666</ele><time>2026-05-01T09:48:43.749Z</time></trkpt><trkpt lat="44.2769767" lon="12.3211633"><ele>0.0</ele><time>2026-05-01T09:48:44.749Z</time></trkpt><trkpt lat="44.2768133" lon="12.3213"><ele>-0.3333333333333333</ele><time>2026-05-01T09:48:45.753Z</time></trkpt><trkpt lat="44.2766533" lon="12.321435"><ele>-0.6666666666666666</ele><time>2026-05-01T09:48:46.748Z</time></trkpt><trkpt lat="44.2764967" lon="12.321565"><ele>-1.0</ele><time>2026-05-01T09:48:47.75Z</time></trkpt><trkpt lat="44.27635" lon="12.3216917"><ele>-1.3333333333333333</ele><time>2026-05-01T09:48:48.747Z</time></trkpt><trkpt lat="44.276205" lon="12.3218133"><ele>-1.6666666666666665</ele><time>2026-05-01T09:48:49.749Z</time></trkpt><trkpt lat="44.2760617" lon="12.3219333"><ele>-2.0</ele><time>2026-05-01T09:48:50.749Z</time></trkpt><trkpt lat="44.2759233" lon="12.3220517"><ele>-2.0</ele><time>2026-05-01T09:48:51.744Z</time></trkpt><trkpt lat="44.2757883" lon="12.322165"><ele>-2.0</ele><time>2026-05-01T09:48:52.751Z</time></trkpt><trkpt lat="44.2756617" lon="12.322275"><ele>-2.0</ele><time>2026-05-01T09:48:53.751Z</time></trkpt><trkpt lat="44.2755317" lon="12.322385"><ele>-2.25</ele><time>2026-05-01T09:48:54.749Z</time></trkpt><trkpt lat="44.275405" lon="12.3224933"><ele>-2.5</ele><time>2026-05-01T09:48:55.755Z</time></trkpt><trkpt lat="44.27528" lon="12.3225967"><ele>-2.75</ele><time>2026-05-01T09:48:56.753Z</time></trkpt><trkpt lat="44.2751533" lon="12.32271"><ele>-3.0</ele><time>2026-05-01T09:48:57.752Z</time></trkpt><trkpt lat="44.2750233" lon="12.3228233"><ele>-3.0</ele><time>2026-05-01T09:48:58.754Z</time></trkpt><trkpt lat="44.2748933" lon="12.3229433"><ele>-3.0</ele><time>2026-05-01T09:48:59.751Z</time></trkpt><trkpt lat="44.2747617" lon="12.323055"><ele>-3.0</ele><time>2026-05-01T09:49:00.742Z</time></trkpt><trkpt lat="44.274625" lon="12.3231583"><ele>-2.6666666666666665</ele><time>2026-05-01T09:49:01.752Z</time></trkpt><trkpt lat="44.27449" lon="12.32327"><ele>-2.333333333333333</ele><time>2026-05-01T09:49:02.75Z</time></trkpt><trkpt lat="44.2743567" lon="12.3233883"><ele>-2.0</ele><time>2026-05-01T09:49:03.746Z</time></trkpt><trkpt lat="44.27422" lon="12.323505"><ele>-2.0</ele><time>2026-05-01T09:49:04.747Z</time></trkpt><trkpt lat="44.2740867" lon="12.32362"><ele>-2.0</ele><time>2026-05-01T09:49:05.752Z</time></trkpt><trkpt lat="44.2739467" lon="12.3237383"><ele>-2.0</ele><time>2026-05-01T09:49:06.752Z</time></trkpt><trkpt lat="44.2738067" lon="12.3238567"><ele>-1.0</ele><time>2026-05-01T09:49:07.744Z</time></trkpt><trkpt lat="44.2736683" lon="12.3239783"><ele>0.0</ele><time>2026-05-01T09:49:08.755Z</time></trkpt><trkpt lat="44.27353" lon="12.3240967"><ele>1.0</ele><time>2026-05-01T09:49:09.754Z</time></trkpt><trkpt lat="44.2733917" lon="12.324215"><ele>1.0</ele><time>2026-05-01T09:49:10.752Z</time></trkpt><trkpt lat="44.27325" lon="12.3243333"><ele>1.0</ele><time>2026-05-01T09:49:11.751Z</time></trkpt><trkpt lat="44.27311" lon="12.3244433"><ele>1.0</ele><time>2026-05-01T09:49:12.75Z</time></trkpt><trkpt lat="44.2729717" lon="12.32455"><ele>0.3333333333333333</ele><time>2026-05-01T09:49:13.75Z</time></trkpt><trkpt lat="44.27283" lon="12.324655"><ele>-0.3333333333333333</ele><time>2026-05-01T09:49:14.752Z</time></trkpt><trkpt lat="44.272685" lon="12.3247667"><ele>-1.0</ele><time>2026-05-01T09:49:15.761Z</time></trkpt><trkpt lat="44.272535" lon="12.3248833"><ele>-1.0</ele><time>2026-05-01T09:49:16.743Z</time></trkpt><trkpt lat="44.2723783" lon="12.325005"><ele>-1.0</ele><time>2026-05-01T09:49:17.75Z</time></trkpt><trkpt lat="44.272215" lon="12.3251217"><ele>-1.0</ele><time>2026-05-01T09:49:18.754Z</time></trkpt><trkpt lat="44.2720467" lon="12.3252417"><ele>-0.3333333333333333</ele><time>2026-05-01T09:49:19.754Z</time></trkpt><trkpt lat="44.2718717" lon="12.32536"><ele>0.3333333333333333</ele><time>2026-05-01T09:49:20.746Z</time></trkpt><trkpt lat="44.2716967" lon="12.3254817"><ele>1.0</ele><time>2026-05-01T09:49:21.747Z</time></trkpt><trkpt lat="44.27152" lon="12.3256"><ele>1.0</ele><time>2026-05-01T09:49:22.753Z</time></trkpt><trkpt lat="44.2713417" lon="12.3257183"><ele>1.0</ele><time>2026-05-01T09:49:23.753Z</time></trkpt><trkpt lat="44.2711633" lon="12.3258417"><ele>1.0</ele><time>2026-05-01T09:49:24.751Z</time></trkpt><trkpt lat="44.2709833" lon="12.3259717"><ele>1.0</ele><time>2026-05-01T09:49:25.749Z</time></trkpt><trkpt lat="44.2708017" lon="12.326105"><ele>1.0</ele><time>2026-05-01T09:49:26.747Z</time></trkpt><trkpt lat="44.2706217" lon="12.3262367"><ele>1.0</ele><time>2026-05-01T09:49:27.744Z</time></trkpt><trkpt lat="44.27044" lon="12.3263767"><ele>0.3333333333333333</ele><time>2026-05-01T09:49:28.757Z</time></trkpt><trkpt lat="44.2702583" lon="12.3265117"><ele>-0.3333333333333333</ele><time>2026-05-01T09:49:29.748Z</time></trkpt><trkpt lat="44.2700817" lon="12.3266433"><ele>-1.0</ele><time>2026-05-01T09:49:30.751Z</time></trkpt><trkpt lat="44.2699083" lon="12.3267733"><ele>-2.0</ele><time>2026-05-01T09:49:31.75Z</time></trkpt><trkpt lat="44.2697367" lon="12.3268983"><ele>-3.0</ele><time>2026-05-01T09:49:32.75Z</time></trkpt><trkpt lat="44.269565" lon="12.3270267"><ele>-4.0</ele><time>2026-05-01T09:49:33.749Z</time></trkpt><trkpt lat="44.2693967" lon="12.3271483"><ele>-3.333333333333333</ele><time>2026-05-01T09:49:34.75Z</time></trkpt><trkpt lat="44.2692317" lon="12.32727"><ele>-2.6666666666666665</ele><time>2026-05-01T09:49:35.754Z</time></trkpt><trkpt lat="44.2690667" lon="12.3273933"><ele>-2.0</ele><time>2026-05-01T09:49:36.746Z</time></trkpt><trkpt lat="44.2689033" lon="12.32751"><ele>-2.0</ele><time>2026-05-01T09:49:37.751Z</time></trkpt><trkpt lat="44.2687367" lon="12.3276317"><ele>-2.0</ele><time>2026-05-01T09:49:38.744Z</time></trkpt><trkpt lat="44.268575" lon="12.3277517"><ele>-2.0</ele><time>2026-05-01T09:49:39.748Z</time></trkpt><trkpt lat="44.268405" lon="12.3278767"><ele>-2.0</ele><time>2026-05-01T09:49:40.747Z</time></trkpt><trkpt lat="44.2682283" lon="12.3280033"><ele>-2.0</ele><time>2026-05-01T09:49:41.756Z</time></trkpt><trkpt lat="44.2680467" lon="12.3281333"><ele>-2.0</ele><time>2026-05-01T09:49:42.755Z</time></trkpt><trkpt lat="44.2678617" lon="12.3282667"><ele>-1.6666666666666665</ele><time>2026-05-01T09:49:43.756Z</time></trkpt><trkpt lat="44.2676733" lon="12.328395"><ele>-1.3333333333333333</ele><time>2026-05-01T09:49:44.755Z</time></trkpt><trkpt lat="44.26748" lon="12.3285267"><ele>-1.0</ele><time>2026-05-01T09:49:45.75Z</time></trkpt><trkpt lat="44.26729" lon="12.3286583"><ele>-1.0</ele><time>2026-05-01T09:49:46.752Z</time></trkpt><trkpt lat="44.267105" lon="12.32879"><ele>-1.0</ele><time>2026-05-01T09:49:47.752Z</time></trkpt><trkpt lat="44.2669267" lon="12.3289233"><ele>-1.0</ele><time>2026-05-01T09:49:48.751Z</time></trkpt><trkpt lat="44.2667467" lon="12.3290583"><ele>-1.0</ele><time>2026-05-01T09:49:49.749Z</time></trkpt><trkpt lat="44.266565" lon="12.3291917"><ele>-1.0</ele><time>2026-05-01T09:49:50.751Z</time></trkpt><trkpt lat="44.2663817" lon="12.3293233"><ele>-1.0</ele><time>2026-05-01T09:49:51.752Z</time></trkpt><trkpt lat="44.2661967" lon="12.3294517"><ele>-1.0</ele><time>2026-05-01T09:49:52.749Z</time></trkpt><trkpt lat="44.2660133" lon="12.3295833"><ele>-1.0</ele><time>2026-05-01T09:49:53.75Z</time></trkpt><trkpt lat="44.2658283" lon="12.3297117"><ele>-1.0</ele><time>2026-05-01T09:49:54.752Z</time></trkpt><trkpt lat="44.2656433" lon="12.3298433"><ele>-1.6666666666666665</ele><time>2026-05-01T09:49:55.752Z</time></trkpt><trkpt lat="44.2654667" lon="12.3299717"><ele>-2.3333333333333335</ele><time>2026-05-01T09:49:56.742Z</time></trkpt><trkpt lat="44.2652933" lon="12.3300983"><ele>-3.0</ele><time>2026-05-01T09:49:57.75Z</time></trkpt><trkpt lat="44.2651217" lon="12.3302217"><ele>-3.0</ele><time>2026-05-01T09:49:58.75Z</time></trkpt><trkpt lat="44.2649517" lon="12.3303417"><ele>-3.0</ele><time>2026-05-01T09:49:59.753Z</time></trkpt><trkpt lat="44.2647817" lon="12.3304567"><ele>-3.0</ele><time>2026-05-01T09:50:00.751Z</time></trkpt><trkpt lat="44.264615" lon="12.3305733"><ele>-2.6666666666666665</ele><time>2026-05-01T09:50:01.745Z</time></trkpt><trkpt lat="44.2644483" lon="12.3307"><ele>-2.333333333333333</ele><time>2026-05-01T09:50:02.752Z</time></trkpt><trkpt lat="44.2642767" lon="12.3308217"><ele>-2.0</ele><time>2026-05-01T09:50:03.75Z</time></trkpt><trkpt lat="44.26411" lon="12.3309417"><ele>-2.6666666666666665</ele><time>2026-05-01T09:50:04.749Z</time></trkpt><trkpt lat="44.26394" lon="12.33106"><ele>-3.333333333333333</ele><time>2026-05-01T09:50:05.746Z</time></trkpt><trkpt lat="44.2637733" lon="12.331175"><ele>-4.0</ele><time>2026-05-01T09:50:06.758Z</time></trkpt><trkpt lat="44.263605" lon="12.331295"><ele>-4.0</ele><time>2026-05-01T09:50:07.752Z</time></trkpt><trkpt lat="44.263435" lon="12.331415"><ele>-4.0</ele><time>2026-05-01T09:50:08.749Z</time></trkpt><trkpt lat="44.2632667" lon="12.331535"><ele>-4.0</ele><time>2026-05-01T09:50:09.755Z</time></trkpt><trkpt lat="44.2630967" lon="12.3316567"><ele>-4.0</ele><time>2026-05-01T09:50:10.752Z</time></trkpt><trkpt lat="44.2629267" lon="12.3317767"><ele>-4.0</ele><time>2026-05-01T09:50:11.752Z</time></trkpt><trkpt lat="44.2627583" lon="12.3319"><ele>-4.0</ele><time>2026-05-01T09:50:12.748Z</time></trkpt><trkpt lat="44.2625867" lon="12.33202"><ele>-4.0</ele><time>2026-05-01T09:50:13.746Z</time></trkpt><trkpt lat="44.2624167" lon="12.3321417"><ele>-4.0</ele><time>2026-05-01T09:50:14.744Z</time></trkpt><trkpt lat="44.2622433" lon="12.3322617"><ele>-4.0</ele><time>2026-05-01T09:50:15.745Z</time></trkpt><trkpt lat="44.2620733" lon="12.332385"><ele>-3.333333333333333</ele><time>2026-05-01T09:50:16.75Z</time></trkpt><trkpt lat="44.2619017" lon="12.3325033"><ele>-2.6666666666666665</ele><time>2026-05-01T09:50:17.75Z</time></trkpt><trkpt lat="44.2617367" lon="12.332625"><ele>-2.0</ele><time>2026-05-01T09:50:18.751Z</time></trkpt><trkpt lat="44.2615767" lon="12.332745"><ele>-2.0</ele><time>2026-05-01T09:50:19.75Z</time></trkpt><trkpt lat="44.26142" lon="12.3328567"><ele>-2.0</ele><time>2026-05-01T09:50:20.752Z</time></trkpt><trkpt lat="44.261265" lon="12.3329683"><ele>-2.0</ele><time>2026-05-01T09:50:21.749Z</time></trkpt><trkpt lat="44.2611117" lon="12.3330767"><ele>-2.0</ele><time>2026-05-01T09:50:22.745Z</time></trkpt><trkpt lat="44.2609567" lon="12.333185"><ele>-2.0</ele><time>2026-05-01T09:50:23.753Z</time></trkpt><trkpt lat="44.2608033" lon="12.3332933"><ele>-2.0</ele><time>2026-05-01T09:50:24.754Z</time></trkpt><trkpt lat="44.2606483" lon="12.3334033"><ele>-3.0</ele><time>2026-05-01T09:50:25.746Z</time></trkpt><trkpt lat="44.2604933" lon="12.333515"><ele>-4.0</ele><time>2026-05-01T09:50:26.75Z</time></trkpt><trkpt lat="44.2603433" lon="12.33362"><ele>-5.0</ele><time>2026-05-01T09:50:27.755Z</time></trkpt><trkpt lat="44.2601967" lon="12.33373"><ele>-5.0</ele><time>2026-05-01T09:50:28.741Z</time></trkpt><trkpt lat="44.2600533" lon="12.3338367"><ele>-5.0</ele><time>2026-05-01T09:50:29.75Z</time></trkpt><trkpt lat="44.2599133" lon="12.3339417"><ele>-5.0</ele><time>2026-05-01T09:50:30.747Z</time></trkpt><trkpt lat="44.2597817" lon="12.3340433"><ele>-4.666666666666667</ele><time>2026-05-01T09:50:31.758Z</time></trkpt><trkpt lat="44.2596533" lon="12.334145"><ele>-4.333333333333333</ele><time>2026-05-01T09:50:32.755Z</time></trkpt><trkpt lat="44.2595217" lon="12.334255"><ele>-4.0</ele><time>2026-05-01T09:50:33.744Z</time></trkpt><trkpt lat="44.2593933" lon="12.3343717"><ele>-4.0</ele><time>2026-05-01T09:50:34.751Z</time></trkpt><trkpt lat="44.2592633" lon="12.3344967"><ele>-4.0</ele><time>2026-05-01T09:50:35.752Z</time></trkpt><trkpt lat="44.25914" lon="12.3346217"><ele>-4.0</ele><time>2026-05-01T09:50:36.749Z</time></trkpt><trkpt lat="44.2590183" lon="12.334745"><ele>-3.75</ele><time>2026-05-01T09:50:37.75Z</time></trkpt><trkpt lat="44.2589" lon="12.3348717"><ele>-3.5</ele><time>2026-05-01T09:50:38.756Z</time></trkpt><trkpt lat="44.258785" lon="12.3350067"><ele>-3.25</ele><time>2026-05-01T09:50:39.741Z</time></trkpt><trkpt lat="44.258675" lon="12.335145"><ele>-3.0</ele><time>2026-05-01T09:50:40.741Z</time></trkpt><trkpt lat="44.2585633" lon="12.3352883"><ele>-3.0</ele><time>2026-05-01T09:50:41.747Z</time></trkpt><trkpt lat="44.258455" lon="12.335425"><ele>-3.0</ele><time>2026-05-01T09:50:42.743Z</time></trkpt><trkpt lat="44.2583483" lon="12.3355617"><ele>-3.0</ele><time>2026-05-01T09:50:43.752Z</time></trkpt><trkpt lat="44.2582483" lon="12.3356933"><ele>-3.0</ele><time>2026-05-01T09:50:44.761Z</time></trkpt><trkpt lat="44.2581483" lon="12.335825"><ele>-3.0</ele><time>2026-05-01T09:50:45.752Z</time></trkpt><trkpt lat="44.2580517" lon="12.3359533"><ele>-3.0</ele><time>2026-05-01T09:50:46.748Z</time></trkpt><trkpt lat="44.2579567" lon="12.33607"><ele>-3.0</ele><time>2026-05-01T09:50:47.747Z</time></trkpt><trkpt lat="44.257865" lon="12.3361783"><ele>-3.0</ele><time>2026-05-01T09:50:48.749Z</time></trkpt><trkpt lat="44.2577883" lon="12.3362683"><ele>-3.0</ele><time>2026-05-01T09:50:49.752Z</time></trkpt><trkpt lat="44.2577217" lon="12.3363383"><ele>-3.0</ele><time>2026-05-01T09:50:50.751Z</time></trkpt><trkpt lat="44.25766" lon="12.3363933"><ele>-3.0</ele><time>2026-05-01T09:50:51.749Z</time></trkpt><trkpt lat="44.2575917" lon="12.3364267"><ele>-3.0</ele><time>2026-05-01T09:50:52.747Z</time></trkpt><trkpt lat="44.2575167" lon="12.336435"><ele>-3.0</ele><time>2026-05-01T09:50:53.755Z</time></trkpt><trkpt lat="44.2574317" lon="12.336415"><ele>-3.0</ele><time>2026-05-01T09:50:54.753Z</time></trkpt><trkpt lat="44.2573483" lon="12.3363733"><ele>-3.0</ele><time>2026-05-01T09:50:55.75Z</time></trkpt><trkpt lat="44.25726" lon="12.336345"><ele>-3.0</ele><time>2026-05-01T09:50:56.755Z</time></trkpt><trkpt lat="44.2571717" lon="12.3363333"><ele>-3.0</ele><time>2026-05-01T09:50:57.748Z</time></trkpt><trkpt lat="44.25709" lon="12.3363417"><ele>-3.0</ele><time>2026-05-01T09:50:58.754Z</time></trkpt><trkpt lat="44.2570117" lon="12.3363733"><ele>-3.0</ele><time>2026-05-01T09:50:59.749Z</time></trkpt><trkpt lat="44.2569367" lon="12.336425"><ele>-3.0</ele><time>2026-05-01T09:51:00.744Z</time></trkpt><trkpt lat="44.2568733" lon="12.3365067"><ele>-3.0</ele><time>2026-05-01T09:51:01.745Z</time></trkpt><trkpt lat="44.25682" lon="12.3366017"><ele>-3.0</ele><time>2026-05-01T09:51:02.75Z</time></trkpt><trkpt lat="44.2567817" lon="12.3367067"><ele>-3.0</ele><time>2026-05-01T09:51:03.75Z</time></trkpt><trkpt lat="44.256755" lon="12.3368117"><ele>-3.0</ele><time>2026-05-01T09:51:04.748Z</time></trkpt><trkpt lat="44.2567383" lon="12.3369083"><ele>-3.0</ele><time>2026-05-01T09:51:05.759Z</time></trkpt><trkpt lat="44.2567417" lon="12.337055"><ele>-3.0</ele><time>2026-05-01T09:51:07.751Z</time></trkpt><trkpt lat="44.2567583" lon="12.33717"><ele>-2.8333333333333335</ele><time>2026-05-01T09:51:09.751Z</time></trkpt><trkpt lat="44.25678" lon="12.3372933"><ele>-2.6666666666666665</ele><time>2026-05-01T09:51:11.75Z</time></trkpt><trkpt lat="44.2567883" lon="12.3373983"><ele>-2.5</ele><time>2026-05-01T09:51:13.745Z</time></trkpt><trkpt lat="44.2567833" lon="12.3375433"><ele>-2.333333333333333</ele><time>2026-05-01T09:51:16.751Z</time></trkpt><trkpt lat="44.256765" lon="12.3376433"><ele>-2.1666666666666665</ele><time>2026-05-01T09:51:18.754Z</time></trkpt><trkpt lat="44.2567233" lon="12.3377667"><ele>-2.0</ele><time>2026-05-01T09:51:20.755Z</time></trkpt><trkpt lat="44.256655" lon="12.33792"><ele>-2.0</ele><time>2026-05-01T09:51:22.75Z</time></trkpt><trkpt lat="44.2566117" lon="12.338005"><ele>-2.0</ele><time>2026-05-01T09:51:23.752Z</time></trkpt><trkpt lat="44.2565583" lon="12.3381"><ele>-2.0</ele><time>2026-05-01T09:51:24.744Z</time></trkpt><trkpt lat="44.2564967" lon="12.3382017"><ele>-2.0</ele><time>2026-05-01T09:51:25.752Z</time></trkpt><trkpt lat="44.256425" lon="12.3383133"><ele>-2.0</ele><time>2026-05-01T09:51:26.751Z</time></trkpt><trkpt lat="44.2563483" lon="12.3384333"><ele>-1.75</ele><time>2026-05-01T09:51:27.75Z</time></trkpt><trkpt lat="44.2562667" lon="12.33856"><ele>-1.5</ele><time>2026-05-01T09:51:28.744Z</time></trkpt><trkpt lat="44.2561783" lon="12.33869"><ele>-1.25</ele><time>2026-05-01T09:51:29.743Z</time></trkpt><trkpt lat="44.256085" lon="12.33883"><ele>-1.0</ele><time>2026-05-01T09:51:30.741Z</time></trkpt><trkpt lat="44.2559883" lon="12.3389767"><ele>-0.6666666666666666</ele><time>2026-05-01T09:51:31.743Z</time></trkpt><trkpt lat="44.25589" lon="12.33913"><ele>-0.3333333333333333</ele><time>2026-05-01T09:51:32.744Z</time></trkpt><trkpt lat="44.2557883" lon="12.339285"><ele>0.0</ele><time>2026-05-01T09:51:33.742Z</time></trkpt><trkpt lat="44.25568" lon="12.3394417"><ele>-0.3333333333333333</ele><time>2026-05-01T09:51:34.747Z</time></trkpt><trkpt lat="44.2555717" lon="12.3396033"><ele>-0.6666666666666666</ele><time>2026-05-01T09:51:35.742Z</time></trkpt><trkpt lat="44.2554617" lon="12.3397683"><ele>-1.0</ele><time>2026-05-01T09:51:36.744Z</time></trkpt><trkpt lat="44.2553483" lon="12.3399367"><ele>-1.0</ele><time>2026-05-01T09:51:37.745Z</time></trkpt><trkpt lat="44.2552367" lon="12.3401033"><ele>-1.0</ele><time>2026-05-01T09:51:38.742Z</time></trkpt><trkpt lat="44.2551267" lon="12.3402683"><ele>-1.0</ele><time>2026-05-01T09:51:39.743Z</time></trkpt><trkpt lat="44.2550167" lon="12.3404283"><ele>-1.3333333333333333</ele><time>2026-05-01T09:51:40.742Z</time></trkpt><trkpt lat="44.25491" lon="12.3405917"><ele>-1.6666666666666665</ele><time>2026-05-01T09:51:41.744Z</time></trkpt><trkpt lat="44.2548033" lon="12.3407433"><ele>-2.0</ele><time>2026-05-01T09:51:42.742Z</time></trkpt><trkpt lat="44.2547017" lon="12.3408867"><ele>-2.0</ele><time>2026-05-01T09:51:43.744Z</time></trkpt><trkpt lat="44.25461" lon="12.3410167"><ele>-2.0</ele><time>2026-05-01T09:51:44.743Z</time></trkpt><trkpt lat="44.25453" lon="12.3411317"><ele>-2.0</ele><time>2026-05-01T09:51:45.743Z</time></trkpt><trkpt lat="44.2544683" lon="12.3412167"><ele>-2.0</ele><time>2026-05-01T09:51:46.743Z</time></trkpt><trkpt lat="44.2544167" lon="12.3412817"><ele>-2.0</ele><time>2026-05-01T09:51:47.745Z</time></trkpt><trkpt lat="44.2543667" lon="12.34134"><ele>-2.0</ele><time>2026-05-01T09:51:48.746Z</time></trkpt><trkpt lat="44.254315" lon="12.3414067"><ele>-2.0</ele><time>2026-05-01T09:51:49.744Z</time></trkpt><trkpt lat="44.254255" lon="12.3414967"><ele>-2.0</ele><time>2026-05-01T09:51:50.75Z</time></trkpt><trkpt lat="44.2541883" lon="12.3416083"><ele>-2.0</ele><time>2026-05-01T09:51:51.753Z</time></trkpt><trkpt lat="44.2541083" lon="12.341735"><ele>-2.0</ele><time>2026-05-01T09:51:52.749Z</time></trkpt><trkpt lat="44.25402" lon="12.3418683"><ele>-1.75</ele><time>2026-05-01T09:51:53.754Z</time></trkpt><trkpt lat="44.253925" lon="12.34201"><ele>-1.5</ele><time>2026-05-01T09:51:54.746Z</time></trkpt><trkpt lat="44.253825" lon="12.34216"><ele>-1.25</ele><time>2026-05-01T09:51:55.75Z</time></trkpt><trkpt lat="44.25372" lon="12.342315"><ele>-1.0</ele><time>2026-05-01T09:51:56.75Z</time></trkpt><trkpt lat="44.2536133" lon="12.342475"><ele>-1.0</ele><time>2026-05-01T09:51:57.75Z</time></trkpt><trkpt lat="44.2535033" lon="12.3426383"><ele>-1.0</ele><time>2026-05-01T09:51:58.741Z</time></trkpt><trkpt lat="44.2533883" lon="12.3428033"><ele>-1.0</ele><time>2026-05-01T09:51:59.742Z</time></trkpt><trkpt lat="44.2532717" lon="12.3429733"><ele>-1.0</ele><time>2026-05-01T09:52:00.75Z</time></trkpt><trkpt lat="44.2531567" lon="12.343145"><ele>-1.0</ele><time>2026-05-01T09:52:01.749Z</time></trkpt><trkpt lat="44.25304" lon="12.3433183"><ele>-1.0</ele><time>2026-05-01T09:52:02.743Z</time></trkpt><trkpt lat="44.2529183" lon="12.343495"><ele>-1.0</ele><time>2026-05-01T09:52:03.754Z</time></trkpt><trkpt lat="44.2527917" lon="12.3436833"><ele>-1.0</ele><time>2026-05-01T09:52:04.753Z</time></trkpt><trkpt lat="44.2526617" lon="12.3438733"><ele>-1.0</ele><time>2026-05-01T09:52:05.749Z</time></trkpt><trkpt lat="44.2525283" lon="12.34406"><ele>-1.0</ele><time>2026-05-01T09:52:06.751Z</time></trkpt><trkpt lat="44.2523983" lon="12.3442367"><ele>-1.0</ele><time>2026-05-01T09:52:07.75Z</time></trkpt><trkpt lat="44.252275" lon="12.3444117"><ele>-1.0</ele><time>2026-05-01T09:52:08.751Z</time></trkpt><trkpt lat="44.25216" lon="12.3445783"><ele>0.0</ele><time>2026-05-01T09:52:09.748Z</time></trkpt><trkpt lat="44.2520533" lon="12.3447383"><ele>1.0</ele><time>2026-05-01T09:52:10.753Z</time></trkpt><trkpt lat="44.2519467" lon="12.344905"><ele>2.0</ele><time>2026-05-01T09:52:11.749Z</time></trkpt><trkpt lat="44.251835" lon="12.3450683"><ele>2.0</ele><time>2026-05-01T09:52:12.751Z</time></trkpt><trkpt lat="44.2517167" lon="12.3452333"><ele>2.0</ele><time>2026-05-01T09:52:13.75Z</time></trkpt><trkpt lat="44.2515917" lon="12.3453967"><ele>2.0</ele><time>2026-05-01T09:52:14.75Z</time></trkpt><trkpt lat="44.25146" lon="12.3455567"><ele>1.0</ele><time>2026-05-01T09:52:15.743Z</time></trkpt><trkpt lat="44.251325" lon="12.345715"><ele>0.0</ele><time>2026-05-01T09:52:16.747Z</time></trkpt><trkpt lat="44.251185" lon="12.3458733"><ele>-1.0</ele><time>2026-05-01T09:52:17.75Z</time></trkpt><trkpt lat="44.2510417" lon="12.34603"><ele>-1.0</ele><time>2026-05-01T09:52:18.748Z</time></trkpt><trkpt lat="44.2508933" lon="12.3461833"><ele>-1.0</ele><time>2026-05-01T09:52:19.746Z</time></trkpt><trkpt lat="44.2507433" lon="12.3463383"><ele>-1.0</ele><time>2026-05-01T09:52:20.75Z</time></trkpt><trkpt lat="44.2505867" lon="12.3464867"><ele>-1.3333333333333333</ele><time>2026-05-01T09:52:21.751Z</time></trkpt><trkpt lat="44.2504267" lon="12.3466317"><ele>-1.6666666666666665</ele><time>2026-05-01T09:52:22.75Z</time></trkpt><trkpt lat="44.2502633" lon="12.3467717"><ele>-2.0</ele><time>2026-05-01T09:52:23.751Z</time></trkpt><trkpt lat="44.2500967" lon="12.3469117"><ele>-2.0</ele><time>2026-05-01T09:52:24.75Z</time></trkpt><trkpt lat="44.249925" lon="12.3470467"><ele>-2.0</ele><time>2026-05-01T09:52:25.755Z</time></trkpt><trkpt lat="44.24975" lon="12.347185"><ele>-2.0</ele><time>2026-05-01T09:52:26.752Z</time></trkpt><trkpt lat="44.2495717" lon="12.34733"><ele>-1.5</ele><time>2026-05-01T09:52:27.751Z</time></trkpt><trkpt lat="44.2493783" lon="12.3474767"><ele>-1.0</ele><time>2026-05-01T09:52:28.745Z</time></trkpt><trkpt lat="44.2491733" lon="12.347625"><ele>-1.0</ele><time>2026-05-01T09:52:29.75Z</time></trkpt><trkpt lat="44.2489633" lon="12.3477783"><ele>-1.0</ele><time>2026-05-01T09:52:30.751Z</time></trkpt><trkpt lat="44.2487567" lon="12.3479367"><ele>-1.0</ele><time>2026-05-01T09:52:31.751Z</time></trkpt><trkpt lat="44.2485433" lon="12.3480967"><ele>-1.0</ele><time>2026-05-01T09:52:32.753Z</time></trkpt><trkpt lat="44.2483267" lon="12.34826"><ele>-2.5</ele><time>2026-05-01T09:52:33.749Z</time></trkpt><trkpt lat="44.24811" lon="12.34842"><ele>-4.0</ele><time>2026-05-01T09:52:34.755Z</time></trkpt><trkpt lat="44.2478933" lon="12.3485817"><ele>-4.0</ele><time>2026-05-01T09:52:35.751Z</time></trkpt><trkpt lat="44.2476717" lon="12.3487433"><ele>-4.0</ele><time>2026-05-01T09:52:36.745Z</time></trkpt><trkpt lat="44.24745" lon="12.3489067"><ele>-3.5</ele><time>2026-05-01T09:52:37.75Z</time></trkpt><trkpt lat="44.2472267" lon="12.3490733"><ele>-3.0</ele><time>2026-05-01T09:52:38.751Z</time></trkpt><trkpt lat="44.247" lon="12.34924"><ele>-3.0</ele><time>2026-05-01T09:52:39.752Z</time></trkpt><trkpt lat="44.2467683" lon="12.3494083"><ele>-3.0</ele><time>2026-05-01T09:52:40.752Z</time></trkpt><trkpt lat="44.246535" lon="12.349575"><ele>-3.0</ele><time>2026-05-01T09:52:41.752Z</time></trkpt><trkpt lat="44.246305" lon="12.3497417"><ele>-3.0</ele><time>2026-05-01T09:52:42.763Z</time></trkpt><trkpt lat="44.2460733" lon="12.3499133"><ele>-3.0</ele><time>2026-05-01T09:52:43.755Z</time></trkpt><trkpt lat="44.24584" lon="12.3500833"><ele>-3.0</ele><time>2026-05-01T09:52:44.752Z</time></trkpt><trkpt lat="44.245605" lon="12.3502533"><ele>-3.0</ele><time>2026-05-01T09:52:45.746Z</time></trkpt><trkpt lat="44.2453717" lon="12.350425"><ele>-3.0</ele><time>2026-05-01T09:52:46.746Z</time></trkpt><trkpt lat="44.24514" lon="12.350595"><ele>-2.5</ele><time>2026-05-01T09:52:47.748Z</time></trkpt><trkpt lat="44.2449067" lon="12.3507633"><ele>-2.0</ele><time>2026-05-01T09:52:48.745Z</time></trkpt><trkpt lat="44.244675" lon="12.3509333"><ele>-2.0</ele><time>2026-05-01T09:52:49.751Z</time></trkpt><trkpt lat="44.24445" lon="12.3511"><ele>-2.0</ele><time>2026-05-01T09:52:50.749Z</time></trkpt><trkpt lat="44.2442283" lon="12.35126"><ele>-1.5</ele><time>2026-05-01T09:52:51.75Z</time></trkpt><trkpt lat="44.2440133" lon="12.351415"><ele>-1.0</ele><time>2026-05-01T09:52:52.75Z</time></trkpt><trkpt lat="44.2438067" lon="12.3515667"><ele>-1.0</ele><time>2026-05-01T09:52:53.755Z</time></trkpt><trkpt lat="44.2436067" lon="12.351715"><ele>-1.0</ele><time>2026-05-01T09:52:54.751Z</time></trkpt><trkpt lat="44.2434117" lon="12.3518583"><ele>-1.0</ele><time>2026-05-01T09:52:55.75Z</time></trkpt><trkpt lat="44.2432217" lon="12.3519983"><ele>-1.0</ele><time>2026-05-01T09:52:56.753Z</time></trkpt><trkpt lat="44.2430333" lon="12.3521367"><ele>-1.0</ele><time>2026-05-01T09:52:57.745Z</time></trkpt><trkpt lat="44.2428433" lon="12.352275"><ele>-1.0</ele><time>2026-05-01T09:52:58.749Z</time></trkpt><trkpt lat="44.2426517" lon="12.3524117"><ele>-1.0</ele><time>2026-05-01T09:52:59.752Z</time></trkpt><trkpt lat="44.2424583" lon="12.3525483"><ele>-1.0</ele><time>2026-05-01T09:53:00.753Z</time></trkpt><trkpt lat="44.2422633" lon="12.3526883"><ele>-1.0</ele><time>2026-05-01T09:53:01.756Z</time></trkpt><trkpt lat="44.2420667" lon="12.3528317"><ele>-0.6666666666666666</ele><time>2026-05-01T09:53:02.752Z</time></trkpt><trkpt lat="44.2418683" lon="12.3529733"><ele>-0.3333333333333333</ele><time>2026-05-01T09:53:03.749Z</time></trkpt><trkpt lat="44.2416667" lon="12.3531167"><ele>0.0</ele><time>2026-05-01T09:53:04.753Z</time></trkpt><trkpt lat="44.2414667" lon="12.3532617"><ele>-1.0</ele><time>2026-05-01T09:53:05.75Z</time></trkpt><trkpt lat="44.2412683" lon="12.3534083"><ele>-2.0</ele><time>2026-05-01T09:53:06.752Z</time></trkpt><trkpt lat="44.2410733" lon="12.3535567"><ele>-3.0</ele><time>2026-05-01T09:53:07.749Z</time></trkpt><trkpt lat="44.2408783" lon="12.353705"><ele>-3.0</ele><time>2026-05-01T09:53:08.75Z</time></trkpt><trkpt lat="44.2406817" lon="12.3538517"><ele>-3.0</ele><time>2026-05-01T09:53:09.751Z</time></trkpt><trkpt lat="44.2404883" lon="12.354"><ele>-3.0</ele><time>2026-05-01T09:53:10.753Z</time></trkpt><trkpt lat="44.2403083" lon="12.354145"><ele>-2.3333333333333335</ele><time>2026-05-01T09:53:11.753Z</time></trkpt><trkpt lat="44.24014" lon="12.3542933"><ele>-1.6666666666666665</ele><time>2026-05-01T09:53:12.751Z</time></trkpt><trkpt lat="44.2399783" lon="12.3544433"><ele>-1.0</ele><time>2026-05-01T09:53:13.742Z</time></trkpt><trkpt lat="44.2398217" lon="12.3545967"><ele>-1.3333333333333333</ele><time>2026-05-01T09:53:14.753Z</time></trkpt><trkpt lat="44.2396617" lon="12.3547517"><ele>-1.6666666666666665</ele><time>2026-05-01T09:53:15.753Z</time></trkpt><trkpt lat="44.2394983" lon="12.3549083"><ele>-2.0</ele><time>2026-05-01T09:53:16.751Z</time></trkpt><trkpt lat="44.2393283" lon="12.3550667"><ele>-2.0</ele><time>2026-05-01T09:53:17.748Z</time></trkpt><trkpt lat="44.2391567" lon="12.3552283"><ele>-2.0</ele><time>2026-05-01T09:53:18.745Z</time></trkpt><trkpt lat="44.2389817" lon="12.3553933"><ele>-2.0</ele><time>2026-05-01T09:53:19.743Z</time></trkpt><trkpt lat="44.238805" lon="12.3555567"><ele>-2.333333333333333</ele><time>2026-05-01T09:53:20.753Z</time></trkpt><trkpt lat="44.2386267" lon="12.3557267"><ele>-2.6666666666666665</ele><time>2026-05-01T09:53:21.75Z</time></trkpt><trkpt lat="44.238445" lon="12.3558983"><ele>-3.0</ele><time>2026-05-01T09:53:22.745Z</time></trkpt><trkpt lat="44.2382617" lon="12.3560717"><ele>-2.6666666666666665</ele><time>2026-05-01T09:53:23.75Z</time></trkpt><trkpt lat="44.2380783" lon="12.3562467"><ele>-2.333333333333333</ele><time>2026-05-01T09:53:24.75Z</time></trkpt><trkpt lat="44.237895" lon="12.356425"><ele>-2.0</ele><time>2026-05-01T09:53:25.747Z</time></trkpt><trkpt lat="44.2377133" lon="12.3565967"><ele>-2.0</ele><time>2026-05-01T09:53:26.751Z</time></trkpt><trkpt lat="44.2375317" lon="12.3567683"><ele>-2.0</ele><time>2026-05-01T09:53:27.752Z</time></trkpt><trkpt lat="44.237355" lon="12.35694"><ele>-2.0</ele><time>2026-05-01T09:53:28.75Z</time></trkpt><trkpt lat="44.2371817" lon="12.3571033"><ele>-1.6666666666666665</ele><time>2026-05-01T09:53:29.752Z</time></trkpt><trkpt lat="44.2370133" lon="12.357265"><ele>-1.3333333333333333</ele><time>2026-05-01T09:53:30.752Z</time></trkpt><trkpt lat="44.2368467" lon="12.3574233"><ele>-1.0</ele><time>2026-05-01T09:53:31.751Z</time></trkpt><trkpt lat="44.2366817" lon="12.3575817"><ele>-1.0</ele><time>2026-05-01T09:53:32.754Z</time></trkpt><trkpt lat="44.2365183" lon="12.357735"><ele>-1.0</ele><time>2026-05-01T09:53:33.758Z</time></trkpt><trkpt lat="44.2363583" lon="12.35789"><ele>-1.0</ele><time>2026-05-01T09:53:34.75Z</time></trkpt><trkpt lat="44.2362" lon="12.3580467"><ele>-1.0</ele><time>2026-05-01T09:53:35.752Z</time></trkpt><trkpt lat="44.2360483" lon="12.3582017"><ele>-1.0</ele><time>2026-05-01T09:53:36.747Z</time></trkpt><trkpt lat="44.2359033" lon="12.3583467"><ele>-1.0</ele><time>2026-05-01T09:53:37.749Z</time></trkpt><trkpt lat="44.235765" lon="12.358485"><ele>-1.3333333333333333</ele><time>2026-05-01T09:53:38.749Z</time></trkpt><trkpt lat="44.2356333" lon="12.3586133"><ele>-1.6666666666666665</ele><time>2026-05-01T09:53:39.749Z</time></trkpt><trkpt lat="44.235505" lon="12.3587367"><ele>-2.0</ele><time>2026-05-01T09:53:40.75Z</time></trkpt><trkpt lat="44.2353817" lon="12.3588567"><ele>-1.5</ele><time>2026-05-01T09:53:41.75Z</time></trkpt><trkpt lat="44.235265" lon="12.3589717"><ele>-1.0</ele><time>2026-05-01T09:53:42.75Z</time></trkpt><trkpt lat="44.2351517" lon="12.3590783"><ele>-0.5</ele><time>2026-05-01T09:53:43.748Z</time></trkpt><trkpt lat="44.2350433" lon="12.35918"><ele>0.0</ele><time>2026-05-01T09:53:44.753Z</time></trkpt><trkpt lat="44.2349383" lon="12.3592817"><ele>0.0</ele><time>2026-05-01T09:53:45.75Z</time></trkpt><trkpt lat="44.2348317" lon="12.3593867"><ele>0.0</ele><time>2026-05-01T09:53:46.749Z</time></trkpt><trkpt lat="44.2347217" lon="12.359495"><ele>0.0</ele><time>2026-05-01T09:53:47.745Z</time></trkpt><trkpt lat="44.234605" lon="12.3596067"><ele>0.0</ele><time>2026-05-01T09:53:48.751Z</time></trkpt><trkpt lat="44.234485" lon="12.35972"><ele>0.0</ele><time>2026-05-01T09:53:49.742Z</time></trkpt><trkpt lat="44.2343617" lon="12.3598367"><ele>0.0</ele><time>2026-05-01T09:53:50.748Z</time></trkpt><trkpt lat="44.2342283" lon="12.3599483"><ele>0.0</ele><time>2026-05-01T09:53:51.745Z</time></trkpt><trkpt lat="44.234085" lon="12.36005"><ele>-0.6666666666666666</ele><time>2026-05-01T09:53:52.746Z</time></trkpt><trkpt lat="44.2339367" lon="12.3601417"><ele>-1.3333333333333333</ele><time>2026-05-01T09:53:53.742Z</time></trkpt><trkpt lat="44.2337933" lon="12.3602283"><ele>-2.0</ele><time>2026-05-01T09:53:54.755Z</time></trkpt><trkpt lat="44.2336567" lon="12.3603217"><ele>-2.0</ele><time>2026-05-01T09:53:55.75Z</time></trkpt><trkpt lat="44.2335267" lon="12.3604217"><ele>-2.0</ele><time>2026-05-01T09:53:56.754Z</time></trkpt><trkpt lat="44.2334033" lon="12.3605233"><ele>-2.0</ele><time>2026-05-01T09:53:57.742Z</time></trkpt><trkpt lat="44.2332883" lon="12.3606183"><ele>-2.0</ele><time>2026-05-01T09:53:58.756Z</time></trkpt><trkpt lat="44.2331833" lon="12.3607067"><ele>-2.0</ele><time>2026-05-01T09:53:59.746Z</time></trkpt><trkpt lat="44.233085" lon="12.36079"><ele>-2.0</ele><time>2026-05-01T09:54:00.752Z</time></trkpt><trkpt lat="44.2329917" lon="12.3608717"><ele>-2.0</ele><time>2026-05-01T09:54:01.753Z</time></trkpt><trkpt lat="44.2328983" lon="12.3609517"><ele>-2.0</ele><time>2026-05-01T09:54:02.755Z</time></trkpt><trkpt lat="44.2328083" lon="12.3610283"><ele>-2.0</ele><time>2026-05-01T09:54:03.752Z</time></trkpt><trkpt lat="44.2327217" lon="12.3611"><ele>-2.0</ele><time>2026-05-01T09:54:04.758Z</time></trkpt><trkpt lat="44.2326367" lon="12.361165"><ele>-2.0</ele><time>2026-05-01T09:54:05.753Z</time></trkpt><trkpt lat="44.23255" lon="12.3612233"><ele>-2.0</ele><time>2026-05-01T09:54:06.758Z</time></trkpt><trkpt lat="44.2324567" lon="12.3612683"><ele>-2.0</ele><time>2026-05-01T09:54:07.751Z</time></trkpt><trkpt lat="44.232355" lon="12.3613017"><ele>-2.0</ele><time>2026-05-01T09:54:08.743Z</time></trkpt><trkpt lat="44.2322517" lon="12.3613317"><ele>-2.0</ele><time>2026-05-01T09:54:09.748Z</time></trkpt><trkpt lat="44.2321467" lon="12.36137"><ele>-2.0</ele><time>2026-05-01T09:54:10.744Z</time></trkpt><trkpt lat="44.2320533" lon="12.36143"><ele>-2.0</ele><time>2026-05-01T09:54:11.742Z</time></trkpt><trkpt lat="44.231965" lon="12.3615083"><ele>-2.0</ele><time>2026-05-01T09:54:12.751Z</time></trkpt><trkpt lat="44.2318917" lon="12.36161"><ele>-2.0</ele><time>2026-05-01T09:54:13.753Z</time></trkpt><trkpt lat="44.2318283" lon="12.361725"><ele>-2.0</ele><time>2026-05-01T09:54:14.749Z</time></trkpt><trkpt lat="44.2317767" lon="12.361845"><ele>-2.0</ele><time>2026-05-01T09:54:15.753Z</time></trkpt><trkpt lat="44.231725" lon="12.3619567"><ele>-2.0</ele><time>2026-05-01T09:54:16.753Z</time></trkpt><trkpt lat="44.2316633" lon="12.3620633"><ele>-2.0</ele><time>2026-05-01T09:54:17.747Z</time></trkpt><trkpt lat="44.2315817" lon="12.3621683"><ele>-2.0</ele><time>2026-05-01T09:54:18.751Z</time></trkpt><trkpt lat="44.2314883" lon="12.3622733"><ele>-1.5</ele><time>2026-05-01T09:54:19.75Z</time></trkpt><trkpt lat="44.231385" lon="12.36239"><ele>-1.0</ele><time>2026-05-01T09:54:20.747Z</time></trkpt><trkpt lat="44.2312783" lon="12.36251"><ele>-0.5</ele><time>2026-05-01T09:54:21.747Z</time></trkpt><trkpt lat="44.231165" lon="12.362635"><ele>0.0</ele><time>2026-05-01T09:54:22.75Z</time></trkpt><trkpt lat="44.2310483" lon="12.3627633"><ele>0.0</ele><time>2026-05-01T09:54:23.748Z</time></trkpt><trkpt lat="44.2309283" lon="12.3628983"><ele>0.0</ele><time>2026-05-01T09:54:24.741Z</time></trkpt><trkpt lat="44.230805" lon="12.363035"><ele>0.0</ele><time>2026-05-01T09:54:25.751Z</time></trkpt><trkpt lat="44.23068" lon="12.3631767"><ele>-0.6666666666666666</ele><time>2026-05-01T09:54:26.751Z</time></trkpt><trkpt lat="44.23056" lon="12.3633233"><ele>-1.3333333333333333</ele><time>2026-05-01T09:54:27.745Z</time></trkpt><trkpt lat="44.2304433" lon="12.3634767"><ele>-2.0</ele><time>2026-05-01T09:54:28.752Z</time></trkpt><trkpt lat="44.2303317" lon="12.3636367"><ele>-2.0</ele><time>2026-05-01T09:54:29.751Z</time></trkpt><trkpt lat="44.2302117" lon="12.3637983"><ele>-2.0</ele><time>2026-05-01T09:54:30.742Z</time></trkpt><trkpt lat="44.230085" lon="12.3639567"><ele>-2.0</ele><time>2026-05-01T09:54:31.751Z</time></trkpt><trkpt lat="44.2299533" lon="12.3641083"><ele>-1.3333333333333333</ele><time>2026-05-01T09:54:32.744Z</time></trkpt><trkpt lat="44.2298133" lon="12.364255"><ele>-0.6666666666666666</ele><time>2026-05-01T09:54:33.751Z</time></trkpt><trkpt lat="44.22967" lon="12.3644"><ele>0.0</ele><time>2026-05-01T09:54:34.749Z</time></trkpt><trkpt lat="44.2295267" lon="12.3645417"><ele>0.0</ele><time>2026-05-01T09:54:35.749Z</time></trkpt><trkpt lat="44.229385" lon="12.364685"><ele>0.0</ele><time>2026-05-01T09:54:36.754Z</time></trkpt><trkpt lat="44.22924" lon="12.3648333"><ele>0.0</ele><time>2026-05-01T09:54:37.756Z</time></trkpt><trkpt lat="44.2290933" lon="12.364985"><ele>0.0</ele><time>2026-05-01T09:54:38.752Z</time></trkpt><trkpt lat="44.2289567" lon="12.3651267"><ele>0.0</ele><time>2026-05-01T09:54:39.752Z</time></trkpt><trkpt lat="44.2288217" lon="12.3652583"><ele>0.0</ele><time>2026-05-01T09:54:40.75Z</time></trkpt><trkpt lat="44.2286933" lon="12.365385"><ele>0.0</ele><time>2026-05-01T09:54:41.749Z</time></trkpt><trkpt lat="44.2285733" lon="12.3655"><ele>0.0</ele><time>2026-05-01T09:54:42.754Z</time></trkpt><trkpt lat="44.2284583" lon="12.3656117"><ele>0.0</ele><time>2026-05-01T09:54:43.75Z</time></trkpt><trkpt lat="44.2283467" lon="12.3657183"><ele>0.0</ele><time>2026-05-01T09:54:44.749Z</time></trkpt><trkpt lat="44.2282333" lon="12.36583"><ele>-0.75</ele><time>2026-05-01T09:54:45.746Z</time></trkpt><trkpt lat="44.2281167" lon="12.3659367"><ele>-1.5</ele><time>2026-05-01T09:54:46.746Z</time></trkpt><trkpt lat="44.2280033" lon="12.3660383"><ele>-2.25</ele><time>2026-05-01T09:54:47.752Z</time></trkpt><trkpt lat="44.2278917" lon="12.3661417"><ele>-3.0</ele><time>2026-05-01T09:54:48.754Z</time></trkpt><trkpt lat="44.2277833" lon="12.366245"><ele>-3.0</ele><time>2026-05-01T09:54:49.75Z</time></trkpt><trkpt lat="44.2276783" lon="12.366345"><ele>-3.0</ele><time>2026-05-01T09:54:50.743Z</time></trkpt><trkpt lat="44.227575" lon="12.3664433"><ele>-3.0</ele><time>2026-05-01T09:54:51.75Z</time></trkpt><trkpt lat="44.22747" lon="12.3665467"><ele>-3.0</ele><time>2026-05-01T09:54:52.75Z</time></trkpt><trkpt lat="44.2273617" lon="12.36665"><ele>-3.25</ele><time>2026-05-01T09:54:53.749Z</time></trkpt><trkpt lat="44.2272467" lon="12.36676"><ele>-3.5</ele><time>2026-05-01T09:54:54.751Z</time></trkpt><trkpt lat="44.2271317" lon="12.36687"><ele>-3.75</ele><time>2026-05-01T09:54:55.755Z</time></trkpt><trkpt lat="44.2270133" lon="12.366985"><ele>-4.0</ele><time>2026-05-01T09:54:56.752Z</time></trkpt><trkpt lat="44.2268933" lon="12.367105"><ele>-3.0</ele><time>2026-05-01T09:54:57.748Z</time></trkpt><trkpt lat="44.2267667" lon="12.36723"><ele>-2.0</ele><time>2026-05-01T09:54:58.75Z</time></trkpt><trkpt lat="44.2266367" lon="12.36736"><ele>-1.0</ele><time>2026-05-01T09:54:59.745Z</time></trkpt><trkpt lat="44.2265017" lon="12.367495"><ele>-1.0</ele><time>2026-05-01T09:55:00.748Z</time></trkpt><trkpt lat="44.2263633" lon="12.3676383"><ele>-1.0</ele><time>2026-05-01T09:55:01.758Z</time></trkpt><trkpt lat="44.2262183" lon="12.3677817"><ele>-1.0</ele><time>2026-05-01T09:55:02.758Z</time></trkpt><trkpt lat="44.2260683" lon="12.3679317"><ele>-1.3333333333333333</ele><time>2026-05-01T09:55:03.752Z</time></trkpt><trkpt lat="44.2259117" lon="12.3680867"><ele>-1.6666666666666665</ele><time>2026-05-01T09:55:04.753Z</time></trkpt><trkpt lat="44.2257483" lon="12.3682483"><ele>-2.0</ele><time>2026-05-01T09:55:05.755Z</time></trkpt><trkpt lat="44.2255817" lon="12.368415"><ele>-2.0</ele><time>2026-05-01T09:55:06.749Z</time></trkpt><trkpt lat="44.2254117" lon="12.368585"><ele>-2.0</ele><time>2026-05-01T09:55:07.75Z</time></trkpt><trkpt lat="44.2252367" lon="12.3687583"><ele>-2.0</ele><time>2026-05-01T09:55:08.753Z</time></trkpt><trkpt lat="44.2250583" lon="12.36893"><ele>-2.0</ele><time>2026-05-01T09:55:09.754Z</time></trkpt><trkpt lat="44.2248783" lon="12.3691033"><ele>-2.0</ele><time>2026-05-01T09:55:10.747Z</time></trkpt><trkpt lat="44.2247017" lon="12.369275"><ele>-2.0</ele><time>2026-05-01T09:55:11.754Z</time></trkpt><trkpt lat="44.2245267" lon="12.3694433"><ele>-2.0</ele><time>2026-05-01T09:55:12.754Z</time></trkpt><trkpt lat="44.2243533" lon="12.3696117"><ele>-2.0</ele><time>2026-05-01T09:55:13.751Z</time></trkpt><trkpt lat="44.2241783" lon="12.3697767"><ele>-2.0</ele><time>2026-05-01T09:55:14.755Z</time></trkpt><trkpt lat="44.2240033" lon="12.3699433"><ele>-2.333333333333333</ele><time>2026-05-01T09:55:15.749Z</time></trkpt><trkpt lat="44.2238283" lon="12.3701117"><ele>-2.6666666666666665</ele><time>2026-05-01T09:55:16.75Z</time></trkpt><trkpt lat="44.223655" lon="12.3702783"><ele>-3.0</ele><time>2026-05-01T09:55:17.751Z</time></trkpt><trkpt lat="44.2234817" lon="12.370445"><ele>-3.0</ele><time>2026-05-01T09:55:18.748Z</time></trkpt><trkpt lat="44.2233083" lon="12.3706117"><ele>-3.0</ele><time>2026-05-01T09:55:19.748Z</time></trkpt><trkpt lat="44.223135" lon="12.3707717"><ele>-3.0</ele><time>2026-05-01T09:55:20.752Z</time></trkpt><trkpt lat="44.2229667" lon="12.370925"><ele>-3.0</ele><time>2026-05-01T09:55:21.749Z</time></trkpt><trkpt lat="44.222805" lon="12.37107"><ele>-3.0</ele><time>2026-05-01T09:55:22.749Z</time></trkpt><trkpt lat="44.2226517" lon="12.3712117"><ele>-3.0</ele><time>2026-05-01T09:55:23.753Z</time></trkpt><trkpt lat="44.22251" lon="12.3713467"><ele>-2.6666666666666665</ele><time>2026-05-01T09:55:24.752Z</time></trkpt><trkpt lat="44.222375" lon="12.3714783"><ele>-2.333333333333333</ele><time>2026-05-01T09:55:25.751Z</time></trkpt><trkpt lat="44.2222417" lon="12.371605"><ele>-2.0</ele><time>2026-05-01T09:55:26.755Z</time></trkpt><trkpt lat="44.22211" lon="12.3717317"><ele>-2.0</ele><time>2026-05-01T09:55:27.742Z</time></trkpt><trkpt lat="44.2219767" lon="12.3718583"><ele>-2.0</ele><time>2026-05-01T09:55:28.748Z</time></trkpt><trkpt lat="44.2218417" lon="12.3719867"><ele>-2.0</ele><time>2026-05-01T09:55:29.76Z</time></trkpt><trkpt lat="44.2217117" lon="12.3721083"><ele>-2.0</ele><time>2026-05-01T09:55:30.742Z</time></trkpt><trkpt lat="44.221585" lon="12.3722267"><ele>-2.0</ele><time>2026-05-01T09:55:31.751Z</time></trkpt><trkpt lat="44.2214583" lon="12.3723433"><ele>-2.0</ele><time>2026-05-01T09:55:32.753Z</time></trkpt><trkpt lat="44.221335" lon="12.37246"><ele>-2.0</ele><time>2026-05-01T09:55:33.752Z</time></trkpt><trkpt lat="44.2212117" lon="12.3725767"><ele>-2.0</ele><time>2026-05-01T09:55:34.75Z</time></trkpt><trkpt lat="44.22109" lon="12.3726933"><ele>-2.0</ele><time>2026-05-01T09:55:35.754Z</time></trkpt><trkpt lat="44.2209683" lon="12.372815"><ele>-2.0</ele><time>2026-05-01T09:55:36.744Z</time></trkpt><trkpt lat="44.220845" lon="12.3729367"><ele>-1.3333333333333333</ele><time>2026-05-01T09:55:37.752Z</time></trkpt><trkpt lat="44.2207183" lon="12.373055"><ele>-0.6666666666666666</ele><time>2026-05-01T09:55:38.757Z</time></trkpt><trkpt lat="44.22059" lon="12.3731767"><ele>0.0</ele><time>2026-05-01T09:55:39.748Z</time></trkpt><trkpt lat="44.2204633" lon="12.3733017"><ele>1.0</ele><time>2026-05-01T09:55:40.746Z</time></trkpt><trkpt lat="44.2203317" lon="12.3734267"><ele>2.0</ele><time>2026-05-01T09:55:41.744Z</time></trkpt><trkpt lat="44.2202" lon="12.3735533"><ele>3.0</ele><time>2026-05-01T09:55:42.752Z</time></trkpt><trkpt lat="44.2200717" lon="12.3736783"><ele>3.0</ele><time>2026-05-01T09:55:43.745Z</time></trkpt><trkpt lat="44.219945" lon="12.3737967"><ele>3.0</ele><time>2026-05-01T09:55:44.751Z</time></trkpt><trkpt lat="44.21982" lon="12.3739133"><ele>3.0</ele><time>2026-05-01T09:55:45.751Z</time></trkpt><trkpt lat="44.219695" lon="12.3740283"><ele>2.3333333333333335</ele><time>2026-05-01T09:55:46.751Z</time></trkpt><trkpt lat="44.21957" lon="12.3741433"><ele>1.6666666666666665</ele><time>2026-05-01T09:55:47.75Z</time></trkpt><trkpt lat="44.2194433" lon="12.3742617"><ele>1.0</ele><time>2026-05-01T09:55:48.751Z</time></trkpt><trkpt lat="44.2193183" lon="12.3743767"><ele>1.0</ele><time>2026-05-01T09:55:49.747Z</time></trkpt><trkpt lat="44.21919" lon="12.3744917"><ele>1.0</ele><time>2026-05-01T09:55:50.75Z</time></trkpt><trkpt lat="44.2190633" lon="12.3746067"><ele>1.0</ele><time>2026-05-01T09:55:51.744Z</time></trkpt><trkpt lat="44.2189367" lon="12.374715"><ele>0.5</ele><time>2026-05-01T09:55:52.747Z</time></trkpt><trkpt lat="44.2188117" lon="12.3748233"><ele>0.0</ele><time>2026-05-01T09:55:53.753Z</time></trkpt><trkpt lat="44.21869" lon="12.3749333"><ele>-0.5</ele><time>2026-05-01T09:55:54.745Z</time></trkpt><trkpt lat="44.2185683" lon="12.3750417"><ele>-1.0</ele><time>2026-05-01T09:55:55.742Z</time></trkpt><trkpt lat="44.2184433" lon="12.37515"><ele>-1.0</ele><time>2026-05-01T09:55:56.748Z</time></trkpt><trkpt lat="44.218315" lon="12.3752567"><ele>-1.0</ele><time>2026-05-01T09:55:57.749Z</time></trkpt><trkpt lat="44.218185" lon="12.3753633"><ele>-1.0</ele><time>2026-05-01T09:55:58.747Z</time></trkpt><trkpt lat="44.2180517" lon="12.37547"><ele>-1.0</ele><time>2026-05-01T09:55:59.752Z</time></trkpt><trkpt lat="44.2179167" lon="12.3755833"><ele>-1.0</ele><time>2026-05-01T09:56:00.751Z</time></trkpt><trkpt lat="44.2177767" lon="12.3757017"><ele>-1.0</ele><time>2026-05-01T09:56:01.751Z</time></trkpt><trkpt lat="44.21764" lon="12.37582"><ele>-1.0</ele><time>2026-05-01T09:56:02.751Z</time></trkpt><trkpt lat="44.2175017" lon="12.3759417"><ele>-1.0</ele><time>2026-05-01T09:56:03.742Z</time></trkpt><trkpt lat="44.2173633" lon="12.3760633"><ele>-1.0</ele><time>2026-05-01T09:56:04.75Z</time></trkpt><trkpt lat="44.2172233" lon="12.376185"><ele>-1.0</ele><time>2026-05-01T09:56:05.755Z</time></trkpt><trkpt lat="44.21708" lon="12.376305"><ele>-1.0</ele><time>2026-05-01T09:56:06.751Z</time></trkpt><trkpt lat="44.216935" lon="12.376425"><ele>-1.0</ele><time>2026-05-01T09:56:07.751Z</time></trkpt><trkpt lat="44.2167867" lon="12.3765467"><ele>-1.0</ele><time>2026-05-01T09:56:08.742Z</time></trkpt><trkpt lat="44.2166417" lon="12.37667"><ele>-1.0</ele><time>2026-05-01T09:56:09.749Z</time></trkpt><trkpt lat="44.2164933" lon="12.3767933"><ele>-1.0</ele><time>2026-05-01T09:56:10.749Z</time></trkpt><trkpt lat="44.2163433" lon="12.37692"><ele>-1.0</ele><time>2026-05-01T09:56:11.751Z</time></trkpt><trkpt lat="44.2161917" lon="12.377045"><ele>-1.0</ele><time>2026-05-01T09:56:12.754Z</time></trkpt><trkpt lat="44.2160433" lon="12.37717"><ele>-1.0</ele><time>2026-05-01T09:56:13.75Z</time></trkpt><trkpt lat="44.215895" lon="12.3772967"><ele>-0.6666666666666666</ele><time>2026-05-01T09:56:14.744Z</time></trkpt><trkpt lat="44.2157467" lon="12.377425"><ele>-0.3333333333333333</ele><time>2026-05-01T09:56:15.755Z</time></trkpt><trkpt lat="44.2155983" lon="12.3775533"><ele>0.0</ele><time>2026-05-01T09:56:16.751Z</time></trkpt><trkpt lat="44.215445" lon="12.3776833"><ele>0.0</ele><time>2026-05-01T09:56:17.752Z</time></trkpt><trkpt lat="44.2152917" lon="12.3778083"><ele>0.0</ele><time>2026-05-01T09:56:18.752Z</time></trkpt><trkpt lat="44.2151367" lon="12.3779383"><ele>0.0</ele><time>2026-05-01T09:56:19.742Z</time></trkpt><trkpt lat="44.21498" lon="12.37807"><ele>-0.6666666666666666</ele><time>2026-05-01T09:56:20.761Z</time></trkpt><trkpt lat="44.2148183" lon="12.3782017"><ele>-1.3333333333333333</ele><time>2026-05-01T09:56:21.753Z</time></trkpt><trkpt lat="44.2146633" lon="12.3783333"><ele>-2.0</ele><time>2026-05-01T09:56:22.752Z</time></trkpt><trkpt lat="44.21451" lon="12.3784617"><ele>-2.0</ele><time>2026-05-01T09:56:23.75Z</time></trkpt><trkpt lat="44.2143617" lon="12.3785883"><ele>-2.0</ele><time>2026-05-01T09:56:24.749Z</time></trkpt><trkpt lat="44.214215" lon="12.3787167"><ele>-2.0</ele><time>2026-05-01T09:56:25.752Z</time></trkpt><trkpt lat="44.2140717" lon="12.3788417"><ele>-2.333333333333333</ele><time>2026-05-01T09:56:26.743Z</time></trkpt><trkpt lat="44.2139317" lon="12.3789633"><ele>-2.6666666666666665</ele><time>2026-05-01T09:56:27.751Z</time></trkpt><trkpt lat="44.213795" lon="12.3790833"><ele>-3.0</ele><time>2026-05-01T09:56:28.75Z</time></trkpt><trkpt lat="44.213665" lon="12.3791983"><ele>-3.0</ele><time>2026-05-01T09:56:29.754Z</time></trkpt><trkpt lat="44.21354" lon="12.3793133"><ele>-3.0</ele><time>2026-05-01T09:56:30.753Z</time></trkpt><trkpt lat="44.2134167" lon="12.3794317"><ele>-3.0</ele><time>2026-05-01T09:56:31.753Z</time></trkpt><trkpt lat="44.2132933" lon="12.3795517"><ele>-3.0</ele><time>2026-05-01T09:56:32.754Z</time></trkpt><trkpt lat="44.2131717" lon="12.379675"><ele>-3.0</ele><time>2026-05-01T09:56:33.75Z</time></trkpt><trkpt lat="44.2130483" lon="12.3798"><ele>-3.0</ele><time>2026-05-01T09:56:34.75Z</time></trkpt><trkpt lat="44.2129283" lon="12.3799233"><ele>-2.6666666666666665</ele><time>2026-05-01T09:56:35.75Z</time></trkpt><trkpt lat="44.2128083" lon="12.3800483"><ele>-2.333333333333333</ele><time>2026-05-01T09:56:36.753Z</time></trkpt><trkpt lat="44.212685" lon="12.3801733"><ele>-2.0</ele><time>2026-05-01T09:56:37.742Z</time></trkpt><trkpt lat="44.2125617" lon="12.3802967"><ele>-2.0</ele><time>2026-05-01T09:56:38.753Z</time></trkpt><trkpt lat="44.2124367" lon="12.3804233"><ele>-2.0</ele><time>2026-05-01T09:56:39.75Z</time></trkpt><trkpt lat="44.2123117" lon="12.380555"><ele>-2.0</ele><time>2026-05-01T09:56:40.75Z</time></trkpt><trkpt lat="44.212185" lon="12.38069"><ele>-2.0</ele><time>2026-05-01T09:56:41.751Z</time></trkpt><trkpt lat="44.2120567" lon="12.380825"><ele>-2.0</ele><time>2026-05-01T09:56:42.741Z</time></trkpt><trkpt lat="44.2119233" lon="12.38096"><ele>-2.0</ele><time>2026-05-01T09:56:43.753Z</time></trkpt><trkpt lat="44.2117883" lon="12.3810967"><ele>-2.0</ele><time>2026-05-01T09:56:44.749Z</time></trkpt><trkpt lat="44.2116533" lon="12.3812317"><ele>-2.0</ele><time>2026-05-01T09:56:45.752Z</time></trkpt><trkpt lat="44.211515" lon="12.3813667"><ele>-2.0</ele><time>2026-05-01T09:56:46.743Z</time></trkpt><trkpt lat="44.2113733" lon="12.3815083"><ele>-2.0</ele><time>2026-05-01T09:56:47.744Z</time></trkpt><trkpt lat="44.21123" lon="12.38165"><ele>-2.0</ele><time>2026-05-01T09:56:48.752Z</time></trkpt><trkpt lat="44.211085" lon="12.3817983"><ele>-2.0</ele><time>2026-05-01T09:56:49.753Z</time></trkpt><trkpt lat="44.2109367" lon="12.38195"><ele>-2.0</ele><time>2026-05-01T09:56:50.754Z</time></trkpt><trkpt lat="44.2107883" lon="12.3821067"><ele>-2.0</ele><time>2026-05-01T09:56:51.752Z</time></trkpt><trkpt lat="44.21064" lon="12.38226"><ele>-2.0</ele><time>2026-05-01T09:56:52.751Z</time></trkpt><trkpt lat="44.210495" lon="12.382405"><ele>-2.333333333333333</ele><time>2026-05-01T09:56:53.747Z</time></trkpt><trkpt lat="44.210355" lon="12.3825483"><ele>-2.6666666666666665</ele><time>2026-05-01T09:56:54.748Z</time></trkpt><trkpt lat="44.2102183" lon="12.38269"><ele>-3.0</ele><time>2026-05-01T09:56:55.746Z</time></trkpt><trkpt lat="44.2100767" lon="12.3828367"><ele>-3.0</ele><time>2026-05-01T09:56:56.751Z</time></trkpt><trkpt lat="44.2099317" lon="12.3829817"><ele>-3.0</ele><time>2026-05-01T09:56:57.752Z</time></trkpt><trkpt lat="44.20979" lon="12.3831267"><ele>-3.0</ele><time>2026-05-01T09:56:58.75Z</time></trkpt><trkpt lat="44.209645" lon="12.3832767"><ele>-2.3333333333333335</ele><time>2026-05-01T09:56:59.75Z</time></trkpt><trkpt lat="44.2095" lon="12.3834283"><ele>-1.6666666666666665</ele><time>2026-05-01T09:57:00.741Z</time></trkpt><trkpt lat="44.2093533" lon="12.3835833"><ele>-1.0</ele><time>2026-05-01T09:57:01.751Z</time></trkpt><trkpt lat="44.2092067" lon="12.3837367"><ele>-0.6666666666666666</ele><time>2026-05-01T09:57:02.743Z</time></trkpt><trkpt lat="44.20906" lon="12.3838883"><ele>-0.3333333333333333</ele><time>2026-05-01T09:57:03.742Z</time></trkpt><trkpt lat="44.2089133" lon="12.3840417"><ele>0.0</ele><time>2026-05-01T09:57:04.753Z</time></trkpt><trkpt lat="44.2087667" lon="12.3841917"><ele>0.3333333333333333</ele><time>2026-05-01T09:57:05.752Z</time></trkpt><trkpt lat="44.208625" lon="12.3843383"><ele>0.6666666666666666</ele><time>2026-05-01T09:57:06.75Z</time></trkpt><trkpt lat="44.2084833" lon="12.384485"><ele>1.0</ele><time>2026-05-01T09:57:07.754Z</time></trkpt><trkpt lat="44.2083383" lon="12.3846317"><ele>1.0</ele><time>2026-05-01T09:57:08.752Z</time></trkpt><trkpt lat="44.2081933" lon="12.384775"><ele>1.0</ele><time>2026-05-01T09:57:09.744Z</time></trkpt><trkpt lat="44.2080467" lon="12.38492"><ele>1.0</ele><time>2026-05-01T09:57:10.754Z</time></trkpt><trkpt lat="44.2079" lon="12.385065"><ele>0.3333333333333333</ele><time>2026-05-01T09:57:11.748Z</time></trkpt><trkpt lat="44.2077533" lon="12.3852133"><ele>-0.3333333333333333</ele><time>2026-05-01T09:57:12.753Z</time></trkpt><trkpt lat="44.207605" lon="12.385365"><ele>-1.0</ele><time>2026-05-01T09:57:13.756Z</time></trkpt><trkpt lat="44.207455" lon="12.38552"><ele>-1.0</ele><time>2026-05-01T09:57:14.751Z</time></trkpt><trkpt lat="44.2073017" lon="12.3856767"><ele>-1.0</ele><time>2026-05-01T09:57:15.751Z</time></trkpt><trkpt lat="44.2071467" lon="12.385835"><ele>-1.0</ele><time>2026-05-01T09:57:16.746Z</time></trkpt><trkpt lat="44.20699" lon="12.3859933"><ele>-1.0</ele><time>2026-05-01T09:57:17.764Z</time></trkpt><trkpt lat="44.20683" lon="12.38615"><ele>-1.0</ele><time>2026-05-01T09:57:18.753Z</time></trkpt><trkpt lat="44.2066667" lon="12.3863083"><ele>-1.0</ele><time>2026-05-01T09:57:19.75Z</time></trkpt><trkpt lat="44.2065" lon="12.3864633"><ele>-1.6666666666666665</ele><time>2026-05-01T09:57:20.752Z</time></trkpt><trkpt lat="44.20633" lon="12.3866167"><ele>-2.3333333333333335</ele><time>2026-05-01T09:57:21.75Z</time></trkpt><trkpt lat="44.2061567" lon="12.3867633"><ele>-3.0</ele><time>2026-05-01T09:57:22.751Z</time></trkpt><trkpt lat="44.2059817" lon="12.3869033"><ele>-3.0</ele><time>2026-05-01T09:57:23.751Z</time></trkpt><trkpt lat="44.2058033" lon="12.38704"><ele>-3.0</ele><time>2026-05-01T09:57:24.754Z</time></trkpt><trkpt lat="44.2056267" lon="12.387165"><ele>-3.0</ele><time>2026-05-01T09:57:25.754Z</time></trkpt><trkpt lat="44.2054533" lon="12.3872783"><ele>-3.333333333333333</ele><time>2026-05-01T09:57:26.755Z</time></trkpt><trkpt lat="44.2052767" lon="12.387385"><ele>-3.6666666666666665</ele><time>2026-05-01T09:57:27.748Z</time></trkpt><trkpt lat="44.2051017" lon="12.3874867"><ele>-4.0</ele><time>2026-05-01T09:57:28.748Z</time></trkpt><trkpt lat="44.2049217" lon="12.3875833"><ele>-3.333333333333333</ele><time>2026-05-01T09:57:29.75Z</time></trkpt><trkpt lat="44.20474" lon="12.3876767"><ele>-2.6666666666666665</ele><time>2026-05-01T09:57:30.758Z</time></trkpt><trkpt lat="44.2045567" lon="12.38776"><ele>-2.0</ele><time>2026-05-01T09:57:31.759Z</time></trkpt><trkpt lat="44.2043717" lon="12.3878333"><ele>-2.0</ele><time>2026-05-01T09:57:32.759Z</time></trkpt><trkpt lat="44.2041917" lon="12.3878967"><ele>-2.0</ele><time>2026-05-01T09:57:33.753Z</time></trkpt><trkpt lat="44.2040117" lon="12.3879567"><ele>-2.0</ele><time>2026-05-01T09:57:34.745Z</time></trkpt><trkpt lat="44.2038317" lon="12.3880133"><ele>-1.6666666666666665</ele><time>2026-05-01T09:57:35.756Z</time></trkpt><trkpt lat="44.203655" lon="12.3880683"><ele>-1.3333333333333333</ele><time>2026-05-01T09:57:36.753Z</time></trkpt><trkpt lat="44.2034783" lon="12.38812"><ele>-1.0</ele><time>2026-05-01T09:57:37.752Z</time></trkpt><trkpt lat="44.2033083" lon="12.3881667"><ele>-0.6666666666666666</ele><time>2026-05-01T09:57:38.752Z</time></trkpt><trkpt lat="44.2031467" lon="12.3882067"><ele>-0.3333333333333333</ele><time>2026-05-01T09:57:39.751Z</time></trkpt><trkpt lat="44.20299" lon="12.3882467"><ele>0.0</ele><time>2026-05-01T09:57:40.751Z</time></trkpt><trkpt lat="44.20284" lon="12.3882867"><ele>0.0</ele><time>2026-05-01T09:57:41.743Z</time></trkpt><trkpt lat="44.2026967" lon="12.3883233"><ele>0.0</ele><time>2026-05-01T09:57:42.753Z</time></trkpt><trkpt lat="44.20256" lon="12.3883583"><ele>0.0</ele><time>2026-05-01T09:57:43.749Z</time></trkpt><trkpt lat="44.20243" lon="12.3883917"><ele>0.0</ele><time>2026-05-01T09:57:44.752Z</time></trkpt><trkpt lat="44.2023017" lon="12.3884267"><ele>0.5</ele><time>2026-05-01T09:57:45.752Z</time></trkpt><trkpt lat="44.2021717" lon="12.38846"><ele>1.0</ele><time>2026-05-01T09:57:46.752Z</time></trkpt><trkpt lat="44.2020383" lon="12.3884967"><ele>1.5</ele><time>2026-05-01T09:57:47.748Z</time></trkpt><trkpt lat="44.2019" lon="12.388535"><ele>2.0</ele><time>2026-05-01T09:57:48.751Z</time></trkpt><trkpt lat="44.20177" lon="12.3885767"><ele>2.0</ele><time>2026-05-01T09:57:49.75Z</time></trkpt><trkpt lat="44.2016417" lon="12.38862"><ele>2.0</ele><time>2026-05-01T09:57:50.751Z</time></trkpt><trkpt lat="44.2015167" lon="12.3886583"><ele>2.0</ele><time>2026-05-01T09:57:51.749Z</time></trkpt><trkpt lat="44.2013967" lon="12.3886967"><ele>2.0</ele><time>2026-05-01T09:57:52.741Z</time></trkpt><trkpt lat="44.20128" lon="12.3887333"><ele>1.25</ele><time>2026-05-01T09:57:53.754Z</time></trkpt><trkpt lat="44.2011617" lon="12.3887667"><ele>0.5</ele><time>2026-05-01T09:57:54.752Z</time></trkpt><trkpt lat="44.20105" lon="12.3888017"><ele>-0.25</ele><time>2026-05-01T09:57:55.753Z</time></trkpt><trkpt lat="44.2009433" lon="12.3888333"><ele>-1.0</ele><time>2026-05-01T09:57:56.757Z</time></trkpt><trkpt lat="44.2008383" lon="12.3888617"><ele>-1.25</ele><time>2026-05-01T09:57:57.754Z</time></trkpt><trkpt lat="44.2007317" lon="12.3888883"><ele>-1.5</ele><time>2026-05-01T09:57:58.752Z</time></trkpt><trkpt lat="44.20062" lon="12.3889167"><ele>-1.75</ele><time>2026-05-01T09:57:59.753Z</time></trkpt><trkpt lat="44.2005083" lon="12.388945"><ele>-2.0</ele><time>2026-05-01T09:58:00.754Z</time></trkpt><trkpt lat="44.200395" lon="12.388975"><ele>-2.5</ele><time>2026-05-01T09:58:01.754Z</time></trkpt><trkpt lat="44.2002783" lon="12.389005"><ele>-3.0</ele><time>2026-05-01T09:58:02.755Z</time></trkpt><trkpt lat="44.2001567" lon="12.3890383"><ele>-3.5</ele><time>2026-05-01T09:58:03.749Z</time></trkpt><trkpt lat="44.2000333" lon="12.3890717"><ele>-4.0</ele><time>2026-05-01T09:58:04.749Z</time></trkpt><trkpt lat="44.19991" lon="12.3891133"><ele>-3.75</ele><time>2026-05-01T09:58:05.75Z</time></trkpt><trkpt lat="44.19979" lon="12.3891567"><ele>-3.5</ele><time>2026-05-01T09:58:06.752Z</time></trkpt><trkpt lat="44.1996683" lon="12.3892033"><ele>-3.25</ele><time>2026-05-01T09:58:07.749Z</time></trkpt><trkpt lat="44.1995467" lon="12.3892533"><ele>-3.0</ele><time>2026-05-01T09:58:08.751Z</time></trkpt><trkpt lat="44.1994233" lon="12.38931"><ele>-3.0</ele><time>2026-05-01T09:58:09.744Z</time></trkpt><trkpt lat="44.1993" lon="12.38937"><ele>-3.0</ele><time>2026-05-01T09:58:10.754Z</time></trkpt><trkpt lat="44.199175" lon="12.3894333"><ele>-3.0</ele><time>2026-05-01T09:58:11.75Z</time></trkpt><trkpt lat="44.19905" lon="12.389505"><ele>-3.0</ele><time>2026-05-01T09:58:12.747Z</time></trkpt><trkpt lat="44.1989233" lon="12.3895817"><ele>-2.0</ele><time>2026-05-01T09:58:13.749Z</time></trkpt><trkpt lat="44.1988" lon="12.3896617"><ele>-1.0</ele><time>2026-05-01T09:58:14.749Z</time></trkpt><trkpt lat="44.1986767" lon="12.3897433"><ele>0.0</ele><time>2026-05-01T09:58:15.75Z</time></trkpt><trkpt lat="44.1985533" lon="12.3898317"><ele>1.0</ele><time>2026-05-01T09:58:16.75Z</time></trkpt><trkpt lat="44.1984317" lon="12.389925"><ele>1.0</ele><time>2026-05-01T09:58:17.742Z</time></trkpt><trkpt lat="44.1983117" lon="12.3900283"><ele>1.0</ele><time>2026-05-01T09:58:18.753Z</time></trkpt><trkpt lat="44.1981917" lon="12.3901383"><ele>1.0</ele><time>2026-05-01T09:58:19.751Z</time></trkpt><trkpt lat="44.198075" lon="12.3902533"><ele>1.0</ele><time>2026-05-01T09:58:20.753Z</time></trkpt><trkpt lat="44.1979583" lon="12.3903717"><ele>1.0</ele><time>2026-05-01T09:58:21.752Z</time></trkpt><trkpt lat="44.1978417" lon="12.3904967"><ele>1.0</ele><time>2026-05-01T09:58:22.752Z</time></trkpt><trkpt lat="44.197725" lon="12.3906283"><ele>1.0</ele><time>2026-05-01T09:58:23.743Z</time></trkpt><trkpt lat="44.1976117" lon="12.3907683"><ele>1.0</ele><time>2026-05-01T09:58:24.753Z</time></trkpt><trkpt lat="44.197495" lon="12.3909117"><ele>0.6666666666666666</ele><time>2026-05-01T09:58:25.747Z</time></trkpt><trkpt lat="44.1973767" lon="12.391065"><ele>0.3333333333333333</ele><time>2026-05-01T09:58:26.751Z</time></trkpt><trkpt lat="44.19726" lon="12.3912267"><ele>0.0</ele><time>2026-05-01T09:58:27.751Z</time></trkpt><trkpt lat="44.1971417" lon="12.3914"><ele>0.0</ele><time>2026-05-01T09:58:28.742Z</time></trkpt><trkpt lat="44.1970233" lon="12.3915833"><ele>0.0</ele><time>2026-05-01T09:58:29.748Z</time></trkpt><trkpt lat="44.196905" lon="12.3917667"><ele>0.0</ele><time>2026-05-01T09:58:30.753Z</time></trkpt><trkpt lat="44.196785" lon="12.3919533"><ele>0.0</ele><time>2026-05-01T09:58:31.751Z</time></trkpt><trkpt lat="44.1966667" lon="12.39214"><ele>0.0</ele><time>2026-05-01T09:58:32.751Z</time></trkpt><trkpt lat="44.1965533" lon="12.39232"><ele>0.0</ele><time>2026-05-01T09:58:33.75Z</time></trkpt><trkpt lat="44.1964417" lon="12.3924933"><ele>-0.3333333333333333</ele><time>2026-05-01T09:58:34.75Z</time></trkpt><trkpt lat="44.1963333" lon="12.3926583"><ele>-0.6666666666666666</ele><time>2026-05-01T09:58:35.741Z</time></trkpt><trkpt lat="44.19623" lon="12.3928167"><ele>-1.0</ele><time>2026-05-01T09:58:36.748Z</time></trkpt><trkpt lat="44.19613" lon="12.3929767"><ele>-1.3333333333333333</ele><time>2026-05-01T09:58:37.746Z</time></trkpt><trkpt lat="44.1960333" lon="12.393145"><ele>-1.6666666666666665</ele><time>2026-05-01T09:58:38.749Z</time></trkpt><trkpt lat="44.19593" lon="12.3933283"><ele>-2.0</ele><time>2026-05-01T09:58:39.749Z</time></trkpt><trkpt lat="44.19582" lon="12.3935167"><ele>-2.0</ele><time>2026-05-01T09:58:40.749Z</time></trkpt><trkpt lat="44.1957033" lon="12.3937067"><ele>-2.0</ele><time>2026-05-01T09:58:41.742Z</time></trkpt><trkpt lat="44.1955783" lon="12.3938967"><ele>-2.0</ele><time>2026-05-01T09:58:42.751Z</time></trkpt><trkpt lat="44.1954533" lon="12.3940917"><ele>-1.3333333333333333</ele><time>2026-05-01T09:58:43.752Z</time></trkpt><trkpt lat="44.19533" lon="12.39429"><ele>-0.6666666666666666</ele><time>2026-05-01T09:58:44.75Z</time></trkpt><trkpt lat="44.1952067" lon="12.39449"><ele>0.0</ele><time>2026-05-01T09:58:45.755Z</time></trkpt><trkpt lat="44.19508" lon="12.3946933"><ele>0.0</ele><time>2026-05-01T09:58:46.744Z</time></trkpt><trkpt lat="44.1949533" lon="12.3948933"><ele>0.0</ele><time>2026-05-01T09:58:47.754Z</time></trkpt><trkpt lat="44.1948283" lon="12.3950967"><ele>0.0</ele><time>2026-05-01T09:58:48.754Z</time></trkpt><trkpt lat="44.1947033" lon="12.3952967"><ele>0.0</ele><time>2026-05-01T09:58:49.753Z</time></trkpt><trkpt lat="44.1945783" lon="12.395495"><ele>0.0</ele><time>2026-05-01T09:58:50.753Z</time></trkpt><trkpt lat="44.194455" lon="12.39569"><ele>0.0</ele><time>2026-05-01T09:58:51.753Z</time></trkpt><trkpt lat="44.1943317" lon="12.3958833"><ele>0.0</ele><time>2026-05-01T09:58:52.751Z</time></trkpt><trkpt lat="44.1942167" lon="12.3960667"><ele>0.0</ele><time>2026-05-01T09:58:53.751Z</time></trkpt><trkpt lat="44.1941067" lon="12.3962433"><ele>0.0</ele><time>2026-05-01T09:58:54.748Z</time></trkpt><trkpt lat="44.1940017" lon="12.396415"><ele>0.25</ele><time>2026-05-01T09:58:55.75Z</time></trkpt><trkpt lat="44.1939" lon="12.3965783"><ele>0.5</ele><time>2026-05-01T09:58:56.751Z</time></trkpt><trkpt lat="44.1938033" lon="12.396735"><ele>0.75</ele><time>2026-05-01T09:58:57.753Z</time></trkpt><trkpt lat="44.1937117" lon="12.396885"><ele>1.0</ele><time>2026-05-01T09:58:58.749Z</time></trkpt><trkpt lat="44.19362" lon="12.3970317"><ele>0.75</ele><time>2026-05-01T09:58:59.749Z</time></trkpt><trkpt lat="44.1935283" lon="12.3971783"><ele>0.5</ele><time>2026-05-01T09:59:00.75Z</time></trkpt><trkpt lat="44.1934367" lon="12.3973283"><ele>0.25</ele><time>2026-05-01T09:59:01.754Z</time></trkpt><trkpt lat="44.193345" lon="12.3974783"><ele>0.0</ele><time>2026-05-01T09:59:02.75Z</time></trkpt><trkpt lat="44.19325" lon="12.3976317"><ele>1.0</ele><time>2026-05-01T09:59:03.751Z</time></trkpt><trkpt lat="44.1931533" lon="12.3977917"><ele>2.0</ele><time>2026-05-01T09:59:04.75Z</time></trkpt><trkpt lat="44.19305" lon="12.397955"><ele>3.0</ele><time>2026-05-01T09:59:05.749Z</time></trkpt><trkpt lat="44.1929483" lon="12.3981167"><ele>3.0</ele><time>2026-05-01T09:59:06.746Z</time></trkpt><trkpt lat="44.1928467" lon="12.3982817"><ele>3.0</ele><time>2026-05-01T09:59:07.743Z</time></trkpt><trkpt lat="44.19274" lon="12.398455"><ele>3.0</ele><time>2026-05-01T09:59:08.753Z</time></trkpt><trkpt lat="44.19263" lon="12.3986267"><ele>3.0</ele><time>2026-05-01T09:59:09.748Z</time></trkpt><trkpt lat="44.1925167" lon="12.3988033"><ele>3.0</ele><time>2026-05-01T09:59:10.755Z</time></trkpt><trkpt lat="44.1924033" lon="12.3989833"><ele>3.0</ele><time>2026-05-01T09:59:11.752Z</time></trkpt><trkpt lat="44.19229" lon="12.3991667"><ele>2.3333333333333335</ele><time>2026-05-01T09:59:12.741Z</time></trkpt><trkpt lat="44.1921717" lon="12.3993517"><ele>1.6666666666666665</ele><time>2026-05-01T09:59:13.76Z</time></trkpt><trkpt lat="44.1920517" lon="12.3995367"><ele>1.0</ele><time>2026-05-01T09:59:14.756Z</time></trkpt><trkpt lat="44.1919317" lon="12.399725"><ele>0.6666666666666666</ele><time>2026-05-01T09:59:15.749Z</time></trkpt><trkpt lat="44.19181" lon="12.39992"><ele>0.3333333333333333</ele><time>2026-05-01T09:59:16.748Z</time></trkpt><trkpt lat="44.1916917" lon="12.40011"><ele>0.0</ele><time>2026-05-01T09:59:17.752Z</time></trkpt><trkpt lat="44.19158" lon="12.4003117"><ele>0.0</ele><time>2026-05-01T09:59:18.751Z</time></trkpt><trkpt lat="44.1914517" lon="12.4005067"><ele>0.0</ele><time>2026-05-01T09:59:19.752Z</time></trkpt><trkpt lat="44.1913267" lon="12.4007083"><ele>0.0</ele><time>2026-05-01T09:59:20.749Z</time></trkpt><trkpt lat="44.191205" lon="12.4008983"><ele>0.0</ele><time>2026-05-01T09:59:21.749Z</time></trkpt><trkpt lat="44.1910967" lon="12.401075"><ele>0.0</ele><time>2026-05-01T09:59:22.749Z</time></trkpt><trkpt lat="44.19099" lon="12.4012467"><ele>0.0</ele><time>2026-05-01T09:59:23.753Z</time></trkpt><trkpt lat="44.1908883" lon="12.4014117"><ele>0.25</ele><time>2026-05-01T09:59:24.751Z</time></trkpt><trkpt lat="44.1907917" lon="12.4015683"><ele>0.5</ele><time>2026-05-01T09:59:25.748Z</time></trkpt><trkpt lat="44.1906933" lon="12.4017233"><ele>0.75</ele><time>2026-05-01T09:59:26.749Z</time></trkpt><trkpt lat="44.1906" lon="12.40189"><ele>1.0</ele><time>2026-05-01T09:59:27.751Z</time></trkpt><trkpt lat="44.1904983" lon="12.402055"><ele>1.0</ele><time>2026-05-01T09:59:28.749Z</time></trkpt><trkpt lat="44.1903917" lon="12.4022167"><ele>1.0</ele><time>2026-05-01T09:59:29.756Z</time></trkpt><trkpt lat="44.1902883" lon="12.40239"><ele>1.0</ele><time>2026-05-01T09:59:30.753Z</time></trkpt><trkpt lat="44.1901833" lon="12.402565"><ele>1.0</ele><time>2026-05-01T09:59:31.752Z</time></trkpt><trkpt lat="44.19008" lon="12.40274"><ele>1.0</ele><time>2026-05-01T09:59:32.759Z</time></trkpt><trkpt lat="44.189975" lon="12.4029183"><ele>1.0</ele><time>2026-05-01T09:59:33.751Z</time></trkpt><trkpt lat="44.1898733" lon="12.40309"><ele>1.25</ele><time>2026-05-01T09:59:34.747Z</time></trkpt><trkpt lat="44.1897667" lon="12.4032517"><ele>1.5</ele><time>2026-05-01T09:59:35.743Z</time></trkpt><trkpt lat="44.1896717" lon="12.4033933"><ele>1.75</ele><time>2026-05-01T09:59:36.744Z</time></trkpt><trkpt lat="44.1895783" lon="12.403545"><ele>2.0</ele><time>2026-05-01T09:59:37.751Z</time></trkpt><trkpt lat="44.1894867" lon="12.4037033"><ele>2.0</ele><time>2026-05-01T09:59:38.751Z</time></trkpt><trkpt lat="44.1893933" lon="12.4038683"><ele>2.0</ele><time>2026-05-01T09:59:39.756Z</time></trkpt><trkpt lat="44.189295" lon="12.4040417"><ele>2.0</ele><time>2026-05-01T09:59:40.754Z</time></trkpt><trkpt lat="44.1891883" lon="12.4042133"><ele>2.0</ele><time>2026-05-01T09:59:41.744Z</time></trkpt><trkpt lat="44.1890717" lon="12.4043917"><ele>2.0</ele><time>2026-05-01T09:59:42.75Z</time></trkpt><trkpt lat="44.1889517" lon="12.4045817"><ele>2.0</ele><time>2026-05-01T09:59:43.744Z</time></trkpt><trkpt lat="44.1888283" lon="12.4047817"><ele>2.0</ele><time>2026-05-01T09:59:44.742Z</time></trkpt><trkpt lat="44.188695" lon="12.4049833"><ele>2.0</ele><time>2026-05-01T09:59:45.748Z</time></trkpt><trkpt lat="44.1885583" lon="12.4051867"><ele>2.0</ele><time>2026-05-01T09:59:46.747Z</time></trkpt><trkpt lat="44.1884183" lon="12.4053917"><ele>2.0</ele><time>2026-05-01T09:59:47.742Z</time></trkpt><trkpt lat="44.1882783" lon="12.4056017"><ele>2.0</ele><time>2026-05-01T09:59:48.753Z</time></trkpt><trkpt lat="44.188135" lon="12.4058167"><ele>2.0</ele><time>2026-05-01T09:59:49.752Z</time></trkpt><trkpt lat="44.1879917" lon="12.40603"><ele>2.0</ele><time>2026-05-01T09:59:50.743Z</time></trkpt><trkpt lat="44.1878383" lon="12.4062417"><ele>2.0</ele><time>2026-05-01T09:59:51.755Z</time></trkpt><trkpt lat="44.1876817" lon="12.4064483"><ele>2.0</ele><time>2026-05-01T09:59:52.745Z</time></trkpt><trkpt lat="44.1875167" lon="12.4066533"><ele>2.0</ele><time>2026-05-01T09:59:53.743Z</time></trkpt><trkpt lat="44.1873483" lon="12.406855"><ele>2.0</ele><time>2026-05-01T09:59:54.749Z</time></trkpt><trkpt lat="44.1871733" lon="12.40706"><ele>2.0</ele><time>2026-05-01T09:59:55.751Z</time></trkpt><trkpt lat="44.1869933" lon="12.4072667"><ele>2.0</ele><time>2026-05-01T09:59:56.752Z</time></trkpt><trkpt lat="44.1868083" lon="12.4074683"><ele>2.0</ele><time>2026-05-01T09:59:57.754Z</time></trkpt><trkpt lat="44.18662" lon="12.4076683"><ele>2.0</ele><time>2026-05-01T09:59:58.752Z</time></trkpt><trkpt lat="44.1864317" lon="12.4078633"><ele>1.0</ele><time>2026-05-01T09:59:59.747Z</time></trkpt><trkpt lat="44.18624" lon="12.4080583"><ele>0.0</ele><time>2026-05-01T10:00:00.744Z</time></trkpt><trkpt lat="44.1860417" lon="12.4082433"><ele>0.0</ele><time>2026-05-01T10:00:01.745Z</time></trkpt><trkpt lat="44.1858383" lon="12.408425"><ele>0.0</ele><time>2026-05-01T10:00:02.75Z</time></trkpt><trkpt lat="44.18563" lon="12.408595"><ele>-1.0</ele><time>2026-05-01T10:00:03.747Z</time></trkpt><trkpt lat="44.1854167" lon="12.4087583"><ele>-2.0</ele><time>2026-05-01T10:00:04.751Z</time></trkpt><trkpt lat="44.1852017" lon="12.4089117"><ele>-2.0</ele><time>2026-05-01T10:00:05.759Z</time></trkpt><trkpt lat="44.1849833" lon="12.4090617"><ele>-2.0</ele><time>2026-05-01T10:00:06.747Z</time></trkpt><trkpt lat="44.184765" lon="12.40921"><ele>-2.0</ele><time>2026-05-01T10:00:07.743Z</time></trkpt><trkpt lat="44.1845467" lon="12.40936"><ele>-2.0</ele><time>2026-05-01T10:00:08.744Z</time></trkpt><trkpt lat="44.1843317" lon="12.4095083"><ele>-1.5</ele><time>2026-05-01T10:00:09.751Z</time></trkpt><trkpt lat="44.1841117" lon="12.40966"><ele>-1.0</ele><time>2026-05-01T10:00:10.75Z</time></trkpt><trkpt lat="44.183885" lon="12.40981"><ele>-1.0</ele><time>2026-05-01T10:00:11.756Z</time></trkpt><trkpt lat="44.1836617" lon="12.40996"><ele>-1.0</ele><time>2026-05-01T10:00:12.754Z</time></trkpt><trkpt lat="44.18344" lon="12.4101033"><ele>-1.0</ele><time>2026-05-01T10:00:13.753Z</time></trkpt><trkpt lat="44.18322" lon="12.4102517"><ele>-1.0</ele><time>2026-05-01T10:00:14.753Z</time></trkpt><trkpt lat="44.1830017" lon="12.4104"><ele>-1.5</ele><time>2026-05-01T10:00:15.75Z</time></trkpt><trkpt lat="44.1827833" lon="12.4105517"><ele>-2.0</ele><time>2026-05-01T10:00:16.749Z</time></trkpt><trkpt lat="44.1825633" lon="12.4106967"><ele>-2.0</ele><time>2026-05-01T10:00:17.751Z</time></trkpt><trkpt lat="44.1823433" lon="12.4108417"><ele>-2.0</ele><time>2026-05-01T10:00:18.754Z</time></trkpt><trkpt lat="44.1821233" lon="12.4109867"><ele>-2.0</ele><time>2026-05-01T10:00:19.744Z</time></trkpt><trkpt lat="44.1819033" lon="12.4111317"><ele>-2.0</ele><time>2026-05-01T10:00:20.744Z</time></trkpt><trkpt lat="44.1816833" lon="12.4112767"><ele>-1.5</ele><time>2026-05-01T10:00:21.743Z</time></trkpt><trkpt lat="44.1814633" lon="12.4114217"><ele>-1.0</ele><time>2026-05-01T10:00:22.743Z</time></trkpt><trkpt lat="44.1812417" lon="12.4115683"><ele>-1.0</ele><time>2026-05-01T10:00:23.743Z</time></trkpt><trkpt lat="44.1810217" lon="12.41172"><ele>-1.0</ele><time>2026-05-01T10:00:24.746Z</time></trkpt><trkpt lat="44.1807983" lon="12.4118667"><ele>-2.0</ele><time>2026-05-01T10:00:25.743Z</time></trkpt><trkpt lat="44.1805783" lon="12.4120117"><ele>-3.0</ele><time>2026-05-01T10:00:26.747Z</time></trkpt><trkpt lat="44.1803533" lon="12.412155"><ele>-2.5</ele><time>2026-05-01T10:00:27.745Z</time></trkpt><trkpt lat="44.1801267" lon="12.4123"><ele>-2.0</ele><time>2026-05-01T10:00:28.745Z</time></trkpt><trkpt lat="44.1799033" lon="12.4124517"><ele>-2.0</ele><time>2026-05-01T10:00:29.745Z</time></trkpt><trkpt lat="44.1796783" lon="12.4126017"><ele>-2.0</ele><time>2026-05-01T10:00:30.746Z</time></trkpt><trkpt lat="44.1794583" lon="12.41275"><ele>-2.0</ele><time>2026-05-01T10:00:31.745Z</time></trkpt><trkpt lat="44.179235" lon="12.4128983"><ele>-2.0</ele><time>2026-05-01T10:00:32.743Z</time></trkpt><trkpt lat="44.1790117" lon="12.4130467"><ele>-1.0</ele><time>2026-05-01T10:00:33.743Z</time></trkpt><trkpt lat="44.1787867" lon="12.4132017"><ele>0.0</ele><time>2026-05-01T10:00:34.742Z</time></trkpt><trkpt lat="44.17856" lon="12.4133617"><ele>0.0</ele><time>2026-05-01T10:00:35.743Z</time></trkpt><trkpt lat="44.1783317" lon="12.4135267"><ele>0.0</ele><time>2026-05-01T10:00:36.744Z</time></trkpt><trkpt lat="44.1781033" lon="12.413695"><ele>0.0</ele><time>2026-05-01T10:00:37.743Z</time></trkpt><trkpt lat="44.17788" lon="12.4138717"><ele>0.0</ele><time>2026-05-01T10:00:38.744Z</time></trkpt><trkpt lat="44.1776583" lon="12.414055"><ele>0.0</ele><time>2026-05-01T10:00:39.75Z</time></trkpt><trkpt lat="44.1774383" lon="12.4142433"><ele>0.0</ele><time>2026-05-01T10:00:40.75Z</time></trkpt><trkpt lat="44.17722" lon="12.4144367"><ele>0.0</ele><time>2026-05-01T10:00:41.75Z</time></trkpt><trkpt lat="44.177005" lon="12.4146333"><ele>0.0</ele><time>2026-05-01T10:00:42.751Z</time></trkpt><trkpt lat="44.1767883" lon="12.4148383"><ele>-0.5</ele><time>2026-05-01T10:00:43.754Z</time></trkpt><trkpt lat="44.1765733" lon="12.415045"><ele>-1.0</ele><time>2026-05-01T10:00:44.757Z</time></trkpt><trkpt lat="44.1763617" lon="12.415255"><ele>-1.0</ele><time>2026-05-01T10:00:45.756Z</time></trkpt><trkpt lat="44.17615" lon="12.4154733"><ele>-1.0</ele><time>2026-05-01T10:00:46.751Z</time></trkpt><trkpt lat="44.17594" lon="12.4156883"><ele>-1.0</ele><time>2026-05-01T10:00:47.751Z</time></trkpt><trkpt lat="44.17573" lon="12.4159067"><ele>-1.0</ele><time>2026-05-01T10:00:48.751Z</time></trkpt><trkpt lat="44.1755217" lon="12.416125"><ele>-2.0</ele><time>2026-05-01T10:00:49.752Z</time></trkpt><trkpt lat="44.1753167" lon="12.4163467"><ele>-3.0</ele><time>2026-05-01T10:00:50.744Z</time></trkpt><trkpt lat="44.1751117" lon="12.4165667"><ele>-3.0</ele><time>2026-05-01T10:00:51.753Z</time></trkpt><trkpt lat="44.1749083" lon="12.4167867"><ele>-3.0</ele><time>2026-05-01T10:00:52.751Z</time></trkpt><trkpt lat="44.174705" lon="12.4170017"><ele>-3.5</ele><time>2026-05-01T10:00:53.755Z</time></trkpt><trkpt lat="44.1745033" lon="12.417215"><ele>-4.0</ele><time>2026-05-01T10:00:54.751Z</time></trkpt><trkpt lat="44.1743067" lon="12.4174333"><ele>-4.0</ele><time>2026-05-01T10:00:55.76Z</time></trkpt><trkpt lat="44.1741067" lon="12.4176533"><ele>-4.0</ele><time>2026-05-01T10:00:56.755Z</time></trkpt><trkpt lat="44.1739017" lon="12.41787"><ele>-2.5</ele><time>2026-05-01T10:00:57.742Z</time></trkpt><trkpt lat="44.1736983" lon="12.4180867"><ele>-1.0</ele><time>2026-05-01T10:00:58.743Z</time></trkpt><trkpt lat="44.1734933" lon="12.4182983"><ele>-1.0</ele><time>2026-05-01T10:00:59.753Z</time></trkpt><trkpt lat="44.1732917" lon="12.4185067"><ele>-1.0</ele><time>2026-05-01T10:01:00.754Z</time></trkpt><trkpt lat="44.17309" lon="12.41872"><ele>-0.5</ele><time>2026-05-01T10:01:01.748Z</time></trkpt><trkpt lat="44.1728883" lon="12.41893"><ele>0.0</ele><time>2026-05-01T10:01:02.753Z</time></trkpt><trkpt lat="44.1726883" lon="12.4191367"><ele>0.0</ele><time>2026-05-01T10:01:03.75Z</time></trkpt><trkpt lat="44.1724867" lon="12.4193483"><ele>0.0</ele><time>2026-05-01T10:01:04.75Z</time></trkpt><trkpt lat="44.1722883" lon="12.4195583"><ele>-0.5</ele><time>2026-05-01T10:01:05.749Z</time></trkpt><trkpt lat="44.1720917" lon="12.41977"><ele>-1.0</ele><time>2026-05-01T10:01:06.752Z</time></trkpt><trkpt lat="44.1718967" lon="12.41998"><ele>-1.0</ele><time>2026-05-01T10:01:07.752Z</time></trkpt><trkpt lat="44.1717" lon="12.4201917"><ele>-1.0</ele><time>2026-05-01T10:01:08.753Z</time></trkpt><trkpt lat="44.1715017" lon="12.4204017"><ele>-1.0</ele><time>2026-05-01T10:01:09.749Z</time></trkpt><trkpt lat="44.171305" lon="12.4206133"><ele>-1.0</ele><time>2026-05-01T10:01:10.744Z</time></trkpt><trkpt lat="44.171105" lon="12.4208233"><ele>-1.0</ele><time>2026-05-01T10:01:11.757Z</time></trkpt><trkpt lat="44.1709083" lon="12.4210317"><ele>-1.0</ele><time>2026-05-01T10:01:12.75Z</time></trkpt><trkpt lat="44.1707117" lon="12.4212383"><ele>-1.0</ele><time>2026-05-01T10:01:13.753Z</time></trkpt><trkpt lat="44.170515" lon="12.4214433"><ele>-1.0</ele><time>2026-05-01T10:01:14.749Z</time></trkpt><trkpt lat="44.1703233" lon="12.42165"><ele>-1.0</ele><time>2026-05-01T10:01:15.75Z</time></trkpt><trkpt lat="44.17013" lon="12.421855"><ele>-1.0</ele><time>2026-05-01T10:01:16.75Z</time></trkpt><trkpt lat="44.169935" lon="12.4220617"><ele>0.0</ele><time>2026-05-01T10:01:17.743Z</time></trkpt><trkpt lat="44.1697433" lon="12.4222683"><ele>1.0</ele><time>2026-05-01T10:01:18.751Z</time></trkpt><trkpt lat="44.1695517" lon="12.42247"><ele>1.0</ele><time>2026-05-01T10:01:19.762Z</time></trkpt><trkpt lat="44.1693583" lon="12.4226733"><ele>1.0</ele><time>2026-05-01T10:01:20.746Z</time></trkpt><trkpt lat="44.1691683" lon="12.4228783"><ele>1.5</ele><time>2026-05-01T10:01:21.742Z</time></trkpt><trkpt lat="44.1689783" lon="12.42308"><ele>2.0</ele><time>2026-05-01T10:01:22.751Z</time></trkpt><trkpt lat="44.1687917" lon="12.4232783"><ele>2.0</ele><time>2026-05-01T10:01:23.752Z</time></trkpt><trkpt lat="44.1686033" lon="12.423475"><ele>2.0</ele><time>2026-05-01T10:01:24.754Z</time></trkpt><trkpt lat="44.1684183" lon="12.4236717"><ele>2.5</ele><time>2026-05-01T10:01:25.749Z</time></trkpt><trkpt lat="44.1682317" lon="12.4238717"><ele>3.0</ele><time>2026-05-01T10:01:26.745Z</time></trkpt><trkpt lat="44.168045" lon="12.42407"><ele>2.0</ele><time>2026-05-01T10:01:27.747Z</time></trkpt><trkpt lat="44.16786" lon="12.42427"><ele>1.0</ele><time>2026-05-01T10:01:28.751Z</time></trkpt><trkpt lat="44.1676733" lon="12.4244683"><ele>1.0</ele><time>2026-05-01T10:01:29.751Z</time></trkpt><trkpt lat="44.167485" lon="12.4246667"><ele>1.0</ele><time>2026-05-01T10:01:30.745Z</time></trkpt><trkpt lat="44.1672967" lon="12.4248667"><ele>1.0</ele><time>2026-05-01T10:01:31.752Z</time></trkpt><trkpt lat="44.16711" lon="12.425065"><ele>1.0</ele><time>2026-05-01T10:01:32.753Z</time></trkpt><trkpt lat="44.1669217" lon="12.4252633"><ele>1.0</ele><time>2026-05-01T10:01:33.747Z</time></trkpt><trkpt lat="44.1667317" lon="12.4254633"><ele>1.0</ele><time>2026-05-01T10:01:34.75Z</time></trkpt><trkpt lat="44.1665383" lon="12.4256667"><ele>1.0</ele><time>2026-05-01T10:01:35.756Z</time></trkpt><trkpt lat="44.166345" lon="12.4258733"><ele>1.0</ele><time>2026-05-01T10:01:36.751Z</time></trkpt><trkpt lat="44.1661517" lon="12.4260817"><ele>1.0</ele><time>2026-05-01T10:01:37.75Z</time></trkpt><trkpt lat="44.1659583" lon="12.42629"><ele>1.0</ele><time>2026-05-01T10:01:38.749Z</time></trkpt><trkpt lat="44.1657633" lon="12.4264983"><ele>0.0</ele><time>2026-05-01T10:01:39.752Z</time></trkpt><trkpt lat="44.1655667" lon="12.4267083"><ele>-1.0</ele><time>2026-05-01T10:01:40.747Z</time></trkpt><trkpt lat="44.1653683" lon="12.426915"><ele>-1.0</ele><time>2026-05-01T10:01:41.752Z</time></trkpt><trkpt lat="44.16517" lon="12.4271283"><ele>-1.0</ele><time>2026-05-01T10:01:42.752Z</time></trkpt><trkpt lat="44.1649683" lon="12.42734"><ele>0.0</ele><time>2026-05-01T10:01:43.754Z</time></trkpt><trkpt lat="44.1647683" lon="12.427555"><ele>1.0</ele><time>2026-05-01T10:01:44.754Z</time></trkpt><trkpt lat="44.164565" lon="12.4277717"><ele>1.5</ele><time>2026-05-01T10:01:45.749Z</time></trkpt><trkpt lat="44.16436" lon="12.42799"><ele>2.0</ele><time>2026-05-01T10:01:46.755Z</time></trkpt><trkpt lat="44.1641567" lon="12.428215"><ele>1.5</ele><time>2026-05-01T10:01:47.751Z</time></trkpt><trkpt lat="44.163955" lon="12.4284483"><ele>1.0</ele><time>2026-05-01T10:01:48.746Z</time></trkpt><trkpt lat="44.163755" lon="12.4286867"><ele>1.5</ele><time>2026-05-01T10:01:49.748Z</time></trkpt><trkpt lat="44.1635567" lon="12.4289317"><ele>2.0</ele><time>2026-05-01T10:01:50.75Z</time></trkpt><trkpt lat="44.16336" lon="12.4291883"><ele>1.5</ele><time>2026-05-01T10:01:51.745Z</time></trkpt><trkpt lat="44.1631667" lon="12.429445"><ele>1.0</ele><time>2026-05-01T10:01:52.75Z</time></trkpt><trkpt lat="44.1629783" lon="12.4297017"><ele>1.0</ele><time>2026-05-01T10:01:53.747Z</time></trkpt><trkpt lat="44.162795" lon="12.4299683"><ele>1.0</ele><time>2026-05-01T10:01:54.744Z</time></trkpt><trkpt lat="44.1626167" lon="12.4302417"><ele>0.5</ele><time>2026-05-01T10:01:55.743Z</time></trkpt><trkpt lat="44.16244" lon="12.4305183"><ele>0.0</ele><time>2026-05-01T10:01:56.743Z</time></trkpt><trkpt lat="44.1622717" lon="12.4308017"><ele>-0.5</ele><time>2026-05-01T10:01:57.742Z</time></trkpt><trkpt lat="44.1621037" lon="12.4310861"><ele>-1.0</ele><time>2026-05-01T10:01:58.744Z</time></trkpt><trkpt lat="44.1619371" lon="12.4313679"><ele>-1.0</ele><time>2026-05-01T10:01:59.744Z</time></trkpt><trkpt lat="44.1617722" lon="12.4316481"><ele>-1.0</ele><time>2026-05-01T10:02:00.744Z</time></trkpt><trkpt lat="44.1616083" lon="12.4319297"><ele>-0.5</ele><time>2026-05-01T10:02:01.745Z</time></trkpt><trkpt lat="44.1614435" lon="12.4322111"><ele>0.0</ele><time>2026-05-01T10:02:02.745Z</time></trkpt><trkpt lat="44.1612819" lon="12.432491"><ele>0.0</ele><time>2026-05-01T10:02:03.744Z</time></trkpt><trkpt lat="44.1611209" lon="12.4327702"><ele>0.0</ele><time>2026-05-01T10:02:04.743Z</time></trkpt><trkpt lat="44.1609606" lon="12.4330512"><ele>-0.5</ele><time>2026-05-01T10:02:05.746Z</time></trkpt><trkpt lat="44.1608027" lon="12.4333322"><ele>-1.0</ele><time>2026-05-01T10:02:06.746Z</time></trkpt><trkpt lat="44.1606428" lon="12.4336084"><ele>-1.0</ele><time>2026-05-01T10:02:07.744Z</time></trkpt><trkpt lat="44.1604837" lon="12.4338801"><ele>-1.0</ele><time>2026-05-01T10:02:08.744Z</time></trkpt><trkpt lat="44.160326" lon="12.4341478"><ele>-1.0</ele><time>2026-05-01T10:02:09.746Z</time></trkpt><trkpt lat="44.1601711" lon="12.4344154"><ele>-1.0</ele><time>2026-05-01T10:02:10.743Z</time></trkpt><trkpt lat="44.1600157" lon="12.4346813"><ele>-0.5</ele><time>2026-05-01T10:02:11.745Z</time></trkpt><trkpt lat="44.1598641" lon="12.434945"><ele>0.0</ele><time>2026-05-01T10:02:12.744Z</time></trkpt><trkpt lat="44.1597111" lon="12.435209"><ele>0.0</ele><time>2026-05-01T10:02:13.744Z</time></trkpt><trkpt lat="44.1595547" lon="12.4354669"><ele>0.0</ele><time>2026-05-01T10:02:14.744Z</time></trkpt><trkpt lat="44.1593927" lon="12.4357139"><ele>1.0</ele><time>2026-05-01T10:02:15.742Z</time></trkpt><trkpt lat="44.1592262" lon="12.4359572"><ele>2.0</ele><time>2026-05-01T10:02:16.744Z</time></trkpt><trkpt lat="44.1590564" lon="12.4361967"><ele>1.5</ele><time>2026-05-01T10:02:17.744Z</time></trkpt><trkpt lat="44.1588803" lon="12.4364311"><ele>1.0</ele><time>2026-05-01T10:02:18.752Z</time></trkpt><trkpt lat="44.1587005" lon="12.4366538"><ele>1.0</ele><time>2026-05-01T10:02:19.752Z</time></trkpt><trkpt lat="44.1585183" lon="12.4368651"><ele>1.0</ele><time>2026-05-01T10:02:20.744Z</time></trkpt><trkpt lat="44.1583348" lon="12.4370705"><ele>1.5</ele><time>2026-05-01T10:02:21.752Z</time></trkpt><trkpt lat="44.1581507" lon="12.4372697"><ele>2.0</ele><time>2026-05-01T10:02:22.745Z</time></trkpt><trkpt lat="44.1579626" lon="12.4374679"><ele>2.0</ele><time>2026-05-01T10:02:23.752Z</time></trkpt><trkpt lat="44.1577735" lon="12.437661"><ele>2.0</ele><time>2026-05-01T10:02:24.756Z</time></trkpt><trkpt lat="44.1575804" lon="12.4378502"><ele>2.0</ele><time>2026-05-01T10:02:25.75Z</time></trkpt><trkpt lat="44.1573823" lon="12.4380336"><ele>2.0</ele><time>2026-05-01T10:02:26.75Z</time></trkpt><trkpt lat="44.157178" lon="12.438205"><ele>1.5</ele><time>2026-05-01T10:02:27.751Z</time></trkpt><trkpt lat="44.1569722" lon="12.4383736"><ele>1.0</ele><time>2026-05-01T10:02:28.75Z</time></trkpt><trkpt lat="44.1567624" lon="12.4385444"><ele>1.0</ele><time>2026-05-01T10:02:29.753Z</time></trkpt><trkpt lat="44.1565512" lon="12.4387148"><ele>1.0</ele><time>2026-05-01T10:02:30.743Z</time></trkpt><trkpt lat="44.1563342" lon="12.4388875"><ele>-1.0</ele><time>2026-05-01T10:02:31.756Z</time></trkpt><trkpt lat="44.1561159" lon="12.4390578"><ele>-3.0</ele><time>2026-05-01T10:02:32.753Z</time></trkpt><trkpt lat="44.1558955" lon="12.4392266"><ele>-3.5</ele><time>2026-05-01T10:02:33.75Z</time></trkpt><trkpt lat="44.1556719" lon="12.439395"><ele>-4.0</ele><time>2026-05-01T10:02:34.751Z</time></trkpt><trkpt lat="44.1554481" lon="12.439563"><ele>-3.5</ele><time>2026-05-01T10:02:35.75Z</time></trkpt><trkpt lat="44.1552251" lon="12.4397341"><ele>-3.0</ele><time>2026-05-01T10:02:36.751Z</time></trkpt><trkpt lat="44.1550021" lon="12.4399078"><ele>-3.0</ele><time>2026-05-01T10:02:37.752Z</time></trkpt><trkpt lat="44.1547812" lon="12.4400798"><ele>-3.0</ele><time>2026-05-01T10:02:38.751Z</time></trkpt><trkpt lat="44.1545599" lon="12.4402508"><ele>-3.0</ele><time>2026-05-01T10:02:39.753Z</time></trkpt><trkpt lat="44.1543407" lon="12.4404221"><ele>-3.0</ele><time>2026-05-01T10:02:40.744Z</time></trkpt><trkpt lat="44.1541197" lon="12.4405959"><ele>-1.5</ele><time>2026-05-01T10:02:41.752Z</time></trkpt><trkpt lat="44.153901" lon="12.4407701"><ele>0.0</ele><time>2026-05-01T10:02:42.754Z</time></trkpt><trkpt lat="44.1536833" lon="12.440945"><ele>0.0</ele><time>2026-05-01T10:02:43.748Z</time></trkpt><trkpt lat="44.153463" lon="12.4411211"><ele>0.0</ele><time>2026-05-01T10:02:44.753Z</time></trkpt><trkpt lat="44.1532436" lon="12.4412979"><ele>-1.0</ele><time>2026-05-01T10:02:45.751Z</time></trkpt><trkpt lat="44.1530225" lon="12.4414749"><ele>-2.0</ele><time>2026-05-01T10:02:46.751Z</time></trkpt><trkpt lat="44.1528" lon="12.441649"><ele>-2.0</ele><time>2026-05-01T10:02:47.751Z</time></trkpt><trkpt lat="44.1525769" lon="12.4418169"><ele>-2.0</ele><time>2026-05-01T10:02:48.751Z</time></trkpt><trkpt lat="44.1523519" lon="12.4419825"><ele>-2.0</ele><time>2026-05-01T10:02:49.752Z</time></trkpt><trkpt lat="44.1521255" lon="12.4421478"><ele>-2.0</ele><time>2026-05-01T10:02:50.753Z</time></trkpt><trkpt lat="44.1519015" lon="12.4423128"><ele>-2.0</ele><time>2026-05-01T10:02:51.745Z</time></trkpt><trkpt lat="44.151678" lon="12.442478"><ele>-2.0</ele><time>2026-05-01T10:02:52.751Z</time></trkpt><trkpt lat="44.1514583" lon="12.4426437"><ele>-3.0</ele><time>2026-05-01T10:02:53.754Z</time></trkpt><trkpt lat="44.1512448" lon="12.4428126"><ele>-4.0</ele><time>2026-05-01T10:02:54.751Z</time></trkpt><trkpt lat="44.1510346" lon="12.44299"><ele>-4.5</ele><time>2026-05-01T10:02:55.752Z</time></trkpt><trkpt lat="44.150829" lon="12.4431768"><ele>-5.0</ele><time>2026-05-01T10:02:56.749Z</time></trkpt><trkpt lat="44.1506283" lon="12.44337"><ele>-2.5</ele><time>2026-05-01T10:02:57.752Z</time></trkpt><trkpt lat="44.1504333" lon="12.4435683"><ele>0.0</ele><time>2026-05-01T10:02:58.752Z</time></trkpt><trkpt lat="44.1502417" lon="12.4437767"><ele>0.5</ele><time>2026-05-01T10:02:59.743Z</time></trkpt><trkpt lat="44.1500533" lon="12.4439967"><ele>1.0</ele><time>2026-05-01T10:03:00.754Z</time></trkpt><trkpt lat="44.1498717" lon="12.4442233"><ele>1.0</ele><time>2026-05-01T10:03:01.752Z</time></trkpt><trkpt lat="44.149695" lon="12.444455"><ele>1.0</ele><time>2026-05-01T10:03:02.752Z</time></trkpt><trkpt lat="44.14952" lon="12.444695"><ele>1.0</ele><time>2026-05-01T10:03:03.743Z</time></trkpt><trkpt lat="44.14935" lon="12.44494"><ele>1.0</ele><time>2026-05-01T10:03:04.748Z</time></trkpt><trkpt lat="44.1491867" lon="12.44519"><ele>0.0</ele><time>2026-05-01T10:03:05.756Z</time></trkpt><trkpt lat="44.1490317" lon="12.4454483"><ele>-1.0</ele><time>2026-05-01T10:03:06.744Z</time></trkpt><trkpt lat="44.14888" lon="12.445715"><ele>-1.0</ele><time>2026-05-01T10:03:07.749Z</time></trkpt><trkpt lat="44.14873" lon="12.445985"><ele>-1.0</ele><time>2026-05-01T10:03:08.752Z</time></trkpt><trkpt lat="44.1485833" lon="12.4462583"><ele>-1.0</ele><time>2026-05-01T10:03:09.751Z</time></trkpt><trkpt lat="44.148435" lon="12.4465317"><ele>-1.0</ele><time>2026-05-01T10:03:10.748Z</time></trkpt><trkpt lat="44.1482867" lon="12.4468083"><ele>-1.5</ele><time>2026-05-01T10:03:11.753Z</time></trkpt><trkpt lat="44.14814" lon="12.4470833"><ele>-2.0</ele><time>2026-05-01T10:03:12.753Z</time></trkpt><trkpt lat="44.147995" lon="12.44736"><ele>-2.0</ele><time>2026-05-01T10:03:13.752Z</time></trkpt><trkpt lat="44.1478533" lon="12.44764"><ele>-2.0</ele><time>2026-05-01T10:03:14.754Z</time></trkpt><trkpt lat="44.14771" lon="12.4479183"><ele>-1.5</ele><time>2026-05-01T10:03:15.75Z</time></trkpt><trkpt lat="44.1475667" lon="12.4481933"><ele>-1.0</ele><time>2026-05-01T10:03:16.75Z</time></trkpt><trkpt lat="44.1474267" lon="12.4484683"><ele>-0.5</ele><time>2026-05-01T10:03:17.751Z</time></trkpt><trkpt lat="44.147285" lon="12.4487433"><ele>0.0</ele><time>2026-05-01T10:03:18.752Z</time></trkpt><trkpt lat="44.1471417" lon="12.4490183"><ele>1.0</ele><time>2026-05-01T10:03:19.751Z</time></trkpt><trkpt lat="44.1469983" lon="12.4492933"><ele>2.0</ele><time>2026-05-01T10:03:20.754Z</time></trkpt><trkpt lat="44.146855" lon="12.4495717"><ele>2.0</ele><time>2026-05-01T10:03:21.745Z</time></trkpt><trkpt lat="44.1467133" lon="12.4498483"><ele>2.0</ele><time>2026-05-01T10:03:22.748Z</time></trkpt><trkpt lat="44.1465717" lon="12.450125"><ele>1.0</ele><time>2026-05-01T10:03:23.753Z</time></trkpt><trkpt lat="44.1464283" lon="12.4504017"><ele>0.0</ele><time>2026-05-01T10:03:24.752Z</time></trkpt><trkpt lat="44.146285" lon="12.4506767"><ele>-0.5</ele><time>2026-05-01T10:03:25.751Z</time></trkpt><trkpt lat="44.1461433" lon="12.4509517"><ele>-1.0</ele><time>2026-05-01T10:03:26.752Z</time></trkpt><trkpt lat="44.1460017" lon="12.4512267"><ele>0.5</ele><time>2026-05-01T10:03:27.742Z</time></trkpt><trkpt lat="44.14586" lon="12.4515"><ele>2.0</ele><time>2026-05-01T10:03:28.751Z</time></trkpt><trkpt lat="44.1457183" lon="12.4517767"><ele>1.5</ele><time>2026-05-01T10:03:29.748Z</time></trkpt><trkpt lat="44.1455783" lon="12.4520483"><ele>1.0</ele><time>2026-05-01T10:03:30.745Z</time></trkpt><trkpt lat="44.145435" lon="12.452325"><ele>1.0</ele><time>2026-05-01T10:03:31.741Z</time></trkpt><trkpt lat="44.145295" lon="12.4526"><ele>1.0</ele><time>2026-05-01T10:03:32.757Z</time></trkpt><trkpt lat="44.1451533" lon="12.452875"><ele>1.5</ele><time>2026-05-01T10:03:33.756Z</time></trkpt><trkpt lat="44.1450117" lon="12.45315"><ele>2.0</ele><time>2026-05-01T10:03:34.751Z</time></trkpt><trkpt lat="44.1448717" lon="12.45342"><ele>1.0</ele><time>2026-05-01T10:03:35.752Z</time></trkpt><trkpt lat="44.1447283" lon="12.4536967"><ele>0.0</ele><time>2026-05-01T10:03:36.743Z</time></trkpt><trkpt lat="44.1445867" lon="12.45397"><ele>0.0</ele><time>2026-05-01T10:03:37.747Z</time></trkpt><trkpt lat="44.1444417" lon="12.4542417"><ele>0.0</ele><time>2026-05-01T10:03:38.75Z</time></trkpt><trkpt lat="44.144295" lon="12.4545117"><ele>0.0</ele><time>2026-05-01T10:03:39.758Z</time></trkpt><trkpt lat="44.1441433" lon="12.4547717"><ele>0.0</ele><time>2026-05-01T10:03:40.745Z</time></trkpt><trkpt lat="44.143985" lon="12.45503"><ele>0.5</ele><time>2026-05-01T10:03:41.744Z</time></trkpt><trkpt lat="44.1438217" lon="12.45528"><ele>1.0</ele><time>2026-05-01T10:03:42.748Z</time></trkpt><trkpt lat="44.1436567" lon="12.455525"><ele>1.0</ele><time>2026-05-01T10:03:43.75Z</time></trkpt><trkpt lat="44.1434867" lon="12.455765"><ele>1.0</ele><time>2026-05-01T10:03:44.752Z</time></trkpt><trkpt lat="44.1433133" lon="12.4559967"><ele>0.5</ele><time>2026-05-01T10:03:45.751Z</time></trkpt><trkpt lat="44.1431383" lon="12.4562267"><ele>0.0</ele><time>2026-05-01T10:03:46.741Z</time></trkpt><trkpt lat="44.142955" lon="12.4564483"><ele>0.0</ele><time>2026-05-01T10:03:47.748Z</time></trkpt><trkpt lat="44.1427683" lon="12.4566567"><ele>0.0</ele><time>2026-05-01T10:03:48.754Z</time></trkpt><trkpt lat="44.1425783" lon="12.4568583"><ele>0.0</ele><time>2026-05-01T10:03:49.742Z</time></trkpt><trkpt lat="44.1423833" lon="12.4570467"><ele>0.0</ele><time>2026-05-01T10:03:50.748Z</time></trkpt><trkpt lat="44.142185" lon="12.4572267"><ele>0.5</ele><time>2026-05-01T10:03:51.753Z</time></trkpt><trkpt lat="44.141985" lon="12.457405"><ele>1.0</ele><time>2026-05-01T10:03:52.756Z</time></trkpt><trkpt lat="44.1417833" lon="12.4575767"><ele>1.0</ele><time>2026-05-01T10:03:53.75Z</time></trkpt><trkpt lat="44.1415833" lon="12.4577517"><ele>1.0</ele><time>2026-05-01T10:03:54.745Z</time></trkpt><trkpt lat="44.1413817" lon="12.45792"><ele>0.5</ele><time>2026-05-01T10:03:55.753Z</time></trkpt><trkpt lat="44.1411833" lon="12.4580867"><ele>0.0</ele><time>2026-05-01T10:03:56.754Z</time></trkpt><trkpt lat="44.140985" lon="12.45825"><ele>0.0</ele><time>2026-05-01T10:03:57.752Z</time></trkpt><trkpt lat="44.1407867" lon="12.4584117"><ele>0.0</ele><time>2026-05-01T10:03:58.751Z</time></trkpt><trkpt lat="44.1405867" lon="12.458575"><ele>1.0</ele><time>2026-05-01T10:03:59.742Z</time></trkpt><trkpt lat="44.1403867" lon="12.45874"><ele>2.0</ele><time>2026-05-01T10:04:00.741Z</time></trkpt><trkpt lat="44.1401867" lon="12.4589083"><ele>2.5</ele><time>2026-05-01T10:04:01.751Z</time></trkpt><trkpt lat="44.139985" lon="12.459075"><ele>3.0</ele><time>2026-05-01T10:04:02.751Z</time></trkpt><trkpt lat="44.1397817" lon="12.4592383"><ele>3.0</ele><time>2026-05-01T10:04:03.753Z</time></trkpt><trkpt lat="44.13958" lon="12.459405"><ele>3.0</ele><time>2026-05-01T10:04:04.748Z</time></trkpt><trkpt lat="44.1393767" lon="12.4595717"><ele>2.0</ele><time>2026-05-01T10:04:05.75Z</time></trkpt><trkpt lat="44.1391717" lon="12.4597383"><ele>1.0</ele><time>2026-05-01T10:04:06.747Z</time></trkpt><trkpt lat="44.1389717" lon="12.4599017"><ele>0.5</ele><time>2026-05-01T10:04:07.745Z</time></trkpt><trkpt lat="44.1387683" lon="12.4600667"><ele>0.0</ele><time>2026-05-01T10:04:08.751Z</time></trkpt><trkpt lat="44.1385667" lon="12.460235"><ele>0.0</ele><time>2026-05-01T10:04:09.752Z</time></trkpt><trkpt lat="44.138365" lon="12.4604"><ele>0.0</ele><time>2026-05-01T10:04:10.749Z</time></trkpt><trkpt lat="44.13816" lon="12.4605667"><ele>-0.5</ele><time>2026-05-01T10:04:11.749Z</time></trkpt><trkpt lat="44.1379533" lon="12.460735"><ele>-1.0</ele><time>2026-05-01T10:04:12.743Z</time></trkpt><trkpt lat="44.13775" lon="12.4609017"><ele>-1.0</ele><time>2026-05-01T10:04:13.75Z</time></trkpt><trkpt lat="44.1375467" lon="12.4610683"><ele>-1.0</ele><time>2026-05-01T10:04:14.751Z</time></trkpt><trkpt lat="44.1373433" lon="12.4612367"><ele>0.0</ele><time>2026-05-01T10:04:15.754Z</time></trkpt><trkpt lat="44.13714" lon="12.4614033"><ele>1.0</ele><time>2026-05-01T10:04:16.747Z</time></trkpt><trkpt lat="44.1369367" lon="12.461565"><ele>1.0</ele><time>2026-05-01T10:04:17.746Z</time></trkpt><trkpt lat="44.136735" lon="12.4617283"><ele>1.0</ele><time>2026-05-01T10:04:18.75Z</time></trkpt><trkpt lat="44.1365317" lon="12.461895"><ele>0.5</ele><time>2026-05-01T10:04:19.753Z</time></trkpt><trkpt lat="44.1363317" lon="12.4620617"><ele>0.0</ele><time>2026-05-01T10:04:20.751Z</time></trkpt><trkpt lat="44.1361267" lon="12.4622333"><ele>0.0</ele><time>2026-05-01T10:04:21.752Z</time></trkpt><trkpt lat="44.1359233" lon="12.4624033"><ele>0.0</ele><time>2026-05-01T10:04:22.749Z</time></trkpt><trkpt lat="44.13572" lon="12.4625683"><ele>0.5</ele><time>2026-05-01T10:04:23.753Z</time></trkpt><trkpt lat="44.1355183" lon="12.4627317"><ele>1.0</ele><time>2026-05-01T10:04:24.751Z</time></trkpt><trkpt lat="44.135315" lon="12.4628967"><ele>0.0</ele><time>2026-05-01T10:04:25.75Z</time></trkpt><trkpt lat="44.1351117" lon="12.463065"><ele>-1.0</ele><time>2026-05-01T10:04:26.753Z</time></trkpt><trkpt lat="44.1349083" lon="12.46323"><ele>0.5</ele><time>2026-05-01T10:04:27.748Z</time></trkpt><trkpt lat="44.1347056" lon="12.4633983"><ele>2.0</ele><time>2026-05-01T10:04:28.747Z</time></trkpt><trkpt lat="44.1345049" lon="12.4635646"><ele>2.0</ele><time>2026-05-01T10:04:29.748Z</time></trkpt><trkpt lat="44.1343041" lon="12.4637281"><ele>2.0</ele><time>2026-05-01T10:04:30.752Z</time></trkpt><trkpt lat="44.1341029" lon="12.4638915"><ele>2.0</ele><time>2026-05-01T10:04:31.751Z</time></trkpt><trkpt lat="44.1339005" lon="12.4640587"><ele>2.0</ele><time>2026-05-01T10:04:32.755Z</time></trkpt><trkpt lat="44.1336993" lon="12.4642277"><ele>2.0</ele><time>2026-05-01T10:04:33.745Z</time></trkpt><trkpt lat="44.1334938" lon="12.4643956"><ele>2.0</ele><time>2026-05-01T10:04:34.748Z</time></trkpt><trkpt lat="44.1332883" lon="12.4645636"><ele>2.5</ele><time>2026-05-01T10:04:35.751Z</time></trkpt><trkpt lat="44.1330818" lon="12.4647322"><ele>3.0</ele><time>2026-05-01T10:04:36.751Z</time></trkpt><trkpt lat="44.1328743" lon="12.4649006"><ele>3.0</ele><time>2026-05-01T10:04:37.751Z</time></trkpt><trkpt lat="44.1326672" lon="12.4650707"><ele>3.0</ele><time>2026-05-01T10:04:38.744Z</time></trkpt><trkpt lat="44.1324573" lon="12.4652418"><ele>3.0</ele><time>2026-05-01T10:04:39.752Z</time></trkpt><trkpt lat="44.1322464" lon="12.4654123"><ele>3.0</ele><time>2026-05-01T10:04:40.75Z</time></trkpt><trkpt lat="44.1320359" lon="12.4655844"><ele>3.0</ele><time>2026-05-01T10:04:41.753Z</time></trkpt><trkpt lat="44.1318258" lon="12.4657579"><ele>3.0</ele><time>2026-05-01T10:04:42.752Z</time></trkpt><trkpt lat="44.1316173" lon="12.4659309"><ele>3.0</ele><time>2026-05-01T10:04:43.743Z</time></trkpt><trkpt lat="44.131406" lon="12.4661048"><ele>3.0</ele><time>2026-05-01T10:04:44.753Z</time></trkpt><trkpt lat="44.1311979" lon="12.4662753"><ele>2.5</ele><time>2026-05-01T10:04:45.75Z</time></trkpt><trkpt lat="44.1309899" lon="12.4664461"><ele>2.0</ele><time>2026-05-01T10:04:46.749Z</time></trkpt><trkpt lat="44.1307811" lon="12.4666201"><ele>3.0</ele><time>2026-05-01T10:04:47.751Z</time></trkpt><trkpt lat="44.1305737" lon="12.4667979"><ele>4.0</ele><time>2026-05-01T10:04:48.749Z</time></trkpt><trkpt lat="44.130366" lon="12.4669743"><ele>4.0</ele><time>2026-05-01T10:04:49.751Z</time></trkpt><trkpt lat="44.1301594" lon="12.4671504"><ele>4.0</ele><time>2026-05-01T10:04:50.754Z</time></trkpt><trkpt lat="44.1299547" lon="12.467325"><ele>4.5</ele><time>2026-05-01T10:04:51.751Z</time></trkpt><trkpt lat="44.1297484" lon="12.4674995"><ele>5.0</ele><time>2026-05-01T10:04:52.752Z</time></trkpt><trkpt lat="44.1295435" lon="12.4676728"><ele>5.0</ele><time>2026-05-01T10:04:53.751Z</time></trkpt><trkpt lat="44.1293442" lon="12.4678377"><ele>5.0</ele><time>2026-05-01T10:04:54.743Z</time></trkpt><trkpt lat="44.1291511" lon="12.4679927"><ele>4.666666666666667</ele><time>2026-05-01T10:04:55.755Z</time></trkpt><trkpt lat="44.128965" lon="12.4681415"><ele>4.333333333333333</ele><time>2026-05-01T10:04:56.752Z</time></trkpt><trkpt lat="44.1287806" lon="12.4682851"><ele>4.0</ele><time>2026-05-01T10:04:57.749Z</time></trkpt><trkpt lat="44.1285967" lon="12.4684284"><ele>4.0</ele><time>2026-05-01T10:04:58.749Z</time></trkpt><trkpt lat="44.1284144" lon="12.4685708"><ele>4.0</ele><time>2026-05-01T10:04:59.744Z</time></trkpt><trkpt lat="44.128229" lon="12.4687154"><ele>4.0</ele><time>2026-05-01T10:05:00.751Z</time></trkpt><trkpt lat="44.1280431" lon="12.4688595"><ele>5.0</ele><time>2026-05-01T10:05:01.752Z</time></trkpt><trkpt lat="44.1278583" lon="12.4690045"><ele>6.0</ele><time>2026-05-01T10:05:02.744Z</time></trkpt><trkpt lat="44.1276687" lon="12.4691502"><ele>7.0</ele><time>2026-05-01T10:05:03.746Z</time></trkpt><trkpt lat="44.1274761" lon="12.4692902"><ele>6.666666666666667</ele><time>2026-05-01T10:05:04.748Z</time></trkpt><trkpt lat="44.1272809" lon="12.4694239"><ele>6.333333333333334</ele><time>2026-05-01T10:05:05.747Z</time></trkpt><trkpt lat="44.1270814" lon="12.4695534"><ele>6.0</ele><time>2026-05-01T10:05:06.744Z</time></trkpt><trkpt lat="44.1268771" lon="12.4696821"><ele>6.0</ele><time>2026-05-01T10:05:07.754Z</time></trkpt><trkpt lat="44.1266723" lon="12.4698061"><ele>6.0</ele><time>2026-05-01T10:05:08.754Z</time></trkpt><trkpt lat="44.1264636" lon="12.4699276"><ele>6.0</ele><time>2026-05-01T10:05:09.748Z</time></trkpt><trkpt lat="44.1262536" lon="12.4700491"><ele>5.5</ele><time>2026-05-01T10:05:10.745Z</time></trkpt><trkpt lat="44.1260421" lon="12.4701597"><ele>5.0</ele><time>2026-05-01T10:05:11.75Z</time></trkpt><trkpt lat="44.1258276" lon="12.4702649"><ele>5.5</ele><time>2026-05-01T10:05:12.748Z</time></trkpt><trkpt lat="44.1256104" lon="12.4703702"><ele>6.0</ele><time>2026-05-01T10:05:13.747Z</time></trkpt><trkpt lat="44.1253927" lon="12.4704795"><ele>6.5</ele><time>2026-05-01T10:05:14.752Z</time></trkpt><trkpt lat="44.1251784" lon="12.4705904"><ele>7.0</ele><time>2026-05-01T10:05:15.747Z</time></trkpt><trkpt lat="44.1249612" lon="12.470705"><ele>7.5</ele><time>2026-05-01T10:05:16.774Z</time></trkpt><trkpt lat="44.1247519" lon="12.4708175"><ele>8.0</ele><time>2026-05-01T10:05:17.751Z</time></trkpt><trkpt lat="44.1245373" lon="12.4709342"><ele>8.0</ele><time>2026-05-01T10:05:18.752Z</time></trkpt><trkpt lat="44.1243199" lon="12.4710487"><ele>8.0</ele><time>2026-05-01T10:05:19.753Z</time></trkpt><trkpt lat="44.1240986" lon="12.4711655"><ele>6.5</ele><time>2026-05-01T10:05:20.749Z</time></trkpt><trkpt lat="44.1238742" lon="12.4712845"><ele>5.0</ele><time>2026-05-01T10:05:21.746Z</time></trkpt><trkpt lat="44.1236477" lon="12.4714045"><ele>5.0</ele><time>2026-05-01T10:05:22.748Z</time></trkpt><trkpt lat="44.1234216" lon="12.4715238"><ele>5.0</ele><time>2026-05-01T10:05:23.752Z</time></trkpt><trkpt lat="44.1231973" lon="12.4716436"><ele>6.0</ele><time>2026-05-01T10:05:24.753Z</time></trkpt><trkpt lat="44.1229738" lon="12.4717645"><ele>7.0</ele><time>2026-05-01T10:05:25.755Z</time></trkpt><trkpt lat="44.1227496" lon="12.4718839"><ele>7.0</ele><time>2026-05-01T10:05:26.751Z</time></trkpt><trkpt lat="44.1225243" lon="12.4720061"><ele>7.0</ele><time>2026-05-01T10:05:27.752Z</time></trkpt><trkpt lat="44.1222991" lon="12.4721274"><ele>7.5</ele><time>2026-05-01T10:05:28.754Z</time></trkpt><trkpt lat="44.1220731" lon="12.4722489"><ele>8.0</ele><time>2026-05-01T10:05:29.755Z</time></trkpt><trkpt lat="44.1218458" lon="12.4723696"><ele>8.0</ele><time>2026-05-01T10:05:30.753Z</time></trkpt><trkpt lat="44.1216167" lon="12.4724916"><ele>8.0</ele><time>2026-05-01T10:05:31.763Z</time></trkpt><trkpt lat="44.1213913" lon="12.472612"><ele>7.5</ele><time>2026-05-01T10:05:32.747Z</time></trkpt><trkpt lat="44.1211627" lon="12.4727325"><ele>7.0</ele><time>2026-05-01T10:05:33.755Z</time></trkpt><trkpt lat="44.1209372" lon="12.4728488"><ele>7.0</ele><time>2026-05-01T10:05:34.751Z</time></trkpt><trkpt lat="44.1207124" lon="12.4729671"><ele>7.0</ele><time>2026-05-01T10:05:35.751Z</time></trkpt><trkpt lat="44.1204875" lon="12.4730845"><ele>7.0</ele><time>2026-05-01T10:05:36.752Z</time></trkpt><trkpt lat="44.1202613" lon="12.4732012"><ele>7.0</ele><time>2026-05-01T10:05:37.747Z</time></trkpt><trkpt lat="44.1200358" lon="12.4733174"><ele>8.0</ele><time>2026-05-01T10:05:38.751Z</time></trkpt><trkpt lat="44.1198111" lon="12.473434"><ele>9.0</ele><time>2026-05-01T10:05:39.755Z</time></trkpt><trkpt lat="44.1195883" lon="12.4735556"><ele>9.0</ele><time>2026-05-01T10:05:40.752Z</time></trkpt><trkpt lat="44.119364" lon="12.4736794"><ele>9.0</ele><time>2026-05-01T10:05:41.748Z</time></trkpt><trkpt lat="44.1191372" lon="12.4738087"><ele>9.0</ele><time>2026-05-01T10:05:42.751Z</time></trkpt><trkpt lat="44.1189104" lon="12.4739368"><ele>9.0</ele><time>2026-05-01T10:05:43.752Z</time></trkpt><trkpt lat="44.1186835" lon="12.4740632"><ele>9.0</ele><time>2026-05-01T10:05:44.743Z</time></trkpt><trkpt lat="44.1184543" lon="12.4741889"><ele>9.0</ele><time>2026-05-01T10:05:45.743Z</time></trkpt><trkpt lat="44.118228" lon="12.4743098"><ele>9.0</ele><time>2026-05-01T10:05:46.743Z</time></trkpt><trkpt lat="44.1180006" lon="12.4744268"><ele>9.0</ele><time>2026-05-01T10:05:47.753Z</time></trkpt><trkpt lat="44.1177742" lon="12.474541"><ele>8.5</ele><time>2026-05-01T10:05:48.743Z</time></trkpt><trkpt lat="44.1175427" lon="12.4746591"><ele>8.0</ele><time>2026-05-01T10:05:49.748Z</time></trkpt><trkpt lat="44.1173148" lon="12.4747847"><ele>9.0</ele><time>2026-05-01T10:05:50.743Z</time></trkpt><trkpt lat="44.1170881" lon="12.4749197"><ele>10.0</ele><time>2026-05-01T10:05:51.742Z</time></trkpt><trkpt lat="44.1168613" lon="12.4750601"><ele>10.0</ele><time>2026-05-01T10:05:52.757Z</time></trkpt><trkpt lat="44.1166399" lon="12.4752088"><ele>10.0</ele><time>2026-05-01T10:05:53.755Z</time></trkpt><trkpt lat="44.1164204" lon="12.4753667"><ele>9.0</ele><time>2026-05-01T10:05:54.755Z</time></trkpt><trkpt lat="44.1162029" lon="12.4755324"><ele>8.0</ele><time>2026-05-01T10:05:55.76Z</time></trkpt><trkpt lat="44.1159896" lon="12.4757035"><ele>8.0</ele><time>2026-05-01T10:05:56.746Z</time></trkpt><trkpt lat="44.1157815" lon="12.4758902"><ele>8.0</ele><time>2026-05-01T10:05:57.743Z</time></trkpt><trkpt lat="44.1155739" lon="12.4760849"><ele>8.5</ele><time>2026-05-01T10:05:58.757Z</time></trkpt><trkpt lat="44.115372" lon="12.4762851"><ele>9.0</ele><time>2026-05-01T10:05:59.743Z</time></trkpt><trkpt lat="44.1151702" lon="12.4764954"><ele>9.0</ele><time>2026-05-01T10:06:00.757Z</time></trkpt><trkpt lat="44.1149734" lon="12.4767112"><ele>9.0</ele><time>2026-05-01T10:06:01.753Z</time></trkpt><trkpt lat="44.1147818" lon="12.4769353"><ele>10.5</ele><time>2026-05-01T10:06:02.755Z</time></trkpt><trkpt lat="44.1145937" lon="12.4771653"><ele>12.0</ele><time>2026-05-01T10:06:03.756Z</time></trkpt><trkpt lat="44.1144106" lon="12.4774005"><ele>12.0</ele><time>2026-05-01T10:06:04.754Z</time></trkpt><trkpt lat="44.1142294" lon="12.4776417"><ele>12.0</ele><time>2026-05-01T10:06:05.75Z</time></trkpt><trkpt lat="44.1140514" lon="12.4778853"><ele>11.0</ele><time>2026-05-01T10:06:06.751Z</time></trkpt><trkpt lat="44.113874" lon="12.4781261"><ele>10.0</ele><time>2026-05-01T10:06:07.756Z</time></trkpt><trkpt lat="44.1136998" lon="12.4783641"><ele>10.0</ele><time>2026-05-01T10:06:08.752Z</time></trkpt><trkpt lat="44.1135255" lon="12.4786002"><ele>10.0</ele><time>2026-05-01T10:06:09.754Z</time></trkpt><trkpt lat="44.1133515" lon="12.4788348"><ele>10.5</ele><time>2026-05-01T10:06:10.75Z</time></trkpt><trkpt lat="44.1131788" lon="12.4790698"><ele>11.0</ele><time>2026-05-01T10:06:11.752Z</time></trkpt><trkpt lat="44.1130087" lon="12.4793025"><ele>11.0</ele><time>2026-05-01T10:06:12.745Z</time></trkpt><trkpt lat="44.1128374" lon="12.479537"><ele>11.0</ele><time>2026-05-01T10:06:13.745Z</time></trkpt><trkpt lat="44.1126642" lon="12.4797707"><ele>11.0</ele><time>2026-05-01T10:06:14.755Z</time></trkpt><trkpt lat="44.1124931" lon="12.4800026"><ele>11.0</ele><time>2026-05-01T10:06:15.751Z</time></trkpt><trkpt lat="44.1123228" lon="12.4802342"><ele>11.0</ele><time>2026-05-01T10:06:16.75Z</time></trkpt><trkpt lat="44.1121539" lon="12.4804616"><ele>11.0</ele><time>2026-05-01T10:06:17.745Z</time></trkpt><trkpt lat="44.1119826" lon="12.4806882"><ele>11.0</ele><time>2026-05-01T10:06:18.749Z</time></trkpt><trkpt lat="44.1118112" lon="12.4809131"><ele>11.0</ele><time>2026-05-01T10:06:19.751Z</time></trkpt><trkpt lat="44.1116376" lon="12.4811331"><ele>10.0</ele><time>2026-05-01T10:06:20.755Z</time></trkpt><trkpt lat="44.1114634" lon="12.4813474"><ele>9.0</ele><time>2026-05-01T10:06:21.745Z</time></trkpt><trkpt lat="44.1112865" lon="12.4815581"><ele>9.0</ele><time>2026-05-01T10:06:22.742Z</time></trkpt><trkpt lat="44.111108" lon="12.4817694"><ele>9.0</ele><time>2026-05-01T10:06:23.752Z</time></trkpt><trkpt lat="44.1109305" lon="12.4819757"><ele>9.5</ele><time>2026-05-01T10:06:24.75Z</time></trkpt><trkpt lat="44.1107513" lon="12.4821807"><ele>10.0</ele><time>2026-05-01T10:06:25.751Z</time></trkpt><trkpt lat="44.110572" lon="12.4823813"><ele>10.0</ele><time>2026-05-01T10:06:26.746Z</time></trkpt><trkpt lat="44.1103891" lon="12.4825788"><ele>10.0</ele><time>2026-05-01T10:06:27.748Z</time></trkpt><trkpt lat="44.1102037" lon="12.4827689"><ele>10.5</ele><time>2026-05-01T10:06:28.751Z</time></trkpt><trkpt lat="44.1100155" lon="12.4829481"><ele>11.0</ele><time>2026-05-01T10:06:29.751Z</time></trkpt><trkpt lat="44.1098251" lon="12.4831226"><ele>11.333333333333332</ele><time>2026-05-01T10:06:30.754Z</time></trkpt><trkpt lat="44.1096347" lon="12.4832924"><ele>11.666666666666666</ele><time>2026-05-01T10:06:31.754Z</time></trkpt><trkpt lat="44.1094464" lon="12.4834595"><ele>12.0</ele><time>2026-05-01T10:06:32.753Z</time></trkpt><trkpt lat="44.1092594" lon="12.4836255"><ele>12.333333333333332</ele><time>2026-05-01T10:06:33.751Z</time></trkpt><trkpt lat="44.109073" lon="12.4837871"><ele>12.666666666666666</ele><time>2026-05-01T10:06:34.75Z</time></trkpt><trkpt lat="44.1088885" lon="12.4839429"><ele>13.0</ele><time>2026-05-01T10:06:35.755Z</time></trkpt><trkpt lat="44.1087204" lon="12.4840861"><ele>13.0</ele><time>2026-05-01T10:06:36.747Z</time></trkpt><trkpt lat="44.1085676" lon="12.4842198"><ele>13.0</ele><time>2026-05-01T10:06:37.753Z</time></trkpt><trkpt lat="44.1084326" lon="12.4843373"><ele>13.0</ele><time>2026-05-01T10:06:38.753Z</time></trkpt><trkpt lat="44.1083065" lon="12.4844428"><ele>12.25</ele><time>2026-05-01T10:06:39.752Z</time></trkpt><trkpt lat="44.1081892" lon="12.4845392"><ele>11.5</ele><time>2026-05-01T10:06:40.751Z</time></trkpt><trkpt lat="44.1080754" lon="12.4846333"><ele>10.75</ele><time>2026-05-01T10:06:41.751Z</time></trkpt><trkpt lat="44.1079555" lon="12.4847347"><ele>10.0</ele><time>2026-05-01T10:06:42.755Z</time></trkpt><trkpt lat="44.1078269" lon="12.4848398"><ele>10.0</ele><time>2026-05-01T10:06:43.753Z</time></trkpt><trkpt lat="44.1076912" lon="12.4849478"><ele>10.0</ele><time>2026-05-01T10:06:44.756Z</time></trkpt><trkpt lat="44.1075508" lon="12.4850602"><ele>10.0</ele><time>2026-05-01T10:06:45.744Z</time></trkpt><trkpt lat="44.1074057" lon="12.4851793"><ele>10.0</ele><time>2026-05-01T10:06:46.757Z</time></trkpt><trkpt lat="44.1072618" lon="12.4852981"><ele>10.0</ele><time>2026-05-01T10:06:47.748Z</time></trkpt><trkpt lat="44.1071143" lon="12.4854169"><ele>10.0</ele><time>2026-05-01T10:06:48.742Z</time></trkpt><trkpt lat="44.106968" lon="12.4855376"><ele>10.666666666666668</ele><time>2026-05-01T10:06:49.754Z</time></trkpt><trkpt lat="44.1068291" lon="12.4856588"><ele>11.333333333333334</ele><time>2026-05-01T10:06:50.755Z</time></trkpt><trkpt lat="44.1066952" lon="12.4857838"><ele>12.0</ele><time>2026-05-01T10:06:51.75Z</time></trkpt><trkpt lat="44.1065645" lon="12.4859175"><ele>12.0</ele><time>2026-05-01T10:06:52.749Z</time></trkpt><trkpt lat="44.1064414" lon="12.4860523"><ele>12.0</ele><time>2026-05-01T10:06:53.752Z</time></trkpt><trkpt lat="44.1063314" lon="12.4861871"><ele>12.0</ele><time>2026-05-01T10:06:54.752Z</time></trkpt><trkpt lat="44.1062234" lon="12.4863418"><ele>11.666666666666666</ele><time>2026-05-01T10:06:55.756Z</time></trkpt><trkpt lat="44.1061112" lon="12.4865075"><ele>11.333333333333332</ele><time>2026-05-01T10:06:56.745Z</time></trkpt><trkpt lat="44.1059929" lon="12.4866811"><ele>11.0</ele><time>2026-05-01T10:06:57.753Z</time></trkpt><trkpt lat="44.10587" lon="12.4868667"><ele>11.0</ele><time>2026-05-01T10:06:58.759Z</time></trkpt><trkpt lat="44.1057467" lon="12.4870533"><ele>11.0</ele><time>2026-05-01T10:06:59.751Z</time></trkpt><trkpt lat="44.1056267" lon="12.4872433"><ele>11.0</ele><time>2026-05-01T10:07:00.754Z</time></trkpt><trkpt lat="44.1055067" lon="12.4874367"><ele>11.333333333333332</ele><time>2026-05-01T10:07:01.751Z</time></trkpt><trkpt lat="44.1053883" lon="12.4876317"><ele>11.666666666666666</ele><time>2026-05-01T10:07:02.746Z</time></trkpt><trkpt lat="44.1052633" lon="12.48783"><ele>12.0</ele><time>2026-05-01T10:07:03.752Z</time></trkpt><trkpt lat="44.10514" lon="12.4880283"><ele>12.333333333333332</ele><time>2026-05-01T10:07:04.75Z</time></trkpt><trkpt lat="44.10502" lon="12.4882183"><ele>12.666666666666666</ele><time>2026-05-01T10:07:05.745Z</time></trkpt><trkpt lat="44.104895" lon="12.4884133"><ele>13.0</ele><time>2026-05-01T10:07:06.752Z</time></trkpt><trkpt lat="44.1047717" lon="12.4886117"><ele>12.666666666666666</ele><time>2026-05-01T10:07:07.752Z</time></trkpt><trkpt lat="44.1046467" lon="12.4888117"><ele>12.333333333333332</ele><time>2026-05-01T10:07:08.75Z</time></trkpt><trkpt lat="44.10452" lon="12.4890133"><ele>12.0</ele><time>2026-05-01T10:07:09.751Z</time></trkpt><trkpt lat="44.104395" lon="12.48921"><ele>12.0</ele><time>2026-05-01T10:07:10.752Z</time></trkpt><trkpt lat="44.1042683" lon="12.4894083"><ele>12.0</ele><time>2026-05-01T10:07:11.751Z</time></trkpt><trkpt lat="44.1041433" lon="12.4896133"><ele>12.0</ele><time>2026-05-01T10:07:12.753Z</time></trkpt><trkpt lat="44.10402" lon="12.489815"><ele>11.666666666666666</ele><time>2026-05-01T10:07:13.752Z</time></trkpt><trkpt lat="44.1039017" lon="12.490015"><ele>11.333333333333332</ele><time>2026-05-01T10:07:14.745Z</time></trkpt><trkpt lat="44.1037933" lon="12.4901967"><ele>11.0</ele><time>2026-05-01T10:07:15.757Z</time></trkpt><trkpt lat="44.1036917" lon="12.4903633"><ele>10.75</ele><time>2026-05-01T10:07:16.744Z</time></trkpt><trkpt lat="44.103595" lon="12.4905133"><ele>10.5</ele><time>2026-05-01T10:07:17.743Z</time></trkpt><trkpt lat="44.1035067" lon="12.49064"><ele>10.25</ele><time>2026-05-01T10:07:18.752Z</time></trkpt><trkpt lat="44.103425" lon="12.4907433"><ele>10.0</ele><time>2026-05-01T10:07:19.75Z</time></trkpt><trkpt lat="44.1033483" lon="12.4908167"><ele>10.0</ele><time>2026-05-01T10:07:20.751Z</time></trkpt><trkpt lat="44.10329" lon="12.49086"><ele>10.0</ele><time>2026-05-01T10:07:21.752Z</time></trkpt><trkpt lat="44.103185" lon="12.4909283"><ele>10.0</ele><time>2026-05-01T10:07:23.752Z</time></trkpt><trkpt lat="44.1031183" lon="12.490955"><ele>10.0</ele><time>2026-05-01T10:07:24.759Z</time></trkpt><trkpt lat="44.1030417" lon="12.490985"><ele>10.0</ele><time>2026-05-01T10:07:25.749Z</time></trkpt><trkpt lat="44.1029617" lon="12.4910317"><ele>10.0</ele><time>2026-05-01T10:07:26.75Z</time></trkpt><trkpt lat="44.1028933" lon="12.4911133"><ele>10.2</ele><time>2026-05-01T10:07:27.748Z</time></trkpt><trkpt lat="44.102845" lon="12.4912283"><ele>10.4</ele><time>2026-05-01T10:07:28.744Z</time></trkpt><trkpt lat="44.102815" lon="12.49136"><ele>10.600000000000001</ele><time>2026-05-01T10:07:29.742Z</time></trkpt><trkpt lat="44.1027883" lon="12.4915017"><ele>10.8</ele><time>2026-05-01T10:07:30.752Z</time></trkpt><trkpt lat="44.1027583" lon="12.491655"><ele>11.0</ele><time>2026-05-01T10:07:31.751Z</time></trkpt><trkpt lat="44.10272" lon="12.4918167"><ele>11.0</ele><time>2026-05-01T10:07:32.748Z</time></trkpt><trkpt lat="44.1026667" lon="12.4919783"><ele>11.0</ele><time>2026-05-01T10:07:33.755Z</time></trkpt><trkpt lat="44.1025917" lon="12.4921283"><ele>11.0</ele><time>2026-05-01T10:07:34.744Z</time></trkpt><trkpt lat="44.1025033" lon="12.4922783"><ele>11.0</ele><time>2026-05-01T10:07:35.749Z</time></trkpt><trkpt lat="44.1024117" lon="12.4924383"><ele>10.666666666666666</ele><time>2026-05-01T10:07:36.751Z</time></trkpt><trkpt lat="44.1023117" lon="12.4926017"><ele>10.333333333333334</ele><time>2026-05-01T10:07:37.746Z</time></trkpt><trkpt lat="44.1022017" lon="12.4927783"><ele>10.0</ele><time>2026-05-01T10:07:38.752Z</time></trkpt><trkpt lat="44.1020867" lon="12.4929683"><ele>10.0</ele><time>2026-05-01T10:07:39.749Z</time></trkpt><trkpt lat="44.1019633" lon="12.4931667"><ele>10.0</ele><time>2026-05-01T10:07:40.751Z</time></trkpt><trkpt lat="44.1018383" lon="12.4933683"><ele>10.0</ele><time>2026-05-01T10:07:41.753Z</time></trkpt><trkpt lat="44.1017117" lon="12.4935733"><ele>10.0</ele><time>2026-05-01T10:07:42.75Z</time></trkpt><trkpt lat="44.1015833" lon="12.4937833"><ele>10.0</ele><time>2026-05-01T10:07:43.751Z</time></trkpt><trkpt lat="44.1014533" lon="12.4939967"><ele>10.0</ele><time>2026-05-01T10:07:44.753Z</time></trkpt><trkpt lat="44.101325" lon="12.4942117"><ele>10.0</ele><time>2026-05-01T10:07:45.751Z</time></trkpt><trkpt lat="44.1011917" lon="12.4944317"><ele>10.0</ele><time>2026-05-01T10:07:46.752Z</time></trkpt><trkpt lat="44.101055" lon="12.4946517"><ele>10.0</ele><time>2026-05-01T10:07:47.752Z</time></trkpt><trkpt lat="44.100915" lon="12.4948733"><ele>10.333333333333334</ele><time>2026-05-01T10:07:48.745Z</time></trkpt><trkpt lat="44.100775" lon="12.4951"><ele>10.666666666666666</ele><time>2026-05-01T10:07:49.747Z</time></trkpt><trkpt lat="44.1006333" lon="12.4953317"><ele>11.0</ele><time>2026-05-01T10:07:50.754Z</time></trkpt><trkpt lat="44.1004917" lon="12.4955633"><ele>10.333333333333332</ele><time>2026-05-01T10:07:51.745Z</time></trkpt><trkpt lat="44.1003483" lon="12.49579"><ele>9.666666666666666</ele><time>2026-05-01T10:07:52.745Z</time></trkpt><trkpt lat="44.1002067" lon="12.49602"><ele>9.0</ele><time>2026-05-01T10:07:53.752Z</time></trkpt><trkpt lat="44.1000683" lon="12.4962483"><ele>9.0</ele><time>2026-05-01T10:07:54.753Z</time></trkpt><trkpt lat="44.0999283" lon="12.49648"><ele>9.0</ele><time>2026-05-01T10:07:55.755Z</time></trkpt><trkpt lat="44.0997917" lon="12.4967083"><ele>9.0</ele><time>2026-05-01T10:07:56.742Z</time></trkpt><trkpt lat="44.0996567" lon="12.4969283"><ele>8.666666666666666</ele><time>2026-05-01T10:07:57.746Z</time></trkpt><trkpt lat="44.0995233" lon="12.497145"><ele>8.333333333333332</ele><time>2026-05-01T10:07:58.744Z</time></trkpt><trkpt lat="44.09939" lon="12.4973617"><ele>8.0</ele><time>2026-05-01T10:07:59.746Z</time></trkpt><trkpt lat="44.0992583" lon="12.49758"><ele>8.0</ele><time>2026-05-01T10:08:00.746Z</time></trkpt><trkpt lat="44.0991267" lon="12.497795"><ele>8.0</ele><time>2026-05-01T10:08:01.745Z</time></trkpt><trkpt lat="44.098995" lon="12.4980067"><ele>8.0</ele><time>2026-05-01T10:08:02.746Z</time></trkpt><trkpt lat="44.0988667" lon="12.498215"><ele>8.333333333333332</ele><time>2026-05-01T10:08:03.745Z</time></trkpt><trkpt lat="44.09874" lon="12.49842"><ele>8.666666666666666</ele><time>2026-05-01T10:08:04.745Z</time></trkpt><trkpt lat="44.098615" lon="12.4986233"><ele>9.0</ele><time>2026-05-01T10:08:05.746Z</time></trkpt><trkpt lat="44.0984883" lon="12.498825"><ele>9.0</ele><time>2026-05-01T10:08:06.744Z</time></trkpt><trkpt lat="44.098365" lon="12.4990233"><ele>9.0</ele><time>2026-05-01T10:08:07.744Z</time></trkpt><trkpt lat="44.0982433" lon="12.4992233"><ele>9.0</ele><time>2026-05-01T10:08:08.746Z</time></trkpt><trkpt lat="44.098125" lon="12.4994233"><ele>9.333333333333334</ele><time>2026-05-01T10:08:09.743Z</time></trkpt><trkpt lat="44.0980067" lon="12.4996117"><ele>9.666666666666668</ele><time>2026-05-01T10:08:10.743Z</time></trkpt><trkpt lat="44.0978933" lon="12.499795"><ele>10.0</ele><time>2026-05-01T10:08:11.742Z</time></trkpt><trkpt lat="44.09778" lon="12.4999783"><ele>10.0</ele><time>2026-05-01T10:08:12.742Z</time></trkpt><trkpt lat="44.09767" lon="12.5001633"><ele>10.0</ele><time>2026-05-01T10:08:13.743Z</time></trkpt><trkpt lat="44.0975583" lon="12.5003467"><ele>10.0</ele><time>2026-05-01T10:08:14.744Z</time></trkpt><trkpt lat="44.0974483" lon="12.5005267"><ele>10.0</ele><time>2026-05-01T10:08:15.742Z</time></trkpt><trkpt lat="44.0973333" lon="12.50071"><ele>10.0</ele><time>2026-05-01T10:08:16.744Z</time></trkpt><trkpt lat="44.0972217" lon="12.500895"><ele>10.0</ele><time>2026-05-01T10:08:17.747Z</time></trkpt><trkpt lat="44.0971067" lon="12.5010817"><ele>10.0</ele><time>2026-05-01T10:08:18.742Z</time></trkpt><trkpt lat="44.09699" lon="12.501275"><ele>10.0</ele><time>2026-05-01T10:08:19.753Z</time></trkpt><trkpt lat="44.09687" lon="12.5014683"><ele>10.0</ele><time>2026-05-01T10:08:20.753Z</time></trkpt><trkpt lat="44.09675" lon="12.5016567"><ele>10.0</ele><time>2026-05-01T10:08:21.749Z</time></trkpt><trkpt lat="44.09663" lon="12.5018583"><ele>10.0</ele><time>2026-05-01T10:08:22.75Z</time></trkpt><trkpt lat="44.0965083" lon="12.5020567"><ele>10.0</ele><time>2026-05-01T10:08:23.751Z</time></trkpt><trkpt lat="44.0963817" lon="12.502255"><ele>9.333333333333334</ele><time>2026-05-01T10:08:24.753Z</time></trkpt><trkpt lat="44.0962533" lon="12.50246"><ele>8.666666666666666</ele><time>2026-05-01T10:08:25.754Z</time></trkpt><trkpt lat="44.0961233" lon="12.5026683"><ele>8.0</ele><time>2026-05-01T10:08:26.755Z</time></trkpt><trkpt lat="44.09599" lon="12.5028733"><ele>8.333333333333332</ele><time>2026-05-01T10:08:27.752Z</time></trkpt><trkpt lat="44.0958583" lon="12.5030717"><ele>8.666666666666666</ele><time>2026-05-01T10:08:28.748Z</time></trkpt><trkpt lat="44.095735" lon="12.5032633"><ele>9.0</ele><time>2026-05-01T10:08:29.748Z</time></trkpt><trkpt lat="44.09562" lon="12.5034483"><ele>9.333333333333334</ele><time>2026-05-01T10:08:30.749Z</time></trkpt><trkpt lat="44.0955133" lon="12.503625"><ele>9.666666666666668</ele><time>2026-05-01T10:08:31.749Z</time></trkpt><trkpt lat="44.09541" lon="12.50379"><ele>10.0</ele><time>2026-05-01T10:08:32.755Z</time></trkpt><trkpt lat="44.095305" lon="12.5039517"><ele>10.0</ele><time>2026-05-01T10:08:33.751Z</time></trkpt><trkpt lat="44.0952017" lon="12.5041233"><ele>10.0</ele><time>2026-05-01T10:08:34.749Z</time></trkpt><trkpt lat="44.095095" lon="12.5042933"><ele>10.0</ele><time>2026-05-01T10:08:35.751Z</time></trkpt><trkpt lat="44.0949867" lon="12.504465"><ele>9.0</ele><time>2026-05-01T10:08:36.749Z</time></trkpt><trkpt lat="44.094875" lon="12.504645"><ele>8.0</ele><time>2026-05-01T10:08:37.742Z</time></trkpt><trkpt lat="44.0947633" lon="12.5048267"><ele>7.0</ele><time>2026-05-01T10:08:38.75Z</time></trkpt><trkpt lat="44.0946467" lon="12.5050083"><ele>7.0</ele><time>2026-05-01T10:08:39.748Z</time></trkpt><trkpt lat="44.09453" lon="12.505195"><ele>7.0</ele><time>2026-05-01T10:08:40.751Z</time></trkpt><trkpt lat="44.0944117" lon="12.5053867"><ele>7.0</ele><time>2026-05-01T10:08:41.751Z</time></trkpt><trkpt lat="44.0942917" lon="12.5055783"><ele>7.333333333333334</ele><time>2026-05-01T10:08:42.749Z</time></trkpt><trkpt lat="44.0941733" lon="12.50577"><ele>7.666666666666666</ele><time>2026-05-01T10:08:43.749Z</time></trkpt><trkpt lat="44.094055" lon="12.50597"><ele>8.0</ele><time>2026-05-01T10:08:44.753Z</time></trkpt><trkpt lat="44.0939417" lon="12.5061633"><ele>8.333333333333332</ele><time>2026-05-01T10:08:45.747Z</time></trkpt><trkpt lat="44.09382" lon="12.5063567"><ele>8.666666666666666</ele><time>2026-05-01T10:08:46.743Z</time></trkpt><trkpt lat="44.0937017" lon="12.5065583"><ele>9.0</ele><time>2026-05-01T10:08:47.747Z</time></trkpt><trkpt lat="44.0935783" lon="12.5067633"><ele>9.0</ele><time>2026-05-01T10:08:48.753Z</time></trkpt><trkpt lat="44.093455" lon="12.506965"><ele>9.0</ele><time>2026-05-01T10:08:49.747Z</time></trkpt><trkpt lat="44.0933283" lon="12.507165"><ele>9.0</ele><time>2026-05-01T10:08:50.756Z</time></trkpt><trkpt lat="44.0932033" lon="12.507365"><ele>9.0</ele><time>2026-05-01T10:08:51.751Z</time></trkpt><trkpt lat="44.0930817" lon="12.5075567"><ele>9.0</ele><time>2026-05-01T10:08:52.756Z</time></trkpt><trkpt lat="44.0929633" lon="12.5077483"><ele>9.0</ele><time>2026-05-01T10:08:53.752Z</time></trkpt><trkpt lat="44.0928483" lon="12.50793"><ele>9.0</ele><time>2026-05-01T10:08:54.752Z</time></trkpt><trkpt lat="44.0927383" lon="12.5081017"><ele>9.0</ele><time>2026-05-01T10:08:55.753Z</time></trkpt><trkpt lat="44.09264" lon="12.50827"><ele>9.0</ele><time>2026-05-01T10:08:56.754Z</time></trkpt><trkpt lat="44.092545" lon="12.508435"><ele>9.0</ele><time>2026-05-01T10:08:57.749Z</time></trkpt><trkpt lat="44.0924517" lon="12.508595"><ele>9.0</ele><time>2026-05-01T10:08:58.752Z</time></trkpt><trkpt lat="44.0923617" lon="12.5087483"><ele>9.0</ele><time>2026-05-01T10:08:59.749Z</time></trkpt><trkpt lat="44.09228" lon="12.508895"><ele>9.0</ele><time>2026-05-01T10:09:00.75Z</time></trkpt><trkpt lat="44.0922167" lon="12.5090417"><ele>8.8</ele><time>2026-05-01T10:09:01.753Z</time></trkpt><trkpt lat="44.0921683" lon="12.5091833"><ele>8.600000000000001</ele><time>2026-05-01T10:09:02.754Z</time></trkpt><trkpt lat="44.0921317" lon="12.5093133"><ele>8.4</ele><time>2026-05-01T10:09:03.749Z</time></trkpt><trkpt lat="44.0920883" lon="12.5094267"><ele>8.200000000000001</ele><time>2026-05-01T10:09:04.751Z</time></trkpt><trkpt lat="44.092035" lon="12.509525"><ele>8.0</ele><time>2026-05-01T10:09:05.751Z</time></trkpt><trkpt lat="44.091965" lon="12.5096033"><ele>8.4</ele><time>2026-05-01T10:09:06.752Z</time></trkpt><trkpt lat="44.0918917" lon="12.5096683"><ele>8.8</ele><time>2026-05-01T10:09:07.755Z</time></trkpt><trkpt lat="44.09182" lon="12.509745"><ele>9.2</ele><time>2026-05-01T10:09:08.752Z</time></trkpt><trkpt lat="44.0917583" lon="12.5098417"><ele>9.6</ele><time>2026-05-01T10:09:09.753Z</time></trkpt><trkpt lat="44.0917" lon="12.5099583"><ele>10.0</ele><time>2026-05-01T10:09:10.751Z</time></trkpt><trkpt lat="44.0916383" lon="12.510075"><ele>10.0</ele><time>2026-05-01T10:09:11.749Z</time></trkpt><trkpt lat="44.09157" lon="12.5101833"><ele>10.0</ele><time>2026-05-01T10:09:12.743Z</time></trkpt><trkpt lat="44.0914933" lon="12.5102883"><ele>10.0</ele><time>2026-05-01T10:09:13.746Z</time></trkpt><trkpt lat="44.09141" lon="12.5103967"><ele>10.0</ele><time>2026-05-01T10:09:14.75Z</time></trkpt><trkpt lat="44.09132" lon="12.5105167"><ele>10.0</ele><time>2026-05-01T10:09:15.752Z</time></trkpt><trkpt lat="44.0912317" lon="12.5106517"><ele>10.0</ele><time>2026-05-01T10:09:16.752Z</time></trkpt><trkpt lat="44.091145" lon="12.5107883"><ele>10.0</ele><time>2026-05-01T10:09:17.742Z</time></trkpt><trkpt lat="44.091055" lon="12.51093"><ele>10.0</ele><time>2026-05-01T10:09:18.745Z</time></trkpt><trkpt lat="44.0909617" lon="12.5110817"><ele>10.0</ele><time>2026-05-01T10:09:19.753Z</time></trkpt><trkpt lat="44.090865" lon="12.51124"><ele>10.0</ele><time>2026-05-01T10:09:20.755Z</time></trkpt><trkpt lat="44.0907667" lon="12.5114"><ele>10.0</ele><time>2026-05-01T10:09:21.746Z</time></trkpt><trkpt lat="44.0906667" lon="12.5115583"><ele>10.333333333333334</ele><time>2026-05-01T10:09:22.748Z</time></trkpt><trkpt lat="44.0905667" lon="12.5117167"><ele>10.666666666666666</ele><time>2026-05-01T10:09:23.749Z</time></trkpt><trkpt lat="44.0904683" lon="12.511875"><ele>11.0</ele><time>2026-05-01T10:09:24.746Z</time></trkpt><trkpt lat="44.09037" lon="12.5120333"><ele>10.5</ele><time>2026-05-01T10:09:25.743Z</time></trkpt><trkpt lat="44.0902717" lon="12.5121883"><ele>10.0</ele><time>2026-05-01T10:09:26.754Z</time></trkpt><trkpt lat="44.0901783" lon="12.51234"><ele>9.5</ele><time>2026-05-01T10:09:27.748Z</time></trkpt><trkpt lat="44.0900867" lon="12.512485"><ele>9.0</ele><time>2026-05-01T10:09:28.748Z</time></trkpt><trkpt lat="44.0899983" lon="12.5126283"><ele>9.25</ele><time>2026-05-01T10:09:29.752Z</time></trkpt><trkpt lat="44.0899133" lon="12.5127733"><ele>9.5</ele><time>2026-05-01T10:09:30.753Z</time></trkpt><trkpt lat="44.0898267" lon="12.5129167"><ele>9.75</ele><time>2026-05-01T10:09:31.75Z</time></trkpt><trkpt lat="44.0897417" lon="12.5130567"><ele>10.0</ele><time>2026-05-01T10:09:32.751Z</time></trkpt><trkpt lat="44.0896583" lon="12.5131917"><ele>10.0</ele><time>2026-05-01T10:09:33.749Z</time></trkpt><trkpt lat="44.089575" lon="12.5133283"><ele>10.0</ele><time>2026-05-01T10:09:34.75Z</time></trkpt><trkpt lat="44.0894933" lon="12.5134633"><ele>10.0</ele><time>2026-05-01T10:09:35.751Z</time></trkpt><trkpt lat="44.0894117" lon="12.5136017"><ele>10.0</ele><time>2026-05-01T10:09:36.749Z</time></trkpt><trkpt lat="44.08933" lon="12.5137467"><ele>10.0</ele><time>2026-05-01T10:09:37.742Z</time></trkpt><trkpt lat="44.0892417" lon="12.5138983"><ele>10.0</ele><time>2026-05-01T10:09:38.754Z</time></trkpt><trkpt lat="44.0891467" lon="12.514055"><ele>10.0</ele><time>2026-05-01T10:09:39.749Z</time></trkpt><trkpt lat="44.0890467" lon="12.5142167"><ele>10.0</ele><time>2026-05-01T10:09:40.747Z</time></trkpt><trkpt lat="44.0889417" lon="12.5143867"><ele>10.0</ele><time>2026-05-01T10:09:41.753Z</time></trkpt><trkpt lat="44.0888283" lon="12.514565"><ele>10.0</ele><time>2026-05-01T10:09:42.75Z</time></trkpt><trkpt lat="44.088715" lon="12.5147467"><ele>10.0</ele><time>2026-05-01T10:09:43.76Z</time></trkpt><trkpt lat="44.0885967" lon="12.5149317"><ele>10.0</ele><time>2026-05-01T10:09:44.744Z</time></trkpt><trkpt lat="44.08848" lon="12.515125"><ele>10.0</ele><time>2026-05-01T10:09:45.75Z</time></trkpt><trkpt lat="44.0883583" lon="12.5153183"><ele>10.0</ele><time>2026-05-01T10:09:46.749Z</time></trkpt><trkpt lat="44.0882367" lon="12.515515"><ele>10.0</ele><time>2026-05-01T10:09:47.748Z</time></trkpt><trkpt lat="44.0881133" lon="12.5157133"><ele>10.0</ele><time>2026-05-01T10:09:48.75Z</time></trkpt><trkpt lat="44.0879917" lon="12.51591"><ele>10.0</ele><time>2026-05-01T10:09:49.75Z</time></trkpt><trkpt lat="44.0878683" lon="12.516105"><ele>10.666666666666668</ele><time>2026-05-01T10:09:50.748Z</time></trkpt><trkpt lat="44.08775" lon="12.5162983"><ele>11.333333333333334</ele><time>2026-05-01T10:09:51.756Z</time></trkpt><trkpt lat="44.0876333" lon="12.5164917"><ele>12.0</ele><time>2026-05-01T10:09:52.748Z</time></trkpt><trkpt lat="44.0875133" lon="12.5166833"><ele>11.666666666666666</ele><time>2026-05-01T10:09:53.75Z</time></trkpt><trkpt lat="44.087395" lon="12.5168817"><ele>11.333333333333332</ele><time>2026-05-01T10:09:54.752Z</time></trkpt><trkpt lat="44.0872767" lon="12.51708"><ele>11.0</ele><time>2026-05-01T10:09:55.748Z</time></trkpt><trkpt lat="44.087155" lon="12.5172783"><ele>11.0</ele><time>2026-05-01T10:09:56.756Z</time></trkpt><trkpt lat="44.0870333" lon="12.5174833"><ele>11.0</ele><time>2026-05-01T10:09:57.751Z</time></trkpt><trkpt lat="44.0869083" lon="12.517685"><ele>11.0</ele><time>2026-05-01T10:09:58.752Z</time></trkpt><trkpt lat="44.086783" lon="12.517888"><ele>11.0</ele><time>2026-05-01T10:09:59.751Z</time></trkpt><trkpt lat="44.0866573" lon="12.5180934"><ele>11.0</ele><time>2026-05-01T10:10:00.751Z</time></trkpt><trkpt lat="44.0865323" lon="12.5182976"><ele>11.0</ele><time>2026-05-01T10:10:01.75Z</time></trkpt><trkpt lat="44.0864114" lon="12.5185033"><ele>11.0</ele><time>2026-05-01T10:10:02.752Z</time></trkpt><trkpt lat="44.086292" lon="12.5187103"><ele>11.0</ele><time>2026-05-01T10:10:03.754Z</time></trkpt><trkpt lat="44.0861739" lon="12.5189226"><ele>11.0</ele><time>2026-05-01T10:10:04.751Z</time></trkpt><trkpt lat="44.0860538" lon="12.519138"><ele>11.333333333333332</ele><time>2026-05-01T10:10:05.756Z</time></trkpt><trkpt lat="44.0859297" lon="12.5193495"><ele>11.666666666666666</ele><time>2026-05-01T10:10:06.749Z</time></trkpt><trkpt lat="44.0857983" lon="12.5195568"><ele>12.0</ele><time>2026-05-01T10:10:07.755Z</time></trkpt><trkpt lat="44.085662" lon="12.5197543"><ele>11.333333333333334</ele><time>2026-05-01T10:10:08.76Z</time></trkpt><trkpt lat="44.0855213" lon="12.51994"><ele>10.666666666666668</ele><time>2026-05-01T10:10:09.758Z</time></trkpt><trkpt lat="44.0853769" lon="12.5201161"><ele>10.0</ele><time>2026-05-01T10:10:10.748Z</time></trkpt><trkpt lat="44.0852269" lon="12.5202838"><ele>10.0</ele><time>2026-05-01T10:10:11.748Z</time></trkpt><trkpt lat="44.085073" lon="12.5204431"><ele>10.0</ele><time>2026-05-01T10:10:12.754Z</time></trkpt><trkpt lat="44.0849178" lon="12.5206"><ele>10.0</ele><time>2026-05-01T10:10:13.753Z</time></trkpt><trkpt lat="44.0847606" lon="12.5207562"><ele>10.0</ele><time>2026-05-01T10:10:14.752Z</time></trkpt><trkpt lat="44.0846015" lon="12.5209112"><ele>10.0</ele><time>2026-05-01T10:10:15.752Z</time></trkpt><trkpt lat="44.0844402" lon="12.5210714"><ele>10.0</ele><time>2026-05-01T10:10:16.757Z</time></trkpt><trkpt lat="44.0842729" lon="12.5212404"><ele>9.666666666666668</ele><time>2026-05-01T10:10:17.754Z</time></trkpt><trkpt lat="44.0840961" lon="12.5214096"><ele>9.333333333333334</ele><time>2026-05-01T10:10:18.755Z</time></trkpt><trkpt lat="44.0839172" lon="12.5215764"><ele>9.0</ele><time>2026-05-01T10:10:19.747Z</time></trkpt><trkpt lat="44.083736" lon="12.521744"><ele>9.0</ele><time>2026-05-01T10:10:20.75Z</time></trkpt><trkpt lat="44.0835541" lon="12.5219148"><ele>9.0</ele><time>2026-05-01T10:10:21.754Z</time></trkpt><trkpt lat="44.0833754" lon="12.5220869"><ele>9.0</ele><time>2026-05-01T10:10:22.752Z</time></trkpt><trkpt lat="44.0832003" lon="12.5222607"><ele>9.0</ele><time>2026-05-01T10:10:23.744Z</time></trkpt><trkpt lat="44.0830296" lon="12.5224414"><ele>9.0</ele><time>2026-05-01T10:10:24.751Z</time></trkpt><trkpt lat="44.0828664" lon="12.5226302"><ele>9.0</ele><time>2026-05-01T10:10:25.751Z</time></trkpt><trkpt lat="44.0827127" lon="12.5228271"><ele>9.333333333333334</ele><time>2026-05-01T10:10:26.747Z</time></trkpt><trkpt lat="44.0825671" lon="12.5230332"><ele>9.666666666666668</ele><time>2026-05-01T10:10:27.753Z</time></trkpt><trkpt lat="44.08243" lon="12.52325"><ele>10.0</ele><time>2026-05-01T10:10:28.754Z</time></trkpt><trkpt lat="44.0822983" lon="12.5234783"><ele>9.666666666666668</ele><time>2026-05-01T10:10:29.751Z</time></trkpt><trkpt lat="44.0821733" lon="12.5237117"><ele>9.333333333333334</ele><time>2026-05-01T10:10:30.755Z</time></trkpt><trkpt lat="44.0820533" lon="12.5239483"><ele>9.0</ele><time>2026-05-01T10:10:31.749Z</time></trkpt><trkpt lat="44.081935" lon="12.5241833"><ele>9.0</ele><time>2026-05-01T10:10:32.753Z</time></trkpt><trkpt lat="44.0818217" lon="12.5244183"><ele>9.0</ele><time>2026-05-01T10:10:33.755Z</time></trkpt><trkpt lat="44.0817117" lon="12.524655"><ele>9.0</ele><time>2026-05-01T10:10:34.753Z</time></trkpt><trkpt lat="44.081605" lon="12.5248867"><ele>8.666666666666666</ele><time>2026-05-01T10:10:35.746Z</time></trkpt><trkpt lat="44.0814983" lon="12.5251183"><ele>8.333333333333332</ele><time>2026-05-01T10:10:36.755Z</time></trkpt><trkpt lat="44.0813933" lon="12.52535"><ele>8.0</ele><time>2026-05-01T10:10:37.753Z</time></trkpt><trkpt lat="44.0812883" lon="12.5255867"><ele>8.0</ele><time>2026-05-01T10:10:38.749Z</time></trkpt><trkpt lat="44.0811767" lon="12.5258283"><ele>8.0</ele><time>2026-05-01T10:10:39.743Z</time></trkpt><trkpt lat="44.0810633" lon="12.5260767"><ele>8.0</ele><time>2026-05-01T10:10:40.752Z</time></trkpt><trkpt lat="44.0809467" lon="12.5263317"><ele>8.0</ele><time>2026-05-01T10:10:41.756Z</time></trkpt><trkpt lat="44.080825" lon="12.52659"><ele>8.0</ele><time>2026-05-01T10:10:42.753Z</time></trkpt><trkpt lat="44.0806967" lon="12.52685"><ele>8.0</ele><time>2026-05-01T10:10:43.749Z</time></trkpt><trkpt lat="44.0805683" lon="12.5271083"><ele>8.666666666666666</ele><time>2026-05-01T10:10:44.752Z</time></trkpt><trkpt lat="44.0804417" lon="12.5273667"><ele>9.333333333333334</ele><time>2026-05-01T10:10:45.748Z</time></trkpt><trkpt lat="44.0803133" lon="12.5276233"><ele>10.0</ele><time>2026-05-01T10:10:46.751Z</time></trkpt><trkpt lat="44.080185" lon="12.5278817"><ele>10.0</ele><time>2026-05-01T10:10:47.755Z</time></trkpt><trkpt lat="44.0800567" lon="12.52814"><ele>10.0</ele><time>2026-05-01T10:10:48.744Z</time></trkpt><trkpt lat="44.0799267" lon="12.5283983"><ele>10.0</ele><time>2026-05-01T10:10:49.753Z</time></trkpt><trkpt lat="44.0797917" lon="12.528655"><ele>10.0</ele><time>2026-05-01T10:10:50.746Z</time></trkpt><trkpt lat="44.0796567" lon="12.52891"><ele>9.5</ele><time>2026-05-01T10:10:51.749Z</time></trkpt><trkpt lat="44.0795167" lon="12.52916"><ele>9.0</ele><time>2026-05-01T10:10:52.751Z</time></trkpt><trkpt lat="44.079375" lon="12.5294083"><ele>9.0</ele><time>2026-05-01T10:10:53.753Z</time></trkpt><trkpt lat="44.0792333" lon="12.5296583"><ele>9.0</ele><time>2026-05-01T10:10:54.744Z</time></trkpt><trkpt lat="44.0790917" lon="12.5299083"><ele>8.5</ele><time>2026-05-01T10:10:55.753Z</time></trkpt><trkpt lat="44.0789517" lon="12.53016"><ele>8.0</ele><time>2026-05-01T10:10:56.754Z</time></trkpt><trkpt lat="44.0788067" lon="12.5304083"><ele>8.0</ele><time>2026-05-01T10:10:57.751Z</time></trkpt><trkpt lat="44.0786633" lon="12.5306583"><ele>8.0</ele><time>2026-05-01T10:10:58.751Z</time></trkpt><trkpt lat="44.07852" lon="12.5309067"><ele>8.0</ele><time>2026-05-01T10:10:59.743Z</time></trkpt><trkpt lat="44.07838" lon="12.5311567"><ele>8.0</ele><time>2026-05-01T10:11:00.747Z</time></trkpt><trkpt lat="44.07824" lon="12.5314067"><ele>9.0</ele><time>2026-05-01T10:11:01.761Z</time></trkpt><trkpt lat="44.0781" lon="12.531655"><ele>10.0</ele><time>2026-05-01T10:11:02.757Z</time></trkpt><trkpt lat="44.07796" lon="12.5319017"><ele>9.666666666666668</ele><time>2026-05-01T10:11:03.752Z</time></trkpt><trkpt lat="44.07782" lon="12.532145"><ele>9.333333333333334</ele><time>2026-05-01T10:11:04.75Z</time></trkpt><trkpt lat="44.0776817" lon="12.5323867"><ele>9.0</ele><time>2026-05-01T10:11:05.753Z</time></trkpt><trkpt lat="44.0775433" lon="12.532625"><ele>9.0</ele><time>2026-05-01T10:11:06.754Z</time></trkpt><trkpt lat="44.0774017" lon="12.53286"><ele>9.0</ele><time>2026-05-01T10:11:07.755Z</time></trkpt><trkpt lat="44.07726" lon="12.5330933"><ele>9.0</ele><time>2026-05-01T10:11:08.754Z</time></trkpt><trkpt lat="44.0771167" lon="12.5333267"><ele>9.0</ele><time>2026-05-01T10:11:09.753Z</time></trkpt><trkpt lat="44.0769733" lon="12.53356"><ele>9.0</ele><time>2026-05-01T10:11:10.751Z</time></trkpt><trkpt lat="44.0768317" lon="12.533795"><ele>9.0</ele><time>2026-05-01T10:11:11.758Z</time></trkpt><trkpt lat="44.07669" lon="12.53403"><ele>8.666666666666666</ele><time>2026-05-01T10:11:12.754Z</time></trkpt><trkpt lat="44.076545" lon="12.534265"><ele>8.333333333333332</ele><time>2026-05-01T10:11:13.748Z</time></trkpt><trkpt lat="44.0764017" lon="12.5345017"><ele>8.0</ele><time>2026-05-01T10:11:14.745Z</time></trkpt><trkpt lat="44.0762583" lon="12.5347367"><ele>8.0</ele><time>2026-05-01T10:11:15.753Z</time></trkpt><trkpt lat="44.0761117" lon="12.5349733"><ele>8.0</ele><time>2026-05-01T10:11:16.75Z</time></trkpt><trkpt lat="44.0759667" lon="12.5352083"><ele>8.0</ele><time>2026-05-01T10:11:17.753Z</time></trkpt><trkpt lat="44.0758217" lon="12.5354483"><ele>8.0</ele><time>2026-05-01T10:11:18.752Z</time></trkpt><trkpt lat="44.0756783" lon="12.5356867"><ele>8.0</ele><time>2026-05-01T10:11:19.752Z</time></trkpt><trkpt lat="44.075535" lon="12.535925"><ele>8.0</ele><time>2026-05-01T10:11:20.759Z</time></trkpt><trkpt lat="44.0753917" lon="12.5361617"><ele>7.666666666666666</ele><time>2026-05-01T10:11:21.753Z</time></trkpt><trkpt lat="44.0752483" lon="12.536395"><ele>7.333333333333334</ele><time>2026-05-01T10:11:22.752Z</time></trkpt><trkpt lat="44.0750967" lon="12.53662"><ele>7.0</ele><time>2026-05-01T10:11:23.754Z</time></trkpt><trkpt lat="44.0749433" lon="12.536835"><ele>7.0</ele><time>2026-05-01T10:11:24.755Z</time></trkpt><trkpt lat="44.0747883" lon="12.537045"><ele>7.0</ele><time>2026-05-01T10:11:25.755Z</time></trkpt><trkpt lat="44.07463" lon="12.53725"><ele>7.0</ele><time>2026-05-01T10:11:26.754Z</time></trkpt><trkpt lat="44.07447" lon="12.53745"><ele>7.0</ele><time>2026-05-01T10:11:27.753Z</time></trkpt><trkpt lat="44.0743067" lon="12.5376467"><ele>7.0</ele><time>2026-05-01T10:11:28.745Z</time></trkpt><trkpt lat="44.0741417" lon="12.5378383"><ele>7.0</ele><time>2026-05-01T10:11:29.753Z</time></trkpt><trkpt lat="44.0739733" lon="12.5380283"><ele>7.0</ele><time>2026-05-01T10:11:30.751Z</time></trkpt><trkpt lat="44.0738033" lon="12.5382133"><ele>7.0</ele><time>2026-05-01T10:11:31.756Z</time></trkpt><trkpt lat="44.07363" lon="12.5383933"><ele>7.0</ele><time>2026-05-01T10:11:32.743Z</time></trkpt><trkpt lat="44.0734517" lon="12.53857"><ele>7.0</ele><time>2026-05-01T10:11:33.749Z</time></trkpt><trkpt lat="44.07327" lon="12.53874"><ele>7.0</ele><time>2026-05-01T10:11:34.749Z</time></trkpt><trkpt lat="44.0730867" lon="12.5389033"><ele>7.0</ele><time>2026-05-01T10:11:35.753Z</time></trkpt><trkpt lat="44.0729" lon="12.5390617"><ele>7.0</ele><time>2026-05-01T10:11:36.752Z</time></trkpt><trkpt lat="44.0727117" lon="12.53922"><ele>7.0</ele><time>2026-05-01T10:11:37.751Z</time></trkpt><trkpt lat="44.0725167" lon="12.539375"><ele>7.0</ele><time>2026-05-01T10:11:38.757Z</time></trkpt><trkpt lat="44.0723183" lon="12.539525"><ele>7.0</ele><time>2026-05-01T10:11:39.744Z</time></trkpt><trkpt lat="44.072115" lon="12.53967"><ele>7.0</ele><time>2026-05-01T10:11:40.755Z</time></trkpt><trkpt lat="44.0719067" lon="12.5398067"><ele>7.0</ele><time>2026-05-01T10:11:41.755Z</time></trkpt><trkpt lat="44.0716933" lon="12.5399317"><ele>7.0</ele><time>2026-05-01T10:11:42.754Z</time></trkpt><trkpt lat="44.07148" lon="12.540055"><ele>7.5</ele><time>2026-05-01T10:11:43.754Z</time></trkpt><trkpt lat="44.0712633" lon="12.540175"><ele>8.0</ele><time>2026-05-01T10:11:44.746Z</time></trkpt><trkpt lat="44.0710433" lon="12.5402883"><ele>8.5</ele><time>2026-05-01T10:11:45.744Z</time></trkpt><trkpt lat="44.0708167" lon="12.540395"><ele>9.0</ele><time>2026-05-01T10:11:46.751Z</time></trkpt><trkpt lat="44.07059" lon="12.5404917"><ele>9.0</ele><time>2026-05-01T10:11:47.756Z</time></trkpt><trkpt lat="44.07036" lon="12.5405833"><ele>9.0</ele><time>2026-05-01T10:11:48.754Z</time></trkpt><trkpt lat="44.0701283" lon="12.54067"><ele>8.0</ele><time>2026-05-01T10:11:49.759Z</time></trkpt><trkpt lat="44.0698983" lon="12.540745"><ele>7.0</ele><time>2026-05-01T10:11:50.75Z</time></trkpt><trkpt lat="44.069665" lon="12.5408117"><ele>7.0</ele><time>2026-05-01T10:11:51.755Z</time></trkpt><trkpt lat="44.0694317" lon="12.54087"><ele>7.0</ele><time>2026-05-01T10:11:52.759Z</time></trkpt><trkpt lat="44.0692" lon="12.5409217"><ele>7.5</ele><time>2026-05-01T10:11:53.755Z</time></trkpt><trkpt lat="44.0689683" lon="12.5409667"><ele>8.0</ele><time>2026-05-01T10:11:54.753Z</time></trkpt><trkpt lat="44.0687333" lon="12.5410067"><ele>8.0</ele><time>2026-05-01T10:11:55.749Z</time></trkpt><trkpt lat="44.0685017" lon="12.54104"><ele>8.0</ele><time>2026-05-01T10:11:56.753Z</time></trkpt><trkpt lat="44.0682683" lon="12.54107"><ele>7.5</ele><time>2026-05-01T10:11:57.742Z</time></trkpt><trkpt lat="44.068035" lon="12.5410983"><ele>7.0</ele><time>2026-05-01T10:11:58.744Z</time></trkpt><trkpt lat="44.0678017" lon="12.5411267"><ele>7.0</ele><time>2026-05-01T10:11:59.75Z</time></trkpt><trkpt lat="44.0675717" lon="12.5411517"><ele>7.0</ele><time>2026-05-01T10:12:00.749Z</time></trkpt><trkpt lat="44.0673433" lon="12.5411767"><ele>8.0</ele><time>2026-05-01T10:12:01.751Z</time></trkpt><trkpt lat="44.0671183" lon="12.5412083"><ele>9.0</ele><time>2026-05-01T10:12:02.751Z</time></trkpt><trkpt lat="44.066895" lon="12.541235"><ele>9.0</ele><time>2026-05-01T10:12:03.751Z</time></trkpt><trkpt lat="44.066675" lon="12.54126"><ele>9.0</ele><time>2026-05-01T10:12:04.742Z</time></trkpt><trkpt lat="44.0664633" lon="12.541285"><ele>9.0</ele><time>2026-05-01T10:12:05.744Z</time></trkpt><trkpt lat="44.0662567" lon="12.54131"><ele>9.0</ele><time>2026-05-01T10:12:06.743Z</time></trkpt><trkpt lat="44.0660567" lon="12.5413367"><ele>9.0</ele><time>2026-05-01T10:12:07.752Z</time></trkpt><trkpt lat="44.065865" lon="12.5413583"><ele>9.0</ele><time>2026-05-01T10:12:08.749Z</time></trkpt><trkpt lat="44.06568" lon="12.54138"><ele>8.666666666666666</ele><time>2026-05-01T10:12:09.754Z</time></trkpt><trkpt lat="44.0655033" lon="12.5414"><ele>8.333333333333332</ele><time>2026-05-01T10:12:10.75Z</time></trkpt><trkpt lat="44.0653367" lon="12.54142"><ele>8.0</ele><time>2026-05-01T10:12:11.754Z</time></trkpt><trkpt lat="44.0651817" lon="12.5414383"><ele>8.0</ele><time>2026-05-01T10:12:12.747Z</time></trkpt><trkpt lat="44.065035" lon="12.5414517"><ele>8.0</ele><time>2026-05-01T10:12:13.744Z</time></trkpt><trkpt lat="44.0648967" lon="12.5414633"><ele>8.0</ele><time>2026-05-01T10:12:14.751Z</time></trkpt><trkpt lat="44.0647667" lon="12.5414667"><ele>8.0</ele><time>2026-05-01T10:12:15.75Z</time></trkpt><trkpt lat="44.0646567" lon="12.541455"><ele>7.800000000000001</ele><time>2026-05-01T10:12:16.751Z</time></trkpt><trkpt lat="44.064565" lon="12.5414317"><ele>7.6000000000000005</ele><time>2026-05-01T10:12:17.748Z</time></trkpt><trkpt lat="44.0644917" lon="12.5414017"><ele>7.3999999999999995</ele><time>2026-05-01T10:12:18.754Z</time></trkpt><trkpt lat="44.0644" lon="12.541345"><ele>7.199999999999999</ele><time>2026-05-01T10:12:20.745Z</time></trkpt><trkpt lat="44.06435" lon="12.541275"><ele>7.0</ele><time>2026-05-01T10:12:22.744Z</time></trkpt><trkpt lat="44.0642833" lon="12.5411417"><ele>7.0</ele><time>2026-05-01T10:12:24.744Z</time></trkpt><trkpt lat="44.064255" lon="12.5410583"><ele>7.0</ele><time>2026-05-01T10:12:25.743Z</time></trkpt><trkpt lat="44.0642183" lon="12.5409733"><ele>7.0</ele><time>2026-05-01T10:12:26.744Z</time></trkpt><trkpt lat="44.0641683" lon="12.5409033"><ele>7.0</ele><time>2026-05-01T10:12:27.743Z</time></trkpt><trkpt lat="44.0641067" lon="12.5408467"><ele>7.0</ele><time>2026-05-01T10:12:28.743Z</time></trkpt><trkpt lat="44.0640283" lon="12.540815"><ele>7.0</ele><time>2026-05-01T10:12:29.743Z</time></trkpt><trkpt lat="44.063945" lon="12.54081"><ele>7.0</ele><time>2026-05-01T10:12:30.743Z</time></trkpt><trkpt lat="44.06387" lon="12.5408283"><ele>7.000000000000001</ele><time>2026-05-01T10:12:31.743Z</time></trkpt><trkpt lat="44.0638" lon="12.5408833"><ele>7.0</ele><time>2026-05-01T10:12:32.743Z</time></trkpt><trkpt lat="44.0637417" lon="12.5409683"><ele>7.0</ele><time>2026-05-01T10:12:33.742Z</time></trkpt><trkpt lat="44.0637133" lon="12.54107"><ele>7.0</ele><time>2026-05-01T10:12:34.744Z</time></trkpt><trkpt lat="44.0636783" lon="12.541195"><ele>7.000000000000001</ele><time>2026-05-01T10:12:35.743Z</time></trkpt><trkpt lat="44.0636333" lon="12.5413233"><ele>7.0</ele><time>2026-05-01T10:12:36.742Z</time></trkpt><trkpt lat="44.063575" lon="12.5414383"><ele>6.8</ele><time>2026-05-01T10:12:37.743Z</time></trkpt><trkpt lat="44.0634967" lon="12.54153"><ele>6.6</ele><time>2026-05-01T10:12:38.742Z</time></trkpt><trkpt lat="44.0634017" lon="12.5416"><ele>6.3999999999999995</ele><time>2026-05-01T10:12:39.744Z</time></trkpt><trkpt lat="44.063295" lon="12.54165"><ele>6.199999999999999</ele><time>2026-05-01T10:12:40.742Z</time></trkpt><trkpt lat="44.0631733" lon="12.541685"><ele>6.0</ele><time>2026-05-01T10:12:41.745Z</time></trkpt><trkpt lat="44.0630433" lon="12.5417117"><ele>5.666666666666667</ele><time>2026-05-01T10:12:42.75Z</time></trkpt><trkpt lat="44.0628917" lon="12.5417333"><ele>5.333333333333334</ele><time>2026-05-01T10:12:43.753Z</time></trkpt><trkpt lat="44.06273" lon="12.5417533"><ele>5.0</ele><time>2026-05-01T10:12:44.751Z</time></trkpt><trkpt lat="44.0625683" lon="12.541765"><ele>4.333333333333334</ele><time>2026-05-01T10:12:45.75Z</time></trkpt><trkpt lat="44.0624033" lon="12.5417767"><ele>3.666666666666667</ele><time>2026-05-01T10:12:46.755Z</time></trkpt><trkpt lat="44.06223" lon="12.54179"><ele>3.0</ele><time>2026-05-01T10:12:47.747Z</time></trkpt><trkpt lat="44.06205" lon="12.54181"><ele>3.0</ele><time>2026-05-01T10:12:48.752Z</time></trkpt><trkpt lat="44.0618717" lon="12.5418267"><ele>3.0</ele><time>2026-05-01T10:12:49.753Z</time></trkpt><trkpt lat="44.0616883" lon="12.541845"><ele>3.0</ele><time>2026-05-01T10:12:50.747Z</time></trkpt><trkpt lat="44.0614967" lon="12.5418633"><ele>3.333333333333333</ele><time>2026-05-01T10:12:51.749Z</time></trkpt><trkpt lat="44.061305" lon="12.541885"><ele>3.6666666666666665</ele><time>2026-05-01T10:12:52.75Z</time></trkpt><trkpt lat="44.0611083" lon="12.5419067"><ele>4.0</ele><time>2026-05-01T10:12:53.752Z</time></trkpt><trkpt lat="44.06091" lon="12.5419317"><ele>5.333333333333333</ele><time>2026-05-01T10:12:54.754Z</time></trkpt><trkpt lat="44.0607083" lon="12.5419567"><ele>6.666666666666666</ele><time>2026-05-01T10:12:55.751Z</time></trkpt><trkpt lat="44.060505" lon="12.5419817"><ele>8.0</ele><time>2026-05-01T10:12:56.744Z</time></trkpt><trkpt lat="44.0603" lon="12.5420033"><ele>8.0</ele><time>2026-05-01T10:12:57.751Z</time></trkpt><trkpt lat="44.0600933" lon="12.5420267"><ele>8.0</ele><time>2026-05-01T10:12:58.749Z</time></trkpt><trkpt lat="44.0598867" lon="12.5420533"><ele>8.0</ele><time>2026-05-01T10:12:59.754Z</time></trkpt><trkpt lat="44.0596767" lon="12.5420767"><ele>8.0</ele><time>2026-05-01T10:13:00.753Z</time></trkpt><trkpt lat="44.0594667" lon="12.542095"><ele>8.0</ele><time>2026-05-01T10:13:01.754Z</time></trkpt><trkpt lat="44.0592533" lon="12.5421167"><ele>8.0</ele><time>2026-05-01T10:13:02.758Z</time></trkpt><trkpt lat="44.0590367" lon="12.5421367"><ele>8.666666666666666</ele><time>2026-05-01T10:13:03.762Z</time></trkpt><trkpt lat="44.05882" lon="12.5421583"><ele>9.333333333333334</ele><time>2026-05-01T10:13:04.749Z</time></trkpt><trkpt lat="44.0586017" lon="12.5421833"><ele>10.0</ele><time>2026-05-01T10:13:05.751Z</time></trkpt><trkpt lat="44.0583917" lon="12.5422117"><ele>10.666666666666668</ele><time>2026-05-01T10:13:06.75Z</time></trkpt><trkpt lat="44.0581817" lon="12.5422383"><ele>11.333333333333334</ele><time>2026-05-01T10:13:07.752Z</time></trkpt><trkpt lat="44.0579733" lon="12.5422683"><ele>12.0</ele><time>2026-05-01T10:13:08.752Z</time></trkpt><trkpt lat="44.0577617" lon="12.542295"><ele>12.0</ele><time>2026-05-01T10:13:09.748Z</time></trkpt><trkpt lat="44.0575533" lon="12.5423233"><ele>12.0</ele><time>2026-05-01T10:13:10.758Z</time></trkpt><trkpt lat="44.0573417" lon="12.5423517"><ele>12.0</ele><time>2026-05-01T10:13:11.755Z</time></trkpt><trkpt lat="44.0571317" lon="12.5423833"><ele>11.666666666666666</ele><time>2026-05-01T10:13:12.756Z</time></trkpt><trkpt lat="44.0569233" lon="12.5424217"><ele>11.333333333333332</ele><time>2026-05-01T10:13:13.751Z</time></trkpt><trkpt lat="44.056715" lon="12.5424733"><ele>11.0</ele><time>2026-05-01T10:13:14.751Z</time></trkpt><trkpt lat="44.0565083" lon="12.542535"><ele>10.333333333333332</ele><time>2026-05-01T10:13:15.759Z</time></trkpt><trkpt lat="44.0563033" lon="12.5426133"><ele>9.666666666666666</ele><time>2026-05-01T10:13:16.748Z</time></trkpt><trkpt lat="44.0560967" lon="12.54271"><ele>9.0</ele><time>2026-05-01T10:13:17.752Z</time></trkpt><trkpt lat="44.0558883" lon="12.5428233"><ele>10.0</ele><time>2026-05-01T10:13:18.749Z</time></trkpt><trkpt lat="44.0556817" lon="12.5429533"><ele>11.0</ele><time>2026-05-01T10:13:19.751Z</time></trkpt><trkpt lat="44.05548" lon="12.5431017"><ele>11.0</ele><time>2026-05-01T10:13:20.749Z</time></trkpt><trkpt lat="44.05528" lon="12.5432667"><ele>11.0</ele><time>2026-05-01T10:13:21.754Z</time></trkpt><trkpt lat="44.055085" lon="12.5434433"><ele>10.5</ele><time>2026-05-01T10:13:22.744Z</time></trkpt><trkpt lat="44.0548933" lon="12.5436317"><ele>10.0</ele><time>2026-05-01T10:13:23.753Z</time></trkpt><trkpt lat="44.0546983" lon="12.54382"><ele>9.0</ele><time>2026-05-01T10:13:24.754Z</time></trkpt><trkpt lat="44.054505" lon="12.544005"><ele>8.0</ele><time>2026-05-01T10:13:25.753Z</time></trkpt><trkpt lat="44.0543133" lon="12.54419"><ele>8.0</ele><time>2026-05-01T10:13:26.756Z</time></trkpt><trkpt lat="44.0541233" lon="12.5443733"><ele>8.0</ele><time>2026-05-01T10:13:27.744Z</time></trkpt><trkpt lat="44.0539367" lon="12.544555"><ele>8.0</ele><time>2026-05-01T10:13:28.749Z</time></trkpt><trkpt lat="44.0537517" lon="12.5447383"><ele>8.0</ele><time>2026-05-01T10:13:29.746Z</time></trkpt><trkpt lat="44.0535683" lon="12.54492"><ele>8.0</ele><time>2026-05-01T10:13:30.748Z</time></trkpt><trkpt lat="44.0533817" lon="12.5451033"><ele>8.0</ele><time>2026-05-01T10:13:31.751Z</time></trkpt><trkpt lat="44.0531983" lon="12.5452817"><ele>8.0</ele><time>2026-05-01T10:13:32.757Z</time></trkpt><trkpt lat="44.0530133" lon="12.54546"><ele>8.0</ele><time>2026-05-01T10:13:33.744Z</time></trkpt><trkpt lat="44.0528317" lon="12.54564"><ele>8.0</ele><time>2026-05-01T10:13:34.75Z</time></trkpt><trkpt lat="44.0526467" lon="12.5458167"><ele>8.0</ele><time>2026-05-01T10:13:35.75Z</time></trkpt><trkpt lat="44.0524633" lon="12.5459967"><ele>8.0</ele><time>2026-05-01T10:13:36.753Z</time></trkpt><trkpt lat="44.0522817" lon="12.5461783"><ele>8.0</ele><time>2026-05-01T10:13:37.752Z</time></trkpt><trkpt lat="44.0521" lon="12.5463567"><ele>8.666666666666666</ele><time>2026-05-01T10:13:38.753Z</time></trkpt><trkpt lat="44.0519167" lon="12.546535"><ele>9.333333333333334</ele><time>2026-05-01T10:13:39.756Z</time></trkpt><trkpt lat="44.0517367" lon="12.5467167"><ele>10.0</ele><time>2026-05-01T10:13:40.748Z</time></trkpt><trkpt lat="44.0515583" lon="12.5468933"><ele>10.333333333333334</ele><time>2026-05-01T10:13:41.753Z</time></trkpt><trkpt lat="44.0513817" lon="12.5470633"><ele>10.666666666666666</ele><time>2026-05-01T10:13:42.754Z</time></trkpt><trkpt lat="44.05121" lon="12.5472283"><ele>11.0</ele><time>2026-05-01T10:13:43.75Z</time></trkpt><trkpt lat="44.0510417" lon="12.5473867"><ele>11.0</ele><time>2026-05-01T10:13:44.756Z</time></trkpt><trkpt lat="44.050875" lon="12.5475483"><ele>11.0</ele><time>2026-05-01T10:13:45.747Z</time></trkpt><trkpt lat="44.05072" lon="12.5477017"><ele>11.0</ele><time>2026-05-01T10:13:46.751Z</time></trkpt><trkpt lat="44.0505717" lon="12.5478417"><ele>10.5</ele><time>2026-05-01T10:13:47.751Z</time></trkpt><trkpt lat="44.05044" lon="12.5479717"><ele>10.0</ele><time>2026-05-01T10:13:48.752Z</time></trkpt><trkpt lat="44.05032" lon="12.5480833"><ele>9.5</ele><time>2026-05-01T10:13:49.752Z</time></trkpt><trkpt lat="44.0502067" lon="12.5481733"><ele>9.0</ele><time>2026-05-01T10:13:50.751Z</time></trkpt><trkpt lat="44.0500883" lon="12.5482333"><ele>9.0</ele><time>2026-05-01T10:13:51.742Z</time></trkpt><trkpt lat="44.04997" lon="12.54827"><ele>9.0</ele><time>2026-05-01T10:13:52.742Z</time></trkpt><trkpt lat="44.0498517" lon="12.5483067"><ele>9.0</ele><time>2026-05-01T10:13:53.757Z</time></trkpt><trkpt lat="44.0497417" lon="12.5483583"><ele>9.0</ele><time>2026-05-01T10:13:54.753Z</time></trkpt><trkpt lat="44.04965" lon="12.5484467"><ele>8.25</ele><time>2026-05-01T10:13:55.751Z</time></trkpt><trkpt lat="44.0495733" lon="12.5485783"><ele>7.5</ele><time>2026-05-01T10:13:56.745Z</time></trkpt><trkpt lat="44.049505" lon="12.5487233"><ele>6.75</ele><time>2026-05-01T10:13:57.742Z</time></trkpt><trkpt lat="44.0494333" lon="12.5488717"><ele>6.0</ele><time>2026-05-01T10:13:58.751Z</time></trkpt><trkpt lat="44.04934" lon="12.5490067"><ele>5.75</ele><time>2026-05-01T10:13:59.743Z</time></trkpt><trkpt lat="44.0492283" lon="12.54913"><ele>5.5</ele><time>2026-05-01T10:14:00.747Z</time></trkpt><trkpt lat="44.0491083" lon="12.549255"><ele>5.25</ele><time>2026-05-01T10:14:01.742Z</time></trkpt><trkpt lat="44.0489833" lon="12.549385"><ele>5.0</ele><time>2026-05-01T10:14:02.743Z</time></trkpt><trkpt lat="44.0488517" lon="12.5495233"><ele>5.0</ele><time>2026-05-01T10:14:03.746Z</time></trkpt><trkpt lat="44.0487167" lon="12.549665"><ele>5.0</ele><time>2026-05-01T10:14:04.751Z</time></trkpt><trkpt lat="44.048575" lon="12.54981"><ele>5.0</ele><time>2026-05-01T10:14:05.749Z</time></trkpt><trkpt lat="44.04843" lon="12.5499567"><ele>6.666666666666667</ele><time>2026-05-01T10:14:06.751Z</time></trkpt><trkpt lat="44.0482817" lon="12.5501017"><ele>8.333333333333334</ele><time>2026-05-01T10:14:07.752Z</time></trkpt><trkpt lat="44.04814" lon="12.5502367"><ele>10.0</ele><time>2026-05-01T10:14:08.751Z</time></trkpt><trkpt lat="44.0480067" lon="12.550365"><ele>10.0</ele><time>2026-05-01T10:14:09.75Z</time></trkpt><trkpt lat="44.04788" lon="12.5504867"><ele>10.0</ele><time>2026-05-01T10:14:10.752Z</time></trkpt><trkpt lat="44.0477617" lon="12.550605"><ele>10.0</ele><time>2026-05-01T10:14:11.752Z</time></trkpt><trkpt lat="44.0476467" lon="12.5507233"><ele>10.0</ele><time>2026-05-01T10:14:12.756Z</time></trkpt><trkpt lat="44.0475417" lon="12.5508383"><ele>10.5</ele><time>2026-05-01T10:14:13.75Z</time></trkpt><trkpt lat="44.0474433" lon="12.550955"><ele>11.0</ele><time>2026-05-01T10:14:14.759Z</time></trkpt><trkpt lat="44.0473467" lon="12.5510683"><ele>11.5</ele><time>2026-05-01T10:14:15.749Z</time></trkpt><trkpt lat="44.0472567" lon="12.5511783"><ele>12.0</ele><time>2026-05-01T10:14:16.753Z</time></trkpt><trkpt lat="44.047175" lon="12.5512833"><ele>12.0</ele><time>2026-05-01T10:14:17.753Z</time></trkpt><trkpt lat="44.0470967" lon="12.5513817"><ele>12.0</ele><time>2026-05-01T10:14:18.751Z</time></trkpt><trkpt lat="44.0470217" lon="12.5514767"><ele>12.0</ele><time>2026-05-01T10:14:19.755Z</time></trkpt><trkpt lat="44.0469533" lon="12.5515683"><ele>12.0</ele><time>2026-05-01T10:14:20.754Z</time></trkpt><trkpt lat="44.0468883" lon="12.5516583"><ele>12.0</ele><time>2026-05-01T10:14:21.748Z</time></trkpt><trkpt lat="44.0468283" lon="12.5517417"><ele>12.0</ele><time>2026-05-01T10:14:22.752Z</time></trkpt><trkpt lat="44.04677" lon="12.551825"><ele>12.0</ele><time>2026-05-01T10:14:23.752Z</time></trkpt><trkpt lat="44.0467167" lon="12.551905"><ele>12.0</ele><time>2026-05-01T10:14:24.75Z</time></trkpt><trkpt lat="44.0466667" lon="12.5519833"><ele>12.0</ele><time>2026-05-01T10:14:25.749Z</time></trkpt><trkpt lat="44.0466183" lon="12.552055"><ele>12.0</ele><time>2026-05-01T10:14:26.752Z</time></trkpt><trkpt lat="44.04654" lon="12.55218"><ele>12.0</ele><time>2026-05-01T10:14:28.749Z</time></trkpt><trkpt lat="44.04646" lon="12.5523083"><ele>12.0</ele><time>2026-05-01T10:14:30.748Z</time></trkpt><trkpt lat="44.0463883" lon="12.5524167"><ele>12.0</ele><time>2026-05-01T10:14:32.749Z</time></trkpt><trkpt lat="44.0463417" lon="12.5524917"><ele>12.0</ele><time>2026-05-01T10:14:35.756Z</time></trkpt><trkpt lat="44.0462533" lon="12.5525483"><ele>12.0</ele><time>2026-05-01T10:14:39.755Z</time></trkpt><trkpt lat="44.04613" lon="12.552605"><ele>12.0</ele><time>2026-05-01T10:14:41.746Z</time></trkpt><trkpt lat="44.0460717" lon="12.55266"><ele>12.0</ele><time>2026-05-01T10:14:42.746Z</time></trkpt><trkpt lat="44.04602" lon="12.5527333"><ele>12.0</ele><time>2026-05-01T10:14:43.751Z</time></trkpt><trkpt lat="44.0459833" lon="12.5528067"><ele>12.0</ele><time>2026-05-01T10:14:44.752Z</time></trkpt><trkpt lat="44.0459633" lon="12.55295"><ele>12.0</ele><time>2026-05-01T10:14:46.749Z</time></trkpt><trkpt lat="44.0459583" lon="12.5531167"><ele>12.0</ele><time>2026-05-01T10:14:48.751Z</time></trkpt><trkpt lat="44.0459417" lon="12.5532217"><ele>12.0</ele><time>2026-05-01T10:14:49.744Z</time></trkpt><trkpt lat="44.0459083" lon="12.5533433"><ele>12.2</ele><time>2026-05-01T10:14:50.754Z</time></trkpt><trkpt lat="44.0458633" lon="12.5534717"><ele>12.399999999999999</ele><time>2026-05-01T10:14:51.748Z</time></trkpt><trkpt lat="44.0458117" lon="12.553605"><ele>12.600000000000001</ele><time>2026-05-01T10:14:52.751Z</time></trkpt><trkpt lat="44.0457567" lon="12.5537467"><ele>12.8</ele><time>2026-05-01T10:14:53.748Z</time></trkpt><trkpt lat="44.0456983" lon="12.553895"><ele>13.0</ele><time>2026-05-01T10:14:54.752Z</time></trkpt><trkpt lat="44.04564" lon="12.55405"><ele>13.0</ele><time>2026-05-01T10:14:55.75Z</time></trkpt><trkpt lat="44.0455817" lon="12.5542117"><ele>13.0</ele><time>2026-05-01T10:14:56.751Z</time></trkpt><trkpt lat="44.0455267" lon="12.5543783"><ele>13.0</ele><time>2026-05-01T10:14:57.754Z</time></trkpt><trkpt lat="44.0454733" lon="12.5545567"><ele>13.0</ele><time>2026-05-01T10:14:58.756Z</time></trkpt><trkpt lat="44.0454217" lon="12.55474"><ele>12.5</ele><time>2026-05-01T10:14:59.75Z</time></trkpt><trkpt lat="44.0453667" lon="12.5549267"><ele>12.0</ele><time>2026-05-01T10:15:00.747Z</time></trkpt><trkpt lat="44.0453167" lon="12.5551067"><ele>11.5</ele><time>2026-05-01T10:15:01.751Z</time></trkpt><trkpt lat="44.0452667" lon="12.5552833"><ele>11.0</ele><time>2026-05-01T10:15:02.75Z</time></trkpt><trkpt lat="44.0452183" lon="12.555455"><ele>10.75</ele><time>2026-05-01T10:15:03.751Z</time></trkpt><trkpt lat="44.0451733" lon="12.55562"><ele>10.5</ele><time>2026-05-01T10:15:04.753Z</time></trkpt><trkpt lat="44.04513" lon="12.5557883"><ele>10.25</ele><time>2026-05-01T10:15:05.75Z</time></trkpt><trkpt lat="44.0450883" lon="12.5559517"><ele>10.0</ele><time>2026-05-01T10:15:06.748Z</time></trkpt><trkpt lat="44.0450467" lon="12.55611"><ele>9.75</ele><time>2026-05-01T10:15:07.749Z</time></trkpt><trkpt lat="44.0450033" lon="12.5562667"><ele>9.5</ele><time>2026-05-01T10:15:08.75Z</time></trkpt><trkpt lat="44.0449617" lon="12.556425"><ele>9.25</ele><time>2026-05-01T10:15:09.755Z</time></trkpt><trkpt lat="44.0449167" lon="12.5565767"><ele>9.0</ele><time>2026-05-01T10:15:10.754Z</time></trkpt><trkpt lat="44.0448717" lon="12.5567233"><ele>9.0</ele><time>2026-05-01T10:15:11.752Z</time></trkpt><trkpt lat="44.0448317" lon="12.556865"><ele>9.0</ele><time>2026-05-01T10:15:12.752Z</time></trkpt><trkpt lat="44.044795" lon="12.55701"><ele>9.0</ele><time>2026-05-01T10:15:13.748Z</time></trkpt><trkpt lat="44.0447583" lon="12.5571517"><ele>9.0</ele><time>2026-05-01T10:15:14.754Z</time></trkpt><trkpt lat="44.0447233" lon="12.55729"><ele>9.0</ele><time>2026-05-01T10:15:15.755Z</time></trkpt><trkpt lat="44.0446883" lon="12.5574267"><ele>9.4</ele><time>2026-05-01T10:15:16.75Z</time></trkpt><trkpt lat="44.044655" lon="12.5575583"><ele>9.8</ele><time>2026-05-01T10:15:17.752Z</time></trkpt><trkpt lat="44.0446217" lon="12.55769"><ele>10.200000000000001</ele><time>2026-05-01T10:15:18.753Z</time></trkpt><trkpt lat="44.0445917" lon="12.5578233"><ele>10.600000000000001</ele><time>2026-05-01T10:15:19.751Z</time></trkpt><trkpt lat="44.0445583" lon="12.5579483"><ele>11.0</ele><time>2026-05-01T10:15:20.752Z</time></trkpt><trkpt lat="44.0445267" lon="12.5580733"><ele>11.0</ele><time>2026-05-01T10:15:21.751Z</time></trkpt><trkpt lat="44.0444917" lon="12.55819"><ele>11.0</ele><time>2026-05-01T10:15:22.747Z</time></trkpt><trkpt lat="44.0444567" lon="12.5582967"><ele>11.0</ele><time>2026-05-01T10:15:23.751Z</time></trkpt><trkpt lat="44.0444267" lon="12.5584"><ele>11.0</ele><time>2026-05-01T10:15:24.75Z</time></trkpt><trkpt lat="44.0444" lon="12.55851"><ele>11.0</ele><time>2026-05-01T10:15:25.746Z</time></trkpt><trkpt lat="44.0443733" lon="12.558615"><ele>11.0</ele><time>2026-05-01T10:15:26.75Z</time></trkpt><trkpt lat="44.0443467" lon="12.5587117"><ele>10.833333333333332</ele><time>2026-05-01T10:15:27.75Z</time></trkpt><trkpt lat="44.0443233" lon="12.5587983"><ele>10.666666666666666</ele><time>2026-05-01T10:15:28.755Z</time></trkpt><trkpt lat="44.0443033" lon="12.558885"><ele>10.5</ele><time>2026-05-01T10:15:29.75Z</time></trkpt><trkpt lat="44.04427" lon="12.5590367"><ele>10.333333333333334</ele><time>2026-05-01T10:15:31.748Z</time></trkpt><trkpt lat="44.0442217" lon="12.5591633"><ele>10.166666666666668</ele><time>2026-05-01T10:15:33.753Z</time></trkpt><trkpt lat="44.0441867" lon="12.559255"><ele>10.0</ele><time>2026-05-01T10:15:36.752Z</time></trkpt><trkpt lat="44.04414" lon="12.5593283"><ele>10.4</ele><time>2026-05-01T10:15:38.754Z</time></trkpt><trkpt lat="44.0440633" lon="12.5593983"><ele>10.8</ele><time>2026-05-01T10:15:40.747Z</time></trkpt><trkpt lat="44.0439717" lon="12.5594483"><ele>11.2</ele><time>2026-05-01T10:15:42.751Z</time></trkpt><trkpt lat="44.04389" lon="12.55953"><ele>11.6</ele><time>2026-05-01T10:15:44.757Z</time></trkpt><trkpt lat="44.043835" lon="12.5596733"><ele>12.0</ele><time>2026-05-01T10:15:46.753Z</time></trkpt><trkpt lat="44.0438283" lon="12.5597667"><ele>12.0</ele><time>2026-05-01T10:15:47.749Z</time></trkpt><trkpt lat="44.0438567" lon="12.5599317"><ele>12.0</ele><time>2026-05-01T10:15:49.752Z</time></trkpt><trkpt lat="44.0439017" lon="12.5600967"><ele>12.0</ele><time>2026-05-01T10:15:51.75Z</time></trkpt><trkpt lat="44.04391" lon="12.5603083"><ele>12.0</ele><time>2026-05-01T10:15:53.747Z</time></trkpt><trkpt lat="44.0438967" lon="12.56043"><ele>12.0</ele><time>2026-05-01T10:15:54.751Z</time></trkpt><trkpt lat="44.0438733" lon="12.560565"><ele>12.0</ele><time>2026-05-01T10:15:55.753Z</time></trkpt><trkpt lat="44.0438417" lon="12.5607117"><ele>12.0</ele><time>2026-05-01T10:15:56.757Z</time></trkpt><trkpt lat="44.0438067" lon="12.56087"><ele>12.0</ele><time>2026-05-01T10:15:57.746Z</time></trkpt><trkpt lat="44.0437617" lon="12.56104"><ele>12.0</ele><time>2026-05-01T10:15:58.749Z</time></trkpt><trkpt lat="44.0437117" lon="12.5612217"><ele>12.0</ele><time>2026-05-01T10:15:59.744Z</time></trkpt><trkpt lat="44.043655" lon="12.5614117"><ele>12.0</ele><time>2026-05-01T10:16:00.747Z</time></trkpt><trkpt lat="44.043595" lon="12.5616083"><ele>12.0</ele><time>2026-05-01T10:16:01.749Z</time></trkpt><trkpt lat="44.0435333" lon="12.5618083"><ele>12.0</ele><time>2026-05-01T10:16:02.756Z</time></trkpt><trkpt lat="44.0434733" lon="12.5620117"><ele>12.0</ele><time>2026-05-01T10:16:03.752Z</time></trkpt><trkpt lat="44.043415" lon="12.5622217"><ele>12.0</ele><time>2026-05-01T10:16:04.753Z</time></trkpt><trkpt lat="44.043355" lon="12.56243"><ele>11.0</ele><time>2026-05-01T10:16:05.749Z</time></trkpt><trkpt lat="44.0432967" lon="12.5626383"><ele>10.0</ele><time>2026-05-01T10:16:06.752Z</time></trkpt><trkpt lat="44.0432433" lon="12.5628417"><ele>9.0</ele><time>2026-05-01T10:16:07.75Z</time></trkpt><trkpt lat="44.04319" lon="12.5630433"><ele>8.666666666666666</ele><time>2026-05-01T10:16:08.75Z</time></trkpt><trkpt lat="44.0431383" lon="12.5632433"><ele>8.333333333333332</ele><time>2026-05-01T10:16:09.749Z</time></trkpt><trkpt lat="44.0430867" lon="12.5634417"><ele>8.0</ele><time>2026-05-01T10:16:10.752Z</time></trkpt><trkpt lat="44.0430367" lon="12.5636383"><ele>8.0</ele><time>2026-05-01T10:16:11.748Z</time></trkpt><trkpt lat="44.042985" lon="12.5638317"><ele>8.0</ele><time>2026-05-01T10:16:12.754Z</time></trkpt><trkpt lat="44.0429317" lon="12.5640233"><ele>8.0</ele><time>2026-05-01T10:16:13.746Z</time></trkpt><trkpt lat="44.0428767" lon="12.5642017"><ele>8.0</ele><time>2026-05-01T10:16:14.754Z</time></trkpt><trkpt lat="44.04283" lon="12.5643817"><ele>8.25</ele><time>2026-05-01T10:16:15.755Z</time></trkpt><trkpt lat="44.042785" lon="12.56456"><ele>8.5</ele><time>2026-05-01T10:16:16.752Z</time></trkpt><trkpt lat="44.0427367" lon="12.5647367"><ele>8.75</ele><time>2026-05-01T10:16:17.753Z</time></trkpt><trkpt lat="44.042695" lon="12.5649233"><ele>9.0</ele><time>2026-05-01T10:16:18.749Z</time></trkpt><trkpt lat="44.0426567" lon="12.5651183"><ele>9.0</ele><time>2026-05-01T10:16:19.75Z</time></trkpt><trkpt lat="44.042615" lon="12.5653217"><ele>9.0</ele><time>2026-05-01T10:16:20.756Z</time></trkpt><trkpt lat="44.04257" lon="12.5655267"><ele>9.0</ele><time>2026-05-01T10:16:21.748Z</time></trkpt><trkpt lat="44.0425217" lon="12.5657383"><ele>9.0</ele><time>2026-05-01T10:16:22.751Z</time></trkpt><trkpt lat="44.0424767" lon="12.565945"><ele>9.0</ele><time>2026-05-01T10:16:23.752Z</time></trkpt><trkpt lat="44.042435" lon="12.5661567"><ele>9.0</ele><time>2026-05-01T10:16:24.742Z</time></trkpt><trkpt lat="44.0423983" lon="12.5663717"><ele>9.0</ele><time>2026-05-01T10:16:25.753Z</time></trkpt><trkpt lat="44.042365" lon="12.5665867"><ele>9.0</ele><time>2026-05-01T10:16:26.751Z</time></trkpt><trkpt lat="44.04233" lon="12.5668067"><ele>9.0</ele><time>2026-05-01T10:16:27.751Z</time></trkpt><trkpt lat="44.0422983" lon="12.5670333"><ele>10.0</ele><time>2026-05-01T10:16:28.744Z</time></trkpt><trkpt lat="44.0422717" lon="12.5672617"><ele>11.0</ele><time>2026-05-01T10:16:29.755Z</time></trkpt><trkpt lat="44.0422467" lon="12.5675"><ele>12.0</ele><time>2026-05-01T10:16:30.743Z</time></trkpt><trkpt lat="44.042225" lon="12.5677367"><ele>12.0</ele><time>2026-05-01T10:16:31.748Z</time></trkpt><trkpt lat="44.0422067" lon="12.5679667"><ele>12.0</ele><time>2026-05-01T10:16:32.743Z</time></trkpt><trkpt lat="44.0421917" lon="12.5681967"><ele>12.0</ele><time>2026-05-01T10:16:33.748Z</time></trkpt><trkpt lat="44.04218" lon="12.568405"><ele>12.0</ele><time>2026-05-01T10:16:34.752Z</time></trkpt><trkpt lat="44.0421667" lon="12.5685983"><ele>12.0</ele><time>2026-05-01T10:16:35.75Z</time></trkpt><trkpt lat="44.042155" lon="12.568785"><ele>12.0</ele><time>2026-05-01T10:16:36.752Z</time></trkpt><trkpt lat="44.0421433" lon="12.5689667"><ele>12.0</ele><time>2026-05-01T10:16:37.752Z</time></trkpt><trkpt lat="44.0421317" lon="12.56915"><ele>11.25</ele><time>2026-05-01T10:16:38.749Z</time></trkpt><trkpt lat="44.04212" lon="12.569335"><ele>10.5</ele><time>2026-05-01T10:16:39.749Z</time></trkpt><trkpt lat="44.0421083" lon="12.5695167"><ele>9.75</ele><time>2026-05-01T10:16:40.743Z</time></trkpt><trkpt lat="44.042095" lon="12.5696833"><ele>9.0</ele><time>2026-05-01T10:16:41.751Z</time></trkpt><trkpt lat="44.0420867" lon="12.5698267"><ele>9.166666666666666</ele><time>2026-05-01T10:16:42.759Z</time></trkpt><trkpt lat="44.0420833" lon="12.5699467"><ele>9.333333333333334</ele><time>2026-05-01T10:16:43.745Z</time></trkpt><trkpt lat="44.0420767" lon="12.57004"><ele>9.5</ele><time>2026-05-01T10:16:44.743Z</time></trkpt><trkpt lat="44.04206" lon="12.5701733"><ele>9.666666666666668</ele><time>2026-05-01T10:16:46.752Z</time></trkpt><trkpt lat="44.0420267" lon="12.5702617"><ele>9.833333333333334</ele><time>2026-05-01T10:16:48.752Z</time></trkpt><trkpt lat="44.04197" lon="12.570335"><ele>10.0</ele><time>2026-05-01T10:16:50.749Z</time></trkpt><trkpt lat="44.041865" lon="12.570385"><ele>10.0</ele><time>2026-05-01T10:16:52.753Z</time></trkpt><trkpt lat="44.04179" lon="12.5704017"><ele>10.0</ele><time>2026-05-01T10:16:53.745Z</time></trkpt><trkpt lat="44.0417067" lon="12.57042"><ele>10.0</ele><time>2026-05-01T10:16:54.747Z</time></trkpt><trkpt lat="44.04162" lon="12.5704483"><ele>10.0</ele><time>2026-05-01T10:16:55.746Z</time></trkpt><trkpt lat="44.04153" lon="12.5704917"><ele>10.0</ele><time>2026-05-01T10:16:56.75Z</time></trkpt><trkpt lat="44.04145" lon="12.5705617"><ele>10.0</ele><time>2026-05-01T10:16:57.755Z</time></trkpt><trkpt lat="44.0413867" lon="12.570655"><ele>9.2</ele><time>2026-05-01T10:16:58.756Z</time></trkpt><trkpt lat="44.0413383" lon="12.5707617"><ele>8.4</ele><time>2026-05-01T10:16:59.752Z</time></trkpt><trkpt lat="44.0413033" lon="12.5708767"><ele>7.6</ele><time>2026-05-01T10:17:00.752Z</time></trkpt><trkpt lat="44.04128" lon="12.5710017"><ele>6.8</ele><time>2026-05-01T10:17:01.742Z</time></trkpt><trkpt lat="44.0412717" lon="12.5711333"><ele>6.0</ele><time>2026-05-01T10:17:02.755Z</time></trkpt><trkpt lat="44.04128" lon="12.5712733"><ele>6.0</ele><time>2026-05-01T10:17:03.747Z</time></trkpt><trkpt lat="44.041295" lon="12.5714217"><ele>6.0</ele><time>2026-05-01T10:17:04.75Z</time></trkpt><trkpt lat="44.0413083" lon="12.5715617"><ele>6.0</ele><time>2026-05-01T10:17:05.743Z</time></trkpt><trkpt lat="44.041305" lon="12.5717017"><ele>6.0</ele><time>2026-05-01T10:17:06.753Z</time></trkpt><trkpt lat="44.0412917" lon="12.57184"><ele>6.0</ele><time>2026-05-01T10:17:07.751Z</time></trkpt><trkpt lat="44.0412867" lon="12.5719883"><ele>7.0</ele><time>2026-05-01T10:17:08.754Z</time></trkpt><trkpt lat="44.0412967" lon="12.572125"><ele>8.0</ele><time>2026-05-01T10:17:09.753Z</time></trkpt><trkpt lat="44.0413233" lon="12.57225"><ele>9.0</ele><time>2026-05-01T10:17:10.75Z</time></trkpt><trkpt lat="44.0413567" lon="12.57236"><ele>10.0</ele><time>2026-05-01T10:17:11.757Z</time></trkpt><trkpt lat="44.0413933" lon="12.5724583"><ele>11.0</ele><time>2026-05-01T10:17:12.749Z</time></trkpt><trkpt lat="44.041435" lon="12.572555"><ele>12.0</ele><time>2026-05-01T10:17:13.753Z</time></trkpt><trkpt lat="44.04148" lon="12.5726533"><ele>12.0</ele><time>2026-05-01T10:17:14.756Z</time></trkpt><trkpt lat="44.0415283" lon="12.5727533"><ele>12.0</ele><time>2026-05-01T10:17:15.754Z</time></trkpt><trkpt lat="44.04158" lon="12.5728617"><ele>12.0</ele><time>2026-05-01T10:17:16.749Z</time></trkpt><trkpt lat="44.041635" lon="12.5729817"><ele>12.0</ele><time>2026-05-01T10:17:17.743Z</time></trkpt><trkpt lat="44.0416917" lon="12.57312"><ele>12.0</ele><time>2026-05-01T10:17:18.755Z</time></trkpt><trkpt lat="44.04174" lon="12.573275"><ele>11.5</ele><time>2026-05-01T10:17:19.752Z</time></trkpt><trkpt lat="44.041785" lon="12.5734333"><ele>11.0</ele><time>2026-05-01T10:17:20.762Z</time></trkpt><trkpt lat="44.0418183" lon="12.5735867"><ele>10.5</ele><time>2026-05-01T10:17:21.751Z</time></trkpt><trkpt lat="44.04184" lon="12.5737417"><ele>10.0</ele><time>2026-05-01T10:17:22.751Z</time></trkpt><trkpt lat="44.0418533" lon="12.5738967"><ele>10.0</ele><time>2026-05-01T10:17:23.751Z</time></trkpt><trkpt lat="44.0418633" lon="12.5740417"><ele>10.0</ele><time>2026-05-01T10:17:24.752Z</time></trkpt><trkpt lat="44.0418617" lon="12.5741883"><ele>10.0</ele><time>2026-05-01T10:17:25.75Z</time></trkpt><trkpt lat="44.041855" lon="12.5743333"><ele>10.0</ele><time>2026-05-01T10:17:26.754Z</time></trkpt><trkpt lat="44.04185" lon="12.5744717"><ele>10.0</ele><time>2026-05-01T10:17:27.749Z</time></trkpt><trkpt lat="44.04184" lon="12.5746033"><ele>10.333333333333334</ele><time>2026-05-01T10:17:28.752Z</time></trkpt><trkpt lat="44.0418317" lon="12.574735"><ele>10.666666666666668</ele><time>2026-05-01T10:17:29.754Z</time></trkpt><trkpt lat="44.0418267" lon="12.5748617"><ele>11.0</ele><time>2026-05-01T10:17:30.753Z</time></trkpt><trkpt lat="44.04182" lon="12.5749733"><ele>11.333333333333334</ele><time>2026-05-01T10:17:31.753Z</time></trkpt><trkpt lat="44.041815" lon="12.5750717"><ele>11.666666666666666</ele><time>2026-05-01T10:17:32.749Z</time></trkpt><trkpt lat="44.04181" lon="12.57516"><ele>12.0</ele><time>2026-05-01T10:17:33.748Z</time></trkpt><trkpt lat="44.0418" lon="12.5753033"><ele>11.833333333333334</ele><time>2026-05-01T10:17:35.754Z</time></trkpt><trkpt lat="44.0417867" lon="12.5754333"><ele>11.666666666666666</ele><time>2026-05-01T10:17:37.753Z</time></trkpt><trkpt lat="44.0417667" lon="12.5755417"><ele>11.5</ele><time>2026-05-01T10:17:39.752Z</time></trkpt><trkpt lat="44.0417483" lon="12.57568"><ele>11.333333333333332</ele><time>2026-05-01T10:17:42.743Z</time></trkpt><trkpt lat="44.041715" lon="12.57576"><ele>11.166666666666666</ele><time>2026-05-01T10:17:43.742Z</time></trkpt><trkpt lat="44.041665" lon="12.57586"><ele>11.0</ele><time>2026-05-01T10:17:44.749Z</time></trkpt><trkpt lat="44.0416283" lon="12.5759783"><ele>10.8</ele><time>2026-05-01T10:17:45.752Z</time></trkpt><trkpt lat="44.04163" lon="12.5760917"><ele>10.600000000000001</ele><time>2026-05-01T10:17:46.748Z</time></trkpt><trkpt lat="44.04166" lon="12.5762083"><ele>10.4</ele><time>2026-05-01T10:17:47.755Z</time></trkpt><trkpt lat="44.0416917" lon="12.5763183"><ele>10.2</ele><time>2026-05-01T10:17:48.75Z</time></trkpt><trkpt lat="44.0417183" lon="12.5764417"><ele>10.0</ele><time>2026-05-01T10:17:49.746Z</time></trkpt><trkpt lat="44.0417317" lon="12.5765883"><ele>10.0</ele><time>2026-05-01T10:17:50.76Z</time></trkpt><trkpt lat="44.041735" lon="12.5767567"><ele>10.0</ele><time>2026-05-01T10:17:51.753Z</time></trkpt><trkpt lat="44.04173" lon="12.5769383"><ele>10.0</ele><time>2026-05-01T10:17:52.751Z</time></trkpt><trkpt lat="44.04172" lon="12.5771433"><ele>10.0</ele><time>2026-05-01T10:17:53.744Z</time></trkpt><trkpt lat="44.04171" lon="12.5773517"><ele>9.75</ele><time>2026-05-01T10:17:54.751Z</time></trkpt><trkpt lat="44.0417" lon="12.577565"><ele>9.5</ele><time>2026-05-01T10:17:55.75Z</time></trkpt><trkpt lat="44.0416883" lon="12.57777"><ele>9.25</ele><time>2026-05-01T10:17:56.753Z</time></trkpt><trkpt lat="44.0416783" lon="12.5779667"><ele>9.0</ele><time>2026-05-01T10:17:57.756Z</time></trkpt><trkpt lat="44.0416667" lon="12.5781517"><ele>8.75</ele><time>2026-05-01T10:17:58.754Z</time></trkpt><trkpt lat="44.04166" lon="12.5783267"><ele>8.5</ele><time>2026-05-01T10:17:59.752Z</time></trkpt><trkpt lat="44.0416467" lon="12.5785083"><ele>8.25</ele><time>2026-05-01T10:18:00.752Z</time></trkpt><trkpt lat="44.0416317" lon="12.5786983"><ele>8.0</ele><time>2026-05-01T10:18:01.753Z</time></trkpt><trkpt lat="44.041615" lon="12.5789033"><ele>8.0</ele><time>2026-05-01T10:18:02.752Z</time></trkpt><trkpt lat="44.0415983" lon="12.57912"><ele>8.0</ele><time>2026-05-01T10:18:03.753Z</time></trkpt><trkpt lat="44.0415833" lon="12.5793433"><ele>8.0</ele><time>2026-05-01T10:18:04.743Z</time></trkpt><trkpt lat="44.0415683" lon="12.5795767"><ele>8.0</ele><time>2026-05-01T10:18:05.746Z</time></trkpt><trkpt lat="44.0415533" lon="12.5798183"><ele>8.0</ele><time>2026-05-01T10:18:06.751Z</time></trkpt><trkpt lat="44.0415367" lon="12.58007"><ele>8.0</ele><time>2026-05-01T10:18:07.746Z</time></trkpt><trkpt lat="44.0415217" lon="12.5803267"><ele>8.0</ele><time>2026-05-01T10:18:08.75Z</time></trkpt><trkpt lat="44.0415067" lon="12.5805883"><ele>8.0</ele><time>2026-05-01T10:18:09.747Z</time></trkpt><trkpt lat="44.041495" lon="12.5808567"><ele>8.0</ele><time>2026-05-01T10:18:10.752Z</time></trkpt><trkpt lat="44.0414767" lon="12.5811217"><ele>6.666666666666666</ele><time>2026-05-01T10:18:11.751Z</time></trkpt><trkpt lat="44.0414583" lon="12.58139"><ele>5.333333333333333</ele><time>2026-05-01T10:18:12.753Z</time></trkpt><trkpt lat="44.041445" lon="12.5816633"><ele>4.0</ele><time>2026-05-01T10:18:13.753Z</time></trkpt><trkpt lat="44.0414333" lon="12.5819383"><ele>4.333333333333333</ele><time>2026-05-01T10:18:14.754Z</time></trkpt><trkpt lat="44.0414183" lon="12.5822167"><ele>4.666666666666667</ele><time>2026-05-01T10:18:15.743Z</time></trkpt><trkpt lat="44.0414083" lon="12.582505"><ele>5.0</ele><time>2026-05-01T10:18:16.751Z</time></trkpt><trkpt lat="44.0413933" lon="12.5828083"><ele>5.333333333333334</ele><time>2026-05-01T10:18:17.752Z</time></trkpt><trkpt lat="44.04138" lon="12.5831183"><ele>5.666666666666667</ele><time>2026-05-01T10:18:18.753Z</time></trkpt><trkpt lat="44.0413667" lon="12.5834317"><ele>6.0</ele><time>2026-05-01T10:18:19.753Z</time></trkpt><trkpt lat="44.04136" lon="12.583745"><ele>5.0</ele><time>2026-05-01T10:18:20.755Z</time></trkpt><trkpt lat="44.041345" lon="12.58405"><ele>4.0</ele><time>2026-05-01T10:18:21.752Z</time></trkpt><trkpt lat="44.0413317" lon="12.58435"><ele>3.0</ele><time>2026-05-01T10:18:22.75Z</time></trkpt><trkpt lat="44.041315" lon="12.5846483"><ele>3.333333333333333</ele><time>2026-05-01T10:18:23.755Z</time></trkpt><trkpt lat="44.0412983" lon="12.5849467"><ele>3.6666666666666665</ele><time>2026-05-01T10:18:24.753Z</time></trkpt><trkpt lat="44.0412867" lon="12.58524"><ele>4.0</ele><time>2026-05-01T10:18:25.756Z</time></trkpt><trkpt lat="44.0412733" lon="12.585535"><ele>4.0</ele><time>2026-05-01T10:18:26.754Z</time></trkpt><trkpt lat="44.04126" lon="12.5858283"><ele>4.0</ele><time>2026-05-01T10:18:27.751Z</time></trkpt><trkpt lat="44.041245" lon="12.58612"><ele>4.0</ele><time>2026-05-01T10:18:28.749Z</time></trkpt><trkpt lat="44.0412283" lon="12.5864117"><ele>4.0</ele><time>2026-05-01T10:18:29.752Z</time></trkpt><trkpt lat="44.0412133" lon="12.5867033"><ele>4.0</ele><time>2026-05-01T10:18:30.746Z</time></trkpt><trkpt lat="44.0411983" lon="12.5869933"><ele>4.0</ele><time>2026-05-01T10:18:31.751Z</time></trkpt><trkpt lat="44.0411817" lon="12.5872817"><ele>4.333333333333333</ele><time>2026-05-01T10:18:32.749Z</time></trkpt><trkpt lat="44.0411683" lon="12.58757"><ele>4.666666666666667</ele><time>2026-05-01T10:18:33.744Z</time></trkpt><trkpt lat="44.0411517" lon="12.5878533"><ele>5.0</ele><time>2026-05-01T10:18:34.747Z</time></trkpt><trkpt lat="44.041135" lon="12.5881267"><ele>4.333333333333334</ele><time>2026-05-01T10:18:35.753Z</time></trkpt><trkpt lat="44.0411167" lon="12.58839"><ele>3.666666666666667</ele><time>2026-05-01T10:18:36.744Z</time></trkpt><trkpt lat="44.0411" lon="12.5886317"><ele>3.0</ele><time>2026-05-01T10:18:37.752Z</time></trkpt><trkpt lat="44.0410817" lon="12.58886"><ele>3.0</ele><time>2026-05-01T10:18:38.751Z</time></trkpt><trkpt lat="44.041065" lon="12.58907"><ele>3.0</ele><time>2026-05-01T10:18:39.75Z</time></trkpt><trkpt lat="44.0410417" lon="12.589245"><ele>3.0</ele><time>2026-05-01T10:18:40.751Z</time></trkpt><trkpt lat="44.0410183" lon="12.58938"><ele>3.0</ele><time>2026-05-01T10:18:41.751Z</time></trkpt><trkpt lat="44.0409983" lon="12.589495"><ele>3.0</ele><time>2026-05-01T10:18:42.749Z</time></trkpt><trkpt lat="44.040975" lon="12.5895933"><ele>3.0</ele><time>2026-05-01T10:18:43.751Z</time></trkpt><trkpt lat="44.040915" lon="12.5897267"><ele>3.0</ele><time>2026-05-01T10:18:45.751Z</time></trkpt><trkpt lat="44.0408533" lon="12.5898417"><ele>3.0</ele><time>2026-05-01T10:18:47.752Z</time></trkpt><trkpt lat="44.0407817" lon="12.5899517"><ele>3.0</ele><time>2026-05-01T10:18:49.75Z</time></trkpt><trkpt lat="44.0407017" lon="12.5900567"><ele>3.0</ele><time>2026-05-01T10:18:51.755Z</time></trkpt><trkpt lat="44.04061" lon="12.5901517"><ele>3.0</ele><time>2026-05-01T10:18:53.751Z</time></trkpt><trkpt lat="44.0405467" lon="12.59019"><ele>3.0</ele><time>2026-05-01T10:18:54.75Z</time></trkpt><trkpt lat="44.0404733" lon="12.59022"><ele>3.0</ele><time>2026-05-01T10:18:55.753Z</time></trkpt><trkpt lat="44.040395" lon="12.5902333"><ele>3.0</ele><time>2026-05-01T10:18:56.749Z</time></trkpt><trkpt lat="44.0403217" lon="12.590285"><ele>3.0</ele><time>2026-05-01T10:18:57.753Z</time></trkpt><trkpt lat="44.0402567" lon="12.59037"><ele>3.0</ele><time>2026-05-01T10:18:58.751Z</time></trkpt><trkpt lat="44.0401967" lon="12.5904767"><ele>3.0</ele><time>2026-05-01T10:18:59.752Z</time></trkpt><trkpt lat="44.0401417" lon="12.5905833"><ele>3.0</ele><time>2026-05-01T10:19:00.749Z</time></trkpt><trkpt lat="44.0400917" lon="12.5906967"><ele>3.0</ele><time>2026-05-01T10:19:01.749Z</time></trkpt><trkpt lat="44.0400767" lon="12.590805"><ele>3.0</ele><time>2026-05-01T10:19:02.751Z</time></trkpt><trkpt lat="44.0400717" lon="12.5908983"><ele>3.0</ele><time>2026-05-01T10:19:03.753Z</time></trkpt><trkpt lat="44.04009" lon="12.5910567"><ele>2.8</ele><time>2026-05-01T10:19:05.744Z</time></trkpt><trkpt lat="44.0401183" lon="12.59121"><ele>2.5999999999999996</ele><time>2026-05-01T10:19:07.751Z</time></trkpt><trkpt lat="44.04016" lon="12.59134"><ele>2.4000000000000004</ele><time>2026-05-01T10:19:09.748Z</time></trkpt><trkpt lat="44.040205" lon="12.5914233"><ele>2.2</ele><time>2026-05-01T10:19:11.755Z</time></trkpt><trkpt lat="44.0402717" lon="12.5915283"><ele>2.0</ele><time>2026-05-01T10:19:13.752Z</time></trkpt><trkpt lat="44.0403033" lon="12.5916067"><ele>1.9999999999999998</ele><time>2026-05-01T10:19:14.751Z</time></trkpt><trkpt lat="44.040325" lon="12.59169"><ele>2.0</ele><time>2026-05-01T10:19:15.75Z</time></trkpt><trkpt lat="44.0403417" lon="12.5918433"><ele>2.0</ele><time>2026-05-01T10:19:17.751Z</time></trkpt><trkpt lat="44.0403367" lon="12.591965"><ele>2.0</ele><time>2026-05-01T10:19:19.75Z</time></trkpt><trkpt lat="44.0403067" lon="12.5920667"><ele>1.9999999999999998</ele><time>2026-05-01T10:19:32.757Z</time></trkpt><trkpt lat="44.0402967" lon="12.5921783"><ele>2.0</ele><time>2026-05-01T10:19:39.742Z</time></trkpt><trkpt lat="44.0402517" lon="12.5923467"><ele>1.9999999999999998</ele><time>2026-05-01T10:19:41.754Z</time></trkpt><trkpt lat="44.0402267" lon="12.5924383"><ele>2.0</ele><time>2026-05-01T10:19:42.75Z</time></trkpt><trkpt lat="44.0401817" lon="12.5925467"><ele>2.0</ele><time>2026-05-01T10:19:43.758Z</time></trkpt><trkpt lat="44.0401283" lon="12.5926517"><ele>2.0</ele><time>2026-05-01T10:19:44.757Z</time></trkpt><trkpt lat="44.04008" lon="12.5927567"><ele>1.9999999999999998</ele><time>2026-05-01T10:19:45.749Z</time></trkpt><trkpt lat="44.04003" lon="12.5928683"><ele>2.0</ele><time>2026-05-01T10:19:46.751Z</time></trkpt><trkpt lat="44.0399817" lon="12.5929767"><ele>2.2</ele><time>2026-05-01T10:19:47.753Z</time></trkpt><trkpt lat="44.0399317" lon="12.5930883"><ele>2.4000000000000004</ele><time>2026-05-01T10:19:48.752Z</time></trkpt><trkpt lat="44.0398783" lon="12.5931933"><ele>2.5999999999999996</ele><time>2026-05-01T10:19:49.752Z</time></trkpt><trkpt lat="44.0398233" lon="12.5933067"><ele>2.8</ele><time>2026-05-01T10:19:50.751Z</time></trkpt><trkpt lat="44.0397633" lon="12.5934167"><ele>3.0</ele><time>2026-05-01T10:19:51.757Z</time></trkpt><trkpt lat="44.039695" lon="12.59353"><ele>3.0</ele><time>2026-05-01T10:19:52.753Z</time></trkpt><trkpt lat="44.0396283" lon="12.5936483"><ele>3.0</ele><time>2026-05-01T10:19:53.754Z</time></trkpt><trkpt lat="44.039565" lon="12.5937667"><ele>3.0</ele><time>2026-05-01T10:19:54.753Z</time></trkpt><trkpt lat="44.0395033" lon="12.5938817"><ele>3.0</ele><time>2026-05-01T10:19:55.749Z</time></trkpt><trkpt lat="44.0394383" lon="12.593995"><ele>3.0</ele><time>2026-05-01T10:19:56.747Z</time></trkpt><trkpt lat="44.03937" lon="12.5941133"><ele>3.0</ele><time>2026-05-01T10:19:57.751Z</time></trkpt><trkpt lat="44.0392983" lon="12.5942333"><ele>3.0</ele><time>2026-05-01T10:19:58.749Z</time></trkpt><trkpt lat="44.0392183" lon="12.5943617"><ele>3.0</ele><time>2026-05-01T10:19:59.743Z</time></trkpt><trkpt lat="44.0391333" lon="12.5945067"><ele>3.0</ele><time>2026-05-01T10:20:00.752Z</time></trkpt><trkpt lat="44.03904" lon="12.59466"><ele>3.0</ele><time>2026-05-01T10:20:01.751Z</time></trkpt><trkpt lat="44.0389467" lon="12.59482"><ele>3.0</ele><time>2026-05-01T10:20:02.754Z</time></trkpt><trkpt lat="44.0388433" lon="12.5949867"><ele>3.0</ele><time>2026-05-01T10:20:03.752Z</time></trkpt><trkpt lat="44.0387367" lon="12.5951533"><ele>3.0</ele><time>2026-05-01T10:20:04.742Z</time></trkpt><trkpt lat="44.0386283" lon="12.595325"><ele>3.0</ele><time>2026-05-01T10:20:05.753Z</time></trkpt><trkpt lat="44.0385233" lon="12.5954883"><ele>3.0</ele><time>2026-05-01T10:20:06.759Z</time></trkpt><trkpt lat="44.0384133" lon="12.595655"><ele>3.0</ele><time>2026-05-01T10:20:07.752Z</time></trkpt><trkpt lat="44.0383033" lon="12.595815"><ele>3.0</ele><time>2026-05-01T10:20:08.763Z</time></trkpt><trkpt lat="44.0382" lon="12.5959717"><ele>3.0</ele><time>2026-05-01T10:20:09.752Z</time></trkpt><trkpt lat="44.0381017" lon="12.59613"><ele>3.0</ele><time>2026-05-01T10:20:10.748Z</time></trkpt><trkpt lat="44.0380083" lon="12.5962817"><ele>3.0</ele><time>2026-05-01T10:20:11.744Z</time></trkpt><trkpt lat="44.037915" lon="12.59643"><ele>3.0</ele><time>2026-05-01T10:20:12.752Z</time></trkpt><trkpt lat="44.0378283" lon="12.59657"><ele>3.0</ele><time>2026-05-01T10:20:13.747Z</time></trkpt><trkpt lat="44.037745" lon="12.5967033"><ele>3.0</ele><time>2026-05-01T10:20:14.75Z</time></trkpt><trkpt lat="44.0376583" lon="12.5968317"><ele>3.0</ele><time>2026-05-01T10:20:15.755Z</time></trkpt><trkpt lat="44.0375767" lon="12.5969583"><ele>3.0</ele><time>2026-05-01T10:20:16.749Z</time></trkpt><trkpt lat="44.0375" lon="12.5970783"><ele>3.0</ele><time>2026-05-01T10:20:17.749Z</time></trkpt><trkpt lat="44.03743" lon="12.59719"><ele>3.0</ele><time>2026-05-01T10:20:18.75Z</time></trkpt><trkpt lat="44.037365" lon="12.5972883"><ele>3.0</ele><time>2026-05-01T10:20:19.757Z</time></trkpt><trkpt lat="44.037305" lon="12.5973633"><ele>3.0</ele><time>2026-05-01T10:20:20.754Z</time></trkpt><trkpt lat="44.037255" lon="12.5974233"><ele>3.0</ele><time>2026-05-01T10:20:21.753Z</time></trkpt><trkpt lat="44.0371517" lon="12.5974767"><ele>3.0</ele><time>2026-05-01T10:20:23.752Z</time></trkpt><trkpt lat="44.037045" lon="12.5974783"><ele>3.0</ele><time>2026-05-01T10:20:25.753Z</time></trkpt><trkpt lat="44.0369767" lon="12.5975433"><ele>3.0</ele><time>2026-05-01T10:20:26.754Z</time></trkpt><trkpt lat="44.0368983" lon="12.59768"><ele>3.0</ele><time>2026-05-01T10:20:28.749Z</time></trkpt><trkpt lat="44.036875" lon="12.59778"><ele>3.0</ele><time>2026-05-01T10:20:29.749Z</time></trkpt><trkpt lat="44.03686" lon="12.5978917"><ele>3.0</ele><time>2026-05-01T10:20:30.749Z</time></trkpt><trkpt lat="44.036855" lon="12.5979867"><ele>3.0</ele><time>2026-05-01T10:20:31.745Z</time></trkpt><trkpt lat="44.036865" lon="12.5981283"><ele>3.0</ele><time>2026-05-01T10:20:33.753Z</time></trkpt><trkpt lat="44.03681" lon="12.598245"><ele>3.0</ele><time>2026-05-01T10:20:35.742Z</time></trkpt><trkpt lat="44.0367333" lon="12.5984067"><ele>3.0</ele><time>2026-05-01T10:20:37.748Z</time></trkpt><trkpt lat="44.0366783" lon="12.5985017"><ele>3.0</ele><time>2026-05-01T10:20:38.753Z</time></trkpt><trkpt lat="44.0366133" lon="12.598615"><ele>3.0</ele><time>2026-05-01T10:20:39.75Z</time></trkpt><trkpt lat="44.0365383" lon="12.5987283"><ele>3.4</ele><time>2026-05-01T10:20:40.749Z</time></trkpt><trkpt lat="44.036465" lon="12.5988433"><ele>3.8</ele><time>2026-05-01T10:20:41.75Z</time></trkpt><trkpt lat="44.0363917" lon="12.598955"><ele>4.2</ele><time>2026-05-01T10:20:42.751Z</time></trkpt><trkpt lat="44.03632" lon="12.59906"><ele>4.6</ele><time>2026-05-01T10:20:43.751Z</time></trkpt><trkpt lat="44.0362517" lon="12.5991667"><ele>5.0</ele><time>2026-05-01T10:20:44.754Z</time></trkpt><trkpt lat="44.036185" lon="12.59927"><ele>5.0</ele><time>2026-05-01T10:20:45.745Z</time></trkpt><trkpt lat="44.0361217" lon="12.5993783"><ele>5.0</ele><time>2026-05-01T10:20:46.752Z</time></trkpt><trkpt lat="44.0360533" lon="12.5994883"><ele>5.0</ele><time>2026-05-01T10:20:47.747Z</time></trkpt><trkpt lat="44.035985" lon="12.5996"><ele>5.0</ele><time>2026-05-01T10:20:48.75Z</time></trkpt><trkpt lat="44.0359167" lon="12.5997133"><ele>5.0</ele><time>2026-05-01T10:20:49.75Z</time></trkpt><trkpt lat="44.0358517" lon="12.5998333"><ele>4.75</ele><time>2026-05-01T10:20:50.757Z</time></trkpt><trkpt lat="44.0357733" lon="12.5999633"><ele>4.5</ele><time>2026-05-01T10:20:51.75Z</time></trkpt><trkpt lat="44.0356833" lon="12.6001083"><ele>4.25</ele><time>2026-05-01T10:20:52.753Z</time></trkpt><trkpt lat="44.03559" lon="12.60026"><ele>4.0</ele><time>2026-05-01T10:20:53.795Z</time></trkpt><trkpt lat="44.035495" lon="12.6004133"><ele>3.6666666666666665</ele><time>2026-05-01T10:20:54.754Z</time></trkpt><trkpt lat="44.0353917" lon="12.6005717"><ele>3.333333333333333</ele><time>2026-05-01T10:20:55.75Z</time></trkpt><trkpt lat="44.03529" lon="12.6007267"><ele>3.0</ele><time>2026-05-01T10:20:56.749Z</time></trkpt><trkpt lat="44.0351817" lon="12.6008967"><ele>3.0</ele><time>2026-05-01T10:20:57.751Z</time></trkpt><trkpt lat="44.035075" lon="12.6010667"><ele>3.0</ele><time>2026-05-01T10:20:58.752Z</time></trkpt><trkpt lat="44.0349683" lon="12.60124"><ele>3.0</ele><time>2026-05-01T10:20:59.748Z</time></trkpt><trkpt lat="44.0348617" lon="12.6014067"><ele>3.0</ele><time>2026-05-01T10:21:00.748Z</time></trkpt><trkpt lat="44.0347617" lon="12.6015683"><ele>3.0</ele><time>2026-05-01T10:21:01.751Z</time></trkpt><trkpt lat="44.03466" lon="12.60173"><ele>3.0</ele><time>2026-05-01T10:21:02.753Z</time></trkpt><trkpt lat="44.0345617" lon="12.6018883"><ele>3.0</ele><time>2026-05-01T10:21:03.748Z</time></trkpt><trkpt lat="44.034465" lon="12.60204"><ele>3.0</ele><time>2026-05-01T10:21:04.751Z</time></trkpt><trkpt lat="44.0343767" lon="12.6021783"><ele>3.0</ele><time>2026-05-01T10:21:05.75Z</time></trkpt><trkpt lat="44.0343017" lon="12.6023"><ele>3.0</ele><time>2026-05-01T10:21:06.754Z</time></trkpt><trkpt lat="44.0342383" lon="12.6024067"><ele>3.0</ele><time>2026-05-01T10:21:07.749Z</time></trkpt><trkpt lat="44.0341783" lon="12.6025083"><ele>3.0</ele><time>2026-05-01T10:21:08.755Z</time></trkpt><trkpt lat="44.0341117" lon="12.60261"><ele>3.0</ele><time>2026-05-01T10:21:09.754Z</time></trkpt><trkpt lat="44.0340483" lon="12.602705"><ele>3.0</ele><time>2026-05-01T10:21:10.752Z</time></trkpt><trkpt lat="44.03399" lon="12.6027983"><ele>3.0</ele><time>2026-05-01T10:21:11.751Z</time></trkpt><trkpt lat="44.033935" lon="12.60289"><ele>3.3333333333333335</ele><time>2026-05-01T10:21:12.75Z</time></trkpt><trkpt lat="44.0338783" lon="12.6029817"><ele>3.666666666666667</ele><time>2026-05-01T10:21:13.752Z</time></trkpt><trkpt lat="44.0338217" lon="12.6030717"><ele>4.0</ele><time>2026-05-01T10:21:14.753Z</time></trkpt><trkpt lat="44.033765" lon="12.6031633"><ele>4.333333333333334</ele><time>2026-05-01T10:21:15.751Z</time></trkpt><trkpt lat="44.0337083" lon="12.6032533"><ele>4.666666666666667</ele><time>2026-05-01T10:21:16.754Z</time></trkpt><trkpt lat="44.0336533" lon="12.6033417"><ele>5.0</ele><time>2026-05-01T10:21:17.75Z</time></trkpt><trkpt lat="44.0336" lon="12.603425"><ele>5.0</ele><time>2026-05-01T10:21:18.759Z</time></trkpt><trkpt lat="44.0335533" lon="12.603505"><ele>5.0</ele><time>2026-05-01T10:21:19.754Z</time></trkpt><trkpt lat="44.033505" lon="12.6035783"><ele>5.0</ele><time>2026-05-01T10:21:20.755Z</time></trkpt><trkpt lat="44.0334617" lon="12.603645"><ele>5.0</ele><time>2026-05-01T10:21:21.752Z</time></trkpt><trkpt lat="44.033385" lon="12.6037783"><ele>5.0</ele><time>2026-05-01T10:21:23.751Z</time></trkpt><trkpt lat="44.0333033" lon="12.6039083"><ele>5.0</ele><time>2026-05-01T10:21:25.751Z</time></trkpt><trkpt lat="44.0332667" lon="12.60398"><ele>5.0</ele><time>2026-05-01T10:21:26.746Z</time></trkpt><trkpt lat="44.0331883" lon="12.6040933"><ele>5.0</ele><time>2026-05-01T10:21:28.75Z</time></trkpt><trkpt lat="44.0331267" lon="12.604195"><ele>5.0</ele><time>2026-05-01T10:21:30.749Z</time></trkpt><trkpt lat="44.0330883" lon="12.6043117"><ele>5.0</ele><time>2026-05-01T10:21:32.749Z</time></trkpt><trkpt lat="44.0330217" lon="12.6044383"><ele>4.833333333333334</ele><time>2026-05-01T10:21:34.751Z</time></trkpt><trkpt lat="44.0329733" lon="12.604505"><ele>4.666666666666667</ele><time>2026-05-01T10:21:35.755Z</time></trkpt><trkpt lat="44.032925" lon="12.6045733"><ele>4.5</ele><time>2026-05-01T10:21:36.75Z</time></trkpt><trkpt lat="44.0328783" lon="12.60465"><ele>4.333333333333333</ele><time>2026-05-01T10:21:37.75Z</time></trkpt><trkpt lat="44.03282" lon="12.6047317"><ele>4.166666666666666</ele><time>2026-05-01T10:21:38.752Z</time></trkpt><trkpt lat="44.032755" lon="12.6048267"><ele>4.0</ele><time>2026-05-01T10:21:39.75Z</time></trkpt><trkpt lat="44.0326883" lon="12.6049217"><ele>3.9999999999999996</ele><time>2026-05-01T10:21:40.753Z</time></trkpt><trkpt lat="44.0326283" lon="12.6050083"><ele>4.0</ele><time>2026-05-01T10:21:41.758Z</time></trkpt><trkpt lat="44.0325717" lon="12.6050917"><ele>4.0</ele><time>2026-05-01T10:21:42.75Z</time></trkpt><trkpt lat="44.0325167" lon="12.6051767"><ele>4.0</ele><time>2026-05-01T10:21:43.752Z</time></trkpt><trkpt lat="44.0324617" lon="12.60526"><ele>3.9999999999999996</ele><time>2026-05-01T10:21:44.755Z</time></trkpt><trkpt lat="44.0324083" lon="12.60534"><ele>4.0</ele><time>2026-05-01T10:21:45.754Z</time></trkpt><trkpt lat="44.0323517" lon="12.605425"><ele>3.9999999999999996</ele><time>2026-05-01T10:21:46.745Z</time></trkpt><trkpt lat="44.0322917" lon="12.60551"><ele>4.0</ele><time>2026-05-01T10:21:47.749Z</time></trkpt><trkpt lat="44.032235" lon="12.6055967"><ele>4.0</ele><time>2026-05-01T10:21:48.75Z</time></trkpt><trkpt lat="44.03218" lon="12.6056833"><ele>4.0</ele><time>2026-05-01T10:21:49.756Z</time></trkpt><trkpt lat="44.03212" lon="12.605775"><ele>3.9999999999999996</ele><time>2026-05-01T10:21:50.751Z</time></trkpt><trkpt lat="44.0320583" lon="12.6058683"><ele>4.0</ele><time>2026-05-01T10:21:51.75Z</time></trkpt><trkpt lat="44.0319983" lon="12.6059683"><ele>4.0</ele><time>2026-05-01T10:21:52.751Z</time></trkpt><trkpt lat="44.0319417" lon="12.60607"><ele>4.0</ele><time>2026-05-01T10:21:53.751Z</time></trkpt><trkpt lat="44.0318917" lon="12.6061733"><ele>4.0</ele><time>2026-05-01T10:21:54.754Z</time></trkpt><trkpt lat="44.0318417" lon="12.6062817"><ele>4.0</ele><time>2026-05-01T10:21:55.75Z</time></trkpt><trkpt lat="44.0317833" lon="12.6063967"><ele>4.0</ele><time>2026-05-01T10:21:56.753Z</time></trkpt><trkpt lat="44.0317183" lon="12.6065133"><ele>3.75</ele><time>2026-05-01T10:21:57.759Z</time></trkpt><trkpt lat="44.0316467" lon="12.6066333"><ele>3.5</ele><time>2026-05-01T10:21:58.757Z</time></trkpt><trkpt lat="44.03157" lon="12.6067517"><ele>3.25</ele><time>2026-05-01T10:21:59.752Z</time></trkpt><trkpt lat="44.03149" lon="12.6068733"><ele>3.0</ele><time>2026-05-01T10:22:00.751Z</time></trkpt><trkpt lat="44.0314067" lon="12.6069933"><ele>3.0</ele><time>2026-05-01T10:22:01.751Z</time></trkpt><trkpt lat="44.031325" lon="12.6071117"><ele>3.0</ele><time>2026-05-01T10:22:02.753Z</time></trkpt><trkpt lat="44.031245" lon="12.607235"><ele>3.0</ele><time>2026-05-01T10:22:03.742Z</time></trkpt><trkpt lat="44.0311683" lon="12.6073483"><ele>3.0</ele><time>2026-05-01T10:22:04.747Z</time></trkpt><trkpt lat="44.0310917" lon="12.607455"><ele>3.0</ele><time>2026-05-01T10:22:05.754Z</time></trkpt><trkpt lat="44.0310183" lon="12.60756"><ele>3.0</ele><time>2026-05-01T10:22:06.742Z</time></trkpt><trkpt lat="44.0309417" lon="12.6076617"><ele>3.0</ele><time>2026-05-01T10:22:07.752Z</time></trkpt><trkpt lat="44.0308683" lon="12.6077667"><ele>3.0</ele><time>2026-05-01T10:22:08.744Z</time></trkpt><trkpt lat="44.03079" lon="12.6078717"><ele>3.0</ele><time>2026-05-01T10:22:09.751Z</time></trkpt><trkpt lat="44.0307167" lon="12.6079833"><ele>2.75</ele><time>2026-05-01T10:22:10.75Z</time></trkpt><trkpt lat="44.030645" lon="12.608095"><ele>2.5</ele><time>2026-05-01T10:22:11.75Z</time></trkpt><trkpt lat="44.0305717" lon="12.60821"><ele>2.25</ele><time>2026-05-01T10:22:12.753Z</time></trkpt><trkpt lat="44.0304967" lon="12.6083333"><ele>2.0</ele><time>2026-05-01T10:22:13.746Z</time></trkpt><trkpt lat="44.0304183" lon="12.6084583"><ele>2.0</ele><time>2026-05-01T10:22:14.756Z</time></trkpt><trkpt lat="44.0303383" lon="12.6085883"><ele>2.0</ele><time>2026-05-01T10:22:15.745Z</time></trkpt><trkpt lat="44.0302583" lon="12.60872"><ele>2.0</ele><time>2026-05-01T10:22:16.753Z</time></trkpt><trkpt lat="44.0301767" lon="12.60885"><ele>2.0</ele><time>2026-05-01T10:22:17.749Z</time></trkpt><trkpt lat="44.030095" lon="12.6089833"><ele>2.25</ele><time>2026-05-01T10:22:18.746Z</time></trkpt><trkpt lat="44.0300067" lon="12.6091183"><ele>2.5</ele><time>2026-05-01T10:22:19.751Z</time></trkpt><trkpt lat="44.0299217" lon="12.6092583"><ele>2.75</ele><time>2026-05-01T10:22:20.754Z</time></trkpt><trkpt lat="44.02984" lon="12.6093967"><ele>3.0</ele><time>2026-05-01T10:22:21.753Z</time></trkpt><trkpt lat="44.02976" lon="12.6095383"><ele>3.0</ele><time>2026-05-01T10:22:22.755Z</time></trkpt><trkpt lat="44.02968" lon="12.6096817"><ele>3.0</ele><time>2026-05-01T10:22:23.747Z</time></trkpt><trkpt lat="44.0295967" lon="12.6098217"><ele>3.0</ele><time>2026-05-01T10:22:24.742Z</time></trkpt><trkpt lat="44.0295117" lon="12.60996"><ele>3.0</ele><time>2026-05-01T10:22:25.743Z</time></trkpt><trkpt lat="44.0294283" lon="12.6101017"><ele>3.0</ele><time>2026-05-01T10:22:26.75Z</time></trkpt><trkpt lat="44.0293417" lon="12.6102433"><ele>3.0</ele><time>2026-05-01T10:22:27.75Z</time></trkpt><trkpt lat="44.0292567" lon="12.61039"><ele>3.0</ele><time>2026-05-01T10:22:28.748Z</time></trkpt><trkpt lat="44.02917" lon="12.6105333"><ele>3.0</ele><time>2026-05-01T10:22:29.751Z</time></trkpt><trkpt lat="44.0290833" lon="12.6106783"><ele>3.0</ele><time>2026-05-01T10:22:30.75Z</time></trkpt><trkpt lat="44.028995" lon="12.61082"><ele>3.0</ele><time>2026-05-01T10:22:31.743Z</time></trkpt><trkpt lat="44.02891" lon="12.6109633"><ele>3.0</ele><time>2026-05-01T10:22:32.751Z</time></trkpt><trkpt lat="44.0288233" lon="12.6111067"><ele>3.0</ele><time>2026-05-01T10:22:33.75Z</time></trkpt><trkpt lat="44.0287333" lon="12.6112467"><ele>3.0</ele><time>2026-05-01T10:22:34.75Z</time></trkpt><trkpt lat="44.0286435" lon="12.6113863"><ele>3.0</ele><time>2026-05-01T10:22:35.753Z</time></trkpt><trkpt lat="44.028554" lon="12.6115291"><ele>3.0</ele><time>2026-05-01T10:22:36.756Z</time></trkpt><trkpt lat="44.0284646" lon="12.6116698"><ele>3.0</ele><time>2026-05-01T10:22:37.75Z</time></trkpt><trkpt lat="44.0283735" lon="12.6118095"><ele>3.5</ele><time>2026-05-01T10:22:38.753Z</time></trkpt><trkpt lat="44.0282805" lon="12.6119505"><ele>4.0</ele><time>2026-05-01T10:22:39.76Z</time></trkpt><trkpt lat="44.0281904" lon="12.6120919"><ele>4.5</ele><time>2026-05-01T10:22:40.752Z</time></trkpt><trkpt lat="44.0280992" lon="12.6122339"><ele>5.0</ele><time>2026-05-01T10:22:41.752Z</time></trkpt><trkpt lat="44.0280078" lon="12.6123742"><ele>5.0</ele><time>2026-05-01T10:22:42.754Z</time></trkpt><trkpt lat="44.027919" lon="12.6125112"><ele>5.0</ele><time>2026-05-01T10:22:43.751Z</time></trkpt><trkpt lat="44.0278348" lon="12.6126481"><ele>5.0</ele><time>2026-05-01T10:22:44.756Z</time></trkpt><trkpt lat="44.027753" lon="12.6127836"><ele>5.0</ele><time>2026-05-01T10:22:45.76Z</time></trkpt><trkpt lat="44.0276714" lon="12.6129164"><ele>4.75</ele><time>2026-05-01T10:22:46.744Z</time></trkpt><trkpt lat="44.0275909" lon="12.613046"><ele>4.5</ele><time>2026-05-01T10:22:47.744Z</time></trkpt><trkpt lat="44.0275156" lon="12.6131691"><ele>4.25</ele><time>2026-05-01T10:22:48.743Z</time></trkpt><trkpt lat="44.02744" lon="12.6132927"><ele>4.0</ele><time>2026-05-01T10:22:49.744Z</time></trkpt><trkpt lat="44.0273654" lon="12.6134177"><ele>4.0</ele><time>2026-05-01T10:22:50.743Z</time></trkpt><trkpt lat="44.0272875" lon="12.6135461"><ele>4.0</ele><time>2026-05-01T10:22:51.745Z</time></trkpt><trkpt lat="44.0272053" lon="12.6136781"><ele>4.0</ele><time>2026-05-01T10:22:52.744Z</time></trkpt><trkpt lat="44.0271229" lon="12.6138103"><ele>4.0</ele><time>2026-05-01T10:22:53.745Z</time></trkpt><trkpt lat="44.0270414" lon="12.6139354"><ele>4.333333333333333</ele><time>2026-05-01T10:22:54.744Z</time></trkpt><trkpt lat="44.0269674" lon="12.6140475"><ele>4.666666666666666</ele><time>2026-05-01T10:22:55.742Z</time></trkpt><trkpt lat="44.0269055" lon="12.6141445"><ele>5.0</ele><time>2026-05-01T10:22:56.742Z</time></trkpt><trkpt lat="44.026848" lon="12.6142303"><ele>5.333333333333333</ele><time>2026-05-01T10:22:57.741Z</time></trkpt><trkpt lat="44.026796" lon="12.6143133"><ele>5.666666666666667</ele><time>2026-05-01T10:22:58.742Z</time></trkpt><trkpt lat="44.0267475" lon="12.6143968"><ele>6.0</ele><time>2026-05-01T10:22:59.742Z</time></trkpt><trkpt lat="44.0267017" lon="12.6144751"><ele>5.833333333333333</ele><time>2026-05-01T10:23:00.743Z</time></trkpt><trkpt lat="44.0266583" lon="12.614551"><ele>5.666666666666667</ele><time>2026-05-01T10:23:01.741Z</time></trkpt><trkpt lat="44.0266144" lon="12.6146345"><ele>5.5</ele><time>2026-05-01T10:23:02.744Z</time></trkpt><trkpt lat="44.0265615" lon="12.6147278"><ele>5.333333333333334</ele><time>2026-05-01T10:23:03.742Z</time></trkpt><trkpt lat="44.0265031" lon="12.6148324"><ele>5.166666666666667</ele><time>2026-05-01T10:23:04.742Z</time></trkpt><trkpt lat="44.0264364" lon="12.614944"><ele>5.0</ele><time>2026-05-01T10:23:05.741Z</time></trkpt><trkpt lat="44.0263645" lon="12.6150636"><ele>5.0</ele><time>2026-05-01T10:23:06.742Z</time></trkpt><trkpt lat="44.0262851" lon="12.6151904"><ele>5.0</ele><time>2026-05-01T10:23:07.741Z</time></trkpt><trkpt lat="44.0261973" lon="12.6153279"><ele>5.0</ele><time>2026-05-01T10:23:08.742Z</time></trkpt><trkpt lat="44.0261064" lon="12.6154757"><ele>5.0</ele><time>2026-05-01T10:23:09.755Z</time></trkpt><trkpt lat="44.0260105" lon="12.6156305"><ele>5.0</ele><time>2026-05-01T10:23:10.752Z</time></trkpt><trkpt lat="44.0259133" lon="12.6157868"><ele>5.0</ele><time>2026-05-01T10:23:11.746Z</time></trkpt><trkpt lat="44.0258089" lon="12.6159514"><ele>5.0</ele><time>2026-05-01T10:23:12.751Z</time></trkpt><trkpt lat="44.0257056" lon="12.6161101"><ele>5.0</ele><time>2026-05-01T10:23:13.749Z</time></trkpt><trkpt lat="44.0256069" lon="12.6162636"><ele>5.0</ele><time>2026-05-01T10:23:14.749Z</time></trkpt><trkpt lat="44.0255167" lon="12.6164076"><ele>5.0</ele><time>2026-05-01T10:23:15.75Z</time></trkpt><trkpt lat="44.025432" lon="12.6165476"><ele>5.0</ele><time>2026-05-01T10:23:16.751Z</time></trkpt><trkpt lat="44.0253454" lon="12.6166907"><ele>5.0</ele><time>2026-05-01T10:23:17.747Z</time></trkpt><trkpt lat="44.0252527" lon="12.6168411"><ele>5.0</ele><time>2026-05-01T10:23:18.75Z</time></trkpt><trkpt lat="44.0251538" lon="12.616998"><ele>5.0</ele><time>2026-05-01T10:23:19.752Z</time></trkpt><trkpt lat="44.0250509" lon="12.6171559"><ele>5.0</ele><time>2026-05-01T10:23:20.747Z</time></trkpt><trkpt lat="44.0249441" lon="12.6173163"><ele>4.666666666666667</ele><time>2026-05-01T10:23:21.742Z</time></trkpt><trkpt lat="44.0248378" lon="12.6174852"><ele>4.333333333333333</ele><time>2026-05-01T10:23:22.75Z</time></trkpt><trkpt lat="44.0247338" lon="12.6176592"><ele>4.0</ele><time>2026-05-01T10:23:23.75Z</time></trkpt><trkpt lat="44.02463" lon="12.6178352"><ele>4.0</ele><time>2026-05-01T10:23:24.752Z</time></trkpt><trkpt lat="44.0245234" lon="12.6180109"><ele>4.0</ele><time>2026-05-01T10:23:25.75Z</time></trkpt><trkpt lat="44.0244185" lon="12.6181815"><ele>4.0</ele><time>2026-05-01T10:23:26.744Z</time></trkpt><trkpt lat="44.0243174" lon="12.6183488"><ele>4.0</ele><time>2026-05-01T10:23:27.751Z</time></trkpt><trkpt lat="44.0242163" lon="12.6185146"><ele>4.0</ele><time>2026-05-01T10:23:28.752Z</time></trkpt><trkpt lat="44.0240051" lon="12.6188543"><ele>5.333333333333333</ele><time>2026-05-01T10:23:30.75Z</time></trkpt><trkpt lat="44.0238925" lon="12.6190238"><ele>6.666666666666666</ele><time>2026-05-01T10:23:31.742Z</time></trkpt><trkpt lat="44.0237768" lon="12.6191936"><ele>8.0</ele><time>2026-05-01T10:23:32.75Z</time></trkpt><trkpt lat="44.0236644" lon="12.619364"><ele>7.666666666666666</ele><time>2026-05-01T10:23:33.741Z</time></trkpt><trkpt lat="44.0235588" lon="12.619529"><ele>7.333333333333334</ele><time>2026-05-01T10:23:34.749Z</time></trkpt><trkpt lat="44.0234611" lon="12.6196866"><ele>7.0</ele><time>2026-05-01T10:23:35.746Z</time></trkpt><trkpt lat="44.0233639" lon="12.6198491"><ele>7.0</ele><time>2026-05-01T10:23:36.755Z</time></trkpt><trkpt lat="44.0232638" lon="12.6200115"><ele>7.0</ele><time>2026-05-01T10:23:37.742Z</time></trkpt><trkpt lat="44.0231587" lon="12.6201773"><ele>7.0</ele><time>2026-05-01T10:23:38.758Z</time></trkpt><trkpt lat="44.0230562" lon="12.620341"><ele>7.0</ele><time>2026-05-01T10:23:39.748Z</time></trkpt><trkpt lat="44.0229538" lon="12.6205067"><ele>7.0</ele><time>2026-05-01T10:23:40.743Z</time></trkpt><trkpt lat="44.0228506" lon="12.6206713"><ele>7.0</ele><time>2026-05-01T10:23:41.747Z</time></trkpt><trkpt lat="44.0227477" lon="12.6208316"><ele>7.0</ele><time>2026-05-01T10:23:42.749Z</time></trkpt><trkpt lat="44.0226485" lon="12.6209928"><ele>7.0</ele><time>2026-05-01T10:23:43.75Z</time></trkpt><trkpt lat="44.0225519" lon="12.6211569"><ele>7.0</ele><time>2026-05-01T10:23:44.754Z</time></trkpt><trkpt lat="44.0224556" lon="12.6213194"><ele>7.0</ele><time>2026-05-01T10:23:45.752Z</time></trkpt><trkpt lat="44.0223556" lon="12.6214801"><ele>7.0</ele><time>2026-05-01T10:23:46.747Z</time></trkpt><trkpt lat="44.0222528" lon="12.6216432"><ele>7.0</ele><time>2026-05-01T10:23:47.752Z</time></trkpt><trkpt lat="44.0221472" lon="12.6218096"><ele>7.0</ele><time>2026-05-01T10:23:48.751Z</time></trkpt><trkpt lat="44.0220395" lon="12.6219788"><ele>7.0</ele><time>2026-05-01T10:23:49.75Z</time></trkpt><trkpt lat="44.0219317" lon="12.6221499"><ele>7.0</ele><time>2026-05-01T10:23:50.743Z</time></trkpt><trkpt lat="44.021825" lon="12.6223259"><ele>6.75</ele><time>2026-05-01T10:23:51.752Z</time></trkpt><trkpt lat="44.0217247" lon="12.6224983"><ele>6.5</ele><time>2026-05-01T10:23:52.751Z</time></trkpt><trkpt lat="44.0216305" lon="12.6226647"><ele>6.25</ele><time>2026-05-01T10:23:53.752Z</time></trkpt><trkpt lat="44.0215464" lon="12.6228144"><ele>6.0</ele><time>2026-05-01T10:23:54.748Z</time></trkpt><trkpt lat="44.021471" lon="12.6229473"><ele>5.8</ele><time>2026-05-01T10:23:55.749Z</time></trkpt><trkpt lat="44.0213968" lon="12.6230601"><ele>5.6</ele><time>2026-05-01T10:23:56.753Z</time></trkpt><trkpt lat="44.0213241" lon="12.6231511"><ele>5.4</ele><time>2026-05-01T10:23:57.751Z</time></trkpt><trkpt lat="44.0212584" lon="12.6232345"><ele>5.2</ele><time>2026-05-01T10:23:58.75Z</time></trkpt><trkpt lat="44.021202" lon="12.6233241"><ele>5.0</ele><time>2026-05-01T10:23:59.741Z</time></trkpt><trkpt lat="44.021145" lon="12.6234286"><ele>5.0</ele><time>2026-05-01T10:24:00.752Z</time></trkpt><trkpt lat="44.0210833" lon="12.6235477"><ele>5.0</ele><time>2026-05-01T10:24:01.743Z</time></trkpt><trkpt lat="44.0210096" lon="12.6236782"><ele>5.0</ele><time>2026-05-01T10:24:02.76Z</time></trkpt><trkpt lat="44.0209253" lon="12.6238152"><ele>5.0</ele><time>2026-05-01T10:24:03.746Z</time></trkpt><trkpt lat="44.0208267" lon="12.6239733"><ele>4.333333333333334</ele><time>2026-05-01T10:24:04.744Z</time></trkpt><trkpt lat="44.02073" lon="12.6241283"><ele>3.666666666666667</ele><time>2026-05-01T10:24:05.753Z</time></trkpt><trkpt lat="44.0206267" lon="12.6242883"><ele>3.0</ele><time>2026-05-01T10:24:06.747Z</time></trkpt><trkpt lat="44.0205217" lon="12.6244483"><ele>3.333333333333333</ele><time>2026-05-01T10:24:07.75Z</time></trkpt><trkpt lat="44.020415" lon="12.6246183"><ele>3.6666666666666665</ele><time>2026-05-01T10:24:08.745Z</time></trkpt><trkpt lat="44.02031" lon="12.62479"><ele>4.0</ele><time>2026-05-01T10:24:09.746Z</time></trkpt><trkpt lat="44.0202133" lon="12.62495"><ele>4.0</ele><time>2026-05-01T10:24:10.75Z</time></trkpt><trkpt lat="44.0201083" lon="12.6251167"><ele>4.0</ele><time>2026-05-01T10:24:11.749Z</time></trkpt><trkpt lat="44.0200117" lon="12.62527"><ele>4.0</ele><time>2026-05-01T10:24:12.749Z</time></trkpt><trkpt lat="44.0199183" lon="12.6254233"><ele>4.5</ele><time>2026-05-01T10:24:13.749Z</time></trkpt><trkpt lat="44.0198267" lon="12.625575"><ele>5.0</ele><time>2026-05-01T10:24:14.754Z</time></trkpt><trkpt lat="44.0197433" lon="12.6257083"><ele>5.5</ele><time>2026-05-01T10:24:15.742Z</time></trkpt><trkpt lat="44.0196683" lon="12.62583"><ele>6.0</ele><time>2026-05-01T10:24:16.753Z</time></trkpt><trkpt lat="44.0196" lon="12.6259433"><ele>6.0</ele><time>2026-05-01T10:24:17.751Z</time></trkpt><trkpt lat="44.0195317" lon="12.62605"><ele>6.0</ele><time>2026-05-01T10:24:18.75Z</time></trkpt><trkpt lat="44.0194633" lon="12.62615"><ele>6.0</ele><time>2026-05-01T10:24:19.75Z</time></trkpt><trkpt lat="44.019395" lon="12.62625"><ele>6.0</ele><time>2026-05-01T10:24:20.752Z</time></trkpt><trkpt lat="44.0193233" lon="12.6263467"><ele>6.0</ele><time>2026-05-01T10:24:21.751Z</time></trkpt><trkpt lat="44.0192517" lon="12.6264467"><ele>5.5</ele><time>2026-05-01T10:24:22.759Z</time></trkpt><trkpt lat="44.0191783" lon="12.6265567"><ele>5.0</ele><time>2026-05-01T10:24:23.751Z</time></trkpt><trkpt lat="44.019105" lon="12.6266683"><ele>4.5</ele><time>2026-05-01T10:24:24.752Z</time></trkpt><trkpt lat="44.0190267" lon="12.6267883"><ele>4.0</ele><time>2026-05-01T10:24:25.749Z</time></trkpt><trkpt lat="44.0189467" lon="12.6269183"><ele>4.25</ele><time>2026-05-01T10:24:26.753Z</time></trkpt><trkpt lat="44.018865" lon="12.62705"><ele>4.5</ele><time>2026-05-01T10:24:27.753Z</time></trkpt><trkpt lat="44.0187817" lon="12.627185"><ele>4.75</ele><time>2026-05-01T10:24:28.749Z</time></trkpt><trkpt lat="44.0187017" lon="12.62732"><ele>5.0</ele><time>2026-05-01T10:24:29.753Z</time></trkpt><trkpt lat="44.0186167" lon="12.6274533"><ele>5.0</ele><time>2026-05-01T10:24:30.748Z</time></trkpt><trkpt lat="44.0185417" lon="12.6275783"><ele>5.0</ele><time>2026-05-01T10:24:31.749Z</time></trkpt><trkpt lat="44.0184617" lon="12.6277083"><ele>5.0</ele><time>2026-05-01T10:24:32.752Z</time></trkpt><trkpt lat="44.0183817" lon="12.6278417"><ele>5.0</ele><time>2026-05-01T10:24:33.752Z</time></trkpt><trkpt lat="44.0183" lon="12.6279667"><ele>5.5</ele><time>2026-05-01T10:24:34.749Z</time></trkpt><trkpt lat="44.0182217" lon="12.6280983"><ele>6.0</ele><time>2026-05-01T10:24:35.751Z</time></trkpt><trkpt lat="44.0181433" lon="12.628225"><ele>6.5</ele><time>2026-05-01T10:24:36.751Z</time></trkpt><trkpt lat="44.0180733" lon="12.62835"><ele>7.0</ele><time>2026-05-01T10:24:37.746Z</time></trkpt><trkpt lat="44.0180067" lon="12.62847"><ele>7.0</ele><time>2026-05-01T10:24:38.751Z</time></trkpt><trkpt lat="44.017935" lon="12.6285933"><ele>7.0</ele><time>2026-05-01T10:24:39.742Z</time></trkpt><trkpt lat="44.0178617" lon="12.6287217"><ele>7.0</ele><time>2026-05-01T10:24:40.749Z</time></trkpt><trkpt lat="44.0177817" lon="12.62885"><ele>7.0</ele><time>2026-05-01T10:24:41.747Z</time></trkpt><trkpt lat="44.0177" lon="12.6289817"><ele>6.75</ele><time>2026-05-01T10:24:42.751Z</time></trkpt><trkpt lat="44.0176183" lon="12.6291167"><ele>6.5</ele><time>2026-05-01T10:24:43.749Z</time></trkpt><trkpt lat="44.017535" lon="12.62925"><ele>6.25</ele><time>2026-05-01T10:24:44.754Z</time></trkpt><trkpt lat="44.0174583" lon="12.6293767"><ele>6.0</ele><time>2026-05-01T10:24:45.751Z</time></trkpt><trkpt lat="44.017385" lon="12.6294933"><ele>6.4</ele><time>2026-05-01T10:24:46.751Z</time></trkpt><trkpt lat="44.017315" lon="12.6296067"><ele>6.8</ele><time>2026-05-01T10:24:47.759Z</time></trkpt><trkpt lat="44.0172483" lon="12.6297167"><ele>7.200000000000001</ele><time>2026-05-01T10:24:48.752Z</time></trkpt><trkpt lat="44.0171783" lon="12.6298317"><ele>7.6000000000000005</ele><time>2026-05-01T10:24:49.744Z</time></trkpt><trkpt lat="44.0171083" lon="12.62995"><ele>8.0</ele><time>2026-05-01T10:24:50.75Z</time></trkpt><trkpt lat="44.01704" lon="12.6300633"><ele>8.0</ele><time>2026-05-01T10:24:51.754Z</time></trkpt><trkpt lat="44.016975" lon="12.6301733"><ele>8.0</ele><time>2026-05-01T10:24:52.747Z</time></trkpt><trkpt lat="44.0169067" lon="12.6302817"><ele>8.0</ele><time>2026-05-01T10:24:53.749Z</time></trkpt><trkpt lat="44.016835" lon="12.6303933"><ele>8.0</ele><time>2026-05-01T10:24:54.748Z</time></trkpt><trkpt lat="44.0167617" lon="12.630505"><ele>8.0</ele><time>2026-05-01T10:24:55.749Z</time></trkpt><trkpt lat="44.01669" lon="12.6306183"><ele>7.800000000000001</ele><time>2026-05-01T10:24:56.742Z</time></trkpt><trkpt lat="44.016615" lon="12.630735"><ele>7.6000000000000005</ele><time>2026-05-01T10:24:57.742Z</time></trkpt><trkpt lat="44.01654" lon="12.6308533"><ele>7.3999999999999995</ele><time>2026-05-01T10:24:58.747Z</time></trkpt><trkpt lat="44.0164667" lon="12.63097"><ele>7.199999999999999</ele><time>2026-05-01T10:24:59.754Z</time></trkpt><trkpt lat="44.0163967" lon="12.631085"><ele>7.0</ele><time>2026-05-01T10:25:00.751Z</time></trkpt><trkpt lat="44.0163317" lon="12.631195"><ele>7.0</ele><time>2026-05-01T10:25:01.746Z</time></trkpt><trkpt lat="44.0162633" lon="12.6312967"><ele>6.999999999999999</ele><time>2026-05-01T10:25:02.753Z</time></trkpt><trkpt lat="44.0161917" lon="12.6314017"><ele>6.999999999999999</ele><time>2026-05-01T10:25:03.751Z</time></trkpt><trkpt lat="44.016115" lon="12.6315083"><ele>7.0</ele><time>2026-05-01T10:25:04.752Z</time></trkpt><trkpt lat="44.0160317" lon="12.6316133"><ele>7.0</ele><time>2026-05-01T10:25:05.751Z</time></trkpt><trkpt lat="44.01594" lon="12.6317133"><ele>7.0</ele><time>2026-05-01T10:25:06.753Z</time></trkpt><trkpt lat="44.015845" lon="12.6318083"><ele>7.0</ele><time>2026-05-01T10:25:07.741Z</time></trkpt><trkpt lat="44.0157483" lon="12.6318933"><ele>7.0</ele><time>2026-05-01T10:25:08.743Z</time></trkpt><trkpt lat="44.0156517" lon="12.6319683"><ele>7.0</ele><time>2026-05-01T10:25:09.748Z</time></trkpt><trkpt lat="44.0155533" lon="12.6320383"><ele>6.0</ele><time>2026-05-01T10:25:10.752Z</time></trkpt><trkpt lat="44.0154517" lon="12.6321033"><ele>5.0</ele><time>2026-05-01T10:25:11.757Z</time></trkpt><trkpt lat="44.0153467" lon="12.6321617"><ele>4.0</ele><time>2026-05-01T10:25:12.754Z</time></trkpt><trkpt lat="44.01524" lon="12.63221"><ele>3.0</ele><time>2026-05-01T10:25:13.754Z</time></trkpt><trkpt lat="44.0151283" lon="12.63225"><ele>3.0</ele><time>2026-05-01T10:25:14.753Z</time></trkpt><trkpt lat="44.0150017" lon="12.63229"><ele>3.0</ele><time>2026-05-01T10:25:15.753Z</time></trkpt><trkpt lat="44.01487" lon="12.6323317"><ele>3.0</ele><time>2026-05-01T10:25:16.741Z</time></trkpt><trkpt lat="44.0147283" lon="12.6323717"><ele>3.0</ele><time>2026-05-01T10:25:17.745Z</time></trkpt><trkpt lat="44.014575" lon="12.63241"><ele>2.3333333333333335</ele><time>2026-05-01T10:25:18.75Z</time></trkpt><trkpt lat="44.0144117" lon="12.6324533"><ele>1.6666666666666665</ele><time>2026-05-01T10:25:19.745Z</time></trkpt><trkpt lat="44.01424" lon="12.6324883"><ele>1.0</ele><time>2026-05-01T10:25:20.749Z</time></trkpt><trkpt lat="44.0140683" lon="12.6325233"><ele>1.0</ele><time>2026-05-01T10:25:21.753Z</time></trkpt><trkpt lat="44.0139017" lon="12.6325583"><ele>1.0</ele><time>2026-05-01T10:25:22.751Z</time></trkpt><trkpt lat="44.01375" lon="12.6325933"><ele>1.0</ele><time>2026-05-01T10:25:23.747Z</time></trkpt><trkpt lat="44.013605" lon="12.632625"><ele>1.0</ele><time>2026-05-01T10:25:24.744Z</time></trkpt><trkpt lat="44.0134683" lon="12.6326517"><ele>1.0</ele><time>2026-05-01T10:25:25.754Z</time></trkpt><trkpt lat="44.0133433" lon="12.6326867"><ele>1.0</ele><time>2026-05-01T10:25:26.752Z</time></trkpt><trkpt lat="44.0132183" lon="12.6327267"><ele>1.0</ele><time>2026-05-01T10:25:27.749Z</time></trkpt><trkpt lat="44.01308" lon="12.6327683"><ele>1.6666666666666665</ele><time>2026-05-01T10:25:28.752Z</time></trkpt><trkpt lat="44.0129333" lon="12.6328017"><ele>2.3333333333333335</ele><time>2026-05-01T10:25:29.75Z</time></trkpt><trkpt lat="44.0127783" lon="12.6328433"><ele>3.0</ele><time>2026-05-01T10:25:30.75Z</time></trkpt><trkpt lat="44.0126167" lon="12.632885"><ele>5.666666666666666</ele><time>2026-05-01T10:25:31.742Z</time></trkpt><trkpt lat="44.0124483" lon="12.6329217"><ele>8.333333333333332</ele><time>2026-05-01T10:25:32.749Z</time></trkpt><trkpt lat="44.0122817" lon="12.6329633"><ele>11.0</ele><time>2026-05-01T10:25:33.749Z</time></trkpt><trkpt lat="44.0121133" lon="12.6330033"><ele>11.0</ele><time>2026-05-01T10:25:34.753Z</time></trkpt><trkpt lat="44.011942" lon="12.6330413"><ele>11.0</ele><time>2026-05-01T10:25:35.751Z</time></trkpt><trkpt lat="44.0117696" lon="12.6330723"><ele>11.0</ele><time>2026-05-01T10:25:36.754Z</time></trkpt><trkpt lat="44.0115975" lon="12.6330945"><ele>10.333333333333332</ele><time>2026-05-01T10:25:37.753Z</time></trkpt><trkpt lat="44.011427" lon="12.6331112"><ele>9.666666666666666</ele><time>2026-05-01T10:25:38.754Z</time></trkpt><trkpt lat="44.0112589" lon="12.6331272"><ele>9.0</ele><time>2026-05-01T10:25:39.754Z</time></trkpt><trkpt lat="44.0110993" lon="12.6331371"><ele>9.0</ele><time>2026-05-01T10:25:40.752Z</time></trkpt><trkpt lat="44.0109518" lon="12.6331431"><ele>9.0</ele><time>2026-05-01T10:25:41.753Z</time></trkpt><trkpt lat="44.0108139" lon="12.6331505"><ele>9.0</ele><time>2026-05-01T10:25:42.75Z</time></trkpt><trkpt lat="44.0106825" lon="12.6331577"><ele>9.0</ele><time>2026-05-01T10:25:43.743Z</time></trkpt><trkpt lat="44.0105583" lon="12.6331702"><ele>9.5</ele><time>2026-05-01T10:25:44.747Z</time></trkpt><trkpt lat="44.0104384" lon="12.6331812"><ele>10.0</ele><time>2026-05-01T10:25:45.75Z</time></trkpt><trkpt lat="44.0103232" lon="12.6331892"><ele>10.5</ele><time>2026-05-01T10:25:46.752Z</time></trkpt><trkpt lat="44.0102106" lon="12.6331984"><ele>11.0</ele><time>2026-05-01T10:25:47.751Z</time></trkpt><trkpt lat="44.0100978" lon="12.6332069"><ele>10.75</ele><time>2026-05-01T10:25:48.744Z</time></trkpt><trkpt lat="44.0099832" lon="12.6332152"><ele>10.5</ele><time>2026-05-01T10:25:49.75Z</time></trkpt><trkpt lat="44.0098639" lon="12.6332263"><ele>10.25</ele><time>2026-05-01T10:25:50.75Z</time></trkpt><trkpt lat="44.0097331" lon="12.6332468"><ele>10.0</ele><time>2026-05-01T10:25:51.75Z</time></trkpt><trkpt lat="44.0095905" lon="12.6332661"><ele>10.0</ele><time>2026-05-01T10:25:52.752Z</time></trkpt><trkpt lat="44.0094421" lon="12.6332812"><ele>10.0</ele><time>2026-05-01T10:25:53.743Z</time></trkpt><trkpt lat="44.0092933" lon="12.6332902"><ele>10.0</ele><time>2026-05-01T10:25:54.742Z</time></trkpt><trkpt lat="44.0091445" lon="12.6332966"><ele>10.0</ele><time>2026-05-01T10:25:55.752Z</time></trkpt><trkpt lat="44.0090005" lon="12.6333061"><ele>11.0</ele><time>2026-05-01T10:25:56.744Z</time></trkpt><trkpt lat="44.0088546" lon="12.6333196"><ele>12.0</ele><time>2026-05-01T10:25:57.751Z</time></trkpt><trkpt lat="44.0087051" lon="12.6333335"><ele>13.0</ele><time>2026-05-01T10:25:58.75Z</time></trkpt><trkpt lat="44.0085518" lon="12.6333493"><ele>13.0</ele><time>2026-05-01T10:25:59.75Z</time></trkpt><trkpt lat="44.0083992" lon="12.6333608"><ele>13.0</ele><time>2026-05-01T10:26:00.754Z</time></trkpt><trkpt lat="44.0082514" lon="12.6333698"><ele>13.0</ele><time>2026-05-01T10:26:01.752Z</time></trkpt><trkpt lat="44.0081045" lon="12.6333811"><ele>13.0</ele><time>2026-05-01T10:26:02.756Z</time></trkpt><trkpt lat="44.0079565" lon="12.6333964"><ele>13.333333333333332</ele><time>2026-05-01T10:26:03.749Z</time></trkpt><trkpt lat="44.0078052" lon="12.633411"><ele>13.666666666666668</ele><time>2026-05-01T10:26:04.747Z</time></trkpt><trkpt lat="44.0076497" lon="12.6334244"><ele>14.0</ele><time>2026-05-01T10:26:05.75Z</time></trkpt><trkpt lat="44.0074927" lon="12.6334402"><ele>14.0</ele><time>2026-05-01T10:26:06.754Z</time></trkpt><trkpt lat="44.0073346" lon="12.6334544"><ele>14.0</ele><time>2026-05-01T10:26:07.751Z</time></trkpt><trkpt lat="44.0071769" lon="12.6334681"><ele>14.0</ele><time>2026-05-01T10:26:08.749Z</time></trkpt><trkpt lat="44.0070187" lon="12.633482"><ele>14.0</ele><time>2026-05-01T10:26:09.744Z</time></trkpt><trkpt lat="44.0068628" lon="12.6334877"><ele>14.0</ele><time>2026-05-01T10:26:10.753Z</time></trkpt><trkpt lat="44.0067143" lon="12.6334989"><ele>14.0</ele><time>2026-05-01T10:26:11.751Z</time></trkpt><trkpt lat="44.0065679" lon="12.6335123"><ele>14.25</ele><time>2026-05-01T10:26:12.752Z</time></trkpt><trkpt lat="44.0064259" lon="12.6335256"><ele>14.5</ele><time>2026-05-01T10:26:13.752Z</time></trkpt><trkpt lat="44.0062921" lon="12.6335368"><ele>14.75</ele><time>2026-05-01T10:26:14.753Z</time></trkpt><trkpt lat="44.0061677" lon="12.6335464"><ele>15.0</ele><time>2026-05-01T10:26:15.75Z</time></trkpt><trkpt lat="44.0060514" lon="12.6335561"><ele>15.0</ele><time>2026-05-01T10:26:16.751Z</time></trkpt><trkpt lat="44.0059429" lon="12.6335634"><ele>15.0</ele><time>2026-05-01T10:26:17.746Z</time></trkpt><trkpt lat="44.0058418" lon="12.6335667"><ele>15.0</ele><time>2026-05-01T10:26:18.749Z</time></trkpt><trkpt lat="44.0057475" lon="12.6335715"><ele>15.0</ele><time>2026-05-01T10:26:19.753Z</time></trkpt><trkpt lat="44.0056589" lon="12.633576"><ele>15.0</ele><time>2026-05-01T10:26:20.751Z</time></trkpt><trkpt lat="44.0055743" lon="12.6335794"><ele>15.166666666666666</ele><time>2026-05-01T10:26:21.743Z</time></trkpt><trkpt lat="44.0054964" lon="12.6335834"><ele>15.333333333333332</ele><time>2026-05-01T10:26:22.753Z</time></trkpt><trkpt lat="44.0054264" lon="12.6335877"><ele>15.5</ele><time>2026-05-01T10:26:23.753Z</time></trkpt><trkpt lat="44.0053102" lon="12.6335988"><ele>15.666666666666666</ele><time>2026-05-01T10:26:25.749Z</time></trkpt><trkpt lat="44.0052264" lon="12.6336"><ele>15.833333333333332</ele><time>2026-05-01T10:26:27.749Z</time></trkpt><trkpt lat="44.0051572" lon="12.6335811"><ele>16.0</ele><time>2026-05-01T10:26:30.754Z</time></trkpt><trkpt lat="44.0050862" lon="12.6335216"><ele>15.999999999999998</ele><time>2026-05-01T10:26:32.747Z</time></trkpt><trkpt lat="44.0050305" lon="12.6334749"><ele>16.0</ele><time>2026-05-01T10:26:33.747Z</time></trkpt><trkpt lat="44.0049655" lon="12.6334389"><ele>16.0</ele><time>2026-05-01T10:26:34.743Z</time></trkpt><trkpt lat="44.0048903" lon="12.6334371"><ele>16.0</ele><time>2026-05-01T10:26:35.751Z</time></trkpt><trkpt lat="44.0048168" lon="12.6334734"><ele>15.999999999999998</ele><time>2026-05-01T10:26:36.766Z</time></trkpt><trkpt lat="44.0047487" lon="12.633544"><ele>16.0</ele><time>2026-05-01T10:26:37.757Z</time></trkpt><trkpt lat="44.0046838" lon="12.6336213"><ele>15.200000000000001</ele><time>2026-05-01T10:26:38.752Z</time></trkpt><trkpt lat="44.0046148" lon="12.6337249"><ele>14.400000000000002</ele><time>2026-05-01T10:26:39.747Z</time></trkpt><trkpt lat="44.0045323" lon="12.6338076"><ele>13.6</ele><time>2026-05-01T10:26:40.75Z</time></trkpt><trkpt lat="44.0044408" lon="12.6338705"><ele>12.8</ele><time>2026-05-01T10:26:41.75Z</time></trkpt><trkpt lat="44.004329" lon="12.6339151"><ele>12.0</ele><time>2026-05-01T10:26:42.743Z</time></trkpt><trkpt lat="44.0042043" lon="12.6339601"><ele>12.25</ele><time>2026-05-01T10:26:43.744Z</time></trkpt><trkpt lat="44.0040753" lon="12.6340093"><ele>12.5</ele><time>2026-05-01T10:26:44.752Z</time></trkpt><trkpt lat="44.0039467" lon="12.6340588"><ele>12.75</ele><time>2026-05-01T10:26:45.752Z</time></trkpt><trkpt lat="44.0038178" lon="12.6341069"><ele>13.0</ele><time>2026-05-01T10:26:46.748Z</time></trkpt><trkpt lat="44.0036851" lon="12.6341566"><ele>13.0</ele><time>2026-05-01T10:26:47.754Z</time></trkpt><trkpt lat="44.0035489" lon="12.6342088"><ele>13.0</ele><time>2026-05-01T10:26:48.751Z</time></trkpt><trkpt lat="44.0034124" lon="12.6342597"><ele>13.0</ele><time>2026-05-01T10:26:49.75Z</time></trkpt><trkpt lat="44.0032795" lon="12.6343062"><ele>13.0</ele><time>2026-05-01T10:26:50.752Z</time></trkpt><trkpt lat="44.0031534" lon="12.6343495"><ele>13.0</ele><time>2026-05-01T10:26:51.748Z</time></trkpt><trkpt lat="44.0030379" lon="12.6343916"><ele>13.0</ele><time>2026-05-01T10:26:52.757Z</time></trkpt><trkpt lat="44.0029315" lon="12.6344214"><ele>13.0</ele><time>2026-05-01T10:26:53.753Z</time></trkpt><trkpt lat="44.0028385" lon="12.634426"><ele>13.0</ele><time>2026-05-01T10:26:54.743Z</time></trkpt><trkpt lat="44.0027534" lon="12.6344019"><ele>13.0</ele><time>2026-05-01T10:26:55.745Z</time></trkpt><trkpt lat="44.0026682" lon="12.6343691"><ele>13.0</ele><time>2026-05-01T10:26:56.749Z</time></trkpt><trkpt lat="44.0026037" lon="12.6343291"><ele>13.0</ele><time>2026-05-01T10:26:57.746Z</time></trkpt><trkpt lat="44.0025367" lon="12.6343317"><ele>13.0</ele><time>2026-05-01T10:26:58.742Z</time></trkpt><trkpt lat="44.0024683" lon="12.63437"><ele>13.0</ele><time>2026-05-01T10:26:59.748Z</time></trkpt><trkpt lat="44.002415" lon="12.6344383"><ele>13.0</ele><time>2026-05-01T10:27:00.756Z</time></trkpt><trkpt lat="44.00238" lon="12.6345233"><ele>13.0</ele><time>2026-05-01T10:27:01.745Z</time></trkpt><trkpt lat="44.0023617" lon="12.6346167"><ele>13.0</ele><time>2026-05-01T10:27:02.745Z</time></trkpt><trkpt lat="44.0023583" lon="12.6347183"><ele>12.8</ele><time>2026-05-01T10:27:03.743Z</time></trkpt><trkpt lat="44.0023517" lon="12.63483"><ele>12.600000000000001</ele><time>2026-05-01T10:27:04.753Z</time></trkpt><trkpt lat="44.0023367" lon="12.634955"><ele>12.399999999999999</ele><time>2026-05-01T10:27:05.747Z</time></trkpt><trkpt lat="44.0023" lon="12.6350917"><ele>12.2</ele><time>2026-05-01T10:27:06.747Z</time></trkpt><trkpt lat="44.0022567" lon="12.6352283"><ele>12.0</ele><time>2026-05-01T10:27:07.751Z</time></trkpt><trkpt lat="44.0021983" lon="12.6353817"><ele>11.75</ele><time>2026-05-01T10:27:08.752Z</time></trkpt><trkpt lat="44.002135" lon="12.6355383"><ele>11.5</ele><time>2026-05-01T10:27:09.743Z</time></trkpt><trkpt lat="44.00206" lon="12.6357033"><ele>11.25</ele><time>2026-05-01T10:27:10.742Z</time></trkpt><trkpt lat="44.0019817" lon="12.6358883"><ele>11.0</ele><time>2026-05-01T10:27:11.752Z</time></trkpt><trkpt lat="44.0019017" lon="12.636075"><ele>11.0</ele><time>2026-05-01T10:27:12.749Z</time></trkpt><trkpt lat="44.0018267" lon="12.6362667"><ele>11.0</ele><time>2026-05-01T10:27:13.749Z</time></trkpt><trkpt lat="44.0017533" lon="12.63647"><ele>11.0</ele><time>2026-05-01T10:27:14.75Z</time></trkpt><trkpt lat="44.0016883" lon="12.6366717"><ele>11.0</ele><time>2026-05-01T10:27:15.745Z</time></trkpt><trkpt lat="44.00163" lon="12.6368733"><ele>11.0</ele><time>2026-05-01T10:27:16.748Z</time></trkpt><trkpt lat="44.00158" lon="12.63708"><ele>11.0</ele><time>2026-05-01T10:27:17.748Z</time></trkpt><trkpt lat="44.001535" lon="12.63729"><ele>11.0</ele><time>2026-05-01T10:27:18.744Z</time></trkpt><trkpt lat="44.0014917" lon="12.637505"><ele>11.0</ele><time>2026-05-01T10:27:19.747Z</time></trkpt><trkpt lat="44.00145" lon="12.6377217"><ele>11.0</ele><time>2026-05-01T10:27:20.743Z</time></trkpt><trkpt lat="44.0014117" lon="12.6379417"><ele>11.0</ele><time>2026-05-01T10:27:21.748Z</time></trkpt><trkpt lat="44.0013767" lon="12.6381683"><ele>11.0</ele><time>2026-05-01T10:27:22.749Z</time></trkpt><trkpt lat="44.001335" lon="12.63839"><ele>11.0</ele><time>2026-05-01T10:27:23.753Z</time></trkpt><trkpt lat="44.0012983" lon="12.638615"><ele>11.0</ele><time>2026-05-01T10:27:24.742Z</time></trkpt><trkpt lat="44.001255" lon="12.6388317"><ele>11.0</ele><time>2026-05-01T10:27:25.76Z</time></trkpt><trkpt lat="44.001215" lon="12.6390367"><ele>11.0</ele><time>2026-05-01T10:27:26.756Z</time></trkpt><trkpt lat="44.0011733" lon="12.6392233"><ele>11.0</ele><time>2026-05-01T10:27:27.752Z</time></trkpt><trkpt lat="44.0011433" lon="12.6393933"><ele>11.0</ele><time>2026-05-01T10:27:28.744Z</time></trkpt><trkpt lat="44.0011067" lon="12.63955"><ele>11.0</ele><time>2026-05-01T10:27:29.743Z</time></trkpt><trkpt lat="44.0010733" lon="12.639705"><ele>11.0</ele><time>2026-05-01T10:27:30.741Z</time></trkpt><trkpt lat="44.0010417" lon="12.6398633"><ele>11.0</ele><time>2026-05-01T10:27:31.752Z</time></trkpt><trkpt lat="44.0010067" lon="12.640025"><ele>11.0</ele><time>2026-05-01T10:27:32.756Z</time></trkpt><trkpt lat="44.0009717" lon="12.64019"><ele>11.0</ele><time>2026-05-01T10:27:33.755Z</time></trkpt><trkpt lat="44.00094" lon="12.6403567"><ele>11.0</ele><time>2026-05-01T10:27:34.75Z</time></trkpt><trkpt lat="44.0009083" lon="12.6405283"><ele>11.0</ele><time>2026-05-01T10:27:35.747Z</time></trkpt><trkpt lat="44.00088" lon="12.6406933"><ele>11.0</ele><time>2026-05-01T10:27:36.75Z</time></trkpt><trkpt lat="44.00085" lon="12.64085"><ele>11.0</ele><time>2026-05-01T10:27:37.749Z</time></trkpt><trkpt lat="44.0008167" lon="12.641"><ele>11.0</ele><time>2026-05-01T10:27:38.742Z</time></trkpt><trkpt lat="44.00078" lon="12.6411567"><ele>9.5</ele><time>2026-05-01T10:27:39.749Z</time></trkpt><trkpt lat="44.0007417" lon="12.6413133"><ele>8.0</ele><time>2026-05-01T10:27:40.751Z</time></trkpt><trkpt lat="44.0007" lon="12.64147"><ele>6.5</ele><time>2026-05-01T10:27:41.747Z</time></trkpt><trkpt lat="44.0006483" lon="12.6416233"><ele>5.0</ele><time>2026-05-01T10:27:42.748Z</time></trkpt><trkpt lat="44.0005917" lon="12.641775"><ele>5.0</ele><time>2026-05-01T10:27:43.748Z</time></trkpt><trkpt lat="44.0005333" lon="12.6419283"><ele>5.0</ele><time>2026-05-01T10:27:44.75Z</time></trkpt><trkpt lat="44.0004717" lon="12.6420883"><ele>5.0</ele><time>2026-05-01T10:27:45.75Z</time></trkpt><trkpt lat="44.00041" lon="12.6422467"><ele>5.0</ele><time>2026-05-01T10:27:46.754Z</time></trkpt><trkpt lat="44.000345" lon="12.6424133"><ele>5.0</ele><time>2026-05-01T10:27:47.749Z</time></trkpt><trkpt lat="44.0002817" lon="12.6425833"><ele>5.0</ele><time>2026-05-01T10:27:48.748Z</time></trkpt><trkpt lat="44.00022" lon="12.6427533"><ele>5.0</ele><time>2026-05-01T10:27:49.749Z</time></trkpt><trkpt lat="44.0001583" lon="12.6429183"><ele>5.0</ele><time>2026-05-01T10:27:50.75Z</time></trkpt><trkpt lat="44.000095" lon="12.6430783"><ele>5.25</ele><time>2026-05-01T10:27:51.755Z</time></trkpt><trkpt lat="44.00003" lon="12.6432317"><ele>5.5</ele><time>2026-05-01T10:27:52.748Z</time></trkpt><trkpt lat="43.9999667" lon="12.6433817"><ele>5.75</ele><time>2026-05-01T10:27:53.755Z</time></trkpt><trkpt lat="43.9999133" lon="12.643525"><ele>6.0</ele><time>2026-05-01T10:27:54.75Z</time></trkpt><trkpt lat="43.9998567" lon="12.6436617"><ele>5.5</ele><time>2026-05-01T10:27:55.743Z</time></trkpt><trkpt lat="43.9998" lon="12.6438"><ele>5.0</ele><time>2026-05-01T10:27:56.753Z</time></trkpt><trkpt lat="43.9997467" lon="12.643935"><ele>4.5</ele><time>2026-05-01T10:27:57.749Z</time></trkpt><trkpt lat="43.9996883" lon="12.6440783"><ele>4.0</ele><time>2026-05-01T10:27:58.749Z</time></trkpt><trkpt lat="43.9996333" lon="12.6442233"><ele>4.0</ele><time>2026-05-01T10:27:59.748Z</time></trkpt><trkpt lat="43.9995783" lon="12.6443733"><ele>4.0</ele><time>2026-05-01T10:28:00.752Z</time></trkpt><trkpt lat="43.99952" lon="12.644525"><ele>4.0</ele><time>2026-05-01T10:28:01.749Z</time></trkpt><trkpt lat="43.9994633" lon="12.6446767"><ele>4.0</ele><time>2026-05-01T10:28:02.75Z</time></trkpt><trkpt lat="43.9994017" lon="12.6448317"><ele>3.75</ele><time>2026-05-01T10:28:03.742Z</time></trkpt><trkpt lat="43.9993383" lon="12.6449867"><ele>3.5</ele><time>2026-05-01T10:28:04.756Z</time></trkpt><trkpt lat="43.999275" lon="12.6451433"><ele>3.25</ele><time>2026-05-01T10:28:05.751Z</time></trkpt><trkpt lat="43.99921" lon="12.645305"><ele>3.0</ele><time>2026-05-01T10:28:06.751Z</time></trkpt><trkpt lat="43.9991467" lon="12.6454767"><ele>4.5</ele><time>2026-05-01T10:28:07.744Z</time></trkpt><trkpt lat="43.999085" lon="12.6456467"><ele>6.0</ele><time>2026-05-01T10:28:08.752Z</time></trkpt><trkpt lat="43.99902" lon="12.6458117"><ele>7.5</ele><time>2026-05-01T10:28:09.753Z</time></trkpt><trkpt lat="43.9989633" lon="12.6459667"><ele>9.0</ele><time>2026-05-01T10:28:10.744Z</time></trkpt><trkpt lat="43.998905" lon="12.6461083"><ele>8.6</ele><time>2026-05-01T10:28:11.751Z</time></trkpt><trkpt lat="43.9988517" lon="12.64623"><ele>8.2</ele><time>2026-05-01T10:28:12.742Z</time></trkpt><trkpt lat="43.9988033" lon="12.6463317"><ele>7.799999999999999</ele><time>2026-05-01T10:28:13.754Z</time></trkpt><trkpt lat="43.9987633" lon="12.6464183"><ele>7.3999999999999995</ele><time>2026-05-01T10:28:14.755Z</time></trkpt><trkpt lat="43.99869" lon="12.646535"><ele>7.0</ele><time>2026-05-01T10:28:16.752Z</time></trkpt><trkpt lat="43.9985733" lon="12.6466083"><ele>7.0</ele><time>2026-05-01T10:28:18.752Z</time></trkpt><trkpt lat="43.998505" lon="12.64665"><ele>7.0</ele><time>2026-05-01T10:28:19.753Z</time></trkpt><trkpt lat="43.9984517" lon="12.6467167"><ele>7.0</ele><time>2026-05-01T10:28:20.751Z</time></trkpt><trkpt lat="43.9984133" lon="12.6467917"><ele>7.0</ele><time>2026-05-01T10:28:21.751Z</time></trkpt><trkpt lat="43.9983833" lon="12.6468833"><ele>7.0</ele><time>2026-05-01T10:28:22.747Z</time></trkpt><trkpt lat="43.9983633" lon="12.6469883"><ele>7.0</ele><time>2026-05-01T10:28:23.75Z</time></trkpt><trkpt lat="43.9983433" lon="12.6471017"><ele>7.0</ele><time>2026-05-01T10:28:24.746Z</time></trkpt><trkpt lat="43.9983133" lon="12.6472117"><ele>7.199999999999999</ele><time>2026-05-01T10:28:25.746Z</time></trkpt><trkpt lat="43.99827" lon="12.6473183"><ele>7.3999999999999995</ele><time>2026-05-01T10:28:26.761Z</time></trkpt><trkpt lat="43.9982167" lon="12.647415"><ele>7.6000000000000005</ele><time>2026-05-01T10:28:27.751Z</time></trkpt><trkpt lat="43.99815" lon="12.6475083"><ele>7.800000000000001</ele><time>2026-05-01T10:28:28.756Z</time></trkpt><trkpt lat="43.998085" lon="12.6476017"><ele>8.0</ele><time>2026-05-01T10:28:29.746Z</time></trkpt><trkpt lat="43.9980217" lon="12.64769"><ele>7.999999999999999</ele><time>2026-05-01T10:28:30.757Z</time></trkpt><trkpt lat="43.997955" lon="12.6477733"><ele>8.0</ele><time>2026-05-01T10:28:31.752Z</time></trkpt><trkpt lat="43.9978883" lon="12.6478417"><ele>8.0</ele><time>2026-05-01T10:28:32.754Z</time></trkpt><trkpt lat="43.9978167" lon="12.6479083"><ele>8.0</ele><time>2026-05-01T10:28:33.749Z</time></trkpt><trkpt lat="43.9977367" lon="12.64797"><ele>7.999999999999999</ele><time>2026-05-01T10:28:34.743Z</time></trkpt><trkpt lat="43.9976533" lon="12.6480167"><ele>8.0</ele><time>2026-05-01T10:28:35.761Z</time></trkpt><trkpt lat="43.9975633" lon="12.6480583"><ele>8.75</ele><time>2026-05-01T10:28:36.751Z</time></trkpt><trkpt lat="43.9974617" lon="12.6480933"><ele>9.5</ele><time>2026-05-01T10:28:37.755Z</time></trkpt><trkpt lat="43.9973517" lon="12.6481233"><ele>10.25</ele><time>2026-05-01T10:28:38.757Z</time></trkpt><trkpt lat="43.9972333" lon="12.648155"><ele>11.0</ele><time>2026-05-01T10:28:39.758Z</time></trkpt><trkpt lat="43.99711" lon="12.6481917"><ele>11.0</ele><time>2026-05-01T10:28:40.743Z</time></trkpt><trkpt lat="43.9969783" lon="12.6482267"><ele>11.0</ele><time>2026-05-01T10:28:41.752Z</time></trkpt><trkpt lat="43.9968383" lon="12.6482667"><ele>11.0</ele><time>2026-05-01T10:28:42.744Z</time></trkpt><trkpt lat="43.9966917" lon="12.648305"><ele>11.0</ele><time>2026-05-01T10:28:43.751Z</time></trkpt><trkpt lat="43.9965417" lon="12.6483433"><ele>10.666666666666666</ele><time>2026-05-01T10:28:44.749Z</time></trkpt><trkpt lat="43.9963867" lon="12.6483867"><ele>10.333333333333334</ele><time>2026-05-01T10:28:45.751Z</time></trkpt><trkpt lat="43.9962317" lon="12.6484267"><ele>10.0</ele><time>2026-05-01T10:28:46.749Z</time></trkpt><trkpt lat="43.9960833" lon="12.6484583"><ele>10.0</ele><time>2026-05-01T10:28:47.749Z</time></trkpt><trkpt lat="43.99594" lon="12.6484867"><ele>10.0</ele><time>2026-05-01T10:28:48.742Z</time></trkpt><trkpt lat="43.9958033" lon="12.6485183"><ele>10.0</ele><time>2026-05-01T10:28:49.751Z</time></trkpt><trkpt lat="43.9956783" lon="12.648545"><ele>10.0</ele><time>2026-05-01T10:28:50.746Z</time></trkpt><trkpt lat="43.9955733" lon="12.6485683"><ele>9.833333333333334</ele><time>2026-05-01T10:28:51.752Z</time></trkpt><trkpt lat="43.9954817" lon="12.648585"><ele>9.666666666666668</ele><time>2026-05-01T10:28:52.752Z</time></trkpt><trkpt lat="43.995405" lon="12.6486017"><ele>9.5</ele><time>2026-05-01T10:28:53.747Z</time></trkpt><trkpt lat="43.9953317" lon="12.6486133"><ele>9.333333333333334</ele><time>2026-05-01T10:28:54.756Z</time></trkpt><trkpt lat="43.9952683" lon="12.6486233"><ele>9.166666666666666</ele><time>2026-05-01T10:28:55.751Z</time></trkpt><trkpt lat="43.9951483" lon="12.6486483"><ele>9.0</ele><time>2026-05-01T10:28:57.748Z</time></trkpt><trkpt lat="43.9950833" lon="12.64866"><ele>9.333333333333334</ele><time>2026-05-01T10:28:58.746Z</time></trkpt><trkpt lat="43.99501" lon="12.6486917"><ele>9.666666666666666</ele><time>2026-05-01T10:28:59.754Z</time></trkpt><trkpt lat="43.9949383" lon="12.6487267"><ele>10.0</ele><time>2026-05-01T10:29:00.752Z</time></trkpt><trkpt lat="43.9948567" lon="12.64877"><ele>10.333333333333332</ele><time>2026-05-01T10:29:01.755Z</time></trkpt><trkpt lat="43.9947617" lon="12.6488117"><ele>10.666666666666666</ele><time>2026-05-01T10:29:02.753Z</time></trkpt><trkpt lat="43.99467" lon="12.6488567"><ele>11.0</ele><time>2026-05-01T10:29:03.744Z</time></trkpt><trkpt lat="43.994575" lon="12.64892"><ele>11.200000000000001</ele><time>2026-05-01T10:29:04.749Z</time></trkpt><trkpt lat="43.9944783" lon="12.6489933"><ele>11.4</ele><time>2026-05-01T10:29:05.753Z</time></trkpt><trkpt lat="43.99438" lon="12.6490717"><ele>11.6</ele><time>2026-05-01T10:29:06.752Z</time></trkpt><trkpt lat="43.9942833" lon="12.649155"><ele>11.8</ele><time>2026-05-01T10:29:07.75Z</time></trkpt><trkpt lat="43.9941917" lon="12.6492433"><ele>12.0</ele><time>2026-05-01T10:29:08.753Z</time></trkpt><trkpt lat="43.9941067" lon="12.6493333"><ele>12.0</ele><time>2026-05-01T10:29:09.751Z</time></trkpt><trkpt lat="43.9940183" lon="12.64943"><ele>12.0</ele><time>2026-05-01T10:29:10.744Z</time></trkpt><trkpt lat="43.99394" lon="12.6495283"><ele>12.0</ele><time>2026-05-01T10:29:11.75Z</time></trkpt><trkpt lat="43.993875" lon="12.6496283"><ele>12.0</ele><time>2026-05-01T10:29:12.75Z</time></trkpt><trkpt lat="43.993815" lon="12.6497167"><ele>12.0</ele><time>2026-05-01T10:29:13.752Z</time></trkpt><trkpt lat="43.9937683" lon="12.6497867"><ele>12.399999999999999</ele><time>2026-05-01T10:29:14.751Z</time></trkpt><trkpt lat="43.993725" lon="12.6498517"><ele>12.799999999999999</ele><time>2026-05-01T10:29:15.75Z</time></trkpt><trkpt lat="43.9936483" lon="12.64997"><ele>13.2</ele><time>2026-05-01T10:29:17.747Z</time></trkpt><trkpt lat="43.9935833" lon="12.6500767"><ele>13.6</ele><time>2026-05-01T10:29:19.753Z</time></trkpt><trkpt lat="43.9935433" lon="12.650155"><ele>14.0</ele><time>2026-05-01T10:29:22.745Z</time></trkpt><trkpt lat="43.993465" lon="12.6502517"><ele>14.2</ele><time>2026-05-01T10:29:27.745Z</time></trkpt><trkpt lat="43.9933833" lon="12.650375"><ele>14.399999999999999</ele><time>2026-05-01T10:29:29.75Z</time></trkpt><trkpt lat="43.99335" lon="12.6504617"><ele>14.6</ele><time>2026-05-01T10:29:30.751Z</time></trkpt><trkpt lat="43.993315" lon="12.6505733"><ele>14.8</ele><time>2026-05-01T10:29:31.753Z</time></trkpt><trkpt lat="43.9932733" lon="12.6506967"><ele>15.0</ele><time>2026-05-01T10:29:32.761Z</time></trkpt><trkpt lat="43.99322" lon="12.6508267"><ele>14.25</ele><time>2026-05-01T10:29:33.751Z</time></trkpt><trkpt lat="43.99316" lon="12.6509533"><ele>13.5</ele><time>2026-05-01T10:29:34.757Z</time></trkpt><trkpt lat="43.9930967" lon="12.6510883"><ele>12.75</ele><time>2026-05-01T10:29:35.749Z</time></trkpt><trkpt lat="43.9930283" lon="12.6512317"><ele>12.0</ele><time>2026-05-01T10:29:36.742Z</time></trkpt><trkpt lat="43.992955" lon="12.6513717"><ele>12.0</ele><time>2026-05-01T10:29:37.751Z</time></trkpt><trkpt lat="43.9928867" lon="12.651525"><ele>12.0</ele><time>2026-05-01T10:29:38.755Z</time></trkpt><trkpt lat="43.9928183" lon="12.65168"><ele>12.0</ele><time>2026-05-01T10:29:39.751Z</time></trkpt><trkpt lat="43.9927483" lon="12.6518333"><ele>12.0</ele><time>2026-05-01T10:29:40.752Z</time></trkpt><trkpt lat="43.9926767" lon="12.651985"><ele>12.25</ele><time>2026-05-01T10:29:41.749Z</time></trkpt><trkpt lat="43.9926083" lon="12.6521383"><ele>12.5</ele><time>2026-05-01T10:29:42.75Z</time></trkpt><trkpt lat="43.9925433" lon="12.6523017"><ele>12.75</ele><time>2026-05-01T10:29:43.749Z</time></trkpt><trkpt lat="43.9924817" lon="12.6524683"><ele>13.0</ele><time>2026-05-01T10:29:44.752Z</time></trkpt><trkpt lat="43.9924183" lon="12.6526417"><ele>13.0</ele><time>2026-05-01T10:29:45.748Z</time></trkpt><trkpt lat="43.992355" lon="12.6528133"><ele>13.0</ele><time>2026-05-01T10:29:46.746Z</time></trkpt><trkpt lat="43.9922967" lon="12.652985"><ele>13.0</ele><time>2026-05-01T10:29:47.747Z</time></trkpt><trkpt lat="43.992245" lon="12.6531583"><ele>13.0</ele><time>2026-05-01T10:29:48.742Z</time></trkpt><trkpt lat="43.9921933" lon="12.6533383"><ele>13.0</ele><time>2026-05-01T10:29:49.75Z</time></trkpt><trkpt lat="43.9921483" lon="12.65352"><ele>13.0</ele><time>2026-05-01T10:29:50.742Z</time></trkpt><trkpt lat="43.99211" lon="12.6537033"><ele>13.0</ele><time>2026-05-01T10:29:51.751Z</time></trkpt><trkpt lat="43.9920783" lon="12.653885"><ele>13.0</ele><time>2026-05-01T10:29:52.751Z</time></trkpt><trkpt lat="43.9920517" lon="12.6540633"><ele>13.5</ele><time>2026-05-01T10:29:53.75Z</time></trkpt><trkpt lat="43.992035" lon="12.6542433"><ele>14.0</ele><time>2026-05-01T10:29:54.752Z</time></trkpt><trkpt lat="43.9920167" lon="12.65442"><ele>14.5</ele><time>2026-05-01T10:29:55.75Z</time></trkpt><trkpt lat="43.9920067" lon="12.6546"><ele>15.0</ele><time>2026-05-01T10:29:56.754Z</time></trkpt><trkpt lat="43.9919983" lon="12.6547783"><ele>15.0</ele><time>2026-05-01T10:29:57.756Z</time></trkpt><trkpt lat="43.992" lon="12.6549433"><ele>15.0</ele><time>2026-05-01T10:29:58.748Z</time></trkpt><trkpt lat="43.9919967" lon="12.6551033"><ele>15.0</ele><time>2026-05-01T10:29:59.748Z</time></trkpt><trkpt lat="43.9919933" lon="12.6552467"><ele>15.0</ele><time>2026-05-01T10:30:00.752Z</time></trkpt><trkpt lat="43.9919917" lon="12.655385"><ele>15.0</ele><time>2026-05-01T10:30:01.749Z</time></trkpt><trkpt lat="43.991995" lon="12.65552"><ele>15.0</ele><time>2026-05-01T10:30:02.754Z</time></trkpt><trkpt lat="43.9920033" lon="12.6556483"><ele>15.0</ele><time>2026-05-01T10:30:03.749Z</time></trkpt><trkpt lat="43.9920167" lon="12.6557683"><ele>15.0</ele><time>2026-05-01T10:30:04.742Z</time></trkpt><trkpt lat="43.992035" lon="12.65589"><ele>15.0</ele><time>2026-05-01T10:30:05.746Z</time></trkpt><trkpt lat="43.9920533" lon="12.6560167"><ele>15.0</ele><time>2026-05-01T10:30:06.749Z</time></trkpt><trkpt lat="43.99207" lon="12.6561417"><ele>14.8</ele><time>2026-05-01T10:30:07.752Z</time></trkpt><trkpt lat="43.9920883" lon="12.6562683"><ele>14.6</ele><time>2026-05-01T10:30:08.754Z</time></trkpt><trkpt lat="43.992105" lon="12.6563983"><ele>14.399999999999999</ele><time>2026-05-01T10:30:09.756Z</time></trkpt><trkpt lat="43.99212" lon="12.6565317"><ele>14.2</ele><time>2026-05-01T10:30:10.753Z</time></trkpt><trkpt lat="43.992135" lon="12.656665"><ele>14.0</ele><time>2026-05-01T10:30:11.742Z</time></trkpt><trkpt lat="43.9921517" lon="12.6567933"><ele>14.000000000000002</ele><time>2026-05-01T10:30:12.748Z</time></trkpt><trkpt lat="43.9921667" lon="12.6569117"><ele>14.0</ele><time>2026-05-01T10:30:13.753Z</time></trkpt><trkpt lat="43.9921817" lon="12.6570167"><ele>14.0</ele><time>2026-05-01T10:30:14.751Z</time></trkpt><trkpt lat="43.9921933" lon="12.6571117"><ele>14.0</ele><time>2026-05-01T10:30:15.751Z</time></trkpt><trkpt lat="43.9922017" lon="12.6572"><ele>14.000000000000002</ele><time>2026-05-01T10:30:16.748Z</time></trkpt><trkpt lat="43.9922133" lon="12.6572867"><ele>14.0</ele><time>2026-05-01T10:30:17.752Z</time></trkpt><trkpt lat="43.9922283" lon="12.657435"><ele>14.000000000000002</ele><time>2026-05-01T10:30:19.751Z</time></trkpt><trkpt lat="43.9922383" lon="12.6575233"><ele>14.0</ele><time>2026-05-01T10:30:21.743Z</time></trkpt><trkpt lat="43.99224" lon="12.657625"><ele>14.0</ele><time>2026-05-01T10:30:23.75Z</time></trkpt><trkpt lat="43.9922333" lon="12.6577667"><ele>14.0</ele><time>2026-05-01T10:30:25.752Z</time></trkpt><trkpt lat="43.99225" lon="12.6578883"><ele>14.000000000000002</ele><time>2026-05-01T10:30:27.748Z</time></trkpt><trkpt lat="43.9922767" lon="12.6580017"><ele>14.0</ele><time>2026-05-01T10:30:29.749Z</time></trkpt><trkpt lat="43.9923033" lon="12.6581533"><ele>13.799999999999999</ele><time>2026-05-01T10:30:31.753Z</time></trkpt><trkpt lat="43.9923183" lon="12.65826"><ele>13.599999999999998</ele><time>2026-05-01T10:30:32.75Z</time></trkpt><trkpt lat="43.992335" lon="12.6583783"><ele>13.4</ele><time>2026-05-01T10:30:33.752Z</time></trkpt><trkpt lat="43.992355" lon="12.6585133"><ele>13.2</ele><time>2026-05-01T10:30:34.753Z</time></trkpt><trkpt lat="43.992375" lon="12.658665"><ele>13.0</ele><time>2026-05-01T10:30:35.743Z</time></trkpt><trkpt lat="43.9923933" lon="12.6588217"><ele>13.0</ele><time>2026-05-01T10:30:36.748Z</time></trkpt><trkpt lat="43.9924133" lon="12.65899"><ele>13.0</ele><time>2026-05-01T10:30:37.749Z</time></trkpt><trkpt lat="43.992435" lon="12.65917"><ele>13.0</ele><time>2026-05-01T10:30:38.742Z</time></trkpt><trkpt lat="43.99246" lon="12.65935"><ele>13.0</ele><time>2026-05-01T10:30:39.75Z</time></trkpt><trkpt lat="43.9924817" lon="12.6595317"><ele>13.0</ele><time>2026-05-01T10:30:40.751Z</time></trkpt><trkpt lat="43.9925067" lon="12.659715"><ele>13.0</ele><time>2026-05-01T10:30:41.748Z</time></trkpt><trkpt lat="43.9925317" lon="12.6598967"><ele>13.0</ele><time>2026-05-01T10:30:42.751Z</time></trkpt><trkpt lat="43.9925533" lon="12.6600733"><ele>13.0</ele><time>2026-05-01T10:30:43.743Z</time></trkpt><trkpt lat="43.9925783" lon="12.6602433"><ele>13.2</ele><time>2026-05-01T10:30:44.745Z</time></trkpt><trkpt lat="43.9925983" lon="12.660405"><ele>13.4</ele><time>2026-05-01T10:30:45.743Z</time></trkpt><trkpt lat="43.992615" lon="12.66056"><ele>13.599999999999998</ele><time>2026-05-01T10:30:46.755Z</time></trkpt><trkpt lat="43.9926333" lon="12.6607033"><ele>13.799999999999999</ele><time>2026-05-01T10:30:47.748Z</time></trkpt><trkpt lat="43.9926533" lon="12.6608383"><ele>14.0</ele><time>2026-05-01T10:30:48.751Z</time></trkpt><trkpt lat="43.99267" lon="12.6609533"><ele>14.0</ele><time>2026-05-01T10:30:49.748Z</time></trkpt><trkpt lat="43.9926883" lon="12.661055"><ele>14.0</ele><time>2026-05-01T10:30:50.752Z</time></trkpt><trkpt lat="43.9927083" lon="12.66115"><ele>14.0</ele><time>2026-05-01T10:30:51.752Z</time></trkpt><trkpt lat="43.9927267" lon="12.6612433"><ele>14.0</ele><time>2026-05-01T10:30:52.749Z</time></trkpt><trkpt lat="43.99274" lon="12.661335"><ele>14.0</ele><time>2026-05-01T10:30:53.749Z</time></trkpt><trkpt lat="43.9927467" lon="12.6614267"><ele>14.0</ele><time>2026-05-01T10:30:54.749Z</time></trkpt><trkpt lat="43.99275" lon="12.661515"><ele>14.0</ele><time>2026-05-01T10:30:55.752Z</time></trkpt><trkpt lat="43.9927467" lon="12.6616083"><ele>13.799999999999999</ele><time>2026-05-01T10:30:57.75Z</time></trkpt><trkpt lat="43.99275" lon="12.6616967"><ele>13.599999999999998</ele><time>2026-05-01T10:31:02.762Z</time></trkpt><trkpt lat="43.9927233" lon="12.6618333"><ele>13.4</ele><time>2026-05-01T10:31:05.754Z</time></trkpt><trkpt lat="43.9927017" lon="12.66195"><ele>13.2</ele><time>2026-05-01T10:31:11.742Z</time></trkpt><trkpt lat="43.9926783" lon="12.6620817"><ele>13.0</ele><time>2026-05-01T10:31:14.75Z</time></trkpt><trkpt lat="43.9926417" lon="12.6622267"><ele>12.999999999999998</ele><time>2026-05-01T10:31:16.748Z</time></trkpt><trkpt lat="43.99261" lon="12.6623083"><ele>13.0</ele><time>2026-05-01T10:31:17.749Z</time></trkpt><trkpt lat="43.9925767" lon="12.6623967"><ele>13.0</ele><time>2026-05-01T10:31:18.75Z</time></trkpt><trkpt lat="43.992545" lon="12.6625"><ele>13.0</ele><time>2026-05-01T10:31:19.745Z</time></trkpt><trkpt lat="43.9925083" lon="12.66261"><ele>12.999999999999998</ele><time>2026-05-01T10:31:20.752Z</time></trkpt><trkpt lat="43.9924633" lon="12.662725"><ele>13.0</ele><time>2026-05-01T10:31:21.747Z</time></trkpt><trkpt lat="43.9924183" lon="12.66284"><ele>13.0</ele><time>2026-05-01T10:31:22.743Z</time></trkpt><trkpt lat="43.9923733" lon="12.662965"><ele>13.0</ele><time>2026-05-01T10:31:23.75Z</time></trkpt><trkpt lat="43.9923217" lon="12.66307"><ele>13.0</ele><time>2026-05-01T10:31:24.748Z</time></trkpt><trkpt lat="43.9922733" lon="12.66317"><ele>13.0</ele><time>2026-05-01T10:31:25.748Z</time></trkpt><trkpt lat="43.9922267" lon="12.6632683"><ele>13.0</ele><time>2026-05-01T10:31:26.754Z</time></trkpt><trkpt lat="43.9921783" lon="12.6633717"><ele>12.999999999999998</ele><time>2026-05-01T10:31:27.748Z</time></trkpt><trkpt lat="43.9921267" lon="12.6634733"><ele>13.0</ele><time>2026-05-01T10:31:28.748Z</time></trkpt><trkpt lat="43.9920783" lon="12.6635717"><ele>13.0</ele><time>2026-05-01T10:31:29.752Z</time></trkpt><trkpt lat="43.99203" lon="12.6636667"><ele>13.0</ele><time>2026-05-01T10:31:30.752Z</time></trkpt><trkpt lat="43.99198" lon="12.6637683"><ele>12.999999999999998</ele><time>2026-05-01T10:31:31.75Z</time></trkpt><trkpt lat="43.9919217" lon="12.66387"><ele>13.0</ele><time>2026-05-01T10:31:32.754Z</time></trkpt><trkpt lat="43.9918617" lon="12.663975"><ele>12.8</ele><time>2026-05-01T10:31:33.758Z</time></trkpt><trkpt lat="43.9918017" lon="12.6640867"><ele>12.600000000000001</ele><time>2026-05-01T10:31:34.747Z</time></trkpt><trkpt lat="43.99174" lon="12.664195"><ele>12.399999999999999</ele><time>2026-05-01T10:31:35.751Z</time></trkpt><trkpt lat="43.991675" lon="12.66431"><ele>12.2</ele><time>2026-05-01T10:31:36.748Z</time></trkpt><trkpt lat="43.9916117" lon="12.6644283"><ele>12.0</ele><time>2026-05-01T10:31:37.744Z</time></trkpt><trkpt lat="43.9915467" lon="12.66455"><ele>11.5</ele><time>2026-05-01T10:31:38.748Z</time></trkpt><trkpt lat="43.9914817" lon="12.66467"><ele>11.0</ele><time>2026-05-01T10:31:39.748Z</time></trkpt><trkpt lat="43.9914117" lon="12.664795"><ele>10.5</ele><time>2026-05-01T10:31:40.75Z</time></trkpt><trkpt lat="43.99134" lon="12.6649233"><ele>10.0</ele><time>2026-05-01T10:31:41.751Z</time></trkpt><trkpt lat="43.9912683" lon="12.66506"><ele>10.0</ele><time>2026-05-01T10:31:42.752Z</time></trkpt><trkpt lat="43.991185" lon="12.66519"><ele>10.0</ele><time>2026-05-01T10:31:43.746Z</time></trkpt><trkpt lat="43.9911083" lon="12.665335"><ele>10.0</ele><time>2026-05-01T10:31:44.75Z</time></trkpt><trkpt lat="43.99103" lon="12.66547"><ele>10.0</ele><time>2026-05-01T10:31:45.749Z</time></trkpt><trkpt lat="43.9909517" lon="12.6656067"><ele>10.0</ele><time>2026-05-01T10:31:46.749Z</time></trkpt><trkpt lat="43.99088" lon="12.6657433"><ele>10.0</ele><time>2026-05-01T10:31:47.75Z</time></trkpt><trkpt lat="43.9908067" lon="12.6658767"><ele>10.0</ele><time>2026-05-01T10:31:48.749Z</time></trkpt><trkpt lat="43.99074" lon="12.6660033"><ele>10.0</ele><time>2026-05-01T10:31:49.751Z</time></trkpt><trkpt lat="43.9906717" lon="12.6661267"><ele>9.8</ele><time>2026-05-01T10:31:50.751Z</time></trkpt><trkpt lat="43.9906067" lon="12.66625"><ele>9.6</ele><time>2026-05-01T10:31:51.745Z</time></trkpt><trkpt lat="43.9905417" lon="12.6663767"><ele>9.4</ele><time>2026-05-01T10:31:52.75Z</time></trkpt><trkpt lat="43.9904817" lon="12.66651"><ele>9.2</ele><time>2026-05-01T10:31:53.751Z</time></trkpt><trkpt lat="43.9904283" lon="12.6666417"><ele>9.0</ele><time>2026-05-01T10:31:54.749Z</time></trkpt><trkpt lat="43.99038" lon="12.6667683"><ele>9.0</ele><time>2026-05-01T10:31:55.751Z</time></trkpt><trkpt lat="43.9903367" lon="12.666885"><ele>9.0</ele><time>2026-05-01T10:31:56.759Z</time></trkpt><trkpt lat="43.990295" lon="12.667005"><ele>9.0</ele><time>2026-05-01T10:31:57.75Z</time></trkpt><trkpt lat="43.9902533" lon="12.6671283"><ele>9.0</ele><time>2026-05-01T10:31:58.743Z</time></trkpt><trkpt lat="43.9902067" lon="12.667255"><ele>9.0</ele><time>2026-05-01T10:31:59.755Z</time></trkpt><trkpt lat="43.9901633" lon="12.6673817"><ele>9.333333333333334</ele><time>2026-05-01T10:32:00.762Z</time></trkpt><trkpt lat="43.990125" lon="12.6675067"><ele>9.666666666666666</ele><time>2026-05-01T10:32:01.749Z</time></trkpt><trkpt lat="43.990085" lon="12.6676233"><ele>10.0</ele><time>2026-05-01T10:32:02.744Z</time></trkpt><trkpt lat="43.99005" lon="12.6677333"><ele>10.333333333333332</ele><time>2026-05-01T10:32:03.749Z</time></trkpt><trkpt lat="43.99001" lon="12.667835"><ele>10.666666666666666</ele><time>2026-05-01T10:32:04.749Z</time></trkpt><trkpt lat="43.9899667" lon="12.667935"><ele>11.0</ele><time>2026-05-01T10:32:05.749Z</time></trkpt><trkpt lat="43.9899267" lon="12.668035"><ele>11.166666666666666</ele><time>2026-05-01T10:32:06.751Z</time></trkpt><trkpt lat="43.9898933" lon="12.66813"><ele>11.333333333333332</ele><time>2026-05-01T10:32:07.749Z</time></trkpt><trkpt lat="43.98986" lon="12.668225"><ele>11.5</ele><time>2026-05-01T10:32:08.75Z</time></trkpt><trkpt lat="43.989825" lon="12.6683167"><ele>11.666666666666666</ele><time>2026-05-01T10:32:09.749Z</time></trkpt><trkpt lat="43.98979" lon="12.6684117"><ele>11.833333333333334</ele><time>2026-05-01T10:32:10.748Z</time></trkpt><trkpt lat="43.98975" lon="12.6685133"><ele>12.0</ele><time>2026-05-01T10:32:11.743Z</time></trkpt><trkpt lat="43.98971" lon="12.6686067"><ele>11.5</ele><time>2026-05-01T10:32:12.745Z</time></trkpt><trkpt lat="43.989665" lon="12.6687017"><ele>11.0</ele><time>2026-05-01T10:32:13.748Z</time></trkpt><trkpt lat="43.98962" lon="12.6687983"><ele>10.5</ele><time>2026-05-01T10:32:14.752Z</time></trkpt><trkpt lat="43.9895767" lon="12.668905"><ele>10.0</ele><time>2026-05-01T10:32:15.749Z</time></trkpt><trkpt lat="43.9895367" lon="12.6690067"><ele>9.5</ele><time>2026-05-01T10:32:16.747Z</time></trkpt><trkpt lat="43.9894967" lon="12.6691067"><ele>9.0</ele><time>2026-05-01T10:32:17.746Z</time></trkpt><trkpt lat="43.9894517" lon="12.6692067"><ele>9.0</ele><time>2026-05-01T10:32:18.748Z</time></trkpt><trkpt lat="43.9894017" lon="12.6693133"><ele>9.0</ele><time>2026-05-01T10:32:19.754Z</time></trkpt><trkpt lat="43.9893467" lon="12.6694267"><ele>9.0</ele><time>2026-05-01T10:32:20.752Z</time></trkpt><trkpt lat="43.9892933" lon="12.6695433"><ele>9.0</ele><time>2026-05-01T10:32:21.75Z</time></trkpt><trkpt lat="43.9892383" lon="12.6696533"><ele>9.0</ele><time>2026-05-01T10:32:22.757Z</time></trkpt><trkpt lat="43.989185" lon="12.6697517"><ele>9.4</ele><time>2026-05-01T10:32:23.75Z</time></trkpt><trkpt lat="43.9891433" lon="12.6698367"><ele>9.8</ele><time>2026-05-01T10:32:24.752Z</time></trkpt><trkpt lat="43.989085" lon="12.66995"><ele>10.200000000000001</ele><time>2026-05-01T10:32:26.745Z</time></trkpt><trkpt lat="43.98903" lon="12.67005"><ele>10.600000000000001</ele><time>2026-05-01T10:32:28.748Z</time></trkpt><trkpt lat="43.988975" lon="12.6701633"><ele>11.0</ele><time>2026-05-01T10:32:30.751Z</time></trkpt><trkpt lat="43.9889" lon="12.6703033"><ele>10.200000000000001</ele><time>2026-05-01T10:32:32.753Z</time></trkpt><trkpt lat="43.98884" lon="12.6704217"><ele>9.4</ele><time>2026-05-01T10:32:34.751Z</time></trkpt><trkpt lat="43.988785" lon="12.6705317"><ele>8.6</ele><time>2026-05-01T10:32:37.747Z</time></trkpt><trkpt lat="43.9887067" lon="12.6706683"><ele>7.8</ele><time>2026-05-01T10:32:39.752Z</time></trkpt><trkpt lat="43.9886517" lon="12.6707583"><ele>7.0</ele><time>2026-05-01T10:32:40.741Z</time></trkpt><trkpt lat="43.9885933" lon="12.6708633"><ele>7.0</ele><time>2026-05-01T10:32:41.748Z</time></trkpt><trkpt lat="43.988525" lon="12.6709717"><ele>7.0</ele><time>2026-05-01T10:32:42.752Z</time></trkpt><trkpt lat="43.9884517" lon="12.6710933"><ele>7.0</ele><time>2026-05-01T10:32:43.75Z</time></trkpt><trkpt lat="43.988375" lon="12.6712217"><ele>7.0</ele><time>2026-05-01T10:32:44.752Z</time></trkpt><trkpt lat="43.9883033" lon="12.6713533"><ele>7.3999999999999995</ele><time>2026-05-01T10:32:45.75Z</time></trkpt><trkpt lat="43.988235" lon="12.6714767"><ele>7.799999999999999</ele><time>2026-05-01T10:32:46.741Z</time></trkpt><trkpt lat="43.9881733" lon="12.6715967"><ele>8.2</ele><time>2026-05-01T10:32:47.753Z</time></trkpt><trkpt lat="43.98811" lon="12.6717067"><ele>8.6</ele><time>2026-05-01T10:32:48.749Z</time></trkpt><trkpt lat="43.9880467" lon="12.6718083"><ele>9.0</ele><time>2026-05-01T10:32:49.748Z</time></trkpt><trkpt lat="43.9879867" lon="12.6719"><ele>8.333333333333334</ele><time>2026-05-01T10:32:50.755Z</time></trkpt><trkpt lat="43.9879183" lon="12.671975"><ele>7.666666666666667</ele><time>2026-05-01T10:32:51.751Z</time></trkpt><trkpt lat="43.9878433" lon="12.6720267"><ele>7.0</ele><time>2026-05-01T10:32:52.748Z</time></trkpt><trkpt lat="43.9877667" lon="12.672055"><ele>6.333333333333334</ele><time>2026-05-01T10:32:53.75Z</time></trkpt><trkpt lat="43.9876983" lon="12.6720817"><ele>5.666666666666667</ele><time>2026-05-01T10:32:54.75Z</time></trkpt><trkpt lat="43.987645" lon="12.67213"><ele>5.0</ele><time>2026-05-01T10:32:55.75Z</time></trkpt><trkpt lat="43.98761" lon="12.6723033"><ele>5.0</ele><time>2026-05-01T10:32:57.749Z</time></trkpt><trkpt lat="43.98761" lon="12.672415"><ele>5.0</ele><time>2026-05-01T10:32:58.744Z</time></trkpt><trkpt lat="43.9875967" lon="12.6725317"><ele>5.0</ele><time>2026-05-01T10:32:59.747Z</time></trkpt><trkpt lat="43.9875567" lon="12.6726517"><ele>5.0</ele><time>2026-05-01T10:33:00.749Z</time></trkpt><trkpt lat="43.9874917" lon="12.6727617"><ele>5.0</ele><time>2026-05-01T10:33:01.748Z</time></trkpt><trkpt lat="43.987425" lon="12.67289"><ele>5.75</ele><time>2026-05-01T10:33:02.742Z</time></trkpt><trkpt lat="43.9873533" lon="12.6730317"><ele>6.5</ele><time>2026-05-01T10:33:03.749Z</time></trkpt><trkpt lat="43.9872733" lon="12.673185"><ele>7.25</ele><time>2026-05-01T10:33:04.742Z</time></trkpt><trkpt lat="43.9871867" lon="12.673345"><ele>8.0</ele><time>2026-05-01T10:33:05.745Z</time></trkpt><trkpt lat="43.9870883" lon="12.6734933"><ele>6.333333333333333</ele><time>2026-05-01T10:33:06.751Z</time></trkpt><trkpt lat="43.98699" lon="12.6736583"><ele>4.666666666666666</ele><time>2026-05-01T10:33:07.747Z</time></trkpt><trkpt lat="43.9868967" lon="12.673835"><ele>3.0</ele><time>2026-05-01T10:33:08.75Z</time></trkpt><trkpt lat="43.9867967" lon="12.6740083"><ele>3.0</ele><time>2026-05-01T10:33:09.752Z</time></trkpt><trkpt lat="43.986695" lon="12.6741833"><ele>3.0</ele><time>2026-05-01T10:33:10.758Z</time></trkpt><trkpt lat="43.98659" lon="12.6743583"><ele>3.0</ele><time>2026-05-01T10:33:11.743Z</time></trkpt><trkpt lat="43.986485" lon="12.67454"><ele>3.333333333333333</ele><time>2026-05-01T10:33:12.743Z</time></trkpt><trkpt lat="43.9863767" lon="12.674725"><ele>3.6666666666666665</ele><time>2026-05-01T10:33:13.742Z</time></trkpt><trkpt lat="43.986265" lon="12.6749117"><ele>4.0</ele><time>2026-05-01T10:33:14.744Z</time></trkpt><trkpt lat="43.9861583" lon="12.6750917"><ele>4.0</ele><time>2026-05-01T10:33:15.743Z</time></trkpt><trkpt lat="43.9860533" lon="12.6752767"><ele>4.0</ele><time>2026-05-01T10:33:16.741Z</time></trkpt><trkpt lat="43.9859483" lon="12.67546"><ele>4.0</ele><time>2026-05-01T10:33:17.743Z</time></trkpt><trkpt lat="43.9858433" lon="12.6756383"><ele>4.0</ele><time>2026-05-01T10:33:18.742Z</time></trkpt><trkpt lat="43.9857367" lon="12.6758183"><ele>4.0</ele><time>2026-05-01T10:33:19.743Z</time></trkpt><trkpt lat="43.9856283" lon="12.6759967"><ele>4.0</ele><time>2026-05-01T10:33:20.745Z</time></trkpt><trkpt lat="43.9855267" lon="12.6761683"><ele>4.0</ele><time>2026-05-01T10:33:21.744Z</time></trkpt><trkpt lat="43.9854233" lon="12.6763383"><ele>4.0</ele><time>2026-05-01T10:33:22.743Z</time></trkpt><trkpt lat="43.9853233" lon="12.6765067"><ele>4.0</ele><time>2026-05-01T10:33:23.745Z</time></trkpt><trkpt lat="43.9852217" lon="12.676675"><ele>4.0</ele><time>2026-05-01T10:33:24.741Z</time></trkpt><trkpt lat="43.985125" lon="12.6768467"><ele>4.0</ele><time>2026-05-01T10:33:25.743Z</time></trkpt><trkpt lat="43.9850267" lon="12.6770117"><ele>4.0</ele><time>2026-05-01T10:33:26.742Z</time></trkpt><trkpt lat="43.9849283" lon="12.6771783"><ele>4.333333333333333</ele><time>2026-05-01T10:33:27.744Z</time></trkpt><trkpt lat="43.9848333" lon="12.67735"><ele>4.666666666666667</ele><time>2026-05-01T10:33:28.744Z</time></trkpt><trkpt lat="43.984735" lon="12.6775183"><ele>5.0</ele><time>2026-05-01T10:33:29.744Z</time></trkpt><trkpt lat="43.9846367" lon="12.6776883"><ele>4.5</ele><time>2026-05-01T10:33:30.743Z</time></trkpt><trkpt lat="43.9845467" lon="12.677845"><ele>4.0</ele><time>2026-05-01T10:33:31.742Z</time></trkpt><trkpt lat="43.9844617" lon="12.6779933"><ele>3.5</ele><time>2026-05-01T10:33:32.751Z</time></trkpt><trkpt lat="43.984375" lon="12.678145"><ele>3.0</ele><time>2026-05-01T10:33:33.743Z</time></trkpt><trkpt lat="43.9842883" lon="12.6783017"><ele>3.0</ele><time>2026-05-01T10:33:34.75Z</time></trkpt><trkpt lat="43.9841967" lon="12.6784533"><ele>3.0</ele><time>2026-05-01T10:33:35.752Z</time></trkpt><trkpt lat="43.9841017" lon="12.678605"><ele>3.0</ele><time>2026-05-01T10:33:36.75Z</time></trkpt><trkpt lat="43.984005" lon="12.678755"><ele>3.0</ele><time>2026-05-01T10:33:37.741Z</time></trkpt><trkpt lat="43.9839083" lon="12.678905"><ele>3.0</ele><time>2026-05-01T10:33:38.756Z</time></trkpt><trkpt lat="43.9838117" lon="12.6790617"><ele>3.0</ele><time>2026-05-01T10:33:39.748Z</time></trkpt><trkpt lat="43.9837183" lon="12.6792233"><ele>3.0</ele><time>2026-05-01T10:33:40.747Z</time></trkpt><trkpt lat="43.98362" lon="12.6793883"><ele>3.0</ele><time>2026-05-01T10:33:41.748Z</time></trkpt><trkpt lat="43.9835233" lon="12.6795417"><ele>3.0</ele><time>2026-05-01T10:33:42.752Z</time></trkpt><trkpt lat="43.98343" lon="12.6796967"><ele>3.0</ele><time>2026-05-01T10:33:43.741Z</time></trkpt><trkpt lat="43.98334" lon="12.6798483"><ele>3.0</ele><time>2026-05-01T10:33:44.744Z</time></trkpt><trkpt lat="43.9832533" lon="12.6799883"><ele>3.0</ele><time>2026-05-01T10:33:45.75Z</time></trkpt><trkpt lat="43.9831683" lon="12.680115"><ele>3.0</ele><time>2026-05-01T10:33:46.748Z</time></trkpt><trkpt lat="43.983085" lon="12.6802333"><ele>3.0</ele><time>2026-05-01T10:33:47.75Z</time></trkpt><trkpt lat="43.983005" lon="12.6803533"><ele>3.0</ele><time>2026-05-01T10:33:48.75Z</time></trkpt><trkpt lat="43.9829283" lon="12.6804767"><ele>2.25</ele><time>2026-05-01T10:33:49.746Z</time></trkpt><trkpt lat="43.9828483" lon="12.6806017"><ele>1.5</ele><time>2026-05-01T10:33:50.752Z</time></trkpt><trkpt lat="43.982765" lon="12.6807283"><ele>0.75</ele><time>2026-05-01T10:33:51.76Z</time></trkpt><trkpt lat="43.9826767" lon="12.6808533"><ele>0.0</ele><time>2026-05-01T10:33:52.749Z</time></trkpt><trkpt lat="43.9825933" lon="12.6809767"><ele>0.5</ele><time>2026-05-01T10:33:53.751Z</time></trkpt><trkpt lat="43.9825117" lon="12.6810983"><ele>1.0</ele><time>2026-05-01T10:33:54.749Z</time></trkpt><trkpt lat="43.9824267" lon="12.6812233"><ele>1.5</ele><time>2026-05-01T10:33:55.75Z</time></trkpt><trkpt lat="43.98234" lon="12.6813517"><ele>2.0</ele><time>2026-05-01T10:33:56.751Z</time></trkpt><trkpt lat="43.98225" lon="12.6814817"><ele>2.0</ele><time>2026-05-01T10:33:57.741Z</time></trkpt><trkpt lat="43.9821617" lon="12.6816133"><ele>2.0</ele><time>2026-05-01T10:33:58.75Z</time></trkpt><trkpt lat="43.9820683" lon="12.6817467"><ele>2.0</ele><time>2026-05-01T10:33:59.749Z</time></trkpt><trkpt lat="43.9819817" lon="12.68187"><ele>2.0</ele><time>2026-05-01T10:34:00.75Z</time></trkpt><trkpt lat="43.9819033" lon="12.681995"><ele>2.0</ele><time>2026-05-01T10:34:01.749Z</time></trkpt><trkpt lat="43.981825" lon="12.6821067"><ele>2.0</ele><time>2026-05-01T10:34:02.752Z</time></trkpt><trkpt lat="43.9817483" lon="12.6822167"><ele>2.0</ele><time>2026-05-01T10:34:03.747Z</time></trkpt><trkpt lat="43.9816717" lon="12.6823267"><ele>2.0</ele><time>2026-05-01T10:34:04.752Z</time></trkpt><trkpt lat="43.9815917" lon="12.6824383"><ele>2.0</ele><time>2026-05-01T10:34:05.757Z</time></trkpt><trkpt lat="43.98151" lon="12.6825583"><ele>2.5</ele><time>2026-05-01T10:34:06.754Z</time></trkpt><trkpt lat="43.9814317" lon="12.6826833"><ele>3.0</ele><time>2026-05-01T10:34:07.748Z</time></trkpt><trkpt lat="43.9813517" lon="12.6828083"><ele>3.5</ele><time>2026-05-01T10:34:08.748Z</time></trkpt><trkpt lat="43.9812683" lon="12.6829383"><ele>4.0</ele><time>2026-05-01T10:34:09.745Z</time></trkpt><trkpt lat="43.9811817" lon="12.6830667"><ele>4.0</ele><time>2026-05-01T10:34:10.749Z</time></trkpt><trkpt lat="43.9810867" lon="12.6832167"><ele>4.0</ele><time>2026-05-01T10:34:11.753Z</time></trkpt><trkpt lat="43.9809835" lon="12.6833761"><ele>4.0</ele><time>2026-05-01T10:34:12.749Z</time></trkpt><trkpt lat="43.9808736" lon="12.683548"><ele>4.666666666666666</ele><time>2026-05-01T10:34:13.741Z</time></trkpt><trkpt lat="43.9807571" lon="12.6837157"><ele>5.333333333333333</ele><time>2026-05-01T10:34:14.749Z</time></trkpt><trkpt lat="43.9806445" lon="12.6838712"><ele>6.0</ele><time>2026-05-01T10:34:15.747Z</time></trkpt><trkpt lat="43.9805434" lon="12.684022"><ele>6.0</ele><time>2026-05-01T10:34:16.749Z</time></trkpt><trkpt lat="43.9804475" lon="12.6841674"><ele>6.0</ele><time>2026-05-01T10:34:17.749Z</time></trkpt><trkpt lat="43.980354" lon="12.6843029"><ele>6.0</ele><time>2026-05-01T10:34:18.753Z</time></trkpt><trkpt lat="43.9802651" lon="12.6844304"><ele>6.0</ele><time>2026-05-01T10:34:19.749Z</time></trkpt><trkpt lat="43.9801804" lon="12.6845478"><ele>6.25</ele><time>2026-05-01T10:34:20.742Z</time></trkpt><trkpt lat="43.9800981" lon="12.6846602"><ele>6.5</ele><time>2026-05-01T10:34:21.752Z</time></trkpt><trkpt lat="43.9800174" lon="12.6847716"><ele>6.75</ele><time>2026-05-01T10:34:22.75Z</time></trkpt><trkpt lat="43.9799369" lon="12.6848872"><ele>7.0</ele><time>2026-05-01T10:34:23.751Z</time></trkpt><trkpt lat="43.979857" lon="12.6850043"><ele>7.0</ele><time>2026-05-01T10:34:24.743Z</time></trkpt><trkpt lat="43.9797753" lon="12.6851234"><ele>7.0</ele><time>2026-05-01T10:34:25.749Z</time></trkpt><trkpt lat="43.9796943" lon="12.6852433"><ele>7.0</ele><time>2026-05-01T10:34:26.765Z</time></trkpt><trkpt lat="43.9796165" lon="12.6853622"><ele>7.0</ele><time>2026-05-01T10:34:27.749Z</time></trkpt><trkpt lat="43.9795381" lon="12.6854851"><ele>6.8</ele><time>2026-05-01T10:34:28.746Z</time></trkpt><trkpt lat="43.9794567" lon="12.6856116"><ele>6.6</ele><time>2026-05-01T10:34:29.741Z</time></trkpt><trkpt lat="43.9793778" lon="12.685735"><ele>6.3999999999999995</ele><time>2026-05-01T10:34:30.742Z</time></trkpt><trkpt lat="43.9793081" lon="12.6858469"><ele>6.199999999999999</ele><time>2026-05-01T10:34:31.749Z</time></trkpt><trkpt lat="43.9792464" lon="12.6859492"><ele>6.0</ele><time>2026-05-01T10:34:32.754Z</time></trkpt><trkpt lat="43.9791934" lon="12.6860442"><ele>5.833333333333333</ele><time>2026-05-01T10:34:33.746Z</time></trkpt><trkpt lat="43.979149" lon="12.6861315"><ele>5.666666666666667</ele><time>2026-05-01T10:34:34.75Z</time></trkpt><trkpt lat="43.9791039" lon="12.686206"><ele>5.5</ele><time>2026-05-01T10:34:35.748Z</time></trkpt><trkpt lat="43.9790448" lon="12.6862664"><ele>5.333333333333334</ele><time>2026-05-01T10:34:36.751Z</time></trkpt><trkpt lat="43.9789769" lon="12.6863211"><ele>5.166666666666667</ele><time>2026-05-01T10:34:37.751Z</time></trkpt><trkpt lat="43.9789131" lon="12.6863959"><ele>5.0</ele><time>2026-05-01T10:34:38.745Z</time></trkpt><trkpt lat="43.9788557" lon="12.6864961"><ele>5.0</ele><time>2026-05-01T10:34:39.749Z</time></trkpt><trkpt lat="43.9787952" lon="12.6866291"><ele>5.0</ele><time>2026-05-01T10:34:40.746Z</time></trkpt><trkpt lat="43.97871" lon="12.6867733"><ele>5.0</ele><time>2026-05-01T10:34:41.741Z</time></trkpt><trkpt lat="43.9786267" lon="12.6868983"><ele>5.0</ele><time>2026-05-01T10:34:42.753Z</time></trkpt><trkpt lat="43.9785333" lon="12.6870333"><ele>4.75</ele><time>2026-05-01T10:34:43.75Z</time></trkpt><trkpt lat="43.9784417" lon="12.6871783"><ele>4.5</ele><time>2026-05-01T10:34:44.748Z</time></trkpt><trkpt lat="43.9783533" lon="12.6873383"><ele>4.25</ele><time>2026-05-01T10:34:45.748Z</time></trkpt><trkpt lat="43.9782717" lon="12.6875133"><ele>4.0</ele><time>2026-05-01T10:34:46.749Z</time></trkpt><trkpt lat="43.9781817" lon="12.68768"><ele>3.6666666666666665</ele><time>2026-05-01T10:34:47.748Z</time></trkpt><trkpt lat="43.9780983" lon="12.6878617"><ele>3.333333333333333</ele><time>2026-05-01T10:34:48.747Z</time></trkpt><trkpt lat="43.978005" lon="12.6880467"><ele>3.0</ele><time>2026-05-01T10:34:49.75Z</time></trkpt><trkpt lat="43.9779033" lon="12.6882367"><ele>3.0</ele><time>2026-05-01T10:34:50.754Z</time></trkpt><trkpt lat="43.9778033" lon="12.6884283"><ele>3.0</ele><time>2026-05-01T10:34:51.749Z</time></trkpt><trkpt lat="43.9777" lon="12.688625"><ele>3.0</ele><time>2026-05-01T10:34:52.746Z</time></trkpt><trkpt lat="43.9775967" lon="12.6888267"><ele>3.333333333333333</ele><time>2026-05-01T10:34:53.749Z</time></trkpt><trkpt lat="43.9774917" lon="12.6890283"><ele>3.6666666666666665</ele><time>2026-05-01T10:34:54.75Z</time></trkpt><trkpt lat="43.9773867" lon="12.6892283"><ele>4.0</ele><time>2026-05-01T10:34:55.752Z</time></trkpt><trkpt lat="43.977285" lon="12.689425"><ele>4.0</ele><time>2026-05-01T10:34:56.748Z</time></trkpt><trkpt lat="43.9771883" lon="12.68962"><ele>4.0</ele><time>2026-05-01T10:34:57.755Z</time></trkpt><trkpt lat="43.9770967" lon="12.689805"><ele>4.0</ele><time>2026-05-01T10:34:58.756Z</time></trkpt><trkpt lat="43.9770083" lon="12.6899833"><ele>4.0</ele><time>2026-05-01T10:34:59.749Z</time></trkpt><trkpt lat="43.976925" lon="12.6901533"><ele>4.0</ele><time>2026-05-01T10:35:00.748Z</time></trkpt><trkpt lat="43.9768417" lon="12.69032"><ele>4.0</ele><time>2026-05-01T10:35:01.746Z</time></trkpt><trkpt lat="43.9767533" lon="12.690485"><ele>4.0</ele><time>2026-05-01T10:35:02.752Z</time></trkpt><trkpt lat="43.9766717" lon="12.6906567"><ele>4.25</ele><time>2026-05-01T10:35:03.749Z</time></trkpt><trkpt lat="43.9765833" lon="12.69082"><ele>4.5</ele><time>2026-05-01T10:35:04.751Z</time></trkpt><trkpt lat="43.976495" lon="12.69098"><ele>4.75</ele><time>2026-05-01T10:35:05.752Z</time></trkpt><trkpt lat="43.976405" lon="12.691145"><ele>5.0</ele><time>2026-05-01T10:35:06.755Z</time></trkpt><trkpt lat="43.9763183" lon="12.69131"><ele>5.0</ele><time>2026-05-01T10:35:07.746Z</time></trkpt><trkpt lat="43.9762283" lon="12.691475"><ele>5.0</ele><time>2026-05-01T10:35:08.751Z</time></trkpt><trkpt lat="43.9761383" lon="12.6916417"><ele>5.0</ele><time>2026-05-01T10:35:09.751Z</time></trkpt><trkpt lat="43.97605" lon="12.6918083"><ele>5.0</ele><time>2026-05-01T10:35:10.743Z</time></trkpt><trkpt lat="43.9759633" lon="12.6919783"><ele>4.75</ele><time>2026-05-01T10:35:11.751Z</time></trkpt><trkpt lat="43.97588" lon="12.692145"><ele>4.5</ele><time>2026-05-01T10:35:12.749Z</time></trkpt><trkpt lat="43.9758017" lon="12.6923083"><ele>4.25</ele><time>2026-05-01T10:35:13.752Z</time></trkpt><trkpt lat="43.975725" lon="12.6924667"><ele>4.0</ele><time>2026-05-01T10:35:14.75Z</time></trkpt><trkpt lat="43.9756517" lon="12.6926233"><ele>3.5</ele><time>2026-05-01T10:35:15.746Z</time></trkpt><trkpt lat="43.9755783" lon="12.692775"><ele>3.0</ele><time>2026-05-01T10:35:16.748Z</time></trkpt><trkpt lat="43.97551" lon="12.6929267"><ele>2.5</ele><time>2026-05-01T10:35:17.741Z</time></trkpt><trkpt lat="43.975445" lon="12.69307"><ele>2.0</ele><time>2026-05-01T10:35:18.752Z</time></trkpt><trkpt lat="43.97538" lon="12.6932083"><ele>2.0</ele><time>2026-05-01T10:35:19.75Z</time></trkpt><trkpt lat="43.9753133" lon="12.6933433"><ele>2.0</ele><time>2026-05-01T10:35:20.751Z</time></trkpt><trkpt lat="43.9752417" lon="12.6934733"><ele>2.0</ele><time>2026-05-01T10:35:21.757Z</time></trkpt><trkpt lat="43.9751717" lon="12.693605"><ele>2.0</ele><time>2026-05-01T10:35:22.75Z</time></trkpt><trkpt lat="43.9751017" lon="12.6937317"><ele>2.2</ele><time>2026-05-01T10:35:23.749Z</time></trkpt><trkpt lat="43.9750367" lon="12.6938533"><ele>2.4000000000000004</ele><time>2026-05-01T10:35:24.753Z</time></trkpt><trkpt lat="43.9749767" lon="12.6939633"><ele>2.5999999999999996</ele><time>2026-05-01T10:35:25.748Z</time></trkpt><trkpt lat="43.974925" lon="12.6940633"><ele>2.8</ele><time>2026-05-01T10:35:26.752Z</time></trkpt><trkpt lat="43.9748817" lon="12.6941533"><ele>3.0</ele><time>2026-05-01T10:35:27.748Z</time></trkpt><trkpt lat="43.9748183" lon="12.6942617"><ele>3.0</ele><time>2026-05-01T10:35:29.748Z</time></trkpt><trkpt lat="43.9747667" lon="12.6943583"><ele>3.0</ele><time>2026-05-01T10:35:31.75Z</time></trkpt><trkpt lat="43.9747267" lon="12.6944267"><ele>3.0</ele><time>2026-05-01T10:35:32.75Z</time></trkpt><trkpt lat="43.9746767" lon="12.6945183"><ele>3.0</ele><time>2026-05-01T10:35:33.748Z</time></trkpt><trkpt lat="43.97462" lon="12.69462"><ele>3.0</ele><time>2026-05-01T10:35:34.742Z</time></trkpt><trkpt lat="43.9745567" lon="12.694735"><ele>3.0</ele><time>2026-05-01T10:35:35.749Z</time></trkpt><trkpt lat="43.9744867" lon="12.694865"><ele>3.0</ele><time>2026-05-01T10:35:36.75Z</time></trkpt><trkpt lat="43.9744133" lon="12.6950033"><ele>3.0</ele><time>2026-05-01T10:35:37.742Z</time></trkpt><trkpt lat="43.9743283" lon="12.6951533"><ele>3.0</ele><time>2026-05-01T10:35:38.751Z</time></trkpt><trkpt lat="43.9742417" lon="12.6953167"><ele>3.0</ele><time>2026-05-01T10:35:39.747Z</time></trkpt><trkpt lat="43.9741533" lon="12.6954817"><ele>3.0</ele><time>2026-05-01T10:35:40.749Z</time></trkpt><trkpt lat="43.974065" lon="12.69566"><ele>3.0</ele><time>2026-05-01T10:35:41.749Z</time></trkpt><trkpt lat="43.9739733" lon="12.695845"><ele>3.0</ele><time>2026-05-01T10:35:42.742Z</time></trkpt><trkpt lat="43.9738783" lon="12.6960367"><ele>3.333333333333333</ele><time>2026-05-01T10:35:43.749Z</time></trkpt><trkpt lat="43.9737767" lon="12.6962317"><ele>3.6666666666666665</ele><time>2026-05-01T10:35:44.753Z</time></trkpt><trkpt lat="43.973675" lon="12.6964283"><ele>4.0</ele><time>2026-05-01T10:35:45.742Z</time></trkpt><trkpt lat="43.9735733" lon="12.6966267"><ele>4.0</ele><time>2026-05-01T10:35:46.746Z</time></trkpt><trkpt lat="43.9734683" lon="12.6968283"><ele>4.0</ele><time>2026-05-01T10:35:47.744Z</time></trkpt><trkpt lat="43.9733617" lon="12.6970333"><ele>4.0</ele><time>2026-05-01T10:35:48.765Z</time></trkpt><trkpt lat="43.9732583" lon="12.6972483"><ele>3.6666666666666665</ele><time>2026-05-01T10:35:49.751Z</time></trkpt><trkpt lat="43.9731583" lon="12.6974667"><ele>3.333333333333333</ele><time>2026-05-01T10:35:50.754Z</time></trkpt><trkpt lat="43.9730567" lon="12.69768"><ele>3.0</ele><time>2026-05-01T10:35:51.751Z</time></trkpt><trkpt lat="43.97295" lon="12.697885"><ele>2.3333333333333335</ele><time>2026-05-01T10:35:52.752Z</time></trkpt><trkpt lat="43.972845" lon="12.6980983"><ele>1.6666666666666665</ele><time>2026-05-01T10:35:53.748Z</time></trkpt><trkpt lat="43.9727367" lon="12.6983167"><ele>1.0</ele><time>2026-05-01T10:35:54.749Z</time></trkpt><trkpt lat="43.9726283" lon="12.6985417"><ele>0.3333333333333333</ele><time>2026-05-01T10:35:55.751Z</time></trkpt><trkpt lat="43.97252" lon="12.6987633"><ele>-0.3333333333333333</ele><time>2026-05-01T10:35:56.743Z</time></trkpt><trkpt lat="43.9724117" lon="12.6989867"><ele>-1.0</ele><time>2026-05-01T10:35:57.749Z</time></trkpt><trkpt lat="43.9723" lon="12.69921"><ele>-0.6666666666666666</ele><time>2026-05-01T10:35:58.748Z</time></trkpt><trkpt lat="43.9721933" lon="12.6994367"><ele>-0.3333333333333333</ele><time>2026-05-01T10:35:59.754Z</time></trkpt><trkpt lat="43.9720833" lon="12.6996633"><ele>0.0</ele><time>2026-05-01T10:36:00.751Z</time></trkpt><trkpt lat="43.9719717" lon="12.6998933"><ele>0.0</ele><time>2026-05-01T10:36:01.753Z</time></trkpt><trkpt lat="43.9718633" lon="12.7001217"><ele>0.0</ele><time>2026-05-01T10:36:02.752Z</time></trkpt><trkpt lat="43.9717567" lon="12.70034"><ele>0.0</ele><time>2026-05-01T10:36:03.748Z</time></trkpt><trkpt lat="43.9716567" lon="12.7005467"><ele>0.0</ele><time>2026-05-01T10:36:04.744Z</time></trkpt><trkpt lat="43.971565" lon="12.7007433"><ele>0.0</ele><time>2026-05-01T10:36:05.752Z</time></trkpt><trkpt lat="43.97148" lon="12.7009267"><ele>0.0</ele><time>2026-05-01T10:36:06.746Z</time></trkpt><trkpt lat="43.9714067" lon="12.7010917"><ele>-0.2</ele><time>2026-05-01T10:36:07.748Z</time></trkpt><trkpt lat="43.9713417" lon="12.7012317"><ele>-0.4</ele><time>2026-05-01T10:36:08.747Z</time></trkpt><trkpt lat="43.9712883" lon="12.7013567"><ele>-0.6000000000000001</ele><time>2026-05-01T10:36:09.748Z</time></trkpt><trkpt lat="43.9712433" lon="12.7014567"><ele>-0.8</ele><time>2026-05-01T10:36:10.749Z</time></trkpt><trkpt lat="43.9712" lon="12.7015433"><ele>-1.0</ele><time>2026-05-01T10:36:11.743Z</time></trkpt><trkpt lat="43.9711533" lon="12.7016133"><ele>-0.9999999999999999</ele><time>2026-05-01T10:36:12.749Z</time></trkpt><trkpt lat="43.9710933" lon="12.701665"><ele>-1.0</ele><time>2026-05-01T10:36:13.742Z</time></trkpt><trkpt lat="43.971025" lon="12.7017083"><ele>-1.0</ele><time>2026-05-01T10:36:14.751Z</time></trkpt><trkpt lat="43.9709583" lon="12.7017583"><ele>-1.0</ele><time>2026-05-01T10:36:15.748Z</time></trkpt><trkpt lat="43.9709117" lon="12.7018333"><ele>-0.9999999999999999</ele><time>2026-05-01T10:36:16.752Z</time></trkpt><trkpt lat="43.97089" lon="12.7019367"><ele>-1.0</ele><time>2026-05-01T10:36:17.752Z</time></trkpt><trkpt lat="43.9708883" lon="12.7020533"><ele>-0.8</ele><time>2026-05-01T10:36:18.751Z</time></trkpt><trkpt lat="43.9708817" lon="12.702185"><ele>-0.6000000000000001</ele><time>2026-05-01T10:36:19.75Z</time></trkpt><trkpt lat="43.9708567" lon="12.702315"><ele>-0.4</ele><time>2026-05-01T10:36:20.742Z</time></trkpt><trkpt lat="43.9708167" lon="12.7024467"><ele>-0.2</ele><time>2026-05-01T10:36:21.75Z</time></trkpt><trkpt lat="43.9707667" lon="12.7025817"><ele>0.0</ele><time>2026-05-01T10:36:22.748Z</time></trkpt><trkpt lat="43.9707083" lon="12.7027267"><ele>0.5</ele><time>2026-05-01T10:36:23.751Z</time></trkpt><trkpt lat="43.9706467" lon="12.7028833"><ele>1.0</ele><time>2026-05-01T10:36:24.747Z</time></trkpt><trkpt lat="43.9705833" lon="12.7030417"><ele>1.5</ele><time>2026-05-01T10:36:25.751Z</time></trkpt><trkpt lat="43.9705133" lon="12.7032067"><ele>2.0</ele><time>2026-05-01T10:36:26.757Z</time></trkpt><trkpt lat="43.97044" lon="12.7033833"><ele>2.0</ele><time>2026-05-01T10:36:27.752Z</time></trkpt><trkpt lat="43.9703517" lon="12.70356"><ele>2.0</ele><time>2026-05-01T10:36:28.741Z</time></trkpt><trkpt lat="43.970265" lon="12.7037533"><ele>2.0</ele><time>2026-05-01T10:36:29.751Z</time></trkpt><trkpt lat="43.9701783" lon="12.7039533"><ele>2.0</ele><time>2026-05-01T10:36:30.748Z</time></trkpt><trkpt lat="43.9700883" lon="12.7041583"><ele>2.0</ele><time>2026-05-01T10:36:31.752Z</time></trkpt><trkpt lat="43.9700033" lon="12.70437"><ele>2.0</ele><time>2026-05-01T10:36:32.746Z</time></trkpt><trkpt lat="43.9699167" lon="12.70458"><ele>2.333333333333333</ele><time>2026-05-01T10:36:33.748Z</time></trkpt><trkpt lat="43.9698317" lon="12.7047933"><ele>2.6666666666666665</ele><time>2026-05-01T10:36:34.741Z</time></trkpt><trkpt lat="43.9697483" lon="12.705005"><ele>3.0</ele><time>2026-05-01T10:36:35.747Z</time></trkpt><trkpt lat="43.969665" lon="12.7052133"><ele>3.666666666666667</ele><time>2026-05-01T10:36:36.751Z</time></trkpt><trkpt lat="43.9695833" lon="12.7054217"><ele>4.333333333333334</ele><time>2026-05-01T10:36:37.75Z</time></trkpt><trkpt lat="43.9695" lon="12.7056317"><ele>5.0</ele><time>2026-05-01T10:36:38.747Z</time></trkpt><trkpt lat="43.96933" lon="12.7060417"><ele>4.333333333333334</ele><time>2026-05-01T10:36:40.748Z</time></trkpt><trkpt lat="43.969245" lon="12.7062433"><ele>3.666666666666667</ele><time>2026-05-01T10:36:41.75Z</time></trkpt><trkpt lat="43.9691533" lon="12.70644"><ele>3.0</ele><time>2026-05-01T10:36:42.747Z</time></trkpt><trkpt lat="43.9690583" lon="12.7066317"><ele>2.6666666666666665</ele><time>2026-05-01T10:36:43.75Z</time></trkpt><trkpt lat="43.9689617" lon="12.7068233"><ele>2.333333333333333</ele><time>2026-05-01T10:36:44.751Z</time></trkpt><trkpt lat="43.968865" lon="12.7070117"><ele>2.0</ele><time>2026-05-01T10:36:45.749Z</time></trkpt><trkpt lat="43.9687633" lon="12.7072"><ele>2.0</ele><time>2026-05-01T10:36:46.749Z</time></trkpt><trkpt lat="43.9686567" lon="12.7073817"><ele>2.0</ele><time>2026-05-01T10:36:47.743Z</time></trkpt><trkpt lat="43.96855" lon="12.7075583"><ele>2.0</ele><time>2026-05-01T10:36:48.752Z</time></trkpt><trkpt lat="43.9684433" lon="12.7077367"><ele>2.333333333333333</ele><time>2026-05-01T10:36:49.751Z</time></trkpt><trkpt lat="43.968335" lon="12.7079133"><ele>2.6666666666666665</ele><time>2026-05-01T10:36:50.75Z</time></trkpt><trkpt lat="43.9682233" lon="12.70809"><ele>3.0</ele><time>2026-05-01T10:36:51.747Z</time></trkpt><trkpt lat="43.9681083" lon="12.708265"><ele>3.0</ele><time>2026-05-01T10:36:52.751Z</time></trkpt><trkpt lat="43.9679883" lon="12.708435"><ele>3.0</ele><time>2026-05-01T10:36:53.751Z</time></trkpt><trkpt lat="43.9678617" lon="12.708605"><ele>3.0</ele><time>2026-05-01T10:36:54.751Z</time></trkpt><trkpt lat="43.9677317" lon="12.708775"><ele>3.333333333333333</ele><time>2026-05-01T10:36:55.741Z</time></trkpt><trkpt lat="43.9675983" lon="12.708945"><ele>3.6666666666666665</ele><time>2026-05-01T10:36:56.759Z</time></trkpt><trkpt lat="43.9674617" lon="12.7091117"><ele>4.0</ele><time>2026-05-01T10:36:57.751Z</time></trkpt><trkpt lat="43.9673083" lon="12.7092767"><ele>3.6666666666666665</ele><time>2026-05-01T10:36:58.756Z</time></trkpt><trkpt lat="43.96716" lon="12.7094333"><ele>3.333333333333333</ele><time>2026-05-01T10:36:59.749Z</time></trkpt><trkpt lat="43.967005" lon="12.7095833"><ele>3.0</ele><time>2026-05-01T10:37:00.75Z</time></trkpt><trkpt lat="43.9668483" lon="12.7097333"><ele>5.0</ele><time>2026-05-01T10:37:01.753Z</time></trkpt><trkpt lat="43.9666883" lon="12.7098783"><ele>7.0</ele><time>2026-05-01T10:37:02.755Z</time></trkpt><trkpt lat="43.966525" lon="12.7100217"><ele>9.0</ele><time>2026-05-01T10:37:03.752Z</time></trkpt><trkpt lat="43.96636" lon="12.7101617"><ele>8.666666666666666</ele><time>2026-05-01T10:37:04.754Z</time></trkpt><trkpt lat="43.9661917" lon="12.7102983"><ele>8.333333333333332</ele><time>2026-05-01T10:37:05.746Z</time></trkpt><trkpt lat="43.9660167" lon="12.71043"><ele>8.0</ele><time>2026-05-01T10:37:06.751Z</time></trkpt><trkpt lat="43.9658417" lon="12.710565"><ele>9.0</ele><time>2026-05-01T10:37:07.755Z</time></trkpt><trkpt lat="43.9656633" lon="12.7107"><ele>10.0</ele><time>2026-05-01T10:37:08.757Z</time></trkpt><trkpt lat="43.9654883" lon="12.7108317"><ele>11.0</ele><time>2026-05-01T10:37:09.751Z</time></trkpt><trkpt lat="43.9653117" lon="12.7109583"><ele>10.333333333333332</ele><time>2026-05-01T10:37:10.752Z</time></trkpt><trkpt lat="43.9651333" lon="12.7110767"><ele>9.666666666666666</ele><time>2026-05-01T10:37:11.753Z</time></trkpt><trkpt lat="43.96496" lon="12.7111917"><ele>9.0</ele><time>2026-05-01T10:37:12.751Z</time></trkpt><trkpt lat="43.9647867" lon="12.7113117"><ele>8.333333333333334</ele><time>2026-05-01T10:37:13.75Z</time></trkpt><trkpt lat="43.964615" lon="12.7114333"><ele>7.666666666666667</ele><time>2026-05-01T10:37:14.754Z</time></trkpt><trkpt lat="43.964445" lon="12.7115517"><ele>7.0</ele><time>2026-05-01T10:37:15.745Z</time></trkpt><trkpt lat="43.96428" lon="12.7116733"><ele>6.666666666666667</ele><time>2026-05-01T10:37:16.749Z</time></trkpt><trkpt lat="43.96412" lon="12.7117817"><ele>6.333333333333334</ele><time>2026-05-01T10:37:17.749Z</time></trkpt><trkpt lat="43.9639617" lon="12.7118833"><ele>6.0</ele><time>2026-05-01T10:37:18.752Z</time></trkpt><trkpt lat="43.9638017" lon="12.71199"><ele>6.0</ele><time>2026-05-01T10:37:19.752Z</time></trkpt><trkpt lat="43.9636417" lon="12.7120983"><ele>6.0</ele><time>2026-05-01T10:37:20.75Z</time></trkpt><trkpt lat="43.9634783" lon="12.71221"><ele>6.0</ele><time>2026-05-01T10:37:21.751Z</time></trkpt><trkpt lat="43.963305" lon="12.7123217"><ele>7.666666666666666</ele><time>2026-05-01T10:37:22.751Z</time></trkpt><trkpt lat="43.96313" lon="12.7124367"><ele>9.333333333333332</ele><time>2026-05-01T10:37:23.752Z</time></trkpt><trkpt lat="43.9629517" lon="12.7125517"><ele>11.0</ele><time>2026-05-01T10:37:24.745Z</time></trkpt><trkpt lat="43.96277" lon="12.7126617"><ele>11.333333333333332</ele><time>2026-05-01T10:37:25.744Z</time></trkpt><trkpt lat="43.9625883" lon="12.712775"><ele>11.666666666666666</ele><time>2026-05-01T10:37:26.745Z</time></trkpt><trkpt lat="43.962405" lon="12.7128933"><ele>12.0</ele><time>2026-05-01T10:37:27.75Z</time></trkpt><trkpt lat="43.96222" lon="12.7130117"><ele>12.666666666666668</ele><time>2026-05-01T10:37:28.743Z</time></trkpt><trkpt lat="43.962035" lon="12.7131333"><ele>13.333333333333334</ele><time>2026-05-01T10:37:29.745Z</time></trkpt><trkpt lat="43.96185" lon="12.71326"><ele>14.0</ele><time>2026-05-01T10:37:30.751Z</time></trkpt><trkpt lat="43.96167" lon="12.7133917"><ele>14.333333333333334</ele><time>2026-05-01T10:37:31.749Z</time></trkpt><trkpt lat="43.9614883" lon="12.7135267"><ele>14.666666666666668</ele><time>2026-05-01T10:37:32.75Z</time></trkpt><trkpt lat="43.96131" lon="12.7136683"><ele>15.0</ele><time>2026-05-01T10:37:33.749Z</time></trkpt><trkpt lat="43.9611383" lon="12.7138183"><ele>15.333333333333332</ele><time>2026-05-01T10:37:34.748Z</time></trkpt><trkpt lat="43.9609667" lon="12.71398"><ele>15.666666666666666</ele><time>2026-05-01T10:37:35.744Z</time></trkpt><trkpt lat="43.9607983" lon="12.7141417"><ele>16.0</ele><time>2026-05-01T10:37:36.751Z</time></trkpt><trkpt lat="43.9606317" lon="12.71431"><ele>16.666666666666664</ele><time>2026-05-01T10:37:37.755Z</time></trkpt><trkpt lat="43.9604733" lon="12.7144833"><ele>17.333333333333332</ele><time>2026-05-01T10:37:38.754Z</time></trkpt><trkpt lat="43.9603233" lon="12.714665"><ele>18.0</ele><time>2026-05-01T10:37:39.751Z</time></trkpt><trkpt lat="43.96018" lon="12.71486"><ele>18.0</ele><time>2026-05-01T10:37:40.749Z</time></trkpt><trkpt lat="43.9600433" lon="12.7150583"><ele>18.0</ele><time>2026-05-01T10:37:41.748Z</time></trkpt><trkpt lat="43.9599083" lon="12.7152667"><ele>18.0</ele><time>2026-05-01T10:37:42.75Z</time></trkpt><trkpt lat="43.9597783" lon="12.7154783"><ele>18.0</ele><time>2026-05-01T10:37:43.751Z</time></trkpt><trkpt lat="43.95965" lon="12.7157"><ele>18.0</ele><time>2026-05-01T10:37:44.744Z</time></trkpt><trkpt lat="43.9595317" lon="12.71593"><ele>18.0</ele><time>2026-05-01T10:37:45.752Z</time></trkpt><trkpt lat="43.959415" lon="12.7161683"><ele>18.0</ele><time>2026-05-01T10:37:46.747Z</time></trkpt><trkpt lat="43.95931" lon="12.71641"><ele>18.0</ele><time>2026-05-01T10:37:47.75Z</time></trkpt><trkpt lat="43.95921" lon="12.7166583"><ele>18.0</ele><time>2026-05-01T10:37:48.743Z</time></trkpt><trkpt lat="43.9591183" lon="12.7169133"><ele>18.0</ele><time>2026-05-01T10:37:49.752Z</time></trkpt><trkpt lat="43.9590317" lon="12.71717"><ele>18.0</ele><time>2026-05-01T10:37:50.752Z</time></trkpt><trkpt lat="43.9589517" lon="12.7174283"><ele>18.0</ele><time>2026-05-01T10:37:51.755Z</time></trkpt><trkpt lat="43.95888" lon="12.71769"><ele>17.0</ele><time>2026-05-01T10:37:52.751Z</time></trkpt><trkpt lat="43.9588133" lon="12.7179483"><ele>16.0</ele><time>2026-05-01T10:37:53.752Z</time></trkpt><trkpt lat="43.9587533" lon="12.7182"><ele>15.0</ele><time>2026-05-01T10:37:54.75Z</time></trkpt><trkpt lat="43.9587017" lon="12.7184367"><ele>14.0</ele><time>2026-05-01T10:37:55.746Z</time></trkpt><trkpt lat="43.9586533" lon="12.7186633"><ele>13.0</ele><time>2026-05-01T10:37:56.747Z</time></trkpt><trkpt lat="43.9586083" lon="12.71889"><ele>12.0</ele><time>2026-05-01T10:37:57.741Z</time></trkpt><trkpt lat="43.95857" lon="12.7191017"><ele>12.0</ele><time>2026-05-01T10:37:58.751Z</time></trkpt><trkpt lat="43.95854" lon="12.719295"><ele>12.0</ele><time>2026-05-01T10:37:59.75Z</time></trkpt><trkpt lat="43.958515" lon="12.7194667"><ele>12.0</ele><time>2026-05-01T10:38:00.751Z</time></trkpt><trkpt lat="43.95849" lon="12.71961"><ele>12.0</ele><time>2026-05-01T10:38:01.748Z</time></trkpt><trkpt lat="43.9584695" lon="12.7197369"><ele>12.142857142857142</ele><time>2026-05-01T10:38:02.752Z</time></trkpt><trkpt lat="43.958442" lon="12.7198385"><ele>12.285714285714285</ele><time>2026-05-01T10:38:03.75Z</time></trkpt><trkpt lat="43.9584094" lon="12.7199281"><ele>12.428571428571427</ele><time>2026-05-01T10:38:04.752Z</time></trkpt><trkpt lat="43.9583649" lon="12.7200016"><ele>12.571428571428571</ele><time>2026-05-01T10:38:05.749Z</time></trkpt><trkpt lat="43.9583096" lon="12.7200643"><ele>12.714285714285715</ele><time>2026-05-01T10:38:06.747Z</time></trkpt><trkpt lat="43.9582636" lon="12.7201421"><ele>12.857142857142856</ele><time>2026-05-01T10:38:07.752Z</time></trkpt><trkpt lat="43.9582336" lon="12.720228"><ele>13.0</ele><time>2026-05-01T10:38:08.752Z</time></trkpt><trkpt lat="43.9582225" lon="12.7203232"><ele>14.0</ele><time>2026-05-01T10:38:09.745Z</time></trkpt><trkpt lat="43.9582352" lon="12.7204318"><ele>15.0</ele><time>2026-05-01T10:38:10.751Z</time></trkpt><trkpt lat="43.9582545" lon="12.7205586"><ele>16.0</ele><time>2026-05-01T10:38:11.747Z</time></trkpt><trkpt lat="43.9582621" lon="12.7207001"><ele>17.0</ele><time>2026-05-01T10:38:12.759Z</time></trkpt><trkpt lat="43.9582513" lon="12.7208495"><ele>18.0</ele><time>2026-05-01T10:38:13.743Z</time></trkpt><trkpt lat="43.9582296" lon="12.7210086"><ele>17.75</ele><time>2026-05-01T10:38:14.744Z</time></trkpt><trkpt lat="43.9582081" lon="12.7211765"><ele>17.5</ele><time>2026-05-01T10:38:15.746Z</time></trkpt><trkpt lat="43.9581844" lon="12.7213538"><ele>17.25</ele><time>2026-05-01T10:38:16.747Z</time></trkpt><trkpt lat="43.9581573" lon="12.7215419"><ele>17.0</ele><time>2026-05-01T10:38:17.75Z</time></trkpt><trkpt lat="43.9581266" lon="12.7217392"><ele>15.666666666666668</ele><time>2026-05-01T10:38:18.757Z</time></trkpt><trkpt lat="43.9580965" lon="12.7219413"><ele>14.333333333333332</ele><time>2026-05-01T10:38:19.753Z</time></trkpt><trkpt lat="43.9580637" lon="12.7221478"><ele>13.0</ele><time>2026-05-01T10:38:20.763Z</time></trkpt><trkpt lat="43.9580278" lon="12.7223566"><ele>13.0</ele><time>2026-05-01T10:38:21.749Z</time></trkpt><trkpt lat="43.9579869" lon="12.7225732"><ele>13.0</ele><time>2026-05-01T10:38:22.748Z</time></trkpt><trkpt lat="43.9579419" lon="12.7227922"><ele>13.0</ele><time>2026-05-01T10:38:23.75Z</time></trkpt><trkpt lat="43.9578926" lon="12.7230136"><ele>12.333333333333332</ele><time>2026-05-01T10:38:24.761Z</time></trkpt><trkpt lat="43.957841" lon="12.7232357"><ele>11.666666666666666</ele><time>2026-05-01T10:38:25.745Z</time></trkpt><trkpt lat="43.9577897" lon="12.7234593"><ele>11.0</ele><time>2026-05-01T10:38:26.752Z</time></trkpt><trkpt lat="43.9577357" lon="12.7236807"><ele>10.333333333333332</ele><time>2026-05-01T10:38:27.749Z</time></trkpt><trkpt lat="43.9576782" lon="12.7239012"><ele>9.666666666666666</ele><time>2026-05-01T10:38:28.753Z</time></trkpt><trkpt lat="43.9576168" lon="12.7241184"><ele>9.0</ele><time>2026-05-01T10:38:29.75Z</time></trkpt><trkpt lat="43.9575542" lon="12.7243301"><ele>10.0</ele><time>2026-05-01T10:38:30.749Z</time></trkpt><trkpt lat="43.957495" lon="12.7245317"><ele>11.0</ele><time>2026-05-01T10:38:31.749Z</time></trkpt><trkpt lat="43.9574317" lon="12.7247317"><ele>12.0</ele><time>2026-05-01T10:38:32.748Z</time></trkpt><trkpt lat="43.9573717" lon="12.7249317"><ele>12.0</ele><time>2026-05-01T10:38:33.75Z</time></trkpt><trkpt lat="43.957305" lon="12.72513"><ele>12.0</ele><time>2026-05-01T10:38:34.748Z</time></trkpt><trkpt lat="43.9572283" lon="12.725325"><ele>12.0</ele><time>2026-05-01T10:38:35.748Z</time></trkpt><trkpt lat="43.9571467" lon="12.7255183"><ele>11.666666666666666</ele><time>2026-05-01T10:38:36.742Z</time></trkpt><trkpt lat="43.95707" lon="12.7257167"><ele>11.333333333333332</ele><time>2026-05-01T10:38:37.743Z</time></trkpt><trkpt lat="43.9569867" lon="12.725915"><ele>11.0</ele><time>2026-05-01T10:38:38.753Z</time></trkpt><trkpt lat="43.9568983" lon="12.72611"><ele>12.0</ele><time>2026-05-01T10:38:39.748Z</time></trkpt><trkpt lat="43.956805" lon="12.7263067"><ele>13.0</ele><time>2026-05-01T10:38:40.742Z</time></trkpt><trkpt lat="43.9567083" lon="12.7265083"><ele>14.0</ele><time>2026-05-01T10:38:41.749Z</time></trkpt><trkpt lat="43.9566067" lon="12.7267017"><ele>14.0</ele><time>2026-05-01T10:38:42.75Z</time></trkpt><trkpt lat="43.9565067" lon="12.7268967"><ele>14.0</ele><time>2026-05-01T10:38:43.757Z</time></trkpt><trkpt lat="43.956405" lon="12.7270817"><ele>14.0</ele><time>2026-05-01T10:38:44.751Z</time></trkpt><trkpt lat="43.9562983" lon="12.7272583"><ele>14.0</ele><time>2026-05-01T10:38:45.745Z</time></trkpt><trkpt lat="43.9561933" lon="12.7274267"><ele>14.0</ele><time>2026-05-01T10:38:46.75Z</time></trkpt><trkpt lat="43.9560917" lon="12.7275917"><ele>14.0</ele><time>2026-05-01T10:38:47.744Z</time></trkpt><trkpt lat="43.9559883" lon="12.7277483"><ele>14.25</ele><time>2026-05-01T10:38:48.749Z</time></trkpt><trkpt lat="43.9558867" lon="12.7278983"><ele>14.5</ele><time>2026-05-01T10:38:49.745Z</time></trkpt><trkpt lat="43.9557833" lon="12.728045"><ele>14.75</ele><time>2026-05-01T10:38:50.753Z</time></trkpt><trkpt lat="43.9556833" lon="12.7281867"><ele>15.0</ele><time>2026-05-01T10:38:51.755Z</time></trkpt><trkpt lat="43.955585" lon="12.7283267"><ele>15.5</ele><time>2026-05-01T10:38:52.744Z</time></trkpt><trkpt lat="43.9554883" lon="12.7284567"><ele>16.0</ele><time>2026-05-01T10:38:53.756Z</time></trkpt><trkpt lat="43.9553967" lon="12.7285783"><ele>16.5</ele><time>2026-05-01T10:38:54.763Z</time></trkpt><trkpt lat="43.9553133" lon="12.7286783"><ele>17.0</ele><time>2026-05-01T10:38:55.743Z</time></trkpt><trkpt lat="43.9552383" lon="12.72876"><ele>17.0</ele><time>2026-05-01T10:38:56.75Z</time></trkpt><trkpt lat="43.955175" lon="12.7288283"><ele>17.0</ele><time>2026-05-01T10:38:57.748Z</time></trkpt><trkpt lat="43.95512" lon="12.72888"><ele>17.0</ele><time>2026-05-01T10:38:58.75Z</time></trkpt><trkpt lat="43.9550467" lon="12.728925"><ele>17.0</ele><time>2026-05-01T10:39:00.752Z</time></trkpt><trkpt lat="43.9549767" lon="12.7289367"><ele>17.0</ele><time>2026-05-01T10:39:02.748Z</time></trkpt><trkpt lat="43.954855" lon="12.7289483"><ele>17.0</ele><time>2026-05-01T10:39:04.752Z</time></trkpt><trkpt lat="43.95479" lon="12.7289817"><ele>17.0</ele><time>2026-05-01T10:39:05.749Z</time></trkpt><trkpt lat="43.954735" lon="12.7290383"><ele>17.0</ele><time>2026-05-01T10:39:06.753Z</time></trkpt><trkpt lat="43.9546917" lon="12.7291167"><ele>17.0</ele><time>2026-05-01T10:39:07.754Z</time></trkpt><trkpt lat="43.95466" lon="12.7292183"><ele>17.0</ele><time>2026-05-01T10:39:08.742Z</time></trkpt><trkpt lat="43.954635" lon="12.7293333"><ele>17.0</ele><time>2026-05-01T10:39:09.751Z</time></trkpt><trkpt lat="43.9545933" lon="12.72945"><ele>17.0</ele><time>2026-05-01T10:39:10.751Z</time></trkpt><trkpt lat="43.95453" lon="12.729555"><ele>17.0</ele><time>2026-05-01T10:39:11.744Z</time></trkpt><trkpt lat="43.9544567" lon="12.7296567"><ele>17.0</ele><time>2026-05-01T10:39:12.751Z</time></trkpt><trkpt lat="43.9543717" lon="12.72976"><ele>17.0</ele><time>2026-05-01T10:39:13.751Z</time></trkpt><trkpt lat="43.954275" lon="12.72987"><ele>17.0</ele><time>2026-05-01T10:39:14.748Z</time></trkpt><trkpt lat="43.95417" lon="12.7299917"><ele>16.666666666666668</ele><time>2026-05-01T10:39:15.753Z</time></trkpt><trkpt lat="43.9540567" lon="12.7301167"><ele>16.333333333333332</ele><time>2026-05-01T10:39:16.76Z</time></trkpt><trkpt lat="43.9539367" lon="12.7302483"><ele>16.0</ele><time>2026-05-01T10:39:17.754Z</time></trkpt><trkpt lat="43.9538083" lon="12.7303867"><ele>16.0</ele><time>2026-05-01T10:39:18.754Z</time></trkpt><trkpt lat="43.953675" lon="12.7305283"><ele>16.0</ele><time>2026-05-01T10:39:19.751Z</time></trkpt><trkpt lat="43.9535367" lon="12.7306717"><ele>16.0</ele><time>2026-05-01T10:39:20.752Z</time></trkpt><trkpt lat="43.9533917" lon="12.73082"><ele>16.0</ele><time>2026-05-01T10:39:21.753Z</time></trkpt><trkpt lat="43.9532483" lon="12.7309733"><ele>16.0</ele><time>2026-05-01T10:39:22.749Z</time></trkpt><trkpt lat="43.953105" lon="12.7311317"><ele>16.0</ele><time>2026-05-01T10:39:23.75Z</time></trkpt><trkpt lat="43.9529617" lon="12.7312967"><ele>16.0</ele><time>2026-05-01T10:39:24.753Z</time></trkpt><trkpt lat="43.9528183" lon="12.7314633"><ele>16.0</ele><time>2026-05-01T10:39:25.752Z</time></trkpt><trkpt lat="43.9526767" lon="12.7316333"><ele>16.0</ele><time>2026-05-01T10:39:26.748Z</time></trkpt><trkpt lat="43.9525383" lon="12.731805"><ele>14.666666666666666</ele><time>2026-05-01T10:39:27.744Z</time></trkpt><trkpt lat="43.952405" lon="12.73198"><ele>13.333333333333332</ele><time>2026-05-01T10:39:28.75Z</time></trkpt><trkpt lat="43.9522767" lon="12.73216"><ele>12.0</ele><time>2026-05-01T10:39:29.751Z</time></trkpt><trkpt lat="43.9521533" lon="12.7323433"><ele>12.0</ele><time>2026-05-01T10:39:30.751Z</time></trkpt><trkpt lat="43.9520317" lon="12.7325283"><ele>12.0</ele><time>2026-05-01T10:39:31.748Z</time></trkpt><trkpt lat="43.9519133" lon="12.732715"><ele>12.0</ele><time>2026-05-01T10:39:32.75Z</time></trkpt><trkpt lat="43.9517967" lon="12.7329083"><ele>13.0</ele><time>2026-05-01T10:39:33.757Z</time></trkpt><trkpt lat="43.9516833" lon="12.73311"><ele>14.0</ele><time>2026-05-01T10:39:34.743Z</time></trkpt><trkpt lat="43.951575" lon="12.7333183"><ele>15.0</ele><time>2026-05-01T10:39:35.743Z</time></trkpt><trkpt lat="43.9514733" lon="12.733535"><ele>14.666666666666668</ele><time>2026-05-01T10:39:36.743Z</time></trkpt><trkpt lat="43.9513817" lon="12.733765"><ele>14.333333333333334</ele><time>2026-05-01T10:39:37.752Z</time></trkpt><trkpt lat="43.9513033" lon="12.734005"><ele>14.0</ele><time>2026-05-01T10:39:38.749Z</time></trkpt><trkpt lat="43.951235" lon="12.7342533"><ele>13.333333333333334</ele><time>2026-05-01T10:39:39.762Z</time></trkpt><trkpt lat="43.9511733" lon="12.7345083"><ele>12.666666666666668</ele><time>2026-05-01T10:39:40.753Z</time></trkpt><trkpt lat="43.9511167" lon="12.7347667"><ele>12.0</ele><time>2026-05-01T10:39:41.756Z</time></trkpt><trkpt lat="43.951065" lon="12.7350317"><ele>12.0</ele><time>2026-05-01T10:39:42.752Z</time></trkpt><trkpt lat="43.9510217" lon="12.7353"><ele>12.0</ele><time>2026-05-01T10:39:43.754Z</time></trkpt><trkpt lat="43.950985" lon="12.7355717"><ele>12.0</ele><time>2026-05-01T10:39:44.752Z</time></trkpt><trkpt lat="43.9509567" lon="12.735845"><ele>12.333333333333332</ele><time>2026-05-01T10:39:45.752Z</time></trkpt><trkpt lat="43.9509317" lon="12.73612"><ele>12.666666666666666</ele><time>2026-05-01T10:39:46.749Z</time></trkpt><trkpt lat="43.9509133" lon="12.7363933"><ele>13.0</ele><time>2026-05-01T10:39:47.751Z</time></trkpt><trkpt lat="43.9509067" lon="12.7366683"><ele>13.333333333333332</ele><time>2026-05-01T10:39:48.752Z</time></trkpt><trkpt lat="43.950905" lon="12.7369417"><ele>13.666666666666668</ele><time>2026-05-01T10:39:49.758Z</time></trkpt><trkpt lat="43.9509117" lon="12.7372133"><ele>14.0</ele><time>2026-05-01T10:39:50.751Z</time></trkpt><trkpt lat="43.950925" lon="12.737485"><ele>14.0</ele><time>2026-05-01T10:39:51.75Z</time></trkpt><trkpt lat="43.9509433" lon="12.7377567"><ele>14.0</ele><time>2026-05-01T10:39:52.743Z</time></trkpt><trkpt lat="43.95097" lon="12.7380233"><ele>14.0</ele><time>2026-05-01T10:39:53.751Z</time></trkpt><trkpt lat="43.9509983" lon="12.7382817"><ele>14.0</ele><time>2026-05-01T10:39:54.749Z</time></trkpt><trkpt lat="43.9510317" lon="12.7385317"><ele>14.0</ele><time>2026-05-01T10:39:55.753Z</time></trkpt><trkpt lat="43.95107" lon="12.738775"><ele>14.0</ele><time>2026-05-01T10:39:56.75Z</time></trkpt><trkpt lat="43.9511117" lon="12.7390117"><ele>14.0</ele><time>2026-05-01T10:39:57.752Z</time></trkpt><trkpt lat="43.95116" lon="12.739245"><ele>14.0</ele><time>2026-05-01T10:39:58.742Z</time></trkpt><trkpt lat="43.95121" lon="12.7394733"><ele>14.0</ele><time>2026-05-01T10:39:59.751Z</time></trkpt><trkpt lat="43.9512633" lon="12.7397"><ele>14.0</ele><time>2026-05-01T10:40:00.752Z</time></trkpt><trkpt lat="43.9513217" lon="12.73993"><ele>14.0</ele><time>2026-05-01T10:40:01.747Z</time></trkpt><trkpt lat="43.951385" lon="12.74016"><ele>14.0</ele><time>2026-05-01T10:40:02.742Z</time></trkpt><trkpt lat="43.95145" lon="12.7403917"><ele>14.0</ele><time>2026-05-01T10:40:03.751Z</time></trkpt><trkpt lat="43.9515183" lon="12.7406267"><ele>14.0</ele><time>2026-05-01T10:40:04.742Z</time></trkpt><trkpt lat="43.9515867" lon="12.740865"><ele>14.0</ele><time>2026-05-01T10:40:05.751Z</time></trkpt><trkpt lat="43.9516533" lon="12.7411017"><ele>13.333333333333334</ele><time>2026-05-01T10:40:06.755Z</time></trkpt><trkpt lat="43.951725" lon="12.7413467"><ele>12.666666666666668</ele><time>2026-05-01T10:40:07.758Z</time></trkpt><trkpt lat="43.9517967" lon="12.7415917"><ele>12.0</ele><time>2026-05-01T10:40:08.755Z</time></trkpt><trkpt lat="43.95187" lon="12.74184"><ele>12.666666666666668</ele><time>2026-05-01T10:40:09.756Z</time></trkpt><trkpt lat="43.9519417" lon="12.742085"><ele>13.333333333333334</ele><time>2026-05-01T10:40:10.749Z</time></trkpt><trkpt lat="43.9520133" lon="12.7423283"><ele>14.0</ele><time>2026-05-01T10:40:11.751Z</time></trkpt><trkpt lat="43.9520817" lon="12.74257"><ele>13.333333333333334</ele><time>2026-05-01T10:40:12.748Z</time></trkpt><trkpt lat="43.9521533" lon="12.74281"><ele>12.666666666666668</ele><time>2026-05-01T10:40:13.748Z</time></trkpt><trkpt lat="43.9522217" lon="12.743045"><ele>12.0</ele><time>2026-05-01T10:40:14.753Z</time></trkpt><trkpt lat="43.95229" lon="12.743275"><ele>12.0</ele><time>2026-05-01T10:40:15.752Z</time></trkpt><trkpt lat="43.9523567" lon="12.7435017"><ele>12.0</ele><time>2026-05-01T10:40:16.75Z</time></trkpt><trkpt lat="43.952425" lon="12.743725"><ele>12.0</ele><time>2026-05-01T10:40:17.749Z</time></trkpt><trkpt lat="43.9524883" lon="12.7439467"><ele>12.0</ele><time>2026-05-01T10:40:18.752Z</time></trkpt><trkpt lat="43.9525517" lon="12.74417"><ele>12.0</ele><time>2026-05-01T10:40:19.752Z</time></trkpt><trkpt lat="43.9526133" lon="12.7443933"><ele>12.0</ele><time>2026-05-01T10:40:20.748Z</time></trkpt><trkpt lat="43.9526733" lon="12.7446133"><ele>12.666666666666668</ele><time>2026-05-01T10:40:21.754Z</time></trkpt><trkpt lat="43.9527317" lon="12.7448333"><ele>13.333333333333334</ele><time>2026-05-01T10:40:22.754Z</time></trkpt><trkpt lat="43.952785" lon="12.7450533"><ele>14.0</ele><time>2026-05-01T10:40:23.757Z</time></trkpt><trkpt lat="43.9528367" lon="12.7452783"><ele>14.0</ele><time>2026-05-01T10:40:24.753Z</time></trkpt><trkpt lat="43.9528867" lon="12.745505"><ele>14.0</ele><time>2026-05-01T10:40:25.75Z</time></trkpt><trkpt lat="43.9529333" lon="12.7457317"><ele>14.0</ele><time>2026-05-01T10:40:26.745Z</time></trkpt><trkpt lat="43.9529767" lon="12.7459617"><ele>13.666666666666668</ele><time>2026-05-01T10:40:27.749Z</time></trkpt><trkpt lat="43.9530183" lon="12.7462017"><ele>13.333333333333332</ele><time>2026-05-01T10:40:28.751Z</time></trkpt><trkpt lat="43.9530583" lon="12.7464517"><ele>13.0</ele><time>2026-05-01T10:40:29.751Z</time></trkpt><trkpt lat="43.9530917" lon="12.7467117"><ele>12.333333333333332</ele><time>2026-05-01T10:40:30.755Z</time></trkpt><trkpt lat="43.9531183" lon="12.7469767"><ele>11.666666666666666</ele><time>2026-05-01T10:40:31.76Z</time></trkpt><trkpt lat="43.9531417" lon="12.7472517"><ele>11.0</ele><time>2026-05-01T10:40:32.75Z</time></trkpt><trkpt lat="43.95316" lon="12.7475217"><ele>10.666666666666666</ele><time>2026-05-01T10:40:33.743Z</time></trkpt><trkpt lat="43.953175" lon="12.7477917"><ele>10.333333333333334</ele><time>2026-05-01T10:40:34.742Z</time></trkpt><trkpt lat="43.953185" lon="12.7480617"><ele>10.0</ele><time>2026-05-01T10:40:35.742Z</time></trkpt><trkpt lat="43.9531883" lon="12.7483317"><ele>9.666666666666668</ele><time>2026-05-01T10:40:36.744Z</time></trkpt><trkpt lat="43.95319" lon="12.7485983"><ele>9.333333333333334</ele><time>2026-05-01T10:40:37.742Z</time></trkpt><trkpt lat="43.95319" lon="12.7488683"><ele>9.0</ele><time>2026-05-01T10:40:38.745Z</time></trkpt><trkpt lat="43.9531883" lon="12.7491417"><ele>9.333333333333334</ele><time>2026-05-01T10:40:39.748Z</time></trkpt><trkpt lat="43.9531867" lon="12.7494117"><ele>9.666666666666668</ele><time>2026-05-01T10:40:40.743Z</time></trkpt><trkpt lat="43.9531833" lon="12.7496817"><ele>10.0</ele><time>2026-05-01T10:40:41.746Z</time></trkpt><trkpt lat="43.95318" lon="12.749955"><ele>10.666666666666668</ele><time>2026-05-01T10:40:42.746Z</time></trkpt><trkpt lat="43.9531783" lon="12.7502233"><ele>11.333333333333334</ele><time>2026-05-01T10:40:43.745Z</time></trkpt><trkpt lat="43.9531767" lon="12.7504933"><ele>12.0</ele><time>2026-05-01T10:40:44.744Z</time></trkpt><trkpt lat="43.9531767" lon="12.7507617"><ele>12.0</ele><time>2026-05-01T10:40:45.745Z</time></trkpt><trkpt lat="43.9531767" lon="12.75103"><ele>12.0</ele><time>2026-05-01T10:40:46.743Z</time></trkpt><trkpt lat="43.9531733" lon="12.7512983"><ele>12.0</ele><time>2026-05-01T10:40:47.746Z</time></trkpt><trkpt lat="43.95317" lon="12.7515683"><ele>12.0</ele><time>2026-05-01T10:40:48.745Z</time></trkpt><trkpt lat="43.9531717" lon="12.75184"><ele>12.0</ele><time>2026-05-01T10:40:49.746Z</time></trkpt><trkpt lat="43.95318" lon="12.7521167"><ele>12.0</ele><time>2026-05-01T10:40:50.745Z</time></trkpt><trkpt lat="43.95318" lon="12.7523867"><ele>12.333333333333332</ele><time>2026-05-01T10:40:51.745Z</time></trkpt><trkpt lat="43.9531833" lon="12.752665"><ele>12.666666666666666</ele><time>2026-05-01T10:40:52.75Z</time></trkpt><trkpt lat="43.9531883" lon="12.7529483"><ele>13.0</ele><time>2026-05-01T10:40:53.753Z</time></trkpt><trkpt lat="43.9531983" lon="12.7532283"><ele>13.0</ele><time>2026-05-01T10:40:54.76Z</time></trkpt><trkpt lat="43.95321" lon="12.75351"><ele>13.0</ele><time>2026-05-01T10:40:55.742Z</time></trkpt><trkpt lat="43.9532233" lon="12.7537933"><ele>13.0</ele><time>2026-05-01T10:40:56.753Z</time></trkpt><trkpt lat="43.9532383" lon="12.7540717"><ele>12.0</ele><time>2026-05-01T10:40:57.747Z</time></trkpt><trkpt lat="43.9532533" lon="12.75435"><ele>11.0</ele><time>2026-05-01T10:40:58.756Z</time></trkpt><trkpt lat="43.95327" lon="12.75463"><ele>10.0</ele><time>2026-05-01T10:40:59.755Z</time></trkpt><trkpt lat="43.9532883" lon="12.75491"><ele>9.666666666666668</ele><time>2026-05-01T10:41:00.752Z</time></trkpt><trkpt lat="43.9533067" lon="12.75519"><ele>9.333333333333334</ele><time>2026-05-01T10:41:01.753Z</time></trkpt><trkpt lat="43.9533333" lon="12.7554683"><ele>9.0</ele><time>2026-05-01T10:41:02.755Z</time></trkpt><trkpt lat="43.9533567" lon="12.755745"><ele>8.666666666666666</ele><time>2026-05-01T10:41:03.748Z</time></trkpt><trkpt lat="43.9533817" lon="12.75602"><ele>8.333333333333332</ele><time>2026-05-01T10:41:04.748Z</time></trkpt><trkpt lat="43.95341" lon="12.7563"><ele>8.0</ele><time>2026-05-01T10:41:05.751Z</time></trkpt><trkpt lat="43.9534417" lon="12.756575"><ele>8.0</ele><time>2026-05-01T10:41:06.751Z</time></trkpt><trkpt lat="43.953475" lon="12.7568483"><ele>8.0</ele><time>2026-05-01T10:41:07.753Z</time></trkpt><trkpt lat="43.9535067" lon="12.7571183"><ele>8.0</ele><time>2026-05-01T10:41:08.756Z</time></trkpt><trkpt lat="43.95354" lon="12.7573883"><ele>8.333333333333332</ele><time>2026-05-01T10:41:09.747Z</time></trkpt><trkpt lat="43.9535733" lon="12.7576617"><ele>8.666666666666666</ele><time>2026-05-01T10:41:10.742Z</time></trkpt><trkpt lat="43.9536067" lon="12.7579333"><ele>9.0</ele><time>2026-05-01T10:41:11.753Z</time></trkpt><trkpt lat="43.9536417" lon="12.7582067"><ele>9.0</ele><time>2026-05-01T10:41:12.744Z</time></trkpt><trkpt lat="43.953675" lon="12.7584817"><ele>9.0</ele><time>2026-05-01T10:41:13.753Z</time></trkpt><trkpt lat="43.95371" lon="12.75876"><ele>9.0</ele><time>2026-05-01T10:41:14.751Z</time></trkpt><trkpt lat="43.9537517" lon="12.7590517"><ele>9.0</ele><time>2026-05-01T10:41:15.755Z</time></trkpt><trkpt lat="43.9537867" lon="12.7593317"><ele>9.0</ele><time>2026-05-01T10:41:16.752Z</time></trkpt><trkpt lat="43.953825" lon="12.7596067"><ele>9.0</ele><time>2026-05-01T10:41:17.752Z</time></trkpt><trkpt lat="43.953875" lon="12.7598983"><ele>9.0</ele><time>2026-05-01T10:41:18.752Z</time></trkpt><trkpt lat="43.9539383" lon="12.7601817"><ele>9.0</ele><time>2026-05-01T10:41:19.749Z</time></trkpt><trkpt lat="43.954005" lon="12.7604633"><ele>9.0</ele><time>2026-05-01T10:41:20.753Z</time></trkpt><trkpt lat="43.95409" lon="12.760735"><ele>9.0</ele><time>2026-05-01T10:41:21.751Z</time></trkpt><trkpt lat="43.9541833" lon="12.7610017"><ele>9.0</ele><time>2026-05-01T10:41:22.751Z</time></trkpt><trkpt lat="43.95429" lon="12.7612567"><ele>9.0</ele><time>2026-05-01T10:41:23.743Z</time></trkpt><trkpt lat="43.954415" lon="12.7614933"><ele>9.0</ele><time>2026-05-01T10:41:24.755Z</time></trkpt><trkpt lat="43.9545517" lon="12.76171"><ele>9.0</ele><time>2026-05-01T10:41:25.752Z</time></trkpt><trkpt lat="43.9547" lon="12.7619067"><ele>9.0</ele><time>2026-05-01T10:41:26.752Z</time></trkpt><trkpt lat="43.9548633" lon="12.7620833"><ele>9.666666666666666</ele><time>2026-05-01T10:41:27.754Z</time></trkpt><trkpt lat="43.9550267" lon="12.7622533"><ele>10.333333333333332</ele><time>2026-05-01T10:41:28.754Z</time></trkpt><trkpt lat="43.9551867" lon="12.7624283"><ele>11.0</ele><time>2026-05-01T10:41:29.75Z</time></trkpt><trkpt lat="43.9553417" lon="12.7625967"><ele>11.0</ele><time>2026-05-01T10:41:30.752Z</time></trkpt><trkpt lat="43.9554983" lon="12.7627667"><ele>11.0</ele><time>2026-05-01T10:41:31.743Z</time></trkpt><trkpt lat="43.9556533" lon="12.7629367"><ele>11.0</ele><time>2026-05-01T10:41:32.75Z</time></trkpt><trkpt lat="43.9558083" lon="12.763105"><ele>12.333333333333332</ele><time>2026-05-01T10:41:33.752Z</time></trkpt><trkpt lat="43.9559533" lon="12.76328"><ele>13.666666666666666</ele><time>2026-05-01T10:41:34.746Z</time></trkpt><trkpt lat="43.95609" lon="12.763465"><ele>15.0</ele><time>2026-05-01T10:41:35.754Z</time></trkpt><trkpt lat="43.9562133" lon="12.76366"><ele>15.333333333333332</ele><time>2026-05-01T10:41:36.751Z</time></trkpt><trkpt lat="43.9563233" lon="12.7638683"><ele>15.666666666666666</ele><time>2026-05-01T10:41:37.743Z</time></trkpt><trkpt lat="43.956415" lon="12.7640917"><ele>16.0</ele><time>2026-05-01T10:41:38.752Z</time></trkpt><trkpt lat="43.9564883" lon="12.7643233"><ele>15.0</ele><time>2026-05-01T10:41:39.75Z</time></trkpt><trkpt lat="43.9565433" lon="12.7645567"><ele>14.0</ele><time>2026-05-01T10:41:40.745Z</time></trkpt><trkpt lat="43.9565767" lon="12.764795"><ele>13.0</ele><time>2026-05-01T10:41:41.749Z</time></trkpt><trkpt lat="43.9565883" lon="12.7650367"><ele>13.333333333333332</ele><time>2026-05-01T10:41:42.75Z</time></trkpt><trkpt lat="43.95658" lon="12.765275"><ele>13.666666666666668</ele><time>2026-05-01T10:41:43.751Z</time></trkpt><trkpt lat="43.9565517" lon="12.765515"><ele>14.0</ele><time>2026-05-01T10:41:44.745Z</time></trkpt><trkpt lat="43.9565067" lon="12.76575"><ele>14.0</ele><time>2026-05-01T10:41:45.748Z</time></trkpt><trkpt lat="43.9564517" lon="12.7659817"><ele>14.0</ele><time>2026-05-01T10:41:46.748Z</time></trkpt><trkpt lat="43.95639" lon="12.7662083"><ele>14.0</ele><time>2026-05-01T10:41:47.75Z</time></trkpt><trkpt lat="43.9563183" lon="12.76643"><ele>15.0</ele><time>2026-05-01T10:41:48.748Z</time></trkpt><trkpt lat="43.95624" lon="12.7666483"><ele>16.0</ele><time>2026-05-01T10:41:49.751Z</time></trkpt><trkpt lat="43.9561583" lon="12.766865"><ele>17.0</ele><time>2026-05-01T10:41:50.752Z</time></trkpt><trkpt lat="43.956075" lon="12.7670817"><ele>16.666666666666668</ele><time>2026-05-01T10:41:51.749Z</time></trkpt><trkpt lat="43.9559933" lon="12.7672967"><ele>16.333333333333332</ele><time>2026-05-01T10:41:52.742Z</time></trkpt><trkpt lat="43.9559117" lon="12.7675083"><ele>16.0</ele><time>2026-05-01T10:41:53.75Z</time></trkpt><trkpt lat="43.9558317" lon="12.76771"><ele>16.0</ele><time>2026-05-01T10:41:54.742Z</time></trkpt><trkpt lat="43.9557467" lon="12.7679117"><ele>16.0</ele><time>2026-05-01T10:41:55.749Z</time></trkpt><trkpt lat="43.955665" lon="12.7681183"><ele>16.0</ele><time>2026-05-01T10:41:56.752Z</time></trkpt><trkpt lat="43.9555867" lon="12.76832"><ele>16.0</ele><time>2026-05-01T10:41:57.75Z</time></trkpt><trkpt lat="43.9555083" lon="12.7685217"><ele>16.0</ele><time>2026-05-01T10:41:58.753Z</time></trkpt><trkpt lat="43.9554367" lon="12.7687267"><ele>16.0</ele><time>2026-05-01T10:41:59.752Z</time></trkpt><trkpt lat="43.95537" lon="12.7689383"><ele>16.0</ele><time>2026-05-01T10:42:00.749Z</time></trkpt><trkpt lat="43.9553083" lon="12.7691517"><ele>16.0</ele><time>2026-05-01T10:42:01.748Z</time></trkpt><trkpt lat="43.95525" lon="12.7693617"><ele>16.0</ele><time>2026-05-01T10:42:02.756Z</time></trkpt><trkpt lat="43.9551917" lon="12.76957"><ele>17.0</ele><time>2026-05-01T10:42:03.745Z</time></trkpt><trkpt lat="43.9551367" lon="12.7697717"><ele>18.0</ele><time>2026-05-01T10:42:04.752Z</time></trkpt><trkpt lat="43.9550867" lon="12.7699717"><ele>19.0</ele><time>2026-05-01T10:42:05.746Z</time></trkpt><trkpt lat="43.95504" lon="12.7701633"><ele>18.75</ele><time>2026-05-01T10:42:06.753Z</time></trkpt><trkpt lat="43.9549933" lon="12.7703417"><ele>18.5</ele><time>2026-05-01T10:42:07.747Z</time></trkpt><trkpt lat="43.9549483" lon="12.7705233"><ele>18.25</ele><time>2026-05-01T10:42:08.749Z</time></trkpt><trkpt lat="43.9549" lon="12.770705"><ele>18.0</ele><time>2026-05-01T10:42:09.751Z</time></trkpt><trkpt lat="43.9548517" lon="12.7708917"><ele>17.75</ele><time>2026-05-01T10:42:10.75Z</time></trkpt><trkpt lat="43.9548017" lon="12.77108"><ele>17.5</ele><time>2026-05-01T10:42:11.742Z</time></trkpt><trkpt lat="43.954755" lon="12.7712633"><ele>17.25</ele><time>2026-05-01T10:42:12.749Z</time></trkpt><trkpt lat="43.95471" lon="12.7714433"><ele>17.0</ele><time>2026-05-01T10:42:13.75Z</time></trkpt><trkpt lat="43.9546717" lon="12.771615"><ele>17.0</ele><time>2026-05-01T10:42:14.75Z</time></trkpt><trkpt lat="43.9546333" lon="12.7717733"><ele>17.0</ele><time>2026-05-01T10:42:15.748Z</time></trkpt><trkpt lat="43.9545983" lon="12.771925"><ele>17.0</ele><time>2026-05-01T10:42:16.751Z</time></trkpt><trkpt lat="43.95457" lon="12.7720717"><ele>17.0</ele><time>2026-05-01T10:42:17.751Z</time></trkpt><trkpt lat="43.9545467" lon="12.7722083"><ele>17.0</ele><time>2026-05-01T10:42:18.751Z</time></trkpt><trkpt lat="43.9545267" lon="12.7723433"><ele>16.75</ele><time>2026-05-01T10:42:19.752Z</time></trkpt><trkpt lat="43.9545017" lon="12.7724817"><ele>16.5</ele><time>2026-05-01T10:42:20.751Z</time></trkpt><trkpt lat="43.95447" lon="12.7726267"><ele>16.25</ele><time>2026-05-01T10:42:21.753Z</time></trkpt><trkpt lat="43.9544317" lon="12.7727817"><ele>16.0</ele><time>2026-05-01T10:42:22.75Z</time></trkpt><trkpt lat="43.9543867" lon="12.772945"><ele>16.5</ele><time>2026-05-01T10:42:23.746Z</time></trkpt><trkpt lat="43.9543417" lon="12.7731183"><ele>17.0</ele><time>2026-05-01T10:42:24.752Z</time></trkpt><trkpt lat="43.9542983" lon="12.7733"><ele>17.5</ele><time>2026-05-01T10:42:25.751Z</time></trkpt><trkpt lat="43.9542617" lon="12.7734833"><ele>18.0</ele><time>2026-05-01T10:42:26.756Z</time></trkpt><trkpt lat="43.9542267" lon="12.7736683"><ele>18.0</ele><time>2026-05-01T10:42:27.749Z</time></trkpt><trkpt lat="43.9541933" lon="12.773855"><ele>18.0</ele><time>2026-05-01T10:42:28.75Z</time></trkpt><trkpt lat="43.954165" lon="12.774045"><ele>18.0</ele><time>2026-05-01T10:42:29.742Z</time></trkpt><trkpt lat="43.954135" lon="12.7742383"><ele>18.0</ele><time>2026-05-01T10:42:30.746Z</time></trkpt><trkpt lat="43.9541067" lon="12.7744317"><ele>18.0</ele><time>2026-05-01T10:42:31.753Z</time></trkpt><trkpt lat="43.95408" lon="12.7746183"><ele>18.0</ele><time>2026-05-01T10:42:32.742Z</time></trkpt><trkpt lat="43.9540533" lon="12.7748017"><ele>18.0</ele><time>2026-05-01T10:42:33.749Z</time></trkpt><trkpt lat="43.954025" lon="12.7749917"><ele>18.0</ele><time>2026-05-01T10:42:34.749Z</time></trkpt><trkpt lat="43.9539983" lon="12.7751833"><ele>18.5</ele><time>2026-05-01T10:42:35.753Z</time></trkpt><trkpt lat="43.9539733" lon="12.7753667"><ele>19.0</ele><time>2026-05-01T10:42:36.753Z</time></trkpt><trkpt lat="43.9539517" lon="12.7755467"><ele>19.5</ele><time>2026-05-01T10:42:37.755Z</time></trkpt><trkpt lat="43.953925" lon="12.7757233"><ele>20.0</ele><time>2026-05-01T10:42:38.743Z</time></trkpt><trkpt lat="43.9538917" lon="12.7758983"><ele>19.75</ele><time>2026-05-01T10:42:39.751Z</time></trkpt><trkpt lat="43.953855" lon="12.7760733"><ele>19.5</ele><time>2026-05-01T10:42:40.753Z</time></trkpt><trkpt lat="43.9538183" lon="12.7762517"><ele>19.25</ele><time>2026-05-01T10:42:41.755Z</time></trkpt><trkpt lat="43.9537817" lon="12.7764333"><ele>19.0</ele><time>2026-05-01T10:42:42.757Z</time></trkpt><trkpt lat="43.953745" lon="12.7766117"><ele>19.0</ele><time>2026-05-01T10:42:43.743Z</time></trkpt><trkpt lat="43.9537083" lon="12.7767883"><ele>19.0</ele><time>2026-05-01T10:42:44.751Z</time></trkpt><trkpt lat="43.953675" lon="12.7769667"><ele>19.0</ele><time>2026-05-01T10:42:45.75Z</time></trkpt><trkpt lat="43.9536433" lon="12.7771517"><ele>19.0</ele><time>2026-05-01T10:42:46.75Z</time></trkpt><trkpt lat="43.9536133" lon="12.7773417"><ele>19.0</ele><time>2026-05-01T10:42:47.742Z</time></trkpt><trkpt lat="43.95359" lon="12.77754"><ele>19.0</ele><time>2026-05-01T10:42:48.749Z</time></trkpt><trkpt lat="43.9535733" lon="12.7777467"><ele>19.0</ele><time>2026-05-01T10:42:49.748Z</time></trkpt><trkpt lat="43.95356" lon="12.7779517"><ele>19.0</ele><time>2026-05-01T10:42:50.743Z</time></trkpt><trkpt lat="43.9535533" lon="12.77817"><ele>19.0</ele><time>2026-05-01T10:42:51.755Z</time></trkpt><trkpt lat="43.9535567" lon="12.7783933"><ele>19.0</ele><time>2026-05-01T10:42:52.75Z</time></trkpt><trkpt lat="43.953555" lon="12.77861"><ele>19.0</ele><time>2026-05-01T10:42:53.748Z</time></trkpt><trkpt lat="43.9535467" lon="12.7788183"><ele>20.333333333333332</ele><time>2026-05-01T10:42:54.749Z</time></trkpt><trkpt lat="43.95353" lon="12.7790317"><ele>21.666666666666668</ele><time>2026-05-01T10:42:55.75Z</time></trkpt><trkpt lat="43.9535033" lon="12.7792417"><ele>23.0</ele><time>2026-05-01T10:42:56.752Z</time></trkpt><trkpt lat="43.953475" lon="12.7794483"><ele>24.0</ele><time>2026-05-01T10:42:57.751Z</time></trkpt><trkpt lat="43.95344" lon="12.7796533"><ele>25.0</ele><time>2026-05-01T10:42:58.75Z</time></trkpt><trkpt lat="43.95339" lon="12.779855"><ele>26.0</ele><time>2026-05-01T10:42:59.748Z</time></trkpt><trkpt lat="43.95333" lon="12.7800583"><ele>23.333333333333332</ele><time>2026-05-01T10:43:00.752Z</time></trkpt><trkpt lat="43.9532717" lon="12.7802617"><ele>20.666666666666664</ele><time>2026-05-01T10:43:01.746Z</time></trkpt><trkpt lat="43.9532083" lon="12.780465"><ele>18.0</ele><time>2026-05-01T10:43:02.757Z</time></trkpt><trkpt lat="43.9531417" lon="12.7806667"><ele>18.0</ele><time>2026-05-01T10:43:03.75Z</time></trkpt><trkpt lat="43.9530767" lon="12.780855"><ele>18.0</ele><time>2026-05-01T10:43:04.75Z</time></trkpt><trkpt lat="43.95301" lon="12.7810567"><ele>18.0</ele><time>2026-05-01T10:43:05.742Z</time></trkpt><trkpt lat="43.9529483" lon="12.7812633"><ele>19.0</ele><time>2026-05-01T10:43:06.753Z</time></trkpt><trkpt lat="43.9528883" lon="12.78147"><ele>20.0</ele><time>2026-05-01T10:43:07.754Z</time></trkpt><trkpt lat="43.9528283" lon="12.7816783"><ele>21.0</ele><time>2026-05-01T10:43:08.751Z</time></trkpt><trkpt lat="43.952775" lon="12.7818833"><ele>22.0</ele><time>2026-05-01T10:43:09.747Z</time></trkpt><trkpt lat="43.9527267" lon="12.7820817"><ele>23.0</ele><time>2026-05-01T10:43:10.743Z</time></trkpt><trkpt lat="43.952675" lon="12.7822783"><ele>24.0</ele><time>2026-05-01T10:43:11.751Z</time></trkpt><trkpt lat="43.9526233" lon="12.78248"><ele>25.0</ele><time>2026-05-01T10:43:12.747Z</time></trkpt><trkpt lat="43.9525717" lon="12.7826883"><ele>26.0</ele><time>2026-05-01T10:43:13.742Z</time></trkpt><trkpt lat="43.952515" lon="12.782895"><ele>27.0</ele><time>2026-05-01T10:43:14.749Z</time></trkpt><trkpt lat="43.95246" lon="12.7831033"><ele>25.666666666666668</ele><time>2026-05-01T10:43:15.749Z</time></trkpt><trkpt lat="43.95241" lon="12.7833083"><ele>24.333333333333336</ele><time>2026-05-01T10:43:16.75Z</time></trkpt><trkpt lat="43.9523567" lon="12.7835083"><ele>23.0</ele><time>2026-05-01T10:43:17.751Z</time></trkpt><trkpt lat="43.9522983" lon="12.78371"><ele>23.0</ele><time>2026-05-01T10:43:18.748Z</time></trkpt><trkpt lat="43.9522433" lon="12.7839133"><ele>23.0</ele><time>2026-05-01T10:43:19.749Z</time></trkpt><trkpt lat="43.95218" lon="12.7841133"><ele>23.0</ele><time>2026-05-01T10:43:20.751Z</time></trkpt><trkpt lat="43.9521133" lon="12.7843083"><ele>22.333333333333336</ele><time>2026-05-01T10:43:21.749Z</time></trkpt><trkpt lat="43.9520317" lon="12.784495"><ele>21.666666666666668</ele><time>2026-05-01T10:43:22.751Z</time></trkpt><trkpt lat="43.95194" lon="12.784675"><ele>21.0</ele><time>2026-05-01T10:43:23.752Z</time></trkpt><trkpt lat="43.951835" lon="12.7848517"><ele>21.0</ele><time>2026-05-01T10:43:24.755Z</time></trkpt><trkpt lat="43.9517183" lon="12.785025"><ele>21.0</ele><time>2026-05-01T10:43:25.75Z</time></trkpt><trkpt lat="43.9515917" lon="12.7851883"><ele>21.0</ele><time>2026-05-01T10:43:26.751Z</time></trkpt><trkpt lat="43.9514617" lon="12.7853433"><ele>20.666666666666668</ele><time>2026-05-01T10:43:27.749Z</time></trkpt><trkpt lat="43.9513283" lon="12.7854933"><ele>20.333333333333336</ele><time>2026-05-01T10:43:28.751Z</time></trkpt><trkpt lat="43.9511983" lon="12.7856383"><ele>20.0</ele><time>2026-05-01T10:43:29.751Z</time></trkpt><trkpt lat="43.9510717" lon="12.78578"><ele>20.0</ele><time>2026-05-01T10:43:30.749Z</time></trkpt><trkpt lat="43.9509483" lon="12.78592"><ele>20.0</ele><time>2026-05-01T10:43:31.751Z</time></trkpt><trkpt lat="43.9508233" lon="12.7860667"><ele>20.0</ele><time>2026-05-01T10:43:32.754Z</time></trkpt><trkpt lat="43.950705" lon="12.7862167"><ele>20.25</ele><time>2026-05-01T10:43:33.75Z</time></trkpt><trkpt lat="43.9506" lon="12.7863633"><ele>20.5</ele><time>2026-05-01T10:43:34.749Z</time></trkpt><trkpt lat="43.9505083" lon="12.7865083"><ele>20.75</ele><time>2026-05-01T10:43:35.751Z</time></trkpt><trkpt lat="43.9504283" lon="12.786655"><ele>21.0</ele><time>2026-05-01T10:43:36.756Z</time></trkpt><trkpt lat="43.95036" lon="12.7868033"><ele>20.8</ele><time>2026-05-01T10:43:37.748Z</time></trkpt><trkpt lat="43.9503017" lon="12.78694"><ele>20.6</ele><time>2026-05-01T10:43:38.745Z</time></trkpt><trkpt lat="43.95025" lon="12.7870583"><ele>20.4</ele><time>2026-05-01T10:43:39.742Z</time></trkpt><trkpt lat="43.9502" lon="12.7871733"><ele>20.2</ele><time>2026-05-01T10:43:40.742Z</time></trkpt><trkpt lat="43.95015" lon="12.7872817"><ele>20.0</ele><time>2026-05-01T10:43:41.744Z</time></trkpt><trkpt lat="43.9500867" lon="12.7874167"><ele>19.75</ele><time>2026-05-01T10:43:42.742Z</time></trkpt><trkpt lat="43.95002" lon="12.7875683"><ele>19.5</ele><time>2026-05-01T10:43:43.741Z</time></trkpt><trkpt lat="43.94995" lon="12.7877367"><ele>19.25</ele><time>2026-05-01T10:43:44.746Z</time></trkpt><trkpt lat="43.9498783" lon="12.78791"><ele>19.0</ele><time>2026-05-01T10:43:45.742Z</time></trkpt><trkpt lat="43.9498067" lon="12.78808"><ele>19.75</ele><time>2026-05-01T10:43:46.743Z</time></trkpt><trkpt lat="43.94973" lon="12.7882533"><ele>20.5</ele><time>2026-05-01T10:43:47.742Z</time></trkpt><trkpt lat="43.9496567" lon="12.7884317"><ele>21.25</ele><time>2026-05-01T10:43:48.743Z</time></trkpt><trkpt lat="43.9495867" lon="12.7886033"><ele>22.0</ele><time>2026-05-01T10:43:49.741Z</time></trkpt><trkpt lat="43.9495183" lon="12.7887667"><ele>23.0</ele><time>2026-05-01T10:43:50.745Z</time></trkpt><trkpt lat="43.94945" lon="12.7889267"><ele>24.0</ele><time>2026-05-01T10:43:51.742Z</time></trkpt><trkpt lat="43.94939" lon="12.7890767"><ele>25.0</ele><time>2026-05-01T10:43:52.743Z</time></trkpt><trkpt lat="43.94933" lon="12.789225"><ele>26.0</ele><time>2026-05-01T10:43:53.742Z</time></trkpt><trkpt lat="43.94927" lon="12.7893767"><ele>25.25</ele><time>2026-05-01T10:43:54.743Z</time></trkpt><trkpt lat="43.9492083" lon="12.7895317"><ele>24.5</ele><time>2026-05-01T10:43:55.742Z</time></trkpt><trkpt lat="43.9491567" lon="12.789675"><ele>23.75</ele><time>2026-05-01T10:43:56.744Z</time></trkpt><trkpt lat="43.9491133" lon="12.7898167"><ele>23.0</ele><time>2026-05-01T10:43:57.743Z</time></trkpt><trkpt lat="43.9490717" lon="12.7899533"><ele>23.0</ele><time>2026-05-01T10:43:58.743Z</time></trkpt><trkpt lat="43.9490317" lon="12.790085"><ele>23.0</ele><time>2026-05-01T10:43:59.743Z</time></trkpt><trkpt lat="43.9489967" lon="12.7902"><ele>23.0</ele><time>2026-05-01T10:44:00.75Z</time></trkpt><trkpt lat="43.94897" lon="12.7903033"><ele>23.0</ele><time>2026-05-01T10:44:01.748Z</time></trkpt><trkpt lat="43.9489383" lon="12.7904017"><ele>23.0</ele><time>2026-05-01T10:44:02.752Z</time></trkpt><trkpt lat="43.9488983" lon="12.79049"><ele>23.0</ele><time>2026-05-01T10:44:03.75Z</time></trkpt><trkpt lat="43.948855" lon="12.7905783"><ele>23.799999999999997</ele><time>2026-05-01T10:44:04.753Z</time></trkpt><trkpt lat="43.9488167" lon="12.7906783"><ele>24.6</ele><time>2026-05-01T10:44:05.752Z</time></trkpt><trkpt lat="43.9487983" lon="12.790795"><ele>25.400000000000002</ele><time>2026-05-01T10:44:06.746Z</time></trkpt><trkpt lat="43.9487917" lon="12.7909283"><ele>26.200000000000003</ele><time>2026-05-01T10:44:07.743Z</time></trkpt><trkpt lat="43.94878" lon="12.7910783"><ele>27.0</ele><time>2026-05-01T10:44:08.757Z</time></trkpt><trkpt lat="43.9487567" lon="12.7912533"><ele>28.0</ele><time>2026-05-01T10:44:09.746Z</time></trkpt><trkpt lat="43.948725" lon="12.7914483"><ele>29.0</ele><time>2026-05-01T10:44:10.754Z</time></trkpt><trkpt lat="43.948685" lon="12.7916567"><ele>30.0</ele><time>2026-05-01T10:44:11.741Z</time></trkpt><trkpt lat="43.948645" lon="12.7918733"><ele>30.0</ele><time>2026-05-01T10:44:12.75Z</time></trkpt><trkpt lat="43.9486117" lon="12.7921017"><ele>30.0</ele><time>2026-05-01T10:44:13.742Z</time></trkpt><trkpt lat="43.9485683" lon="12.7923333"><ele>30.0</ele><time>2026-05-01T10:44:14.743Z</time></trkpt><trkpt lat="43.9485233" lon="12.792565"><ele>29.0</ele><time>2026-05-01T10:44:15.748Z</time></trkpt><trkpt lat="43.9484717" lon="12.7927933"><ele>28.0</ele><time>2026-05-01T10:44:16.75Z</time></trkpt><trkpt lat="43.9484117" lon="12.7930183"><ele>27.0</ele><time>2026-05-01T10:44:17.752Z</time></trkpt><trkpt lat="43.9483433" lon="12.7932383"><ele>27.0</ele><time>2026-05-01T10:44:18.742Z</time></trkpt><trkpt lat="43.9482667" lon="12.7934567"><ele>27.0</ele><time>2026-05-01T10:44:19.747Z</time></trkpt><trkpt lat="43.9481867" lon="12.7936733"><ele>27.0</ele><time>2026-05-01T10:44:20.749Z</time></trkpt><trkpt lat="43.948115" lon="12.7938817"><ele>27.75</ele><time>2026-05-01T10:44:21.748Z</time></trkpt><trkpt lat="43.9480467" lon="12.79408"><ele>28.5</ele><time>2026-05-01T10:44:22.747Z</time></trkpt><trkpt lat="43.9479883" lon="12.7942617"><ele>29.25</ele><time>2026-05-01T10:44:23.742Z</time></trkpt><trkpt lat="43.9479383" lon="12.7944283"><ele>30.0</ele><time>2026-05-01T10:44:24.752Z</time></trkpt><trkpt lat="43.9478917" lon="12.7945817"><ele>30.5</ele><time>2026-05-01T10:44:25.75Z</time></trkpt><trkpt lat="43.9478483" lon="12.7947267"><ele>31.0</ele><time>2026-05-01T10:44:26.754Z</time></trkpt><trkpt lat="43.9478067" lon="12.794875"><ele>31.5</ele><time>2026-05-01T10:44:27.749Z</time></trkpt><trkpt lat="43.9477633" lon="12.7950283"><ele>32.0</ele><time>2026-05-01T10:44:28.747Z</time></trkpt><trkpt lat="43.947725" lon="12.7951883"><ele>32.75</ele><time>2026-05-01T10:44:29.753Z</time></trkpt><trkpt lat="43.9476917" lon="12.79536"><ele>33.5</ele><time>2026-05-01T10:44:30.742Z</time></trkpt><trkpt lat="43.9476733" lon="12.79555"><ele>34.25</ele><time>2026-05-01T10:44:31.749Z</time></trkpt><trkpt lat="43.9476633" lon="12.795755"><ele>35.0</ele><time>2026-05-01T10:44:32.753Z</time></trkpt><trkpt lat="43.94766" lon="12.7959733"><ele>35.0</ele><time>2026-05-01T10:44:33.749Z</time></trkpt><trkpt lat="43.94766" lon="12.7961983"><ele>35.0</ele><time>2026-05-01T10:44:34.753Z</time></trkpt><trkpt lat="43.9476583" lon="12.7964317"><ele>35.0</ele><time>2026-05-01T10:44:35.75Z</time></trkpt><trkpt lat="43.9476617" lon="12.7966733"><ele>36.0</ele><time>2026-05-01T10:44:36.748Z</time></trkpt><trkpt lat="43.9476617" lon="12.7969183"><ele>37.0</ele><time>2026-05-01T10:44:37.751Z</time></trkpt><trkpt lat="43.9476617" lon="12.7971667"><ele>38.0</ele><time>2026-05-01T10:44:38.749Z</time></trkpt><trkpt lat="43.9476517" lon="12.7974167"><ele>38.33333333333333</ele><time>2026-05-01T10:44:39.749Z</time></trkpt><trkpt lat="43.947645" lon="12.79767"><ele>38.666666666666664</ele><time>2026-05-01T10:44:40.745Z</time></trkpt><trkpt lat="43.947635" lon="12.7979267"><ele>39.0</ele><time>2026-05-01T10:44:41.753Z</time></trkpt><trkpt lat="43.9476233" lon="12.7981833"><ele>39.0</ele><time>2026-05-01T10:44:42.753Z</time></trkpt><trkpt lat="43.9476033" lon="12.7984417"><ele>39.0</ele><time>2026-05-01T10:44:43.751Z</time></trkpt><trkpt lat="43.94758" lon="12.7987017"><ele>39.0</ele><time>2026-05-01T10:44:44.749Z</time></trkpt><trkpt lat="43.947555" lon="12.798965"><ele>38.333333333333336</ele><time>2026-05-01T10:44:45.749Z</time></trkpt><trkpt lat="43.9475267" lon="12.7992283"><ele>37.66666666666667</ele><time>2026-05-01T10:44:46.748Z</time></trkpt><trkpt lat="43.947495" lon="12.799495"><ele>37.0</ele><time>2026-05-01T10:44:47.753Z</time></trkpt><trkpt lat="43.9474633" lon="12.7997633"><ele>37.0</ele><time>2026-05-01T10:44:48.747Z</time></trkpt><trkpt lat="43.94743" lon="12.8000333"><ele>37.0</ele><time>2026-05-01T10:44:49.75Z</time></trkpt><trkpt lat="43.9473983" lon="12.800305"><ele>37.0</ele><time>2026-05-01T10:44:50.75Z</time></trkpt><trkpt lat="43.9473683" lon="12.8005783"><ele>38.0</ele><time>2026-05-01T10:44:51.751Z</time></trkpt><trkpt lat="43.9473333" lon="12.80085"><ele>39.0</ele><time>2026-05-01T10:44:52.742Z</time></trkpt><trkpt lat="43.9473033" lon="12.8011233"><ele>40.0</ele><time>2026-05-01T10:44:53.743Z</time></trkpt><trkpt lat="43.9472783" lon="12.8013983"><ele>40.333333333333336</ele><time>2026-05-01T10:44:54.752Z</time></trkpt><trkpt lat="43.9472617" lon="12.8016767"><ele>40.666666666666664</ele><time>2026-05-01T10:44:55.75Z</time></trkpt><trkpt lat="43.9472517" lon="12.8019533"><ele>41.0</ele><time>2026-05-01T10:44:56.752Z</time></trkpt><trkpt lat="43.9472483" lon="12.8022317"><ele>41.33333333333333</ele><time>2026-05-01T10:44:57.752Z</time></trkpt><trkpt lat="43.9472517" lon="12.80251"><ele>41.666666666666664</ele><time>2026-05-01T10:44:58.753Z</time></trkpt><trkpt lat="43.9472617" lon="12.80279"><ele>42.0</ele><time>2026-05-01T10:44:59.757Z</time></trkpt><trkpt lat="43.94727" lon="12.8030717"><ele>42.666666666666664</ele><time>2026-05-01T10:45:00.745Z</time></trkpt><trkpt lat="43.9472833" lon="12.803355"><ele>43.33333333333333</ele><time>2026-05-01T10:45:01.754Z</time></trkpt><trkpt lat="43.947295" lon="12.8036367"><ele>44.0</ele><time>2026-05-01T10:45:02.742Z</time></trkpt><trkpt lat="43.9473117" lon="12.80392"><ele>44.33333333333333</ele><time>2026-05-01T10:45:03.746Z</time></trkpt><trkpt lat="43.9473317" lon="12.8042033"><ele>44.666666666666664</ele><time>2026-05-01T10:45:04.75Z</time></trkpt><trkpt lat="43.947355" lon="12.804485"><ele>45.0</ele><time>2026-05-01T10:45:05.751Z</time></trkpt><trkpt lat="43.9473883" lon="12.8047667"><ele>46.33333333333333</ele><time>2026-05-01T10:45:06.753Z</time></trkpt><trkpt lat="43.9474283" lon="12.8050483"><ele>47.666666666666664</ele><time>2026-05-01T10:45:07.764Z</time></trkpt><trkpt lat="43.9474717" lon="12.8053283"><ele>49.0</ele><time>2026-05-01T10:45:08.75Z</time></trkpt><trkpt lat="43.94752" lon="12.80561"><ele>53.0</ele><time>2026-05-01T10:45:09.745Z</time></trkpt><trkpt lat="43.94757" lon="12.8058917"><ele>57.0</ele><time>2026-05-01T10:45:10.75Z</time></trkpt><trkpt lat="43.9476217" lon="12.806175"><ele>61.0</ele><time>2026-05-01T10:45:11.745Z</time></trkpt><trkpt lat="43.947675" lon="12.806455"><ele>61.0</ele><time>2026-05-01T10:45:12.752Z</time></trkpt><trkpt lat="43.947725" lon="12.8067333"><ele>61.0</ele><time>2026-05-01T10:45:13.747Z</time></trkpt><trkpt lat="43.9477783" lon="12.807015"><ele>61.0</ele><time>2026-05-01T10:45:14.752Z</time></trkpt><trkpt lat="43.94783" lon="12.8072983"><ele>61.0</ele><time>2026-05-01T10:45:15.748Z</time></trkpt><trkpt lat="43.94788" lon="12.8075767"><ele>61.0</ele><time>2026-05-01T10:45:16.748Z</time></trkpt><trkpt lat="43.94793" lon="12.8078533"><ele>61.0</ele><time>2026-05-01T10:45:17.752Z</time></trkpt><trkpt lat="43.94798" lon="12.8081267"><ele>61.33333333333333</ele><time>2026-05-01T10:45:18.752Z</time></trkpt><trkpt lat="43.9480283" lon="12.8084"><ele>61.66666666666667</ele><time>2026-05-01T10:45:19.745Z</time></trkpt><trkpt lat="43.9480783" lon="12.8086717"><ele>62.0</ele><time>2026-05-01T10:45:20.755Z</time></trkpt><trkpt lat="43.9481283" lon="12.8089417"><ele>63.0</ele><time>2026-05-01T10:45:21.758Z</time></trkpt><trkpt lat="43.94817" lon="12.8092117"><ele>64.0</ele><time>2026-05-01T10:45:22.754Z</time></trkpt><trkpt lat="43.9482083" lon="12.8094783"><ele>65.0</ele><time>2026-05-01T10:45:23.753Z</time></trkpt><trkpt lat="43.9482383" lon="12.809745"><ele>66.66666666666667</ele><time>2026-05-01T10:45:24.756Z</time></trkpt><trkpt lat="43.9482583" lon="12.8100133"><ele>68.33333333333333</ele><time>2026-05-01T10:45:25.751Z</time></trkpt><trkpt lat="43.9482633" lon="12.810285"><ele>70.0</ele><time>2026-05-01T10:45:26.743Z</time></trkpt><trkpt lat="43.9482567" lon="12.81056"><ele>70.66666666666666</ele><time>2026-05-01T10:45:27.748Z</time></trkpt><trkpt lat="43.9482383" lon="12.810835"><ele>71.33333333333333</ele><time>2026-05-01T10:45:28.75Z</time></trkpt><trkpt lat="43.948205" lon="12.81111"><ele>72.0</ele><time>2026-05-01T10:45:29.75Z</time></trkpt><trkpt lat="43.948165" lon="12.811385"><ele>72.0</ele><time>2026-05-01T10:45:30.751Z</time></trkpt><trkpt lat="43.9481067" lon="12.8116583"><ele>72.0</ele><time>2026-05-01T10:45:31.751Z</time></trkpt><trkpt lat="43.948035" lon="12.81193"><ele>72.0</ele><time>2026-05-01T10:45:32.752Z</time></trkpt><trkpt lat="43.9479576" lon="12.8121988"><ele>71.0</ele><time>2026-05-01T10:45:33.75Z</time></trkpt><trkpt lat="43.9478755" lon="12.8124679"><ele>70.0</ele><time>2026-05-01T10:45:34.75Z</time></trkpt><trkpt lat="43.9477906" lon="12.8127389"><ele>69.0</ele><time>2026-05-01T10:45:35.757Z</time></trkpt><trkpt lat="43.9477027" lon="12.8130111"><ele>69.0</ele><time>2026-05-01T10:45:36.755Z</time></trkpt><trkpt lat="43.9476185" lon="12.8132833"><ele>69.0</ele><time>2026-05-01T10:45:37.752Z</time></trkpt><trkpt lat="43.9475329" lon="12.8135508"><ele>69.0</ele><time>2026-05-01T10:45:38.749Z</time></trkpt><trkpt lat="43.9474462" lon="12.8138117"><ele>74.33333333333333</ele><time>2026-05-01T10:45:39.75Z</time></trkpt><trkpt lat="43.9473623" lon="12.8140706"><ele>79.66666666666666</ele><time>2026-05-01T10:45:40.744Z</time></trkpt><trkpt lat="43.9472805" lon="12.8143308"><ele>85.0</ele><time>2026-05-01T10:45:41.746Z</time></trkpt><trkpt lat="43.9471988" lon="12.8145886"><ele>89.0</ele><time>2026-05-01T10:45:42.762Z</time></trkpt><trkpt lat="43.9471175" lon="12.8148396"><ele>93.0</ele><time>2026-05-01T10:45:43.744Z</time></trkpt><trkpt lat="43.9470375" lon="12.8150892"><ele>97.0</ele><time>2026-05-01T10:45:44.761Z</time></trkpt><trkpt lat="43.9469596" lon="12.8153303"><ele>100.66666666666667</ele><time>2026-05-01T10:45:45.757Z</time></trkpt><trkpt lat="43.946883" lon="12.8155708"><ele>104.33333333333334</ele><time>2026-05-01T10:45:46.75Z</time></trkpt><trkpt lat="43.9468072" lon="12.8158072"><ele>108.0</ele><time>2026-05-01T10:45:47.751Z</time></trkpt><trkpt lat="43.9467317" lon="12.81604"><ele>105.0</ele><time>2026-05-01T10:45:48.75Z</time></trkpt><trkpt lat="43.9466569" lon="12.8162707"><ele>102.0</ele><time>2026-05-01T10:45:49.745Z</time></trkpt><trkpt lat="43.9465819" lon="12.8165011"><ele>99.0</ele><time>2026-05-01T10:45:50.745Z</time></trkpt><trkpt lat="43.9465043" lon="12.8167318"><ele>102.0</ele><time>2026-05-01T10:45:51.752Z</time></trkpt><trkpt lat="43.9464287" lon="12.8169603"><ele>105.0</ele><time>2026-05-01T10:45:52.753Z</time></trkpt><trkpt lat="43.9463537" lon="12.8171893"><ele>108.0</ele><time>2026-05-01T10:45:53.751Z</time></trkpt><trkpt lat="43.9462785" lon="12.8174179"><ele>108.0</ele><time>2026-05-01T10:45:54.75Z</time></trkpt><trkpt lat="43.9461968" lon="12.8176445"><ele>108.0</ele><time>2026-05-01T10:45:55.746Z</time></trkpt><trkpt lat="43.9461038" lon="12.8178642"><ele>108.0</ele><time>2026-05-01T10:45:56.744Z</time></trkpt><trkpt lat="43.945996" lon="12.818078"><ele>108.0</ele><time>2026-05-01T10:45:57.751Z</time></trkpt><trkpt lat="43.9458756" lon="12.8182837"><ele>108.0</ele><time>2026-05-01T10:45:58.749Z</time></trkpt><trkpt lat="43.9457436" lon="12.8184797"><ele>108.0</ele><time>2026-05-01T10:45:59.748Z</time></trkpt><trkpt lat="43.9456037" lon="12.8186701"><ele>108.0</ele><time>2026-05-01T10:46:00.75Z</time></trkpt><trkpt lat="43.9454583" lon="12.8188538"><ele>108.0</ele><time>2026-05-01T10:46:01.742Z</time></trkpt><trkpt lat="43.9453114" lon="12.819039"><ele>108.0</ele><time>2026-05-01T10:46:02.752Z</time></trkpt><trkpt lat="43.9451715" lon="12.8192317"><ele>109.66666666666666</ele><time>2026-05-01T10:46:03.75Z</time></trkpt><trkpt lat="43.945039" lon="12.8194372"><ele>111.33333333333333</ele><time>2026-05-01T10:46:04.747Z</time></trkpt><trkpt lat="43.9449176" lon="12.8196593"><ele>113.0</ele><time>2026-05-01T10:46:05.749Z</time></trkpt><trkpt lat="43.9448087" lon="12.8198927"><ele>113.0</ele><time>2026-05-01T10:46:06.754Z</time></trkpt><trkpt lat="43.9447107" lon="12.820135"><ele>113.0</ele><time>2026-05-01T10:46:07.752Z</time></trkpt><trkpt lat="43.9446099" lon="12.8203754"><ele>113.0</ele><time>2026-05-01T10:46:08.753Z</time></trkpt><trkpt lat="43.9445003" lon="12.8206008"><ele>116.0</ele><time>2026-05-01T10:46:09.755Z</time></trkpt><trkpt lat="43.9443792" lon="12.8208043"><ele>119.0</ele><time>2026-05-01T10:46:10.752Z</time></trkpt><trkpt lat="43.9442464" lon="12.8209859"><ele>122.0</ele><time>2026-05-01T10:46:11.751Z</time></trkpt><trkpt lat="43.9441124" lon="12.8211424"><ele>122.0</ele><time>2026-05-01T10:46:12.743Z</time></trkpt><trkpt lat="43.9439803" lon="12.8212779"><ele>122.0</ele><time>2026-05-01T10:46:13.753Z</time></trkpt><trkpt lat="43.9438593" lon="12.8214013"><ele>122.0</ele><time>2026-05-01T10:46:14.742Z</time></trkpt><trkpt lat="43.9437467" lon="12.8215163"><ele>122.0</ele><time>2026-05-01T10:46:15.749Z</time></trkpt><trkpt lat="43.9436443" lon="12.8216207"><ele>122.0</ele><time>2026-05-01T10:46:16.753Z</time></trkpt><trkpt lat="43.9435516" lon="12.8217163"><ele>122.0</ele><time>2026-05-01T10:46:17.742Z</time></trkpt><trkpt lat="43.9434653" lon="12.8218122"><ele>122.0</ele><time>2026-05-01T10:46:18.751Z</time></trkpt><trkpt lat="43.9433817" lon="12.821914"><ele>122.25</ele><time>2026-05-01T10:46:19.747Z</time></trkpt><trkpt lat="43.9432941" lon="12.8220265"><ele>122.5</ele><time>2026-05-01T10:46:20.752Z</time></trkpt><trkpt lat="43.9432074" lon="12.8221555"><ele>122.75</ele><time>2026-05-01T10:46:21.744Z</time></trkpt><trkpt lat="43.9431243" lon="12.8223"><ele>123.0</ele><time>2026-05-01T10:46:22.751Z</time></trkpt><trkpt lat="43.9430517" lon="12.8224512"><ele>123.0</ele><time>2026-05-01T10:46:23.752Z</time></trkpt><trkpt lat="43.9429885" lon="12.8226123"><ele>123.0</ele><time>2026-05-01T10:46:24.752Z</time></trkpt><trkpt lat="43.942939" lon="12.8227852"><ele>123.0</ele><time>2026-05-01T10:46:25.744Z</time></trkpt><trkpt lat="43.9429023" lon="12.8229726"><ele>123.0</ele><time>2026-05-01T10:46:26.759Z</time></trkpt><trkpt lat="43.9428808" lon="12.8231735"><ele>123.0</ele><time>2026-05-01T10:46:27.744Z</time></trkpt><trkpt lat="43.9428769" lon="12.8233822"><ele>123.0</ele><time>2026-05-01T10:46:28.749Z</time></trkpt><trkpt lat="43.9428866" lon="12.8235806"><ele>123.0</ele><time>2026-05-01T10:46:29.751Z</time></trkpt><trkpt lat="43.9429121" lon="12.8237648"><ele>123.0</ele><time>2026-05-01T10:46:30.742Z</time></trkpt><trkpt lat="43.9429495" lon="12.8239323"><ele>121.60000000000001</ele><time>2026-05-01T10:46:31.749Z</time></trkpt><trkpt lat="43.9430002" lon="12.8240794"><ele>120.20000000000002</ele><time>2026-05-01T10:46:32.75Z</time></trkpt><trkpt lat="43.9430622" lon="12.8242107"><ele>118.8</ele><time>2026-05-01T10:46:33.747Z</time></trkpt><trkpt lat="43.943128" lon="12.8243303"><ele>117.4</ele><time>2026-05-01T10:46:34.752Z</time></trkpt><trkpt lat="43.943191" lon="12.8244362"><ele>116.0</ele><time>2026-05-01T10:46:35.753Z</time></trkpt><trkpt lat="43.9432455" lon="12.824525"><ele>116.4</ele><time>2026-05-01T10:46:36.754Z</time></trkpt><trkpt lat="43.9432893" lon="12.8246017"><ele>116.8</ele><time>2026-05-01T10:46:37.743Z</time></trkpt><trkpt lat="43.9433547" lon="12.8247363"><ele>117.20000000000002</ele><time>2026-05-01T10:46:39.753Z</time></trkpt><trkpt lat="43.9433818" lon="12.8248816"><ele>117.60000000000001</ele><time>2026-05-01T10:46:41.755Z</time></trkpt><trkpt lat="43.9433958" lon="12.8250242"><ele>118.0</ele><time>2026-05-01T10:46:43.749Z</time></trkpt><trkpt lat="43.9434551" lon="12.8251379"><ele>117.2</ele><time>2026-05-01T10:46:45.75Z</time></trkpt><trkpt lat="43.9435728" lon="12.8252149"><ele>116.4</ele><time>2026-05-01T10:46:47.75Z</time></trkpt><trkpt lat="43.943637" lon="12.8252604"><ele>115.60000000000001</ele><time>2026-05-01T10:46:48.749Z</time></trkpt><trkpt lat="43.9436974" lon="12.8253292"><ele>114.80000000000001</ele><time>2026-05-01T10:46:49.747Z</time></trkpt><trkpt lat="43.9437525" lon="12.825423"><ele>114.0</ele><time>2026-05-01T10:46:50.758Z</time></trkpt><trkpt lat="43.943796" lon="12.8255491"><ele>114.0</ele><time>2026-05-01T10:46:51.754Z</time></trkpt><trkpt lat="43.9438244" lon="12.8256968"><ele>114.0</ele><time>2026-05-01T10:46:52.742Z</time></trkpt><trkpt lat="43.9438388" lon="12.8258649"><ele>114.0</ele><time>2026-05-01T10:46:53.747Z</time></trkpt><trkpt lat="43.9438392" lon="12.8260413"><ele>114.0</ele><time>2026-05-01T10:46:54.75Z</time></trkpt><trkpt lat="43.9438244" lon="12.8262216"><ele>113.25</ele><time>2026-05-01T10:46:55.748Z</time></trkpt><trkpt lat="43.9437849" lon="12.826406"><ele>112.5</ele><time>2026-05-01T10:46:56.753Z</time></trkpt><trkpt lat="43.9437264" lon="12.8265837"><ele>111.75</ele><time>2026-05-01T10:46:57.749Z</time></trkpt><trkpt lat="43.9436485" lon="12.8267487"><ele>111.0</ele><time>2026-05-01T10:46:58.748Z</time></trkpt><trkpt lat="43.9435532" lon="12.8269005"><ele>109.33333333333334</ele><time>2026-05-01T10:46:59.75Z</time></trkpt><trkpt lat="43.9434458" lon="12.8270468"><ele>107.66666666666667</ele><time>2026-05-01T10:47:00.752Z</time></trkpt><trkpt lat="43.9433316" lon="12.8271929"><ele>106.0</ele><time>2026-05-01T10:47:01.743Z</time></trkpt><trkpt lat="43.9432017" lon="12.827345"><ele>106.0</ele><time>2026-05-01T10:47:02.752Z</time></trkpt><trkpt lat="43.94307" lon="12.8275067"><ele>106.0</ele><time>2026-05-01T10:47:03.753Z</time></trkpt><trkpt lat="43.9429317" lon="12.827675"><ele>106.0</ele><time>2026-05-01T10:47:04.748Z</time></trkpt><trkpt lat="43.9427917" lon="12.82785"><ele>108.33333333333334</ele><time>2026-05-01T10:47:05.753Z</time></trkpt><trkpt lat="43.9426533" lon="12.828035"><ele>110.66666666666666</ele><time>2026-05-01T10:47:06.75Z</time></trkpt><trkpt lat="43.9425233" lon="12.8282417"><ele>113.0</ele><time>2026-05-01T10:47:07.75Z</time></trkpt><trkpt lat="43.9423967" lon="12.8284583"><ele>109.0</ele><time>2026-05-01T10:47:08.755Z</time></trkpt><trkpt lat="43.9422783" lon="12.82868"><ele>105.0</ele><time>2026-05-01T10:47:09.742Z</time></trkpt><trkpt lat="43.9421667" lon="12.8289083"><ele>101.0</ele><time>2026-05-01T10:47:10.752Z</time></trkpt><trkpt lat="43.9420583" lon="12.8291383"><ele>101.0</ele><time>2026-05-01T10:47:11.749Z</time></trkpt><trkpt lat="43.9419517" lon="12.8293667"><ele>101.0</ele><time>2026-05-01T10:47:12.745Z</time></trkpt><trkpt lat="43.9418383" lon="12.829585"><ele>101.0</ele><time>2026-05-01T10:47:13.75Z</time></trkpt><trkpt lat="43.94171" lon="12.8297967"><ele>99.0</ele><time>2026-05-01T10:47:14.752Z</time></trkpt><trkpt lat="43.941565" lon="12.829995"><ele>97.0</ele><time>2026-05-01T10:47:15.743Z</time></trkpt><trkpt lat="43.941405" lon="12.83019"><ele>95.0</ele><time>2026-05-01T10:47:16.75Z</time></trkpt><trkpt lat="43.94124" lon="12.8303867"><ele>95.0</ele><time>2026-05-01T10:47:17.75Z</time></trkpt><trkpt lat="43.94107" lon="12.8305883"><ele>95.0</ele><time>2026-05-01T10:47:18.745Z</time></trkpt><trkpt lat="43.940895" lon="12.8307983"><ele>92.0</ele><time>2026-05-01T10:47:19.742Z</time></trkpt><trkpt lat="43.9407183" lon="12.831015"><ele>89.0</ele><time>2026-05-01T10:47:20.744Z</time></trkpt><trkpt lat="43.9405383" lon="12.83124"><ele>89.0</ele><time>2026-05-01T10:47:21.759Z</time></trkpt><trkpt lat="43.940355" lon="12.8314633"><ele>89.0</ele><time>2026-05-01T10:47:22.755Z</time></trkpt><trkpt lat="43.9401683" lon="12.8316883"><ele>85.5</ele><time>2026-05-01T10:47:23.754Z</time></trkpt><trkpt lat="43.9399767" lon="12.83192"><ele>82.0</ele><time>2026-05-01T10:47:24.754Z</time></trkpt><trkpt lat="43.9397867" lon="12.83215"><ele>82.0</ele><time>2026-05-01T10:47:25.752Z</time></trkpt><trkpt lat="43.9395967" lon="12.8323833"><ele>82.0</ele><time>2026-05-01T10:47:26.749Z</time></trkpt><trkpt lat="43.939405" lon="12.8326183"><ele>76.0</ele><time>2026-05-01T10:47:27.753Z</time></trkpt><trkpt lat="43.9392133" lon="12.8328483"><ele>70.0</ele><time>2026-05-01T10:47:28.752Z</time></trkpt><trkpt lat="43.93902" lon="12.833075"><ele>70.0</ele><time>2026-05-01T10:47:29.751Z</time></trkpt><trkpt lat="43.9388233" lon="12.8333033"><ele>70.0</ele><time>2026-05-01T10:47:30.752Z</time></trkpt><trkpt lat="43.93863" lon="12.8335267"><ele>69.5</ele><time>2026-05-01T10:47:31.749Z</time></trkpt><trkpt lat="43.938435" lon="12.8337467"><ele>69.0</ele><time>2026-05-01T10:47:32.75Z</time></trkpt><trkpt lat="43.9382433" lon="12.8339667"><ele>66.0</ele><time>2026-05-01T10:47:33.747Z</time></trkpt><trkpt lat="43.9380517" lon="12.8341867"><ele>63.0</ele><time>2026-05-01T10:47:34.75Z</time></trkpt><trkpt lat="43.9378617" lon="12.8344067"><ele>63.0</ele><time>2026-05-01T10:47:35.752Z</time></trkpt><trkpt lat="43.9376683" lon="12.8346283"><ele>63.0</ele><time>2026-05-01T10:47:36.744Z</time></trkpt><trkpt lat="43.93748" lon="12.8348483"><ele>62.5</ele><time>2026-05-01T10:47:37.758Z</time></trkpt><trkpt lat="43.937295" lon="12.835065"><ele>62.0</ele><time>2026-05-01T10:47:38.755Z</time></trkpt><trkpt lat="43.9371117" lon="12.8352783"><ele>65.5</ele><time>2026-05-01T10:47:39.748Z</time></trkpt><trkpt lat="43.9369317" lon="12.8354883"><ele>69.0</ele><time>2026-05-01T10:47:40.744Z</time></trkpt><trkpt lat="43.9367583" lon="12.8356933"><ele>68.33333333333333</ele><time>2026-05-01T10:47:41.751Z</time></trkpt><trkpt lat="43.936595" lon="12.8359017"><ele>67.66666666666666</ele><time>2026-05-01T10:47:42.75Z</time></trkpt><trkpt lat="43.93644" lon="12.8361183"><ele>67.0</ele><time>2026-05-01T10:47:43.75Z</time></trkpt><trkpt lat="43.9362967" lon="12.8363483"><ele>67.0</ele><time>2026-05-01T10:47:44.753Z</time></trkpt><trkpt lat="43.936165" lon="12.8365917"><ele>67.0</ele><time>2026-05-01T10:47:45.758Z</time></trkpt><trkpt lat="43.9360467" lon="12.8368483"><ele>67.0</ele><time>2026-05-01T10:47:46.749Z</time></trkpt><trkpt lat="43.9359367" lon="12.8371183"><ele>62.0</ele><time>2026-05-01T10:47:47.752Z</time></trkpt><trkpt lat="43.9358367" lon="12.8374033"><ele>57.0</ele><time>2026-05-01T10:47:48.751Z</time></trkpt><trkpt lat="43.9357517" lon="12.8377"><ele>57.0</ele><time>2026-05-01T10:47:49.75Z</time></trkpt><trkpt lat="43.9356733" lon="12.8380033"><ele>57.0</ele><time>2026-05-01T10:47:50.753Z</time></trkpt><trkpt lat="43.9356017" lon="12.8383167"><ele>55.0</ele><time>2026-05-01T10:47:51.745Z</time></trkpt><trkpt lat="43.935535" lon="12.8386333"><ele>53.0</ele><time>2026-05-01T10:47:52.742Z</time></trkpt><trkpt lat="43.9354667" lon="12.83895"><ele>53.0</ele><time>2026-05-01T10:47:53.744Z</time></trkpt><trkpt lat="43.9353983" lon="12.8392667"><ele>53.0</ele><time>2026-05-01T10:47:54.75Z</time></trkpt><trkpt lat="43.9353267" lon="12.83958"><ele>54.0</ele><time>2026-05-01T10:47:55.749Z</time></trkpt><trkpt lat="43.935255" lon="12.839895"><ele>55.0</ele><time>2026-05-01T10:47:56.744Z</time></trkpt><trkpt lat="43.9351733" lon="12.8402117"><ele>57.5</ele><time>2026-05-01T10:47:57.752Z</time></trkpt><trkpt lat="43.93508" lon="12.8405217"><ele>60.0</ele><time>2026-05-01T10:47:58.749Z</time></trkpt><trkpt lat="43.93498" lon="12.84083"><ele>53.5</ele><time>2026-05-01T10:47:59.754Z</time></trkpt><trkpt lat="43.9348783" lon="12.8411367"><ele>47.0</ele><time>2026-05-01T10:48:00.754Z</time></trkpt><trkpt lat="43.9347733" lon="12.8414367"><ele>47.0</ele><time>2026-05-01T10:48:01.752Z</time></trkpt><trkpt lat="43.934665" lon="12.8417267"><ele>47.0</ele><time>2026-05-01T10:48:02.752Z</time></trkpt><trkpt lat="43.9345533" lon="12.84201"><ele>45.5</ele><time>2026-05-01T10:48:03.752Z</time></trkpt><trkpt lat="43.9344333" lon="12.8422867"><ele>44.0</ele><time>2026-05-01T10:48:04.752Z</time></trkpt><trkpt lat="43.9343033" lon="12.8425467"><ele>43.5</ele><time>2026-05-01T10:48:05.751Z</time></trkpt><trkpt lat="43.93416" lon="12.842795"><ele>43.0</ele><time>2026-05-01T10:48:06.752Z</time></trkpt><trkpt lat="43.9340033" lon="12.843035"><ele>43.0</ele><time>2026-05-01T10:48:07.756Z</time></trkpt><trkpt lat="43.93384" lon="12.84327"><ele>43.0</ele><time>2026-05-01T10:48:08.751Z</time></trkpt><trkpt lat="43.9336733" lon="12.8435033"><ele>42.5</ele><time>2026-05-01T10:48:09.751Z</time></trkpt><trkpt lat="43.9335067" lon="12.843735"><ele>42.0</ele><time>2026-05-01T10:48:10.75Z</time></trkpt><trkpt lat="43.9333433" lon="12.8439683"><ele>42.0</ele><time>2026-05-01T10:48:11.744Z</time></trkpt><trkpt lat="43.9331833" lon="12.8442067"><ele>42.0</ele><time>2026-05-01T10:48:12.754Z</time></trkpt><trkpt lat="43.93303" lon="12.84445"><ele>45.0</ele><time>2026-05-01T10:48:13.751Z</time></trkpt><trkpt lat="43.9328833" lon="12.8446983"><ele>48.0</ele><time>2026-05-01T10:48:14.753Z</time></trkpt><trkpt lat="43.932745" lon="12.8449583"><ele>46.0</ele><time>2026-05-01T10:48:15.749Z</time></trkpt><trkpt lat="43.93261" lon="12.8452167"><ele>44.0</ele><time>2026-05-01T10:48:16.747Z</time></trkpt><trkpt lat="43.9324783" lon="12.84547"><ele>42.666666666666664</ele><time>2026-05-01T10:48:17.751Z</time></trkpt><trkpt lat="43.93235" lon="12.8457233"><ele>41.333333333333336</ele><time>2026-05-01T10:48:18.751Z</time></trkpt><trkpt lat="43.932225" lon="12.8459633"><ele>40.0</ele><time>2026-05-01T10:48:19.753Z</time></trkpt><trkpt lat="43.9321033" lon="12.8461983"><ele>40.0</ele><time>2026-05-01T10:48:20.753Z</time></trkpt><trkpt lat="43.9319833" lon="12.84642"><ele>40.0</ele><time>2026-05-01T10:48:21.748Z</time></trkpt><trkpt lat="43.9318633" lon="12.8466333"><ele>40.0</ele><time>2026-05-01T10:48:22.749Z</time></trkpt><trkpt lat="43.9317433" lon="12.8468367"><ele>40.0</ele><time>2026-05-01T10:48:23.744Z</time></trkpt><trkpt lat="43.9316217" lon="12.847035"><ele>40.0</ele><time>2026-05-01T10:48:24.75Z</time></trkpt><trkpt lat="43.9314983" lon="12.8472267"><ele>40.0</ele><time>2026-05-01T10:48:25.752Z</time></trkpt><trkpt lat="43.9313717" lon="12.8474183"><ele>40.0</ele><time>2026-05-01T10:48:26.755Z</time></trkpt><trkpt lat="43.9312433" lon="12.8476067"><ele>40.0</ele><time>2026-05-01T10:48:27.744Z</time></trkpt><trkpt lat="43.9311083" lon="12.8477933"><ele>40.0</ele><time>2026-05-01T10:48:28.754Z</time></trkpt><trkpt lat="43.9309683" lon="12.84798"><ele>40.66666666666667</ele><time>2026-05-01T10:48:29.753Z</time></trkpt><trkpt lat="43.93083" lon="12.8481667"><ele>41.333333333333336</ele><time>2026-05-01T10:48:30.75Z</time></trkpt><trkpt lat="43.9306867" lon="12.8483483"><ele>42.0</ele><time>2026-05-01T10:48:31.75Z</time></trkpt><trkpt lat="43.9305433" lon="12.8485233"><ele>42.0</ele><time>2026-05-01T10:48:32.753Z</time></trkpt><trkpt lat="43.930395" lon="12.8487067"><ele>42.0</ele><time>2026-05-01T10:48:33.745Z</time></trkpt><trkpt lat="43.93024" lon="12.84889"><ele>42.0</ele><time>2026-05-01T10:48:34.748Z</time></trkpt><trkpt lat="43.9300833" lon="12.8490733"><ele>40.666666666666664</ele><time>2026-05-01T10:48:35.744Z</time></trkpt><trkpt lat="43.9299283" lon="12.849255"><ele>39.33333333333333</ele><time>2026-05-01T10:48:36.757Z</time></trkpt><trkpt lat="43.9297817" lon="12.8494317"><ele>38.0</ele><time>2026-05-01T10:48:37.752Z</time></trkpt><trkpt lat="43.92964" lon="12.8496017"><ele>38.0</ele><time>2026-05-01T10:48:38.753Z</time></trkpt><trkpt lat="43.9295" lon="12.84977"><ele>38.0</ele><time>2026-05-01T10:48:39.749Z</time></trkpt><trkpt lat="43.929365" lon="12.849945"><ele>38.0</ele><time>2026-05-01T10:48:40.743Z</time></trkpt><trkpt lat="43.9292233" lon="12.8501217"><ele>37.0</ele><time>2026-05-01T10:48:41.742Z</time></trkpt><trkpt lat="43.92908" lon="12.8503"><ele>36.0</ele><time>2026-05-01T10:48:42.754Z</time></trkpt><trkpt lat="43.928935" lon="12.8504783"><ele>35.0</ele><time>2026-05-01T10:48:43.75Z</time></trkpt><trkpt lat="43.9287917" lon="12.8506533"><ele>35.0</ele><time>2026-05-01T10:48:44.75Z</time></trkpt><trkpt lat="43.92865" lon="12.850825"><ele>35.0</ele><time>2026-05-01T10:48:45.748Z</time></trkpt><trkpt lat="43.9285083" lon="12.8509983"><ele>35.0</ele><time>2026-05-01T10:48:46.743Z</time></trkpt><trkpt lat="43.9283633" lon="12.8511733"><ele>35.33333333333333</ele><time>2026-05-01T10:48:47.752Z</time></trkpt><trkpt lat="43.9282167" lon="12.8513517"><ele>35.666666666666664</ele><time>2026-05-01T10:48:48.756Z</time></trkpt><trkpt lat="43.9280683" lon="12.8515367"><ele>36.0</ele><time>2026-05-01T10:48:49.75Z</time></trkpt><trkpt lat="43.9279167" lon="12.8517217"><ele>37.0</ele><time>2026-05-01T10:48:50.754Z</time></trkpt><trkpt lat="43.9275983" lon="12.8520767"><ele>38.0</ele><time>2026-05-01T10:48:52.747Z</time></trkpt><trkpt lat="43.927435" lon="12.8522467"><ele>36.666666666666664</ele><time>2026-05-01T10:48:53.748Z</time></trkpt><trkpt lat="43.9272667" lon="12.8524083"><ele>35.333333333333336</ele><time>2026-05-01T10:48:54.746Z</time></trkpt><trkpt lat="43.9270983" lon="12.85257"><ele>34.0</ele><time>2026-05-01T10:48:55.75Z</time></trkpt><trkpt lat="43.9269283" lon="12.8527367"><ele>34.0</ele><time>2026-05-01T10:48:56.761Z</time></trkpt><trkpt lat="43.9267567" lon="12.8529017"><ele>34.0</ele><time>2026-05-01T10:48:57.758Z</time></trkpt><trkpt lat="43.9265833" lon="12.8530667"><ele>34.0</ele><time>2026-05-01T10:48:58.754Z</time></trkpt><trkpt lat="43.9264067" lon="12.8532317"><ele>34.0</ele><time>2026-05-01T10:48:59.757Z</time></trkpt><trkpt lat="43.9262283" lon="12.8533967"><ele>34.0</ele><time>2026-05-01T10:49:00.754Z</time></trkpt><trkpt lat="43.9260467" lon="12.85356"><ele>34.0</ele><time>2026-05-01T10:49:01.752Z</time></trkpt><trkpt lat="43.9258633" lon="12.8537233"><ele>34.0</ele><time>2026-05-01T10:49:02.745Z</time></trkpt><trkpt lat="43.92568" lon="12.8538867"><ele>34.0</ele><time>2026-05-01T10:49:03.75Z</time></trkpt><trkpt lat="43.925495" lon="12.85405"><ele>34.0</ele><time>2026-05-01T10:49:04.75Z</time></trkpt><trkpt lat="43.9253067" lon="12.8542117"><ele>34.333333333333336</ele><time>2026-05-01T10:49:05.747Z</time></trkpt><trkpt lat="43.92512" lon="12.8543733"><ele>34.666666666666664</ele><time>2026-05-01T10:49:06.75Z</time></trkpt><trkpt lat="43.924935" lon="12.854535"><ele>35.0</ele><time>2026-05-01T10:49:07.752Z</time></trkpt><trkpt lat="43.9247517" lon="12.854695"><ele>34.666666666666664</ele><time>2026-05-01T10:49:08.75Z</time></trkpt><trkpt lat="43.9245717" lon="12.854855"><ele>34.333333333333336</ele><time>2026-05-01T10:49:09.749Z</time></trkpt><trkpt lat="43.9243917" lon="12.8550133"><ele>34.0</ele><time>2026-05-01T10:49:10.753Z</time></trkpt><trkpt lat="43.9242133" lon="12.8551717"><ele>34.0</ele><time>2026-05-01T10:49:11.751Z</time></trkpt><trkpt lat="43.9240333" lon="12.855335"><ele>34.0</ele><time>2026-05-01T10:49:12.751Z</time></trkpt><trkpt lat="43.9238567" lon="12.855495"><ele>34.0</ele><time>2026-05-01T10:49:13.751Z</time></trkpt><trkpt lat="43.9236817" lon="12.8556617"><ele>34.0</ele><time>2026-05-01T10:49:14.751Z</time></trkpt><trkpt lat="43.9235067" lon="12.8558283"><ele>34.0</ele><time>2026-05-01T10:49:15.754Z</time></trkpt><trkpt lat="43.9233283" lon="12.8559933"><ele>34.0</ele><time>2026-05-01T10:49:16.747Z</time></trkpt><trkpt lat="43.9231483" lon="12.8561583"><ele>33.333333333333336</ele><time>2026-05-01T10:49:17.751Z</time></trkpt><trkpt lat="43.9229667" lon="12.8563267"><ele>32.666666666666664</ele><time>2026-05-01T10:49:18.752Z</time></trkpt><trkpt lat="43.9227883" lon="12.856495"><ele>32.0</ele><time>2026-05-01T10:49:19.751Z</time></trkpt><trkpt lat="43.92261" lon="12.85666"><ele>32.0</ele><time>2026-05-01T10:49:20.747Z</time></trkpt><trkpt lat="43.9224333" lon="12.856825"><ele>32.0</ele><time>2026-05-01T10:49:21.755Z</time></trkpt><trkpt lat="43.9222583" lon="12.8569883"><ele>32.0</ele><time>2026-05-01T10:49:22.757Z</time></trkpt><trkpt lat="43.92209" lon="12.85715"><ele>32.0</ele><time>2026-05-01T10:49:23.76Z</time></trkpt><trkpt lat="43.9219183" lon="12.8573117"><ele>32.0</ele><time>2026-05-01T10:49:24.758Z</time></trkpt><trkpt lat="43.9217483" lon="12.85747"><ele>32.0</ele><time>2026-05-01T10:49:25.744Z</time></trkpt><trkpt lat="43.92158" lon="12.8576283"><ele>34.0</ele><time>2026-05-01T10:49:26.754Z</time></trkpt><trkpt lat="43.9214133" lon="12.857785"><ele>36.0</ele><time>2026-05-01T10:49:27.756Z</time></trkpt><trkpt lat="43.92125" lon="12.85794"><ele>38.0</ele><time>2026-05-01T10:49:28.761Z</time></trkpt><trkpt lat="43.9210867" lon="12.8580967"><ele>38.0</ele><time>2026-05-01T10:49:29.742Z</time></trkpt><trkpt lat="43.920925" lon="12.8582483"><ele>38.0</ele><time>2026-05-01T10:49:30.749Z</time></trkpt><trkpt lat="43.9207667" lon="12.8583983"><ele>38.0</ele><time>2026-05-01T10:49:31.743Z</time></trkpt><trkpt lat="43.9206083" lon="12.8585467"><ele>38.0</ele><time>2026-05-01T10:49:32.752Z</time></trkpt><trkpt lat="43.9204517" lon="12.8586917"><ele>38.0</ele><time>2026-05-01T10:49:33.75Z</time></trkpt><trkpt lat="43.9202967" lon="12.85884"><ele>38.0</ele><time>2026-05-01T10:49:34.75Z</time></trkpt><trkpt lat="43.9201467" lon="12.858985"><ele>38.0</ele><time>2026-05-01T10:49:35.75Z</time></trkpt><trkpt lat="43.9199983" lon="12.8591267"><ele>38.0</ele><time>2026-05-01T10:49:36.754Z</time></trkpt><trkpt lat="43.919855" lon="12.8592683"><ele>38.0</ele><time>2026-05-01T10:49:37.745Z</time></trkpt><trkpt lat="43.9197183" lon="12.8594067"><ele>38.0</ele><time>2026-05-01T10:49:38.758Z</time></trkpt><trkpt lat="43.9195917" lon="12.85954"><ele>38.0</ele><time>2026-05-01T10:49:39.75Z</time></trkpt><trkpt lat="43.919475" lon="12.859665"><ele>38.0</ele><time>2026-05-01T10:49:40.743Z</time></trkpt><trkpt lat="43.9193767" lon="12.859775"><ele>38.0</ele><time>2026-05-01T10:49:41.754Z</time></trkpt><trkpt lat="43.9192867" lon="12.8598783"><ele>38.5</ele><time>2026-05-01T10:49:42.751Z</time></trkpt><trkpt lat="43.9191933" lon="12.8599767"><ele>39.0</ele><time>2026-05-01T10:49:43.752Z</time></trkpt><trkpt lat="43.9190983" lon="12.8600833"><ele>39.5</ele><time>2026-05-01T10:49:44.75Z</time></trkpt><trkpt lat="43.919005" lon="12.8601917"><ele>40.0</ele><time>2026-05-01T10:49:45.751Z</time></trkpt><trkpt lat="43.9189183" lon="12.8602917"><ele>40.0</ele><time>2026-05-01T10:49:46.751Z</time></trkpt><trkpt lat="43.9188433" lon="12.86038"><ele>40.0</ele><time>2026-05-01T10:49:47.75Z</time></trkpt><trkpt lat="43.91877" lon="12.8604567"><ele>40.0</ele><time>2026-05-01T10:49:48.752Z</time></trkpt><trkpt lat="43.918695" lon="12.86053"><ele>40.0</ele><time>2026-05-01T10:49:49.747Z</time></trkpt><trkpt lat="43.91862" lon="12.86061"><ele>40.0</ele><time>2026-05-01T10:49:50.751Z</time></trkpt><trkpt lat="43.91854" lon="12.8607"><ele>40.0</ele><time>2026-05-01T10:49:51.748Z</time></trkpt><trkpt lat="43.9184583" lon="12.8608067"><ele>40.0</ele><time>2026-05-01T10:49:52.742Z</time></trkpt><trkpt lat="43.9183717" lon="12.8609217"><ele>40.0</ele><time>2026-05-01T10:49:53.751Z</time></trkpt><trkpt lat="43.91828" lon="12.8610367"><ele>40.0</ele><time>2026-05-01T10:49:54.747Z</time></trkpt><trkpt lat="43.9181833" lon="12.8611533"><ele>39.5</ele><time>2026-05-01T10:49:55.746Z</time></trkpt><trkpt lat="43.9180817" lon="12.8612717"><ele>39.0</ele><time>2026-05-01T10:49:56.747Z</time></trkpt><trkpt lat="43.9179833" lon="12.86139"><ele>38.5</ele><time>2026-05-01T10:49:57.748Z</time></trkpt><trkpt lat="43.9178867" lon="12.861505"><ele>38.0</ele><time>2026-05-01T10:49:58.748Z</time></trkpt><trkpt lat="43.91779" lon="12.8616183"><ele>38.0</ele><time>2026-05-01T10:49:59.75Z</time></trkpt><trkpt lat="43.9177" lon="12.8617267"><ele>38.0</ele><time>2026-05-01T10:50:00.752Z</time></trkpt><trkpt lat="43.917615" lon="12.8618283"><ele>38.0</ele><time>2026-05-01T10:50:01.748Z</time></trkpt><trkpt lat="43.9175333" lon="12.861925"><ele>38.0</ele><time>2026-05-01T10:50:02.752Z</time></trkpt><trkpt lat="43.9174583" lon="12.862025"><ele>38.0</ele><time>2026-05-01T10:50:03.751Z</time></trkpt><trkpt lat="43.9173867" lon="12.8621333"><ele>37.25</ele><time>2026-05-01T10:50:04.751Z</time></trkpt><trkpt lat="43.91731" lon="12.8622517"><ele>36.5</ele><time>2026-05-01T10:50:05.758Z</time></trkpt><trkpt lat="43.9172283" lon="12.86238"><ele>35.75</ele><time>2026-05-01T10:50:06.742Z</time></trkpt><trkpt lat="43.9171433" lon="12.86252"><ele>35.0</ele><time>2026-05-01T10:50:07.749Z</time></trkpt><trkpt lat="43.9170567" lon="12.8626683"><ele>35.0</ele><time>2026-05-01T10:50:08.751Z</time></trkpt><trkpt lat="43.9169633" lon="12.8628183"><ele>35.0</ele><time>2026-05-01T10:50:09.749Z</time></trkpt><trkpt lat="43.9168667" lon="12.8629733"><ele>35.0</ele><time>2026-05-01T10:50:10.749Z</time></trkpt><trkpt lat="43.9167683" lon="12.8631317"><ele>35.0</ele><time>2026-05-01T10:50:11.749Z</time></trkpt><trkpt lat="43.9166683" lon="12.86329"><ele>35.0</ele><time>2026-05-01T10:50:12.748Z</time></trkpt><trkpt lat="43.9165683" lon="12.8634483"><ele>35.0</ele><time>2026-05-01T10:50:13.752Z</time></trkpt><trkpt lat="43.916465" lon="12.8636"><ele>35.0</ele><time>2026-05-01T10:50:14.755Z</time></trkpt><trkpt lat="43.9163583" lon="12.8637467"><ele>35.0</ele><time>2026-05-01T10:50:15.752Z</time></trkpt><trkpt lat="43.9162483" lon="12.86388"><ele>35.0</ele><time>2026-05-01T10:50:16.75Z</time></trkpt><trkpt lat="43.91614" lon="12.8640083"><ele>35.0</ele><time>2026-05-01T10:50:17.741Z</time></trkpt><trkpt lat="43.91603" lon="12.8641333"><ele>35.0</ele><time>2026-05-01T10:50:18.745Z</time></trkpt><trkpt lat="43.91592" lon="12.86426"><ele>34.5</ele><time>2026-05-01T10:50:19.752Z</time></trkpt><trkpt lat="43.9158117" lon="12.8643933"><ele>34.0</ele><time>2026-05-01T10:50:20.757Z</time></trkpt><trkpt lat="43.915705" lon="12.8645333"><ele>33.5</ele><time>2026-05-01T10:50:21.753Z</time></trkpt><trkpt lat="43.9156033" lon="12.8646867"><ele>33.0</ele><time>2026-05-01T10:50:22.749Z</time></trkpt><trkpt lat="43.9155033" lon="12.86485"><ele>33.0</ele><time>2026-05-01T10:50:23.743Z</time></trkpt><trkpt lat="43.9154083" lon="12.8650167"><ele>33.0</ele><time>2026-05-01T10:50:24.749Z</time></trkpt><trkpt lat="43.9153183" lon="12.8651933"><ele>33.0</ele><time>2026-05-01T10:50:25.759Z</time></trkpt><trkpt lat="43.9152317" lon="12.865375"><ele>34.666666666666664</ele><time>2026-05-01T10:50:26.753Z</time></trkpt><trkpt lat="43.9151483" lon="12.86556"><ele>36.33333333333333</ele><time>2026-05-01T10:50:27.752Z</time></trkpt><trkpt lat="43.9150617" lon="12.865745"><ele>38.0</ele><time>2026-05-01T10:50:28.75Z</time></trkpt><trkpt lat="43.914975" lon="12.8659333"><ele>35.666666666666664</ele><time>2026-05-01T10:50:29.749Z</time></trkpt><trkpt lat="43.914885" lon="12.8661233"><ele>33.333333333333336</ele><time>2026-05-01T10:50:30.749Z</time></trkpt><trkpt lat="43.9147967" lon="12.8663183"><ele>31.0</ele><time>2026-05-01T10:50:31.749Z</time></trkpt><trkpt lat="43.9147083" lon="12.8665133"><ele>31.0</ele><time>2026-05-01T10:50:32.753Z</time></trkpt><trkpt lat="43.9146183" lon="12.866705"><ele>31.0</ele><time>2026-05-01T10:50:33.747Z</time></trkpt><trkpt lat="43.91453" lon="12.8668967"><ele>31.0</ele><time>2026-05-01T10:50:34.751Z</time></trkpt><trkpt lat="43.9144433" lon="12.8670817"><ele>32.0</ele><time>2026-05-01T10:50:35.751Z</time></trkpt><trkpt lat="43.9143617" lon="12.8672667"><ele>33.0</ele><time>2026-05-01T10:50:36.749Z</time></trkpt><trkpt lat="43.9142817" lon="12.8674517"><ele>34.0</ele><time>2026-05-01T10:50:37.748Z</time></trkpt><trkpt lat="43.9141967" lon="12.8676417"><ele>32.0</ele><time>2026-05-01T10:50:38.749Z</time></trkpt><trkpt lat="43.91411" lon="12.867835"><ele>30.0</ele><time>2026-05-01T10:50:39.751Z</time></trkpt><trkpt lat="43.91402" lon="12.86803"><ele>28.0</ele><time>2026-05-01T10:50:40.749Z</time></trkpt><trkpt lat="43.9139317" lon="12.8682217"><ele>28.0</ele><time>2026-05-01T10:50:41.753Z</time></trkpt><trkpt lat="43.913845" lon="12.8684133"><ele>28.0</ele><time>2026-05-01T10:50:42.756Z</time></trkpt><trkpt lat="43.9137633" lon="12.8685917"><ele>28.0</ele><time>2026-05-01T10:50:43.748Z</time></trkpt><trkpt lat="43.9136883" lon="12.8687533"><ele>28.666666666666668</ele><time>2026-05-01T10:50:44.751Z</time></trkpt><trkpt lat="43.9136283" lon="12.868895"><ele>29.333333333333336</ele><time>2026-05-01T10:50:45.748Z</time></trkpt><trkpt lat="43.913575" lon="12.8690117"><ele>30.0</ele><time>2026-05-01T10:50:46.748Z</time></trkpt><trkpt lat="43.91353" lon="12.869105"><ele>30.666666666666664</ele><time>2026-05-01T10:50:47.749Z</time></trkpt><trkpt lat="43.913485" lon="12.8691783"><ele>31.333333333333332</ele><time>2026-05-01T10:50:48.751Z</time></trkpt><trkpt lat="43.913435" lon="12.8692317"><ele>32.0</ele><time>2026-05-01T10:50:49.751Z</time></trkpt><trkpt lat="43.9133217" lon="12.86928"><ele>32.2</ele><time>2026-05-01T10:50:51.747Z</time></trkpt><trkpt lat="43.9132133" lon="12.8693383"><ele>32.400000000000006</ele><time>2026-05-01T10:50:53.748Z</time></trkpt><trkpt lat="43.9131417" lon="12.86948"><ele>32.599999999999994</ele><time>2026-05-01T10:50:55.749Z</time></trkpt><trkpt lat="43.91313" lon="12.8695883"><ele>32.8</ele><time>2026-05-01T10:50:56.749Z</time></trkpt><trkpt lat="43.913125" lon="12.86972"><ele>33.0</ele><time>2026-05-01T10:50:57.748Z</time></trkpt><trkpt lat="43.913105" lon="12.8698633"><ele>33.0</ele><time>2026-05-01T10:50:58.748Z</time></trkpt><trkpt lat="43.9130717" lon="12.8700067"><ele>33.0</ele><time>2026-05-01T10:50:59.75Z</time></trkpt><trkpt lat="43.9130183" lon="12.87015"><ele>33.0</ele><time>2026-05-01T10:51:00.755Z</time></trkpt><trkpt lat="43.9129483" lon="12.8703083"><ele>33.0</ele><time>2026-05-01T10:51:01.752Z</time></trkpt><trkpt lat="43.91287" lon="12.8704767"><ele>35.0</ele><time>2026-05-01T10:51:02.748Z</time></trkpt><trkpt lat="43.9127883" lon="12.8706567"><ele>37.0</ele><time>2026-05-01T10:51:03.742Z</time></trkpt><trkpt lat="43.91271" lon="12.870835"><ele>39.0</ele><time>2026-05-01T10:51:04.747Z</time></trkpt><trkpt lat="43.9126267" lon="12.8710133"><ele>34.666666666666664</ele><time>2026-05-01T10:51:05.744Z</time></trkpt><trkpt lat="43.91254" lon="12.8711933"><ele>30.333333333333332</ele><time>2026-05-01T10:51:06.747Z</time></trkpt><trkpt lat="43.91245" lon="12.8713717"><ele>26.0</ele><time>2026-05-01T10:51:07.754Z</time></trkpt><trkpt lat="43.9123583" lon="12.8715467"><ele>26.0</ele><time>2026-05-01T10:51:08.752Z</time></trkpt><trkpt lat="43.9122717" lon="12.8717233"><ele>26.0</ele><time>2026-05-01T10:51:09.749Z</time></trkpt><trkpt lat="43.912185" lon="12.8718983"><ele>26.0</ele><time>2026-05-01T10:51:10.743Z</time></trkpt><trkpt lat="43.9121" lon="12.8720667"><ele>26.5</ele><time>2026-05-01T10:51:11.753Z</time></trkpt><trkpt lat="43.912015" lon="12.8722333"><ele>27.0</ele><time>2026-05-01T10:51:12.742Z</time></trkpt><trkpt lat="43.9119267" lon="12.8723983"><ele>27.5</ele><time>2026-05-01T10:51:13.749Z</time></trkpt><trkpt lat="43.9118417" lon="12.872565"><ele>28.0</ele><time>2026-05-01T10:51:14.75Z</time></trkpt><trkpt lat="43.9117567" lon="12.8727267"><ele>26.0</ele><time>2026-05-01T10:51:15.753Z</time></trkpt><trkpt lat="43.9116717" lon="12.87289"><ele>24.0</ele><time>2026-05-01T10:51:16.745Z</time></trkpt><trkpt lat="43.91159" lon="12.8730467"><ele>22.0</ele><time>2026-05-01T10:51:17.745Z</time></trkpt><trkpt lat="43.9115083" lon="12.8731967"><ele>20.0</ele><time>2026-05-01T10:51:18.75Z</time></trkpt><trkpt lat="43.9114283" lon="12.87334"><ele>20.75</ele><time>2026-05-01T10:51:19.749Z</time></trkpt><trkpt lat="43.9113483" lon="12.87348"><ele>21.5</ele><time>2026-05-01T10:51:20.752Z</time></trkpt><trkpt lat="43.9112717" lon="12.87361"><ele>22.25</ele><time>2026-05-01T10:51:21.755Z</time></trkpt><trkpt lat="43.9112" lon="12.87373"><ele>23.0</ele><time>2026-05-01T10:51:22.752Z</time></trkpt><trkpt lat="43.9111333" lon="12.873835"><ele>23.0</ele><time>2026-05-01T10:51:23.75Z</time></trkpt><trkpt lat="43.911065" lon="12.8739233"><ele>23.0</ele><time>2026-05-01T10:51:24.75Z</time></trkpt><trkpt lat="43.91099" lon="12.8739817"><ele>23.0</ele><time>2026-05-01T10:51:25.75Z</time></trkpt><trkpt lat="43.9109133" lon="12.8740133"><ele>23.0</ele><time>2026-05-01T10:51:26.755Z</time></trkpt><trkpt lat="43.9108317" lon="12.8740217"><ele>23.0</ele><time>2026-05-01T10:51:27.751Z</time></trkpt><trkpt lat="43.9107467" lon="12.8740133"><ele>23.0</ele><time>2026-05-01T10:51:28.751Z</time></trkpt><trkpt lat="43.9106517" lon="12.8739767"><ele>21.4</ele><time>2026-05-01T10:51:29.747Z</time></trkpt><trkpt lat="43.9105517" lon="12.8739333"><ele>19.799999999999997</ele><time>2026-05-01T10:51:30.744Z</time></trkpt><trkpt lat="43.9104533" lon="12.8738917"><ele>18.2</ele><time>2026-05-01T10:51:31.756Z</time></trkpt><trkpt lat="43.9103617" lon="12.8738567"><ele>16.6</ele><time>2026-05-01T10:51:32.751Z</time></trkpt><trkpt lat="43.9102833" lon="12.8738467"><ele>15.0</ele><time>2026-05-01T10:51:33.742Z</time></trkpt><trkpt lat="43.910215" lon="12.8738567"><ele>15.0</ele><time>2026-05-01T10:51:34.747Z</time></trkpt><trkpt lat="43.9101283" lon="12.8739333"><ele>15.0</ele><time>2026-05-01T10:51:36.751Z</time></trkpt><trkpt lat="43.9101067" lon="12.874085"><ele>15.0</ele><time>2026-05-01T10:51:38.751Z</time></trkpt><trkpt lat="43.9101067" lon="12.8741767"><ele>15.0</ele><time>2026-05-01T10:51:39.753Z</time></trkpt><trkpt lat="43.9101083" lon="12.8742867"><ele>15.0</ele><time>2026-05-01T10:51:40.749Z</time></trkpt><trkpt lat="43.91011" lon="12.8744"><ele>15.0</ele><time>2026-05-01T10:51:41.749Z</time></trkpt><trkpt lat="43.9101133" lon="12.874525"><ele>15.0</ele><time>2026-05-01T10:51:42.751Z</time></trkpt><trkpt lat="43.9101167" lon="12.8746567"><ele>15.0</ele><time>2026-05-01T10:51:43.747Z</time></trkpt><trkpt lat="43.9101267" lon="12.87479"><ele>15.0</ele><time>2026-05-01T10:51:44.752Z</time></trkpt><trkpt lat="43.9101517" lon="12.8749183"><ele>15.0</ele><time>2026-05-01T10:51:45.743Z</time></trkpt><trkpt lat="43.9101883" lon="12.8750367"><ele>15.0</ele><time>2026-05-01T10:51:46.749Z</time></trkpt><trkpt lat="43.9102333" lon="12.8751483"><ele>15.0</ele><time>2026-05-01T10:51:47.753Z</time></trkpt><trkpt lat="43.910285" lon="12.8752583"><ele>15.0</ele><time>2026-05-01T10:51:48.75Z</time></trkpt><trkpt lat="43.910335" lon="12.8753667"><ele>15.0</ele><time>2026-05-01T10:51:49.752Z</time></trkpt><trkpt lat="43.9103817" lon="12.8754717"><ele>15.0</ele><time>2026-05-01T10:51:50.751Z</time></trkpt><trkpt lat="43.910425" lon="12.875575"><ele>15.0</ele><time>2026-05-01T10:51:51.752Z</time></trkpt><trkpt lat="43.9104667" lon="12.8756733"><ele>15.0</ele><time>2026-05-01T10:51:52.753Z</time></trkpt><trkpt lat="43.9105017" lon="12.8757783"><ele>15.0</ele><time>2026-05-01T10:51:53.754Z</time></trkpt><trkpt lat="43.9105217" lon="12.8759"><ele>15.0</ele><time>2026-05-01T10:51:54.746Z</time></trkpt><trkpt lat="43.9105333" lon="12.876035"><ele>15.0</ele><time>2026-05-01T10:51:55.749Z</time></trkpt><trkpt lat="43.91054" lon="12.8761867"><ele>15.0</ele><time>2026-05-01T10:51:56.749Z</time></trkpt><trkpt lat="43.9105467" lon="12.8763517"><ele>15.0</ele><time>2026-05-01T10:51:57.752Z</time></trkpt><trkpt lat="43.9105467" lon="12.8765283"><ele>15.25</ele><time>2026-05-01T10:51:58.752Z</time></trkpt><trkpt lat="43.91056" lon="12.87671"><ele>15.5</ele><time>2026-05-01T10:51:59.746Z</time></trkpt><trkpt lat="43.91057" lon="12.8768883"><ele>15.75</ele><time>2026-05-01T10:52:00.747Z</time></trkpt><trkpt lat="43.9105783" lon="12.877065"><ele>16.0</ele><time>2026-05-01T10:52:01.75Z</time></trkpt><trkpt lat="43.9105867" lon="12.87724"><ele>16.5</ele><time>2026-05-01T10:52:02.753Z</time></trkpt><trkpt lat="43.9105967" lon="12.8774183"><ele>17.0</ele><time>2026-05-01T10:52:03.748Z</time></trkpt><trkpt lat="43.9106133" lon="12.8775983"><ele>17.5</ele><time>2026-05-01T10:52:04.741Z</time></trkpt><trkpt lat="43.9106183" lon="12.87778"><ele>18.0</ele><time>2026-05-01T10:52:05.748Z</time></trkpt><trkpt lat="43.9106183" lon="12.877965"><ele>18.25</ele><time>2026-05-01T10:52:06.75Z</time></trkpt><trkpt lat="43.9106233" lon="12.878155"><ele>18.5</ele><time>2026-05-01T10:52:07.741Z</time></trkpt><trkpt lat="43.9106333" lon="12.8783483"><ele>18.75</ele><time>2026-05-01T10:52:08.75Z</time></trkpt><trkpt lat="43.910635" lon="12.8785383"><ele>19.0</ele><time>2026-05-01T10:52:09.747Z</time></trkpt><trkpt lat="43.910635" lon="12.878725"><ele>19.25</ele><time>2026-05-01T10:52:10.75Z</time></trkpt><trkpt lat="43.9106417" lon="12.8789167"><ele>19.5</ele><time>2026-05-01T10:52:11.75Z</time></trkpt><trkpt lat="43.9106517" lon="12.8791067"><ele>19.75</ele><time>2026-05-01T10:52:12.748Z</time></trkpt><trkpt lat="43.9106533" lon="12.8792933"><ele>20.0</ele><time>2026-05-01T10:52:13.75Z</time></trkpt><trkpt lat="43.910655" lon="12.8794817"><ele>19.5</ele><time>2026-05-01T10:52:14.742Z</time></trkpt><trkpt lat="43.9106617" lon="12.8796733"><ele>19.0</ele><time>2026-05-01T10:52:15.742Z</time></trkpt><trkpt lat="43.9106667" lon="12.8798717"><ele>18.5</ele><time>2026-05-01T10:52:16.743Z</time></trkpt><trkpt lat="43.910675" lon="12.8800617"><ele>18.0</ele><time>2026-05-01T10:52:17.748Z</time></trkpt><trkpt lat="43.9106917" lon="12.8802533"><ele>16.75</ele><time>2026-05-01T10:52:18.746Z</time></trkpt><trkpt lat="43.9107117" lon="12.8804483"><ele>15.5</ele><time>2026-05-01T10:52:19.75Z</time></trkpt><trkpt lat="43.9107317" lon="12.88064"><ele>14.25</ele><time>2026-05-01T10:52:20.756Z</time></trkpt><trkpt lat="43.9107533" lon="12.8808317"><ele>13.0</ele><time>2026-05-01T10:52:21.752Z</time></trkpt><trkpt lat="43.9107717" lon="12.881025"><ele>12.5</ele><time>2026-05-01T10:52:22.748Z</time></trkpt><trkpt lat="43.9107967" lon="12.8812183"><ele>12.0</ele><time>2026-05-01T10:52:23.746Z</time></trkpt><trkpt lat="43.9108167" lon="12.8814133"><ele>11.5</ele><time>2026-05-01T10:52:24.744Z</time></trkpt><trkpt lat="43.910835" lon="12.8816167"><ele>11.0</ele><time>2026-05-01T10:52:25.753Z</time></trkpt><trkpt lat="43.9108517" lon="12.88182"><ele>10.333333333333332</ele><time>2026-05-01T10:52:26.747Z</time></trkpt><trkpt lat="43.9108583" lon="12.882025"><ele>9.666666666666666</ele><time>2026-05-01T10:52:27.754Z</time></trkpt><trkpt lat="43.9108583" lon="12.8822333"><ele>9.0</ele><time>2026-05-01T10:52:28.748Z</time></trkpt><trkpt lat="43.9108533" lon="12.8824467"><ele>8.75</ele><time>2026-05-01T10:52:29.753Z</time></trkpt><trkpt lat="43.91085" lon="12.8826517"><ele>8.5</ele><time>2026-05-01T10:52:30.742Z</time></trkpt><trkpt lat="43.9108417" lon="12.8828567"><ele>8.25</ele><time>2026-05-01T10:52:31.748Z</time></trkpt><trkpt lat="43.91083" lon="12.88306"><ele>8.0</ele><time>2026-05-01T10:52:32.751Z</time></trkpt><trkpt lat="43.9108083" lon="12.8832633"><ele>8.666666666666666</ele><time>2026-05-01T10:52:33.749Z</time></trkpt><trkpt lat="43.9107833" lon="12.8834717"><ele>9.333333333333334</ele><time>2026-05-01T10:52:34.749Z</time></trkpt><trkpt lat="43.910755" lon="12.883685"><ele>10.0</ele><time>2026-05-01T10:52:35.748Z</time></trkpt><trkpt lat="43.9107183" lon="12.8838983"><ele>10.0</ele><time>2026-05-01T10:52:36.75Z</time></trkpt><trkpt lat="43.9106833" lon="12.8841183"><ele>10.0</ele><time>2026-05-01T10:52:37.743Z</time></trkpt><trkpt lat="43.9106467" lon="12.8843483"><ele>10.0</ele><time>2026-05-01T10:52:38.754Z</time></trkpt><trkpt lat="43.9106133" lon="12.8845833"><ele>9.666666666666668</ele><time>2026-05-01T10:52:39.748Z</time></trkpt><trkpt lat="43.9105767" lon="12.8848183"><ele>9.333333333333334</ele><time>2026-05-01T10:52:40.749Z</time></trkpt><trkpt lat="43.9105433" lon="12.8850533"><ele>9.0</ele><time>2026-05-01T10:52:41.752Z</time></trkpt><trkpt lat="43.91051" lon="12.885285"><ele>10.666666666666668</ele><time>2026-05-01T10:52:42.743Z</time></trkpt><trkpt lat="43.910475" lon="12.88551"><ele>12.333333333333334</ele><time>2026-05-01T10:52:43.75Z</time></trkpt><trkpt lat="43.9104417" lon="12.8857367"><ele>14.0</ele><time>2026-05-01T10:52:44.752Z</time></trkpt><trkpt lat="43.9104167" lon="12.885965"><ele>14.333333333333334</ele><time>2026-05-01T10:52:45.751Z</time></trkpt><trkpt lat="43.9103933" lon="12.8861933"><ele>14.666666666666668</ele><time>2026-05-01T10:52:46.747Z</time></trkpt><trkpt lat="43.9103733" lon="12.886425"><ele>15.0</ele><time>2026-05-01T10:52:47.75Z</time></trkpt><trkpt lat="43.9103617" lon="12.886655"><ele>15.333333333333332</ele><time>2026-05-01T10:52:48.75Z</time></trkpt><trkpt lat="43.9103583" lon="12.8868883"><ele>15.666666666666666</ele><time>2026-05-01T10:52:49.747Z</time></trkpt><trkpt lat="43.9103567" lon="12.8871233"><ele>16.0</ele><time>2026-05-01T10:52:50.754Z</time></trkpt><trkpt lat="43.9103633" lon="12.8873583"><ele>16.0</ele><time>2026-05-01T10:52:51.756Z</time></trkpt><trkpt lat="43.91038" lon="12.8875933"><ele>16.0</ele><time>2026-05-01T10:52:52.751Z</time></trkpt><trkpt lat="43.9103933" lon="12.887825"><ele>16.0</ele><time>2026-05-01T10:52:53.751Z</time></trkpt><trkpt lat="43.9104067" lon="12.8880533"><ele>16.0</ele><time>2026-05-01T10:52:54.752Z</time></trkpt><trkpt lat="43.9104233" lon="12.888275"><ele>16.0</ele><time>2026-05-01T10:52:55.75Z</time></trkpt><trkpt lat="43.9104383" lon="12.8884967"><ele>16.0</ele><time>2026-05-01T10:52:56.754Z</time></trkpt><trkpt lat="43.9104533" lon="12.88872"><ele>15.333333333333332</ele><time>2026-05-01T10:52:57.743Z</time></trkpt><trkpt lat="43.910465" lon="12.8889483"><ele>14.666666666666668</ele><time>2026-05-01T10:52:58.749Z</time></trkpt><trkpt lat="43.9104733" lon="12.88918"><ele>14.0</ele><time>2026-05-01T10:52:59.751Z</time></trkpt><trkpt lat="43.9104767" lon="12.8894183"><ele>14.0</ele><time>2026-05-01T10:53:00.744Z</time></trkpt><trkpt lat="43.91048" lon="12.8896617"><ele>14.0</ele><time>2026-05-01T10:53:01.751Z</time></trkpt><trkpt lat="43.9104833" lon="12.8899083"><ele>14.0</ele><time>2026-05-01T10:53:02.747Z</time></trkpt><trkpt lat="43.9104867" lon="12.8901567"><ele>14.0</ele><time>2026-05-01T10:53:03.743Z</time></trkpt><trkpt lat="43.9104917" lon="12.8904067"><ele>14.0</ele><time>2026-05-01T10:53:04.742Z</time></trkpt><trkpt lat="43.9104933" lon="12.8906567"><ele>14.0</ele><time>2026-05-01T10:53:05.752Z</time></trkpt><trkpt lat="43.9104967" lon="12.8909083"><ele>13.333333333333334</ele><time>2026-05-01T10:53:06.754Z</time></trkpt><trkpt lat="43.9105017" lon="12.89116"><ele>12.666666666666668</ele><time>2026-05-01T10:53:07.749Z</time></trkpt><trkpt lat="43.910505" lon="12.8914033"><ele>12.0</ele><time>2026-05-01T10:53:08.754Z</time></trkpt><trkpt lat="43.9105033" lon="12.8916433"><ele>11.0</ele><time>2026-05-01T10:53:09.752Z</time></trkpt><trkpt lat="43.910505" lon="12.8918767"><ele>10.0</ele><time>2026-05-01T10:53:10.758Z</time></trkpt><trkpt lat="43.9105067" lon="12.892105"><ele>9.0</ele><time>2026-05-01T10:53:11.753Z</time></trkpt><trkpt lat="43.910505" lon="12.89233"><ele>9.0</ele><time>2026-05-01T10:53:12.749Z</time></trkpt><trkpt lat="43.91051" lon="12.89255"><ele>9.0</ele><time>2026-05-01T10:53:13.746Z</time></trkpt><trkpt lat="43.9105133" lon="12.89277"><ele>9.0</ele><time>2026-05-01T10:53:14.753Z</time></trkpt><trkpt lat="43.910515" lon="12.89299"><ele>9.0</ele><time>2026-05-01T10:53:15.749Z</time></trkpt><trkpt lat="43.9105167" lon="12.8932083"><ele>9.0</ele><time>2026-05-01T10:53:16.748Z</time></trkpt><trkpt lat="43.9105167" lon="12.8934267"><ele>9.0</ele><time>2026-05-01T10:53:17.747Z</time></trkpt><trkpt lat="43.9105217" lon="12.893645"><ele>9.0</ele><time>2026-05-01T10:53:18.752Z</time></trkpt><trkpt lat="43.9105267" lon="12.8938617"><ele>9.0</ele><time>2026-05-01T10:53:19.749Z</time></trkpt><trkpt lat="43.9105367" lon="12.8940767"><ele>9.0</ele><time>2026-05-01T10:53:20.751Z</time></trkpt><trkpt lat="43.910545" lon="12.8942883"><ele>8.5</ele><time>2026-05-01T10:53:21.749Z</time></trkpt><trkpt lat="43.9105467" lon="12.8944933"><ele>8.0</ele><time>2026-05-01T10:53:22.746Z</time></trkpt><trkpt lat="43.9105517" lon="12.89469"><ele>7.5</ele><time>2026-05-01T10:53:23.751Z</time></trkpt><trkpt lat="43.91056" lon="12.8948783"><ele>7.0</ele><time>2026-05-01T10:53:24.745Z</time></trkpt><trkpt lat="43.9105683" lon="12.8950517"><ele>6.8</ele><time>2026-05-01T10:53:25.749Z</time></trkpt><trkpt lat="43.9105767" lon="12.8952083"><ele>6.6</ele><time>2026-05-01T10:53:26.751Z</time></trkpt><trkpt lat="43.9105783" lon="12.8953533"><ele>6.3999999999999995</ele><time>2026-05-01T10:53:27.751Z</time></trkpt><trkpt lat="43.9105817" lon="12.8954867"><ele>6.199999999999999</ele><time>2026-05-01T10:53:28.753Z</time></trkpt><trkpt lat="43.9105867" lon="12.8956017"><ele>6.0</ele><time>2026-05-01T10:53:29.752Z</time></trkpt><trkpt lat="43.9105917" lon="12.8956983"><ele>6.0</ele><time>2026-05-01T10:53:30.749Z</time></trkpt><trkpt lat="43.910595" lon="12.8958317"><ele>6.0</ele><time>2026-05-01T10:53:32.755Z</time></trkpt><trkpt lat="43.910595" lon="12.895935"><ele>6.0</ele><time>2026-05-01T10:53:35.75Z</time></trkpt><trkpt lat="43.9106067" lon="12.8960383"><ele>6.0</ele><time>2026-05-01T10:53:38.754Z</time></trkpt><trkpt lat="43.910605" lon="12.8961983"><ele>6.0</ele><time>2026-05-01T10:53:40.744Z</time></trkpt><trkpt lat="43.91061" lon="12.8963017"><ele>6.0</ele><time>2026-05-01T10:53:41.747Z</time></trkpt><trkpt lat="43.910615" lon="12.8964133"><ele>6.0</ele><time>2026-05-01T10:53:42.757Z</time></trkpt><trkpt lat="43.9106183" lon="12.8965417"><ele>6.0</ele><time>2026-05-01T10:53:43.75Z</time></trkpt><trkpt lat="43.9106217" lon="12.8966933"><ele>6.0</ele><time>2026-05-01T10:53:44.751Z</time></trkpt><trkpt lat="43.9106233" lon="12.8968583"><ele>6.0</ele><time>2026-05-01T10:53:45.747Z</time></trkpt><trkpt lat="43.9106233" lon="12.8970317"><ele>6.0</ele><time>2026-05-01T10:53:46.749Z</time></trkpt><trkpt lat="43.9106267" lon="12.8972133"><ele>6.25</ele><time>2026-05-01T10:53:47.753Z</time></trkpt><trkpt lat="43.9106333" lon="12.8974033"><ele>6.5</ele><time>2026-05-01T10:53:48.75Z</time></trkpt><trkpt lat="43.910635" lon="12.8975933"><ele>6.75</ele><time>2026-05-01T10:53:49.75Z</time></trkpt><trkpt lat="43.91064" lon="12.8977817"><ele>7.0</ele><time>2026-05-01T10:53:50.749Z</time></trkpt><trkpt lat="43.9106417" lon="12.8979617"><ele>6.5</ele><time>2026-05-01T10:53:51.748Z</time></trkpt><trkpt lat="43.91065" lon="12.8981367"><ele>6.0</ele><time>2026-05-01T10:53:52.747Z</time></trkpt><trkpt lat="43.91066" lon="12.8983133"><ele>5.5</ele><time>2026-05-01T10:53:53.749Z</time></trkpt><trkpt lat="43.910675" lon="12.8985017"><ele>5.0</ele><time>2026-05-01T10:53:54.75Z</time></trkpt><trkpt lat="43.91069" lon="12.898695"><ele>4.75</ele><time>2026-05-01T10:53:55.753Z</time></trkpt><trkpt lat="43.91071" lon="12.89889"><ele>4.5</ele><time>2026-05-01T10:53:56.749Z</time></trkpt><trkpt lat="43.910735" lon="12.89909"><ele>4.25</ele><time>2026-05-01T10:53:57.747Z</time></trkpt><trkpt lat="43.9107683" lon="12.8992883"><ele>4.0</ele><time>2026-05-01T10:53:58.748Z</time></trkpt><trkpt lat="43.9108067" lon="12.8994783"><ele>4.75</ele><time>2026-05-01T10:53:59.748Z</time></trkpt><trkpt lat="43.91084" lon="12.8996617"><ele>5.5</ele><time>2026-05-01T10:54:00.75Z</time></trkpt><trkpt lat="43.910875" lon="12.8998333"><ele>6.25</ele><time>2026-05-01T10:54:01.741Z</time></trkpt><trkpt lat="43.9109133" lon="12.8999983"><ele>7.0</ele><time>2026-05-01T10:54:02.753Z</time></trkpt><trkpt lat="43.9109483" lon="12.90015"><ele>7.199999999999999</ele><time>2026-05-01T10:54:03.751Z</time></trkpt><trkpt lat="43.9109833" lon="12.9002917"><ele>7.3999999999999995</ele><time>2026-05-01T10:54:04.753Z</time></trkpt><trkpt lat="43.9110183" lon="12.9004283"><ele>7.6000000000000005</ele><time>2026-05-01T10:54:05.742Z</time></trkpt><trkpt lat="43.911055" lon="12.90055"><ele>7.800000000000001</ele><time>2026-05-01T10:54:06.742Z</time></trkpt><trkpt lat="43.9110883" lon="12.9006617"><ele>8.0</ele><time>2026-05-01T10:54:07.742Z</time></trkpt><trkpt lat="43.9111183" lon="12.9007667"><ele>8.0</ele><time>2026-05-01T10:54:08.742Z</time></trkpt><trkpt lat="43.9111483" lon="12.9008667"><ele>7.999999999999999</ele><time>2026-05-01T10:54:09.741Z</time></trkpt><trkpt lat="43.9111817" lon="12.9009667"><ele>8.0</ele><time>2026-05-01T10:54:10.743Z</time></trkpt><trkpt lat="43.9112117" lon="12.9010617"><ele>8.0</ele><time>2026-05-01T10:54:11.742Z</time></trkpt><trkpt lat="43.9112383" lon="12.90115"><ele>7.999999999999999</ele><time>2026-05-01T10:54:12.741Z</time></trkpt><trkpt lat="43.9112683" lon="12.9012317"><ele>8.0</ele><time>2026-05-01T10:54:13.741Z</time></trkpt><trkpt lat="43.9112933" lon="12.9013133"><ele>8.0</ele><time>2026-05-01T10:54:14.743Z</time></trkpt><trkpt lat="43.9113167" lon="12.90141"><ele>7.6000000000000005</ele><time>2026-05-01T10:54:15.744Z</time></trkpt><trkpt lat="43.9113467" lon="12.9015167"><ele>7.200000000000001</ele><time>2026-05-01T10:54:16.742Z</time></trkpt><trkpt lat="43.9113767" lon="12.9016267"><ele>6.8</ele><time>2026-05-01T10:54:17.747Z</time></trkpt><trkpt lat="43.911415" lon="12.9017533"><ele>6.4</ele><time>2026-05-01T10:54:18.742Z</time></trkpt><trkpt lat="43.9114417" lon="12.90189"><ele>6.0</ele><time>2026-05-01T10:54:19.741Z</time></trkpt><trkpt lat="43.911475" lon="12.9020233"><ele>5.6</ele><time>2026-05-01T10:54:20.742Z</time></trkpt><trkpt lat="43.9115133" lon="12.90216"><ele>5.199999999999999</ele><time>2026-05-01T10:54:21.741Z</time></trkpt><trkpt lat="43.9115517" lon="12.9023"><ele>4.800000000000001</ele><time>2026-05-01T10:54:22.745Z</time></trkpt><trkpt lat="43.9115883" lon="12.902445"><ele>4.4</ele><time>2026-05-01T10:54:23.743Z</time></trkpt><trkpt lat="43.9116283" lon="12.9025983"><ele>4.0</ele><time>2026-05-01T10:54:24.743Z</time></trkpt><trkpt lat="43.91167" lon="12.90275"><ele>4.0</ele><time>2026-05-01T10:54:25.745Z</time></trkpt><trkpt lat="43.9117117" lon="12.9028983"><ele>4.0</ele><time>2026-05-01T10:54:26.743Z</time></trkpt><trkpt lat="43.9117483" lon="12.903045"><ele>4.0</ele><time>2026-05-01T10:54:27.752Z</time></trkpt><trkpt lat="43.9117917" lon="12.90319"><ele>4.0</ele><time>2026-05-01T10:54:28.747Z</time></trkpt><trkpt lat="43.9118367" lon="12.90333"><ele>4.4</ele><time>2026-05-01T10:54:29.752Z</time></trkpt><trkpt lat="43.91188" lon="12.9034733"><ele>4.800000000000001</ele><time>2026-05-01T10:54:30.749Z</time></trkpt><trkpt lat="43.9119167" lon="12.90361"><ele>5.199999999999999</ele><time>2026-05-01T10:54:31.742Z</time></trkpt><trkpt lat="43.9119517" lon="12.9037417"><ele>5.6</ele><time>2026-05-01T10:54:32.752Z</time></trkpt><trkpt lat="43.9119883" lon="12.9038717"><ele>6.0</ele><time>2026-05-01T10:54:33.747Z</time></trkpt><trkpt lat="43.9120217" lon="12.9039967"><ele>6.0</ele><time>2026-05-01T10:54:34.742Z</time></trkpt><trkpt lat="43.9120567" lon="12.9041183"><ele>6.0</ele><time>2026-05-01T10:54:35.751Z</time></trkpt><trkpt lat="43.91209" lon="12.904235"><ele>6.0</ele><time>2026-05-01T10:54:36.749Z</time></trkpt><trkpt lat="43.9121217" lon="12.9043433"><ele>6.0</ele><time>2026-05-01T10:54:37.751Z</time></trkpt><trkpt lat="43.9121483" lon="12.9044417"><ele>6.0</ele><time>2026-05-01T10:54:38.742Z</time></trkpt><trkpt lat="43.912165" lon="12.9045317"><ele>6.0</ele><time>2026-05-01T10:54:39.751Z</time></trkpt><trkpt lat="43.9121967" lon="12.9047067"><ele>6.0</ele><time>2026-05-01T10:54:41.747Z</time></trkpt><trkpt lat="43.912215" lon="12.904795"><ele>6.0</ele><time>2026-05-01T10:54:42.748Z</time></trkpt><trkpt lat="43.9122467" lon="12.9048767"><ele>6.0</ele><time>2026-05-01T10:54:43.741Z</time></trkpt><trkpt lat="43.9122933" lon="12.90495"><ele>6.0</ele><time>2026-05-01T10:54:44.746Z</time></trkpt><trkpt lat="43.912345" lon="12.90503"><ele>6.0</ele><time>2026-05-01T10:54:45.751Z</time></trkpt><trkpt lat="43.9124" lon="12.905125"><ele>6.0</ele><time>2026-05-01T10:54:46.745Z</time></trkpt><trkpt lat="43.9124383" lon="12.905235"><ele>5.8</ele><time>2026-05-01T10:54:47.751Z</time></trkpt><trkpt lat="43.9124867" lon="12.90536"><ele>5.6</ele><time>2026-05-01T10:54:48.749Z</time></trkpt><trkpt lat="43.9125283" lon="12.9054917"><ele>5.4</ele><time>2026-05-01T10:54:49.752Z</time></trkpt><trkpt lat="43.9125867" lon="12.905615"><ele>5.2</ele><time>2026-05-01T10:54:50.75Z</time></trkpt><trkpt lat="43.9126483" lon="12.9057333"><ele>5.0</ele><time>2026-05-01T10:54:51.748Z</time></trkpt><trkpt lat="43.912705" lon="12.90586"><ele>5.25</ele><time>2026-05-01T10:54:52.749Z</time></trkpt><trkpt lat="43.9127617" lon="12.9059933"><ele>5.5</ele><time>2026-05-01T10:54:53.75Z</time></trkpt><trkpt lat="43.9128167" lon="12.9061333"><ele>5.75</ele><time>2026-05-01T10:54:54.742Z</time></trkpt><trkpt lat="43.9128783" lon="12.9062667"><ele>6.0</ele><time>2026-05-01T10:54:55.757Z</time></trkpt><trkpt lat="43.9129383" lon="12.9064"><ele>6.0</ele><time>2026-05-01T10:54:56.756Z</time></trkpt><trkpt lat="43.9129933" lon="12.9065283"><ele>6.0</ele><time>2026-05-01T10:54:57.744Z</time></trkpt><trkpt lat="43.91305" lon="12.9066483"><ele>6.0</ele><time>2026-05-01T10:54:58.748Z</time></trkpt><trkpt lat="43.9130983" lon="12.9067583"><ele>6.0</ele><time>2026-05-01T10:54:59.753Z</time></trkpt><trkpt lat="43.91314" lon="12.9068267"><ele>6.0</ele><time>2026-05-01T10:55:01.753Z</time></trkpt><trkpt lat="43.9131917" lon="12.9068933"><ele>6.0</ele><time>2026-05-01T10:55:08.749Z</time></trkpt><trkpt lat="43.9132483" lon="12.9069867"><ele>5.8</ele><time>2026-05-01T10:55:10.75Z</time></trkpt><trkpt lat="43.9133133" lon="12.907125"><ele>5.6</ele><time>2026-05-01T10:55:12.748Z</time></trkpt><trkpt lat="43.9133717" lon="12.90726"><ele>5.4</ele><time>2026-05-01T10:55:14.745Z</time></trkpt><trkpt lat="43.9134367" lon="12.9073867"><ele>5.2</ele><time>2026-05-01T10:55:16.743Z</time></trkpt><trkpt lat="43.9134867" lon="12.9075"><ele>5.0</ele><time>2026-05-01T10:55:18.752Z</time></trkpt><trkpt lat="43.91354" lon="12.907635"><ele>4.666666666666667</ele><time>2026-05-01T10:55:20.762Z</time></trkpt><trkpt lat="43.9135767" lon="12.9077283"><ele>4.333333333333334</ele><time>2026-05-01T10:55:21.743Z</time></trkpt><trkpt lat="43.9136183" lon="12.9078267"><ele>4.0</ele><time>2026-05-01T10:55:22.753Z</time></trkpt><trkpt lat="43.91366" lon="12.9079333"><ele>3.666666666666667</ele><time>2026-05-01T10:55:23.749Z</time></trkpt><trkpt lat="43.9137083" lon="12.9080433"><ele>3.3333333333333335</ele><time>2026-05-01T10:55:24.751Z</time></trkpt><trkpt lat="43.91376" lon="12.9081583"><ele>3.0</ele><time>2026-05-01T10:55:25.748Z</time></trkpt><trkpt lat="43.91381" lon="12.908275"><ele>3.0</ele><time>2026-05-01T10:55:26.745Z</time></trkpt><trkpt lat="43.91387" lon="12.9083883"><ele>3.0</ele><time>2026-05-01T10:55:27.749Z</time></trkpt><trkpt lat="43.91393" lon="12.9085017"><ele>3.0</ele><time>2026-05-01T10:55:28.748Z</time></trkpt><trkpt lat="43.914" lon="12.9086117"><ele>3.0</ele><time>2026-05-01T10:55:29.749Z</time></trkpt><trkpt lat="43.9140767" lon="12.9087217"><ele>3.0</ele><time>2026-05-01T10:55:30.748Z</time></trkpt><trkpt lat="43.91416" lon="12.9088317"><ele>3.25</ele><time>2026-05-01T10:55:31.749Z</time></trkpt><trkpt lat="43.9142417" lon="12.90895"><ele>3.5</ele><time>2026-05-01T10:55:32.75Z</time></trkpt><trkpt lat="43.9143233" lon="12.9090683"><ele>3.75</ele><time>2026-05-01T10:55:33.747Z</time></trkpt><trkpt lat="43.914405" lon="12.9091833"><ele>4.0</ele><time>2026-05-01T10:55:34.749Z</time></trkpt><trkpt lat="43.914485" lon="12.909295"><ele>4.0</ele><time>2026-05-01T10:55:35.752Z</time></trkpt><trkpt lat="43.9145633" lon="12.909405"><ele>4.0</ele><time>2026-05-01T10:55:36.753Z</time></trkpt><trkpt lat="43.9146433" lon="12.9095117"><ele>4.0</ele><time>2026-05-01T10:55:37.746Z</time></trkpt><trkpt lat="43.9147217" lon="12.909615"><ele>4.0</ele><time>2026-05-01T10:55:38.748Z</time></trkpt><trkpt lat="43.9148" lon="12.9097117"><ele>4.0</ele><time>2026-05-01T10:55:39.749Z</time></trkpt><trkpt lat="43.9148817" lon="12.9098217"><ele>4.0</ele><time>2026-05-01T10:55:40.749Z</time></trkpt><trkpt lat="43.9149583" lon="12.90993"><ele>4.0</ele><time>2026-05-01T10:55:41.749Z</time></trkpt><trkpt lat="43.915035" lon="12.9100417"><ele>4.0</ele><time>2026-05-01T10:55:42.751Z</time></trkpt><trkpt lat="43.91511" lon="12.910155"><ele>4.0</ele><time>2026-05-01T10:55:43.745Z</time></trkpt><trkpt lat="43.9151867" lon="12.9102717"><ele>4.0</ele><time>2026-05-01T10:55:44.748Z</time></trkpt><trkpt lat="43.9152567" lon="12.9103967"><ele>4.0</ele><time>2026-05-01T10:55:45.748Z</time></trkpt><trkpt lat="43.9153083" lon="12.9105317"><ele>4.0</ele><time>2026-05-01T10:55:46.749Z</time></trkpt><trkpt lat="43.9153383" lon="12.9106817"><ele>4.0</ele><time>2026-05-01T10:55:47.752Z</time></trkpt><trkpt lat="43.9153417" lon="12.9108367"><ele>4.0</ele><time>2026-05-01T10:55:48.753Z</time></trkpt><trkpt lat="43.9153167" lon="12.91099"><ele>4.0</ele><time>2026-05-01T10:55:49.751Z</time></trkpt><trkpt lat="43.9152633" lon="12.9111283"><ele>4.0</ele><time>2026-05-01T10:55:50.742Z</time></trkpt><trkpt lat="43.91519" lon="12.911255"><ele>4.0</ele><time>2026-05-01T10:55:51.751Z</time></trkpt><trkpt lat="43.9151033" lon="12.9113883"><ele>4.0</ele><time>2026-05-01T10:55:52.752Z</time></trkpt><trkpt lat="43.9150133" lon="12.9115267"><ele>4.0</ele><time>2026-05-01T10:55:53.749Z</time></trkpt><trkpt lat="43.9149217" lon="12.9116667"><ele>4.0</ele><time>2026-05-01T10:55:54.751Z</time></trkpt><trkpt lat="43.9148283" lon="12.9118083"><ele>4.0</ele><time>2026-05-01T10:55:55.751Z</time></trkpt><trkpt lat="43.9147333" lon="12.9119433"><ele>4.0</ele><time>2026-05-01T10:55:56.751Z</time></trkpt><trkpt lat="43.9146417" lon="12.91208"><ele>4.0</ele><time>2026-05-01T10:55:57.751Z</time></trkpt><trkpt lat="43.9145533" lon="12.9122133"><ele>4.0</ele><time>2026-05-01T10:55:58.752Z</time></trkpt><trkpt lat="43.91446" lon="12.912345"><ele>4.0</ele><time>2026-05-01T10:55:59.751Z</time></trkpt><trkpt lat="43.9143683" lon="12.912475"><ele>4.0</ele><time>2026-05-01T10:56:00.75Z</time></trkpt><trkpt lat="43.9142783" lon="12.912605"><ele>4.0</ele><time>2026-05-01T10:56:01.752Z</time></trkpt><trkpt lat="43.9141833" lon="12.9127333"><ele>3.5</ele><time>2026-05-01T10:56:02.751Z</time></trkpt><trkpt lat="43.9140883" lon="12.9128633"><ele>3.0</ele><time>2026-05-01T10:56:03.752Z</time></trkpt><trkpt lat="43.9139933" lon="12.9129967"><ele>2.5</ele><time>2026-05-01T10:56:04.749Z</time></trkpt><trkpt lat="43.9138983" lon="12.9131267"><ele>2.0</ele><time>2026-05-01T10:56:05.753Z</time></trkpt><trkpt lat="43.91381" lon="12.9132617"><ele>2.0</ele><time>2026-05-01T10:56:06.747Z</time></trkpt><trkpt lat="43.91372" lon="12.9133933"><ele>2.0</ele><time>2026-05-01T10:56:07.751Z</time></trkpt><trkpt lat="43.9136267" lon="12.9135233"><ele>2.0</ele><time>2026-05-01T10:56:08.744Z</time></trkpt><trkpt lat="43.9135317" lon="12.913655"><ele>2.0</ele><time>2026-05-01T10:56:09.752Z</time></trkpt><trkpt lat="43.91344" lon="12.9137917"><ele>2.5</ele><time>2026-05-01T10:56:10.742Z</time></trkpt><trkpt lat="43.9133467" lon="12.9139333"><ele>3.0</ele><time>2026-05-01T10:56:11.753Z</time></trkpt><trkpt lat="43.913245" lon="12.9140683"><ele>3.5</ele><time>2026-05-01T10:56:12.75Z</time></trkpt><trkpt lat="43.9131467" lon="12.9142067"><ele>4.0</ele><time>2026-05-01T10:56:13.756Z</time></trkpt><trkpt lat="43.9130517" lon="12.9143383"><ele>4.0</ele><time>2026-05-01T10:56:14.753Z</time></trkpt><trkpt lat="43.9129633" lon="12.91446"><ele>4.0</ele><time>2026-05-01T10:56:15.751Z</time></trkpt><trkpt lat="43.91288" lon="12.91457"><ele>4.0</ele><time>2026-05-01T10:56:16.746Z</time></trkpt><trkpt lat="43.9128017" lon="12.914675"><ele>4.0</ele><time>2026-05-01T10:56:17.751Z</time></trkpt><trkpt lat="43.91273" lon="12.91477"><ele>4.0</ele><time>2026-05-01T10:56:18.748Z</time></trkpt><trkpt lat="43.91267" lon="12.9148633"><ele>3.9999999999999996</ele><time>2026-05-01T10:56:19.742Z</time></trkpt><trkpt lat="43.9126117" lon="12.9149533"><ele>4.0</ele><time>2026-05-01T10:56:20.744Z</time></trkpt><trkpt lat="43.912555" lon="12.91504"><ele>4.0</ele><time>2026-05-01T10:56:21.745Z</time></trkpt><trkpt lat="43.9125" lon="12.9151183"><ele>4.0</ele><time>2026-05-01T10:56:22.741Z</time></trkpt><trkpt lat="43.9124467" lon="12.91519"><ele>3.9999999999999996</ele><time>2026-05-01T10:56:23.745Z</time></trkpt><trkpt lat="43.9123967" lon="12.9152883"><ele>4.0</ele><time>2026-05-01T10:56:25.744Z</time></trkpt><trkpt lat="43.912295" lon="12.9154417"><ele>4.333333333333333</ele><time>2026-05-01T10:56:37.742Z</time></trkpt><trkpt lat="43.9122383" lon="12.9155217"><ele>4.666666666666666</ele><time>2026-05-01T10:56:39.746Z</time></trkpt><trkpt lat="43.912165" lon="12.915615"><ele>5.0</ele><time>2026-05-01T10:56:41.745Z</time></trkpt><trkpt lat="43.9120833" lon="12.9157217"><ele>5.333333333333333</ele><time>2026-05-01T10:56:43.742Z</time></trkpt><trkpt lat="43.9120383" lon="12.9157867"><ele>5.666666666666667</ele><time>2026-05-01T10:56:44.744Z</time></trkpt><trkpt lat="43.91199" lon="12.91586"><ele>6.0</ele><time>2026-05-01T10:56:45.744Z</time></trkpt><trkpt lat="43.9119333" lon="12.91594"><ele>6.4</ele><time>2026-05-01T10:56:46.745Z</time></trkpt><trkpt lat="43.9118717" lon="12.9160283"><ele>6.8</ele><time>2026-05-01T10:56:47.744Z</time></trkpt><trkpt lat="43.9118017" lon="12.9161267"><ele>7.200000000000001</ele><time>2026-05-01T10:56:48.746Z</time></trkpt><trkpt lat="43.9117283" lon="12.9162333"><ele>7.6000000000000005</ele><time>2026-05-01T10:56:49.745Z</time></trkpt><trkpt lat="43.9116467" lon="12.91634"><ele>8.0</ele><time>2026-05-01T10:56:50.745Z</time></trkpt><trkpt lat="43.9115617" lon="12.9164567"><ele>7.0</ele><time>2026-05-01T10:56:51.745Z</time></trkpt><trkpt lat="43.911475" lon="12.9165767"><ele>6.0</ele><time>2026-05-01T10:56:52.746Z</time></trkpt><trkpt lat="43.9113833" lon="12.9166983"><ele>5.0</ele><time>2026-05-01T10:56:53.745Z</time></trkpt><trkpt lat="43.9112933" lon="12.9168217"><ele>4.0</ele><time>2026-05-01T10:56:54.744Z</time></trkpt><trkpt lat="43.9112" lon="12.9169533"><ele>4.25</ele><time>2026-05-01T10:56:55.745Z</time></trkpt><trkpt lat="43.9111067" lon="12.9170883"><ele>4.5</ele><time>2026-05-01T10:56:56.745Z</time></trkpt><trkpt lat="43.9110117" lon="12.917225"><ele>4.75</ele><time>2026-05-01T10:56:57.748Z</time></trkpt><trkpt lat="43.910915" lon="12.9173667"><ele>5.0</ele><time>2026-05-01T10:56:58.746Z</time></trkpt><trkpt lat="43.9108183" lon="12.9175117"><ele>4.5</ele><time>2026-05-01T10:56:59.75Z</time></trkpt><trkpt lat="43.9107167" lon="12.9176533"><ele>4.0</ele><time>2026-05-01T10:57:00.754Z</time></trkpt><trkpt lat="43.91062" lon="12.9177867"><ele>3.5</ele><time>2026-05-01T10:57:01.75Z</time></trkpt><trkpt lat="43.910535" lon="12.917905"><ele>3.0</ele><time>2026-05-01T10:57:02.744Z</time></trkpt><trkpt lat="43.91047" lon="12.918005"><ele>3.0</ele><time>2026-05-01T10:57:03.751Z</time></trkpt><trkpt lat="43.9104183" lon="12.9180783"><ele>3.0</ele><time>2026-05-01T10:57:04.752Z</time></trkpt><trkpt lat="43.910355" lon="12.918155"><ele>3.0</ele><time>2026-05-01T10:57:06.75Z</time></trkpt><trkpt lat="43.910295" lon="12.918225"><ele>3.0</ele><time>2026-05-01T10:57:09.751Z</time></trkpt><trkpt lat="43.9101933" lon="12.9184067"><ele>3.0</ele><time>2026-05-01T10:58:01.746Z</time></trkpt><trkpt lat="43.9101433" lon="12.918475"><ele>3.0</ele><time>2026-05-01T10:58:02.745Z</time></trkpt><trkpt lat="43.910085" lon="12.9185483"><ele>3.0</ele><time>2026-05-01T10:58:03.743Z</time></trkpt><trkpt lat="43.91002" lon="12.918635"><ele>3.0</ele><time>2026-05-01T10:58:04.743Z</time></trkpt><trkpt lat="43.90995" lon="12.91874"><ele>3.0</ele><time>2026-05-01T10:58:05.743Z</time></trkpt><trkpt lat="43.909865" lon="12.91885"><ele>3.0</ele><time>2026-05-01T10:58:06.742Z</time></trkpt><trkpt lat="43.90978" lon="12.9189783"><ele>3.25</ele><time>2026-05-01T10:58:07.744Z</time></trkpt><trkpt lat="43.9096983" lon="12.9191083"><ele>3.5</ele><time>2026-05-01T10:58:08.745Z</time></trkpt><trkpt lat="43.9096017" lon="12.919245"><ele>3.75</ele><time>2026-05-01T10:58:09.744Z</time></trkpt><trkpt lat="43.9094967" lon="12.9193867"><ele>4.0</ele><time>2026-05-01T10:58:10.744Z</time></trkpt><trkpt lat="43.9093933" lon="12.9195417"><ele>4.0</ele><time>2026-05-01T10:58:11.743Z</time></trkpt><trkpt lat="43.909285" lon="12.9197033"><ele>4.0</ele><time>2026-05-01T10:58:12.746Z</time></trkpt><trkpt lat="43.909175" lon="12.9198583"><ele>4.0</ele><time>2026-05-01T10:58:13.75Z</time></trkpt><trkpt lat="43.9090583" lon="12.9200267"><ele>4.333333333333333</ele><time>2026-05-01T10:58:14.752Z</time></trkpt><trkpt lat="43.9089417" lon="12.920195"><ele>4.666666666666667</ele><time>2026-05-01T10:58:15.751Z</time></trkpt><trkpt lat="43.90882" lon="12.920365"><ele>5.0</ele><time>2026-05-01T10:58:16.749Z</time></trkpt><trkpt lat="43.9087017" lon="12.9205333"><ele>5.0</ele><time>2026-05-01T10:58:17.752Z</time></trkpt><trkpt lat="43.9085833" lon="12.920695"><ele>5.0</ele><time>2026-05-01T10:58:18.75Z</time></trkpt><trkpt lat="43.9084717" lon="12.9208483"><ele>5.0</ele><time>2026-05-01T10:58:19.752Z</time></trkpt><trkpt lat="43.9083667" lon="12.9210017"><ele>4.333333333333334</ele><time>2026-05-01T10:58:20.743Z</time></trkpt><trkpt lat="43.9082583" lon="12.9211633"><ele>3.666666666666667</ele><time>2026-05-01T10:58:21.752Z</time></trkpt><trkpt lat="43.908145" lon="12.9213283"><ele>3.0</ele><time>2026-05-01T10:58:22.751Z</time></trkpt><trkpt lat="43.908025" lon="12.9214967"><ele>3.0</ele><time>2026-05-01T10:58:23.744Z</time></trkpt><trkpt lat="43.9079033" lon="12.9216633"><ele>3.0</ele><time>2026-05-01T10:58:24.749Z</time></trkpt><trkpt lat="43.9077817" lon="12.9218333"><ele>3.0</ele><time>2026-05-01T10:58:25.746Z</time></trkpt><trkpt lat="43.9076667" lon="12.922005"><ele>4.0</ele><time>2026-05-01T10:58:26.751Z</time></trkpt><trkpt lat="43.9075483" lon="12.922175"><ele>5.0</ele><time>2026-05-01T10:58:27.751Z</time></trkpt><trkpt lat="43.907425" lon="12.9223417"><ele>6.0</ele><time>2026-05-01T10:58:28.748Z</time></trkpt><trkpt lat="43.9073" lon="12.92251"><ele>5.333333333333333</ele><time>2026-05-01T10:58:29.747Z</time></trkpt><trkpt lat="43.90718" lon="12.92268"><ele>4.666666666666666</ele><time>2026-05-01T10:58:30.748Z</time></trkpt><trkpt lat="43.9070583" lon="12.92285"><ele>4.0</ele><time>2026-05-01T10:58:31.75Z</time></trkpt><trkpt lat="43.9069383" lon="12.92302"><ele>4.0</ele><time>2026-05-01T10:58:32.751Z</time></trkpt><trkpt lat="43.9068217" lon="12.9231933"><ele>4.0</ele><time>2026-05-01T10:58:33.749Z</time></trkpt><trkpt lat="43.906705" lon="12.9233683"><ele>4.0</ele><time>2026-05-01T10:58:34.749Z</time></trkpt><trkpt lat="43.9065867" lon="12.923555"><ele>3.6666666666666665</ele><time>2026-05-01T10:58:35.742Z</time></trkpt><trkpt lat="43.906475" lon="12.9237517"><ele>3.333333333333333</ele><time>2026-05-01T10:58:36.748Z</time></trkpt><trkpt lat="43.9063717" lon="12.9239567"><ele>3.0</ele><time>2026-05-01T10:58:37.745Z</time></trkpt><trkpt lat="43.9062817" lon="12.9241833"><ele>2.0</ele><time>2026-05-01T10:58:38.751Z</time></trkpt><trkpt lat="43.9062" lon="12.9244167"><ele>1.0</ele><time>2026-05-01T10:58:39.75Z</time></trkpt><trkpt lat="43.90612" lon="12.92465"><ele>0.0</ele><time>2026-05-01T10:58:40.749Z</time></trkpt><trkpt lat="43.90604" lon="12.924885"><ele>-0.3333333333333333</ele><time>2026-05-01T10:58:41.75Z</time></trkpt><trkpt lat="43.905955" lon="12.9251183"><ele>-0.6666666666666666</ele><time>2026-05-01T10:58:42.743Z</time></trkpt><trkpt lat="43.9058717" lon="12.925345"><ele>-1.0</ele><time>2026-05-01T10:58:43.753Z</time></trkpt><trkpt lat="43.9057933" lon="12.9255583"><ele>-1.0</ele><time>2026-05-01T10:58:44.751Z</time></trkpt><trkpt lat="43.905715" lon="12.92577"><ele>-1.0</ele><time>2026-05-01T10:58:45.749Z</time></trkpt><trkpt lat="43.90564" lon="12.92598"><ele>-1.0</ele><time>2026-05-01T10:58:46.744Z</time></trkpt><trkpt lat="43.9055633" lon="12.9261817"><ele>-1.0</ele><time>2026-05-01T10:58:47.754Z</time></trkpt><trkpt lat="43.905485" lon="12.9263733"><ele>-1.0</ele><time>2026-05-01T10:58:48.753Z</time></trkpt><trkpt lat="43.9054083" lon="12.9265567"><ele>-1.0</ele><time>2026-05-01T10:58:49.753Z</time></trkpt><trkpt lat="43.905325" lon="12.92674"><ele>-1.3333333333333333</ele><time>2026-05-01T10:58:50.755Z</time></trkpt><trkpt lat="43.9052483" lon="12.926925"><ele>-1.6666666666666665</ele><time>2026-05-01T10:58:51.75Z</time></trkpt><trkpt lat="43.9051583" lon="12.9271183"><ele>-2.0</ele><time>2026-05-01T10:58:52.743Z</time></trkpt><trkpt lat="43.90506" lon="12.9273217"><ele>-1.0</ele><time>2026-05-01T10:58:53.749Z</time></trkpt><trkpt lat="43.9049617" lon="12.9275283"><ele>0.0</ele><time>2026-05-01T10:58:54.748Z</time></trkpt><trkpt lat="43.904855" lon="12.9277483"><ele>1.0</ele><time>2026-05-01T10:58:55.744Z</time></trkpt><trkpt lat="43.9047467" lon="12.9279633"><ele>1.0</ele><time>2026-05-01T10:58:56.742Z</time></trkpt><trkpt lat="43.9046367" lon="12.9281817"><ele>1.0</ele><time>2026-05-01T10:58:57.748Z</time></trkpt><trkpt lat="43.904525" lon="12.928405"><ele>1.0</ele><time>2026-05-01T10:58:58.744Z</time></trkpt><trkpt lat="43.9044117" lon="12.9286283"><ele>1.3333333333333333</ele><time>2026-05-01T10:58:59.751Z</time></trkpt><trkpt lat="43.9042983" lon="12.9288517"><ele>1.6666666666666665</ele><time>2026-05-01T10:59:00.75Z</time></trkpt><trkpt lat="43.9041867" lon="12.9290783"><ele>2.0</ele><time>2026-05-01T10:59:01.742Z</time></trkpt><trkpt lat="43.9040733" lon="12.9293033"><ele>2.0</ele><time>2026-05-01T10:59:02.747Z</time></trkpt><trkpt lat="43.9039583" lon="12.9295233"><ele>2.0</ele><time>2026-05-01T10:59:03.752Z</time></trkpt><trkpt lat="43.9038433" lon="12.9297467"><ele>2.0</ele><time>2026-05-01T10:59:04.75Z</time></trkpt><trkpt lat="43.90373" lon="12.9299717"><ele>1.6666666666666665</ele><time>2026-05-01T10:59:05.751Z</time></trkpt><trkpt lat="43.90362" lon="12.9301967"><ele>1.3333333333333333</ele><time>2026-05-01T10:59:06.748Z</time></trkpt><trkpt lat="43.9035117" lon="12.930415"><ele>1.0</ele><time>2026-05-01T10:59:07.751Z</time></trkpt><trkpt lat="43.9034133" lon="12.9306283"><ele>1.6666666666666665</ele><time>2026-05-01T10:59:08.757Z</time></trkpt><trkpt lat="43.9033217" lon="12.930835"><ele>2.3333333333333335</ele><time>2026-05-01T10:59:09.75Z</time></trkpt><trkpt lat="43.903225" lon="12.9310433"><ele>3.0</ele><time>2026-05-01T10:59:10.751Z</time></trkpt><trkpt lat="43.9031233" lon="12.931245"><ele>3.0</ele><time>2026-05-01T10:59:11.754Z</time></trkpt><trkpt lat="43.9030167" lon="12.9314483"><ele>3.0</ele><time>2026-05-01T10:59:12.753Z</time></trkpt><trkpt lat="43.90291" lon="12.9316567"><ele>3.0</ele><time>2026-05-01T10:59:13.751Z</time></trkpt><trkpt lat="43.9028067" lon="12.9318633"><ele>3.0</ele><time>2026-05-01T10:59:14.754Z</time></trkpt><trkpt lat="43.9027133" lon="12.9320767"><ele>3.0</ele><time>2026-05-01T10:59:15.754Z</time></trkpt><trkpt lat="43.9026083" lon="12.9322817"><ele>3.0</ele><time>2026-05-01T10:59:16.753Z</time></trkpt><trkpt lat="43.9025017" lon="12.9324967"><ele>2.6666666666666665</ele><time>2026-05-01T10:59:17.744Z</time></trkpt><trkpt lat="43.9023933" lon="12.93271"><ele>2.333333333333333</ele><time>2026-05-01T10:59:18.745Z</time></trkpt><trkpt lat="43.9022833" lon="12.9329217"><ele>2.0</ele><time>2026-05-01T10:59:19.743Z</time></trkpt><trkpt lat="43.902175" lon="12.9331367"><ele>2.0</ele><time>2026-05-01T10:59:20.745Z</time></trkpt><trkpt lat="43.9020617" lon="12.9333517"><ele>2.0</ele><time>2026-05-01T10:59:21.743Z</time></trkpt><trkpt lat="43.9019433" lon="12.93357"><ele>2.0</ele><time>2026-05-01T10:59:22.745Z</time></trkpt><trkpt lat="43.9018283" lon="12.93379"><ele>2.0</ele><time>2026-05-01T10:59:23.743Z</time></trkpt><trkpt lat="43.9017217" lon="12.9340117"><ele>2.0</ele><time>2026-05-01T10:59:24.743Z</time></trkpt><trkpt lat="43.9016133" lon="12.9342317"><ele>2.0</ele><time>2026-05-01T10:59:25.742Z</time></trkpt><trkpt lat="43.9015033" lon="12.9344417"><ele>2.0</ele><time>2026-05-01T10:59:26.743Z</time></trkpt><trkpt lat="43.901405" lon="12.9346633"><ele>2.0</ele><time>2026-05-01T10:59:27.743Z</time></trkpt><trkpt lat="43.901305" lon="12.9348833"><ele>2.0</ele><time>2026-05-01T10:59:28.742Z</time></trkpt><trkpt lat="43.9012067" lon="12.9351067"><ele>1.3333333333333333</ele><time>2026-05-01T10:59:29.743Z</time></trkpt><trkpt lat="43.9011033" lon="12.9353283"><ele>0.6666666666666666</ele><time>2026-05-01T10:59:30.743Z</time></trkpt><trkpt lat="43.9009967" lon="12.9355417"><ele>0.0</ele><time>2026-05-01T10:59:31.744Z</time></trkpt><trkpt lat="43.90089" lon="12.935745"><ele>0.6666666666666666</ele><time>2026-05-01T10:59:32.743Z</time></trkpt><trkpt lat="43.9007867" lon="12.9359533"><ele>1.3333333333333333</ele><time>2026-05-01T10:59:33.743Z</time></trkpt><trkpt lat="43.9006817" lon="12.9361633"><ele>2.0</ele><time>2026-05-01T10:59:34.743Z</time></trkpt><trkpt lat="43.9005733" lon="12.936365"><ele>2.0</ele><time>2026-05-01T10:59:35.743Z</time></trkpt><trkpt lat="43.9004583" lon="12.9365533"><ele>2.0</ele><time>2026-05-01T10:59:36.744Z</time></trkpt><trkpt lat="43.90034" lon="12.9367433"><ele>2.0</ele><time>2026-05-01T10:59:37.745Z</time></trkpt><trkpt lat="43.9002233" lon="12.9369333"><ele>1.3333333333333333</ele><time>2026-05-01T10:59:38.752Z</time></trkpt><trkpt lat="43.9001017" lon="12.9371283"><ele>0.6666666666666666</ele><time>2026-05-01T10:59:39.759Z</time></trkpt><trkpt lat="43.8999717" lon="12.9373167"><ele>0.0</ele><time>2026-05-01T10:59:40.75Z</time></trkpt><trkpt lat="43.8998467" lon="12.9375017"><ele>0.0</ele><time>2026-05-01T10:59:41.751Z</time></trkpt><trkpt lat="43.8997233" lon="12.9376883"><ele>0.0</ele><time>2026-05-01T10:59:42.751Z</time></trkpt><trkpt lat="43.8996033" lon="12.9378683"><ele>0.0</ele><time>2026-05-01T10:59:43.749Z</time></trkpt><trkpt lat="43.899485" lon="12.9380417"><ele>0.0</ele><time>2026-05-01T10:59:44.751Z</time></trkpt><trkpt lat="43.89937" lon="12.938215"><ele>0.0</ele><time>2026-05-01T10:59:45.745Z</time></trkpt><trkpt lat="43.89925" lon="12.9383917"><ele>0.0</ele><time>2026-05-01T10:59:46.749Z</time></trkpt><trkpt lat="43.899125" lon="12.9385717"><ele>0.3333333333333333</ele><time>2026-05-01T10:59:47.751Z</time></trkpt><trkpt lat="43.8989983" lon="12.93875"><ele>0.6666666666666666</ele><time>2026-05-01T10:59:48.751Z</time></trkpt><trkpt lat="43.8988667" lon="12.9389267"><ele>1.0</ele><time>2026-05-01T10:59:49.749Z</time></trkpt><trkpt lat="43.8987283" lon="12.93911"><ele>0.6666666666666666</ele><time>2026-05-01T10:59:50.744Z</time></trkpt><trkpt lat="43.8985917" lon="12.9393"><ele>0.3333333333333333</ele><time>2026-05-01T10:59:51.75Z</time></trkpt><trkpt lat="43.89845" lon="12.9394883"><ele>0.0</ele><time>2026-05-01T10:59:52.749Z</time></trkpt><trkpt lat="43.8983033" lon="12.9396767"><ele>0.0</ele><time>2026-05-01T10:59:53.751Z</time></trkpt><trkpt lat="43.898155" lon="12.9398667"><ele>0.0</ele><time>2026-05-01T10:59:54.751Z</time></trkpt><trkpt lat="43.8979983" lon="12.940055"><ele>0.0</ele><time>2026-05-01T10:59:55.752Z</time></trkpt><trkpt lat="43.8978383" lon="12.9402383"><ele>0.0</ele><time>2026-05-01T10:59:56.751Z</time></trkpt><trkpt lat="43.89768" lon="12.9404233"><ele>0.0</ele><time>2026-05-01T10:59:57.743Z</time></trkpt><trkpt lat="43.8975217" lon="12.9406117"><ele>0.0</ele><time>2026-05-01T10:59:58.754Z</time></trkpt><trkpt lat="43.8973633" lon="12.9408033"><ele>0.3333333333333333</ele><time>2026-05-01T10:59:59.753Z</time></trkpt><trkpt lat="43.8972067" lon="12.940995"><ele>0.6666666666666666</ele><time>2026-05-01T11:00:00.745Z</time></trkpt><trkpt lat="43.8970517" lon="12.941185"><ele>1.0</ele><time>2026-05-01T11:00:01.751Z</time></trkpt><trkpt lat="43.8968933" lon="12.9413783"><ele>1.0</ele><time>2026-05-01T11:00:02.755Z</time></trkpt><trkpt lat="43.8967333" lon="12.9415717"><ele>1.0</ele><time>2026-05-01T11:00:03.755Z</time></trkpt><trkpt lat="43.8965733" lon="12.9417683"><ele>1.0</ele><time>2026-05-01T11:00:04.742Z</time></trkpt><trkpt lat="43.8964133" lon="12.9419617"><ele>1.0</ele><time>2026-05-01T11:00:05.752Z</time></trkpt><trkpt lat="43.8962533" lon="12.942155"><ele>1.0</ele><time>2026-05-01T11:00:06.743Z</time></trkpt><trkpt lat="43.8960933" lon="12.9423517"><ele>1.0</ele><time>2026-05-01T11:00:07.749Z</time></trkpt><trkpt lat="43.8959333" lon="12.9425517"><ele>1.0</ele><time>2026-05-01T11:00:08.758Z</time></trkpt><trkpt lat="43.895775" lon="12.9427483"><ele>1.0</ele><time>2026-05-01T11:00:09.749Z</time></trkpt><trkpt lat="43.895615" lon="12.9429517"><ele>1.0</ele><time>2026-05-01T11:00:10.752Z</time></trkpt><trkpt lat="43.895455" lon="12.94315"><ele>1.0</ele><time>2026-05-01T11:00:11.75Z</time></trkpt><trkpt lat="43.8952967" lon="12.9433483"><ele>1.0</ele><time>2026-05-01T11:00:12.748Z</time></trkpt><trkpt lat="43.89514" lon="12.9435483"><ele>1.0</ele><time>2026-05-01T11:00:13.752Z</time></trkpt><trkpt lat="43.8949883" lon="12.94374"><ele>1.0</ele><time>2026-05-01T11:00:14.754Z</time></trkpt><trkpt lat="43.8948417" lon="12.9439217"><ele>1.0</ele><time>2026-05-01T11:00:15.749Z</time></trkpt><trkpt lat="43.8946983" lon="12.9441033"><ele>1.0</ele><time>2026-05-01T11:00:16.753Z</time></trkpt><trkpt lat="43.8945533" lon="12.944285"><ele>0.6666666666666666</ele><time>2026-05-01T11:00:17.757Z</time></trkpt><trkpt lat="43.8944067" lon="12.944465"><ele>0.3333333333333333</ele><time>2026-05-01T11:00:18.747Z</time></trkpt><trkpt lat="43.8942617" lon="12.944645"><ele>0.0</ele><time>2026-05-01T11:00:19.743Z</time></trkpt><trkpt lat="43.894115" lon="12.9448233"><ele>0.0</ele><time>2026-05-01T11:00:20.745Z</time></trkpt><trkpt lat="43.89397" lon="12.945"><ele>0.0</ele><time>2026-05-01T11:00:21.744Z</time></trkpt><trkpt lat="43.893825" lon="12.9451733"><ele>0.0</ele><time>2026-05-01T11:00:22.746Z</time></trkpt><trkpt lat="43.8936833" lon="12.9453433"><ele>0.0</ele><time>2026-05-01T11:00:23.744Z</time></trkpt><trkpt lat="43.8935433" lon="12.9455133"><ele>0.0</ele><time>2026-05-01T11:00:24.744Z</time></trkpt><trkpt lat="43.8934067" lon="12.945675"><ele>0.0</ele><time>2026-05-01T11:00:25.745Z</time></trkpt><trkpt lat="43.8932717" lon="12.9458333"><ele>0.0</ele><time>2026-05-01T11:00:26.744Z</time></trkpt><trkpt lat="43.89314" lon="12.945995"><ele>0.0</ele><time>2026-05-01T11:00:27.743Z</time></trkpt><trkpt lat="43.893005" lon="12.9461517"><ele>0.0</ele><time>2026-05-01T11:00:28.744Z</time></trkpt><trkpt lat="43.8928717" lon="12.9463083"><ele>0.0</ele><time>2026-05-01T11:00:29.743Z</time></trkpt><trkpt lat="43.8927417" lon="12.9464683"><ele>0.0</ele><time>2026-05-01T11:00:30.742Z</time></trkpt><trkpt lat="43.89261" lon="12.9466317"><ele>0.0</ele><time>2026-05-01T11:00:31.742Z</time></trkpt><trkpt lat="43.8924733" lon="12.9467983"><ele>0.0</ele><time>2026-05-01T11:00:32.744Z</time></trkpt><trkpt lat="43.8923383" lon="12.9469633"><ele>0.0</ele><time>2026-05-01T11:00:33.742Z</time></trkpt><trkpt lat="43.8922" lon="12.9471333"><ele>0.0</ele><time>2026-05-01T11:00:34.743Z</time></trkpt><trkpt lat="43.8920633" lon="12.9473067"><ele>0.0</ele><time>2026-05-01T11:00:35.745Z</time></trkpt><trkpt lat="43.89192" lon="12.94748"><ele>0.0</ele><time>2026-05-01T11:00:36.743Z</time></trkpt><trkpt lat="43.89178" lon="12.9476567"><ele>0.0</ele><time>2026-05-01T11:00:37.742Z</time></trkpt><trkpt lat="43.8916367" lon="12.94783"><ele>0.3333333333333333</ele><time>2026-05-01T11:00:38.752Z</time></trkpt><trkpt lat="43.8914917" lon="12.9480033"><ele>0.6666666666666666</ele><time>2026-05-01T11:00:39.752Z</time></trkpt><trkpt lat="43.8913517" lon="12.9481767"><ele>1.0</ele><time>2026-05-01T11:00:40.751Z</time></trkpt><trkpt lat="43.8912133" lon="12.9483417"><ele>0.6666666666666666</ele><time>2026-05-01T11:00:41.755Z</time></trkpt><trkpt lat="43.891085" lon="12.9484967"><ele>0.3333333333333333</ele><time>2026-05-01T11:00:42.749Z</time></trkpt><trkpt lat="43.890965" lon="12.9486433"><ele>0.0</ele><time>2026-05-01T11:00:43.752Z</time></trkpt><trkpt lat="43.8908583" lon="12.9487817"><ele>0.0</ele><time>2026-05-01T11:00:44.753Z</time></trkpt><trkpt lat="43.8907567" lon="12.9489083"><ele>0.0</ele><time>2026-05-01T11:00:45.746Z</time></trkpt><trkpt lat="43.8906617" lon="12.9490333"><ele>0.0</ele><time>2026-05-01T11:00:46.758Z</time></trkpt><trkpt lat="43.89057" lon="12.9491583"><ele>0.0</ele><time>2026-05-01T11:00:47.751Z</time></trkpt><trkpt lat="43.8904767" lon="12.949275"><ele>0.0</ele><time>2026-05-01T11:00:48.755Z</time></trkpt><trkpt lat="43.890375" lon="12.94939"><ele>0.0</ele><time>2026-05-01T11:00:49.751Z</time></trkpt><trkpt lat="43.89027" lon="12.9495067"><ele>0.0</ele><time>2026-05-01T11:00:50.748Z</time></trkpt><trkpt lat="43.8901633" lon="12.949635"><ele>0.0</ele><time>2026-05-01T11:00:51.749Z</time></trkpt><trkpt lat="43.8900567" lon="12.949765"><ele>0.0</ele><time>2026-05-01T11:00:52.752Z</time></trkpt><trkpt lat="43.8899483" lon="12.9499"><ele>0.0</ele><time>2026-05-01T11:00:53.751Z</time></trkpt><trkpt lat="43.8898383" lon="12.95004"><ele>0.0</ele><time>2026-05-01T11:00:54.756Z</time></trkpt><trkpt lat="43.8897267" lon="12.95018"><ele>0.0</ele><time>2026-05-01T11:00:55.742Z</time></trkpt><trkpt lat="43.8896117" lon="12.9503283"><ele>0.0</ele><time>2026-05-01T11:00:56.756Z</time></trkpt><trkpt lat="43.88949" lon="12.950475"><ele>0.0</ele><time>2026-05-01T11:00:57.751Z</time></trkpt><trkpt lat="43.8893633" lon="12.95063"><ele>0.0</ele><time>2026-05-01T11:00:58.75Z</time></trkpt><trkpt lat="43.88924" lon="12.9507867"><ele>0.3333333333333333</ele><time>2026-05-01T11:00:59.751Z</time></trkpt><trkpt lat="43.8891183" lon="12.9509383"><ele>0.6666666666666666</ele><time>2026-05-01T11:01:00.751Z</time></trkpt><trkpt lat="43.8890017" lon="12.951085"><ele>1.0</ele><time>2026-05-01T11:01:01.751Z</time></trkpt><trkpt lat="43.8888883" lon="12.95123"><ele>1.0</ele><time>2026-05-01T11:01:02.758Z</time></trkpt><trkpt lat="43.88878" lon="12.9513683"><ele>1.0</ele><time>2026-05-01T11:01:03.749Z</time></trkpt><trkpt lat="43.8886717" lon="12.9515067"><ele>1.0</ele><time>2026-05-01T11:01:04.749Z</time></trkpt><trkpt lat="43.88856" lon="12.951635"><ele>1.0</ele><time>2026-05-01T11:01:05.75Z</time></trkpt><trkpt lat="43.8884533" lon="12.95176"><ele>1.0</ele><time>2026-05-01T11:01:06.753Z</time></trkpt><trkpt lat="43.8883467" lon="12.9518967"><ele>1.0</ele><time>2026-05-01T11:01:07.751Z</time></trkpt><trkpt lat="43.8882433" lon="12.9520283"><ele>1.0</ele><time>2026-05-01T11:01:08.756Z</time></trkpt><trkpt lat="43.8881417" lon="12.9521567"><ele>1.0</ele><time>2026-05-01T11:01:09.749Z</time></trkpt><trkpt lat="43.8880433" lon="12.952285"><ele>1.0</ele><time>2026-05-01T11:01:10.752Z</time></trkpt><trkpt lat="43.8879517" lon="12.9524067"><ele>1.0</ele><time>2026-05-01T11:01:11.749Z</time></trkpt><trkpt lat="43.887865" lon="12.9525217"><ele>1.0</ele><time>2026-05-01T11:01:12.749Z</time></trkpt><trkpt lat="43.8877867" lon="12.9526283"><ele>1.0</ele><time>2026-05-01T11:01:13.748Z</time></trkpt><trkpt lat="43.88771" lon="12.9527283"><ele>0.8</ele><time>2026-05-01T11:01:14.754Z</time></trkpt><trkpt lat="43.8876383" lon="12.9528167"><ele>0.6000000000000001</ele><time>2026-05-01T11:01:15.749Z</time></trkpt><trkpt lat="43.88757" lon="12.9529"><ele>0.4</ele><time>2026-05-01T11:01:16.748Z</time></trkpt><trkpt lat="43.887505" lon="12.9529783"><ele>0.2</ele><time>2026-05-01T11:01:17.751Z</time></trkpt><trkpt lat="43.88744" lon="12.9530633"><ele>0.0</ele><time>2026-05-01T11:01:18.757Z</time></trkpt><trkpt lat="43.88737" lon="12.9531583"><ele>0.0</ele><time>2026-05-01T11:01:19.753Z</time></trkpt><trkpt lat="43.8872933" lon="12.9532567"><ele>0.0</ele><time>2026-05-01T11:01:20.753Z</time></trkpt><trkpt lat="43.887215" lon="12.953355"><ele>0.0</ele><time>2026-05-01T11:01:21.751Z</time></trkpt><trkpt lat="43.88714" lon="12.9534483"><ele>0.0</ele><time>2026-05-01T11:01:22.755Z</time></trkpt><trkpt lat="43.8870717" lon="12.9535367"><ele>0.0</ele><time>2026-05-01T11:01:23.751Z</time></trkpt><trkpt lat="43.8870067" lon="12.9536217"><ele>0.0</ele><time>2026-05-01T11:01:24.749Z</time></trkpt><trkpt lat="43.8869433" lon="12.953705"><ele>0.0</ele><time>2026-05-01T11:01:25.748Z</time></trkpt><trkpt lat="43.8868817" lon="12.9537917"><ele>0.0</ele><time>2026-05-01T11:01:26.754Z</time></trkpt><trkpt lat="43.8868167" lon="12.9538833"><ele>0.0</ele><time>2026-05-01T11:01:27.752Z</time></trkpt><trkpt lat="43.8867617" lon="12.9539667"><ele>0.0</ele><time>2026-05-01T11:01:28.75Z</time></trkpt><trkpt lat="43.8867" lon="12.954055"><ele>0.0</ele><time>2026-05-01T11:01:29.744Z</time></trkpt><trkpt lat="43.88663" lon="12.9541417"><ele>0.0</ele><time>2026-05-01T11:01:30.747Z</time></trkpt><trkpt lat="43.8865567" lon="12.95423"><ele>0.0</ele><time>2026-05-01T11:01:31.75Z</time></trkpt><trkpt lat="43.8864783" lon="12.954325"><ele>0.0</ele><time>2026-05-01T11:01:32.749Z</time></trkpt><trkpt lat="43.8863967" lon="12.9544333"><ele>0.0</ele><time>2026-05-01T11:01:33.754Z</time></trkpt><trkpt lat="43.88631" lon="12.9545367"><ele>0.0</ele><time>2026-05-01T11:01:34.751Z</time></trkpt><trkpt lat="43.886235" lon="12.95463"><ele>0.0</ele><time>2026-05-01T11:01:35.748Z</time></trkpt><trkpt lat="43.8861633" lon="12.9547317"><ele>0.0</ele><time>2026-05-01T11:01:36.748Z</time></trkpt><trkpt lat="43.8860833" lon="12.954845"><ele>0.0</ele><time>2026-05-01T11:01:37.751Z</time></trkpt><trkpt lat="43.885995" lon="12.954965"><ele>0.0</ele><time>2026-05-01T11:01:38.751Z</time></trkpt><trkpt lat="43.885895" lon="12.95509"><ele>0.3333333333333333</ele><time>2026-05-01T11:01:39.75Z</time></trkpt><trkpt lat="43.88579" lon="12.9552233"><ele>0.6666666666666666</ele><time>2026-05-01T11:01:40.742Z</time></trkpt><trkpt lat="43.8856817" lon="12.95537"><ele>1.0</ele><time>2026-05-01T11:01:41.751Z</time></trkpt><trkpt lat="43.885565" lon="12.95553"><ele>1.0</ele><time>2026-05-01T11:01:42.752Z</time></trkpt><trkpt lat="43.88544" lon="12.9556883"><ele>1.0</ele><time>2026-05-01T11:01:43.752Z</time></trkpt><trkpt lat="43.8853217" lon="12.95584"><ele>1.0</ele><time>2026-05-01T11:01:44.758Z</time></trkpt><trkpt lat="43.8851983" lon="12.9559933"><ele>2.0</ele><time>2026-05-01T11:01:45.754Z</time></trkpt><trkpt lat="43.8850733" lon="12.9561517"><ele>3.0</ele><time>2026-05-01T11:01:46.745Z</time></trkpt><trkpt lat="43.8849483" lon="12.9563117"><ele>4.0</ele><time>2026-05-01T11:01:47.749Z</time></trkpt><trkpt lat="43.8848233" lon="12.9564683"><ele>4.0</ele><time>2026-05-01T11:01:48.752Z</time></trkpt><trkpt lat="43.8847017" lon="12.9566233"><ele>4.0</ele><time>2026-05-01T11:01:49.751Z</time></trkpt><trkpt lat="43.884585" lon="12.9567767"><ele>4.0</ele><time>2026-05-01T11:01:50.753Z</time></trkpt><trkpt lat="43.884465" lon="12.9569333"><ele>4.666666666666666</ele><time>2026-05-01T11:01:51.753Z</time></trkpt><trkpt lat="43.8843433" lon="12.9570933"><ele>5.333333333333333</ele><time>2026-05-01T11:01:52.75Z</time></trkpt><trkpt lat="43.8842183" lon="12.9572533"><ele>6.0</ele><time>2026-05-01T11:01:53.748Z</time></trkpt><trkpt lat="43.8840967" lon="12.95741"><ele>4.333333333333333</ele><time>2026-05-01T11:01:54.756Z</time></trkpt><trkpt lat="43.8839733" lon="12.9575717"><ele>2.6666666666666665</ele><time>2026-05-01T11:01:55.748Z</time></trkpt><trkpt lat="43.8838517" lon="12.9577317"><ele>1.0</ele><time>2026-05-01T11:01:56.749Z</time></trkpt><trkpt lat="43.883735" lon="12.9578867"><ele>1.0</ele><time>2026-05-01T11:01:57.751Z</time></trkpt><trkpt lat="43.88362" lon="12.958035"><ele>1.0</ele><time>2026-05-01T11:01:58.751Z</time></trkpt><trkpt lat="43.883505" lon="12.9581817"><ele>1.0</ele><time>2026-05-01T11:01:59.749Z</time></trkpt><trkpt lat="43.88339" lon="12.958325"><ele>1.0</ele><time>2026-05-01T11:02:00.755Z</time></trkpt><trkpt lat="43.8832767" lon="12.9584767"><ele>1.0</ele><time>2026-05-01T11:02:01.749Z</time></trkpt><trkpt lat="43.883155" lon="12.9586317"><ele>1.0</ele><time>2026-05-01T11:02:02.748Z</time></trkpt><trkpt lat="43.883035" lon="12.95879"><ele>1.0</ele><time>2026-05-01T11:02:03.751Z</time></trkpt><trkpt lat="43.88291" lon="12.9589517"><ele>1.0</ele><time>2026-05-01T11:02:04.75Z</time></trkpt><trkpt lat="43.8827817" lon="12.9591167"><ele>1.0</ele><time>2026-05-01T11:02:05.747Z</time></trkpt><trkpt lat="43.8826533" lon="12.9592867"><ele>2.0</ele><time>2026-05-01T11:02:06.754Z</time></trkpt><trkpt lat="43.882525" lon="12.9594583"><ele>3.0</ele><time>2026-05-01T11:02:07.753Z</time></trkpt><trkpt lat="43.8823967" lon="12.959625"><ele>4.0</ele><time>2026-05-01T11:02:08.755Z</time></trkpt><trkpt lat="43.8822683" lon="12.959795"><ele>4.0</ele><time>2026-05-01T11:02:09.744Z</time></trkpt><trkpt lat="43.8821367" lon="12.9599683"><ele>4.0</ele><time>2026-05-01T11:02:10.75Z</time></trkpt><trkpt lat="43.8820133" lon="12.9601367"><ele>4.0</ele><time>2026-05-01T11:02:11.752Z</time></trkpt><trkpt lat="43.8818933" lon="12.9603017"><ele>4.666666666666666</ele><time>2026-05-01T11:02:12.752Z</time></trkpt><trkpt lat="43.8817767" lon="12.9604633"><ele>5.333333333333333</ele><time>2026-05-01T11:02:13.744Z</time></trkpt><trkpt lat="43.8816633" lon="12.960625"><ele>6.0</ele><time>2026-05-01T11:02:14.755Z</time></trkpt><trkpt lat="43.8815483" lon="12.960785"><ele>4.333333333333333</ele><time>2026-05-01T11:02:15.748Z</time></trkpt><trkpt lat="43.8814367" lon="12.9609483"><ele>2.6666666666666665</ele><time>2026-05-01T11:02:16.752Z</time></trkpt><trkpt lat="43.881325" lon="12.96111"><ele>1.0</ele><time>2026-05-01T11:02:17.754Z</time></trkpt><trkpt lat="43.881215" lon="12.96127"><ele>1.0</ele><time>2026-05-01T11:02:18.749Z</time></trkpt><trkpt lat="43.88111" lon="12.961425"><ele>1.0</ele><time>2026-05-01T11:02:19.742Z</time></trkpt><trkpt lat="43.8810117" lon="12.9615733"><ele>1.0</ele><time>2026-05-01T11:02:20.743Z</time></trkpt><trkpt lat="43.8809217" lon="12.9617117"><ele>1.0</ele><time>2026-05-01T11:02:21.742Z</time></trkpt><trkpt lat="43.8808333" lon="12.96184"><ele>1.0</ele><time>2026-05-01T11:02:22.744Z</time></trkpt><trkpt lat="43.8807517" lon="12.9619583"><ele>1.0</ele><time>2026-05-01T11:02:23.741Z</time></trkpt><trkpt lat="43.880665" lon="12.9620883"><ele>1.0</ele><time>2026-05-01T11:02:24.743Z</time></trkpt><trkpt lat="43.88057" lon="12.96223"><ele>1.0</ele><time>2026-05-01T11:02:25.742Z</time></trkpt><trkpt lat="43.88047" lon="12.9623817"><ele>0.75</ele><time>2026-05-01T11:02:26.743Z</time></trkpt><trkpt lat="43.8803717" lon="12.9625333"><ele>0.5</ele><time>2026-05-01T11:02:27.742Z</time></trkpt><trkpt lat="43.8802733" lon="12.9626817"><ele>0.25</ele><time>2026-05-01T11:02:28.743Z</time></trkpt><trkpt lat="43.8801833" lon="12.9628183"><ele>0.0</ele><time>2026-05-01T11:02:29.745Z</time></trkpt><trkpt lat="43.8801" lon="12.9629467"><ele>0.0</ele><time>2026-05-01T11:02:30.742Z</time></trkpt><trkpt lat="43.8800183" lon="12.9630733"><ele>0.0</ele><time>2026-05-01T11:02:31.743Z</time></trkpt><trkpt lat="43.87994" lon="12.9631933"><ele>0.0</ele><time>2026-05-01T11:02:32.744Z</time></trkpt><trkpt lat="43.87987" lon="12.963305"><ele>0.0</ele><time>2026-05-01T11:02:33.743Z</time></trkpt><trkpt lat="43.8797983" lon="12.9634167"><ele>0.0</ele><time>2026-05-01T11:02:34.744Z</time></trkpt><trkpt lat="43.8797233" lon="12.96353"><ele>0.0</ele><time>2026-05-01T11:02:35.743Z</time></trkpt><trkpt lat="43.87965" lon="12.9636483"><ele>0.0</ele><time>2026-05-01T11:02:36.742Z</time></trkpt><trkpt lat="43.8795733" lon="12.963765"><ele>0.0</ele><time>2026-05-01T11:02:37.743Z</time></trkpt><trkpt lat="43.879495" lon="12.9638833"><ele>0.0</ele><time>2026-05-01T11:02:38.746Z</time></trkpt><trkpt lat="43.8794167" lon="12.9640033"><ele>0.0</ele><time>2026-05-01T11:02:39.75Z</time></trkpt><trkpt lat="43.8793417" lon="12.96412"><ele>0.0</ele><time>2026-05-01T11:02:40.749Z</time></trkpt><trkpt lat="43.8792667" lon="12.9642367"><ele>0.0</ele><time>2026-05-01T11:02:41.75Z</time></trkpt><trkpt lat="43.8791867" lon="12.964355"><ele>0.25</ele><time>2026-05-01T11:02:42.743Z</time></trkpt><trkpt lat="43.8791033" lon="12.9644817"><ele>0.5</ele><time>2026-05-01T11:02:43.753Z</time></trkpt><trkpt lat="43.87902" lon="12.96461"><ele>0.75</ele><time>2026-05-01T11:02:44.75Z</time></trkpt><trkpt lat="43.8789317" lon="12.96475"><ele>1.0</ele><time>2026-05-01T11:02:45.75Z</time></trkpt><trkpt lat="43.8788367" lon="12.9648967"><ele>0.6666666666666666</ele><time>2026-05-01T11:02:46.749Z</time></trkpt><trkpt lat="43.878735" lon="12.9650517"><ele>0.3333333333333333</ele><time>2026-05-01T11:02:47.749Z</time></trkpt><trkpt lat="43.8786333" lon="12.9652117"><ele>0.0</ele><time>2026-05-01T11:02:48.743Z</time></trkpt><trkpt lat="43.8785317" lon="12.9653717"><ele>0.3333333333333333</ele><time>2026-05-01T11:02:49.746Z</time></trkpt><trkpt lat="43.8784267" lon="12.9655433"><ele>0.6666666666666666</ele><time>2026-05-01T11:02:50.744Z</time></trkpt><trkpt lat="43.87832" lon="12.9657183"><ele>1.0</ele><time>2026-05-01T11:02:51.744Z</time></trkpt><trkpt lat="43.8782067" lon="12.9659017"><ele>1.0</ele><time>2026-05-01T11:02:52.746Z</time></trkpt><trkpt lat="43.8780917" lon="12.9660883"><ele>1.0</ele><time>2026-05-01T11:02:53.751Z</time></trkpt><trkpt lat="43.8779683" lon="12.9662783"><ele>1.0</ele><time>2026-05-01T11:02:54.751Z</time></trkpt><trkpt lat="43.8778417" lon="12.9664717"><ele>1.0</ele><time>2026-05-01T11:02:55.753Z</time></trkpt><trkpt lat="43.8777083" lon="12.9666667"><ele>1.0</ele><time>2026-05-01T11:02:56.753Z</time></trkpt><trkpt lat="43.8775733" lon="12.9668667"><ele>1.0</ele><time>2026-05-01T11:02:57.753Z</time></trkpt><trkpt lat="43.8774367" lon="12.96707"><ele>1.3333333333333333</ele><time>2026-05-01T11:02:58.755Z</time></trkpt><trkpt lat="43.8773" lon="12.9672783"><ele>1.6666666666666665</ele><time>2026-05-01T11:02:59.757Z</time></trkpt><trkpt lat="43.8771583" lon="12.96749"><ele>2.0</ele><time>2026-05-01T11:03:00.748Z</time></trkpt><trkpt lat="43.8770233" lon="12.967695"><ele>2.333333333333333</ele><time>2026-05-01T11:03:01.751Z</time></trkpt><trkpt lat="43.876885" lon="12.967895"><ele>2.6666666666666665</ele><time>2026-05-01T11:03:02.751Z</time></trkpt><trkpt lat="43.8767483" lon="12.968095"><ele>3.0</ele><time>2026-05-01T11:03:03.75Z</time></trkpt><trkpt lat="43.876615" lon="12.9682933"><ele>2.0</ele><time>2026-05-01T11:03:04.751Z</time></trkpt><trkpt lat="43.8764833" lon="12.9684867"><ele>1.0</ele><time>2026-05-01T11:03:05.75Z</time></trkpt><trkpt lat="43.8763567" lon="12.9686733"><ele>0.0</ele><time>2026-05-01T11:03:06.75Z</time></trkpt><trkpt lat="43.8762267" lon="12.9688617"><ele>0.0</ele><time>2026-05-01T11:03:07.751Z</time></trkpt><trkpt lat="43.8761" lon="12.9690533"><ele>0.0</ele><time>2026-05-01T11:03:08.751Z</time></trkpt><trkpt lat="43.875975" lon="12.9692383"><ele>0.0</ele><time>2026-05-01T11:03:09.752Z</time></trkpt><trkpt lat="43.8758467" lon="12.9694267"><ele>0.0</ele><time>2026-05-01T11:03:10.742Z</time></trkpt><trkpt lat="43.8757233" lon="12.9696117"><ele>0.0</ele><time>2026-05-01T11:03:11.748Z</time></trkpt><trkpt lat="43.875605" lon="12.9697867"><ele>0.0</ele><time>2026-05-01T11:03:12.747Z</time></trkpt><trkpt lat="43.8754883" lon="12.969955"><ele>0.0</ele><time>2026-05-01T11:03:13.741Z</time></trkpt><trkpt lat="43.8753767" lon="12.97012"><ele>0.0</ele><time>2026-05-01T11:03:14.748Z</time></trkpt><trkpt lat="43.8752667" lon="12.9702867"><ele>0.0</ele><time>2026-05-01T11:03:15.747Z</time></trkpt><trkpt lat="43.875155" lon="12.9704583"><ele>0.0</ele><time>2026-05-01T11:03:16.752Z</time></trkpt><trkpt lat="43.8750417" lon="12.9706283"><ele>0.0</ele><time>2026-05-01T11:03:17.75Z</time></trkpt><trkpt lat="43.8749283" lon="12.9707983"><ele>0.0</ele><time>2026-05-01T11:03:18.752Z</time></trkpt><trkpt lat="43.874815" lon="12.97097"><ele>0.0</ele><time>2026-05-01T11:03:19.751Z</time></trkpt><trkpt lat="43.8746983" lon="12.9711467"><ele>0.0</ele><time>2026-05-01T11:03:20.753Z</time></trkpt><trkpt lat="43.8745783" lon="12.9713283"><ele>0.0</ele><time>2026-05-01T11:03:21.748Z</time></trkpt><trkpt lat="43.8744533" lon="12.971515"><ele>0.0</ele><time>2026-05-01T11:03:22.75Z</time></trkpt><trkpt lat="43.8743283" lon="12.971705"><ele>0.0</ele><time>2026-05-01T11:03:23.752Z</time></trkpt><trkpt lat="43.8742033" lon="12.9719"><ele>0.0</ele><time>2026-05-01T11:03:24.743Z</time></trkpt><trkpt lat="43.8740817" lon="12.97209"><ele>0.0</ele><time>2026-05-01T11:03:25.75Z</time></trkpt><trkpt lat="43.87396" lon="12.97227"><ele>0.0</ele><time>2026-05-01T11:03:26.748Z</time></trkpt><trkpt lat="43.8738433" lon="12.9724567"><ele>0.0</ele><time>2026-05-01T11:03:27.753Z</time></trkpt><trkpt lat="43.87373" lon="12.972635"><ele>0.0</ele><time>2026-05-01T11:03:28.757Z</time></trkpt><trkpt lat="43.8736167" lon="12.9728117"><ele>0.0</ele><time>2026-05-01T11:03:29.751Z</time></trkpt><trkpt lat="43.8735" lon="12.9729883"><ele>0.0</ele><time>2026-05-01T11:03:30.741Z</time></trkpt><trkpt lat="43.8733867" lon="12.9731683"><ele>0.0</ele><time>2026-05-01T11:03:31.751Z</time></trkpt><trkpt lat="43.8732717" lon="12.9733483"><ele>0.0</ele><time>2026-05-01T11:03:32.749Z</time></trkpt><trkpt lat="43.8731533" lon="12.9735317"><ele>0.0</ele><time>2026-05-01T11:03:33.749Z</time></trkpt><trkpt lat="43.87304" lon="12.9737133"><ele>0.0</ele><time>2026-05-01T11:03:34.748Z</time></trkpt><trkpt lat="43.8729217" lon="12.9738983"><ele>0.0</ele><time>2026-05-01T11:03:35.75Z</time></trkpt><trkpt lat="43.8728017" lon="12.974085"><ele>0.0</ele><time>2026-05-01T11:03:36.749Z</time></trkpt><trkpt lat="43.8726783" lon="12.974275"><ele>0.3333333333333333</ele><time>2026-05-01T11:03:37.752Z</time></trkpt><trkpt lat="43.8725483" lon="12.9744567"><ele>0.6666666666666666</ele><time>2026-05-01T11:03:38.753Z</time></trkpt><trkpt lat="43.87242" lon="12.9746583"><ele>1.0</ele><time>2026-05-01T11:03:39.753Z</time></trkpt><trkpt lat="43.8722933" lon="12.9748617"><ele>0.6666666666666666</ele><time>2026-05-01T11:03:40.743Z</time></trkpt><trkpt lat="43.8721683" lon="12.9750617"><ele>0.3333333333333333</ele><time>2026-05-01T11:03:41.751Z</time></trkpt><trkpt lat="43.8720483" lon="12.9752567"><ele>0.0</ele><time>2026-05-01T11:03:42.752Z</time></trkpt><trkpt lat="43.8719267" lon="12.9754517"><ele>0.0</ele><time>2026-05-01T11:03:43.751Z</time></trkpt><trkpt lat="43.8718083" lon="12.9756433"><ele>0.0</ele><time>2026-05-01T11:03:44.754Z</time></trkpt><trkpt lat="43.871685" lon="12.9758383"><ele>0.0</ele><time>2026-05-01T11:03:45.75Z</time></trkpt><trkpt lat="43.871565" lon="12.9760383"><ele>0.0</ele><time>2026-05-01T11:03:46.743Z</time></trkpt><trkpt lat="43.8714383" lon="12.9762367"><ele>0.0</ele><time>2026-05-01T11:03:47.752Z</time></trkpt><trkpt lat="43.8713133" lon="12.9764367"><ele>0.0</ele><time>2026-05-01T11:03:48.742Z</time></trkpt><trkpt lat="43.8711867" lon="12.976635"><ele>0.0</ele><time>2026-05-01T11:03:49.753Z</time></trkpt><trkpt lat="43.8710583" lon="12.9768317"><ele>0.0</ele><time>2026-05-01T11:03:50.756Z</time></trkpt><trkpt lat="43.8709333" lon="12.977025"><ele>0.0</ele><time>2026-05-01T11:03:51.754Z</time></trkpt><trkpt lat="43.8708083" lon="12.977215"><ele>0.0</ele><time>2026-05-01T11:03:52.757Z</time></trkpt><trkpt lat="43.8706833" lon="12.977405"><ele>0.0</ele><time>2026-05-01T11:03:53.755Z</time></trkpt><trkpt lat="43.8705533" lon="12.9775967"><ele>0.0</ele><time>2026-05-01T11:03:54.749Z</time></trkpt><trkpt lat="43.8704233" lon="12.9777917"><ele>0.0</ele><time>2026-05-01T11:03:55.753Z</time></trkpt><trkpt lat="43.870295" lon="12.977985"><ele>0.0</ele><time>2026-05-01T11:03:56.749Z</time></trkpt><trkpt lat="43.87017" lon="12.9781783"><ele>0.0</ele><time>2026-05-01T11:03:57.742Z</time></trkpt><trkpt lat="43.870045" lon="12.9783733"><ele>0.0</ele><time>2026-05-01T11:03:58.751Z</time></trkpt><trkpt lat="43.86993" lon="12.9785517"><ele>0.0</ele><time>2026-05-01T11:03:59.753Z</time></trkpt><trkpt lat="43.8698183" lon="12.9787233"><ele>0.0</ele><time>2026-05-01T11:04:00.75Z</time></trkpt><trkpt lat="43.869705" lon="12.9788933"><ele>0.0</ele><time>2026-05-01T11:04:01.742Z</time></trkpt><trkpt lat="43.869595" lon="12.9790583"><ele>0.0</ele><time>2026-05-01T11:04:02.745Z</time></trkpt><trkpt lat="43.86949" lon="12.9792217"><ele>0.0</ele><time>2026-05-01T11:04:03.742Z</time></trkpt><trkpt lat="43.86938" lon="12.979385"><ele>0.3333333333333333</ele><time>2026-05-01T11:04:04.744Z</time></trkpt><trkpt lat="43.8692717" lon="12.9795517"><ele>0.6666666666666666</ele><time>2026-05-01T11:04:05.745Z</time></trkpt><trkpt lat="43.8691567" lon="12.97972"><ele>1.0</ele><time>2026-05-01T11:04:06.744Z</time></trkpt><trkpt lat="43.8690417" lon="12.979895"><ele>0.6666666666666666</ele><time>2026-05-01T11:04:07.741Z</time></trkpt><trkpt lat="43.8689267" lon="12.98007"><ele>0.3333333333333333</ele><time>2026-05-01T11:04:08.743Z</time></trkpt><trkpt lat="43.8688083" lon="12.9802483"><ele>0.0</ele><time>2026-05-01T11:04:09.742Z</time></trkpt><trkpt lat="43.86869" lon="12.9804283"><ele>0.0</ele><time>2026-05-01T11:04:10.742Z</time></trkpt><trkpt lat="43.86857" lon="12.9806083"><ele>0.0</ele><time>2026-05-01T11:04:11.742Z</time></trkpt><trkpt lat="43.8684517" lon="12.9807833"><ele>0.0</ele><time>2026-05-01T11:04:12.742Z</time></trkpt><trkpt lat="43.8683383" lon="12.9809583"><ele>0.3333333333333333</ele><time>2026-05-01T11:04:13.743Z</time></trkpt><trkpt lat="43.868235" lon="12.981125"><ele>0.6666666666666666</ele><time>2026-05-01T11:04:14.743Z</time></trkpt><trkpt lat="43.8681367" lon="12.9812667"><ele>1.0</ele><time>2026-05-01T11:04:15.743Z</time></trkpt><trkpt lat="43.8680333" lon="12.9814167"><ele>1.0</ele><time>2026-05-01T11:04:16.744Z</time></trkpt><trkpt lat="43.8679233" lon="12.9815683"><ele>1.0</ele><time>2026-05-01T11:04:17.743Z</time></trkpt><trkpt lat="43.8678033" lon="12.981725"><ele>1.0</ele><time>2026-05-01T11:04:18.745Z</time></trkpt><trkpt lat="43.86768" lon="12.9818833"><ele>1.0</ele><time>2026-05-01T11:04:19.743Z</time></trkpt><trkpt lat="43.8675517" lon="12.9820483"><ele>1.0</ele><time>2026-05-01T11:04:20.744Z</time></trkpt><trkpt lat="43.86742" lon="12.9822167"><ele>1.0</ele><time>2026-05-01T11:04:21.743Z</time></trkpt><trkpt lat="43.8672883" lon="12.9823883"><ele>0.6666666666666666</ele><time>2026-05-01T11:04:22.743Z</time></trkpt><trkpt lat="43.8671583" lon="12.9825533"><ele>0.3333333333333333</ele><time>2026-05-01T11:04:23.742Z</time></trkpt><trkpt lat="43.8670283" lon="12.9827167"><ele>0.0</ele><time>2026-05-01T11:04:24.742Z</time></trkpt><trkpt lat="43.866905" lon="12.98288"><ele>0.0</ele><time>2026-05-01T11:04:25.746Z</time></trkpt><trkpt lat="43.8667867" lon="12.983045"><ele>0.0</ele><time>2026-05-01T11:04:26.746Z</time></trkpt><trkpt lat="43.86667" lon="12.9832167"><ele>0.0</ele><time>2026-05-01T11:04:27.744Z</time></trkpt><trkpt lat="43.8665533" lon="12.983395"><ele>0.0</ele><time>2026-05-01T11:04:28.742Z</time></trkpt><trkpt lat="43.8664417" lon="12.9835783"><ele>0.0</ele><time>2026-05-01T11:04:29.744Z</time></trkpt><trkpt lat="43.8663333" lon="12.9837567"><ele>0.0</ele><time>2026-05-01T11:04:30.743Z</time></trkpt><trkpt lat="43.866225" lon="12.98393"><ele>0.0</ele><time>2026-05-01T11:04:31.741Z</time></trkpt><trkpt lat="43.86612" lon="12.9841"><ele>0.0</ele><time>2026-05-01T11:04:32.742Z</time></trkpt><trkpt lat="43.8660167" lon="12.98427"><ele>0.0</ele><time>2026-05-01T11:04:33.743Z</time></trkpt><trkpt lat="43.8659283" lon="12.98442"><ele>0.0</ele><time>2026-05-01T11:04:34.743Z</time></trkpt><trkpt lat="43.8658383" lon="12.98457"><ele>0.0</ele><time>2026-05-01T11:04:35.743Z</time></trkpt><trkpt lat="43.86575" lon="12.9847183"><ele>0.0</ele><time>2026-05-01T11:04:36.741Z</time></trkpt><trkpt lat="43.8656617" lon="12.9848667"><ele>0.0</ele><time>2026-05-01T11:04:37.741Z</time></trkpt><trkpt lat="43.86557" lon="12.9850233"><ele>0.0</ele><time>2026-05-01T11:04:38.743Z</time></trkpt><trkpt lat="43.8654717" lon="12.98518"><ele>0.0</ele><time>2026-05-01T11:04:39.743Z</time></trkpt><trkpt lat="43.8653717" lon="12.9853433"><ele>0.0</ele><time>2026-05-01T11:04:40.741Z</time></trkpt><trkpt lat="43.8652717" lon="12.98551"><ele>0.0</ele><time>2026-05-01T11:04:41.743Z</time></trkpt><trkpt lat="43.8651667" lon="12.98569"><ele>0.0</ele><time>2026-05-01T11:04:42.744Z</time></trkpt><trkpt lat="43.8650583" lon="12.9858717"><ele>0.0</ele><time>2026-05-01T11:04:43.743Z</time></trkpt><trkpt lat="43.8649483" lon="12.9860533"><ele>0.0</ele><time>2026-05-01T11:04:44.742Z</time></trkpt><trkpt lat="43.8648417" lon="12.9862333"><ele>0.0</ele><time>2026-05-01T11:04:45.742Z</time></trkpt><trkpt lat="43.86474" lon="12.986405"><ele>0.0</ele><time>2026-05-01T11:04:46.743Z</time></trkpt><trkpt lat="43.8646383" lon="12.9865717"><ele>0.0</ele><time>2026-05-01T11:04:47.746Z</time></trkpt><trkpt lat="43.86454" lon="12.9867383"><ele>0.0</ele><time>2026-05-01T11:04:48.744Z</time></trkpt><trkpt lat="43.864445" lon="12.9868967"><ele>0.0</ele><time>2026-05-01T11:04:49.744Z</time></trkpt><trkpt lat="43.8643517" lon="12.9870483"><ele>0.0</ele><time>2026-05-01T11:04:50.744Z</time></trkpt><trkpt lat="43.86426" lon="12.987195"><ele>0.0</ele><time>2026-05-01T11:04:51.745Z</time></trkpt><trkpt lat="43.8641717" lon="12.9873467"><ele>0.0</ele><time>2026-05-01T11:04:52.752Z</time></trkpt><trkpt lat="43.8640883" lon="12.9874883"><ele>0.0</ele><time>2026-05-01T11:04:53.753Z</time></trkpt><trkpt lat="43.864005" lon="12.987625"><ele>0.0</ele><time>2026-05-01T11:04:54.753Z</time></trkpt><trkpt lat="43.86392" lon="12.9877667"><ele>0.0</ele><time>2026-05-01T11:04:55.743Z</time></trkpt><trkpt lat="43.86383" lon="12.987915"><ele>0.0</ele><time>2026-05-01T11:04:56.753Z</time></trkpt><trkpt lat="43.86374" lon="12.988065"><ele>0.0</ele><time>2026-05-01T11:04:57.752Z</time></trkpt><trkpt lat="43.86365" lon="12.98822"><ele>0.0</ele><time>2026-05-01T11:04:58.751Z</time></trkpt><trkpt lat="43.8635583" lon="12.9883733"><ele>0.0</ele><time>2026-05-01T11:04:59.752Z</time></trkpt><trkpt lat="43.8634683" lon="12.9885283"><ele>0.0</ele><time>2026-05-01T11:05:00.748Z</time></trkpt><trkpt lat="43.8633783" lon="12.98868"><ele>0.0</ele><time>2026-05-01T11:05:01.75Z</time></trkpt><trkpt lat="43.8632883" lon="12.9888317"><ele>0.0</ele><time>2026-05-01T11:05:02.752Z</time></trkpt><trkpt lat="43.8632" lon="12.9889817"><ele>0.0</ele><time>2026-05-01T11:05:03.747Z</time></trkpt><trkpt lat="43.8631133" lon="12.98913"><ele>0.0</ele><time>2026-05-01T11:05:04.752Z</time></trkpt><trkpt lat="43.8630233" lon="12.9892783"><ele>0.0</ele><time>2026-05-01T11:05:05.748Z</time></trkpt><trkpt lat="43.8629317" lon="12.9894267"><ele>0.0</ele><time>2026-05-01T11:05:06.749Z</time></trkpt><trkpt lat="43.8628383" lon="12.9895767"><ele>0.0</ele><time>2026-05-01T11:05:07.753Z</time></trkpt><trkpt lat="43.862745" lon="12.98973"><ele>0.0</ele><time>2026-05-01T11:05:08.747Z</time></trkpt><trkpt lat="43.86265" lon="12.989885"><ele>0.0</ele><time>2026-05-01T11:05:09.75Z</time></trkpt><trkpt lat="43.862555" lon="12.990045"><ele>0.0</ele><time>2026-05-01T11:05:10.749Z</time></trkpt><trkpt lat="43.8624617" lon="12.9902033"><ele>0.0</ele><time>2026-05-01T11:05:11.742Z</time></trkpt><trkpt lat="43.8623667" lon="12.9903633"><ele>0.0</ele><time>2026-05-01T11:05:12.749Z</time></trkpt><trkpt lat="43.8622667" lon="12.9905233"><ele>0.0</ele><time>2026-05-01T11:05:13.748Z</time></trkpt><trkpt lat="43.8621667" lon="12.9906967"><ele>0.0</ele><time>2026-05-01T11:05:14.75Z</time></trkpt><trkpt lat="43.8620617" lon="12.9908783"><ele>0.0</ele><time>2026-05-01T11:05:15.749Z</time></trkpt><trkpt lat="43.8619583" lon="12.99106"><ele>0.0</ele><time>2026-05-01T11:05:16.75Z</time></trkpt><trkpt lat="43.8618517" lon="12.99124"><ele>0.0</ele><time>2026-05-01T11:05:17.753Z</time></trkpt><trkpt lat="43.8617467" lon="12.99142"><ele>0.0</ele><time>2026-05-01T11:05:18.756Z</time></trkpt><trkpt lat="43.86164" lon="12.9915967"><ele>0.0</ele><time>2026-05-01T11:05:19.742Z</time></trkpt><trkpt lat="43.8615333" lon="12.9917683"><ele>0.0</ele><time>2026-05-01T11:05:20.744Z</time></trkpt><trkpt lat="43.86143" lon="12.99193"><ele>0.0</ele><time>2026-05-01T11:05:21.743Z</time></trkpt><trkpt lat="43.8613233" lon="12.9920867"><ele>0.0</ele><time>2026-05-01T11:05:22.742Z</time></trkpt><trkpt lat="43.8612117" lon="12.9922317"><ele>0.0</ele><time>2026-05-01T11:05:23.743Z</time></trkpt><trkpt lat="43.8610983" lon="12.9923667"><ele>0.0</ele><time>2026-05-01T11:05:24.742Z</time></trkpt><trkpt lat="43.8609833" lon="12.9924967"><ele>0.0</ele><time>2026-05-01T11:05:25.742Z</time></trkpt><trkpt lat="43.8608667" lon="12.9926133"><ele>0.0</ele><time>2026-05-01T11:05:26.743Z</time></trkpt><trkpt lat="43.8607467" lon="12.9927283"><ele>0.0</ele><time>2026-05-01T11:05:27.743Z</time></trkpt><trkpt lat="43.8606267" lon="12.9928417"><ele>0.0</ele><time>2026-05-01T11:05:28.743Z</time></trkpt><trkpt lat="43.860505" lon="12.9929533"><ele>0.0</ele><time>2026-05-01T11:05:29.743Z</time></trkpt><trkpt lat="43.860385" lon="12.9930717"><ele>0.0</ele><time>2026-05-01T11:05:30.744Z</time></trkpt><trkpt lat="43.8602733" lon="12.9931817"><ele>0.0</ele><time>2026-05-01T11:05:31.743Z</time></trkpt><trkpt lat="43.86017" lon="12.99329"><ele>0.0</ele><time>2026-05-01T11:05:32.742Z</time></trkpt><trkpt lat="43.8600717" lon="12.9933933"><ele>0.0</ele><time>2026-05-01T11:05:33.743Z</time></trkpt><trkpt lat="43.8599733" lon="12.9935017"><ele>0.0</ele><time>2026-05-01T11:05:34.743Z</time></trkpt><trkpt lat="43.8598767" lon="12.9936117"><ele>0.5</ele><time>2026-05-01T11:05:35.743Z</time></trkpt><trkpt lat="43.859785" lon="12.993715"><ele>1.0</ele><time>2026-05-01T11:05:36.742Z</time></trkpt><trkpt lat="43.8597067" lon="12.993815"><ele>1.5</ele><time>2026-05-01T11:05:37.742Z</time></trkpt><trkpt lat="43.8596233" lon="12.9939183"><ele>2.0</ele><time>2026-05-01T11:05:38.743Z</time></trkpt><trkpt lat="43.8595317" lon="12.9940283"><ele>2.0</ele><time>2026-05-01T11:05:39.742Z</time></trkpt><trkpt lat="43.8594383" lon="12.9941417"><ele>2.0</ele><time>2026-05-01T11:05:40.744Z</time></trkpt><trkpt lat="43.8593517" lon="12.9942583"><ele>2.0</ele><time>2026-05-01T11:05:41.749Z</time></trkpt><trkpt lat="43.859265" lon="12.99438"><ele>2.0</ele><time>2026-05-01T11:05:42.747Z</time></trkpt><trkpt lat="43.859185" lon="12.9944967"><ele>2.5</ele><time>2026-05-01T11:05:43.75Z</time></trkpt><trkpt lat="43.85911" lon="12.994615"><ele>3.0</ele><time>2026-05-01T11:05:44.761Z</time></trkpt><trkpt lat="43.8590367" lon="12.9947267"><ele>3.5</ele><time>2026-05-01T11:05:45.749Z</time></trkpt><trkpt lat="43.85896" lon="12.9948467"><ele>4.0</ele><time>2026-05-01T11:05:46.741Z</time></trkpt><trkpt lat="43.8588833" lon="12.9949667"><ele>3.25</ele><time>2026-05-01T11:05:47.749Z</time></trkpt><trkpt lat="43.858805" lon="12.99508"><ele>2.5</ele><time>2026-05-01T11:05:48.75Z</time></trkpt><trkpt lat="43.85873" lon="12.9951967"><ele>1.75</ele><time>2026-05-01T11:05:49.747Z</time></trkpt><trkpt lat="43.858655" lon="12.9953167"><ele>1.0</ele><time>2026-05-01T11:05:50.752Z</time></trkpt><trkpt lat="43.8585783" lon="12.99544"><ele>1.0</ele><time>2026-05-01T11:05:51.753Z</time></trkpt><trkpt lat="43.8585" lon="12.9955633"><ele>1.0</ele><time>2026-05-01T11:05:52.752Z</time></trkpt><trkpt lat="43.8584217" lon="12.9956933"><ele>1.0</ele><time>2026-05-01T11:05:53.754Z</time></trkpt><trkpt lat="43.858345" lon="12.9958233"><ele>1.0</ele><time>2026-05-01T11:05:54.752Z</time></trkpt><trkpt lat="43.8582683" lon="12.99595"><ele>1.4</ele><time>2026-05-01T11:05:55.742Z</time></trkpt><trkpt lat="43.8581967" lon="12.9960667"><ele>1.8</ele><time>2026-05-01T11:05:56.75Z</time></trkpt><trkpt lat="43.8581267" lon="12.9961783"><ele>2.1999999999999997</ele><time>2026-05-01T11:05:57.75Z</time></trkpt><trkpt lat="43.85806" lon="12.9962917"><ele>2.6</ele><time>2026-05-01T11:05:58.75Z</time></trkpt><trkpt lat="43.857985" lon="12.9964083"><ele>3.0</ele><time>2026-05-01T11:05:59.752Z</time></trkpt><trkpt lat="43.85791" lon="12.9965317"><ele>3.0</ele><time>2026-05-01T11:06:00.75Z</time></trkpt><trkpt lat="43.8578317" lon="12.99666"><ele>3.0</ele><time>2026-05-01T11:06:01.748Z</time></trkpt><trkpt lat="43.8577533" lon="12.9967883"><ele>3.0</ele><time>2026-05-01T11:06:02.752Z</time></trkpt><trkpt lat="43.8576783" lon="12.9969183"><ele>3.0</ele><time>2026-05-01T11:06:03.75Z</time></trkpt><trkpt lat="43.857605" lon="12.9970467"><ele>2.5</ele><time>2026-05-01T11:06:04.749Z</time></trkpt><trkpt lat="43.85753" lon="12.9971733"><ele>2.0</ele><time>2026-05-01T11:06:05.749Z</time></trkpt><trkpt lat="43.857455" lon="12.9973"><ele>1.5</ele><time>2026-05-01T11:06:06.75Z</time></trkpt><trkpt lat="43.85738" lon="12.9974267"><ele>1.0</ele><time>2026-05-01T11:06:07.75Z</time></trkpt><trkpt lat="43.8573067" lon="12.9975517"><ele>1.0</ele><time>2026-05-01T11:06:08.751Z</time></trkpt><trkpt lat="43.8572367" lon="12.997675"><ele>1.0</ele><time>2026-05-01T11:06:09.748Z</time></trkpt><trkpt lat="43.8571683" lon="12.9977967"><ele>1.0</ele><time>2026-05-01T11:06:10.747Z</time></trkpt><trkpt lat="43.8570983" lon="12.9979217"><ele>1.0</ele><time>2026-05-01T11:06:11.752Z</time></trkpt><trkpt lat="43.8570267" lon="12.9980533"><ele>1.0</ele><time>2026-05-01T11:06:12.755Z</time></trkpt><trkpt lat="43.8569517" lon="12.9981883"><ele>1.0</ele><time>2026-05-01T11:06:13.742Z</time></trkpt><trkpt lat="43.85687" lon="12.998335"><ele>1.0</ele><time>2026-05-01T11:06:14.752Z</time></trkpt><trkpt lat="43.8567867" lon="12.9984767"><ele>1.0</ele><time>2026-05-01T11:06:15.75Z</time></trkpt><trkpt lat="43.856705" lon="12.998615"><ele>1.5</ele><time>2026-05-01T11:06:16.752Z</time></trkpt><trkpt lat="43.85663" lon="12.99875"><ele>2.0</ele><time>2026-05-01T11:06:17.749Z</time></trkpt><trkpt lat="43.8565583" lon="12.998875"><ele>2.5</ele><time>2026-05-01T11:06:18.76Z</time></trkpt><trkpt lat="43.8564883" lon="12.9990017"><ele>3.0</ele><time>2026-05-01T11:06:19.753Z</time></trkpt><trkpt lat="43.8564183" lon="12.999125"><ele>2.5</ele><time>2026-05-01T11:06:20.745Z</time></trkpt><trkpt lat="43.8563483" lon="12.9992467"><ele>2.0</ele><time>2026-05-01T11:06:21.759Z</time></trkpt><trkpt lat="43.85628" lon="12.9993683"><ele>1.5</ele><time>2026-05-01T11:06:22.748Z</time></trkpt><trkpt lat="43.8562083" lon="12.9994933"><ele>1.0</ele><time>2026-05-01T11:06:23.748Z</time></trkpt><trkpt lat="43.8561383" lon="12.9996183"><ele>1.0</ele><time>2026-05-01T11:06:24.743Z</time></trkpt><trkpt lat="43.8560667" lon="12.9997417"><ele>1.0</ele><time>2026-05-01T11:06:25.743Z</time></trkpt><trkpt lat="43.8559933" lon="12.9998617"><ele>1.0</ele><time>2026-05-01T11:06:26.742Z</time></trkpt><trkpt lat="43.8559233" lon="12.99998"><ele>1.0</ele><time>2026-05-01T11:06:27.741Z</time></trkpt><trkpt lat="43.855855" lon="13.000095"><ele>1.0</ele><time>2026-05-01T11:06:28.742Z</time></trkpt><trkpt lat="43.855785" lon="13.00021"><ele>2.5</ele><time>2026-05-01T11:06:29.743Z</time></trkpt><trkpt lat="43.8557117" lon="13.0003267"><ele>4.0</ele><time>2026-05-01T11:06:30.741Z</time></trkpt><trkpt lat="43.8556333" lon="13.0004467"><ele>5.5</ele><time>2026-05-01T11:06:31.742Z</time></trkpt><trkpt lat="43.8555567" lon="13.00057"><ele>7.0</ele><time>2026-05-01T11:06:32.742Z</time></trkpt><trkpt lat="43.8554817" lon="13.000695"><ele>7.0</ele><time>2026-05-01T11:06:33.743Z</time></trkpt><trkpt lat="43.8554117" lon="13.000815"><ele>6.999999999999999</ele><time>2026-05-01T11:06:34.743Z</time></trkpt><trkpt lat="43.8553483" lon="13.000925"><ele>6.999999999999999</ele><time>2026-05-01T11:06:35.743Z</time></trkpt><trkpt lat="43.8552883" lon="13.00103"><ele>7.0</ele><time>2026-05-01T11:06:36.743Z</time></trkpt><trkpt lat="43.855225" lon="13.001135"><ele>7.0</ele><time>2026-05-01T11:06:37.744Z</time></trkpt><trkpt lat="43.8551567" lon="13.0012467"><ele>7.199999999999999</ele><time>2026-05-01T11:06:38.743Z</time></trkpt><trkpt lat="43.8550833" lon="13.0013633"><ele>7.3999999999999995</ele><time>2026-05-01T11:06:39.742Z</time></trkpt><trkpt lat="43.85501" lon="13.0014817"><ele>7.6000000000000005</ele><time>2026-05-01T11:06:40.743Z</time></trkpt><trkpt lat="43.8549383" lon="13.0016017"><ele>7.800000000000001</ele><time>2026-05-01T11:06:41.744Z</time></trkpt><trkpt lat="43.8548683" lon="13.0017167"><ele>8.0</ele><time>2026-05-01T11:06:42.743Z</time></trkpt><trkpt lat="43.854805" lon="13.0018283"><ele>7.166666666666666</ele><time>2026-05-01T11:06:43.743Z</time></trkpt><trkpt lat="43.8547483" lon="13.001935"><ele>6.333333333333333</ele><time>2026-05-01T11:06:44.754Z</time></trkpt><trkpt lat="43.854695" lon="13.0020333"><ele>5.5</ele><time>2026-05-01T11:06:45.75Z</time></trkpt><trkpt lat="43.8546467" lon="13.00212"><ele>4.666666666666666</ele><time>2026-05-01T11:06:46.753Z</time></trkpt><trkpt lat="43.854605" lon="13.0021933"><ele>3.833333333333333</ele><time>2026-05-01T11:06:47.749Z</time></trkpt><trkpt lat="43.8545633" lon="13.0022717"><ele>3.0</ele><time>2026-05-01T11:06:48.75Z</time></trkpt><trkpt lat="43.854515" lon="13.00236"><ele>3.0</ele><time>2026-05-01T11:06:49.754Z</time></trkpt><trkpt lat="43.854465" lon="13.00245"><ele>3.0</ele><time>2026-05-01T11:06:50.754Z</time></trkpt><trkpt lat="43.85442" lon="13.00254"><ele>3.0</ele><time>2026-05-01T11:06:51.75Z</time></trkpt><trkpt lat="43.85438" lon="13.0026167"><ele>3.0</ele><time>2026-05-01T11:06:52.748Z</time></trkpt><trkpt lat="43.854315" lon="13.0027367"><ele>3.0</ele><time>2026-05-01T11:06:54.75Z</time></trkpt><trkpt lat="43.854255" lon="13.0028467"><ele>3.0</ele><time>2026-05-01T11:06:56.749Z</time></trkpt><trkpt lat="43.8541933" lon="13.0029717"><ele>3.2</ele><time>2026-05-01T11:06:58.748Z</time></trkpt><trkpt lat="43.854125" lon="13.0031183"><ele>3.4</ele><time>2026-05-01T11:07:00.749Z</time></trkpt><trkpt lat="43.8540533" lon="13.0032683"><ele>3.6000000000000005</ele><time>2026-05-01T11:07:02.744Z</time></trkpt><trkpt lat="43.8540167" lon="13.003355"><ele>3.8000000000000003</ele><time>2026-05-01T11:07:03.752Z</time></trkpt><trkpt lat="43.85398" lon="13.0034433"><ele>4.0</ele><time>2026-05-01T11:07:04.752Z</time></trkpt><trkpt lat="43.853945" lon="13.0035233"><ele>3.9999999999999996</ele><time>2026-05-01T11:07:05.748Z</time></trkpt><trkpt lat="43.8539033" lon="13.0036033"><ele>4.0</ele><time>2026-05-01T11:07:06.75Z</time></trkpt><trkpt lat="43.8538567" lon="13.00369"><ele>4.0</ele><time>2026-05-01T11:07:07.749Z</time></trkpt><trkpt lat="43.853805" lon="13.00378"><ele>4.0</ele><time>2026-05-01T11:07:08.753Z</time></trkpt><trkpt lat="43.8537533" lon="13.003875"><ele>3.9999999999999996</ele><time>2026-05-01T11:07:09.751Z</time></trkpt><trkpt lat="43.8537017" lon="13.003975"><ele>4.0</ele><time>2026-05-01T11:07:10.752Z</time></trkpt><trkpt lat="43.85365" lon="13.00408"><ele>3.8000000000000003</ele><time>2026-05-01T11:07:11.753Z</time></trkpt><trkpt lat="43.853595" lon="13.004185"><ele>3.6000000000000005</ele><time>2026-05-01T11:07:12.748Z</time></trkpt><trkpt lat="43.853545" lon="13.0042917"><ele>3.4</ele><time>2026-05-01T11:07:13.753Z</time></trkpt><trkpt lat="43.8534917" lon="13.0044"><ele>3.2</ele><time>2026-05-01T11:07:14.752Z</time></trkpt><trkpt lat="43.8534383" lon="13.0045117"><ele>3.0</ele><time>2026-05-01T11:07:15.751Z</time></trkpt><trkpt lat="43.853385" lon="13.0046217"><ele>3.0</ele><time>2026-05-01T11:07:16.752Z</time></trkpt><trkpt lat="43.8533333" lon="13.0047333"><ele>3.0</ele><time>2026-05-01T11:07:17.753Z</time></trkpt><trkpt lat="43.8532817" lon="13.004845"><ele>3.0</ele><time>2026-05-01T11:07:18.751Z</time></trkpt><trkpt lat="43.85323" lon="13.0049483"><ele>3.0</ele><time>2026-05-01T11:07:19.761Z</time></trkpt><trkpt lat="43.85318" lon="13.0050483"><ele>3.0</ele><time>2026-05-01T11:07:20.752Z</time></trkpt><trkpt lat="43.85313" lon="13.0051417"><ele>3.0</ele><time>2026-05-01T11:07:21.744Z</time></trkpt><trkpt lat="43.8530817" lon="13.00523"><ele>3.0</ele><time>2026-05-01T11:07:22.751Z</time></trkpt><trkpt lat="43.8530367" lon="13.0053183"><ele>3.0</ele><time>2026-05-01T11:07:23.747Z</time></trkpt><trkpt lat="43.852995" lon="13.0054017"><ele>3.0</ele><time>2026-05-01T11:07:24.744Z</time></trkpt><trkpt lat="43.8529533" lon="13.00549"><ele>3.0</ele><time>2026-05-01T11:07:25.75Z</time></trkpt><trkpt lat="43.85291" lon="13.0055867"><ele>3.0</ele><time>2026-05-01T11:07:26.753Z</time></trkpt><trkpt lat="43.8528567" lon="13.005685"><ele>3.0</ele><time>2026-05-01T11:07:27.75Z</time></trkpt><trkpt lat="43.8528067" lon="13.0057867"><ele>3.0</ele><time>2026-05-01T11:07:28.749Z</time></trkpt><trkpt lat="43.8527567" lon="13.0058733"><ele>2.0</ele><time>2026-05-01T11:07:29.741Z</time></trkpt><trkpt lat="43.8527167" lon="13.0059467"><ele>2.0</ele><time>2026-05-01T11:07:30.751Z</time></trkpt><trkpt lat="43.8526617" lon="13.0060067"><ele>2.0</ele><time>2026-05-01T11:07:32.761Z</time></trkpt></trkseg></trk></gpx>